<?xml version="1.0" encoding="UTF-8" standalone="no" ?>
<gpx xmlns="http://www.topografix.com/GPX/1/1" xmlns:xsi="http://www.w3.org/2001/XMLSchema-instance" xsi:schemaLocation="http://www.topografix.com/GPX/1/1 http://www.topografix.com/GPX/1/1/gpx.xsd" version="1.1" creator="VisuGPX - https://www.visugpx.com">
  <metadata>
    <name>Sortie RL 07-02-2026 - cabane de Jaut</name>
  </metadata>
  <trk>
    <name><![CDATA[Cabane de Jaut 2026-02-07]]></name>
    <extensions>
      <line xmlns="http://www.topografix.com/GPX/gpx_style/0/2">
        <width>2</width>
      </line>
    </extensions>
    <trkseg>
      <trkpt lat="43.06343" lon="-0.3805">
        <ele>817.8</ele>
        <time>2026-02-07T09:27:47.000Z</time>
      </trkpt>
      <trkpt lat="43.06343" lon="-0.3805">
        <ele>817.8</ele>
        <time>2026-02-07T09:27:48.000Z</time>
      </trkpt>
      <trkpt lat="43.06343" lon="-0.3805">
        <ele>817.9</ele>
        <time>2026-02-07T09:27:51.000Z</time>
      </trkpt>
      <trkpt lat="43.06342" lon="-0.3805">
        <ele>817.9</ele>
        <time>2026-02-07T09:27:54.000Z</time>
      </trkpt>
      <trkpt lat="43.06342" lon="-0.3805">
        <ele>817.9</ele>
        <time>2026-02-07T09:27:57.000Z</time>
      </trkpt>
      <trkpt lat="43.06342" lon="-0.38051">
        <ele>817.7</ele>
        <time>2026-02-07T09:28:00.000Z</time>
      </trkpt>
      <trkpt lat="43.06343" lon="-0.38054">
        <ele>817.6</ele>
        <time>2026-02-07T09:28:03.000Z</time>
      </trkpt>
      <trkpt lat="43.06343" lon="-0.38056">
        <ele>818.9</ele>
        <time>2026-02-07T09:31:43.000Z</time>
      </trkpt>
      <trkpt lat="43.06343" lon="-0.38056">
        <ele>819</ele>
        <time>2026-02-07T09:31:44.000Z</time>
      </trkpt>
      <trkpt lat="43.06342" lon="-0.38056">
        <ele>819</ele>
        <time>2026-02-07T09:31:45.000Z</time>
      </trkpt>
      <trkpt lat="43.06342" lon="-0.38057">
        <ele>819</ele>
        <time>2026-02-07T09:31:46.000Z</time>
      </trkpt>
      <trkpt lat="43.06339" lon="-0.38056">
        <ele>819.2</ele>
        <time>2026-02-07T09:31:49.000Z</time>
      </trkpt>
      <trkpt lat="43.06336" lon="-0.38053">
        <ele>819.3</ele>
        <time>2026-02-07T09:31:52.000Z</time>
      </trkpt>
      <trkpt lat="43.06334" lon="-0.38049">
        <ele>819.4</ele>
        <time>2026-02-07T09:31:55.000Z</time>
      </trkpt>
      <trkpt lat="43.06333" lon="-0.38046">
        <ele>819.5</ele>
        <time>2026-02-07T09:31:58.000Z</time>
      </trkpt>
      <trkpt lat="43.06331" lon="-0.38043">
        <ele>819.6</ele>
        <time>2026-02-07T09:32:01.000Z</time>
      </trkpt>
      <trkpt lat="43.06329" lon="-0.3804">
        <ele>819.6</ele>
        <time>2026-02-07T09:32:04.000Z</time>
      </trkpt>
      <trkpt lat="43.06327" lon="-0.38037">
        <ele>819.7</ele>
        <time>2026-02-07T09:32:07.000Z</time>
      </trkpt>
      <trkpt lat="43.06326" lon="-0.38033">
        <ele>820</ele>
        <time>2026-02-07T09:32:10.000Z</time>
      </trkpt>
      <trkpt lat="43.06325" lon="-0.38031">
        <ele>820.2</ele>
        <time>2026-02-07T09:32:13.000Z</time>
      </trkpt>
      <trkpt lat="43.06323" lon="-0.38029">
        <ele>820.3</ele>
        <time>2026-02-07T09:32:16.000Z</time>
      </trkpt>
      <trkpt lat="43.06321" lon="-0.38026">
        <ele>820.6</ele>
        <time>2026-02-07T09:32:19.000Z</time>
      </trkpt>
      <trkpt lat="43.0632" lon="-0.38022">
        <ele>820.9</ele>
        <time>2026-02-07T09:32:22.000Z</time>
      </trkpt>
      <trkpt lat="43.06319" lon="-0.38021">
        <ele>821.2</ele>
        <time>2026-02-07T09:32:25.000Z</time>
      </trkpt>
      <trkpt lat="43.06317" lon="-0.3802">
        <ele>821.5</ele>
        <time>2026-02-07T09:32:28.000Z</time>
      </trkpt>
      <trkpt lat="43.06316" lon="-0.38016">
        <ele>821.8</ele>
        <time>2026-02-07T09:32:31.000Z</time>
      </trkpt>
      <trkpt lat="43.06315" lon="-0.38013">
        <ele>822</ele>
        <time>2026-02-07T09:32:34.000Z</time>
      </trkpt>
      <trkpt lat="43.06314" lon="-0.38008">
        <ele>822.1</ele>
        <time>2026-02-07T09:32:37.000Z</time>
      </trkpt>
      <trkpt lat="43.06313" lon="-0.38003">
        <ele>822.2</ele>
        <time>2026-02-07T09:32:40.000Z</time>
      </trkpt>
      <trkpt lat="43.06312" lon="-0.37999">
        <ele>822.1</ele>
        <time>2026-02-07T09:32:43.000Z</time>
      </trkpt>
      <trkpt lat="43.06311" lon="-0.37997">
        <ele>822.4</ele>
        <time>2026-02-07T09:32:46.000Z</time>
      </trkpt>
      <trkpt lat="43.06311" lon="-0.37997">
        <ele>822.6</ele>
        <time>2026-02-07T09:32:48.000Z</time>
      </trkpt>
      <trkpt lat="43.06311" lon="-0.37997">
        <ele>822.7</ele>
        <time>2026-02-07T09:32:49.000Z</time>
      </trkpt>
      <trkpt lat="43.06311" lon="-0.37997">
        <ele>822.7</ele>
        <time>2026-02-07T09:32:52.000Z</time>
      </trkpt>
      <trkpt lat="43.06309" lon="-0.37994">
        <ele>822.7</ele>
        <time>2026-02-07T09:32:54.000Z</time>
      </trkpt>
      <trkpt lat="43.06309" lon="-0.37993">
        <ele>822.7</ele>
        <time>2026-02-07T09:32:55.000Z</time>
      </trkpt>
      <trkpt lat="43.06308" lon="-0.37992">
        <ele>822.7</ele>
        <time>2026-02-07T09:32:56.000Z</time>
      </trkpt>
      <trkpt lat="43.06306" lon="-0.37988">
        <ele>822.8</ele>
        <time>2026-02-07T09:32:59.000Z</time>
      </trkpt>
      <trkpt lat="43.06305" lon="-0.37983">
        <ele>822.8</ele>
        <time>2026-02-07T09:33:02.000Z</time>
      </trkpt>
      <trkpt lat="43.06303" lon="-0.37979">
        <ele>822.9</ele>
        <time>2026-02-07T09:33:05.000Z</time>
      </trkpt>
      <trkpt lat="43.06302" lon="-0.37976">
        <ele>823.1</ele>
        <time>2026-02-07T09:33:08.000Z</time>
      </trkpt>
      <trkpt lat="43.063" lon="-0.37971">
        <ele>823.3</ele>
        <time>2026-02-07T09:33:11.000Z</time>
      </trkpt>
      <trkpt lat="43.06298" lon="-0.37967">
        <ele>823.5</ele>
        <time>2026-02-07T09:33:14.000Z</time>
      </trkpt>
      <trkpt lat="43.06297" lon="-0.37963">
        <ele>823.7</ele>
        <time>2026-02-07T09:33:17.000Z</time>
      </trkpt>
      <trkpt lat="43.06295" lon="-0.37959">
        <ele>823.9</ele>
        <time>2026-02-07T09:33:20.000Z</time>
      </trkpt>
      <trkpt lat="43.06294" lon="-0.37955">
        <ele>824.2</ele>
        <time>2026-02-07T09:33:23.000Z</time>
      </trkpt>
      <trkpt lat="43.06293" lon="-0.37951">
        <ele>824.5</ele>
        <time>2026-02-07T09:33:26.000Z</time>
      </trkpt>
      <trkpt lat="43.06291" lon="-0.37948">
        <ele>824.7</ele>
        <time>2026-02-07T09:33:29.000Z</time>
      </trkpt>
      <trkpt lat="43.06289" lon="-0.37944">
        <ele>825</ele>
        <time>2026-02-07T09:33:32.000Z</time>
      </trkpt>
      <trkpt lat="43.06288" lon="-0.3794">
        <ele>825</ele>
        <time>2026-02-07T09:33:35.000Z</time>
      </trkpt>
      <trkpt lat="43.06286" lon="-0.37936">
        <ele>825.1</ele>
        <time>2026-02-07T09:33:38.000Z</time>
      </trkpt>
      <trkpt lat="43.06284" lon="-0.37932">
        <ele>825.2</ele>
        <time>2026-02-07T09:33:41.000Z</time>
      </trkpt>
      <trkpt lat="43.06282" lon="-0.37929">
        <ele>825.3</ele>
        <time>2026-02-07T09:33:44.000Z</time>
      </trkpt>
      <trkpt lat="43.0628" lon="-0.37926">
        <ele>825.5</ele>
        <time>2026-02-07T09:33:47.000Z</time>
      </trkpt>
      <trkpt lat="43.06278" lon="-0.37922">
        <ele>825.7</ele>
        <time>2026-02-07T09:33:50.000Z</time>
      </trkpt>
      <trkpt lat="43.06275" lon="-0.37919">
        <ele>826</ele>
        <time>2026-02-07T09:33:53.000Z</time>
      </trkpt>
      <trkpt lat="43.06273" lon="-0.37916">
        <ele>826.2</ele>
        <time>2026-02-07T09:33:56.000Z</time>
      </trkpt>
      <trkpt lat="43.0627" lon="-0.37912">
        <ele>826.5</ele>
        <time>2026-02-07T09:33:59.000Z</time>
      </trkpt>
      <trkpt lat="43.06267" lon="-0.3791">
        <ele>826.9</ele>
        <time>2026-02-07T09:34:02.000Z</time>
      </trkpt>
      <trkpt lat="43.06264" lon="-0.37907">
        <ele>827.3</ele>
        <time>2026-02-07T09:34:05.000Z</time>
      </trkpt>
      <trkpt lat="43.06262" lon="-0.37905">
        <ele>827.8</ele>
        <time>2026-02-07T09:34:08.000Z</time>
      </trkpt>
      <trkpt lat="43.06259" lon="-0.37903">
        <ele>828.2</ele>
        <time>2026-02-07T09:34:11.000Z</time>
      </trkpt>
      <trkpt lat="43.06255" lon="-0.37902">
        <ele>828.6</ele>
        <time>2026-02-07T09:34:14.000Z</time>
      </trkpt>
      <trkpt lat="43.06252" lon="-0.379">
        <ele>828.9</ele>
        <time>2026-02-07T09:34:17.000Z</time>
      </trkpt>
      <trkpt lat="43.06249" lon="-0.37898">
        <ele>829.2</ele>
        <time>2026-02-07T09:34:20.000Z</time>
      </trkpt>
      <trkpt lat="43.06246" lon="-0.37896">
        <ele>829.4</ele>
        <time>2026-02-07T09:34:23.000Z</time>
      </trkpt>
      <trkpt lat="43.06243" lon="-0.37894">
        <ele>829.7</ele>
        <time>2026-02-07T09:34:26.000Z</time>
      </trkpt>
      <trkpt lat="43.06241" lon="-0.37892">
        <ele>829.9</ele>
        <time>2026-02-07T09:34:29.000Z</time>
      </trkpt>
      <trkpt lat="43.06238" lon="-0.37889">
        <ele>830.1</ele>
        <time>2026-02-07T09:34:32.000Z</time>
      </trkpt>
      <trkpt lat="43.06235" lon="-0.37886">
        <ele>830.4</ele>
        <time>2026-02-07T09:34:35.000Z</time>
      </trkpt>
      <trkpt lat="43.06233" lon="-0.37883">
        <ele>830.7</ele>
        <time>2026-02-07T09:34:38.000Z</time>
      </trkpt>
      <trkpt lat="43.06231" lon="-0.37878">
        <ele>830.9</ele>
        <time>2026-02-07T09:34:41.000Z</time>
      </trkpt>
      <trkpt lat="43.0623" lon="-0.37874">
        <ele>831.2</ele>
        <time>2026-02-07T09:34:44.000Z</time>
      </trkpt>
      <trkpt lat="43.06228" lon="-0.3787">
        <ele>831.5</ele>
        <time>2026-02-07T09:34:47.000Z</time>
      </trkpt>
      <trkpt lat="43.06228" lon="-0.37865">
        <ele>831.7</ele>
        <time>2026-02-07T09:34:50.000Z</time>
      </trkpt>
      <trkpt lat="43.06227" lon="-0.37861">
        <ele>832</ele>
        <time>2026-02-07T09:34:53.000Z</time>
      </trkpt>
      <trkpt lat="43.06226" lon="-0.37857">
        <ele>832.3</ele>
        <time>2026-02-07T09:34:56.000Z</time>
      </trkpt>
      <trkpt lat="43.06225" lon="-0.37853">
        <ele>832.8</ele>
        <time>2026-02-07T09:34:59.000Z</time>
      </trkpt>
      <trkpt lat="43.06224" lon="-0.37848">
        <ele>833.2</ele>
        <time>2026-02-07T09:35:02.000Z</time>
      </trkpt>
      <trkpt lat="43.06224" lon="-0.37844">
        <ele>833.6</ele>
        <time>2026-02-07T09:35:05.000Z</time>
      </trkpt>
      <trkpt lat="43.06223" lon="-0.37841">
        <ele>833.9</ele>
        <time>2026-02-07T09:35:08.000Z</time>
      </trkpt>
      <trkpt lat="43.06222" lon="-0.37837">
        <ele>834.2</ele>
        <time>2026-02-07T09:35:11.000Z</time>
      </trkpt>
      <trkpt lat="43.0622" lon="-0.37832">
        <ele>834.5</ele>
        <time>2026-02-07T09:35:14.000Z</time>
      </trkpt>
      <trkpt lat="43.06219" lon="-0.37827">
        <ele>834.8</ele>
        <time>2026-02-07T09:35:17.000Z</time>
      </trkpt>
      <trkpt lat="43.06218" lon="-0.37823">
        <ele>835</ele>
        <time>2026-02-07T09:35:20.000Z</time>
      </trkpt>
      <trkpt lat="43.06217" lon="-0.37819">
        <ele>835.4</ele>
        <time>2026-02-07T09:35:23.000Z</time>
      </trkpt>
      <trkpt lat="43.06216" lon="-0.37814">
        <ele>835.7</ele>
        <time>2026-02-07T09:35:26.000Z</time>
      </trkpt>
      <trkpt lat="43.06215" lon="-0.3781">
        <ele>836</ele>
        <time>2026-02-07T09:35:29.000Z</time>
      </trkpt>
      <trkpt lat="43.06214" lon="-0.37806">
        <ele>836.4</ele>
        <time>2026-02-07T09:35:32.000Z</time>
      </trkpt>
      <trkpt lat="43.06213" lon="-0.37802">
        <ele>836.7</ele>
        <time>2026-02-07T09:35:35.000Z</time>
      </trkpt>
      <trkpt lat="43.06212" lon="-0.37797">
        <ele>837</ele>
        <time>2026-02-07T09:35:38.000Z</time>
      </trkpt>
      <trkpt lat="43.06211" lon="-0.37793">
        <ele>837.2</ele>
        <time>2026-02-07T09:35:41.000Z</time>
      </trkpt>
      <trkpt lat="43.06209" lon="-0.37789">
        <ele>837.4</ele>
        <time>2026-02-07T09:35:44.000Z</time>
      </trkpt>
      <trkpt lat="43.06208" lon="-0.37784">
        <ele>837.6</ele>
        <time>2026-02-07T09:35:47.000Z</time>
      </trkpt>
      <trkpt lat="43.06207" lon="-0.37779">
        <ele>837.8</ele>
        <time>2026-02-07T09:35:50.000Z</time>
      </trkpt>
      <trkpt lat="43.06207" lon="-0.37775">
        <ele>838</ele>
        <time>2026-02-07T09:35:53.000Z</time>
      </trkpt>
      <trkpt lat="43.06206" lon="-0.3777">
        <ele>838.2</ele>
        <time>2026-02-07T09:35:56.000Z</time>
      </trkpt>
      <trkpt lat="43.06205" lon="-0.37766">
        <ele>838.4</ele>
        <time>2026-02-07T09:35:59.000Z</time>
      </trkpt>
      <trkpt lat="43.06204" lon="-0.37761">
        <ele>838.7</ele>
        <time>2026-02-07T09:36:02.000Z</time>
      </trkpt>
      <trkpt lat="43.06202" lon="-0.37757">
        <ele>838.9</ele>
        <time>2026-02-07T09:36:05.000Z</time>
      </trkpt>
      <trkpt lat="43.06201" lon="-0.37753">
        <ele>839.2</ele>
        <time>2026-02-07T09:36:08.000Z</time>
      </trkpt>
      <trkpt lat="43.062" lon="-0.37748">
        <ele>839.5</ele>
        <time>2026-02-07T09:36:11.000Z</time>
      </trkpt>
      <trkpt lat="43.06199" lon="-0.37743">
        <ele>839.7</ele>
        <time>2026-02-07T09:36:14.000Z</time>
      </trkpt>
      <trkpt lat="43.06197" lon="-0.37739">
        <ele>839.8</ele>
        <time>2026-02-07T09:36:17.000Z</time>
      </trkpt>
      <trkpt lat="43.06196" lon="-0.37735">
        <ele>840</ele>
        <time>2026-02-07T09:36:20.000Z</time>
      </trkpt>
      <trkpt lat="43.06195" lon="-0.37731">
        <ele>840.1</ele>
        <time>2026-02-07T09:36:23.000Z</time>
      </trkpt>
      <trkpt lat="43.06193" lon="-0.37727">
        <ele>840.2</ele>
        <time>2026-02-07T09:36:26.000Z</time>
      </trkpt>
      <trkpt lat="43.06192" lon="-0.37723">
        <ele>840.3</ele>
        <time>2026-02-07T09:36:29.000Z</time>
      </trkpt>
      <trkpt lat="43.0619" lon="-0.37718">
        <ele>840.4</ele>
        <time>2026-02-07T09:36:32.000Z</time>
      </trkpt>
      <trkpt lat="43.06189" lon="-0.37713">
        <ele>840.6</ele>
        <time>2026-02-07T09:36:35.000Z</time>
      </trkpt>
      <trkpt lat="43.06188" lon="-0.37708">
        <ele>840.8</ele>
        <time>2026-02-07T09:36:38.000Z</time>
      </trkpt>
      <trkpt lat="43.06186" lon="-0.37703">
        <ele>840.9</ele>
        <time>2026-02-07T09:36:41.000Z</time>
      </trkpt>
      <trkpt lat="43.06184" lon="-0.37699">
        <ele>841</ele>
        <time>2026-02-07T09:36:44.000Z</time>
      </trkpt>
      <trkpt lat="43.06183" lon="-0.37694">
        <ele>841.2</ele>
        <time>2026-02-07T09:36:47.000Z</time>
      </trkpt>
      <trkpt lat="43.06181" lon="-0.3769">
        <ele>841.5</ele>
        <time>2026-02-07T09:36:50.000Z</time>
      </trkpt>
      <trkpt lat="43.06179" lon="-0.37686">
        <ele>841.8</ele>
        <time>2026-02-07T09:36:53.000Z</time>
      </trkpt>
      <trkpt lat="43.06178" lon="-0.37681">
        <ele>842.2</ele>
        <time>2026-02-07T09:36:56.000Z</time>
      </trkpt>
      <trkpt lat="43.06176" lon="-0.37677">
        <ele>842.7</ele>
        <time>2026-02-07T09:36:59.000Z</time>
      </trkpt>
      <trkpt lat="43.06174" lon="-0.37672">
        <ele>843.2</ele>
        <time>2026-02-07T09:37:02.000Z</time>
      </trkpt>
      <trkpt lat="43.06173" lon="-0.37667">
        <ele>843.5</ele>
        <time>2026-02-07T09:37:05.000Z</time>
      </trkpt>
      <trkpt lat="43.06171" lon="-0.37662">
        <ele>843.7</ele>
        <time>2026-02-07T09:37:08.000Z</time>
      </trkpt>
      <trkpt lat="43.06169" lon="-0.37658">
        <ele>843.8</ele>
        <time>2026-02-07T09:37:11.000Z</time>
      </trkpt>
      <trkpt lat="43.06167" lon="-0.37654">
        <ele>843.9</ele>
        <time>2026-02-07T09:37:14.000Z</time>
      </trkpt>
      <trkpt lat="43.06166" lon="-0.3765">
        <ele>844.1</ele>
        <time>2026-02-07T09:37:17.000Z</time>
      </trkpt>
      <trkpt lat="43.06164" lon="-0.37645">
        <ele>844.2</ele>
        <time>2026-02-07T09:37:20.000Z</time>
      </trkpt>
      <trkpt lat="43.06162" lon="-0.37641">
        <ele>844.4</ele>
        <time>2026-02-07T09:37:23.000Z</time>
      </trkpt>
      <trkpt lat="43.0616" lon="-0.37638">
        <ele>844.6</ele>
        <time>2026-02-07T09:37:26.000Z</time>
      </trkpt>
      <trkpt lat="43.06158" lon="-0.37634">
        <ele>844.9</ele>
        <time>2026-02-07T09:37:29.000Z</time>
      </trkpt>
      <trkpt lat="43.06156" lon="-0.3763">
        <ele>845.3</ele>
        <time>2026-02-07T09:37:32.000Z</time>
      </trkpt>
      <trkpt lat="43.06153" lon="-0.37627">
        <ele>845.6</ele>
        <time>2026-02-07T09:37:35.000Z</time>
      </trkpt>
      <trkpt lat="43.06151" lon="-0.37623">
        <ele>845.8</ele>
        <time>2026-02-07T09:37:38.000Z</time>
      </trkpt>
      <trkpt lat="43.06149" lon="-0.37619">
        <ele>846</ele>
        <time>2026-02-07T09:37:41.000Z</time>
      </trkpt>
      <trkpt lat="43.06147" lon="-0.37615">
        <ele>846.2</ele>
        <time>2026-02-07T09:37:44.000Z</time>
      </trkpt>
      <trkpt lat="43.06145" lon="-0.37611">
        <ele>846.4</ele>
        <time>2026-02-07T09:37:47.000Z</time>
      </trkpt>
      <trkpt lat="43.06143" lon="-0.37608">
        <ele>846.6</ele>
        <time>2026-02-07T09:37:50.000Z</time>
      </trkpt>
      <trkpt lat="43.06141" lon="-0.37604">
        <ele>846.9</ele>
        <time>2026-02-07T09:37:53.000Z</time>
      </trkpt>
      <trkpt lat="43.0614" lon="-0.37602">
        <ele>847.1</ele>
        <time>2026-02-07T09:37:56.000Z</time>
      </trkpt>
      <trkpt lat="43.0614" lon="-0.37602">
        <ele>847.3</ele>
        <time>2026-02-07T09:37:59.000Z</time>
      </trkpt>
      <trkpt lat="43.0614" lon="-0.37602">
        <ele>847.3</ele>
        <time>2026-02-07T09:38:00.000Z</time>
      </trkpt>
      <trkpt lat="43.0614" lon="-0.37602">
        <ele>847.3</ele>
        <time>2026-02-07T09:38:01.000Z</time>
      </trkpt>
      <trkpt lat="43.0614" lon="-0.37602">
        <ele>847.4</ele>
        <time>2026-02-07T09:38:04.000Z</time>
      </trkpt>
      <trkpt lat="43.0614" lon="-0.37602">
        <ele>847.5</ele>
        <time>2026-02-07T09:38:07.000Z</time>
      </trkpt>
      <trkpt lat="43.0614" lon="-0.37602">
        <ele>847.6</ele>
        <time>2026-02-07T09:38:10.000Z</time>
      </trkpt>
      <trkpt lat="43.0614" lon="-0.37602">
        <ele>847.7</ele>
        <time>2026-02-07T09:38:13.000Z</time>
      </trkpt>
      <trkpt lat="43.0614" lon="-0.37602">
        <ele>847.8</ele>
        <time>2026-02-07T09:38:16.000Z</time>
      </trkpt>
      <trkpt lat="43.0614" lon="-0.37602">
        <ele>848</ele>
        <time>2026-02-07T09:38:19.000Z</time>
      </trkpt>
      <trkpt lat="43.0614" lon="-0.37602">
        <ele>848</ele>
        <time>2026-02-07T09:38:20.000Z</time>
      </trkpt>
      <trkpt lat="43.0614" lon="-0.37601">
        <ele>848.1</ele>
        <time>2026-02-07T09:38:21.000Z</time>
      </trkpt>
      <trkpt lat="43.06139" lon="-0.376">
        <ele>848.2</ele>
        <time>2026-02-07T09:38:22.000Z</time>
      </trkpt>
      <trkpt lat="43.06138" lon="-0.37598">
        <ele>848.3</ele>
        <time>2026-02-07T09:38:25.000Z</time>
      </trkpt>
      <trkpt lat="43.06136" lon="-0.37593">
        <ele>848.5</ele>
        <time>2026-02-07T09:38:28.000Z</time>
      </trkpt>
      <trkpt lat="43.06135" lon="-0.37588">
        <ele>848.6</ele>
        <time>2026-02-07T09:38:31.000Z</time>
      </trkpt>
      <trkpt lat="43.06134" lon="-0.37584">
        <ele>848.8</ele>
        <time>2026-02-07T09:38:34.000Z</time>
      </trkpt>
      <trkpt lat="43.06132" lon="-0.3758">
        <ele>849</ele>
        <time>2026-02-07T09:38:37.000Z</time>
      </trkpt>
      <trkpt lat="43.06129" lon="-0.37576">
        <ele>849.2</ele>
        <time>2026-02-07T09:38:40.000Z</time>
      </trkpt>
      <trkpt lat="43.06127" lon="-0.37573">
        <ele>849.4</ele>
        <time>2026-02-07T09:38:43.000Z</time>
      </trkpt>
      <trkpt lat="43.06126" lon="-0.37568">
        <ele>849.6</ele>
        <time>2026-02-07T09:38:46.000Z</time>
      </trkpt>
      <trkpt lat="43.06123" lon="-0.37563">
        <ele>849.8</ele>
        <time>2026-02-07T09:38:49.000Z</time>
      </trkpt>
      <trkpt lat="43.06122" lon="-0.37559">
        <ele>850.1</ele>
        <time>2026-02-07T09:38:52.000Z</time>
      </trkpt>
      <trkpt lat="43.0612" lon="-0.37554">
        <ele>850.3</ele>
        <time>2026-02-07T09:38:55.000Z</time>
      </trkpt>
      <trkpt lat="43.0612" lon="-0.37549">
        <ele>850.5</ele>
        <time>2026-02-07T09:38:58.000Z</time>
      </trkpt>
      <trkpt lat="43.06119" lon="-0.37544">
        <ele>850.7</ele>
        <time>2026-02-07T09:39:01.000Z</time>
      </trkpt>
      <trkpt lat="43.06118" lon="-0.37539">
        <ele>851</ele>
        <time>2026-02-07T09:39:04.000Z</time>
      </trkpt>
      <trkpt lat="43.06117" lon="-0.37534">
        <ele>851.3</ele>
        <time>2026-02-07T09:39:07.000Z</time>
      </trkpt>
      <trkpt lat="43.06117" lon="-0.37529">
        <ele>851.5</ele>
        <time>2026-02-07T09:39:10.000Z</time>
      </trkpt>
      <trkpt lat="43.06116" lon="-0.37525">
        <ele>851.7</ele>
        <time>2026-02-07T09:39:13.000Z</time>
      </trkpt>
      <trkpt lat="43.06116" lon="-0.37521">
        <ele>852</ele>
        <time>2026-02-07T09:39:16.000Z</time>
      </trkpt>
      <trkpt lat="43.06116" lon="-0.37516">
        <ele>852.3</ele>
        <time>2026-02-07T09:39:19.000Z</time>
      </trkpt>
      <trkpt lat="43.06116" lon="-0.37512">
        <ele>852.6</ele>
        <time>2026-02-07T09:39:22.000Z</time>
      </trkpt>
      <trkpt lat="43.06116" lon="-0.37507">
        <ele>852.9</ele>
        <time>2026-02-07T09:39:25.000Z</time>
      </trkpt>
      <trkpt lat="43.06115" lon="-0.37502">
        <ele>853.2</ele>
        <time>2026-02-07T09:39:28.000Z</time>
      </trkpt>
      <trkpt lat="43.06115" lon="-0.37498">
        <ele>853.5</ele>
        <time>2026-02-07T09:39:31.000Z</time>
      </trkpt>
      <trkpt lat="43.06114" lon="-0.37493">
        <ele>853.8</ele>
        <time>2026-02-07T09:39:34.000Z</time>
      </trkpt>
      <trkpt lat="43.06114" lon="-0.37488">
        <ele>854.1</ele>
        <time>2026-02-07T09:39:37.000Z</time>
      </trkpt>
      <trkpt lat="43.06114" lon="-0.37483">
        <ele>854.4</ele>
        <time>2026-02-07T09:39:40.000Z</time>
      </trkpt>
      <trkpt lat="43.06113" lon="-0.37479">
        <ele>854.8</ele>
        <time>2026-02-07T09:39:43.000Z</time>
      </trkpt>
      <trkpt lat="43.06113" lon="-0.37474">
        <ele>855.1</ele>
        <time>2026-02-07T09:39:46.000Z</time>
      </trkpt>
      <trkpt lat="43.06114" lon="-0.37469">
        <ele>855.4</ele>
        <time>2026-02-07T09:39:49.000Z</time>
      </trkpt>
      <trkpt lat="43.06114" lon="-0.37465">
        <ele>855.6</ele>
        <time>2026-02-07T09:39:52.000Z</time>
      </trkpt>
      <trkpt lat="43.06113" lon="-0.3746">
        <ele>855.9</ele>
        <time>2026-02-07T09:39:55.000Z</time>
      </trkpt>
      <trkpt lat="43.06112" lon="-0.37455">
        <ele>856.2</ele>
        <time>2026-02-07T09:39:58.000Z</time>
      </trkpt>
      <trkpt lat="43.06112" lon="-0.3745">
        <ele>856.5</ele>
        <time>2026-02-07T09:40:01.000Z</time>
      </trkpt>
      <trkpt lat="43.06111" lon="-0.37447">
        <ele>856.7</ele>
        <time>2026-02-07T09:40:04.000Z</time>
      </trkpt>
      <trkpt lat="43.06111" lon="-0.37442">
        <ele>857</ele>
        <time>2026-02-07T09:40:07.000Z</time>
      </trkpt>
      <trkpt lat="43.0611" lon="-0.37437">
        <ele>857.2</ele>
        <time>2026-02-07T09:40:10.000Z</time>
      </trkpt>
      <trkpt lat="43.06109" lon="-0.37432">
        <ele>857.4</ele>
        <time>2026-02-07T09:40:13.000Z</time>
      </trkpt>
      <trkpt lat="43.06108" lon="-0.37427">
        <ele>857.7</ele>
        <time>2026-02-07T09:40:16.000Z</time>
      </trkpt>
      <trkpt lat="43.06108" lon="-0.37422">
        <ele>858.1</ele>
        <time>2026-02-07T09:40:19.000Z</time>
      </trkpt>
      <trkpt lat="43.06107" lon="-0.37417">
        <ele>858.4</ele>
        <time>2026-02-07T09:40:22.000Z</time>
      </trkpt>
      <trkpt lat="43.06106" lon="-0.37413">
        <ele>858.7</ele>
        <time>2026-02-07T09:40:25.000Z</time>
      </trkpt>
      <trkpt lat="43.06105" lon="-0.37408">
        <ele>859</ele>
        <time>2026-02-07T09:40:28.000Z</time>
      </trkpt>
      <trkpt lat="43.06104" lon="-0.37405">
        <ele>859.2</ele>
        <time>2026-02-07T09:40:31.000Z</time>
      </trkpt>
      <trkpt lat="43.06103" lon="-0.37404">
        <ele>859.5</ele>
        <time>2026-02-07T09:40:34.000Z</time>
      </trkpt>
      <trkpt lat="43.06103" lon="-0.37404">
        <ele>859.6</ele>
        <time>2026-02-07T09:40:37.000Z</time>
      </trkpt>
      <trkpt lat="43.06102" lon="-0.37404">
        <ele>859.8</ele>
        <time>2026-02-07T09:40:40.000Z</time>
      </trkpt>
      <trkpt lat="43.06102" lon="-0.37404">
        <ele>859.8</ele>
        <time>2026-02-07T09:40:41.000Z</time>
      </trkpt>
      <trkpt lat="43.06102" lon="-0.37404">
        <ele>860</ele>
        <time>2026-02-07T09:40:44.000Z</time>
      </trkpt>
      <trkpt lat="43.06102" lon="-0.37404">
        <ele>860</ele>
        <time>2026-02-07T09:40:45.000Z</time>
      </trkpt>
      <trkpt lat="43.06102" lon="-0.37404">
        <ele>860</ele>
        <time>2026-02-07T09:40:46.000Z</time>
      </trkpt>
      <trkpt lat="43.06102" lon="-0.37404">
        <ele>860.1</ele>
        <time>2026-02-07T09:40:47.000Z</time>
      </trkpt>
      <trkpt lat="43.06102" lon="-0.37404">
        <ele>860.1</ele>
        <time>2026-02-07T09:40:48.000Z</time>
      </trkpt>
      <trkpt lat="43.06102" lon="-0.37404">
        <ele>860.2</ele>
        <time>2026-02-07T09:40:51.000Z</time>
      </trkpt>
      <trkpt lat="43.06102" lon="-0.37405">
        <ele>860.2</ele>
        <time>2026-02-07T09:40:54.000Z</time>
      </trkpt>
      <trkpt lat="43.06102" lon="-0.37405">
        <ele>860.3</ele>
        <time>2026-02-07T09:40:57.000Z</time>
      </trkpt>
      <trkpt lat="43.06102" lon="-0.37405">
        <ele>860.4</ele>
        <time>2026-02-07T09:41:00.000Z</time>
      </trkpt>
      <trkpt lat="43.06102" lon="-0.37405">
        <ele>860.5</ele>
        <time>2026-02-07T09:41:03.000Z</time>
      </trkpt>
      <trkpt lat="43.06102" lon="-0.37405">
        <ele>860.6</ele>
        <time>2026-02-07T09:41:06.000Z</time>
      </trkpt>
      <trkpt lat="43.06102" lon="-0.37405">
        <ele>860.7</ele>
        <time>2026-02-07T09:41:09.000Z</time>
      </trkpt>
      <trkpt lat="43.06102" lon="-0.37405">
        <ele>860.8</ele>
        <time>2026-02-07T09:41:12.000Z</time>
      </trkpt>
      <trkpt lat="43.06102" lon="-0.37404">
        <ele>860.9</ele>
        <time>2026-02-07T09:41:14.000Z</time>
      </trkpt>
      <trkpt lat="43.06102" lon="-0.37404">
        <ele>860.9</ele>
        <time>2026-02-07T09:41:15.000Z</time>
      </trkpt>
      <trkpt lat="43.06102" lon="-0.37404">
        <ele>861</ele>
        <time>2026-02-07T09:41:16.000Z</time>
      </trkpt>
      <trkpt lat="43.06102" lon="-0.37404">
        <ele>861</ele>
        <time>2026-02-07T09:41:17.000Z</time>
      </trkpt>
      <trkpt lat="43.06102" lon="-0.37404">
        <ele>861.1</ele>
        <time>2026-02-07T09:41:18.000Z</time>
      </trkpt>
      <trkpt lat="43.06102" lon="-0.37404">
        <ele>861.3</ele>
        <time>2026-02-07T09:41:21.000Z</time>
      </trkpt>
      <trkpt lat="43.06102" lon="-0.37404">
        <ele>861.4</ele>
        <time>2026-02-07T09:41:24.000Z</time>
      </trkpt>
      <trkpt lat="43.06102" lon="-0.37404">
        <ele>861.5</ele>
        <time>2026-02-07T09:41:27.000Z</time>
      </trkpt>
      <trkpt lat="43.06102" lon="-0.37404">
        <ele>861.6</ele>
        <time>2026-02-07T09:41:30.000Z</time>
      </trkpt>
      <trkpt lat="43.06102" lon="-0.37404">
        <ele>861.7</ele>
        <time>2026-02-07T09:41:33.000Z</time>
      </trkpt>
      <trkpt lat="43.06102" lon="-0.37404">
        <ele>861.9</ele>
        <time>2026-02-07T09:41:36.000Z</time>
      </trkpt>
      <trkpt lat="43.06102" lon="-0.37404">
        <ele>861.9</ele>
        <time>2026-02-07T09:41:39.000Z</time>
      </trkpt>
      <trkpt lat="43.06102" lon="-0.37405">
        <ele>862</ele>
        <time>2026-02-07T09:41:42.000Z</time>
      </trkpt>
      <trkpt lat="43.06102" lon="-0.37405">
        <ele>862</ele>
        <time>2026-02-07T09:41:43.000Z</time>
      </trkpt>
      <trkpt lat="43.06102" lon="-0.37405">
        <ele>862.1</ele>
        <time>2026-02-07T09:41:44.000Z</time>
      </trkpt>
      <trkpt lat="43.06102" lon="-0.37405">
        <ele>862.1</ele>
        <time>2026-02-07T09:41:45.000Z</time>
      </trkpt>
      <trkpt lat="43.06102" lon="-0.37405">
        <ele>862.1</ele>
        <time>2026-02-07T09:41:46.000Z</time>
      </trkpt>
      <trkpt lat="43.06102" lon="-0.37405">
        <ele>862.2</ele>
        <time>2026-02-07T09:41:49.000Z</time>
      </trkpt>
      <trkpt lat="43.06102" lon="-0.37405">
        <ele>862.3</ele>
        <time>2026-02-07T09:41:52.000Z</time>
      </trkpt>
      <trkpt lat="43.06102" lon="-0.37405">
        <ele>862.4</ele>
        <time>2026-02-07T09:41:55.000Z</time>
      </trkpt>
      <trkpt lat="43.06102" lon="-0.37405">
        <ele>862.5</ele>
        <time>2026-02-07T09:41:58.000Z</time>
      </trkpt>
      <trkpt lat="43.06102" lon="-0.37405">
        <ele>862.6</ele>
        <time>2026-02-07T09:42:01.000Z</time>
      </trkpt>
      <trkpt lat="43.06102" lon="-0.37405">
        <ele>862.6</ele>
        <time>2026-02-07T09:42:04.000Z</time>
      </trkpt>
      <trkpt lat="43.06102" lon="-0.37405">
        <ele>862.7</ele>
        <time>2026-02-07T09:42:07.000Z</time>
      </trkpt>
      <trkpt lat="43.06103" lon="-0.37405">
        <ele>862.7</ele>
        <time>2026-02-07T09:42:10.000Z</time>
      </trkpt>
      <trkpt lat="43.06102" lon="-0.37405">
        <ele>862.8</ele>
        <time>2026-02-07T09:42:13.000Z</time>
      </trkpt>
      <trkpt lat="43.06102" lon="-0.37405">
        <ele>862.9</ele>
        <time>2026-02-07T09:42:16.000Z</time>
      </trkpt>
      <trkpt lat="43.06102" lon="-0.37405">
        <ele>862.9</ele>
        <time>2026-02-07T09:42:19.000Z</time>
      </trkpt>
      <trkpt lat="43.06102" lon="-0.37404">
        <ele>863</ele>
        <time>2026-02-07T09:42:22.000Z</time>
      </trkpt>
      <trkpt lat="43.06102" lon="-0.37402">
        <ele>863</ele>
        <time>2026-02-07T09:42:23.000Z</time>
      </trkpt>
      <trkpt lat="43.06102" lon="-0.374">
        <ele>863.1</ele>
        <time>2026-02-07T09:42:24.000Z</time>
      </trkpt>
      <trkpt lat="43.06102" lon="-0.37396">
        <ele>863.2</ele>
        <time>2026-02-07T09:42:27.000Z</time>
      </trkpt>
      <trkpt lat="43.06102" lon="-0.37391">
        <ele>863.3</ele>
        <time>2026-02-07T09:42:30.000Z</time>
      </trkpt>
      <trkpt lat="43.06102" lon="-0.37385">
        <ele>863.5</ele>
        <time>2026-02-07T09:42:33.000Z</time>
      </trkpt>
      <trkpt lat="43.06102" lon="-0.3738">
        <ele>863.7</ele>
        <time>2026-02-07T09:42:36.000Z</time>
      </trkpt>
      <trkpt lat="43.06101" lon="-0.37375">
        <ele>864</ele>
        <time>2026-02-07T09:42:39.000Z</time>
      </trkpt>
      <trkpt lat="43.06101" lon="-0.3737">
        <ele>864.3</ele>
        <time>2026-02-07T09:42:42.000Z</time>
      </trkpt>
      <trkpt lat="43.06101" lon="-0.37365">
        <ele>864.6</ele>
        <time>2026-02-07T09:42:45.000Z</time>
      </trkpt>
      <trkpt lat="43.06101" lon="-0.3736">
        <ele>865</ele>
        <time>2026-02-07T09:42:48.000Z</time>
      </trkpt>
      <trkpt lat="43.06101" lon="-0.37354">
        <ele>865.3</ele>
        <time>2026-02-07T09:42:51.000Z</time>
      </trkpt>
      <trkpt lat="43.06101" lon="-0.37349">
        <ele>865.5</ele>
        <time>2026-02-07T09:42:54.000Z</time>
      </trkpt>
      <trkpt lat="43.06102" lon="-0.37344">
        <ele>865.8</ele>
        <time>2026-02-07T09:42:57.000Z</time>
      </trkpt>
      <trkpt lat="43.06102" lon="-0.37339">
        <ele>865.9</ele>
        <time>2026-02-07T09:43:00.000Z</time>
      </trkpt>
      <trkpt lat="43.06102" lon="-0.37334">
        <ele>866.1</ele>
        <time>2026-02-07T09:43:03.000Z</time>
      </trkpt>
      <trkpt lat="43.06103" lon="-0.3733">
        <ele>866.3</ele>
        <time>2026-02-07T09:43:06.000Z</time>
      </trkpt>
      <trkpt lat="43.06104" lon="-0.37326">
        <ele>866.4</ele>
        <time>2026-02-07T09:43:09.000Z</time>
      </trkpt>
      <trkpt lat="43.06103" lon="-0.37322">
        <ele>866.6</ele>
        <time>2026-02-07T09:43:12.000Z</time>
      </trkpt>
      <trkpt lat="43.06103" lon="-0.37318">
        <ele>866.8</ele>
        <time>2026-02-07T09:43:15.000Z</time>
      </trkpt>
      <trkpt lat="43.06102" lon="-0.37313">
        <ele>867</ele>
        <time>2026-02-07T09:43:18.000Z</time>
      </trkpt>
      <trkpt lat="43.06101" lon="-0.37309">
        <ele>867.2</ele>
        <time>2026-02-07T09:43:21.000Z</time>
      </trkpt>
      <trkpt lat="43.061" lon="-0.37305">
        <ele>867.4</ele>
        <time>2026-02-07T09:43:24.000Z</time>
      </trkpt>
      <trkpt lat="43.06099" lon="-0.373">
        <ele>867.7</ele>
        <time>2026-02-07T09:43:27.000Z</time>
      </trkpt>
      <trkpt lat="43.06098" lon="-0.37295">
        <ele>867.9</ele>
        <time>2026-02-07T09:43:30.000Z</time>
      </trkpt>
      <trkpt lat="43.06098" lon="-0.3729">
        <ele>868.2</ele>
        <time>2026-02-07T09:43:33.000Z</time>
      </trkpt>
      <trkpt lat="43.06098" lon="-0.37285">
        <ele>868.5</ele>
        <time>2026-02-07T09:43:36.000Z</time>
      </trkpt>
      <trkpt lat="43.06097" lon="-0.3728">
        <ele>868.7</ele>
        <time>2026-02-07T09:43:39.000Z</time>
      </trkpt>
      <trkpt lat="43.06097" lon="-0.37276">
        <ele>868.8</ele>
        <time>2026-02-07T09:43:42.000Z</time>
      </trkpt>
      <trkpt lat="43.06096" lon="-0.37271">
        <ele>869</ele>
        <time>2026-02-07T09:43:45.000Z</time>
      </trkpt>
      <trkpt lat="43.06095" lon="-0.37266">
        <ele>869.2</ele>
        <time>2026-02-07T09:43:48.000Z</time>
      </trkpt>
      <trkpt lat="43.06094" lon="-0.37262">
        <ele>869.4</ele>
        <time>2026-02-07T09:43:51.000Z</time>
      </trkpt>
      <trkpt lat="43.06093" lon="-0.37257">
        <ele>869.6</ele>
        <time>2026-02-07T09:43:54.000Z</time>
      </trkpt>
      <trkpt lat="43.06092" lon="-0.37252">
        <ele>869.8</ele>
        <time>2026-02-07T09:43:57.000Z</time>
      </trkpt>
      <trkpt lat="43.06091" lon="-0.37247">
        <ele>870</ele>
        <time>2026-02-07T09:44:00.000Z</time>
      </trkpt>
      <trkpt lat="43.0609" lon="-0.37242">
        <ele>870.2</ele>
        <time>2026-02-07T09:44:03.000Z</time>
      </trkpt>
      <trkpt lat="43.06089" lon="-0.37237">
        <ele>870.4</ele>
        <time>2026-02-07T09:44:06.000Z</time>
      </trkpt>
      <trkpt lat="43.06088" lon="-0.37233">
        <ele>870.7</ele>
        <time>2026-02-07T09:44:09.000Z</time>
      </trkpt>
      <trkpt lat="43.06087" lon="-0.37228">
        <ele>871</ele>
        <time>2026-02-07T09:44:12.000Z</time>
      </trkpt>
      <trkpt lat="43.06086" lon="-0.37223">
        <ele>871.3</ele>
        <time>2026-02-07T09:44:15.000Z</time>
      </trkpt>
      <trkpt lat="43.06085" lon="-0.37219">
        <ele>871.6</ele>
        <time>2026-02-07T09:44:18.000Z</time>
      </trkpt>
      <trkpt lat="43.06084" lon="-0.37214">
        <ele>871.9</ele>
        <time>2026-02-07T09:44:21.000Z</time>
      </trkpt>
      <trkpt lat="43.06083" lon="-0.3721">
        <ele>872.2</ele>
        <time>2026-02-07T09:44:24.000Z</time>
      </trkpt>
      <trkpt lat="43.06082" lon="-0.37205">
        <ele>872.5</ele>
        <time>2026-02-07T09:44:27.000Z</time>
      </trkpt>
      <trkpt lat="43.06081" lon="-0.37201">
        <ele>872.8</ele>
        <time>2026-02-07T09:44:30.000Z</time>
      </trkpt>
      <trkpt lat="43.06079" lon="-0.37197">
        <ele>873</ele>
        <time>2026-02-07T09:44:33.000Z</time>
      </trkpt>
      <trkpt lat="43.06078" lon="-0.37192">
        <ele>873.3</ele>
        <time>2026-02-07T09:44:36.000Z</time>
      </trkpt>
      <trkpt lat="43.06077" lon="-0.37188">
        <ele>873.6</ele>
        <time>2026-02-07T09:44:39.000Z</time>
      </trkpt>
      <trkpt lat="43.06076" lon="-0.37183">
        <ele>873.9</ele>
        <time>2026-02-07T09:44:42.000Z</time>
      </trkpt>
      <trkpt lat="43.06075" lon="-0.37178">
        <ele>874.3</ele>
        <time>2026-02-07T09:44:45.000Z</time>
      </trkpt>
      <trkpt lat="43.06074" lon="-0.37173">
        <ele>874.7</ele>
        <time>2026-02-07T09:44:48.000Z</time>
      </trkpt>
      <trkpt lat="43.06072" lon="-0.37169">
        <ele>875.1</ele>
        <time>2026-02-07T09:44:51.000Z</time>
      </trkpt>
      <trkpt lat="43.06071" lon="-0.37165">
        <ele>875.5</ele>
        <time>2026-02-07T09:44:54.000Z</time>
      </trkpt>
      <trkpt lat="43.06069" lon="-0.37161">
        <ele>875.8</ele>
        <time>2026-02-07T09:44:57.000Z</time>
      </trkpt>
      <trkpt lat="43.06068" lon="-0.37156">
        <ele>876.1</ele>
        <time>2026-02-07T09:45:00.000Z</time>
      </trkpt>
      <trkpt lat="43.06067" lon="-0.37152">
        <ele>876.3</ele>
        <time>2026-02-07T09:45:03.000Z</time>
      </trkpt>
      <trkpt lat="43.06066" lon="-0.37148">
        <ele>876.4</ele>
        <time>2026-02-07T09:45:06.000Z</time>
      </trkpt>
      <trkpt lat="43.06064" lon="-0.37144">
        <ele>876.7</ele>
        <time>2026-02-07T09:45:09.000Z</time>
      </trkpt>
      <trkpt lat="43.06063" lon="-0.3714">
        <ele>876.9</ele>
        <time>2026-02-07T09:45:12.000Z</time>
      </trkpt>
      <trkpt lat="43.06062" lon="-0.37137">
        <ele>877.1</ele>
        <time>2026-02-07T09:45:15.000Z</time>
      </trkpt>
      <trkpt lat="43.06062" lon="-0.37135">
        <ele>877.3</ele>
        <time>2026-02-07T09:45:18.000Z</time>
      </trkpt>
      <trkpt lat="43.06061" lon="-0.37133">
        <ele>877.4</ele>
        <time>2026-02-07T09:45:21.000Z</time>
      </trkpt>
      <trkpt lat="43.06059" lon="-0.3713">
        <ele>877.5</ele>
        <time>2026-02-07T09:45:24.000Z</time>
      </trkpt>
      <trkpt lat="43.06057" lon="-0.37126">
        <ele>877.8</ele>
        <time>2026-02-07T09:45:27.000Z</time>
      </trkpt>
      <trkpt lat="43.06055" lon="-0.37123">
        <ele>878</ele>
        <time>2026-02-07T09:45:30.000Z</time>
      </trkpt>
      <trkpt lat="43.06054" lon="-0.37119">
        <ele>878.3</ele>
        <time>2026-02-07T09:45:33.000Z</time>
      </trkpt>
      <trkpt lat="43.06052" lon="-0.37115">
        <ele>878.7</ele>
        <time>2026-02-07T09:45:36.000Z</time>
      </trkpt>
      <trkpt lat="43.0605" lon="-0.37111">
        <ele>879</ele>
        <time>2026-02-07T09:45:39.000Z</time>
      </trkpt>
      <trkpt lat="43.06049" lon="-0.37107">
        <ele>879.2</ele>
        <time>2026-02-07T09:45:42.000Z</time>
      </trkpt>
      <trkpt lat="43.06047" lon="-0.37103">
        <ele>879.6</ele>
        <time>2026-02-07T09:45:45.000Z</time>
      </trkpt>
      <trkpt lat="43.06045" lon="-0.37098">
        <ele>880</ele>
        <time>2026-02-07T09:45:48.000Z</time>
      </trkpt>
      <trkpt lat="43.06043" lon="-0.37094">
        <ele>880.3</ele>
        <time>2026-02-07T09:45:51.000Z</time>
      </trkpt>
      <trkpt lat="43.06041" lon="-0.3709">
        <ele>880.6</ele>
        <time>2026-02-07T09:45:54.000Z</time>
      </trkpt>
      <trkpt lat="43.06039" lon="-0.37087">
        <ele>880.9</ele>
        <time>2026-02-07T09:45:57.000Z</time>
      </trkpt>
      <trkpt lat="43.06037" lon="-0.37083">
        <ele>881.1</ele>
        <time>2026-02-07T09:46:00.000Z</time>
      </trkpt>
      <trkpt lat="43.06035" lon="-0.37079">
        <ele>881.4</ele>
        <time>2026-02-07T09:46:03.000Z</time>
      </trkpt>
      <trkpt lat="43.06033" lon="-0.37076">
        <ele>881.5</ele>
        <time>2026-02-07T09:46:06.000Z</time>
      </trkpt>
      <trkpt lat="43.06031" lon="-0.37072">
        <ele>881.7</ele>
        <time>2026-02-07T09:46:09.000Z</time>
      </trkpt>
      <trkpt lat="43.06029" lon="-0.37068">
        <ele>881.9</ele>
        <time>2026-02-07T09:46:12.000Z</time>
      </trkpt>
      <trkpt lat="43.06027" lon="-0.37065">
        <ele>882.1</ele>
        <time>2026-02-07T09:46:15.000Z</time>
      </trkpt>
      <trkpt lat="43.06024" lon="-0.37062">
        <ele>882.4</ele>
        <time>2026-02-07T09:46:18.000Z</time>
      </trkpt>
      <trkpt lat="43.06022" lon="-0.37058">
        <ele>882.7</ele>
        <time>2026-02-07T09:46:21.000Z</time>
      </trkpt>
      <trkpt lat="43.0602" lon="-0.37055">
        <ele>882.9</ele>
        <time>2026-02-07T09:46:24.000Z</time>
      </trkpt>
      <trkpt lat="43.06017" lon="-0.37051">
        <ele>883.2</ele>
        <time>2026-02-07T09:46:27.000Z</time>
      </trkpt>
      <trkpt lat="43.06015" lon="-0.37048">
        <ele>883.4</ele>
        <time>2026-02-07T09:46:30.000Z</time>
      </trkpt>
      <trkpt lat="43.06012" lon="-0.37045">
        <ele>883.7</ele>
        <time>2026-02-07T09:46:33.000Z</time>
      </trkpt>
      <trkpt lat="43.0601" lon="-0.37041">
        <ele>883.9</ele>
        <time>2026-02-07T09:46:36.000Z</time>
      </trkpt>
      <trkpt lat="43.06009" lon="-0.37038">
        <ele>884.2</ele>
        <time>2026-02-07T09:46:39.000Z</time>
      </trkpt>
      <trkpt lat="43.06006" lon="-0.37035">
        <ele>884.4</ele>
        <time>2026-02-07T09:46:42.000Z</time>
      </trkpt>
      <trkpt lat="43.06004" lon="-0.37032">
        <ele>884.7</ele>
        <time>2026-02-07T09:46:45.000Z</time>
      </trkpt>
      <trkpt lat="43.06001" lon="-0.37029">
        <ele>885</ele>
        <time>2026-02-07T09:46:48.000Z</time>
      </trkpt>
      <trkpt lat="43.05998" lon="-0.37027">
        <ele>885.3</ele>
        <time>2026-02-07T09:46:51.000Z</time>
      </trkpt>
      <trkpt lat="43.05995" lon="-0.37024">
        <ele>885.6</ele>
        <time>2026-02-07T09:46:54.000Z</time>
      </trkpt>
      <trkpt lat="43.05992" lon="-0.37021">
        <ele>885.9</ele>
        <time>2026-02-07T09:46:57.000Z</time>
      </trkpt>
      <trkpt lat="43.0599" lon="-0.37018">
        <ele>886.2</ele>
        <time>2026-02-07T09:47:00.000Z</time>
      </trkpt>
      <trkpt lat="43.05987" lon="-0.37015">
        <ele>886.5</ele>
        <time>2026-02-07T09:47:03.000Z</time>
      </trkpt>
      <trkpt lat="43.05985" lon="-0.37012">
        <ele>886.8</ele>
        <time>2026-02-07T09:47:06.000Z</time>
      </trkpt>
      <trkpt lat="43.05983" lon="-0.37008">
        <ele>887.1</ele>
        <time>2026-02-07T09:47:09.000Z</time>
      </trkpt>
      <trkpt lat="43.05981" lon="-0.37005">
        <ele>887.4</ele>
        <time>2026-02-07T09:47:12.000Z</time>
      </trkpt>
      <trkpt lat="43.05979" lon="-0.37001">
        <ele>887.7</ele>
        <time>2026-02-07T09:47:15.000Z</time>
      </trkpt>
      <trkpt lat="43.05977" lon="-0.36998">
        <ele>888</ele>
        <time>2026-02-07T09:47:18.000Z</time>
      </trkpt>
      <trkpt lat="43.05975" lon="-0.36994">
        <ele>888.4</ele>
        <time>2026-02-07T09:47:21.000Z</time>
      </trkpt>
      <trkpt lat="43.05973" lon="-0.36991">
        <ele>888.7</ele>
        <time>2026-02-07T09:47:24.000Z</time>
      </trkpt>
      <trkpt lat="43.0597" lon="-0.36988">
        <ele>889.1</ele>
        <time>2026-02-07T09:47:27.000Z</time>
      </trkpt>
      <trkpt lat="43.05968" lon="-0.36985">
        <ele>889.5</ele>
        <time>2026-02-07T09:47:30.000Z</time>
      </trkpt>
      <trkpt lat="43.05967" lon="-0.36981">
        <ele>889.8</ele>
        <time>2026-02-07T09:47:33.000Z</time>
      </trkpt>
      <trkpt lat="43.05965" lon="-0.36977">
        <ele>890.1</ele>
        <time>2026-02-07T09:47:36.000Z</time>
      </trkpt>
      <trkpt lat="43.05962" lon="-0.36974">
        <ele>890.4</ele>
        <time>2026-02-07T09:47:39.000Z</time>
      </trkpt>
      <trkpt lat="43.05959" lon="-0.3697">
        <ele>890.7</ele>
        <time>2026-02-07T09:47:42.000Z</time>
      </trkpt>
      <trkpt lat="43.05957" lon="-0.36967">
        <ele>891</ele>
        <time>2026-02-07T09:47:45.000Z</time>
      </trkpt>
      <trkpt lat="43.05954" lon="-0.36964">
        <ele>891.3</ele>
        <time>2026-02-07T09:47:48.000Z</time>
      </trkpt>
      <trkpt lat="43.05951" lon="-0.36962">
        <ele>891.5</ele>
        <time>2026-02-07T09:47:51.000Z</time>
      </trkpt>
      <trkpt lat="43.05948" lon="-0.36958">
        <ele>891.8</ele>
        <time>2026-02-07T09:47:54.000Z</time>
      </trkpt>
      <trkpt lat="43.05945" lon="-0.36955">
        <ele>892.1</ele>
        <time>2026-02-07T09:47:57.000Z</time>
      </trkpt>
      <trkpt lat="43.05942" lon="-0.36953">
        <ele>892.3</ele>
        <time>2026-02-07T09:48:00.000Z</time>
      </trkpt>
      <trkpt lat="43.0594" lon="-0.3695">
        <ele>892.5</ele>
        <time>2026-02-07T09:48:03.000Z</time>
      </trkpt>
      <trkpt lat="43.05937" lon="-0.36947">
        <ele>892.8</ele>
        <time>2026-02-07T09:48:06.000Z</time>
      </trkpt>
      <trkpt lat="43.05934" lon="-0.36944">
        <ele>893</ele>
        <time>2026-02-07T09:48:09.000Z</time>
      </trkpt>
      <trkpt lat="43.05931" lon="-0.36942">
        <ele>893.2</ele>
        <time>2026-02-07T09:48:12.000Z</time>
      </trkpt>
      <trkpt lat="43.05928" lon="-0.36939">
        <ele>893.4</ele>
        <time>2026-02-07T09:48:15.000Z</time>
      </trkpt>
      <trkpt lat="43.05925" lon="-0.36937">
        <ele>893.7</ele>
        <time>2026-02-07T09:48:18.000Z</time>
      </trkpt>
      <trkpt lat="43.05922" lon="-0.36934">
        <ele>894</ele>
        <time>2026-02-07T09:48:21.000Z</time>
      </trkpt>
      <trkpt lat="43.05919" lon="-0.36932">
        <ele>894.3</ele>
        <time>2026-02-07T09:48:24.000Z</time>
      </trkpt>
      <trkpt lat="43.05916" lon="-0.36929">
        <ele>894.6</ele>
        <time>2026-02-07T09:48:27.000Z</time>
      </trkpt>
      <trkpt lat="43.05913" lon="-0.36926">
        <ele>894.8</ele>
        <time>2026-02-07T09:48:30.000Z</time>
      </trkpt>
      <trkpt lat="43.0591" lon="-0.36922">
        <ele>895.1</ele>
        <time>2026-02-07T09:48:33.000Z</time>
      </trkpt>
      <trkpt lat="43.05908" lon="-0.36919">
        <ele>895.3</ele>
        <time>2026-02-07T09:48:36.000Z</time>
      </trkpt>
      <trkpt lat="43.05905" lon="-0.36916">
        <ele>895.7</ele>
        <time>2026-02-07T09:48:39.000Z</time>
      </trkpt>
      <trkpt lat="43.05902" lon="-0.36914">
        <ele>895.9</ele>
        <time>2026-02-07T09:48:42.000Z</time>
      </trkpt>
      <trkpt lat="43.059" lon="-0.36911">
        <ele>896.3</ele>
        <time>2026-02-07T09:48:45.000Z</time>
      </trkpt>
      <trkpt lat="43.05897" lon="-0.36909">
        <ele>896.6</ele>
        <time>2026-02-07T09:48:48.000Z</time>
      </trkpt>
      <trkpt lat="43.05894" lon="-0.36906">
        <ele>896.8</ele>
        <time>2026-02-07T09:48:51.000Z</time>
      </trkpt>
      <trkpt lat="43.05891" lon="-0.36904">
        <ele>897.1</ele>
        <time>2026-02-07T09:48:54.000Z</time>
      </trkpt>
      <trkpt lat="43.05888" lon="-0.36901">
        <ele>897.3</ele>
        <time>2026-02-07T09:48:57.000Z</time>
      </trkpt>
      <trkpt lat="43.05886" lon="-0.36899">
        <ele>897.6</ele>
        <time>2026-02-07T09:49:00.000Z</time>
      </trkpt>
      <trkpt lat="43.05883" lon="-0.36897">
        <ele>897.8</ele>
        <time>2026-02-07T09:49:03.000Z</time>
      </trkpt>
      <trkpt lat="43.0588" lon="-0.36894">
        <ele>898.1</ele>
        <time>2026-02-07T09:49:06.000Z</time>
      </trkpt>
      <trkpt lat="43.05878" lon="-0.36891">
        <ele>898.4</ele>
        <time>2026-02-07T09:49:09.000Z</time>
      </trkpt>
      <trkpt lat="43.05875" lon="-0.36888">
        <ele>898.6</ele>
        <time>2026-02-07T09:49:12.000Z</time>
      </trkpt>
      <trkpt lat="43.05872" lon="-0.36886">
        <ele>898.9</ele>
        <time>2026-02-07T09:49:15.000Z</time>
      </trkpt>
      <trkpt lat="43.0587" lon="-0.36883">
        <ele>899.2</ele>
        <time>2026-02-07T09:49:18.000Z</time>
      </trkpt>
      <trkpt lat="43.05867" lon="-0.36881">
        <ele>899.5</ele>
        <time>2026-02-07T09:49:21.000Z</time>
      </trkpt>
      <trkpt lat="43.05864" lon="-0.36878">
        <ele>899.7</ele>
        <time>2026-02-07T09:49:24.000Z</time>
      </trkpt>
      <trkpt lat="43.05862" lon="-0.36876">
        <ele>899.9</ele>
        <time>2026-02-07T09:49:27.000Z</time>
      </trkpt>
      <trkpt lat="43.05859" lon="-0.36874">
        <ele>900.1</ele>
        <time>2026-02-07T09:49:30.000Z</time>
      </trkpt>
      <trkpt lat="43.05856" lon="-0.36871">
        <ele>900.4</ele>
        <time>2026-02-07T09:49:33.000Z</time>
      </trkpt>
      <trkpt lat="43.05852" lon="-0.36869">
        <ele>900.7</ele>
        <time>2026-02-07T09:49:36.000Z</time>
      </trkpt>
      <trkpt lat="43.05849" lon="-0.36867">
        <ele>900.9</ele>
        <time>2026-02-07T09:49:39.000Z</time>
      </trkpt>
      <trkpt lat="43.05846" lon="-0.36865">
        <ele>901.2</ele>
        <time>2026-02-07T09:49:42.000Z</time>
      </trkpt>
      <trkpt lat="43.05842" lon="-0.36863">
        <ele>901.5</ele>
        <time>2026-02-07T09:49:45.000Z</time>
      </trkpt>
      <trkpt lat="43.05839" lon="-0.36861">
        <ele>901.8</ele>
        <time>2026-02-07T09:49:48.000Z</time>
      </trkpt>
      <trkpt lat="43.05835" lon="-0.3686">
        <ele>902.1</ele>
        <time>2026-02-07T09:49:51.000Z</time>
      </trkpt>
      <trkpt lat="43.05832" lon="-0.36859">
        <ele>902.4</ele>
        <time>2026-02-07T09:49:54.000Z</time>
      </trkpt>
      <trkpt lat="43.05828" lon="-0.36858">
        <ele>902.6</ele>
        <time>2026-02-07T09:49:57.000Z</time>
      </trkpt>
      <trkpt lat="43.05825" lon="-0.36857">
        <ele>902.8</ele>
        <time>2026-02-07T09:50:00.000Z</time>
      </trkpt>
      <trkpt lat="43.05821" lon="-0.36856">
        <ele>902.9</ele>
        <time>2026-02-07T09:50:03.000Z</time>
      </trkpt>
      <trkpt lat="43.05818" lon="-0.36855">
        <ele>903</ele>
        <time>2026-02-07T09:50:06.000Z</time>
      </trkpt>
      <trkpt lat="43.05814" lon="-0.36855">
        <ele>903.2</ele>
        <time>2026-02-07T09:50:09.000Z</time>
      </trkpt>
      <trkpt lat="43.05811" lon="-0.36853">
        <ele>903.4</ele>
        <time>2026-02-07T09:50:12.000Z</time>
      </trkpt>
      <trkpt lat="43.05807" lon="-0.36853">
        <ele>903.6</ele>
        <time>2026-02-07T09:50:15.000Z</time>
      </trkpt>
      <trkpt lat="43.05803" lon="-0.36854">
        <ele>903.8</ele>
        <time>2026-02-07T09:50:18.000Z</time>
      </trkpt>
      <trkpt lat="43.05799" lon="-0.36855">
        <ele>903.9</ele>
        <time>2026-02-07T09:50:21.000Z</time>
      </trkpt>
      <trkpt lat="43.05795" lon="-0.36857">
        <ele>904</ele>
        <time>2026-02-07T09:50:24.000Z</time>
      </trkpt>
      <trkpt lat="43.05791" lon="-0.36858">
        <ele>904.2</ele>
        <time>2026-02-07T09:50:27.000Z</time>
      </trkpt>
      <trkpt lat="43.05788" lon="-0.36859">
        <ele>904.3</ele>
        <time>2026-02-07T09:50:30.000Z</time>
      </trkpt>
      <trkpt lat="43.05784" lon="-0.3686">
        <ele>904.3</ele>
        <time>2026-02-07T09:50:33.000Z</time>
      </trkpt>
      <trkpt lat="43.0578" lon="-0.36862">
        <ele>904.4</ele>
        <time>2026-02-07T09:50:36.000Z</time>
      </trkpt>
      <trkpt lat="43.05777" lon="-0.36862">
        <ele>904.5</ele>
        <time>2026-02-07T09:50:39.000Z</time>
      </trkpt>
      <trkpt lat="43.05774" lon="-0.36861">
        <ele>904.6</ele>
        <time>2026-02-07T09:50:42.000Z</time>
      </trkpt>
      <trkpt lat="43.0577" lon="-0.36861">
        <ele>904.6</ele>
        <time>2026-02-07T09:50:45.000Z</time>
      </trkpt>
      <trkpt lat="43.05767" lon="-0.36862">
        <ele>904.7</ele>
        <time>2026-02-07T09:50:48.000Z</time>
      </trkpt>
      <trkpt lat="43.05764" lon="-0.36863">
        <ele>904.7</ele>
        <time>2026-02-07T09:50:51.000Z</time>
      </trkpt>
      <trkpt lat="43.05761" lon="-0.36864">
        <ele>904.8</ele>
        <time>2026-02-07T09:50:54.000Z</time>
      </trkpt>
      <trkpt lat="43.05758" lon="-0.36867">
        <ele>904.8</ele>
        <time>2026-02-07T09:50:57.000Z</time>
      </trkpt>
      <trkpt lat="43.05754" lon="-0.36869">
        <ele>904.9</ele>
        <time>2026-02-07T09:51:00.000Z</time>
      </trkpt>
      <trkpt lat="43.0575" lon="-0.36871">
        <ele>904.9</ele>
        <time>2026-02-07T09:51:03.000Z</time>
      </trkpt>
      <trkpt lat="43.05746" lon="-0.36873">
        <ele>904.9</ele>
        <time>2026-02-07T09:51:06.000Z</time>
      </trkpt>
      <trkpt lat="43.05742" lon="-0.36876">
        <ele>905</ele>
        <time>2026-02-07T09:51:09.000Z</time>
      </trkpt>
      <trkpt lat="43.05739" lon="-0.36877">
        <ele>905</ele>
        <time>2026-02-07T09:51:12.000Z</time>
      </trkpt>
      <trkpt lat="43.05736" lon="-0.36877">
        <ele>905</ele>
        <time>2026-02-07T09:51:15.000Z</time>
      </trkpt>
      <trkpt lat="43.05733" lon="-0.36878">
        <ele>905</ele>
        <time>2026-02-07T09:51:18.000Z</time>
      </trkpt>
      <trkpt lat="43.05729" lon="-0.3688">
        <ele>905</ele>
        <time>2026-02-07T09:51:21.000Z</time>
      </trkpt>
      <trkpt lat="43.05727" lon="-0.36881">
        <ele>905</ele>
        <time>2026-02-07T09:51:24.000Z</time>
      </trkpt>
      <trkpt lat="43.05724" lon="-0.36882">
        <ele>905</ele>
        <time>2026-02-07T09:51:27.000Z</time>
      </trkpt>
      <trkpt lat="43.05721" lon="-0.36885">
        <ele>905.1</ele>
        <time>2026-02-07T09:51:30.000Z</time>
      </trkpt>
      <trkpt lat="43.05718" lon="-0.36888">
        <ele>905.1</ele>
        <time>2026-02-07T09:51:33.000Z</time>
      </trkpt>
      <trkpt lat="43.05714" lon="-0.36891">
        <ele>905.1</ele>
        <time>2026-02-07T09:51:36.000Z</time>
      </trkpt>
      <trkpt lat="43.0571" lon="-0.36894">
        <ele>905.2</ele>
        <time>2026-02-07T09:51:39.000Z</time>
      </trkpt>
      <trkpt lat="43.05707" lon="-0.36897">
        <ele>905.2</ele>
        <time>2026-02-07T09:51:42.000Z</time>
      </trkpt>
      <trkpt lat="43.05705" lon="-0.369">
        <ele>905.3</ele>
        <time>2026-02-07T09:51:45.000Z</time>
      </trkpt>
      <trkpt lat="43.05702" lon="-0.36901">
        <ele>905.4</ele>
        <time>2026-02-07T09:51:48.000Z</time>
      </trkpt>
      <trkpt lat="43.057" lon="-0.36904">
        <ele>905.5</ele>
        <time>2026-02-07T09:51:51.000Z</time>
      </trkpt>
      <trkpt lat="43.05697" lon="-0.36906">
        <ele>905.7</ele>
        <time>2026-02-07T09:51:54.000Z</time>
      </trkpt>
      <trkpt lat="43.05695" lon="-0.36908">
        <ele>905.9</ele>
        <time>2026-02-07T09:51:57.000Z</time>
      </trkpt>
      <trkpt lat="43.05691" lon="-0.36911">
        <ele>906.1</ele>
        <time>2026-02-07T09:52:00.000Z</time>
      </trkpt>
      <trkpt lat="43.05688" lon="-0.36914">
        <ele>906.4</ele>
        <time>2026-02-07T09:52:03.000Z</time>
      </trkpt>
      <trkpt lat="43.05685" lon="-0.36917">
        <ele>906.7</ele>
        <time>2026-02-07T09:52:06.000Z</time>
      </trkpt>
      <trkpt lat="43.05683" lon="-0.3692">
        <ele>907</ele>
        <time>2026-02-07T09:52:09.000Z</time>
      </trkpt>
      <trkpt lat="43.05681" lon="-0.36922">
        <ele>907.3</ele>
        <time>2026-02-07T09:52:12.000Z</time>
      </trkpt>
      <trkpt lat="43.05681" lon="-0.36926">
        <ele>907.7</ele>
        <time>2026-02-07T09:52:15.000Z</time>
      </trkpt>
      <trkpt lat="43.05679" lon="-0.36928">
        <ele>908.1</ele>
        <time>2026-02-07T09:52:18.000Z</time>
      </trkpt>
      <trkpt lat="43.05677" lon="-0.36931">
        <ele>908.6</ele>
        <time>2026-02-07T09:52:21.000Z</time>
      </trkpt>
      <trkpt lat="43.05675" lon="-0.36932">
        <ele>909</ele>
        <time>2026-02-07T09:52:24.000Z</time>
      </trkpt>
      <trkpt lat="43.05673" lon="-0.36934">
        <ele>909.6</ele>
        <time>2026-02-07T09:52:27.000Z</time>
      </trkpt>
      <trkpt lat="43.05672" lon="-0.36935">
        <ele>910.1</ele>
        <time>2026-02-07T09:52:30.000Z</time>
      </trkpt>
      <trkpt lat="43.05669" lon="-0.36936">
        <ele>910.6</ele>
        <time>2026-02-07T09:52:33.000Z</time>
      </trkpt>
      <trkpt lat="43.05667" lon="-0.36935">
        <ele>911.1</ele>
        <time>2026-02-07T09:52:36.000Z</time>
      </trkpt>
      <trkpt lat="43.05665" lon="-0.36937">
        <ele>911.6</ele>
        <time>2026-02-07T09:52:39.000Z</time>
      </trkpt>
      <trkpt lat="43.05663" lon="-0.36938">
        <ele>912.1</ele>
        <time>2026-02-07T09:52:42.000Z</time>
      </trkpt>
      <trkpt lat="43.05661" lon="-0.36937">
        <ele>912.6</ele>
        <time>2026-02-07T09:52:45.000Z</time>
      </trkpt>
      <trkpt lat="43.05657" lon="-0.36936">
        <ele>913.1</ele>
        <time>2026-02-07T09:52:48.000Z</time>
      </trkpt>
      <trkpt lat="43.05654" lon="-0.36936">
        <ele>913.7</ele>
        <time>2026-02-07T09:52:51.000Z</time>
      </trkpt>
      <trkpt lat="43.05653" lon="-0.36938">
        <ele>914.2</ele>
        <time>2026-02-07T09:52:54.000Z</time>
      </trkpt>
      <trkpt lat="43.05651" lon="-0.3694">
        <ele>914.7</ele>
        <time>2026-02-07T09:52:57.000Z</time>
      </trkpt>
      <trkpt lat="43.05649" lon="-0.36943">
        <ele>915.1</ele>
        <time>2026-02-07T09:53:00.000Z</time>
      </trkpt>
      <trkpt lat="43.05646" lon="-0.36944">
        <ele>915.5</ele>
        <time>2026-02-07T09:53:03.000Z</time>
      </trkpt>
      <trkpt lat="43.05645" lon="-0.36947">
        <ele>916</ele>
        <time>2026-02-07T09:53:06.000Z</time>
      </trkpt>
      <trkpt lat="43.05643" lon="-0.36948">
        <ele>916.4</ele>
        <time>2026-02-07T09:53:09.000Z</time>
      </trkpt>
      <trkpt lat="43.05641" lon="-0.36949">
        <ele>917</ele>
        <time>2026-02-07T09:53:12.000Z</time>
      </trkpt>
      <trkpt lat="43.05638" lon="-0.3695">
        <ele>917.5</ele>
        <time>2026-02-07T09:53:15.000Z</time>
      </trkpt>
      <trkpt lat="43.05635" lon="-0.36951">
        <ele>918</ele>
        <time>2026-02-07T09:53:18.000Z</time>
      </trkpt>
      <trkpt lat="43.05634" lon="-0.36952">
        <ele>918.4</ele>
        <time>2026-02-07T09:53:21.000Z</time>
      </trkpt>
      <trkpt lat="43.05632" lon="-0.36954">
        <ele>918.9</ele>
        <time>2026-02-07T09:53:24.000Z</time>
      </trkpt>
      <trkpt lat="43.0563" lon="-0.36954">
        <ele>919.3</ele>
        <time>2026-02-07T09:53:27.000Z</time>
      </trkpt>
      <trkpt lat="43.05628" lon="-0.36954">
        <ele>919.7</ele>
        <time>2026-02-07T09:53:30.000Z</time>
      </trkpt>
      <trkpt lat="43.05624" lon="-0.36954">
        <ele>920.1</ele>
        <time>2026-02-07T09:53:33.000Z</time>
      </trkpt>
      <trkpt lat="43.05622" lon="-0.36955">
        <ele>920.5</ele>
        <time>2026-02-07T09:53:36.000Z</time>
      </trkpt>
      <trkpt lat="43.0562" lon="-0.36955">
        <ele>920.9</ele>
        <time>2026-02-07T09:53:39.000Z</time>
      </trkpt>
      <trkpt lat="43.05617" lon="-0.36954">
        <ele>921.3</ele>
        <time>2026-02-07T09:53:42.000Z</time>
      </trkpt>
      <trkpt lat="43.05614" lon="-0.36954">
        <ele>921.7</ele>
        <time>2026-02-07T09:53:45.000Z</time>
      </trkpt>
      <trkpt lat="43.05612" lon="-0.36955">
        <ele>922.2</ele>
        <time>2026-02-07T09:53:48.000Z</time>
      </trkpt>
      <trkpt lat="43.0561" lon="-0.36954">
        <ele>922.6</ele>
        <time>2026-02-07T09:53:51.000Z</time>
      </trkpt>
      <trkpt lat="43.05608" lon="-0.36954">
        <ele>923</ele>
        <time>2026-02-07T09:53:54.000Z</time>
      </trkpt>
      <trkpt lat="43.05605" lon="-0.36954">
        <ele>923.5</ele>
        <time>2026-02-07T09:53:57.000Z</time>
      </trkpt>
      <trkpt lat="43.05604" lon="-0.36953">
        <ele>923.9</ele>
        <time>2026-02-07T09:54:00.000Z</time>
      </trkpt>
      <trkpt lat="43.05602" lon="-0.36953">
        <ele>924.4</ele>
        <time>2026-02-07T09:54:03.000Z</time>
      </trkpt>
      <trkpt lat="43.05601" lon="-0.36952">
        <ele>924.9</ele>
        <time>2026-02-07T09:54:06.000Z</time>
      </trkpt>
      <trkpt lat="43.056" lon="-0.3695">
        <ele>925.5</ele>
        <time>2026-02-07T09:54:09.000Z</time>
      </trkpt>
      <trkpt lat="43.05597" lon="-0.3695">
        <ele>926</ele>
        <time>2026-02-07T09:54:12.000Z</time>
      </trkpt>
      <trkpt lat="43.05595" lon="-0.36949">
        <ele>926.5</ele>
        <time>2026-02-07T09:54:15.000Z</time>
      </trkpt>
      <trkpt lat="43.05593" lon="-0.36949">
        <ele>926.9</ele>
        <time>2026-02-07T09:54:18.000Z</time>
      </trkpt>
      <trkpt lat="43.05592" lon="-0.36949">
        <ele>927.4</ele>
        <time>2026-02-07T09:54:21.000Z</time>
      </trkpt>
      <trkpt lat="43.0559" lon="-0.36948">
        <ele>928</ele>
        <time>2026-02-07T09:54:24.000Z</time>
      </trkpt>
      <trkpt lat="43.05589" lon="-0.36946">
        <ele>928.5</ele>
        <time>2026-02-07T09:54:27.000Z</time>
      </trkpt>
      <trkpt lat="43.05587" lon="-0.36943">
        <ele>929</ele>
        <time>2026-02-07T09:54:30.000Z</time>
      </trkpt>
      <trkpt lat="43.05587" lon="-0.36939">
        <ele>929.5</ele>
        <time>2026-02-07T09:54:33.000Z</time>
      </trkpt>
      <trkpt lat="43.05586" lon="-0.36936">
        <ele>929.9</ele>
        <time>2026-02-07T09:54:36.000Z</time>
      </trkpt>
      <trkpt lat="43.05585" lon="-0.36934">
        <ele>930.3</ele>
        <time>2026-02-07T09:54:39.000Z</time>
      </trkpt>
      <trkpt lat="43.05584" lon="-0.3693">
        <ele>930.8</ele>
        <time>2026-02-07T09:54:42.000Z</time>
      </trkpt>
      <trkpt lat="43.05583" lon="-0.36928">
        <ele>931.2</ele>
        <time>2026-02-07T09:54:45.000Z</time>
      </trkpt>
      <trkpt lat="43.05582" lon="-0.36925">
        <ele>931.7</ele>
        <time>2026-02-07T09:54:48.000Z</time>
      </trkpt>
      <trkpt lat="43.05581" lon="-0.36922">
        <ele>932.1</ele>
        <time>2026-02-07T09:54:51.000Z</time>
      </trkpt>
      <trkpt lat="43.0558" lon="-0.36919">
        <ele>932.5</ele>
        <time>2026-02-07T09:54:54.000Z</time>
      </trkpt>
      <trkpt lat="43.0558" lon="-0.36916">
        <ele>932.9</ele>
        <time>2026-02-07T09:54:57.000Z</time>
      </trkpt>
      <trkpt lat="43.05578" lon="-0.36914">
        <ele>933.4</ele>
        <time>2026-02-07T09:55:00.000Z</time>
      </trkpt>
      <trkpt lat="43.05577" lon="-0.36912">
        <ele>933.7</ele>
        <time>2026-02-07T09:55:03.000Z</time>
      </trkpt>
      <trkpt lat="43.05575" lon="-0.36909">
        <ele>934.2</ele>
        <time>2026-02-07T09:55:06.000Z</time>
      </trkpt>
      <trkpt lat="43.05574" lon="-0.36906">
        <ele>934.7</ele>
        <time>2026-02-07T09:55:09.000Z</time>
      </trkpt>
      <trkpt lat="43.05573" lon="-0.36903">
        <ele>935.2</ele>
        <time>2026-02-07T09:55:12.000Z</time>
      </trkpt>
      <trkpt lat="43.05571" lon="-0.369">
        <ele>935.7</ele>
        <time>2026-02-07T09:55:15.000Z</time>
      </trkpt>
      <trkpt lat="43.05569" lon="-0.36899">
        <ele>936.2</ele>
        <time>2026-02-07T09:55:18.000Z</time>
      </trkpt>
      <trkpt lat="43.05568" lon="-0.36896">
        <ele>936.6</ele>
        <time>2026-02-07T09:55:21.000Z</time>
      </trkpt>
      <trkpt lat="43.05567" lon="-0.36894">
        <ele>937</ele>
        <time>2026-02-07T09:55:24.000Z</time>
      </trkpt>
      <trkpt lat="43.05565" lon="-0.36893">
        <ele>937.4</ele>
        <time>2026-02-07T09:55:27.000Z</time>
      </trkpt>
      <trkpt lat="43.05564" lon="-0.3689">
        <ele>937.7</ele>
        <time>2026-02-07T09:55:30.000Z</time>
      </trkpt>
      <trkpt lat="43.05563" lon="-0.36888">
        <ele>938.1</ele>
        <time>2026-02-07T09:55:33.000Z</time>
      </trkpt>
      <trkpt lat="43.05562" lon="-0.36887">
        <ele>938.4</ele>
        <time>2026-02-07T09:55:36.000Z</time>
      </trkpt>
      <trkpt lat="43.05561" lon="-0.36885">
        <ele>938.8</ele>
        <time>2026-02-07T09:55:39.000Z</time>
      </trkpt>
      <trkpt lat="43.0556" lon="-0.36884">
        <ele>939.3</ele>
        <time>2026-02-07T09:55:42.000Z</time>
      </trkpt>
      <trkpt lat="43.05559" lon="-0.36882">
        <ele>939.7</ele>
        <time>2026-02-07T09:55:45.000Z</time>
      </trkpt>
      <trkpt lat="43.05557" lon="-0.3688">
        <ele>940.1</ele>
        <time>2026-02-07T09:55:48.000Z</time>
      </trkpt>
      <trkpt lat="43.05556" lon="-0.36879">
        <ele>940.5</ele>
        <time>2026-02-07T09:55:51.000Z</time>
      </trkpt>
      <trkpt lat="43.05556" lon="-0.36878">
        <ele>941</ele>
        <time>2026-02-07T09:55:54.000Z</time>
      </trkpt>
      <trkpt lat="43.05555" lon="-0.36876">
        <ele>941.5</ele>
        <time>2026-02-07T09:55:57.000Z</time>
      </trkpt>
      <trkpt lat="43.05553" lon="-0.36875">
        <ele>941.9</ele>
        <time>2026-02-07T09:56:00.000Z</time>
      </trkpt>
      <trkpt lat="43.0555" lon="-0.36875">
        <ele>942.4</ele>
        <time>2026-02-07T09:56:03.000Z</time>
      </trkpt>
      <trkpt lat="43.05548" lon="-0.36874">
        <ele>942.7</ele>
        <time>2026-02-07T09:56:06.000Z</time>
      </trkpt>
      <trkpt lat="43.05547" lon="-0.36874">
        <ele>943.2</ele>
        <time>2026-02-07T09:56:09.000Z</time>
      </trkpt>
      <trkpt lat="43.05545" lon="-0.36873">
        <ele>943.6</ele>
        <time>2026-02-07T09:56:12.000Z</time>
      </trkpt>
      <trkpt lat="43.05544" lon="-0.36871">
        <ele>944</ele>
        <time>2026-02-07T09:56:15.000Z</time>
      </trkpt>
      <trkpt lat="43.05542" lon="-0.3687">
        <ele>944.3</ele>
        <time>2026-02-07T09:56:18.000Z</time>
      </trkpt>
      <trkpt lat="43.05541" lon="-0.36868">
        <ele>944.6</ele>
        <time>2026-02-07T09:56:21.000Z</time>
      </trkpt>
      <trkpt lat="43.05539" lon="-0.36867">
        <ele>945</ele>
        <time>2026-02-07T09:56:24.000Z</time>
      </trkpt>
      <trkpt lat="43.05537" lon="-0.36868">
        <ele>945.4</ele>
        <time>2026-02-07T09:56:27.000Z</time>
      </trkpt>
      <trkpt lat="43.05535" lon="-0.36868">
        <ele>945.8</ele>
        <time>2026-02-07T09:56:30.000Z</time>
      </trkpt>
      <trkpt lat="43.05533" lon="-0.36869">
        <ele>946.2</ele>
        <time>2026-02-07T09:56:33.000Z</time>
      </trkpt>
      <trkpt lat="43.05532" lon="-0.3687">
        <ele>946.6</ele>
        <time>2026-02-07T09:56:36.000Z</time>
      </trkpt>
      <trkpt lat="43.05529" lon="-0.36871">
        <ele>946.9</ele>
        <time>2026-02-07T09:56:39.000Z</time>
      </trkpt>
      <trkpt lat="43.05526" lon="-0.36873">
        <ele>947.3</ele>
        <time>2026-02-07T09:56:42.000Z</time>
      </trkpt>
      <trkpt lat="43.05523" lon="-0.36874">
        <ele>947.7</ele>
        <time>2026-02-07T09:56:45.000Z</time>
      </trkpt>
      <trkpt lat="43.05522" lon="-0.36872">
        <ele>948.1</ele>
        <time>2026-02-07T09:56:48.000Z</time>
      </trkpt>
      <trkpt lat="43.0552" lon="-0.36872">
        <ele>948.5</ele>
        <time>2026-02-07T09:56:51.000Z</time>
      </trkpt>
      <trkpt lat="43.05517" lon="-0.36871">
        <ele>949</ele>
        <time>2026-02-07T09:56:54.000Z</time>
      </trkpt>
      <trkpt lat="43.05515" lon="-0.36871">
        <ele>949.4</ele>
        <time>2026-02-07T09:56:57.000Z</time>
      </trkpt>
      <trkpt lat="43.05512" lon="-0.36872">
        <ele>949.8</ele>
        <time>2026-02-07T09:57:00.000Z</time>
      </trkpt>
      <trkpt lat="43.05511" lon="-0.36873">
        <ele>950.2</ele>
        <time>2026-02-07T09:57:03.000Z</time>
      </trkpt>
      <trkpt lat="43.05509" lon="-0.36873">
        <ele>950.6</ele>
        <time>2026-02-07T09:57:06.000Z</time>
      </trkpt>
      <trkpt lat="43.05507" lon="-0.36872">
        <ele>951</ele>
        <time>2026-02-07T09:57:09.000Z</time>
      </trkpt>
      <trkpt lat="43.05506" lon="-0.36872">
        <ele>951.4</ele>
        <time>2026-02-07T09:57:12.000Z</time>
      </trkpt>
      <trkpt lat="43.05505" lon="-0.3687">
        <ele>951.8</ele>
        <time>2026-02-07T09:57:15.000Z</time>
      </trkpt>
      <trkpt lat="43.05503" lon="-0.3687">
        <ele>952.2</ele>
        <time>2026-02-07T09:57:18.000Z</time>
      </trkpt>
      <trkpt lat="43.05501" lon="-0.3687">
        <ele>952.6</ele>
        <time>2026-02-07T09:57:21.000Z</time>
      </trkpt>
      <trkpt lat="43.055" lon="-0.36871">
        <ele>953.1</ele>
        <time>2026-02-07T09:57:24.000Z</time>
      </trkpt>
      <trkpt lat="43.05497" lon="-0.36872">
        <ele>953.5</ele>
        <time>2026-02-07T09:57:27.000Z</time>
      </trkpt>
      <trkpt lat="43.05495" lon="-0.36873">
        <ele>954</ele>
        <time>2026-02-07T09:57:30.000Z</time>
      </trkpt>
      <trkpt lat="43.05494" lon="-0.36873">
        <ele>954.4</ele>
        <time>2026-02-07T09:57:33.000Z</time>
      </trkpt>
      <trkpt lat="43.05493" lon="-0.36872">
        <ele>954.8</ele>
        <time>2026-02-07T09:57:36.000Z</time>
      </trkpt>
      <trkpt lat="43.05491" lon="-0.36872">
        <ele>955.2</ele>
        <time>2026-02-07T09:57:39.000Z</time>
      </trkpt>
      <trkpt lat="43.05488" lon="-0.36872">
        <ele>955.6</ele>
        <time>2026-02-07T09:57:42.000Z</time>
      </trkpt>
      <trkpt lat="43.05486" lon="-0.36872">
        <ele>956.1</ele>
        <time>2026-02-07T09:57:45.000Z</time>
      </trkpt>
      <trkpt lat="43.05484" lon="-0.36871">
        <ele>956.4</ele>
        <time>2026-02-07T09:57:48.000Z</time>
      </trkpt>
      <trkpt lat="43.05482" lon="-0.3687">
        <ele>956.8</ele>
        <time>2026-02-07T09:57:51.000Z</time>
      </trkpt>
      <trkpt lat="43.05479" lon="-0.3687">
        <ele>957.2</ele>
        <time>2026-02-07T09:57:54.000Z</time>
      </trkpt>
      <trkpt lat="43.05476" lon="-0.36871">
        <ele>957.6</ele>
        <time>2026-02-07T09:57:57.000Z</time>
      </trkpt>
      <trkpt lat="43.05473" lon="-0.36872">
        <ele>958</ele>
        <time>2026-02-07T09:58:00.000Z</time>
      </trkpt>
      <trkpt lat="43.0547" lon="-0.36873">
        <ele>958.4</ele>
        <time>2026-02-07T09:58:03.000Z</time>
      </trkpt>
      <trkpt lat="43.05468" lon="-0.36872">
        <ele>958.7</ele>
        <time>2026-02-07T09:58:06.000Z</time>
      </trkpt>
      <trkpt lat="43.05467" lon="-0.36868">
        <ele>959.1</ele>
        <time>2026-02-07T09:58:09.000Z</time>
      </trkpt>
      <trkpt lat="43.05466" lon="-0.36868">
        <ele>959.5</ele>
        <time>2026-02-07T09:58:12.000Z</time>
      </trkpt>
      <trkpt lat="43.05464" lon="-0.36867">
        <ele>959.8</ele>
        <time>2026-02-07T09:58:15.000Z</time>
      </trkpt>
      <trkpt lat="43.05462" lon="-0.36866">
        <ele>960.2</ele>
        <time>2026-02-07T09:58:18.000Z</time>
      </trkpt>
      <trkpt lat="43.0546" lon="-0.36866">
        <ele>960.7</ele>
        <time>2026-02-07T09:58:21.000Z</time>
      </trkpt>
      <trkpt lat="43.05457" lon="-0.36866">
        <ele>961.2</ele>
        <time>2026-02-07T09:58:24.000Z</time>
      </trkpt>
      <trkpt lat="43.05454" lon="-0.36867">
        <ele>961.7</ele>
        <time>2026-02-07T09:58:27.000Z</time>
      </trkpt>
      <trkpt lat="43.05453" lon="-0.36868">
        <ele>962.1</ele>
        <time>2026-02-07T09:58:30.000Z</time>
      </trkpt>
      <trkpt lat="43.05451" lon="-0.36868">
        <ele>962.5</ele>
        <time>2026-02-07T09:58:33.000Z</time>
      </trkpt>
      <trkpt lat="43.05448" lon="-0.36867">
        <ele>962.8</ele>
        <time>2026-02-07T09:58:36.000Z</time>
      </trkpt>
      <trkpt lat="43.05447" lon="-0.36867">
        <ele>963.2</ele>
        <time>2026-02-07T09:58:39.000Z</time>
      </trkpt>
      <trkpt lat="43.05446" lon="-0.36865">
        <ele>963.7</ele>
        <time>2026-02-07T09:58:42.000Z</time>
      </trkpt>
      <trkpt lat="43.05444" lon="-0.36864">
        <ele>964.1</ele>
        <time>2026-02-07T09:58:45.000Z</time>
      </trkpt>
      <trkpt lat="43.05442" lon="-0.36864">
        <ele>964.5</ele>
        <time>2026-02-07T09:58:48.000Z</time>
      </trkpt>
      <trkpt lat="43.0544" lon="-0.36865">
        <ele>964.9</ele>
        <time>2026-02-07T09:58:51.000Z</time>
      </trkpt>
      <trkpt lat="43.05438" lon="-0.36866">
        <ele>965.2</ele>
        <time>2026-02-07T09:58:54.000Z</time>
      </trkpt>
      <trkpt lat="43.05437" lon="-0.36865">
        <ele>965.6</ele>
        <time>2026-02-07T09:58:57.000Z</time>
      </trkpt>
      <trkpt lat="43.05435" lon="-0.36864">
        <ele>965.9</ele>
        <time>2026-02-07T09:59:00.000Z</time>
      </trkpt>
      <trkpt lat="43.05433" lon="-0.36864">
        <ele>966.2</ele>
        <time>2026-02-07T09:59:03.000Z</time>
      </trkpt>
      <trkpt lat="43.05431" lon="-0.36865">
        <ele>966.5</ele>
        <time>2026-02-07T09:59:06.000Z</time>
      </trkpt>
      <trkpt lat="43.05429" lon="-0.36866">
        <ele>966.9</ele>
        <time>2026-02-07T09:59:09.000Z</time>
      </trkpt>
      <trkpt lat="43.05427" lon="-0.36866">
        <ele>967.3</ele>
        <time>2026-02-07T09:59:12.000Z</time>
      </trkpt>
      <trkpt lat="43.05426" lon="-0.36865">
        <ele>967.6</ele>
        <time>2026-02-07T09:59:15.000Z</time>
      </trkpt>
      <trkpt lat="43.05424" lon="-0.36864">
        <ele>968.1</ele>
        <time>2026-02-07T09:59:18.000Z</time>
      </trkpt>
      <trkpt lat="43.05423" lon="-0.36864">
        <ele>968.6</ele>
        <time>2026-02-07T09:59:21.000Z</time>
      </trkpt>
      <trkpt lat="43.05421" lon="-0.36863">
        <ele>969.1</ele>
        <time>2026-02-07T09:59:24.000Z</time>
      </trkpt>
      <trkpt lat="43.05419" lon="-0.36862">
        <ele>969.5</ele>
        <time>2026-02-07T09:59:27.000Z</time>
      </trkpt>
      <trkpt lat="43.05417" lon="-0.3686">
        <ele>969.9</ele>
        <time>2026-02-07T09:59:30.000Z</time>
      </trkpt>
      <trkpt lat="43.05415" lon="-0.36858">
        <ele>970.4</ele>
        <time>2026-02-07T09:59:33.000Z</time>
      </trkpt>
      <trkpt lat="43.05413" lon="-0.36857">
        <ele>970.9</ele>
        <time>2026-02-07T09:59:36.000Z</time>
      </trkpt>
      <trkpt lat="43.05411" lon="-0.36856">
        <ele>971.5</ele>
        <time>2026-02-07T09:59:39.000Z</time>
      </trkpt>
      <trkpt lat="43.05409" lon="-0.36856">
        <ele>971.9</ele>
        <time>2026-02-07T09:59:42.000Z</time>
      </trkpt>
      <trkpt lat="43.05407" lon="-0.36855">
        <ele>972.4</ele>
        <time>2026-02-07T09:59:45.000Z</time>
      </trkpt>
      <trkpt lat="43.05405" lon="-0.36855">
        <ele>972.7</ele>
        <time>2026-02-07T09:59:48.000Z</time>
      </trkpt>
      <trkpt lat="43.05404" lon="-0.36854">
        <ele>973.1</ele>
        <time>2026-02-07T09:59:51.000Z</time>
      </trkpt>
      <trkpt lat="43.05402" lon="-0.36855">
        <ele>973.4</ele>
        <time>2026-02-07T09:59:54.000Z</time>
      </trkpt>
      <trkpt lat="43.05399" lon="-0.36856">
        <ele>973.8</ele>
        <time>2026-02-07T09:59:57.000Z</time>
      </trkpt>
      <trkpt lat="43.05395" lon="-0.36857">
        <ele>974.1</ele>
        <time>2026-02-07T10:00:00.000Z</time>
      </trkpt>
      <trkpt lat="43.05393" lon="-0.36857">
        <ele>974.4</ele>
        <time>2026-02-07T10:00:03.000Z</time>
      </trkpt>
      <trkpt lat="43.05391" lon="-0.36855">
        <ele>974.8</ele>
        <time>2026-02-07T10:00:06.000Z</time>
      </trkpt>
      <trkpt lat="43.05389" lon="-0.36854">
        <ele>975.2</ele>
        <time>2026-02-07T10:00:09.000Z</time>
      </trkpt>
      <trkpt lat="43.05388" lon="-0.36852">
        <ele>975.6</ele>
        <time>2026-02-07T10:00:12.000Z</time>
      </trkpt>
      <trkpt lat="43.05388" lon="-0.36849">
        <ele>975.9</ele>
        <time>2026-02-07T10:00:15.000Z</time>
      </trkpt>
      <trkpt lat="43.05386" lon="-0.36847">
        <ele>976.2</ele>
        <time>2026-02-07T10:00:18.000Z</time>
      </trkpt>
      <trkpt lat="43.05385" lon="-0.36845">
        <ele>976.4</ele>
        <time>2026-02-07T10:00:21.000Z</time>
      </trkpt>
      <trkpt lat="43.05384" lon="-0.36844">
        <ele>976.7</ele>
        <time>2026-02-07T10:00:24.000Z</time>
      </trkpt>
      <trkpt lat="43.05382" lon="-0.36842">
        <ele>976.9</ele>
        <time>2026-02-07T10:00:27.000Z</time>
      </trkpt>
      <trkpt lat="43.0538" lon="-0.36842">
        <ele>977.2</ele>
        <time>2026-02-07T10:00:30.000Z</time>
      </trkpt>
      <trkpt lat="43.05379" lon="-0.3684">
        <ele>977.7</ele>
        <time>2026-02-07T10:00:33.000Z</time>
      </trkpt>
      <trkpt lat="43.05377" lon="-0.36838">
        <ele>978</ele>
        <time>2026-02-07T10:00:36.000Z</time>
      </trkpt>
      <trkpt lat="43.05375" lon="-0.36837">
        <ele>978.3</ele>
        <time>2026-02-07T10:00:39.000Z</time>
      </trkpt>
      <trkpt lat="43.05373" lon="-0.36837">
        <ele>978.5</ele>
        <time>2026-02-07T10:00:42.000Z</time>
      </trkpt>
      <trkpt lat="43.0537" lon="-0.36838">
        <ele>978.6</ele>
        <time>2026-02-07T10:00:45.000Z</time>
      </trkpt>
      <trkpt lat="43.05367" lon="-0.36839">
        <ele>978.7</ele>
        <time>2026-02-07T10:00:48.000Z</time>
      </trkpt>
      <trkpt lat="43.05364" lon="-0.3684">
        <ele>978.9</ele>
        <time>2026-02-07T10:00:51.000Z</time>
      </trkpt>
      <trkpt lat="43.05362" lon="-0.36842">
        <ele>979.1</ele>
        <time>2026-02-07T10:00:54.000Z</time>
      </trkpt>
      <trkpt lat="43.0536" lon="-0.36844">
        <ele>979.3</ele>
        <time>2026-02-07T10:00:57.000Z</time>
      </trkpt>
      <trkpt lat="43.05358" lon="-0.36845">
        <ele>979.5</ele>
        <time>2026-02-07T10:01:00.000Z</time>
      </trkpt>
      <trkpt lat="43.05356" lon="-0.36845">
        <ele>979.7</ele>
        <time>2026-02-07T10:01:03.000Z</time>
      </trkpt>
      <trkpt lat="43.05353" lon="-0.36846">
        <ele>980</ele>
        <time>2026-02-07T10:01:06.000Z</time>
      </trkpt>
      <trkpt lat="43.05351" lon="-0.36846">
        <ele>980.3</ele>
        <time>2026-02-07T10:01:09.000Z</time>
      </trkpt>
      <trkpt lat="43.05348" lon="-0.36846">
        <ele>980.6</ele>
        <time>2026-02-07T10:01:12.000Z</time>
      </trkpt>
      <trkpt lat="43.05346" lon="-0.36847">
        <ele>980.9</ele>
        <time>2026-02-07T10:01:15.000Z</time>
      </trkpt>
      <trkpt lat="43.05343" lon="-0.36848">
        <ele>981.4</ele>
        <time>2026-02-07T10:01:18.000Z</time>
      </trkpt>
      <trkpt lat="43.05341" lon="-0.36848">
        <ele>981.7</ele>
        <time>2026-02-07T10:01:21.000Z</time>
      </trkpt>
      <trkpt lat="43.05339" lon="-0.36849">
        <ele>982.1</ele>
        <time>2026-02-07T10:01:24.000Z</time>
      </trkpt>
      <trkpt lat="43.05337" lon="-0.36851">
        <ele>982.5</ele>
        <time>2026-02-07T10:01:27.000Z</time>
      </trkpt>
      <trkpt lat="43.05335" lon="-0.36852">
        <ele>982.8</ele>
        <time>2026-02-07T10:01:30.000Z</time>
      </trkpt>
      <trkpt lat="43.05333" lon="-0.36853">
        <ele>983.2</ele>
        <time>2026-02-07T10:01:33.000Z</time>
      </trkpt>
      <trkpt lat="43.05331" lon="-0.36854">
        <ele>983.5</ele>
        <time>2026-02-07T10:01:36.000Z</time>
      </trkpt>
      <trkpt lat="43.05329" lon="-0.36854">
        <ele>983.9</ele>
        <time>2026-02-07T10:01:39.000Z</time>
      </trkpt>
      <trkpt lat="43.05328" lon="-0.36854">
        <ele>984.2</ele>
        <time>2026-02-07T10:01:42.000Z</time>
      </trkpt>
      <trkpt lat="43.05326" lon="-0.36853">
        <ele>984.5</ele>
        <time>2026-02-07T10:01:45.000Z</time>
      </trkpt>
      <trkpt lat="43.05325" lon="-0.36852">
        <ele>984.8</ele>
        <time>2026-02-07T10:01:48.000Z</time>
      </trkpt>
      <trkpt lat="43.05323" lon="-0.36851">
        <ele>985.1</ele>
        <time>2026-02-07T10:01:51.000Z</time>
      </trkpt>
      <trkpt lat="43.05321" lon="-0.36849">
        <ele>985.4</ele>
        <time>2026-02-07T10:01:54.000Z</time>
      </trkpt>
      <trkpt lat="43.0532" lon="-0.36848">
        <ele>985.6</ele>
        <time>2026-02-07T10:01:57.000Z</time>
      </trkpt>
      <trkpt lat="43.05319" lon="-0.36845">
        <ele>985.9</ele>
        <time>2026-02-07T10:02:00.000Z</time>
      </trkpt>
      <trkpt lat="43.05319" lon="-0.3684">
        <ele>986.2</ele>
        <time>2026-02-07T10:02:03.000Z</time>
      </trkpt>
      <trkpt lat="43.05321" lon="-0.36836">
        <ele>986.5</ele>
        <time>2026-02-07T10:02:06.000Z</time>
      </trkpt>
      <trkpt lat="43.05321" lon="-0.36832">
        <ele>986.9</ele>
        <time>2026-02-07T10:02:09.000Z</time>
      </trkpt>
      <trkpt lat="43.05322" lon="-0.36829">
        <ele>987.2</ele>
        <time>2026-02-07T10:02:12.000Z</time>
      </trkpt>
      <trkpt lat="43.05323" lon="-0.36826">
        <ele>987.6</ele>
        <time>2026-02-07T10:02:15.000Z</time>
      </trkpt>
      <trkpt lat="43.05325" lon="-0.36824">
        <ele>988</ele>
        <time>2026-02-07T10:02:18.000Z</time>
      </trkpt>
      <trkpt lat="43.05326" lon="-0.36822">
        <ele>988.4</ele>
        <time>2026-02-07T10:02:21.000Z</time>
      </trkpt>
      <trkpt lat="43.05328" lon="-0.3682">
        <ele>988.7</ele>
        <time>2026-02-07T10:02:24.000Z</time>
      </trkpt>
      <trkpt lat="43.0533" lon="-0.36819">
        <ele>989.1</ele>
        <time>2026-02-07T10:02:27.000Z</time>
      </trkpt>
      <trkpt lat="43.05331" lon="-0.36817">
        <ele>989.4</ele>
        <time>2026-02-07T10:02:30.000Z</time>
      </trkpt>
      <trkpt lat="43.05331" lon="-0.36816">
        <ele>989.7</ele>
        <time>2026-02-07T10:02:33.000Z</time>
      </trkpt>
      <trkpt lat="43.05333" lon="-0.36814">
        <ele>990</ele>
        <time>2026-02-07T10:02:36.000Z</time>
      </trkpt>
      <trkpt lat="43.05336" lon="-0.36813">
        <ele>990.2</ele>
        <time>2026-02-07T10:02:39.000Z</time>
      </trkpt>
      <trkpt lat="43.05339" lon="-0.36812">
        <ele>990.5</ele>
        <time>2026-02-07T10:02:42.000Z</time>
      </trkpt>
      <trkpt lat="43.05341" lon="-0.3681">
        <ele>990.8</ele>
        <time>2026-02-07T10:02:45.000Z</time>
      </trkpt>
      <trkpt lat="43.05343" lon="-0.36807">
        <ele>991</ele>
        <time>2026-02-07T10:02:48.000Z</time>
      </trkpt>
      <trkpt lat="43.05345" lon="-0.36805">
        <ele>991.1</ele>
        <time>2026-02-07T10:02:51.000Z</time>
      </trkpt>
      <trkpt lat="43.05347" lon="-0.36804">
        <ele>991.3</ele>
        <time>2026-02-07T10:02:54.000Z</time>
      </trkpt>
      <trkpt lat="43.05349" lon="-0.36802">
        <ele>991.5</ele>
        <time>2026-02-07T10:02:57.000Z</time>
      </trkpt>
      <trkpt lat="43.05351" lon="-0.36801">
        <ele>991.7</ele>
        <time>2026-02-07T10:03:00.000Z</time>
      </trkpt>
      <trkpt lat="43.05352" lon="-0.36799">
        <ele>991.9</ele>
        <time>2026-02-07T10:03:03.000Z</time>
      </trkpt>
      <trkpt lat="43.05354" lon="-0.36798">
        <ele>992</ele>
        <time>2026-02-07T10:03:06.000Z</time>
      </trkpt>
      <trkpt lat="43.05357" lon="-0.36796">
        <ele>992.3</ele>
        <time>2026-02-07T10:03:09.000Z</time>
      </trkpt>
      <trkpt lat="43.0536" lon="-0.36794">
        <ele>992.6</ele>
        <time>2026-02-07T10:03:12.000Z</time>
      </trkpt>
      <trkpt lat="43.05362" lon="-0.36792">
        <ele>992.9</ele>
        <time>2026-02-07T10:03:15.000Z</time>
      </trkpt>
      <trkpt lat="43.05363" lon="-0.3679">
        <ele>993.3</ele>
        <time>2026-02-07T10:03:18.000Z</time>
      </trkpt>
      <trkpt lat="43.05364" lon="-0.36788">
        <ele>993.7</ele>
        <time>2026-02-07T10:03:21.000Z</time>
      </trkpt>
      <trkpt lat="43.05366" lon="-0.36787">
        <ele>994</ele>
        <time>2026-02-07T10:03:24.000Z</time>
      </trkpt>
      <trkpt lat="43.05368" lon="-0.36786">
        <ele>994.2</ele>
        <time>2026-02-07T10:03:27.000Z</time>
      </trkpt>
      <trkpt lat="43.0537" lon="-0.36785">
        <ele>994.5</ele>
        <time>2026-02-07T10:03:30.000Z</time>
      </trkpt>
      <trkpt lat="43.05374" lon="-0.36783">
        <ele>994.8</ele>
        <time>2026-02-07T10:03:33.000Z</time>
      </trkpt>
      <trkpt lat="43.05377" lon="-0.36782">
        <ele>995.1</ele>
        <time>2026-02-07T10:03:36.000Z</time>
      </trkpt>
      <trkpt lat="43.05379" lon="-0.3678">
        <ele>995.4</ele>
        <time>2026-02-07T10:03:39.000Z</time>
      </trkpt>
      <trkpt lat="43.05382" lon="-0.36779">
        <ele>995.8</ele>
        <time>2026-02-07T10:03:42.000Z</time>
      </trkpt>
      <trkpt lat="43.05384" lon="-0.3678">
        <ele>996.2</ele>
        <time>2026-02-07T10:03:45.000Z</time>
      </trkpt>
      <trkpt lat="43.05386" lon="-0.36782">
        <ele>996.6</ele>
        <time>2026-02-07T10:03:48.000Z</time>
      </trkpt>
      <trkpt lat="43.05388" lon="-0.36782">
        <ele>997.1</ele>
        <time>2026-02-07T10:03:51.000Z</time>
      </trkpt>
      <trkpt lat="43.0539" lon="-0.3678">
        <ele>997.5</ele>
        <time>2026-02-07T10:03:54.000Z</time>
      </trkpt>
      <trkpt lat="43.05392" lon="-0.36779">
        <ele>998</ele>
        <time>2026-02-07T10:03:57.000Z</time>
      </trkpt>
      <trkpt lat="43.05394" lon="-0.36778">
        <ele>998.5</ele>
        <time>2026-02-07T10:04:00.000Z</time>
      </trkpt>
      <trkpt lat="43.05397" lon="-0.36777">
        <ele>998.8</ele>
        <time>2026-02-07T10:04:03.000Z</time>
      </trkpt>
      <trkpt lat="43.05398" lon="-0.36775">
        <ele>999.2</ele>
        <time>2026-02-07T10:04:06.000Z</time>
      </trkpt>
      <trkpt lat="43.054" lon="-0.36774">
        <ele>999.6</ele>
        <time>2026-02-07T10:04:09.000Z</time>
      </trkpt>
      <trkpt lat="43.05402" lon="-0.36773">
        <ele>1000</ele>
        <time>2026-02-07T10:04:12.000Z</time>
      </trkpt>
      <trkpt lat="43.05403" lon="-0.36771">
        <ele>1000.5</ele>
        <time>2026-02-07T10:04:15.000Z</time>
      </trkpt>
      <trkpt lat="43.05405" lon="-0.3677">
        <ele>1000.9</ele>
        <time>2026-02-07T10:04:18.000Z</time>
      </trkpt>
      <trkpt lat="43.05407" lon="-0.36771">
        <ele>1001.3</ele>
        <time>2026-02-07T10:04:21.000Z</time>
      </trkpt>
      <trkpt lat="43.05409" lon="-0.36772">
        <ele>1001.7</ele>
        <time>2026-02-07T10:04:24.000Z</time>
      </trkpt>
      <trkpt lat="43.05411" lon="-0.36774">
        <ele>1002</ele>
        <time>2026-02-07T10:04:27.000Z</time>
      </trkpt>
      <trkpt lat="43.05413" lon="-0.36775">
        <ele>1002.4</ele>
        <time>2026-02-07T10:04:30.000Z</time>
      </trkpt>
      <trkpt lat="43.05414" lon="-0.36776">
        <ele>1002.9</ele>
        <time>2026-02-07T10:04:33.000Z</time>
      </trkpt>
      <trkpt lat="43.05416" lon="-0.36776">
        <ele>1003.3</ele>
        <time>2026-02-07T10:04:36.000Z</time>
      </trkpt>
      <trkpt lat="43.05418" lon="-0.36777">
        <ele>1003.7</ele>
        <time>2026-02-07T10:04:39.000Z</time>
      </trkpt>
      <trkpt lat="43.0542" lon="-0.36776">
        <ele>1004.1</ele>
        <time>2026-02-07T10:04:42.000Z</time>
      </trkpt>
      <trkpt lat="43.05423" lon="-0.36776">
        <ele>1004.5</ele>
        <time>2026-02-07T10:04:45.000Z</time>
      </trkpt>
      <trkpt lat="43.05424" lon="-0.36775">
        <ele>1005</ele>
        <time>2026-02-07T10:04:48.000Z</time>
      </trkpt>
      <trkpt lat="43.05426" lon="-0.36774">
        <ele>1005.4</ele>
        <time>2026-02-07T10:04:51.000Z</time>
      </trkpt>
      <trkpt lat="43.05427" lon="-0.36773">
        <ele>1005.9</ele>
        <time>2026-02-07T10:04:54.000Z</time>
      </trkpt>
      <trkpt lat="43.05429" lon="-0.36771">
        <ele>1006.3</ele>
        <time>2026-02-07T10:04:57.000Z</time>
      </trkpt>
      <trkpt lat="43.0543" lon="-0.36769">
        <ele>1006.8</ele>
        <time>2026-02-07T10:05:00.000Z</time>
      </trkpt>
      <trkpt lat="43.05431" lon="-0.36767">
        <ele>1007.1</ele>
        <time>2026-02-07T10:05:03.000Z</time>
      </trkpt>
      <trkpt lat="43.0543" lon="-0.36765">
        <ele>1007.3</ele>
        <time>2026-02-07T10:05:06.000Z</time>
      </trkpt>
      <trkpt lat="43.05429" lon="-0.36764">
        <ele>1007.6</ele>
        <time>2026-02-07T10:05:09.000Z</time>
      </trkpt>
      <trkpt lat="43.05427" lon="-0.36763">
        <ele>1007.9</ele>
        <time>2026-02-07T10:05:12.000Z</time>
      </trkpt>
      <trkpt lat="43.05425" lon="-0.36763">
        <ele>1008.3</ele>
        <time>2026-02-07T10:05:15.000Z</time>
      </trkpt>
      <trkpt lat="43.05423" lon="-0.36762">
        <ele>1008.7</ele>
        <time>2026-02-07T10:05:18.000Z</time>
      </trkpt>
      <trkpt lat="43.05421" lon="-0.36761">
        <ele>1009</ele>
        <time>2026-02-07T10:05:21.000Z</time>
      </trkpt>
      <trkpt lat="43.05419" lon="-0.36761">
        <ele>1009.3</ele>
        <time>2026-02-07T10:05:24.000Z</time>
      </trkpt>
      <trkpt lat="43.05416" lon="-0.3676">
        <ele>1009.6</ele>
        <time>2026-02-07T10:05:27.000Z</time>
      </trkpt>
      <trkpt lat="43.05415" lon="-0.36759">
        <ele>1009.9</ele>
        <time>2026-02-07T10:05:30.000Z</time>
      </trkpt>
      <trkpt lat="43.05413" lon="-0.36759">
        <ele>1010.2</ele>
        <time>2026-02-07T10:05:33.000Z</time>
      </trkpt>
      <trkpt lat="43.05411" lon="-0.36759">
        <ele>1010.5</ele>
        <time>2026-02-07T10:05:36.000Z</time>
      </trkpt>
      <trkpt lat="43.05409" lon="-0.36758">
        <ele>1010.9</ele>
        <time>2026-02-07T10:05:39.000Z</time>
      </trkpt>
      <trkpt lat="43.05407" lon="-0.36758">
        <ele>1011.1</ele>
        <time>2026-02-07T10:05:42.000Z</time>
      </trkpt>
      <trkpt lat="43.05405" lon="-0.36756">
        <ele>1011.6</ele>
        <time>2026-02-07T10:05:45.000Z</time>
      </trkpt>
      <trkpt lat="43.05403" lon="-0.36756">
        <ele>1012</ele>
        <time>2026-02-07T10:05:48.000Z</time>
      </trkpt>
      <trkpt lat="43.05401" lon="-0.36755">
        <ele>1012.4</ele>
        <time>2026-02-07T10:05:51.000Z</time>
      </trkpt>
      <trkpt lat="43.054" lon="-0.36753">
        <ele>1012.9</ele>
        <time>2026-02-07T10:05:54.000Z</time>
      </trkpt>
      <trkpt lat="43.05398" lon="-0.36752">
        <ele>1013.3</ele>
        <time>2026-02-07T10:05:57.000Z</time>
      </trkpt>
      <trkpt lat="43.05396" lon="-0.3675">
        <ele>1013.6</ele>
        <time>2026-02-07T10:06:00.000Z</time>
      </trkpt>
      <trkpt lat="43.05394" lon="-0.36748">
        <ele>1014</ele>
        <time>2026-02-07T10:06:03.000Z</time>
      </trkpt>
      <trkpt lat="43.05392" lon="-0.36747">
        <ele>1014.4</ele>
        <time>2026-02-07T10:06:06.000Z</time>
      </trkpt>
      <trkpt lat="43.0539" lon="-0.36746">
        <ele>1014.7</ele>
        <time>2026-02-07T10:06:09.000Z</time>
      </trkpt>
      <trkpt lat="43.05388" lon="-0.36745">
        <ele>1015</ele>
        <time>2026-02-07T10:06:12.000Z</time>
      </trkpt>
      <trkpt lat="43.05386" lon="-0.36745">
        <ele>1015.3</ele>
        <time>2026-02-07T10:06:15.000Z</time>
      </trkpt>
      <trkpt lat="43.05383" lon="-0.36744">
        <ele>1015.5</ele>
        <time>2026-02-07T10:06:18.000Z</time>
      </trkpt>
      <trkpt lat="43.05381" lon="-0.36744">
        <ele>1015.7</ele>
        <time>2026-02-07T10:06:21.000Z</time>
      </trkpt>
      <trkpt lat="43.05379" lon="-0.36743">
        <ele>1015.9</ele>
        <time>2026-02-07T10:06:24.000Z</time>
      </trkpt>
      <trkpt lat="43.05376" lon="-0.36742">
        <ele>1016.1</ele>
        <time>2026-02-07T10:06:27.000Z</time>
      </trkpt>
      <trkpt lat="43.05374" lon="-0.36741">
        <ele>1016.4</ele>
        <time>2026-02-07T10:06:30.000Z</time>
      </trkpt>
      <trkpt lat="43.05372" lon="-0.3674">
        <ele>1016.7</ele>
        <time>2026-02-07T10:06:33.000Z</time>
      </trkpt>
      <trkpt lat="43.05369" lon="-0.3674">
        <ele>1017.1</ele>
        <time>2026-02-07T10:06:36.000Z</time>
      </trkpt>
      <trkpt lat="43.05367" lon="-0.36738">
        <ele>1017.5</ele>
        <time>2026-02-07T10:06:39.000Z</time>
      </trkpt>
      <trkpt lat="43.05365" lon="-0.36736">
        <ele>1018</ele>
        <time>2026-02-07T10:06:42.000Z</time>
      </trkpt>
      <trkpt lat="43.05363" lon="-0.36734">
        <ele>1018.4</ele>
        <time>2026-02-07T10:06:45.000Z</time>
      </trkpt>
      <trkpt lat="43.05361" lon="-0.36732">
        <ele>1018.8</ele>
        <time>2026-02-07T10:06:48.000Z</time>
      </trkpt>
      <trkpt lat="43.05359" lon="-0.36732">
        <ele>1019.2</ele>
        <time>2026-02-07T10:06:51.000Z</time>
      </trkpt>
      <trkpt lat="43.05357" lon="-0.36731">
        <ele>1019.5</ele>
        <time>2026-02-07T10:06:54.000Z</time>
      </trkpt>
      <trkpt lat="43.05354" lon="-0.3673">
        <ele>1019.9</ele>
        <time>2026-02-07T10:06:57.000Z</time>
      </trkpt>
      <trkpt lat="43.05352" lon="-0.3673">
        <ele>1020.2</ele>
        <time>2026-02-07T10:07:00.000Z</time>
      </trkpt>
      <trkpt lat="43.0535" lon="-0.3673">
        <ele>1020.5</ele>
        <time>2026-02-07T10:07:03.000Z</time>
      </trkpt>
      <trkpt lat="43.05347" lon="-0.3673">
        <ele>1020.9</ele>
        <time>2026-02-07T10:07:06.000Z</time>
      </trkpt>
      <trkpt lat="43.05345" lon="-0.3673">
        <ele>1021.3</ele>
        <time>2026-02-07T10:07:09.000Z</time>
      </trkpt>
      <trkpt lat="43.05343" lon="-0.36731">
        <ele>1021.6</ele>
        <time>2026-02-07T10:07:12.000Z</time>
      </trkpt>
      <trkpt lat="43.05341" lon="-0.36731">
        <ele>1021.9</ele>
        <time>2026-02-07T10:07:15.000Z</time>
      </trkpt>
      <trkpt lat="43.05339" lon="-0.36729">
        <ele>1022.2</ele>
        <time>2026-02-07T10:07:18.000Z</time>
      </trkpt>
      <trkpt lat="43.05337" lon="-0.36728">
        <ele>1022.7</ele>
        <time>2026-02-07T10:07:21.000Z</time>
      </trkpt>
      <trkpt lat="43.05335" lon="-0.36727">
        <ele>1023.2</ele>
        <time>2026-02-07T10:07:24.000Z</time>
      </trkpt>
      <trkpt lat="43.05333" lon="-0.36726">
        <ele>1023.8</ele>
        <time>2026-02-07T10:07:27.000Z</time>
      </trkpt>
      <trkpt lat="43.05331" lon="-0.36725">
        <ele>1024.2</ele>
        <time>2026-02-07T10:07:30.000Z</time>
      </trkpt>
      <trkpt lat="43.05329" lon="-0.36725">
        <ele>1024.6</ele>
        <time>2026-02-07T10:07:33.000Z</time>
      </trkpt>
      <trkpt lat="43.05326" lon="-0.36724">
        <ele>1024.9</ele>
        <time>2026-02-07T10:07:36.000Z</time>
      </trkpt>
      <trkpt lat="43.05323" lon="-0.36724">
        <ele>1025.3</ele>
        <time>2026-02-07T10:07:39.000Z</time>
      </trkpt>
      <trkpt lat="43.05321" lon="-0.36724">
        <ele>1025.6</ele>
        <time>2026-02-07T10:07:42.000Z</time>
      </trkpt>
      <trkpt lat="43.05318" lon="-0.36724">
        <ele>1025.9</ele>
        <time>2026-02-07T10:07:45.000Z</time>
      </trkpt>
      <trkpt lat="43.05315" lon="-0.36723">
        <ele>1026.4</ele>
        <time>2026-02-07T10:07:48.000Z</time>
      </trkpt>
      <trkpt lat="43.05312" lon="-0.36724">
        <ele>1026.9</ele>
        <time>2026-02-07T10:07:51.000Z</time>
      </trkpt>
      <trkpt lat="43.05309" lon="-0.36724">
        <ele>1027.2</ele>
        <time>2026-02-07T10:07:54.000Z</time>
      </trkpt>
      <trkpt lat="43.05307" lon="-0.36725">
        <ele>1027.7</ele>
        <time>2026-02-07T10:07:57.000Z</time>
      </trkpt>
      <trkpt lat="43.05305" lon="-0.36724">
        <ele>1028.2</ele>
        <time>2026-02-07T10:08:00.000Z</time>
      </trkpt>
      <trkpt lat="43.05303" lon="-0.36724">
        <ele>1028.5</ele>
        <time>2026-02-07T10:08:03.000Z</time>
      </trkpt>
      <trkpt lat="43.05303" lon="-0.36724">
        <ele>1028.5</ele>
        <time>2026-02-07T10:08:06.000Z</time>
      </trkpt>
      <trkpt lat="43.05303" lon="-0.36724">
        <ele>1028.5</ele>
        <time>2026-02-07T10:08:07.000Z</time>
      </trkpt>
      <trkpt lat="43.05303" lon="-0.36724">
        <ele>1028.5</ele>
        <time>2026-02-07T10:08:08.000Z</time>
      </trkpt>
      <trkpt lat="43.05303" lon="-0.36723">
        <ele>1028.5</ele>
        <time>2026-02-07T10:08:09.000Z</time>
      </trkpt>
      <trkpt lat="43.05303" lon="-0.36723">
        <ele>1028.5</ele>
        <time>2026-02-07T10:08:10.000Z</time>
      </trkpt>
      <trkpt lat="43.05303" lon="-0.36723">
        <ele>1028.5</ele>
        <time>2026-02-07T10:08:11.000Z</time>
      </trkpt>
      <trkpt lat="43.05303" lon="-0.36723">
        <ele>1028.5</ele>
        <time>2026-02-07T10:08:12.000Z</time>
      </trkpt>
      <trkpt lat="43.05303" lon="-0.36723">
        <ele>1028.4</ele>
        <time>2026-02-07T10:08:13.000Z</time>
      </trkpt>
      <trkpt lat="43.05303" lon="-0.36723">
        <ele>1028.4</ele>
        <time>2026-02-07T10:08:14.000Z</time>
      </trkpt>
      <trkpt lat="43.05302" lon="-0.36723">
        <ele>1028.4</ele>
        <time>2026-02-07T10:08:17.000Z</time>
      </trkpt>
      <trkpt lat="43.05301" lon="-0.36723">
        <ele>1028.4</ele>
        <time>2026-02-07T10:08:18.000Z</time>
      </trkpt>
      <trkpt lat="43.05298" lon="-0.36722">
        <ele>1028.4</ele>
        <time>2026-02-07T10:08:21.000Z</time>
      </trkpt>
      <trkpt lat="43.05295" lon="-0.36721">
        <ele>1028.5</ele>
        <time>2026-02-07T10:08:24.000Z</time>
      </trkpt>
      <trkpt lat="43.05292" lon="-0.3672">
        <ele>1028.7</ele>
        <time>2026-02-07T10:08:27.000Z</time>
      </trkpt>
      <trkpt lat="43.05289" lon="-0.36719">
        <ele>1028.8</ele>
        <time>2026-02-07T10:08:30.000Z</time>
      </trkpt>
      <trkpt lat="43.05286" lon="-0.36717">
        <ele>1029</ele>
        <time>2026-02-07T10:08:33.000Z</time>
      </trkpt>
      <trkpt lat="43.05283" lon="-0.36715">
        <ele>1029.2</ele>
        <time>2026-02-07T10:08:36.000Z</time>
      </trkpt>
      <trkpt lat="43.0528" lon="-0.36713">
        <ele>1029.4</ele>
        <time>2026-02-07T10:08:39.000Z</time>
      </trkpt>
      <trkpt lat="43.05278" lon="-0.3671">
        <ele>1029.6</ele>
        <time>2026-02-07T10:08:42.000Z</time>
      </trkpt>
      <trkpt lat="43.05275" lon="-0.36707">
        <ele>1029.7</ele>
        <time>2026-02-07T10:08:45.000Z</time>
      </trkpt>
      <trkpt lat="43.05271" lon="-0.36705">
        <ele>1029.8</ele>
        <time>2026-02-07T10:08:48.000Z</time>
      </trkpt>
      <trkpt lat="43.05268" lon="-0.36703">
        <ele>1029.8</ele>
        <time>2026-02-07T10:08:51.000Z</time>
      </trkpt>
      <trkpt lat="43.05265" lon="-0.36701">
        <ele>1029.7</ele>
        <time>2026-02-07T10:08:54.000Z</time>
      </trkpt>
      <trkpt lat="43.05261" lon="-0.367">
        <ele>1029.7</ele>
        <time>2026-02-07T10:08:57.000Z</time>
      </trkpt>
      <trkpt lat="43.05257" lon="-0.367">
        <ele>1029.7</ele>
        <time>2026-02-07T10:09:00.000Z</time>
      </trkpt>
      <trkpt lat="43.05254" lon="-0.367">
        <ele>1029.8</ele>
        <time>2026-02-07T10:09:03.000Z</time>
      </trkpt>
      <trkpt lat="43.0525" lon="-0.36701">
        <ele>1029.9</ele>
        <time>2026-02-07T10:09:06.000Z</time>
      </trkpt>
      <trkpt lat="43.05246" lon="-0.36701">
        <ele>1029.9</ele>
        <time>2026-02-07T10:09:09.000Z</time>
      </trkpt>
      <trkpt lat="43.05243" lon="-0.36702">
        <ele>1030</ele>
        <time>2026-02-07T10:09:12.000Z</time>
      </trkpt>
      <trkpt lat="43.05239" lon="-0.36703">
        <ele>1030</ele>
        <time>2026-02-07T10:09:15.000Z</time>
      </trkpt>
      <trkpt lat="43.05236" lon="-0.36703">
        <ele>1030.1</ele>
        <time>2026-02-07T10:09:18.000Z</time>
      </trkpt>
      <trkpt lat="43.05233" lon="-0.36703">
        <ele>1030.1</ele>
        <time>2026-02-07T10:09:21.000Z</time>
      </trkpt>
      <trkpt lat="43.0523" lon="-0.36704">
        <ele>1030.2</ele>
        <time>2026-02-07T10:09:24.000Z</time>
      </trkpt>
      <trkpt lat="43.05226" lon="-0.36705">
        <ele>1030.3</ele>
        <time>2026-02-07T10:09:27.000Z</time>
      </trkpt>
      <trkpt lat="43.05224" lon="-0.36705">
        <ele>1030.4</ele>
        <time>2026-02-07T10:09:30.000Z</time>
      </trkpt>
      <trkpt lat="43.05221" lon="-0.36705">
        <ele>1030.5</ele>
        <time>2026-02-07T10:09:33.000Z</time>
      </trkpt>
      <trkpt lat="43.05218" lon="-0.36705">
        <ele>1030.6</ele>
        <time>2026-02-07T10:09:36.000Z</time>
      </trkpt>
      <trkpt lat="43.05215" lon="-0.36705">
        <ele>1030.8</ele>
        <time>2026-02-07T10:09:39.000Z</time>
      </trkpt>
      <trkpt lat="43.05212" lon="-0.36706">
        <ele>1031</ele>
        <time>2026-02-07T10:09:42.000Z</time>
      </trkpt>
      <trkpt lat="43.05209" lon="-0.36705">
        <ele>1031.1</ele>
        <time>2026-02-07T10:09:45.000Z</time>
      </trkpt>
      <trkpt lat="43.05206" lon="-0.36705">
        <ele>1031.3</ele>
        <time>2026-02-07T10:09:48.000Z</time>
      </trkpt>
      <trkpt lat="43.05203" lon="-0.36706">
        <ele>1031.5</ele>
        <time>2026-02-07T10:09:51.000Z</time>
      </trkpt>
      <trkpt lat="43.05201" lon="-0.36706">
        <ele>1031.8</ele>
        <time>2026-02-07T10:09:54.000Z</time>
      </trkpt>
      <trkpt lat="43.05199" lon="-0.36707">
        <ele>1032.1</ele>
        <time>2026-02-07T10:09:57.000Z</time>
      </trkpt>
      <trkpt lat="43.05196" lon="-0.36708">
        <ele>1032.5</ele>
        <time>2026-02-07T10:10:00.000Z</time>
      </trkpt>
      <trkpt lat="43.05194" lon="-0.36709">
        <ele>1033.3</ele>
        <time>2026-02-07T10:10:03.000Z</time>
      </trkpt>
      <trkpt lat="43.05191" lon="-0.36709">
        <ele>1034.4</ele>
        <time>2026-02-07T10:10:06.000Z</time>
      </trkpt>
      <trkpt lat="43.05189" lon="-0.36709">
        <ele>1035.2</ele>
        <time>2026-02-07T10:10:09.000Z</time>
      </trkpt>
      <trkpt lat="43.05186" lon="-0.36709">
        <ele>1035.7</ele>
        <time>2026-02-07T10:10:12.000Z</time>
      </trkpt>
      <trkpt lat="43.05184" lon="-0.36709">
        <ele>1036</ele>
        <time>2026-02-07T10:10:15.000Z</time>
      </trkpt>
      <trkpt lat="43.05181" lon="-0.3671">
        <ele>1036.4</ele>
        <time>2026-02-07T10:10:18.000Z</time>
      </trkpt>
      <trkpt lat="43.05178" lon="-0.3671">
        <ele>1036.6</ele>
        <time>2026-02-07T10:10:21.000Z</time>
      </trkpt>
      <trkpt lat="43.05176" lon="-0.36711">
        <ele>1036.9</ele>
        <time>2026-02-07T10:10:24.000Z</time>
      </trkpt>
      <trkpt lat="43.05173" lon="-0.36711">
        <ele>1037.3</ele>
        <time>2026-02-07T10:10:27.000Z</time>
      </trkpt>
      <trkpt lat="43.05171" lon="-0.36711">
        <ele>1037.6</ele>
        <time>2026-02-07T10:10:30.000Z</time>
      </trkpt>
      <trkpt lat="43.05169" lon="-0.36711">
        <ele>1038.1</ele>
        <time>2026-02-07T10:10:33.000Z</time>
      </trkpt>
      <trkpt lat="43.05166" lon="-0.36712">
        <ele>1038.6</ele>
        <time>2026-02-07T10:10:36.000Z</time>
      </trkpt>
      <trkpt lat="43.05163" lon="-0.36712">
        <ele>1039.1</ele>
        <time>2026-02-07T10:10:39.000Z</time>
      </trkpt>
      <trkpt lat="43.05161" lon="-0.36712">
        <ele>1039.7</ele>
        <time>2026-02-07T10:10:42.000Z</time>
      </trkpt>
      <trkpt lat="43.05159" lon="-0.36711">
        <ele>1040.1</ele>
        <time>2026-02-07T10:10:45.000Z</time>
      </trkpt>
      <trkpt lat="43.05156" lon="-0.36711">
        <ele>1040.5</ele>
        <time>2026-02-07T10:10:48.000Z</time>
      </trkpt>
      <trkpt lat="43.05154" lon="-0.36709">
        <ele>1040.9</ele>
        <time>2026-02-07T10:10:51.000Z</time>
      </trkpt>
      <trkpt lat="43.05151" lon="-0.36708">
        <ele>1041.4</ele>
        <time>2026-02-07T10:10:54.000Z</time>
      </trkpt>
      <trkpt lat="43.05149" lon="-0.36708">
        <ele>1041.9</ele>
        <time>2026-02-07T10:10:57.000Z</time>
      </trkpt>
      <trkpt lat="43.05147" lon="-0.36706">
        <ele>1042.3</ele>
        <time>2026-02-07T10:11:00.000Z</time>
      </trkpt>
      <trkpt lat="43.05145" lon="-0.36704">
        <ele>1042.7</ele>
        <time>2026-02-07T10:11:03.000Z</time>
      </trkpt>
      <trkpt lat="43.05142" lon="-0.36702">
        <ele>1043.2</ele>
        <time>2026-02-07T10:11:06.000Z</time>
      </trkpt>
      <trkpt lat="43.0514" lon="-0.367">
        <ele>1043.4</ele>
        <time>2026-02-07T10:11:09.000Z</time>
      </trkpt>
      <trkpt lat="43.05138" lon="-0.36698">
        <ele>1043.7</ele>
        <time>2026-02-07T10:11:12.000Z</time>
      </trkpt>
      <trkpt lat="43.05135" lon="-0.36696">
        <ele>1044</ele>
        <time>2026-02-07T10:11:15.000Z</time>
      </trkpt>
      <trkpt lat="43.05133" lon="-0.36694">
        <ele>1044.2</ele>
        <time>2026-02-07T10:11:18.000Z</time>
      </trkpt>
      <trkpt lat="43.05131" lon="-0.36693">
        <ele>1044.4</ele>
        <time>2026-02-07T10:11:21.000Z</time>
      </trkpt>
      <trkpt lat="43.05129" lon="-0.36692">
        <ele>1044.5</ele>
        <time>2026-02-07T10:11:24.000Z</time>
      </trkpt>
      <trkpt lat="43.05126" lon="-0.36691">
        <ele>1044.6</ele>
        <time>2026-02-07T10:11:27.000Z</time>
      </trkpt>
      <trkpt lat="43.05124" lon="-0.3669">
        <ele>1044.7</ele>
        <time>2026-02-07T10:11:30.000Z</time>
      </trkpt>
      <trkpt lat="43.05121" lon="-0.36689">
        <ele>1044.9</ele>
        <time>2026-02-07T10:11:33.000Z</time>
      </trkpt>
      <trkpt lat="43.05118" lon="-0.36689">
        <ele>1045.1</ele>
        <time>2026-02-07T10:11:36.000Z</time>
      </trkpt>
      <trkpt lat="43.05115" lon="-0.36689">
        <ele>1045.3</ele>
        <time>2026-02-07T10:11:39.000Z</time>
      </trkpt>
      <trkpt lat="43.05112" lon="-0.36688">
        <ele>1045.6</ele>
        <time>2026-02-07T10:11:42.000Z</time>
      </trkpt>
      <trkpt lat="43.05109" lon="-0.36688">
        <ele>1045.8</ele>
        <time>2026-02-07T10:11:45.000Z</time>
      </trkpt>
      <trkpt lat="43.05105" lon="-0.3669">
        <ele>1046</ele>
        <time>2026-02-07T10:11:48.000Z</time>
      </trkpt>
      <trkpt lat="43.05102" lon="-0.36691">
        <ele>1046.2</ele>
        <time>2026-02-07T10:11:51.000Z</time>
      </trkpt>
      <trkpt lat="43.05099" lon="-0.36692">
        <ele>1046.4</ele>
        <time>2026-02-07T10:11:54.000Z</time>
      </trkpt>
      <trkpt lat="43.05096" lon="-0.36692">
        <ele>1046.6</ele>
        <time>2026-02-07T10:11:57.000Z</time>
      </trkpt>
      <trkpt lat="43.05093" lon="-0.36693">
        <ele>1046.8</ele>
        <time>2026-02-07T10:12:00.000Z</time>
      </trkpt>
      <trkpt lat="43.0509" lon="-0.36695">
        <ele>1047</ele>
        <time>2026-02-07T10:12:03.000Z</time>
      </trkpt>
      <trkpt lat="43.05087" lon="-0.36697">
        <ele>1047.2</ele>
        <time>2026-02-07T10:12:06.000Z</time>
      </trkpt>
      <trkpt lat="43.05084" lon="-0.36697">
        <ele>1047.3</ele>
        <time>2026-02-07T10:12:09.000Z</time>
      </trkpt>
      <trkpt lat="43.05081" lon="-0.36698">
        <ele>1047.4</ele>
        <time>2026-02-07T10:12:12.000Z</time>
      </trkpt>
      <trkpt lat="43.05078" lon="-0.36699">
        <ele>1047.5</ele>
        <time>2026-02-07T10:12:15.000Z</time>
      </trkpt>
      <trkpt lat="43.05074" lon="-0.36699">
        <ele>1047.6</ele>
        <time>2026-02-07T10:12:18.000Z</time>
      </trkpt>
      <trkpt lat="43.05071" lon="-0.36699">
        <ele>1047.7</ele>
        <time>2026-02-07T10:12:21.000Z</time>
      </trkpt>
      <trkpt lat="43.05068" lon="-0.367">
        <ele>1047.8</ele>
        <time>2026-02-07T10:12:24.000Z</time>
      </trkpt>
      <trkpt lat="43.05066" lon="-0.367">
        <ele>1048</ele>
        <time>2026-02-07T10:12:27.000Z</time>
      </trkpt>
      <trkpt lat="43.05063" lon="-0.36699">
        <ele>1048.1</ele>
        <time>2026-02-07T10:12:30.000Z</time>
      </trkpt>
      <trkpt lat="43.0506" lon="-0.36699">
        <ele>1048.3</ele>
        <time>2026-02-07T10:12:33.000Z</time>
      </trkpt>
      <trkpt lat="43.05057" lon="-0.36698">
        <ele>1048.5</ele>
        <time>2026-02-07T10:12:36.000Z</time>
      </trkpt>
      <trkpt lat="43.05054" lon="-0.36697">
        <ele>1048.8</ele>
        <time>2026-02-07T10:12:39.000Z</time>
      </trkpt>
      <trkpt lat="43.05051" lon="-0.36695">
        <ele>1049</ele>
        <time>2026-02-07T10:12:42.000Z</time>
      </trkpt>
      <trkpt lat="43.05048" lon="-0.36694">
        <ele>1049.4</ele>
        <time>2026-02-07T10:12:45.000Z</time>
      </trkpt>
      <trkpt lat="43.05045" lon="-0.36692">
        <ele>1049.6</ele>
        <time>2026-02-07T10:12:48.000Z</time>
      </trkpt>
      <trkpt lat="43.05041" lon="-0.36691">
        <ele>1049.8</ele>
        <time>2026-02-07T10:12:51.000Z</time>
      </trkpt>
      <trkpt lat="43.05037" lon="-0.36691">
        <ele>1050</ele>
        <time>2026-02-07T10:12:54.000Z</time>
      </trkpt>
      <trkpt lat="43.05034" lon="-0.36689">
        <ele>1050.1</ele>
        <time>2026-02-07T10:12:57.000Z</time>
      </trkpt>
      <trkpt lat="43.05031" lon="-0.36687">
        <ele>1050.3</ele>
        <time>2026-02-07T10:13:00.000Z</time>
      </trkpt>
      <trkpt lat="43.05029" lon="-0.36684">
        <ele>1050.4</ele>
        <time>2026-02-07T10:13:03.000Z</time>
      </trkpt>
      <trkpt lat="43.05026" lon="-0.36682">
        <ele>1050.6</ele>
        <time>2026-02-07T10:13:06.000Z</time>
      </trkpt>
      <trkpt lat="43.05024" lon="-0.3668">
        <ele>1050.8</ele>
        <time>2026-02-07T10:13:09.000Z</time>
      </trkpt>
      <trkpt lat="43.05022" lon="-0.36679">
        <ele>1050.9</ele>
        <time>2026-02-07T10:13:12.000Z</time>
      </trkpt>
      <trkpt lat="43.05019" lon="-0.36677">
        <ele>1051.1</ele>
        <time>2026-02-07T10:13:15.000Z</time>
      </trkpt>
      <trkpt lat="43.05016" lon="-0.36676">
        <ele>1051.4</ele>
        <time>2026-02-07T10:13:18.000Z</time>
      </trkpt>
      <trkpt lat="43.05013" lon="-0.36675">
        <ele>1051.7</ele>
        <time>2026-02-07T10:13:21.000Z</time>
      </trkpt>
      <trkpt lat="43.05011" lon="-0.36673">
        <ele>1052.1</ele>
        <time>2026-02-07T10:13:24.000Z</time>
      </trkpt>
      <trkpt lat="43.05008" lon="-0.36671">
        <ele>1052.5</ele>
        <time>2026-02-07T10:13:27.000Z</time>
      </trkpt>
      <trkpt lat="43.05006" lon="-0.36669">
        <ele>1052.9</ele>
        <time>2026-02-07T10:13:30.000Z</time>
      </trkpt>
      <trkpt lat="43.05003" lon="-0.36668">
        <ele>1053.2</ele>
        <time>2026-02-07T10:13:33.000Z</time>
      </trkpt>
      <trkpt lat="43.05001" lon="-0.36667">
        <ele>1053.5</ele>
        <time>2026-02-07T10:13:36.000Z</time>
      </trkpt>
      <trkpt lat="43.04999" lon="-0.36666">
        <ele>1053.8</ele>
        <time>2026-02-07T10:13:39.000Z</time>
      </trkpt>
      <trkpt lat="43.04996" lon="-0.36665">
        <ele>1054.1</ele>
        <time>2026-02-07T10:13:42.000Z</time>
      </trkpt>
      <trkpt lat="43.04993" lon="-0.36664">
        <ele>1054.5</ele>
        <time>2026-02-07T10:13:45.000Z</time>
      </trkpt>
      <trkpt lat="43.04991" lon="-0.36664">
        <ele>1054.8</ele>
        <time>2026-02-07T10:13:48.000Z</time>
      </trkpt>
      <trkpt lat="43.04989" lon="-0.36665">
        <ele>1055</ele>
        <time>2026-02-07T10:13:51.000Z</time>
      </trkpt>
      <trkpt lat="43.04987" lon="-0.36666">
        <ele>1055.3</ele>
        <time>2026-02-07T10:13:54.000Z</time>
      </trkpt>
      <trkpt lat="43.04984" lon="-0.36667">
        <ele>1055.5</ele>
        <time>2026-02-07T10:13:57.000Z</time>
      </trkpt>
      <trkpt lat="43.04982" lon="-0.36668">
        <ele>1055.8</ele>
        <time>2026-02-07T10:14:00.000Z</time>
      </trkpt>
      <trkpt lat="43.04979" lon="-0.36668">
        <ele>1055.9</ele>
        <time>2026-02-07T10:14:03.000Z</time>
      </trkpt>
      <trkpt lat="43.04977" lon="-0.36668">
        <ele>1056.1</ele>
        <time>2026-02-07T10:14:06.000Z</time>
      </trkpt>
      <trkpt lat="43.04975" lon="-0.36667">
        <ele>1056.4</ele>
        <time>2026-02-07T10:14:09.000Z</time>
      </trkpt>
      <trkpt lat="43.04972" lon="-0.36665">
        <ele>1056.5</ele>
        <time>2026-02-07T10:14:12.000Z</time>
      </trkpt>
      <trkpt lat="43.0497" lon="-0.36664">
        <ele>1056.6</ele>
        <time>2026-02-07T10:14:15.000Z</time>
      </trkpt>
      <trkpt lat="43.04967" lon="-0.36663">
        <ele>1056.7</ele>
        <time>2026-02-07T10:14:18.000Z</time>
      </trkpt>
      <trkpt lat="43.04965" lon="-0.36661">
        <ele>1056.9</ele>
        <time>2026-02-07T10:14:21.000Z</time>
      </trkpt>
      <trkpt lat="43.04962" lon="-0.36661">
        <ele>1057</ele>
        <time>2026-02-07T10:14:24.000Z</time>
      </trkpt>
      <trkpt lat="43.0496" lon="-0.36659">
        <ele>1057.2</ele>
        <time>2026-02-07T10:14:27.000Z</time>
      </trkpt>
      <trkpt lat="43.04957" lon="-0.36658">
        <ele>1057.4</ele>
        <time>2026-02-07T10:14:30.000Z</time>
      </trkpt>
      <trkpt lat="43.04954" lon="-0.36658">
        <ele>1057.5</ele>
        <time>2026-02-07T10:14:33.000Z</time>
      </trkpt>
      <trkpt lat="43.04951" lon="-0.36658">
        <ele>1057.7</ele>
        <time>2026-02-07T10:14:36.000Z</time>
      </trkpt>
      <trkpt lat="43.04948" lon="-0.36657">
        <ele>1057.9</ele>
        <time>2026-02-07T10:14:39.000Z</time>
      </trkpt>
      <trkpt lat="43.04945" lon="-0.36657">
        <ele>1058.1</ele>
        <time>2026-02-07T10:14:42.000Z</time>
      </trkpt>
      <trkpt lat="43.04942" lon="-0.36656">
        <ele>1058.3</ele>
        <time>2026-02-07T10:14:45.000Z</time>
      </trkpt>
      <trkpt lat="43.04939" lon="-0.36656">
        <ele>1058.6</ele>
        <time>2026-02-07T10:14:48.000Z</time>
      </trkpt>
      <trkpt lat="43.04936" lon="-0.36655">
        <ele>1058.8</ele>
        <time>2026-02-07T10:14:51.000Z</time>
      </trkpt>
      <trkpt lat="43.04934" lon="-0.36654">
        <ele>1059.1</ele>
        <time>2026-02-07T10:14:54.000Z</time>
      </trkpt>
      <trkpt lat="43.04931" lon="-0.36653">
        <ele>1059.3</ele>
        <time>2026-02-07T10:14:57.000Z</time>
      </trkpt>
      <trkpt lat="43.04928" lon="-0.36653">
        <ele>1059.6</ele>
        <time>2026-02-07T10:15:00.000Z</time>
      </trkpt>
      <trkpt lat="43.04926" lon="-0.36652">
        <ele>1059.8</ele>
        <time>2026-02-07T10:15:03.000Z</time>
      </trkpt>
      <trkpt lat="43.04923" lon="-0.36651">
        <ele>1060.1</ele>
        <time>2026-02-07T10:15:06.000Z</time>
      </trkpt>
      <trkpt lat="43.04921" lon="-0.3665">
        <ele>1060.5</ele>
        <time>2026-02-07T10:15:09.000Z</time>
      </trkpt>
      <trkpt lat="43.04918" lon="-0.36649">
        <ele>1060.8</ele>
        <time>2026-02-07T10:15:12.000Z</time>
      </trkpt>
      <trkpt lat="43.04916" lon="-0.36648">
        <ele>1061.1</ele>
        <time>2026-02-07T10:15:15.000Z</time>
      </trkpt>
      <trkpt lat="43.04914" lon="-0.36647">
        <ele>1061.5</ele>
        <time>2026-02-07T10:15:18.000Z</time>
      </trkpt>
      <trkpt lat="43.04911" lon="-0.36647">
        <ele>1061.9</ele>
        <time>2026-02-07T10:15:21.000Z</time>
      </trkpt>
      <trkpt lat="43.04909" lon="-0.36646">
        <ele>1062.2</ele>
        <time>2026-02-07T10:15:24.000Z</time>
      </trkpt>
      <trkpt lat="43.04907" lon="-0.36644">
        <ele>1062.5</ele>
        <time>2026-02-07T10:15:27.000Z</time>
      </trkpt>
      <trkpt lat="43.04904" lon="-0.36643">
        <ele>1062.7</ele>
        <time>2026-02-07T10:15:30.000Z</time>
      </trkpt>
      <trkpt lat="43.04902" lon="-0.36642">
        <ele>1063</ele>
        <time>2026-02-07T10:15:33.000Z</time>
      </trkpt>
      <trkpt lat="43.04899" lon="-0.36641">
        <ele>1063.2</ele>
        <time>2026-02-07T10:15:36.000Z</time>
      </trkpt>
      <trkpt lat="43.04896" lon="-0.3664">
        <ele>1063.5</ele>
        <time>2026-02-07T10:15:39.000Z</time>
      </trkpt>
      <trkpt lat="43.04893" lon="-0.36639">
        <ele>1063.8</ele>
        <time>2026-02-07T10:15:42.000Z</time>
      </trkpt>
      <trkpt lat="43.0489" lon="-0.36638">
        <ele>1064</ele>
        <time>2026-02-07T10:15:45.000Z</time>
      </trkpt>
      <trkpt lat="43.04887" lon="-0.36638">
        <ele>1064.2</ele>
        <time>2026-02-07T10:15:48.000Z</time>
      </trkpt>
      <trkpt lat="43.04884" lon="-0.36638">
        <ele>1064.4</ele>
        <time>2026-02-07T10:15:51.000Z</time>
      </trkpt>
      <trkpt lat="43.04881" lon="-0.36638">
        <ele>1064.7</ele>
        <time>2026-02-07T10:15:54.000Z</time>
      </trkpt>
      <trkpt lat="43.04879" lon="-0.36637">
        <ele>1065</ele>
        <time>2026-02-07T10:15:57.000Z</time>
      </trkpt>
      <trkpt lat="43.04877" lon="-0.36636">
        <ele>1065.4</ele>
        <time>2026-02-07T10:16:00.000Z</time>
      </trkpt>
      <trkpt lat="43.04874" lon="-0.36635">
        <ele>1065.8</ele>
        <time>2026-02-07T10:16:03.000Z</time>
      </trkpt>
      <trkpt lat="43.04872" lon="-0.36634">
        <ele>1066.2</ele>
        <time>2026-02-07T10:16:06.000Z</time>
      </trkpt>
      <trkpt lat="43.04869" lon="-0.36632">
        <ele>1066.6</ele>
        <time>2026-02-07T10:16:09.000Z</time>
      </trkpt>
      <trkpt lat="43.04867" lon="-0.36631">
        <ele>1066.9</ele>
        <time>2026-02-07T10:16:12.000Z</time>
      </trkpt>
      <trkpt lat="43.04865" lon="-0.3663">
        <ele>1067.3</ele>
        <time>2026-02-07T10:16:15.000Z</time>
      </trkpt>
      <trkpt lat="43.04862" lon="-0.36628">
        <ele>1067.6</ele>
        <time>2026-02-07T10:16:18.000Z</time>
      </trkpt>
      <trkpt lat="43.04859" lon="-0.36627">
        <ele>1067.9</ele>
        <time>2026-02-07T10:16:21.000Z</time>
      </trkpt>
      <trkpt lat="43.04857" lon="-0.36625">
        <ele>1068.2</ele>
        <time>2026-02-07T10:16:24.000Z</time>
      </trkpt>
      <trkpt lat="43.04855" lon="-0.36623">
        <ele>1068.5</ele>
        <time>2026-02-07T10:16:27.000Z</time>
      </trkpt>
      <trkpt lat="43.04853" lon="-0.36621">
        <ele>1068.8</ele>
        <time>2026-02-07T10:16:30.000Z</time>
      </trkpt>
      <trkpt lat="43.04851" lon="-0.3662">
        <ele>1069.2</ele>
        <time>2026-02-07T10:16:33.000Z</time>
      </trkpt>
      <trkpt lat="43.04851" lon="-0.3662">
        <ele>1069.6</ele>
        <time>2026-02-07T10:16:36.000Z</time>
      </trkpt>
      <trkpt lat="43.0485" lon="-0.36618">
        <ele>1070</ele>
        <time>2026-02-07T10:16:39.000Z</time>
      </trkpt>
      <trkpt lat="43.04848" lon="-0.36616">
        <ele>1070.3</ele>
        <time>2026-02-07T10:16:42.000Z</time>
      </trkpt>
      <trkpt lat="43.04846" lon="-0.36613">
        <ele>1070.7</ele>
        <time>2026-02-07T10:16:45.000Z</time>
      </trkpt>
      <trkpt lat="43.04843" lon="-0.36612">
        <ele>1071.1</ele>
        <time>2026-02-07T10:16:48.000Z</time>
      </trkpt>
      <trkpt lat="43.0484" lon="-0.3661">
        <ele>1071.4</ele>
        <time>2026-02-07T10:16:51.000Z</time>
      </trkpt>
      <trkpt lat="43.04837" lon="-0.36607">
        <ele>1071.7</ele>
        <time>2026-02-07T10:16:54.000Z</time>
      </trkpt>
      <trkpt lat="43.04835" lon="-0.36605">
        <ele>1072.1</ele>
        <time>2026-02-07T10:16:57.000Z</time>
      </trkpt>
      <trkpt lat="43.04833" lon="-0.36604">
        <ele>1072.5</ele>
        <time>2026-02-07T10:17:00.000Z</time>
      </trkpt>
      <trkpt lat="43.0483" lon="-0.36603">
        <ele>1073</ele>
        <time>2026-02-07T10:17:03.000Z</time>
      </trkpt>
      <trkpt lat="43.04828" lon="-0.36602">
        <ele>1073.5</ele>
        <time>2026-02-07T10:17:06.000Z</time>
      </trkpt>
      <trkpt lat="43.04826" lon="-0.36602">
        <ele>1074</ele>
        <time>2026-02-07T10:17:09.000Z</time>
      </trkpt>
      <trkpt lat="43.04824" lon="-0.36601">
        <ele>1074.5</ele>
        <time>2026-02-07T10:17:12.000Z</time>
      </trkpt>
      <trkpt lat="43.04821" lon="-0.366">
        <ele>1075.1</ele>
        <time>2026-02-07T10:17:15.000Z</time>
      </trkpt>
      <trkpt lat="43.04819" lon="-0.366">
        <ele>1075.6</ele>
        <time>2026-02-07T10:17:18.000Z</time>
      </trkpt>
      <trkpt lat="43.04816" lon="-0.36599">
        <ele>1075.9</ele>
        <time>2026-02-07T10:17:21.000Z</time>
      </trkpt>
      <trkpt lat="43.04814" lon="-0.36598">
        <ele>1076.1</ele>
        <time>2026-02-07T10:17:24.000Z</time>
      </trkpt>
      <trkpt lat="43.04811" lon="-0.36598">
        <ele>1076.3</ele>
        <time>2026-02-07T10:17:27.000Z</time>
      </trkpt>
      <trkpt lat="43.04808" lon="-0.36597">
        <ele>1076.5</ele>
        <time>2026-02-07T10:17:30.000Z</time>
      </trkpt>
      <trkpt lat="43.04806" lon="-0.36596">
        <ele>1076.7</ele>
        <time>2026-02-07T10:17:33.000Z</time>
      </trkpt>
      <trkpt lat="43.04804" lon="-0.36595">
        <ele>1076.9</ele>
        <time>2026-02-07T10:17:36.000Z</time>
      </trkpt>
      <trkpt lat="43.04801" lon="-0.36594">
        <ele>1077.1</ele>
        <time>2026-02-07T10:17:39.000Z</time>
      </trkpt>
      <trkpt lat="43.04798" lon="-0.36594">
        <ele>1077.4</ele>
        <time>2026-02-07T10:17:42.000Z</time>
      </trkpt>
      <trkpt lat="43.04796" lon="-0.36593">
        <ele>1077.7</ele>
        <time>2026-02-07T10:17:45.000Z</time>
      </trkpt>
      <trkpt lat="43.04794" lon="-0.36592">
        <ele>1078</ele>
        <time>2026-02-07T10:17:48.000Z</time>
      </trkpt>
      <trkpt lat="43.04792" lon="-0.36591">
        <ele>1078.4</ele>
        <time>2026-02-07T10:17:51.000Z</time>
      </trkpt>
      <trkpt lat="43.04789" lon="-0.36591">
        <ele>1078.6</ele>
        <time>2026-02-07T10:17:54.000Z</time>
      </trkpt>
      <trkpt lat="43.04787" lon="-0.3659">
        <ele>1078.7</ele>
        <time>2026-02-07T10:17:57.000Z</time>
      </trkpt>
      <trkpt lat="43.04785" lon="-0.36589">
        <ele>1078.9</ele>
        <time>2026-02-07T10:18:00.000Z</time>
      </trkpt>
      <trkpt lat="43.04782" lon="-0.36588">
        <ele>1079</ele>
        <time>2026-02-07T10:18:03.000Z</time>
      </trkpt>
      <trkpt lat="43.04779" lon="-0.36588">
        <ele>1079.2</ele>
        <time>2026-02-07T10:18:06.000Z</time>
      </trkpt>
      <trkpt lat="43.04777" lon="-0.36587">
        <ele>1079.4</ele>
        <time>2026-02-07T10:18:09.000Z</time>
      </trkpt>
      <trkpt lat="43.04774" lon="-0.36586">
        <ele>1079.6</ele>
        <time>2026-02-07T10:18:12.000Z</time>
      </trkpt>
      <trkpt lat="43.04771" lon="-0.36585">
        <ele>1079.9</ele>
        <time>2026-02-07T10:18:15.000Z</time>
      </trkpt>
      <trkpt lat="43.04768" lon="-0.36584">
        <ele>1080.2</ele>
        <time>2026-02-07T10:18:18.000Z</time>
      </trkpt>
      <trkpt lat="43.04766" lon="-0.36583">
        <ele>1080.5</ele>
        <time>2026-02-07T10:18:21.000Z</time>
      </trkpt>
      <trkpt lat="43.04762" lon="-0.36582">
        <ele>1080.7</ele>
        <time>2026-02-07T10:18:24.000Z</time>
      </trkpt>
      <trkpt lat="43.0476" lon="-0.3658">
        <ele>1080.9</ele>
        <time>2026-02-07T10:18:27.000Z</time>
      </trkpt>
      <trkpt lat="43.04758" lon="-0.36578">
        <ele>1081</ele>
        <time>2026-02-07T10:18:30.000Z</time>
      </trkpt>
      <trkpt lat="43.04755" lon="-0.36576">
        <ele>1081.2</ele>
        <time>2026-02-07T10:18:33.000Z</time>
      </trkpt>
      <trkpt lat="43.04753" lon="-0.36575">
        <ele>1081.3</ele>
        <time>2026-02-07T10:18:36.000Z</time>
      </trkpt>
      <trkpt lat="43.0475" lon="-0.36574">
        <ele>1081.5</ele>
        <time>2026-02-07T10:18:39.000Z</time>
      </trkpt>
      <trkpt lat="43.04747" lon="-0.36573">
        <ele>1081.6</ele>
        <time>2026-02-07T10:18:42.000Z</time>
      </trkpt>
      <trkpt lat="43.04745" lon="-0.36572">
        <ele>1081.7</ele>
        <time>2026-02-07T10:18:45.000Z</time>
      </trkpt>
      <trkpt lat="43.04742" lon="-0.36571">
        <ele>1081.9</ele>
        <time>2026-02-07T10:18:48.000Z</time>
      </trkpt>
      <trkpt lat="43.04739" lon="-0.3657">
        <ele>1082.1</ele>
        <time>2026-02-07T10:18:51.000Z</time>
      </trkpt>
      <trkpt lat="43.04736" lon="-0.36569">
        <ele>1082.2</ele>
        <time>2026-02-07T10:18:54.000Z</time>
      </trkpt>
      <trkpt lat="43.04732" lon="-0.36568">
        <ele>1082.4</ele>
        <time>2026-02-07T10:18:57.000Z</time>
      </trkpt>
      <trkpt lat="43.04729" lon="-0.36568">
        <ele>1082.5</ele>
        <time>2026-02-07T10:19:00.000Z</time>
      </trkpt>
      <trkpt lat="43.04727" lon="-0.36567">
        <ele>1082.5</ele>
        <time>2026-02-07T10:19:03.000Z</time>
      </trkpt>
      <trkpt lat="43.04724" lon="-0.36567">
        <ele>1082.7</ele>
        <time>2026-02-07T10:19:06.000Z</time>
      </trkpt>
      <trkpt lat="43.04721" lon="-0.36567">
        <ele>1082.8</ele>
        <time>2026-02-07T10:19:09.000Z</time>
      </trkpt>
      <trkpt lat="43.04718" lon="-0.36568">
        <ele>1082.8</ele>
        <time>2026-02-07T10:19:12.000Z</time>
      </trkpt>
      <trkpt lat="43.04715" lon="-0.36568">
        <ele>1082.9</ele>
        <time>2026-02-07T10:19:15.000Z</time>
      </trkpt>
      <trkpt lat="43.04712" lon="-0.36567">
        <ele>1082.9</ele>
        <time>2026-02-07T10:19:18.000Z</time>
      </trkpt>
      <trkpt lat="43.04709" lon="-0.36567">
        <ele>1083</ele>
        <time>2026-02-07T10:19:21.000Z</time>
      </trkpt>
      <trkpt lat="43.04706" lon="-0.36567">
        <ele>1083</ele>
        <time>2026-02-07T10:19:24.000Z</time>
      </trkpt>
      <trkpt lat="43.04703" lon="-0.36567">
        <ele>1083</ele>
        <time>2026-02-07T10:19:27.000Z</time>
      </trkpt>
      <trkpt lat="43.04699" lon="-0.36567">
        <ele>1083</ele>
        <time>2026-02-07T10:19:30.000Z</time>
      </trkpt>
      <trkpt lat="43.04696" lon="-0.36567">
        <ele>1083</ele>
        <time>2026-02-07T10:19:33.000Z</time>
      </trkpt>
      <trkpt lat="43.04693" lon="-0.36567">
        <ele>1083.1</ele>
        <time>2026-02-07T10:19:36.000Z</time>
      </trkpt>
      <trkpt lat="43.0469" lon="-0.36567">
        <ele>1083.1</ele>
        <time>2026-02-07T10:19:39.000Z</time>
      </trkpt>
      <trkpt lat="43.04686" lon="-0.36566">
        <ele>1083.2</ele>
        <time>2026-02-07T10:19:42.000Z</time>
      </trkpt>
      <trkpt lat="43.04683" lon="-0.36566">
        <ele>1083.2</ele>
        <time>2026-02-07T10:19:45.000Z</time>
      </trkpt>
      <trkpt lat="43.0468" lon="-0.36567">
        <ele>1083.3</ele>
        <time>2026-02-07T10:19:48.000Z</time>
      </trkpt>
      <trkpt lat="43.04677" lon="-0.36567">
        <ele>1083.3</ele>
        <time>2026-02-07T10:19:51.000Z</time>
      </trkpt>
      <trkpt lat="43.04674" lon="-0.36566">
        <ele>1083.4</ele>
        <time>2026-02-07T10:19:54.000Z</time>
      </trkpt>
      <trkpt lat="43.0467" lon="-0.36565">
        <ele>1083.4</ele>
        <time>2026-02-07T10:19:57.000Z</time>
      </trkpt>
      <trkpt lat="43.04666" lon="-0.36565">
        <ele>1083.5</ele>
        <time>2026-02-07T10:20:00.000Z</time>
      </trkpt>
      <trkpt lat="43.04662" lon="-0.36564">
        <ele>1083.5</ele>
        <time>2026-02-07T10:20:03.000Z</time>
      </trkpt>
      <trkpt lat="43.04659" lon="-0.36563">
        <ele>1083.6</ele>
        <time>2026-02-07T10:20:06.000Z</time>
      </trkpt>
      <trkpt lat="43.04656" lon="-0.36562">
        <ele>1083.7</ele>
        <time>2026-02-07T10:20:09.000Z</time>
      </trkpt>
      <trkpt lat="43.04654" lon="-0.36561">
        <ele>1083.8</ele>
        <time>2026-02-07T10:20:12.000Z</time>
      </trkpt>
      <trkpt lat="43.04651" lon="-0.3656">
        <ele>1084</ele>
        <time>2026-02-07T10:20:15.000Z</time>
      </trkpt>
      <trkpt lat="43.04648" lon="-0.36559">
        <ele>1084.2</ele>
        <time>2026-02-07T10:20:18.000Z</time>
      </trkpt>
      <trkpt lat="43.04645" lon="-0.36558">
        <ele>1084.3</ele>
        <time>2026-02-07T10:20:21.000Z</time>
      </trkpt>
      <trkpt lat="43.04642" lon="-0.36557">
        <ele>1084.6</ele>
        <time>2026-02-07T10:20:24.000Z</time>
      </trkpt>
      <trkpt lat="43.04639" lon="-0.36556">
        <ele>1084.8</ele>
        <time>2026-02-07T10:20:27.000Z</time>
      </trkpt>
      <trkpt lat="43.04637" lon="-0.36555">
        <ele>1085.1</ele>
        <time>2026-02-07T10:20:30.000Z</time>
      </trkpt>
      <trkpt lat="43.04634" lon="-0.36553">
        <ele>1085.4</ele>
        <time>2026-02-07T10:20:33.000Z</time>
      </trkpt>
      <trkpt lat="43.04632" lon="-0.36552">
        <ele>1085.7</ele>
        <time>2026-02-07T10:20:36.000Z</time>
      </trkpt>
      <trkpt lat="43.04629" lon="-0.36551">
        <ele>1086</ele>
        <time>2026-02-07T10:20:39.000Z</time>
      </trkpt>
      <trkpt lat="43.04627" lon="-0.3655">
        <ele>1086.4</ele>
        <time>2026-02-07T10:20:42.000Z</time>
      </trkpt>
      <trkpt lat="43.04625" lon="-0.36548">
        <ele>1086.7</ele>
        <time>2026-02-07T10:20:45.000Z</time>
      </trkpt>
      <trkpt lat="43.04623" lon="-0.36547">
        <ele>1087.1</ele>
        <time>2026-02-07T10:20:48.000Z</time>
      </trkpt>
      <trkpt lat="43.04621" lon="-0.36546">
        <ele>1087.4</ele>
        <time>2026-02-07T10:20:51.000Z</time>
      </trkpt>
      <trkpt lat="43.04619" lon="-0.36545">
        <ele>1087.7</ele>
        <time>2026-02-07T10:20:54.000Z</time>
      </trkpt>
      <trkpt lat="43.04617" lon="-0.36543">
        <ele>1088</ele>
        <time>2026-02-07T10:20:57.000Z</time>
      </trkpt>
      <trkpt lat="43.04615" lon="-0.36542">
        <ele>1088.3</ele>
        <time>2026-02-07T10:21:00.000Z</time>
      </trkpt>
      <trkpt lat="43.04612" lon="-0.36541">
        <ele>1088.6</ele>
        <time>2026-02-07T10:21:03.000Z</time>
      </trkpt>
      <trkpt lat="43.0461" lon="-0.36541">
        <ele>1088.9</ele>
        <time>2026-02-07T10:21:06.000Z</time>
      </trkpt>
      <trkpt lat="43.04608" lon="-0.36539">
        <ele>1089.4</ele>
        <time>2026-02-07T10:21:09.000Z</time>
      </trkpt>
      <trkpt lat="43.04605" lon="-0.36539">
        <ele>1089.8</ele>
        <time>2026-02-07T10:21:12.000Z</time>
      </trkpt>
      <trkpt lat="43.04603" lon="-0.36539">
        <ele>1090.2</ele>
        <time>2026-02-07T10:21:15.000Z</time>
      </trkpt>
      <trkpt lat="43.04601" lon="-0.36538">
        <ele>1090.7</ele>
        <time>2026-02-07T10:21:18.000Z</time>
      </trkpt>
      <trkpt lat="43.04599" lon="-0.36536">
        <ele>1091.1</ele>
        <time>2026-02-07T10:21:21.000Z</time>
      </trkpt>
      <trkpt lat="43.04597" lon="-0.36534">
        <ele>1091.6</ele>
        <time>2026-02-07T10:21:24.000Z</time>
      </trkpt>
      <trkpt lat="43.04595" lon="-0.36532">
        <ele>1092</ele>
        <time>2026-02-07T10:21:27.000Z</time>
      </trkpt>
      <trkpt lat="43.04593" lon="-0.3653">
        <ele>1092.4</ele>
        <time>2026-02-07T10:21:30.000Z</time>
      </trkpt>
      <trkpt lat="43.04591" lon="-0.36527">
        <ele>1092.8</ele>
        <time>2026-02-07T10:21:33.000Z</time>
      </trkpt>
      <trkpt lat="43.04589" lon="-0.36526">
        <ele>1093</ele>
        <time>2026-02-07T10:21:36.000Z</time>
      </trkpt>
      <trkpt lat="43.04586" lon="-0.36524">
        <ele>1093.4</ele>
        <time>2026-02-07T10:21:39.000Z</time>
      </trkpt>
      <trkpt lat="43.04584" lon="-0.36523">
        <ele>1093.8</ele>
        <time>2026-02-07T10:21:42.000Z</time>
      </trkpt>
      <trkpt lat="43.04583" lon="-0.36521">
        <ele>1094.2</ele>
        <time>2026-02-07T10:21:45.000Z</time>
      </trkpt>
      <trkpt lat="43.04581" lon="-0.36519">
        <ele>1094.6</ele>
        <time>2026-02-07T10:21:48.000Z</time>
      </trkpt>
      <trkpt lat="43.04579" lon="-0.36518">
        <ele>1095</ele>
        <time>2026-02-07T10:21:51.000Z</time>
      </trkpt>
      <trkpt lat="43.04577" lon="-0.36516">
        <ele>1095.5</ele>
        <time>2026-02-07T10:21:54.000Z</time>
      </trkpt>
      <trkpt lat="43.04575" lon="-0.36514">
        <ele>1095.9</ele>
        <time>2026-02-07T10:21:57.000Z</time>
      </trkpt>
      <trkpt lat="43.04573" lon="-0.36513">
        <ele>1096.4</ele>
        <time>2026-02-07T10:22:00.000Z</time>
      </trkpt>
      <trkpt lat="43.04571" lon="-0.36512">
        <ele>1096.8</ele>
        <time>2026-02-07T10:22:03.000Z</time>
      </trkpt>
      <trkpt lat="43.04569" lon="-0.36511">
        <ele>1097.1</ele>
        <time>2026-02-07T10:22:06.000Z</time>
      </trkpt>
      <trkpt lat="43.04568" lon="-0.36508">
        <ele>1097.4</ele>
        <time>2026-02-07T10:22:09.000Z</time>
      </trkpt>
      <trkpt lat="43.04567" lon="-0.36507">
        <ele>1097.7</ele>
        <time>2026-02-07T10:22:12.000Z</time>
      </trkpt>
      <trkpt lat="43.04565" lon="-0.36506">
        <ele>1098</ele>
        <time>2026-02-07T10:22:15.000Z</time>
      </trkpt>
      <trkpt lat="43.04564" lon="-0.36504">
        <ele>1098.3</ele>
        <time>2026-02-07T10:22:18.000Z</time>
      </trkpt>
      <trkpt lat="43.04562" lon="-0.36502">
        <ele>1098.6</ele>
        <time>2026-02-07T10:22:21.000Z</time>
      </trkpt>
      <trkpt lat="43.0456" lon="-0.36501">
        <ele>1098.9</ele>
        <time>2026-02-07T10:22:24.000Z</time>
      </trkpt>
      <trkpt lat="43.04558" lon="-0.36498">
        <ele>1099.2</ele>
        <time>2026-02-07T10:22:27.000Z</time>
      </trkpt>
      <trkpt lat="43.04556" lon="-0.36496">
        <ele>1099.6</ele>
        <time>2026-02-07T10:22:30.000Z</time>
      </trkpt>
      <trkpt lat="43.04554" lon="-0.36494">
        <ele>1100</ele>
        <time>2026-02-07T10:22:33.000Z</time>
      </trkpt>
      <trkpt lat="43.04552" lon="-0.36492">
        <ele>1100.4</ele>
        <time>2026-02-07T10:22:36.000Z</time>
      </trkpt>
      <trkpt lat="43.0455" lon="-0.3649">
        <ele>1100.8</ele>
        <time>2026-02-07T10:22:39.000Z</time>
      </trkpt>
      <trkpt lat="43.04547" lon="-0.36489">
        <ele>1101.2</ele>
        <time>2026-02-07T10:22:42.000Z</time>
      </trkpt>
      <trkpt lat="43.04545" lon="-0.36488">
        <ele>1101.7</ele>
        <time>2026-02-07T10:22:45.000Z</time>
      </trkpt>
      <trkpt lat="43.04543" lon="-0.36486">
        <ele>1102.3</ele>
        <time>2026-02-07T10:22:48.000Z</time>
      </trkpt>
      <trkpt lat="43.0454" lon="-0.36485">
        <ele>1102.9</ele>
        <time>2026-02-07T10:22:51.000Z</time>
      </trkpt>
      <trkpt lat="43.04538" lon="-0.36484">
        <ele>1103.5</ele>
        <time>2026-02-07T10:22:54.000Z</time>
      </trkpt>
      <trkpt lat="43.04536" lon="-0.36483">
        <ele>1104</ele>
        <time>2026-02-07T10:22:57.000Z</time>
      </trkpt>
      <trkpt lat="43.04534" lon="-0.36481">
        <ele>1104.4</ele>
        <time>2026-02-07T10:23:00.000Z</time>
      </trkpt>
      <trkpt lat="43.04532" lon="-0.3648">
        <ele>1104.8</ele>
        <time>2026-02-07T10:23:03.000Z</time>
      </trkpt>
      <trkpt lat="43.0453" lon="-0.36479">
        <ele>1105.1</ele>
        <time>2026-02-07T10:23:06.000Z</time>
      </trkpt>
      <trkpt lat="43.04528" lon="-0.36476">
        <ele>1105.4</ele>
        <time>2026-02-07T10:23:09.000Z</time>
      </trkpt>
      <trkpt lat="43.04526" lon="-0.36474">
        <ele>1105.6</ele>
        <time>2026-02-07T10:23:12.000Z</time>
      </trkpt>
      <trkpt lat="43.04524" lon="-0.36472">
        <ele>1105.8</ele>
        <time>2026-02-07T10:23:15.000Z</time>
      </trkpt>
      <trkpt lat="43.04522" lon="-0.36471">
        <ele>1106.1</ele>
        <time>2026-02-07T10:23:18.000Z</time>
      </trkpt>
      <trkpt lat="43.0452" lon="-0.36469">
        <ele>1106.5</ele>
        <time>2026-02-07T10:23:21.000Z</time>
      </trkpt>
      <trkpt lat="43.04518" lon="-0.36467">
        <ele>1106.9</ele>
        <time>2026-02-07T10:23:24.000Z</time>
      </trkpt>
      <trkpt lat="43.04517" lon="-0.36465">
        <ele>1107.4</ele>
        <time>2026-02-07T10:23:27.000Z</time>
      </trkpt>
      <trkpt lat="43.04515" lon="-0.36463">
        <ele>1107.9</ele>
        <time>2026-02-07T10:23:30.000Z</time>
      </trkpt>
      <trkpt lat="43.04513" lon="-0.36462">
        <ele>1108.2</ele>
        <time>2026-02-07T10:23:33.000Z</time>
      </trkpt>
      <trkpt lat="43.0451" lon="-0.3646">
        <ele>1108.7</ele>
        <time>2026-02-07T10:23:36.000Z</time>
      </trkpt>
      <trkpt lat="43.04509" lon="-0.36458">
        <ele>1109.1</ele>
        <time>2026-02-07T10:23:39.000Z</time>
      </trkpt>
      <trkpt lat="43.04507" lon="-0.36457">
        <ele>1109.6</ele>
        <time>2026-02-07T10:23:42.000Z</time>
      </trkpt>
      <trkpt lat="43.04505" lon="-0.36455">
        <ele>1110.1</ele>
        <time>2026-02-07T10:23:45.000Z</time>
      </trkpt>
      <trkpt lat="43.04504" lon="-0.36453">
        <ele>1110.5</ele>
        <time>2026-02-07T10:23:48.000Z</time>
      </trkpt>
      <trkpt lat="43.04502" lon="-0.36452">
        <ele>1111</ele>
        <time>2026-02-07T10:23:51.000Z</time>
      </trkpt>
      <trkpt lat="43.045" lon="-0.36451">
        <ele>1111.4</ele>
        <time>2026-02-07T10:23:54.000Z</time>
      </trkpt>
      <trkpt lat="43.04498" lon="-0.36449">
        <ele>1111.8</ele>
        <time>2026-02-07T10:23:57.000Z</time>
      </trkpt>
      <trkpt lat="43.04496" lon="-0.36448">
        <ele>1112.2</ele>
        <time>2026-02-07T10:24:00.000Z</time>
      </trkpt>
      <trkpt lat="43.04494" lon="-0.36447">
        <ele>1112.7</ele>
        <time>2026-02-07T10:24:03.000Z</time>
      </trkpt>
      <trkpt lat="43.04492" lon="-0.36445">
        <ele>1113.1</ele>
        <time>2026-02-07T10:24:06.000Z</time>
      </trkpt>
      <trkpt lat="43.0449" lon="-0.36444">
        <ele>1113.6</ele>
        <time>2026-02-07T10:24:09.000Z</time>
      </trkpt>
      <trkpt lat="43.04488" lon="-0.36441">
        <ele>1114.1</ele>
        <time>2026-02-07T10:24:12.000Z</time>
      </trkpt>
      <trkpt lat="43.04487" lon="-0.36438">
        <ele>1114.4</ele>
        <time>2026-02-07T10:24:15.000Z</time>
      </trkpt>
      <trkpt lat="43.04487" lon="-0.36435">
        <ele>1114.7</ele>
        <time>2026-02-07T10:24:18.000Z</time>
      </trkpt>
      <trkpt lat="43.04486" lon="-0.36432">
        <ele>1115</ele>
        <time>2026-02-07T10:24:21.000Z</time>
      </trkpt>
      <trkpt lat="43.04485" lon="-0.36429">
        <ele>1115.4</ele>
        <time>2026-02-07T10:24:24.000Z</time>
      </trkpt>
      <trkpt lat="43.04485" lon="-0.36426">
        <ele>1115.7</ele>
        <time>2026-02-07T10:24:27.000Z</time>
      </trkpt>
      <trkpt lat="43.04485" lon="-0.36422">
        <ele>1116.1</ele>
        <time>2026-02-07T10:24:30.000Z</time>
      </trkpt>
      <trkpt lat="43.04484" lon="-0.36419">
        <ele>1116.5</ele>
        <time>2026-02-07T10:24:33.000Z</time>
      </trkpt>
      <trkpt lat="43.04483" lon="-0.36416">
        <ele>1117</ele>
        <time>2026-02-07T10:24:36.000Z</time>
      </trkpt>
      <trkpt lat="43.04483" lon="-0.36413">
        <ele>1117.4</ele>
        <time>2026-02-07T10:24:39.000Z</time>
      </trkpt>
      <trkpt lat="43.04482" lon="-0.3641">
        <ele>1117.8</ele>
        <time>2026-02-07T10:24:42.000Z</time>
      </trkpt>
      <trkpt lat="43.04482" lon="-0.36407">
        <ele>1118.1</ele>
        <time>2026-02-07T10:24:45.000Z</time>
      </trkpt>
      <trkpt lat="43.04482" lon="-0.36403">
        <ele>1118.5</ele>
        <time>2026-02-07T10:24:48.000Z</time>
      </trkpt>
      <trkpt lat="43.04482" lon="-0.36399">
        <ele>1118.9</ele>
        <time>2026-02-07T10:24:51.000Z</time>
      </trkpt>
      <trkpt lat="43.04481" lon="-0.36396">
        <ele>1119.4</ele>
        <time>2026-02-07T10:24:54.000Z</time>
      </trkpt>
      <trkpt lat="43.0448" lon="-0.36393">
        <ele>1119.9</ele>
        <time>2026-02-07T10:24:57.000Z</time>
      </trkpt>
      <trkpt lat="43.04479" lon="-0.36391">
        <ele>1120.4</ele>
        <time>2026-02-07T10:25:00.000Z</time>
      </trkpt>
      <trkpt lat="43.04478" lon="-0.36388">
        <ele>1121.2</ele>
        <time>2026-02-07T10:25:03.000Z</time>
      </trkpt>
      <trkpt lat="43.04477" lon="-0.36386">
        <ele>1122.5</ele>
        <time>2026-02-07T10:25:06.000Z</time>
      </trkpt>
      <trkpt lat="43.04475" lon="-0.36383">
        <ele>1123</ele>
        <time>2026-02-07T10:25:09.000Z</time>
      </trkpt>
      <trkpt lat="43.04473" lon="-0.36381">
        <ele>1123</ele>
        <time>2026-02-07T10:25:12.000Z</time>
      </trkpt>
      <trkpt lat="43.04471" lon="-0.3638">
        <ele>1123.4</ele>
        <time>2026-02-07T10:25:15.000Z</time>
      </trkpt>
      <trkpt lat="43.04469" lon="-0.36379">
        <ele>1123.9</ele>
        <time>2026-02-07T10:25:18.000Z</time>
      </trkpt>
      <trkpt lat="43.04466" lon="-0.36379">
        <ele>1124.1</ele>
        <time>2026-02-07T10:25:21.000Z</time>
      </trkpt>
      <trkpt lat="43.04464" lon="-0.36379">
        <ele>1124.2</ele>
        <time>2026-02-07T10:25:24.000Z</time>
      </trkpt>
      <trkpt lat="43.04461" lon="-0.3638">
        <ele>1124.3</ele>
        <time>2026-02-07T10:25:27.000Z</time>
      </trkpt>
      <trkpt lat="43.04458" lon="-0.36381">
        <ele>1124.5</ele>
        <time>2026-02-07T10:25:30.000Z</time>
      </trkpt>
      <trkpt lat="43.04456" lon="-0.36384">
        <ele>1124.7</ele>
        <time>2026-02-07T10:25:33.000Z</time>
      </trkpt>
      <trkpt lat="43.04454" lon="-0.36388">
        <ele>1124.8</ele>
        <time>2026-02-07T10:25:36.000Z</time>
      </trkpt>
      <trkpt lat="43.04452" lon="-0.36391">
        <ele>1124.8</ele>
        <time>2026-02-07T10:25:39.000Z</time>
      </trkpt>
      <trkpt lat="43.0445" lon="-0.36395">
        <ele>1124.8</ele>
        <time>2026-02-07T10:25:42.000Z</time>
      </trkpt>
      <trkpt lat="43.04449" lon="-0.36398">
        <ele>1124.9</ele>
        <time>2026-02-07T10:25:45.000Z</time>
      </trkpt>
      <trkpt lat="43.04449" lon="-0.36402">
        <ele>1125</ele>
        <time>2026-02-07T10:25:48.000Z</time>
      </trkpt>
      <trkpt lat="43.04448" lon="-0.36405">
        <ele>1125</ele>
        <time>2026-02-07T10:25:51.000Z</time>
      </trkpt>
      <trkpt lat="43.04448" lon="-0.36409">
        <ele>1125.1</ele>
        <time>2026-02-07T10:25:54.000Z</time>
      </trkpt>
      <trkpt lat="43.04446" lon="-0.36412">
        <ele>1125.2</ele>
        <time>2026-02-07T10:25:57.000Z</time>
      </trkpt>
      <trkpt lat="43.04445" lon="-0.36415">
        <ele>1125.3</ele>
        <time>2026-02-07T10:26:00.000Z</time>
      </trkpt>
      <trkpt lat="43.04444" lon="-0.36419">
        <ele>1125.4</ele>
        <time>2026-02-07T10:26:03.000Z</time>
      </trkpt>
      <trkpt lat="43.04442" lon="-0.36422">
        <ele>1125.5</ele>
        <time>2026-02-07T10:26:06.000Z</time>
      </trkpt>
      <trkpt lat="43.04441" lon="-0.36426">
        <ele>1125.7</ele>
        <time>2026-02-07T10:26:09.000Z</time>
      </trkpt>
      <trkpt lat="43.0444" lon="-0.3643">
        <ele>1125.9</ele>
        <time>2026-02-07T10:26:12.000Z</time>
      </trkpt>
      <trkpt lat="43.04439" lon="-0.36432">
        <ele>1126.1</ele>
        <time>2026-02-07T10:26:15.000Z</time>
      </trkpt>
      <trkpt lat="43.04438" lon="-0.36435">
        <ele>1126.3</ele>
        <time>2026-02-07T10:26:18.000Z</time>
      </trkpt>
      <trkpt lat="43.04437" lon="-0.36437">
        <ele>1126.4</ele>
        <time>2026-02-07T10:26:21.000Z</time>
      </trkpt>
      <trkpt lat="43.04435" lon="-0.3644">
        <ele>1126.6</ele>
        <time>2026-02-07T10:26:24.000Z</time>
      </trkpt>
      <trkpt lat="43.04434" lon="-0.36443">
        <ele>1126.7</ele>
        <time>2026-02-07T10:26:27.000Z</time>
      </trkpt>
      <trkpt lat="43.04433" lon="-0.36446">
        <ele>1126.8</ele>
        <time>2026-02-07T10:26:30.000Z</time>
      </trkpt>
      <trkpt lat="43.04432" lon="-0.36448">
        <ele>1127</ele>
        <time>2026-02-07T10:26:33.000Z</time>
      </trkpt>
      <trkpt lat="43.04431" lon="-0.36451">
        <ele>1127.2</ele>
        <time>2026-02-07T10:26:36.000Z</time>
      </trkpt>
      <trkpt lat="43.04429" lon="-0.36454">
        <ele>1127.5</ele>
        <time>2026-02-07T10:26:39.000Z</time>
      </trkpt>
      <trkpt lat="43.04428" lon="-0.36457">
        <ele>1127.7</ele>
        <time>2026-02-07T10:26:42.000Z</time>
      </trkpt>
      <trkpt lat="43.04428" lon="-0.36457">
        <ele>1127.9</ele>
        <time>2026-02-07T10:26:44.000Z</time>
      </trkpt>
      <trkpt lat="43.04428" lon="-0.36457">
        <ele>1128</ele>
        <time>2026-02-07T10:26:45.000Z</time>
      </trkpt>
      <trkpt lat="43.04428" lon="-0.36457">
        <ele>1128.1</ele>
        <time>2026-02-07T10:26:46.000Z</time>
      </trkpt>
      <trkpt lat="43.04429" lon="-0.36459">
        <ele>1128.2</ele>
        <time>2026-02-07T10:26:49.000Z</time>
      </trkpt>
      <trkpt lat="43.04429" lon="-0.36459">
        <ele>1128.2</ele>
        <time>2026-02-07T10:26:50.000Z</time>
      </trkpt>
      <trkpt lat="43.04429" lon="-0.3646">
        <ele>1128.3</ele>
        <time>2026-02-07T10:26:51.000Z</time>
      </trkpt>
      <trkpt lat="43.04428" lon="-0.36463">
        <ele>1128.5</ele>
        <time>2026-02-07T10:26:54.000Z</time>
      </trkpt>
      <trkpt lat="43.04426" lon="-0.36465">
        <ele>1128.6</ele>
        <time>2026-02-07T10:26:57.000Z</time>
      </trkpt>
      <trkpt lat="43.04425" lon="-0.36466">
        <ele>1128.8</ele>
        <time>2026-02-07T10:27:00.000Z</time>
      </trkpt>
      <trkpt lat="43.04424" lon="-0.36467">
        <ele>1129</ele>
        <time>2026-02-07T10:27:03.000Z</time>
      </trkpt>
      <trkpt lat="43.04423" lon="-0.36469">
        <ele>1129.1</ele>
        <time>2026-02-07T10:27:06.000Z</time>
      </trkpt>
      <trkpt lat="43.04423" lon="-0.36469">
        <ele>1129.4</ele>
        <time>2026-02-07T10:27:09.000Z</time>
      </trkpt>
      <trkpt lat="43.04423" lon="-0.36469">
        <ele>1129.4</ele>
        <time>2026-02-07T10:27:10.000Z</time>
      </trkpt>
      <trkpt lat="43.04423" lon="-0.36469">
        <ele>1129.5</ele>
        <time>2026-02-07T10:27:11.000Z</time>
      </trkpt>
      <trkpt lat="43.04423" lon="-0.3647">
        <ele>1129.7</ele>
        <time>2026-02-07T10:27:14.000Z</time>
      </trkpt>
      <trkpt lat="43.04422" lon="-0.36471">
        <ele>1129.7</ele>
        <time>2026-02-07T10:27:15.000Z</time>
      </trkpt>
      <trkpt lat="43.04422" lon="-0.36472">
        <ele>1129.8</ele>
        <time>2026-02-07T10:27:16.000Z</time>
      </trkpt>
      <trkpt lat="43.04422" lon="-0.36474">
        <ele>1130</ele>
        <time>2026-02-07T10:27:19.000Z</time>
      </trkpt>
      <trkpt lat="43.04422" lon="-0.36474">
        <ele>1130</ele>
        <time>2026-02-07T10:27:22.000Z</time>
      </trkpt>
      <trkpt lat="43.04422" lon="-0.36474">
        <ele>1130.1</ele>
        <time>2026-02-07T10:27:23.000Z</time>
      </trkpt>
      <trkpt lat="43.04422" lon="-0.36474">
        <ele>1130.1</ele>
        <time>2026-02-07T10:27:26.000Z</time>
      </trkpt>
      <trkpt lat="43.04422" lon="-0.36473">
        <ele>1130.2</ele>
        <time>2026-02-07T10:27:29.000Z</time>
      </trkpt>
      <trkpt lat="43.04422" lon="-0.36473">
        <ele>1130.2</ele>
        <time>2026-02-07T10:27:30.000Z</time>
      </trkpt>
      <trkpt lat="43.04422" lon="-0.36473">
        <ele>1130.2</ele>
        <time>2026-02-07T10:27:31.000Z</time>
      </trkpt>
      <trkpt lat="43.04422" lon="-0.36473">
        <ele>1130.2</ele>
        <time>2026-02-07T10:27:32.000Z</time>
      </trkpt>
      <trkpt lat="43.04422" lon="-0.36473">
        <ele>1130.3</ele>
        <time>2026-02-07T10:27:33.000Z</time>
      </trkpt>
      <trkpt lat="43.04422" lon="-0.36472">
        <ele>1130.3</ele>
        <time>2026-02-07T10:27:34.000Z</time>
      </trkpt>
      <trkpt lat="43.04422" lon="-0.36473">
        <ele>1130.4</ele>
        <time>2026-02-07T10:27:35.000Z</time>
      </trkpt>
      <trkpt lat="43.04422" lon="-0.36473">
        <ele>1130.3</ele>
        <time>2026-02-07T10:27:36.000Z</time>
      </trkpt>
      <trkpt lat="43.04421" lon="-0.36474">
        <ele>1130.3</ele>
        <time>2026-02-07T10:27:37.000Z</time>
      </trkpt>
      <trkpt lat="43.04421" lon="-0.36474">
        <ele>1130.3</ele>
        <time>2026-02-07T10:27:40.000Z</time>
      </trkpt>
      <trkpt lat="43.04421" lon="-0.36474">
        <ele>1130.2</ele>
        <time>2026-02-07T10:27:43.000Z</time>
      </trkpt>
      <trkpt lat="43.04421" lon="-0.36474">
        <ele>1130.2</ele>
        <time>2026-02-07T10:27:44.000Z</time>
      </trkpt>
      <trkpt lat="43.04421" lon="-0.36474">
        <ele>1130.1</ele>
        <time>2026-02-07T10:27:45.000Z</time>
      </trkpt>
      <trkpt lat="43.04421" lon="-0.36474">
        <ele>1130.1</ele>
        <time>2026-02-07T10:27:46.000Z</time>
      </trkpt>
      <trkpt lat="43.04421" lon="-0.36474">
        <ele>1130</ele>
        <time>2026-02-07T10:27:49.000Z</time>
      </trkpt>
      <trkpt lat="43.04421" lon="-0.36474">
        <ele>1129.9</ele>
        <time>2026-02-07T10:27:52.000Z</time>
      </trkpt>
      <trkpt lat="43.04421" lon="-0.36474">
        <ele>1129.9</ele>
        <time>2026-02-07T10:27:55.000Z</time>
      </trkpt>
      <trkpt lat="43.04421" lon="-0.36474">
        <ele>1129.8</ele>
        <time>2026-02-07T10:27:58.000Z</time>
      </trkpt>
      <trkpt lat="43.04421" lon="-0.36474">
        <ele>1129.7</ele>
        <time>2026-02-07T10:28:01.000Z</time>
      </trkpt>
      <trkpt lat="43.04421" lon="-0.36474">
        <ele>1129.7</ele>
        <time>2026-02-07T10:28:04.000Z</time>
      </trkpt>
      <trkpt lat="43.04421" lon="-0.36474">
        <ele>1129.7</ele>
        <time>2026-02-07T10:28:07.000Z</time>
      </trkpt>
      <trkpt lat="43.04421" lon="-0.36474">
        <ele>1129.7</ele>
        <time>2026-02-07T10:28:10.000Z</time>
      </trkpt>
      <trkpt lat="43.04421" lon="-0.36474">
        <ele>1129.7</ele>
        <time>2026-02-07T10:28:13.000Z</time>
      </trkpt>
      <trkpt lat="43.04421" lon="-0.36474">
        <ele>1129.7</ele>
        <time>2026-02-07T10:28:16.000Z</time>
      </trkpt>
      <trkpt lat="43.04421" lon="-0.36474">
        <ele>1129.7</ele>
        <time>2026-02-07T10:28:19.000Z</time>
      </trkpt>
      <trkpt lat="43.04421" lon="-0.36474">
        <ele>1129.7</ele>
        <time>2026-02-07T10:28:20.000Z</time>
      </trkpt>
      <trkpt lat="43.04421" lon="-0.36474">
        <ele>1129.7</ele>
        <time>2026-02-07T10:28:21.000Z</time>
      </trkpt>
      <trkpt lat="43.04421" lon="-0.36474">
        <ele>1129.7</ele>
        <time>2026-02-07T10:28:24.000Z</time>
      </trkpt>
      <trkpt lat="43.04421" lon="-0.36474">
        <ele>1129.7</ele>
        <time>2026-02-07T10:28:25.000Z</time>
      </trkpt>
      <trkpt lat="43.04421" lon="-0.36474">
        <ele>1129.7</ele>
        <time>2026-02-07T10:28:26.000Z</time>
      </trkpt>
      <trkpt lat="43.04421" lon="-0.36474">
        <ele>1129.7</ele>
        <time>2026-02-07T10:28:29.000Z</time>
      </trkpt>
      <trkpt lat="43.04421" lon="-0.36474">
        <ele>1129.7</ele>
        <time>2026-02-07T10:28:32.000Z</time>
      </trkpt>
      <trkpt lat="43.04421" lon="-0.36474">
        <ele>1129.7</ele>
        <time>2026-02-07T10:28:34.000Z</time>
      </trkpt>
      <trkpt lat="43.04421" lon="-0.36474">
        <ele>1129.7</ele>
        <time>2026-02-07T10:28:35.000Z</time>
      </trkpt>
      <trkpt lat="43.04421" lon="-0.36474">
        <ele>1129.7</ele>
        <time>2026-02-07T10:28:36.000Z</time>
      </trkpt>
      <trkpt lat="43.04421" lon="-0.36474">
        <ele>1129.7</ele>
        <time>2026-02-07T10:28:37.000Z</time>
      </trkpt>
      <trkpt lat="43.04421" lon="-0.36474">
        <ele>1129.6</ele>
        <time>2026-02-07T10:28:38.000Z</time>
      </trkpt>
      <trkpt lat="43.04421" lon="-0.36474">
        <ele>1129.6</ele>
        <time>2026-02-07T10:28:39.000Z</time>
      </trkpt>
      <trkpt lat="43.04421" lon="-0.36474">
        <ele>1129.7</ele>
        <time>2026-02-07T10:28:42.000Z</time>
      </trkpt>
      <trkpt lat="43.04421" lon="-0.36474">
        <ele>1129.7</ele>
        <time>2026-02-07T10:28:43.000Z</time>
      </trkpt>
      <trkpt lat="43.04421" lon="-0.36474">
        <ele>1129.7</ele>
        <time>2026-02-07T10:28:44.000Z</time>
      </trkpt>
      <trkpt lat="43.04421" lon="-0.36474">
        <ele>1129.7</ele>
        <time>2026-02-07T10:28:45.000Z</time>
      </trkpt>
      <trkpt lat="43.04421" lon="-0.36474">
        <ele>1129.7</ele>
        <time>2026-02-07T10:28:46.000Z</time>
      </trkpt>
      <trkpt lat="43.04421" lon="-0.36474">
        <ele>1129.7</ele>
        <time>2026-02-07T10:28:49.000Z</time>
      </trkpt>
      <trkpt lat="43.04421" lon="-0.36474">
        <ele>1129.8</ele>
        <time>2026-02-07T10:28:52.000Z</time>
      </trkpt>
      <trkpt lat="43.04421" lon="-0.36474">
        <ele>1129.8</ele>
        <time>2026-02-07T10:28:55.000Z</time>
      </trkpt>
      <trkpt lat="43.04421" lon="-0.36474">
        <ele>1129.8</ele>
        <time>2026-02-07T10:28:58.000Z</time>
      </trkpt>
      <trkpt lat="43.04421" lon="-0.36474">
        <ele>1129.8</ele>
        <time>2026-02-07T10:29:01.000Z</time>
      </trkpt>
      <trkpt lat="43.04421" lon="-0.36474">
        <ele>1129.8</ele>
        <time>2026-02-07T10:29:04.000Z</time>
      </trkpt>
      <trkpt lat="43.04421" lon="-0.36474">
        <ele>1129.8</ele>
        <time>2026-02-07T10:29:07.000Z</time>
      </trkpt>
      <trkpt lat="43.04421" lon="-0.36474">
        <ele>1129.9</ele>
        <time>2026-02-07T10:29:10.000Z</time>
      </trkpt>
      <trkpt lat="43.04421" lon="-0.36474">
        <ele>1129.8</ele>
        <time>2026-02-07T10:29:13.000Z</time>
      </trkpt>
      <trkpt lat="43.04421" lon="-0.36474">
        <ele>1129.8</ele>
        <time>2026-02-07T10:29:16.000Z</time>
      </trkpt>
      <trkpt lat="43.04421" lon="-0.36474">
        <ele>1129.8</ele>
        <time>2026-02-07T10:29:19.000Z</time>
      </trkpt>
      <trkpt lat="43.04421" lon="-0.36474">
        <ele>1129.8</ele>
        <time>2026-02-07T10:29:22.000Z</time>
      </trkpt>
      <trkpt lat="43.04421" lon="-0.36474">
        <ele>1129.8</ele>
        <time>2026-02-07T10:29:25.000Z</time>
      </trkpt>
      <trkpt lat="43.04421" lon="-0.36474">
        <ele>1129.8</ele>
        <time>2026-02-07T10:29:28.000Z</time>
      </trkpt>
      <trkpt lat="43.04421" lon="-0.36474">
        <ele>1129.8</ele>
        <time>2026-02-07T10:29:31.000Z</time>
      </trkpt>
      <trkpt lat="43.04421" lon="-0.36474">
        <ele>1129.9</ele>
        <time>2026-02-07T10:29:34.000Z</time>
      </trkpt>
      <trkpt lat="43.04421" lon="-0.36474">
        <ele>1129.9</ele>
        <time>2026-02-07T10:29:37.000Z</time>
      </trkpt>
      <trkpt lat="43.04421" lon="-0.36474">
        <ele>1129.9</ele>
        <time>2026-02-07T10:29:40.000Z</time>
      </trkpt>
      <trkpt lat="43.04421" lon="-0.36474">
        <ele>1129.9</ele>
        <time>2026-02-07T10:29:43.000Z</time>
      </trkpt>
      <trkpt lat="43.04421" lon="-0.36474">
        <ele>1129.9</ele>
        <time>2026-02-07T10:29:46.000Z</time>
      </trkpt>
      <trkpt lat="43.04421" lon="-0.36474">
        <ele>1129.9</ele>
        <time>2026-02-07T10:29:49.000Z</time>
      </trkpt>
      <trkpt lat="43.04421" lon="-0.36474">
        <ele>1129.9</ele>
        <time>2026-02-07T10:29:52.000Z</time>
      </trkpt>
      <trkpt lat="43.04421" lon="-0.36474">
        <ele>1129.9</ele>
        <time>2026-02-07T10:29:55.000Z</time>
      </trkpt>
      <trkpt lat="43.04421" lon="-0.36474">
        <ele>1129.9</ele>
        <time>2026-02-07T10:29:58.000Z</time>
      </trkpt>
      <trkpt lat="43.04421" lon="-0.36474">
        <ele>1129.9</ele>
        <time>2026-02-07T10:30:01.000Z</time>
      </trkpt>
      <trkpt lat="43.04421" lon="-0.36474">
        <ele>1129.9</ele>
        <time>2026-02-07T10:30:04.000Z</time>
      </trkpt>
      <trkpt lat="43.04421" lon="-0.36474">
        <ele>1129.9</ele>
        <time>2026-02-07T10:30:07.000Z</time>
      </trkpt>
      <trkpt lat="43.04421" lon="-0.36474">
        <ele>1129.9</ele>
        <time>2026-02-07T10:30:10.000Z</time>
      </trkpt>
      <trkpt lat="43.04421" lon="-0.36474">
        <ele>1129.9</ele>
        <time>2026-02-07T10:30:13.000Z</time>
      </trkpt>
      <trkpt lat="43.04421" lon="-0.36474">
        <ele>1129.9</ele>
        <time>2026-02-07T10:30:16.000Z</time>
      </trkpt>
      <trkpt lat="43.04421" lon="-0.36474">
        <ele>1129.9</ele>
        <time>2026-02-07T10:30:19.000Z</time>
      </trkpt>
      <trkpt lat="43.04421" lon="-0.36474">
        <ele>1130</ele>
        <time>2026-02-07T10:30:22.000Z</time>
      </trkpt>
      <trkpt lat="43.04421" lon="-0.36474">
        <ele>1130</ele>
        <time>2026-02-07T10:30:25.000Z</time>
      </trkpt>
      <trkpt lat="43.04421" lon="-0.36474">
        <ele>1130</ele>
        <time>2026-02-07T10:30:28.000Z</time>
      </trkpt>
      <trkpt lat="43.04421" lon="-0.36474">
        <ele>1130</ele>
        <time>2026-02-07T10:30:31.000Z</time>
      </trkpt>
      <trkpt lat="43.04421" lon="-0.36474">
        <ele>1130</ele>
        <time>2026-02-07T10:30:34.000Z</time>
      </trkpt>
      <trkpt lat="43.04421" lon="-0.36474">
        <ele>1130</ele>
        <time>2026-02-07T10:30:37.000Z</time>
      </trkpt>
      <trkpt lat="43.04421" lon="-0.36474">
        <ele>1130</ele>
        <time>2026-02-07T10:30:40.000Z</time>
      </trkpt>
      <trkpt lat="43.04421" lon="-0.36474">
        <ele>1130</ele>
        <time>2026-02-07T10:30:43.000Z</time>
      </trkpt>
      <trkpt lat="43.04421" lon="-0.36474">
        <ele>1130</ele>
        <time>2026-02-07T10:30:46.000Z</time>
      </trkpt>
      <trkpt lat="43.04421" lon="-0.36474">
        <ele>1130</ele>
        <time>2026-02-07T10:30:49.000Z</time>
      </trkpt>
      <trkpt lat="43.04421" lon="-0.36474">
        <ele>1130</ele>
        <time>2026-02-07T10:30:52.000Z</time>
      </trkpt>
      <trkpt lat="43.04421" lon="-0.36474">
        <ele>1130</ele>
        <time>2026-02-07T10:30:55.000Z</time>
      </trkpt>
      <trkpt lat="43.04421" lon="-0.36474">
        <ele>1130</ele>
        <time>2026-02-07T10:30:58.000Z</time>
      </trkpt>
      <trkpt lat="43.04421" lon="-0.36474">
        <ele>1130</ele>
        <time>2026-02-07T10:31:01.000Z</time>
      </trkpt>
      <trkpt lat="43.04421" lon="-0.36474">
        <ele>1130</ele>
        <time>2026-02-07T10:31:04.000Z</time>
      </trkpt>
      <trkpt lat="43.04421" lon="-0.36474">
        <ele>1130</ele>
        <time>2026-02-07T10:31:07.000Z</time>
      </trkpt>
      <trkpt lat="43.04421" lon="-0.36474">
        <ele>1130</ele>
        <time>2026-02-07T10:31:10.000Z</time>
      </trkpt>
      <trkpt lat="43.04421" lon="-0.36474">
        <ele>1130</ele>
        <time>2026-02-07T10:31:13.000Z</time>
      </trkpt>
      <trkpt lat="43.04421" lon="-0.36474">
        <ele>1130</ele>
        <time>2026-02-07T10:31:16.000Z</time>
      </trkpt>
      <trkpt lat="43.04421" lon="-0.36474">
        <ele>1130</ele>
        <time>2026-02-07T10:31:19.000Z</time>
      </trkpt>
      <trkpt lat="43.04421" lon="-0.36474">
        <ele>1130</ele>
        <time>2026-02-07T10:31:22.000Z</time>
      </trkpt>
      <trkpt lat="43.04421" lon="-0.36474">
        <ele>1130</ele>
        <time>2026-02-07T10:31:25.000Z</time>
      </trkpt>
      <trkpt lat="43.04421" lon="-0.36474">
        <ele>1130</ele>
        <time>2026-02-07T10:31:28.000Z</time>
      </trkpt>
      <trkpt lat="43.04421" lon="-0.36474">
        <ele>1130</ele>
        <time>2026-02-07T10:31:31.000Z</time>
      </trkpt>
      <trkpt lat="43.04421" lon="-0.36474">
        <ele>1130</ele>
        <time>2026-02-07T10:31:34.000Z</time>
      </trkpt>
      <trkpt lat="43.04421" lon="-0.36474">
        <ele>1130</ele>
        <time>2026-02-07T10:31:37.000Z</time>
      </trkpt>
      <trkpt lat="43.04421" lon="-0.36474">
        <ele>1130</ele>
        <time>2026-02-07T10:31:40.000Z</time>
      </trkpt>
      <trkpt lat="43.04421" lon="-0.36474">
        <ele>1130</ele>
        <time>2026-02-07T10:31:43.000Z</time>
      </trkpt>
      <trkpt lat="43.04421" lon="-0.36474">
        <ele>1130</ele>
        <time>2026-02-07T10:31:46.000Z</time>
      </trkpt>
      <trkpt lat="43.04421" lon="-0.36474">
        <ele>1130</ele>
        <time>2026-02-07T10:31:49.000Z</time>
      </trkpt>
      <trkpt lat="43.04421" lon="-0.36474">
        <ele>1130</ele>
        <time>2026-02-07T10:31:52.000Z</time>
      </trkpt>
      <trkpt lat="43.04421" lon="-0.36474">
        <ele>1129.9</ele>
        <time>2026-02-07T10:31:55.000Z</time>
      </trkpt>
      <trkpt lat="43.04421" lon="-0.36474">
        <ele>1129.9</ele>
        <time>2026-02-07T10:31:58.000Z</time>
      </trkpt>
      <trkpt lat="43.04421" lon="-0.36474">
        <ele>1129.9</ele>
        <time>2026-02-07T10:32:01.000Z</time>
      </trkpt>
      <trkpt lat="43.04421" lon="-0.36474">
        <ele>1129.9</ele>
        <time>2026-02-07T10:32:04.000Z</time>
      </trkpt>
      <trkpt lat="43.04421" lon="-0.36474">
        <ele>1129.9</ele>
        <time>2026-02-07T10:32:07.000Z</time>
      </trkpt>
      <trkpt lat="43.04421" lon="-0.36474">
        <ele>1129.9</ele>
        <time>2026-02-07T10:32:10.000Z</time>
      </trkpt>
      <trkpt lat="43.04421" lon="-0.36474">
        <ele>1129.9</ele>
        <time>2026-02-07T10:32:13.000Z</time>
      </trkpt>
      <trkpt lat="43.04421" lon="-0.36474">
        <ele>1129.9</ele>
        <time>2026-02-07T10:32:16.000Z</time>
      </trkpt>
      <trkpt lat="43.04421" lon="-0.36474">
        <ele>1129.9</ele>
        <time>2026-02-07T10:32:19.000Z</time>
      </trkpt>
      <trkpt lat="43.04421" lon="-0.36474">
        <ele>1129.9</ele>
        <time>2026-02-07T10:32:22.000Z</time>
      </trkpt>
      <trkpt lat="43.04421" lon="-0.36474">
        <ele>1129.8</ele>
        <time>2026-02-07T10:32:25.000Z</time>
      </trkpt>
      <trkpt lat="43.04421" lon="-0.36474">
        <ele>1129.8</ele>
        <time>2026-02-07T10:32:28.000Z</time>
      </trkpt>
      <trkpt lat="43.04421" lon="-0.36474">
        <ele>1129.7</ele>
        <time>2026-02-07T10:32:31.000Z</time>
      </trkpt>
      <trkpt lat="43.04421" lon="-0.36474">
        <ele>1129.7</ele>
        <time>2026-02-07T10:32:34.000Z</time>
      </trkpt>
      <trkpt lat="43.04421" lon="-0.36474">
        <ele>1129.6</ele>
        <time>2026-02-07T10:32:37.000Z</time>
      </trkpt>
      <trkpt lat="43.04421" lon="-0.36474">
        <ele>1129.6</ele>
        <time>2026-02-07T10:32:40.000Z</time>
      </trkpt>
      <trkpt lat="43.04421" lon="-0.36474">
        <ele>1129.7</ele>
        <time>2026-02-07T10:32:43.000Z</time>
      </trkpt>
      <trkpt lat="43.04421" lon="-0.36474">
        <ele>1129.7</ele>
        <time>2026-02-07T10:32:46.000Z</time>
      </trkpt>
      <trkpt lat="43.04421" lon="-0.36474">
        <ele>1129.6</ele>
        <time>2026-02-07T10:32:49.000Z</time>
      </trkpt>
      <trkpt lat="43.04421" lon="-0.36474">
        <ele>1129.6</ele>
        <time>2026-02-07T10:32:52.000Z</time>
      </trkpt>
      <trkpt lat="43.04421" lon="-0.36474">
        <ele>1129.6</ele>
        <time>2026-02-07T10:32:55.000Z</time>
      </trkpt>
      <trkpt lat="43.04421" lon="-0.36474">
        <ele>1129.7</ele>
        <time>2026-02-07T10:32:58.000Z</time>
      </trkpt>
      <trkpt lat="43.04421" lon="-0.36474">
        <ele>1129.7</ele>
        <time>2026-02-07T10:33:01.000Z</time>
      </trkpt>
      <trkpt lat="43.04421" lon="-0.36474">
        <ele>1129.7</ele>
        <time>2026-02-07T10:33:04.000Z</time>
      </trkpt>
      <trkpt lat="43.04421" lon="-0.36474">
        <ele>1129.7</ele>
        <time>2026-02-07T10:33:07.000Z</time>
      </trkpt>
      <trkpt lat="43.04421" lon="-0.36474">
        <ele>1129.7</ele>
        <time>2026-02-07T10:33:10.000Z</time>
      </trkpt>
      <trkpt lat="43.04421" lon="-0.36474">
        <ele>1129.7</ele>
        <time>2026-02-07T10:33:13.000Z</time>
      </trkpt>
      <trkpt lat="43.04421" lon="-0.36474">
        <ele>1129.7</ele>
        <time>2026-02-07T10:33:16.000Z</time>
      </trkpt>
      <trkpt lat="43.04421" lon="-0.36474">
        <ele>1129.7</ele>
        <time>2026-02-07T10:33:19.000Z</time>
      </trkpt>
      <trkpt lat="43.04421" lon="-0.36474">
        <ele>1129.7</ele>
        <time>2026-02-07T10:33:22.000Z</time>
      </trkpt>
      <trkpt lat="43.04421" lon="-0.36474">
        <ele>1129.7</ele>
        <time>2026-02-07T10:33:25.000Z</time>
      </trkpt>
      <trkpt lat="43.04421" lon="-0.36474">
        <ele>1129.7</ele>
        <time>2026-02-07T10:33:28.000Z</time>
      </trkpt>
      <trkpt lat="43.04421" lon="-0.36474">
        <ele>1129.7</ele>
        <time>2026-02-07T10:33:31.000Z</time>
      </trkpt>
      <trkpt lat="43.04421" lon="-0.36474">
        <ele>1129.6</ele>
        <time>2026-02-07T10:33:34.000Z</time>
      </trkpt>
      <trkpt lat="43.04421" lon="-0.36474">
        <ele>1129.6</ele>
        <time>2026-02-07T10:33:37.000Z</time>
      </trkpt>
      <trkpt lat="43.04421" lon="-0.36474">
        <ele>1129.6</ele>
        <time>2026-02-07T10:33:40.000Z</time>
      </trkpt>
      <trkpt lat="43.04421" lon="-0.36474">
        <ele>1129.6</ele>
        <time>2026-02-07T10:33:43.000Z</time>
      </trkpt>
      <trkpt lat="43.04421" lon="-0.36474">
        <ele>1129.6</ele>
        <time>2026-02-07T10:33:46.000Z</time>
      </trkpt>
      <trkpt lat="43.04421" lon="-0.36474">
        <ele>1129.6</ele>
        <time>2026-02-07T10:33:49.000Z</time>
      </trkpt>
      <trkpt lat="43.04421" lon="-0.36474">
        <ele>1129.6</ele>
        <time>2026-02-07T10:33:52.000Z</time>
      </trkpt>
      <trkpt lat="43.04421" lon="-0.36474">
        <ele>1129.6</ele>
        <time>2026-02-07T10:33:55.000Z</time>
      </trkpt>
      <trkpt lat="43.04421" lon="-0.36474">
        <ele>1129.6</ele>
        <time>2026-02-07T10:33:58.000Z</time>
      </trkpt>
      <trkpt lat="43.04421" lon="-0.36474">
        <ele>1129.6</ele>
        <time>2026-02-07T10:34:01.000Z</time>
      </trkpt>
      <trkpt lat="43.04421" lon="-0.36474">
        <ele>1129.6</ele>
        <time>2026-02-07T10:34:04.000Z</time>
      </trkpt>
      <trkpt lat="43.04421" lon="-0.36473">
        <ele>1129.6</ele>
        <time>2026-02-07T10:34:07.000Z</time>
      </trkpt>
      <trkpt lat="43.04421" lon="-0.36473">
        <ele>1129.6</ele>
        <time>2026-02-07T10:34:10.000Z</time>
      </trkpt>
      <trkpt lat="43.04421" lon="-0.36473">
        <ele>1129.6</ele>
        <time>2026-02-07T10:34:13.000Z</time>
      </trkpt>
      <trkpt lat="43.04421" lon="-0.36473">
        <ele>1129.6</ele>
        <time>2026-02-07T10:34:16.000Z</time>
      </trkpt>
      <trkpt lat="43.04421" lon="-0.36473">
        <ele>1129.6</ele>
        <time>2026-02-07T10:34:19.000Z</time>
      </trkpt>
      <trkpt lat="43.04421" lon="-0.36473">
        <ele>1129.6</ele>
        <time>2026-02-07T10:34:22.000Z</time>
      </trkpt>
      <trkpt lat="43.04421" lon="-0.36473">
        <ele>1129.6</ele>
        <time>2026-02-07T10:34:25.000Z</time>
      </trkpt>
      <trkpt lat="43.04421" lon="-0.36473">
        <ele>1129.7</ele>
        <time>2026-02-07T10:34:28.000Z</time>
      </trkpt>
      <trkpt lat="43.04421" lon="-0.36473">
        <ele>1129.7</ele>
        <time>2026-02-07T10:34:31.000Z</time>
      </trkpt>
      <trkpt lat="43.04421" lon="-0.36473">
        <ele>1129.7</ele>
        <time>2026-02-07T10:34:34.000Z</time>
      </trkpt>
      <trkpt lat="43.04421" lon="-0.36473">
        <ele>1129.7</ele>
        <time>2026-02-07T10:34:37.000Z</time>
      </trkpt>
      <trkpt lat="43.04421" lon="-0.36473">
        <ele>1129.7</ele>
        <time>2026-02-07T10:34:40.000Z</time>
      </trkpt>
      <trkpt lat="43.04421" lon="-0.36473">
        <ele>1129.7</ele>
        <time>2026-02-07T10:34:43.000Z</time>
      </trkpt>
      <trkpt lat="43.04421" lon="-0.36473">
        <ele>1129.7</ele>
        <time>2026-02-07T10:34:46.000Z</time>
      </trkpt>
      <trkpt lat="43.04421" lon="-0.36473">
        <ele>1129.8</ele>
        <time>2026-02-07T10:34:49.000Z</time>
      </trkpt>
      <trkpt lat="43.04421" lon="-0.36473">
        <ele>1129.8</ele>
        <time>2026-02-07T10:34:52.000Z</time>
      </trkpt>
      <trkpt lat="43.04421" lon="-0.36473">
        <ele>1129.8</ele>
        <time>2026-02-07T10:34:55.000Z</time>
      </trkpt>
      <trkpt lat="43.04421" lon="-0.36473">
        <ele>1129.8</ele>
        <time>2026-02-07T10:34:58.000Z</time>
      </trkpt>
      <trkpt lat="43.04421" lon="-0.36473">
        <ele>1129.8</ele>
        <time>2026-02-07T10:35:01.000Z</time>
      </trkpt>
      <trkpt lat="43.04421" lon="-0.36473">
        <ele>1129.8</ele>
        <time>2026-02-07T10:35:04.000Z</time>
      </trkpt>
      <trkpt lat="43.04421" lon="-0.36473">
        <ele>1129.8</ele>
        <time>2026-02-07T10:35:07.000Z</time>
      </trkpt>
      <trkpt lat="43.04421" lon="-0.36473">
        <ele>1129.8</ele>
        <time>2026-02-07T10:35:10.000Z</time>
      </trkpt>
      <trkpt lat="43.04421" lon="-0.36473">
        <ele>1129.8</ele>
        <time>2026-02-07T10:35:13.000Z</time>
      </trkpt>
      <trkpt lat="43.04421" lon="-0.36473">
        <ele>1129.8</ele>
        <time>2026-02-07T10:35:16.000Z</time>
      </trkpt>
      <trkpt lat="43.04421" lon="-0.36473">
        <ele>1129.8</ele>
        <time>2026-02-07T10:35:19.000Z</time>
      </trkpt>
      <trkpt lat="43.04421" lon="-0.36473">
        <ele>1129.8</ele>
        <time>2026-02-07T10:35:22.000Z</time>
      </trkpt>
      <trkpt lat="43.04421" lon="-0.36473">
        <ele>1129.8</ele>
        <time>2026-02-07T10:35:25.000Z</time>
      </trkpt>
      <trkpt lat="43.04421" lon="-0.36473">
        <ele>1129.8</ele>
        <time>2026-02-07T10:35:28.000Z</time>
      </trkpt>
      <trkpt lat="43.04421" lon="-0.36473">
        <ele>1129.9</ele>
        <time>2026-02-07T10:35:31.000Z</time>
      </trkpt>
      <trkpt lat="43.04421" lon="-0.36473">
        <ele>1129.9</ele>
        <time>2026-02-07T10:35:34.000Z</time>
      </trkpt>
      <trkpt lat="43.04421" lon="-0.36473">
        <ele>1129.9</ele>
        <time>2026-02-07T10:35:37.000Z</time>
      </trkpt>
      <trkpt lat="43.04421" lon="-0.36473">
        <ele>1129.9</ele>
        <time>2026-02-07T10:35:40.000Z</time>
      </trkpt>
      <trkpt lat="43.04421" lon="-0.36473">
        <ele>1129.9</ele>
        <time>2026-02-07T10:35:43.000Z</time>
      </trkpt>
      <trkpt lat="43.04421" lon="-0.36473">
        <ele>1130</ele>
        <time>2026-02-07T10:35:46.000Z</time>
      </trkpt>
      <trkpt lat="43.04421" lon="-0.36473">
        <ele>1130</ele>
        <time>2026-02-07T10:35:49.000Z</time>
      </trkpt>
      <trkpt lat="43.04421" lon="-0.36473">
        <ele>1130</ele>
        <time>2026-02-07T10:35:52.000Z</time>
      </trkpt>
      <trkpt lat="43.04421" lon="-0.36473">
        <ele>1130</ele>
        <time>2026-02-07T10:35:55.000Z</time>
      </trkpt>
      <trkpt lat="43.04421" lon="-0.36473">
        <ele>1130</ele>
        <time>2026-02-07T10:35:58.000Z</time>
      </trkpt>
      <trkpt lat="43.04421" lon="-0.36473">
        <ele>1130</ele>
        <time>2026-02-07T10:36:01.000Z</time>
      </trkpt>
      <trkpt lat="43.04421" lon="-0.36473">
        <ele>1130</ele>
        <time>2026-02-07T10:36:04.000Z</time>
      </trkpt>
      <trkpt lat="43.04421" lon="-0.36473">
        <ele>1130</ele>
        <time>2026-02-07T10:36:07.000Z</time>
      </trkpt>
      <trkpt lat="43.04421" lon="-0.36473">
        <ele>1130</ele>
        <time>2026-02-07T10:36:10.000Z</time>
      </trkpt>
      <trkpt lat="43.04421" lon="-0.36473">
        <ele>1130</ele>
        <time>2026-02-07T10:36:13.000Z</time>
      </trkpt>
      <trkpt lat="43.04421" lon="-0.36473">
        <ele>1130</ele>
        <time>2026-02-07T10:36:16.000Z</time>
      </trkpt>
      <trkpt lat="43.04421" lon="-0.36473">
        <ele>1130</ele>
        <time>2026-02-07T10:36:19.000Z</time>
      </trkpt>
      <trkpt lat="43.04421" lon="-0.36473">
        <ele>1130</ele>
        <time>2026-02-07T10:36:22.000Z</time>
      </trkpt>
      <trkpt lat="43.04421" lon="-0.36473">
        <ele>1130</ele>
        <time>2026-02-07T10:36:25.000Z</time>
      </trkpt>
      <trkpt lat="43.04421" lon="-0.36473">
        <ele>1130</ele>
        <time>2026-02-07T10:36:28.000Z</time>
      </trkpt>
      <trkpt lat="43.04421" lon="-0.36473">
        <ele>1130</ele>
        <time>2026-02-07T10:36:31.000Z</time>
      </trkpt>
      <trkpt lat="43.04421" lon="-0.36473">
        <ele>1130</ele>
        <time>2026-02-07T10:36:34.000Z</time>
      </trkpt>
      <trkpt lat="43.04421" lon="-0.36473">
        <ele>1130</ele>
        <time>2026-02-07T10:36:37.000Z</time>
      </trkpt>
      <trkpt lat="43.04421" lon="-0.36473">
        <ele>1130</ele>
        <time>2026-02-07T10:36:40.000Z</time>
      </trkpt>
      <trkpt lat="43.04421" lon="-0.36473">
        <ele>1130</ele>
        <time>2026-02-07T10:36:43.000Z</time>
      </trkpt>
      <trkpt lat="43.04421" lon="-0.36473">
        <ele>1130</ele>
        <time>2026-02-07T10:36:46.000Z</time>
      </trkpt>
      <trkpt lat="43.04421" lon="-0.36473">
        <ele>1130</ele>
        <time>2026-02-07T10:36:49.000Z</time>
      </trkpt>
      <trkpt lat="43.04421" lon="-0.36473">
        <ele>1129.9</ele>
        <time>2026-02-07T10:36:52.000Z</time>
      </trkpt>
      <trkpt lat="43.04421" lon="-0.36473">
        <ele>1129.9</ele>
        <time>2026-02-07T10:36:55.000Z</time>
      </trkpt>
      <trkpt lat="43.04421" lon="-0.36473">
        <ele>1129.8</ele>
        <time>2026-02-07T10:36:58.000Z</time>
      </trkpt>
      <trkpt lat="43.04421" lon="-0.36473">
        <ele>1129.8</ele>
        <time>2026-02-07T10:37:01.000Z</time>
      </trkpt>
      <trkpt lat="43.04421" lon="-0.36473">
        <ele>1129.7</ele>
        <time>2026-02-07T10:37:04.000Z</time>
      </trkpt>
      <trkpt lat="43.04421" lon="-0.36473">
        <ele>1129.7</ele>
        <time>2026-02-07T10:37:07.000Z</time>
      </trkpt>
      <trkpt lat="43.04421" lon="-0.36473">
        <ele>1129.7</ele>
        <time>2026-02-07T10:37:10.000Z</time>
      </trkpt>
      <trkpt lat="43.04421" lon="-0.36473">
        <ele>1129.7</ele>
        <time>2026-02-07T10:37:13.000Z</time>
      </trkpt>
      <trkpt lat="43.04421" lon="-0.36473">
        <ele>1129.8</ele>
        <time>2026-02-07T10:37:16.000Z</time>
      </trkpt>
      <trkpt lat="43.04421" lon="-0.36473">
        <ele>1129.8</ele>
        <time>2026-02-07T10:37:19.000Z</time>
      </trkpt>
      <trkpt lat="43.04421" lon="-0.36473">
        <ele>1129.8</ele>
        <time>2026-02-07T10:37:22.000Z</time>
      </trkpt>
      <trkpt lat="43.04421" lon="-0.36473">
        <ele>1129.8</ele>
        <time>2026-02-07T10:37:25.000Z</time>
      </trkpt>
      <trkpt lat="43.04421" lon="-0.36473">
        <ele>1129.9</ele>
        <time>2026-02-07T10:37:28.000Z</time>
      </trkpt>
      <trkpt lat="43.04421" lon="-0.36473">
        <ele>1129.9</ele>
        <time>2026-02-07T10:37:31.000Z</time>
      </trkpt>
      <trkpt lat="43.04421" lon="-0.36473">
        <ele>1130</ele>
        <time>2026-02-07T10:37:34.000Z</time>
      </trkpt>
      <trkpt lat="43.04421" lon="-0.36473">
        <ele>1130</ele>
        <time>2026-02-07T10:37:37.000Z</time>
      </trkpt>
      <trkpt lat="43.04421" lon="-0.36473">
        <ele>1130.1</ele>
        <time>2026-02-07T10:37:40.000Z</time>
      </trkpt>
      <trkpt lat="43.04421" lon="-0.36473">
        <ele>1130.1</ele>
        <time>2026-02-07T10:37:43.000Z</time>
      </trkpt>
      <trkpt lat="43.04421" lon="-0.36473">
        <ele>1130.2</ele>
        <time>2026-02-07T10:37:46.000Z</time>
      </trkpt>
      <trkpt lat="43.04421" lon="-0.36473">
        <ele>1130.2</ele>
        <time>2026-02-07T10:37:49.000Z</time>
      </trkpt>
      <trkpt lat="43.04421" lon="-0.36473">
        <ele>1130.2</ele>
        <time>2026-02-07T10:37:52.000Z</time>
      </trkpt>
      <trkpt lat="43.04421" lon="-0.36473">
        <ele>1130.2</ele>
        <time>2026-02-07T10:37:55.000Z</time>
      </trkpt>
      <trkpt lat="43.04421" lon="-0.36473">
        <ele>1130.2</ele>
        <time>2026-02-07T10:37:58.000Z</time>
      </trkpt>
      <trkpt lat="43.04421" lon="-0.36473">
        <ele>1130.2</ele>
        <time>2026-02-07T10:38:01.000Z</time>
      </trkpt>
      <trkpt lat="43.04421" lon="-0.36473">
        <ele>1130.1</ele>
        <time>2026-02-07T10:38:04.000Z</time>
      </trkpt>
      <trkpt lat="43.04421" lon="-0.36473">
        <ele>1130.1</ele>
        <time>2026-02-07T10:38:07.000Z</time>
      </trkpt>
      <trkpt lat="43.04421" lon="-0.36473">
        <ele>1130.1</ele>
        <time>2026-02-07T10:38:10.000Z</time>
      </trkpt>
      <trkpt lat="43.04421" lon="-0.36473">
        <ele>1130.1</ele>
        <time>2026-02-07T10:38:13.000Z</time>
      </trkpt>
      <trkpt lat="43.04421" lon="-0.36473">
        <ele>1130.1</ele>
        <time>2026-02-07T10:38:16.000Z</time>
      </trkpt>
      <trkpt lat="43.04421" lon="-0.36473">
        <ele>1130.1</ele>
        <time>2026-02-07T10:38:19.000Z</time>
      </trkpt>
      <trkpt lat="43.04421" lon="-0.36473">
        <ele>1130</ele>
        <time>2026-02-07T10:38:22.000Z</time>
      </trkpt>
      <trkpt lat="43.04421" lon="-0.36473">
        <ele>1130</ele>
        <time>2026-02-07T10:38:25.000Z</time>
      </trkpt>
      <trkpt lat="43.04421" lon="-0.36473">
        <ele>1129.9</ele>
        <time>2026-02-07T10:38:28.000Z</time>
      </trkpt>
      <trkpt lat="43.04421" lon="-0.36473">
        <ele>1129.9</ele>
        <time>2026-02-07T10:38:31.000Z</time>
      </trkpt>
      <trkpt lat="43.04421" lon="-0.36473">
        <ele>1129.9</ele>
        <time>2026-02-07T10:38:34.000Z</time>
      </trkpt>
      <trkpt lat="43.04421" lon="-0.36473">
        <ele>1129.8</ele>
        <time>2026-02-07T10:38:37.000Z</time>
      </trkpt>
      <trkpt lat="43.04421" lon="-0.36473">
        <ele>1129.8</ele>
        <time>2026-02-07T10:38:40.000Z</time>
      </trkpt>
      <trkpt lat="43.04421" lon="-0.36473">
        <ele>1129.7</ele>
        <time>2026-02-07T10:38:43.000Z</time>
      </trkpt>
      <trkpt lat="43.04421" lon="-0.36473">
        <ele>1129.6</ele>
        <time>2026-02-07T10:38:46.000Z</time>
      </trkpt>
      <trkpt lat="43.04421" lon="-0.36473">
        <ele>1129.6</ele>
        <time>2026-02-07T10:38:49.000Z</time>
      </trkpt>
      <trkpt lat="43.04421" lon="-0.36473">
        <ele>1129.6</ele>
        <time>2026-02-07T10:38:52.000Z</time>
      </trkpt>
      <trkpt lat="43.04421" lon="-0.36473">
        <ele>1129.6</ele>
        <time>2026-02-07T10:38:55.000Z</time>
      </trkpt>
      <trkpt lat="43.04421" lon="-0.36473">
        <ele>1129.7</ele>
        <time>2026-02-07T10:38:58.000Z</time>
      </trkpt>
      <trkpt lat="43.04421" lon="-0.36473">
        <ele>1129.7</ele>
        <time>2026-02-07T10:39:01.000Z</time>
      </trkpt>
      <trkpt lat="43.04421" lon="-0.36473">
        <ele>1129.7</ele>
        <time>2026-02-07T10:39:04.000Z</time>
      </trkpt>
      <trkpt lat="43.04421" lon="-0.36473">
        <ele>1129.7</ele>
        <time>2026-02-07T10:39:07.000Z</time>
      </trkpt>
      <trkpt lat="43.04421" lon="-0.36473">
        <ele>1129.7</ele>
        <time>2026-02-07T10:39:10.000Z</time>
      </trkpt>
      <trkpt lat="43.04421" lon="-0.36473">
        <ele>1129.7</ele>
        <time>2026-02-07T10:39:13.000Z</time>
      </trkpt>
      <trkpt lat="43.04421" lon="-0.36473">
        <ele>1129.7</ele>
        <time>2026-02-07T10:39:16.000Z</time>
      </trkpt>
      <trkpt lat="43.04421" lon="-0.36473">
        <ele>1129.8</ele>
        <time>2026-02-07T10:39:19.000Z</time>
      </trkpt>
      <trkpt lat="43.04421" lon="-0.36473">
        <ele>1129.8</ele>
        <time>2026-02-07T10:39:22.000Z</time>
      </trkpt>
      <trkpt lat="43.04421" lon="-0.36473">
        <ele>1129.9</ele>
        <time>2026-02-07T10:39:25.000Z</time>
      </trkpt>
      <trkpt lat="43.04421" lon="-0.36473">
        <ele>1129.9</ele>
        <time>2026-02-07T10:39:28.000Z</time>
      </trkpt>
      <trkpt lat="43.04421" lon="-0.36473">
        <ele>1129.9</ele>
        <time>2026-02-07T10:39:31.000Z</time>
      </trkpt>
      <trkpt lat="43.04421" lon="-0.36473">
        <ele>1129.9</ele>
        <time>2026-02-07T10:39:34.000Z</time>
      </trkpt>
      <trkpt lat="43.04421" lon="-0.36473">
        <ele>1129.9</ele>
        <time>2026-02-07T10:39:37.000Z</time>
      </trkpt>
      <trkpt lat="43.04421" lon="-0.36473">
        <ele>1129.9</ele>
        <time>2026-02-07T10:39:40.000Z</time>
      </trkpt>
      <trkpt lat="43.04421" lon="-0.36473">
        <ele>1129.9</ele>
        <time>2026-02-07T10:39:43.000Z</time>
      </trkpt>
      <trkpt lat="43.04421" lon="-0.36473">
        <ele>1129.9</ele>
        <time>2026-02-07T10:39:46.000Z</time>
      </trkpt>
      <trkpt lat="43.04421" lon="-0.36473">
        <ele>1129.9</ele>
        <time>2026-02-07T10:39:49.000Z</time>
      </trkpt>
      <trkpt lat="43.04421" lon="-0.36473">
        <ele>1129.9</ele>
        <time>2026-02-07T10:39:52.000Z</time>
      </trkpt>
      <trkpt lat="43.04421" lon="-0.36473">
        <ele>1129.9</ele>
        <time>2026-02-07T10:39:55.000Z</time>
      </trkpt>
      <trkpt lat="43.04421" lon="-0.36473">
        <ele>1129.9</ele>
        <time>2026-02-07T10:39:58.000Z</time>
      </trkpt>
      <trkpt lat="43.04421" lon="-0.36473">
        <ele>1129.9</ele>
        <time>2026-02-07T10:40:01.000Z</time>
      </trkpt>
      <trkpt lat="43.04421" lon="-0.36473">
        <ele>1129.9</ele>
        <time>2026-02-07T10:40:04.000Z</time>
      </trkpt>
      <trkpt lat="43.04421" lon="-0.36473">
        <ele>1129.9</ele>
        <time>2026-02-07T10:40:05.000Z</time>
      </trkpt>
      <trkpt lat="43.04421" lon="-0.36473">
        <ele>1129.9</ele>
        <time>2026-02-07T10:40:06.000Z</time>
      </trkpt>
      <trkpt lat="43.0442" lon="-0.36473">
        <ele>1130</ele>
        <time>2026-02-07T10:40:09.000Z</time>
      </trkpt>
      <trkpt lat="43.0442" lon="-0.36474">
        <ele>1130</ele>
        <time>2026-02-07T10:40:12.000Z</time>
      </trkpt>
      <trkpt lat="43.04421" lon="-0.36474">
        <ele>1130.1</ele>
        <time>2026-02-07T10:40:14.000Z</time>
      </trkpt>
      <trkpt lat="43.04421" lon="-0.36474">
        <ele>1130.1</ele>
        <time>2026-02-07T10:40:15.000Z</time>
      </trkpt>
      <trkpt lat="43.04421" lon="-0.36474">
        <ele>1130.1</ele>
        <time>2026-02-07T10:40:16.000Z</time>
      </trkpt>
      <trkpt lat="43.04421" lon="-0.36473">
        <ele>1130.1</ele>
        <time>2026-02-07T10:40:19.000Z</time>
      </trkpt>
      <trkpt lat="43.04421" lon="-0.36473">
        <ele>1130.1</ele>
        <time>2026-02-07T10:40:20.000Z</time>
      </trkpt>
      <trkpt lat="43.04421" lon="-0.36473">
        <ele>1130.1</ele>
        <time>2026-02-07T10:40:21.000Z</time>
      </trkpt>
      <trkpt lat="43.04421" lon="-0.36473">
        <ele>1130.1</ele>
        <time>2026-02-07T10:40:22.000Z</time>
      </trkpt>
      <trkpt lat="43.04421" lon="-0.36473">
        <ele>1130.1</ele>
        <time>2026-02-07T10:40:23.000Z</time>
      </trkpt>
      <trkpt lat="43.04421" lon="-0.36473">
        <ele>1130.2</ele>
        <time>2026-02-07T10:40:24.000Z</time>
      </trkpt>
      <trkpt lat="43.04421" lon="-0.36473">
        <ele>1130.2</ele>
        <time>2026-02-07T10:40:27.000Z</time>
      </trkpt>
      <trkpt lat="43.04421" lon="-0.36473">
        <ele>1130.3</ele>
        <time>2026-02-07T10:40:30.000Z</time>
      </trkpt>
      <trkpt lat="43.04421" lon="-0.36473">
        <ele>1130.3</ele>
        <time>2026-02-07T10:40:33.000Z</time>
      </trkpt>
      <trkpt lat="43.04421" lon="-0.36473">
        <ele>1130.4</ele>
        <time>2026-02-07T10:40:35.000Z</time>
      </trkpt>
      <trkpt lat="43.04421" lon="-0.36473">
        <ele>1130.4</ele>
        <time>2026-02-07T10:40:36.000Z</time>
      </trkpt>
      <trkpt lat="43.04421" lon="-0.36473">
        <ele>1130.4</ele>
        <time>2026-02-07T10:40:39.000Z</time>
      </trkpt>
      <trkpt lat="43.04421" lon="-0.36473">
        <ele>1130.4</ele>
        <time>2026-02-07T10:40:40.000Z</time>
      </trkpt>
      <trkpt lat="43.04421" lon="-0.36472">
        <ele>1130.4</ele>
        <time>2026-02-07T10:40:41.000Z</time>
      </trkpt>
      <trkpt lat="43.04421" lon="-0.36472">
        <ele>1130.4</ele>
        <time>2026-02-07T10:40:44.000Z</time>
      </trkpt>
      <trkpt lat="43.04421" lon="-0.36472">
        <ele>1130.4</ele>
        <time>2026-02-07T10:40:45.000Z</time>
      </trkpt>
      <trkpt lat="43.04421" lon="-0.36473">
        <ele>1130.4</ele>
        <time>2026-02-07T10:40:46.000Z</time>
      </trkpt>
      <trkpt lat="43.04421" lon="-0.36473">
        <ele>1130.5</ele>
        <time>2026-02-07T10:40:47.000Z</time>
      </trkpt>
      <trkpt lat="43.04421" lon="-0.36473">
        <ele>1130.5</ele>
        <time>2026-02-07T10:40:48.000Z</time>
      </trkpt>
      <trkpt lat="43.04421" lon="-0.36473">
        <ele>1130.5</ele>
        <time>2026-02-07T10:40:49.000Z</time>
      </trkpt>
      <trkpt lat="43.04421" lon="-0.36473">
        <ele>1130.5</ele>
        <time>2026-02-07T10:40:52.000Z</time>
      </trkpt>
      <trkpt lat="43.04421" lon="-0.36473">
        <ele>1130.5</ele>
        <time>2026-02-07T10:40:55.000Z</time>
      </trkpt>
      <trkpt lat="43.04421" lon="-0.36473">
        <ele>1130.5</ele>
        <time>2026-02-07T10:40:58.000Z</time>
      </trkpt>
      <trkpt lat="43.04421" lon="-0.36473">
        <ele>1130.5</ele>
        <time>2026-02-07T10:41:00.000Z</time>
      </trkpt>
      <trkpt lat="43.0442" lon="-0.36473">
        <ele>1130.5</ele>
        <time>2026-02-07T10:41:01.000Z</time>
      </trkpt>
      <trkpt lat="43.0442" lon="-0.36473">
        <ele>1130.5</ele>
        <time>2026-02-07T10:41:02.000Z</time>
      </trkpt>
      <trkpt lat="43.0442" lon="-0.36473">
        <ele>1130.5</ele>
        <time>2026-02-07T10:41:03.000Z</time>
      </trkpt>
      <trkpt lat="43.0442" lon="-0.36473">
        <ele>1130.6</ele>
        <time>2026-02-07T10:41:06.000Z</time>
      </trkpt>
      <trkpt lat="43.04419" lon="-0.36474">
        <ele>1130.6</ele>
        <time>2026-02-07T10:41:09.000Z</time>
      </trkpt>
      <trkpt lat="43.04418" lon="-0.36475">
        <ele>1130.6</ele>
        <time>2026-02-07T10:41:10.000Z</time>
      </trkpt>
      <trkpt lat="43.04417" lon="-0.36476">
        <ele>1130.6</ele>
        <time>2026-02-07T10:41:11.000Z</time>
      </trkpt>
      <trkpt lat="43.04417" lon="-0.36479">
        <ele>1130.6</ele>
        <time>2026-02-07T10:41:14.000Z</time>
      </trkpt>
      <trkpt lat="43.04415" lon="-0.36481">
        <ele>1130.7</ele>
        <time>2026-02-07T10:41:17.000Z</time>
      </trkpt>
      <trkpt lat="43.04413" lon="-0.36484">
        <ele>1130.8</ele>
        <time>2026-02-07T10:41:20.000Z</time>
      </trkpt>
      <trkpt lat="43.04412" lon="-0.36487">
        <ele>1130.9</ele>
        <time>2026-02-07T10:41:23.000Z</time>
      </trkpt>
      <trkpt lat="43.0441" lon="-0.3649">
        <ele>1131</ele>
        <time>2026-02-07T10:41:26.000Z</time>
      </trkpt>
      <trkpt lat="43.04409" lon="-0.36493">
        <ele>1131.2</ele>
        <time>2026-02-07T10:41:29.000Z</time>
      </trkpt>
      <trkpt lat="43.04408" lon="-0.36496">
        <ele>1131.5</ele>
        <time>2026-02-07T10:41:32.000Z</time>
      </trkpt>
      <trkpt lat="43.04406" lon="-0.365">
        <ele>1131.8</ele>
        <time>2026-02-07T10:41:35.000Z</time>
      </trkpt>
      <trkpt lat="43.04405" lon="-0.36504">
        <ele>1132.2</ele>
        <time>2026-02-07T10:41:38.000Z</time>
      </trkpt>
      <trkpt lat="43.04402" lon="-0.36507">
        <ele>1132.5</ele>
        <time>2026-02-07T10:41:41.000Z</time>
      </trkpt>
      <trkpt lat="43.04399" lon="-0.36509">
        <ele>1132.8</ele>
        <time>2026-02-07T10:41:44.000Z</time>
      </trkpt>
      <trkpt lat="43.04396" lon="-0.3651">
        <ele>1133.1</ele>
        <time>2026-02-07T10:41:47.000Z</time>
      </trkpt>
      <trkpt lat="43.04393" lon="-0.36512">
        <ele>1133.4</ele>
        <time>2026-02-07T10:41:50.000Z</time>
      </trkpt>
      <trkpt lat="43.0439" lon="-0.36513">
        <ele>1133.7</ele>
        <time>2026-02-07T10:41:53.000Z</time>
      </trkpt>
      <trkpt lat="43.04387" lon="-0.36514">
        <ele>1134</ele>
        <time>2026-02-07T10:41:56.000Z</time>
      </trkpt>
      <trkpt lat="43.04384" lon="-0.36514">
        <ele>1134.4</ele>
        <time>2026-02-07T10:41:59.000Z</time>
      </trkpt>
      <trkpt lat="43.04381" lon="-0.36514">
        <ele>1134.7</ele>
        <time>2026-02-07T10:42:02.000Z</time>
      </trkpt>
      <trkpt lat="43.04378" lon="-0.36514">
        <ele>1134.8</ele>
        <time>2026-02-07T10:42:05.000Z</time>
      </trkpt>
      <trkpt lat="43.04375" lon="-0.36514">
        <ele>1135</ele>
        <time>2026-02-07T10:42:08.000Z</time>
      </trkpt>
      <trkpt lat="43.04373" lon="-0.36514">
        <ele>1135.1</ele>
        <time>2026-02-07T10:42:11.000Z</time>
      </trkpt>
      <trkpt lat="43.0437" lon="-0.36513">
        <ele>1135.3</ele>
        <time>2026-02-07T10:42:14.000Z</time>
      </trkpt>
      <trkpt lat="43.04367" lon="-0.36512">
        <ele>1135.5</ele>
        <time>2026-02-07T10:42:17.000Z</time>
      </trkpt>
      <trkpt lat="43.04364" lon="-0.36511">
        <ele>1135.7</ele>
        <time>2026-02-07T10:42:20.000Z</time>
      </trkpt>
      <trkpt lat="43.04361" lon="-0.36511">
        <ele>1136</ele>
        <time>2026-02-07T10:42:23.000Z</time>
      </trkpt>
      <trkpt lat="43.04359" lon="-0.36509">
        <ele>1136.2</ele>
        <time>2026-02-07T10:42:26.000Z</time>
      </trkpt>
      <trkpt lat="43.04356" lon="-0.36508">
        <ele>1136.5</ele>
        <time>2026-02-07T10:42:29.000Z</time>
      </trkpt>
      <trkpt lat="43.04354" lon="-0.36507">
        <ele>1136.9</ele>
        <time>2026-02-07T10:42:32.000Z</time>
      </trkpt>
      <trkpt lat="43.04351" lon="-0.36506">
        <ele>1137.1</ele>
        <time>2026-02-07T10:42:35.000Z</time>
      </trkpt>
      <trkpt lat="43.04348" lon="-0.36504">
        <ele>1137.5</ele>
        <time>2026-02-07T10:42:38.000Z</time>
      </trkpt>
      <trkpt lat="43.04346" lon="-0.36504">
        <ele>1137.9</ele>
        <time>2026-02-07T10:42:41.000Z</time>
      </trkpt>
      <trkpt lat="43.04344" lon="-0.36503">
        <ele>1138.2</ele>
        <time>2026-02-07T10:42:44.000Z</time>
      </trkpt>
      <trkpt lat="43.04342" lon="-0.36502">
        <ele>1138.6</ele>
        <time>2026-02-07T10:42:47.000Z</time>
      </trkpt>
      <trkpt lat="43.04339" lon="-0.36501">
        <ele>1139</ele>
        <time>2026-02-07T10:42:50.000Z</time>
      </trkpt>
      <trkpt lat="43.04337" lon="-0.365">
        <ele>1139.3</ele>
        <time>2026-02-07T10:42:53.000Z</time>
      </trkpt>
      <trkpt lat="43.04335" lon="-0.36499">
        <ele>1139.6</ele>
        <time>2026-02-07T10:42:56.000Z</time>
      </trkpt>
      <trkpt lat="43.04333" lon="-0.36498">
        <ele>1140.1</ele>
        <time>2026-02-07T10:42:59.000Z</time>
      </trkpt>
      <trkpt lat="43.04331" lon="-0.36497">
        <ele>1140.5</ele>
        <time>2026-02-07T10:43:02.000Z</time>
      </trkpt>
      <trkpt lat="43.04328" lon="-0.36495">
        <ele>1141</ele>
        <time>2026-02-07T10:43:05.000Z</time>
      </trkpt>
      <trkpt lat="43.04326" lon="-0.36494">
        <ele>1141.5</ele>
        <time>2026-02-07T10:43:08.000Z</time>
      </trkpt>
      <trkpt lat="43.04323" lon="-0.36493">
        <ele>1141.9</ele>
        <time>2026-02-07T10:43:11.000Z</time>
      </trkpt>
      <trkpt lat="43.04321" lon="-0.36491">
        <ele>1142.3</ele>
        <time>2026-02-07T10:43:14.000Z</time>
      </trkpt>
      <trkpt lat="43.04318" lon="-0.3649">
        <ele>1142.6</ele>
        <time>2026-02-07T10:43:17.000Z</time>
      </trkpt>
      <trkpt lat="43.04316" lon="-0.36488">
        <ele>1142.9</ele>
        <time>2026-02-07T10:43:20.000Z</time>
      </trkpt>
      <trkpt lat="43.04313" lon="-0.36487">
        <ele>1143.2</ele>
        <time>2026-02-07T10:43:23.000Z</time>
      </trkpt>
      <trkpt lat="43.04311" lon="-0.36486">
        <ele>1143.5</ele>
        <time>2026-02-07T10:43:26.000Z</time>
      </trkpt>
      <trkpt lat="43.04309" lon="-0.36487">
        <ele>1144</ele>
        <time>2026-02-07T10:43:29.000Z</time>
      </trkpt>
      <trkpt lat="43.04307" lon="-0.36487">
        <ele>1144.3</ele>
        <time>2026-02-07T10:43:32.000Z</time>
      </trkpt>
      <trkpt lat="43.04304" lon="-0.36488">
        <ele>1144.7</ele>
        <time>2026-02-07T10:43:35.000Z</time>
      </trkpt>
      <trkpt lat="43.04302" lon="-0.36489">
        <ele>1145</ele>
        <time>2026-02-07T10:43:38.000Z</time>
      </trkpt>
      <trkpt lat="43.043" lon="-0.3649">
        <ele>1145.4</ele>
        <time>2026-02-07T10:43:41.000Z</time>
      </trkpt>
      <trkpt lat="43.04298" lon="-0.36492">
        <ele>1145.7</ele>
        <time>2026-02-07T10:43:44.000Z</time>
      </trkpt>
      <trkpt lat="43.04296" lon="-0.36493">
        <ele>1146.1</ele>
        <time>2026-02-07T10:43:47.000Z</time>
      </trkpt>
      <trkpt lat="43.04294" lon="-0.36493">
        <ele>1146.4</ele>
        <time>2026-02-07T10:43:50.000Z</time>
      </trkpt>
      <trkpt lat="43.04292" lon="-0.36493">
        <ele>1146.7</ele>
        <time>2026-02-07T10:43:53.000Z</time>
      </trkpt>
      <trkpt lat="43.0429" lon="-0.36492">
        <ele>1147.1</ele>
        <time>2026-02-07T10:43:56.000Z</time>
      </trkpt>
      <trkpt lat="43.04288" lon="-0.36491">
        <ele>1147.3</ele>
        <time>2026-02-07T10:43:59.000Z</time>
      </trkpt>
      <trkpt lat="43.04285" lon="-0.36491">
        <ele>1147.6</ele>
        <time>2026-02-07T10:44:02.000Z</time>
      </trkpt>
      <trkpt lat="43.04283" lon="-0.36491">
        <ele>1147.9</ele>
        <time>2026-02-07T10:44:05.000Z</time>
      </trkpt>
      <trkpt lat="43.0428" lon="-0.36491">
        <ele>1148.3</ele>
        <time>2026-02-07T10:44:08.000Z</time>
      </trkpt>
      <trkpt lat="43.04277" lon="-0.3649">
        <ele>1148.6</ele>
        <time>2026-02-07T10:44:11.000Z</time>
      </trkpt>
      <trkpt lat="43.04275" lon="-0.3649">
        <ele>1149</ele>
        <time>2026-02-07T10:44:14.000Z</time>
      </trkpt>
      <trkpt lat="43.04274" lon="-0.3649">
        <ele>1149.3</ele>
        <time>2026-02-07T10:44:17.000Z</time>
      </trkpt>
      <trkpt lat="43.04271" lon="-0.36489">
        <ele>1149.7</ele>
        <time>2026-02-07T10:44:20.000Z</time>
      </trkpt>
      <trkpt lat="43.04268" lon="-0.36488">
        <ele>1150.1</ele>
        <time>2026-02-07T10:44:23.000Z</time>
      </trkpt>
      <trkpt lat="43.04267" lon="-0.36487">
        <ele>1150.6</ele>
        <time>2026-02-07T10:44:26.000Z</time>
      </trkpt>
      <trkpt lat="43.04265" lon="-0.36485">
        <ele>1151.2</ele>
        <time>2026-02-07T10:44:29.000Z</time>
      </trkpt>
      <trkpt lat="43.04264" lon="-0.36484">
        <ele>1151.7</ele>
        <time>2026-02-07T10:44:32.000Z</time>
      </trkpt>
      <trkpt lat="43.04261" lon="-0.36482">
        <ele>1152.2</ele>
        <time>2026-02-07T10:44:35.000Z</time>
      </trkpt>
      <trkpt lat="43.04257" lon="-0.3648">
        <ele>1152.8</ele>
        <time>2026-02-07T10:44:38.000Z</time>
      </trkpt>
      <trkpt lat="43.04255" lon="-0.36478">
        <ele>1153.2</ele>
        <time>2026-02-07T10:44:41.000Z</time>
      </trkpt>
      <trkpt lat="43.04251" lon="-0.36476">
        <ele>1153.6</ele>
        <time>2026-02-07T10:44:44.000Z</time>
      </trkpt>
      <trkpt lat="43.04248" lon="-0.36474">
        <ele>1154</ele>
        <time>2026-02-07T10:44:47.000Z</time>
      </trkpt>
      <trkpt lat="43.04247" lon="-0.36473">
        <ele>1154.3</ele>
        <time>2026-02-07T10:44:50.000Z</time>
      </trkpt>
      <trkpt lat="43.04244" lon="-0.36472">
        <ele>1154.8</ele>
        <time>2026-02-07T10:44:53.000Z</time>
      </trkpt>
      <trkpt lat="43.04243" lon="-0.3647">
        <ele>1155.2</ele>
        <time>2026-02-07T10:44:56.000Z</time>
      </trkpt>
      <trkpt lat="43.04244" lon="-0.36466">
        <ele>1155.7</ele>
        <time>2026-02-07T10:44:59.000Z</time>
      </trkpt>
      <trkpt lat="43.04244" lon="-0.36465">
        <ele>1155.7</ele>
        <time>2026-02-07T10:45:00.000Z</time>
      </trkpt>
      <trkpt lat="43.04244" lon="-0.36466">
        <ele>1155.8</ele>
        <time>2026-02-07T10:45:01.000Z</time>
      </trkpt>
      <trkpt lat="43.04244" lon="-0.36465">
        <ele>1156</ele>
        <time>2026-02-07T10:45:04.000Z</time>
      </trkpt>
      <trkpt lat="43.04244" lon="-0.36464">
        <ele>1156.1</ele>
        <time>2026-02-07T10:45:07.000Z</time>
      </trkpt>
      <trkpt lat="43.04243" lon="-0.36464">
        <ele>1156.2</ele>
        <time>2026-02-07T10:45:08.000Z</time>
      </trkpt>
      <trkpt lat="43.04243" lon="-0.36461">
        <ele>1156.4</ele>
        <time>2026-02-07T10:45:11.000Z</time>
      </trkpt>
      <trkpt lat="43.04241" lon="-0.3646">
        <ele>1156.7</ele>
        <time>2026-02-07T10:45:14.000Z</time>
      </trkpt>
      <trkpt lat="43.04238" lon="-0.36459">
        <ele>1157.1</ele>
        <time>2026-02-07T10:45:17.000Z</time>
      </trkpt>
      <trkpt lat="43.04235" lon="-0.36458">
        <ele>1157.5</ele>
        <time>2026-02-07T10:45:20.000Z</time>
      </trkpt>
      <trkpt lat="43.04234" lon="-0.36456">
        <ele>1157.9</ele>
        <time>2026-02-07T10:45:23.000Z</time>
      </trkpt>
      <trkpt lat="43.04231" lon="-0.36453">
        <ele>1158.4</ele>
        <time>2026-02-07T10:45:26.000Z</time>
      </trkpt>
      <trkpt lat="43.04228" lon="-0.36452">
        <ele>1158.7</ele>
        <time>2026-02-07T10:45:29.000Z</time>
      </trkpt>
      <trkpt lat="43.04225" lon="-0.36451">
        <ele>1159</ele>
        <time>2026-02-07T10:45:32.000Z</time>
      </trkpt>
      <trkpt lat="43.04223" lon="-0.3645">
        <ele>1159.3</ele>
        <time>2026-02-07T10:45:35.000Z</time>
      </trkpt>
      <trkpt lat="43.04219" lon="-0.3645">
        <ele>1159.6</ele>
        <time>2026-02-07T10:45:38.000Z</time>
      </trkpt>
      <trkpt lat="43.04217" lon="-0.36448">
        <ele>1160</ele>
        <time>2026-02-07T10:45:41.000Z</time>
      </trkpt>
      <trkpt lat="43.04216" lon="-0.36444">
        <ele>1160.4</ele>
        <time>2026-02-07T10:45:44.000Z</time>
      </trkpt>
      <trkpt lat="43.04214" lon="-0.36443">
        <ele>1160.7</ele>
        <time>2026-02-07T10:45:47.000Z</time>
      </trkpt>
      <trkpt lat="43.04212" lon="-0.3644">
        <ele>1161.1</ele>
        <time>2026-02-07T10:45:50.000Z</time>
      </trkpt>
      <trkpt lat="43.04209" lon="-0.36438">
        <ele>1161.5</ele>
        <time>2026-02-07T10:45:53.000Z</time>
      </trkpt>
      <trkpt lat="43.04207" lon="-0.36435">
        <ele>1161.8</ele>
        <time>2026-02-07T10:45:56.000Z</time>
      </trkpt>
      <trkpt lat="43.04206" lon="-0.36433">
        <ele>1162.1</ele>
        <time>2026-02-07T10:45:59.000Z</time>
      </trkpt>
      <trkpt lat="43.04204" lon="-0.36431">
        <ele>1162.5</ele>
        <time>2026-02-07T10:46:02.000Z</time>
      </trkpt>
      <trkpt lat="43.04203" lon="-0.36429">
        <ele>1162.9</ele>
        <time>2026-02-07T10:46:05.000Z</time>
      </trkpt>
      <trkpt lat="43.042" lon="-0.36427">
        <ele>1163.2</ele>
        <time>2026-02-07T10:46:08.000Z</time>
      </trkpt>
      <trkpt lat="43.04198" lon="-0.36424">
        <ele>1163.6</ele>
        <time>2026-02-07T10:46:11.000Z</time>
      </trkpt>
      <trkpt lat="43.04196" lon="-0.36423">
        <ele>1164</ele>
        <time>2026-02-07T10:46:14.000Z</time>
      </trkpt>
      <trkpt lat="43.04193" lon="-0.36421">
        <ele>1164.3</ele>
        <time>2026-02-07T10:46:17.000Z</time>
      </trkpt>
      <trkpt lat="43.04191" lon="-0.36417">
        <ele>1164.8</ele>
        <time>2026-02-07T10:46:20.000Z</time>
      </trkpt>
      <trkpt lat="43.04188" lon="-0.36414">
        <ele>1165.2</ele>
        <time>2026-02-07T10:46:23.000Z</time>
      </trkpt>
      <trkpt lat="43.04184" lon="-0.36412">
        <ele>1165.6</ele>
        <time>2026-02-07T10:46:26.000Z</time>
      </trkpt>
      <trkpt lat="43.04184" lon="-0.36412">
        <ele>1166.1</ele>
        <time>2026-02-07T10:46:29.000Z</time>
      </trkpt>
      <trkpt lat="43.04183" lon="-0.3641">
        <ele>1166.5</ele>
        <time>2026-02-07T10:46:32.000Z</time>
      </trkpt>
      <trkpt lat="43.04181" lon="-0.36407">
        <ele>1166.8</ele>
        <time>2026-02-07T10:46:35.000Z</time>
      </trkpt>
      <trkpt lat="43.04179" lon="-0.36404">
        <ele>1167.2</ele>
        <time>2026-02-07T10:46:38.000Z</time>
      </trkpt>
      <trkpt lat="43.04178" lon="-0.364">
        <ele>1167.6</ele>
        <time>2026-02-07T10:46:41.000Z</time>
      </trkpt>
      <trkpt lat="43.04177" lon="-0.36397">
        <ele>1167.9</ele>
        <time>2026-02-07T10:46:44.000Z</time>
      </trkpt>
      <trkpt lat="43.04176" lon="-0.36394">
        <ele>1168.3</ele>
        <time>2026-02-07T10:46:47.000Z</time>
      </trkpt>
      <trkpt lat="43.04175" lon="-0.3639">
        <ele>1168.7</ele>
        <time>2026-02-07T10:46:50.000Z</time>
      </trkpt>
      <trkpt lat="43.04174" lon="-0.36386">
        <ele>1169.2</ele>
        <time>2026-02-07T10:46:53.000Z</time>
      </trkpt>
      <trkpt lat="43.04173" lon="-0.36382">
        <ele>1169.6</ele>
        <time>2026-02-07T10:46:56.000Z</time>
      </trkpt>
      <trkpt lat="43.04172" lon="-0.36377">
        <ele>1170</ele>
        <time>2026-02-07T10:46:59.000Z</time>
      </trkpt>
      <trkpt lat="43.04172" lon="-0.36373">
        <ele>1170.4</ele>
        <time>2026-02-07T10:47:02.000Z</time>
      </trkpt>
      <trkpt lat="43.04171" lon="-0.36369">
        <ele>1170.8</ele>
        <time>2026-02-07T10:47:05.000Z</time>
      </trkpt>
      <trkpt lat="43.04171" lon="-0.36365">
        <ele>1171.1</ele>
        <time>2026-02-07T10:47:08.000Z</time>
      </trkpt>
      <trkpt lat="43.04171" lon="-0.36362">
        <ele>1171.4</ele>
        <time>2026-02-07T10:47:11.000Z</time>
      </trkpt>
      <trkpt lat="43.04171" lon="-0.36358">
        <ele>1171.8</ele>
        <time>2026-02-07T10:47:14.000Z</time>
      </trkpt>
      <trkpt lat="43.04171" lon="-0.36355">
        <ele>1172.2</ele>
        <time>2026-02-07T10:47:17.000Z</time>
      </trkpt>
      <trkpt lat="43.04171" lon="-0.36352">
        <ele>1172.6</ele>
        <time>2026-02-07T10:47:20.000Z</time>
      </trkpt>
      <trkpt lat="43.04171" lon="-0.36348">
        <ele>1172.8</ele>
        <time>2026-02-07T10:47:23.000Z</time>
      </trkpt>
      <trkpt lat="43.04172" lon="-0.36345">
        <ele>1173.1</ele>
        <time>2026-02-07T10:47:26.000Z</time>
      </trkpt>
      <trkpt lat="43.04171" lon="-0.36342">
        <ele>1173.4</ele>
        <time>2026-02-07T10:47:29.000Z</time>
      </trkpt>
      <trkpt lat="43.0417" lon="-0.36337">
        <ele>1173.7</ele>
        <time>2026-02-07T10:47:32.000Z</time>
      </trkpt>
      <trkpt lat="43.0417" lon="-0.36333">
        <ele>1173.9</ele>
        <time>2026-02-07T10:47:35.000Z</time>
      </trkpt>
      <trkpt lat="43.04172" lon="-0.3633">
        <ele>1174.3</ele>
        <time>2026-02-07T10:47:38.000Z</time>
      </trkpt>
      <trkpt lat="43.04173" lon="-0.36326">
        <ele>1174.5</ele>
        <time>2026-02-07T10:47:41.000Z</time>
      </trkpt>
      <trkpt lat="43.04175" lon="-0.36322">
        <ele>1174.8</ele>
        <time>2026-02-07T10:47:44.000Z</time>
      </trkpt>
      <trkpt lat="43.04176" lon="-0.36319">
        <ele>1175</ele>
        <time>2026-02-07T10:47:47.000Z</time>
      </trkpt>
      <trkpt lat="43.04178" lon="-0.36316">
        <ele>1175.3</ele>
        <time>2026-02-07T10:47:50.000Z</time>
      </trkpt>
      <trkpt lat="43.04179" lon="-0.36313">
        <ele>1175.5</ele>
        <time>2026-02-07T10:47:53.000Z</time>
      </trkpt>
      <trkpt lat="43.0418" lon="-0.3631">
        <ele>1175.7</ele>
        <time>2026-02-07T10:47:56.000Z</time>
      </trkpt>
      <trkpt lat="43.04182" lon="-0.36307">
        <ele>1175.9</ele>
        <time>2026-02-07T10:47:59.000Z</time>
      </trkpt>
      <trkpt lat="43.04183" lon="-0.36304">
        <ele>1176.1</ele>
        <time>2026-02-07T10:48:02.000Z</time>
      </trkpt>
      <trkpt lat="43.04185" lon="-0.36301">
        <ele>1176.4</ele>
        <time>2026-02-07T10:48:05.000Z</time>
      </trkpt>
      <trkpt lat="43.04186" lon="-0.36299">
        <ele>1176.7</ele>
        <time>2026-02-07T10:48:08.000Z</time>
      </trkpt>
      <trkpt lat="43.04187" lon="-0.36295">
        <ele>1177</ele>
        <time>2026-02-07T10:48:11.000Z</time>
      </trkpt>
      <trkpt lat="43.04188" lon="-0.36292">
        <ele>1177.2</ele>
        <time>2026-02-07T10:48:14.000Z</time>
      </trkpt>
      <trkpt lat="43.04189" lon="-0.36288">
        <ele>1177.4</ele>
        <time>2026-02-07T10:48:17.000Z</time>
      </trkpt>
      <trkpt lat="43.0419" lon="-0.36284">
        <ele>1177.6</ele>
        <time>2026-02-07T10:48:20.000Z</time>
      </trkpt>
      <trkpt lat="43.04191" lon="-0.36281">
        <ele>1177.8</ele>
        <time>2026-02-07T10:48:23.000Z</time>
      </trkpt>
      <trkpt lat="43.04191" lon="-0.36278">
        <ele>1177.9</ele>
        <time>2026-02-07T10:48:26.000Z</time>
      </trkpt>
      <trkpt lat="43.04192" lon="-0.36275">
        <ele>1178.1</ele>
        <time>2026-02-07T10:48:29.000Z</time>
      </trkpt>
      <trkpt lat="43.04192" lon="-0.36273">
        <ele>1178.4</ele>
        <time>2026-02-07T10:48:32.000Z</time>
      </trkpt>
      <trkpt lat="43.04193" lon="-0.3627">
        <ele>1178.6</ele>
        <time>2026-02-07T10:48:35.000Z</time>
      </trkpt>
      <trkpt lat="43.04195" lon="-0.36267">
        <ele>1178.9</ele>
        <time>2026-02-07T10:48:38.000Z</time>
      </trkpt>
      <trkpt lat="43.04195" lon="-0.36265">
        <ele>1179.3</ele>
        <time>2026-02-07T10:48:41.000Z</time>
      </trkpt>
      <trkpt lat="43.04196" lon="-0.36262">
        <ele>1179.7</ele>
        <time>2026-02-07T10:48:44.000Z</time>
      </trkpt>
      <trkpt lat="43.04197" lon="-0.3626">
        <ele>1179.9</ele>
        <time>2026-02-07T10:48:47.000Z</time>
      </trkpt>
      <trkpt lat="43.04197" lon="-0.36257">
        <ele>1180.3</ele>
        <time>2026-02-07T10:48:50.000Z</time>
      </trkpt>
      <trkpt lat="43.04197" lon="-0.36255">
        <ele>1180.6</ele>
        <time>2026-02-07T10:48:53.000Z</time>
      </trkpt>
      <trkpt lat="43.04197" lon="-0.36252">
        <ele>1181</ele>
        <time>2026-02-07T10:48:56.000Z</time>
      </trkpt>
      <trkpt lat="43.04197" lon="-0.36249">
        <ele>1181.2</ele>
        <time>2026-02-07T10:48:59.000Z</time>
      </trkpt>
      <trkpt lat="43.04196" lon="-0.36245">
        <ele>1181.5</ele>
        <time>2026-02-07T10:49:02.000Z</time>
      </trkpt>
      <trkpt lat="43.04195" lon="-0.36242">
        <ele>1181.8</ele>
        <time>2026-02-07T10:49:05.000Z</time>
      </trkpt>
      <trkpt lat="43.04193" lon="-0.36238">
        <ele>1182.2</ele>
        <time>2026-02-07T10:49:08.000Z</time>
      </trkpt>
      <trkpt lat="43.04192" lon="-0.36234">
        <ele>1182.5</ele>
        <time>2026-02-07T10:49:11.000Z</time>
      </trkpt>
      <trkpt lat="43.04191" lon="-0.3623">
        <ele>1182.8</ele>
        <time>2026-02-07T10:49:14.000Z</time>
      </trkpt>
      <trkpt lat="43.04191" lon="-0.36227">
        <ele>1183.1</ele>
        <time>2026-02-07T10:49:17.000Z</time>
      </trkpt>
      <trkpt lat="43.04191" lon="-0.36223">
        <ele>1183.4</ele>
        <time>2026-02-07T10:49:20.000Z</time>
      </trkpt>
      <trkpt lat="43.04192" lon="-0.3622">
        <ele>1183.8</ele>
        <time>2026-02-07T10:49:23.000Z</time>
      </trkpt>
      <trkpt lat="43.04193" lon="-0.36218">
        <ele>1184.2</ele>
        <time>2026-02-07T10:49:26.000Z</time>
      </trkpt>
      <trkpt lat="43.04195" lon="-0.36216">
        <ele>1184.7</ele>
        <time>2026-02-07T10:49:29.000Z</time>
      </trkpt>
      <trkpt lat="43.04196" lon="-0.36213">
        <ele>1185</ele>
        <time>2026-02-07T10:49:32.000Z</time>
      </trkpt>
      <trkpt lat="43.04197" lon="-0.3621">
        <ele>1185.3</ele>
        <time>2026-02-07T10:49:35.000Z</time>
      </trkpt>
      <trkpt lat="43.04199" lon="-0.36208">
        <ele>1185.5</ele>
        <time>2026-02-07T10:49:38.000Z</time>
      </trkpt>
      <trkpt lat="43.042" lon="-0.36205">
        <ele>1185.6</ele>
        <time>2026-02-07T10:49:41.000Z</time>
      </trkpt>
      <trkpt lat="43.042" lon="-0.36202">
        <ele>1185.8</ele>
        <time>2026-02-07T10:49:44.000Z</time>
      </trkpt>
      <trkpt lat="43.04201" lon="-0.362">
        <ele>1185.9</ele>
        <time>2026-02-07T10:49:47.000Z</time>
      </trkpt>
      <trkpt lat="43.04202" lon="-0.36197">
        <ele>1186.1</ele>
        <time>2026-02-07T10:49:50.000Z</time>
      </trkpt>
      <trkpt lat="43.04202" lon="-0.36194">
        <ele>1186.4</ele>
        <time>2026-02-07T10:49:53.000Z</time>
      </trkpt>
      <trkpt lat="43.04201" lon="-0.36191">
        <ele>1186.6</ele>
        <time>2026-02-07T10:49:56.000Z</time>
      </trkpt>
      <trkpt lat="43.042" lon="-0.36187">
        <ele>1186.8</ele>
        <time>2026-02-07T10:49:59.000Z</time>
      </trkpt>
      <trkpt lat="43.04199" lon="-0.36184">
        <ele>1187.1</ele>
        <time>2026-02-07T10:50:02.000Z</time>
      </trkpt>
      <trkpt lat="43.04198" lon="-0.36182">
        <ele>1187.2</ele>
        <time>2026-02-07T10:50:05.000Z</time>
      </trkpt>
      <trkpt lat="43.04196" lon="-0.3618">
        <ele>1187.5</ele>
        <time>2026-02-07T10:50:08.000Z</time>
      </trkpt>
      <trkpt lat="43.04193" lon="-0.36178">
        <ele>1187.8</ele>
        <time>2026-02-07T10:50:11.000Z</time>
      </trkpt>
      <trkpt lat="43.0419" lon="-0.36177">
        <ele>1188.2</ele>
        <time>2026-02-07T10:50:14.000Z</time>
      </trkpt>
      <trkpt lat="43.04188" lon="-0.36175">
        <ele>1188.6</ele>
        <time>2026-02-07T10:50:17.000Z</time>
      </trkpt>
      <trkpt lat="43.04186" lon="-0.36174">
        <ele>1189</ele>
        <time>2026-02-07T10:50:20.000Z</time>
      </trkpt>
      <trkpt lat="43.04183" lon="-0.36173">
        <ele>1189.3</ele>
        <time>2026-02-07T10:50:23.000Z</time>
      </trkpt>
      <trkpt lat="43.04181" lon="-0.36171">
        <ele>1189.7</ele>
        <time>2026-02-07T10:50:26.000Z</time>
      </trkpt>
      <trkpt lat="43.04179" lon="-0.36169">
        <ele>1190.1</ele>
        <time>2026-02-07T10:50:29.000Z</time>
      </trkpt>
      <trkpt lat="43.04176" lon="-0.36167">
        <ele>1190.3</ele>
        <time>2026-02-07T10:50:32.000Z</time>
      </trkpt>
      <trkpt lat="43.04174" lon="-0.36165">
        <ele>1190.6</ele>
        <time>2026-02-07T10:50:35.000Z</time>
      </trkpt>
      <trkpt lat="43.04171" lon="-0.36163">
        <ele>1190.9</ele>
        <time>2026-02-07T10:50:38.000Z</time>
      </trkpt>
      <trkpt lat="43.04169" lon="-0.36161">
        <ele>1191.1</ele>
        <time>2026-02-07T10:50:41.000Z</time>
      </trkpt>
      <trkpt lat="43.04166" lon="-0.36159">
        <ele>1191.3</ele>
        <time>2026-02-07T10:50:44.000Z</time>
      </trkpt>
      <trkpt lat="43.04163" lon="-0.36158">
        <ele>1191.4</ele>
        <time>2026-02-07T10:50:47.000Z</time>
      </trkpt>
      <trkpt lat="43.0416" lon="-0.36157">
        <ele>1191.6</ele>
        <time>2026-02-07T10:50:50.000Z</time>
      </trkpt>
      <trkpt lat="43.04157" lon="-0.36156">
        <ele>1191.8</ele>
        <time>2026-02-07T10:50:53.000Z</time>
      </trkpt>
      <trkpt lat="43.04154" lon="-0.36156">
        <ele>1192</ele>
        <time>2026-02-07T10:50:56.000Z</time>
      </trkpt>
      <trkpt lat="43.04152" lon="-0.36154">
        <ele>1192.3</ele>
        <time>2026-02-07T10:50:59.000Z</time>
      </trkpt>
      <trkpt lat="43.04149" lon="-0.36153">
        <ele>1192.5</ele>
        <time>2026-02-07T10:51:02.000Z</time>
      </trkpt>
      <trkpt lat="43.04147" lon="-0.3615">
        <ele>1192.8</ele>
        <time>2026-02-07T10:51:05.000Z</time>
      </trkpt>
      <trkpt lat="43.04144" lon="-0.36149">
        <ele>1193.1</ele>
        <time>2026-02-07T10:51:08.000Z</time>
      </trkpt>
      <trkpt lat="43.04141" lon="-0.36149">
        <ele>1193.4</ele>
        <time>2026-02-07T10:51:11.000Z</time>
      </trkpt>
      <trkpt lat="43.04139" lon="-0.36148">
        <ele>1193.6</ele>
        <time>2026-02-07T10:51:14.000Z</time>
      </trkpt>
      <trkpt lat="43.04136" lon="-0.36147">
        <ele>1193.9</ele>
        <time>2026-02-07T10:51:17.000Z</time>
      </trkpt>
      <trkpt lat="43.04134" lon="-0.36147">
        <ele>1194.1</ele>
        <time>2026-02-07T10:51:20.000Z</time>
      </trkpt>
      <trkpt lat="43.04132" lon="-0.36146">
        <ele>1194.3</ele>
        <time>2026-02-07T10:51:23.000Z</time>
      </trkpt>
      <trkpt lat="43.04129" lon="-0.36146">
        <ele>1194.7</ele>
        <time>2026-02-07T10:51:26.000Z</time>
      </trkpt>
      <trkpt lat="43.04127" lon="-0.36145">
        <ele>1195.1</ele>
        <time>2026-02-07T10:51:29.000Z</time>
      </trkpt>
      <trkpt lat="43.04126" lon="-0.36145">
        <ele>1195.5</ele>
        <time>2026-02-07T10:51:32.000Z</time>
      </trkpt>
      <trkpt lat="43.04124" lon="-0.36146">
        <ele>1195.9</ele>
        <time>2026-02-07T10:51:35.000Z</time>
      </trkpt>
      <trkpt lat="43.04121" lon="-0.36146">
        <ele>1196.3</ele>
        <time>2026-02-07T10:51:38.000Z</time>
      </trkpt>
      <trkpt lat="43.04119" lon="-0.36146">
        <ele>1196.6</ele>
        <time>2026-02-07T10:51:41.000Z</time>
      </trkpt>
      <trkpt lat="43.04117" lon="-0.36145">
        <ele>1197</ele>
        <time>2026-02-07T10:51:44.000Z</time>
      </trkpt>
      <trkpt lat="43.04113" lon="-0.36145">
        <ele>1197.3</ele>
        <time>2026-02-07T10:51:47.000Z</time>
      </trkpt>
      <trkpt lat="43.0411" lon="-0.36144">
        <ele>1197.5</ele>
        <time>2026-02-07T10:51:50.000Z</time>
      </trkpt>
      <trkpt lat="43.04107" lon="-0.36144">
        <ele>1197.7</ele>
        <time>2026-02-07T10:51:53.000Z</time>
      </trkpt>
      <trkpt lat="43.04104" lon="-0.36143">
        <ele>1198</ele>
        <time>2026-02-07T10:51:56.000Z</time>
      </trkpt>
      <trkpt lat="43.04102" lon="-0.36142">
        <ele>1198.2</ele>
        <time>2026-02-07T10:51:59.000Z</time>
      </trkpt>
      <trkpt lat="43.04099" lon="-0.36141">
        <ele>1198.5</ele>
        <time>2026-02-07T10:52:02.000Z</time>
      </trkpt>
      <trkpt lat="43.04097" lon="-0.36142">
        <ele>1199</ele>
        <time>2026-02-07T10:52:05.000Z</time>
      </trkpt>
      <trkpt lat="43.04097" lon="-0.36142">
        <ele>1199.2</ele>
        <time>2026-02-07T10:52:08.000Z</time>
      </trkpt>
      <trkpt lat="43.04096" lon="-0.36142">
        <ele>1199.4</ele>
        <time>2026-02-07T10:52:11.000Z</time>
      </trkpt>
      <trkpt lat="43.04094" lon="-0.36142">
        <ele>1199.6</ele>
        <time>2026-02-07T10:52:14.000Z</time>
      </trkpt>
      <trkpt lat="43.04091" lon="-0.36141">
        <ele>1199.9</ele>
        <time>2026-02-07T10:52:17.000Z</time>
      </trkpt>
      <trkpt lat="43.04089" lon="-0.3614">
        <ele>1200.3</ele>
        <time>2026-02-07T10:52:20.000Z</time>
      </trkpt>
      <trkpt lat="43.04087" lon="-0.3614">
        <ele>1200.6</ele>
        <time>2026-02-07T10:52:23.000Z</time>
      </trkpt>
      <trkpt lat="43.04085" lon="-0.36139">
        <ele>1201</ele>
        <time>2026-02-07T10:52:26.000Z</time>
      </trkpt>
      <trkpt lat="43.04083" lon="-0.36139">
        <ele>1201.3</ele>
        <time>2026-02-07T10:52:29.000Z</time>
      </trkpt>
      <trkpt lat="43.04081" lon="-0.3614">
        <ele>1201.6</ele>
        <time>2026-02-07T10:52:32.000Z</time>
      </trkpt>
      <trkpt lat="43.04079" lon="-0.3614">
        <ele>1201.9</ele>
        <time>2026-02-07T10:52:35.000Z</time>
      </trkpt>
      <trkpt lat="43.04077" lon="-0.36139">
        <ele>1202.2</ele>
        <time>2026-02-07T10:52:38.000Z</time>
      </trkpt>
      <trkpt lat="43.04075" lon="-0.36139">
        <ele>1202.4</ele>
        <time>2026-02-07T10:52:41.000Z</time>
      </trkpt>
      <trkpt lat="43.04073" lon="-0.36139">
        <ele>1202.6</ele>
        <time>2026-02-07T10:52:44.000Z</time>
      </trkpt>
      <trkpt lat="43.04071" lon="-0.36139">
        <ele>1203</ele>
        <time>2026-02-07T10:52:47.000Z</time>
      </trkpt>
      <trkpt lat="43.04068" lon="-0.36139">
        <ele>1203.3</ele>
        <time>2026-02-07T10:52:50.000Z</time>
      </trkpt>
      <trkpt lat="43.04067" lon="-0.3614">
        <ele>1203.6</ele>
        <time>2026-02-07T10:52:53.000Z</time>
      </trkpt>
      <trkpt lat="43.04065" lon="-0.36139">
        <ele>1204</ele>
        <time>2026-02-07T10:52:56.000Z</time>
      </trkpt>
      <trkpt lat="43.04062" lon="-0.36137">
        <ele>1204.3</ele>
        <time>2026-02-07T10:52:59.000Z</time>
      </trkpt>
      <trkpt lat="43.04059" lon="-0.36136">
        <ele>1204.6</ele>
        <time>2026-02-07T10:53:02.000Z</time>
      </trkpt>
      <trkpt lat="43.04057" lon="-0.36136">
        <ele>1204.9</ele>
        <time>2026-02-07T10:53:05.000Z</time>
      </trkpt>
      <trkpt lat="43.04054" lon="-0.36136">
        <ele>1205.2</ele>
        <time>2026-02-07T10:53:08.000Z</time>
      </trkpt>
      <trkpt lat="43.04053" lon="-0.36136">
        <ele>1205.5</ele>
        <time>2026-02-07T10:53:11.000Z</time>
      </trkpt>
      <trkpt lat="43.04051" lon="-0.36136">
        <ele>1205.9</ele>
        <time>2026-02-07T10:53:14.000Z</time>
      </trkpt>
      <trkpt lat="43.04049" lon="-0.36136">
        <ele>1206.3</ele>
        <time>2026-02-07T10:53:17.000Z</time>
      </trkpt>
      <trkpt lat="43.04047" lon="-0.36136">
        <ele>1206.7</ele>
        <time>2026-02-07T10:53:20.000Z</time>
      </trkpt>
      <trkpt lat="43.04045" lon="-0.36136">
        <ele>1207.1</ele>
        <time>2026-02-07T10:53:23.000Z</time>
      </trkpt>
      <trkpt lat="43.04042" lon="-0.36134">
        <ele>1207.4</ele>
        <time>2026-02-07T10:53:26.000Z</time>
      </trkpt>
      <trkpt lat="43.0404" lon="-0.36134">
        <ele>1207.7</ele>
        <time>2026-02-07T10:53:29.000Z</time>
      </trkpt>
      <trkpt lat="43.04038" lon="-0.36134">
        <ele>1208</ele>
        <time>2026-02-07T10:53:32.000Z</time>
      </trkpt>
      <trkpt lat="43.04036" lon="-0.36134">
        <ele>1208.4</ele>
        <time>2026-02-07T10:53:35.000Z</time>
      </trkpt>
      <trkpt lat="43.04035" lon="-0.36133">
        <ele>1208.8</ele>
        <time>2026-02-07T10:53:38.000Z</time>
      </trkpt>
      <trkpt lat="43.04033" lon="-0.36134">
        <ele>1209.2</ele>
        <time>2026-02-07T10:53:41.000Z</time>
      </trkpt>
      <trkpt lat="43.04031" lon="-0.36133">
        <ele>1209.5</ele>
        <time>2026-02-07T10:53:44.000Z</time>
      </trkpt>
      <trkpt lat="43.0403" lon="-0.36132">
        <ele>1209.8</ele>
        <time>2026-02-07T10:53:47.000Z</time>
      </trkpt>
      <trkpt lat="43.04028" lon="-0.36132">
        <ele>1210.1</ele>
        <time>2026-02-07T10:53:50.000Z</time>
      </trkpt>
      <trkpt lat="43.04026" lon="-0.36131">
        <ele>1210.4</ele>
        <time>2026-02-07T10:53:53.000Z</time>
      </trkpt>
      <trkpt lat="43.04023" lon="-0.36131">
        <ele>1210.6</ele>
        <time>2026-02-07T10:53:56.000Z</time>
      </trkpt>
      <trkpt lat="43.0402" lon="-0.3613">
        <ele>1211</ele>
        <time>2026-02-07T10:53:59.000Z</time>
      </trkpt>
      <trkpt lat="43.04018" lon="-0.36128">
        <ele>1211.4</ele>
        <time>2026-02-07T10:54:02.000Z</time>
      </trkpt>
      <trkpt lat="43.04016" lon="-0.36128">
        <ele>1211.7</ele>
        <time>2026-02-07T10:54:05.000Z</time>
      </trkpt>
      <trkpt lat="43.04015" lon="-0.36127">
        <ele>1212.1</ele>
        <time>2026-02-07T10:54:08.000Z</time>
      </trkpt>
      <trkpt lat="43.04013" lon="-0.36127">
        <ele>1212.5</ele>
        <time>2026-02-07T10:54:11.000Z</time>
      </trkpt>
      <trkpt lat="43.04011" lon="-0.36126">
        <ele>1212.8</ele>
        <time>2026-02-07T10:54:14.000Z</time>
      </trkpt>
      <trkpt lat="43.0401" lon="-0.36127">
        <ele>1213.1</ele>
        <time>2026-02-07T10:54:17.000Z</time>
      </trkpt>
      <trkpt lat="43.04009" lon="-0.36126">
        <ele>1213.4</ele>
        <time>2026-02-07T10:54:20.000Z</time>
      </trkpt>
      <trkpt lat="43.04006" lon="-0.36124">
        <ele>1213.7</ele>
        <time>2026-02-07T10:54:23.000Z</time>
      </trkpt>
      <trkpt lat="43.04002" lon="-0.36123">
        <ele>1214.1</ele>
        <time>2026-02-07T10:54:26.000Z</time>
      </trkpt>
      <trkpt lat="43.04001" lon="-0.36123">
        <ele>1214.5</ele>
        <time>2026-02-07T10:54:29.000Z</time>
      </trkpt>
      <trkpt lat="43.03999" lon="-0.36123">
        <ele>1214.9</ele>
        <time>2026-02-07T10:54:32.000Z</time>
      </trkpt>
      <trkpt lat="43.03998" lon="-0.36124">
        <ele>1215.3</ele>
        <time>2026-02-07T10:54:35.000Z</time>
      </trkpt>
      <trkpt lat="43.03995" lon="-0.36123">
        <ele>1215.6</ele>
        <time>2026-02-07T10:54:38.000Z</time>
      </trkpt>
      <trkpt lat="43.03993" lon="-0.36121">
        <ele>1215.9</ele>
        <time>2026-02-07T10:54:41.000Z</time>
      </trkpt>
      <trkpt lat="43.03991" lon="-0.3612">
        <ele>1216.2</ele>
        <time>2026-02-07T10:54:44.000Z</time>
      </trkpt>
      <trkpt lat="43.03989" lon="-0.36119">
        <ele>1216.5</ele>
        <time>2026-02-07T10:54:47.000Z</time>
      </trkpt>
      <trkpt lat="43.03986" lon="-0.36118">
        <ele>1216.8</ele>
        <time>2026-02-07T10:54:50.000Z</time>
      </trkpt>
      <trkpt lat="43.03984" lon="-0.36116">
        <ele>1217.1</ele>
        <time>2026-02-07T10:54:53.000Z</time>
      </trkpt>
      <trkpt lat="43.03982" lon="-0.36115">
        <ele>1217.5</ele>
        <time>2026-02-07T10:54:56.000Z</time>
      </trkpt>
      <trkpt lat="43.03979" lon="-0.36115">
        <ele>1217.9</ele>
        <time>2026-02-07T10:54:59.000Z</time>
      </trkpt>
      <trkpt lat="43.03977" lon="-0.36115">
        <ele>1218.4</ele>
        <time>2026-02-07T10:55:02.000Z</time>
      </trkpt>
      <trkpt lat="43.03975" lon="-0.36114">
        <ele>1218.8</ele>
        <time>2026-02-07T10:55:05.000Z</time>
      </trkpt>
      <trkpt lat="43.03973" lon="-0.36113">
        <ele>1219.3</ele>
        <time>2026-02-07T10:55:08.000Z</time>
      </trkpt>
      <trkpt lat="43.03972" lon="-0.36111">
        <ele>1219.8</ele>
        <time>2026-02-07T10:55:11.000Z</time>
      </trkpt>
      <trkpt lat="43.0397" lon="-0.36109">
        <ele>1220.2</ele>
        <time>2026-02-07T10:55:14.000Z</time>
      </trkpt>
      <trkpt lat="43.03968" lon="-0.36108">
        <ele>1220.5</ele>
        <time>2026-02-07T10:55:17.000Z</time>
      </trkpt>
      <trkpt lat="43.03965" lon="-0.36107">
        <ele>1220.8</ele>
        <time>2026-02-07T10:55:20.000Z</time>
      </trkpt>
      <trkpt lat="43.03964" lon="-0.36107">
        <ele>1221</ele>
        <time>2026-02-07T10:55:23.000Z</time>
      </trkpt>
      <trkpt lat="43.03962" lon="-0.36106">
        <ele>1221.3</ele>
        <time>2026-02-07T10:55:26.000Z</time>
      </trkpt>
      <trkpt lat="43.0396" lon="-0.36106">
        <ele>1221.7</ele>
        <time>2026-02-07T10:55:29.000Z</time>
      </trkpt>
      <trkpt lat="43.03957" lon="-0.36105">
        <ele>1222.2</ele>
        <time>2026-02-07T10:55:32.000Z</time>
      </trkpt>
      <trkpt lat="43.03955" lon="-0.36104">
        <ele>1222.7</ele>
        <time>2026-02-07T10:55:35.000Z</time>
      </trkpt>
      <trkpt lat="43.03953" lon="-0.36103">
        <ele>1223.2</ele>
        <time>2026-02-07T10:55:38.000Z</time>
      </trkpt>
      <trkpt lat="43.03951" lon="-0.36103">
        <ele>1223.6</ele>
        <time>2026-02-07T10:55:41.000Z</time>
      </trkpt>
      <trkpt lat="43.03948" lon="-0.36103">
        <ele>1223.9</ele>
        <time>2026-02-07T10:55:44.000Z</time>
      </trkpt>
      <trkpt lat="43.03945" lon="-0.36102">
        <ele>1224.3</ele>
        <time>2026-02-07T10:55:47.000Z</time>
      </trkpt>
      <trkpt lat="43.03943" lon="-0.36102">
        <ele>1224.9</ele>
        <time>2026-02-07T10:55:50.000Z</time>
      </trkpt>
      <trkpt lat="43.0394" lon="-0.36102">
        <ele>1225.2</ele>
        <time>2026-02-07T10:55:53.000Z</time>
      </trkpt>
      <trkpt lat="43.03937" lon="-0.36102">
        <ele>1225.4</ele>
        <time>2026-02-07T10:55:56.000Z</time>
      </trkpt>
      <trkpt lat="43.03934" lon="-0.36102">
        <ele>1225.7</ele>
        <time>2026-02-07T10:55:59.000Z</time>
      </trkpt>
      <trkpt lat="43.03932" lon="-0.36103">
        <ele>1226</ele>
        <time>2026-02-07T10:56:02.000Z</time>
      </trkpt>
      <trkpt lat="43.03929" lon="-0.36103">
        <ele>1226.2</ele>
        <time>2026-02-07T10:56:05.000Z</time>
      </trkpt>
      <trkpt lat="43.03926" lon="-0.36103">
        <ele>1226.5</ele>
        <time>2026-02-07T10:56:08.000Z</time>
      </trkpt>
      <trkpt lat="43.03923" lon="-0.36103">
        <ele>1226.8</ele>
        <time>2026-02-07T10:56:11.000Z</time>
      </trkpt>
      <trkpt lat="43.03921" lon="-0.36103">
        <ele>1227</ele>
        <time>2026-02-07T10:56:14.000Z</time>
      </trkpt>
      <trkpt lat="43.03918" lon="-0.36102">
        <ele>1227.3</ele>
        <time>2026-02-07T10:56:17.000Z</time>
      </trkpt>
      <trkpt lat="43.03916" lon="-0.36101">
        <ele>1227.5</ele>
        <time>2026-02-07T10:56:20.000Z</time>
      </trkpt>
      <trkpt lat="43.03913" lon="-0.361">
        <ele>1227.7</ele>
        <time>2026-02-07T10:56:23.000Z</time>
      </trkpt>
      <trkpt lat="43.0391" lon="-0.361">
        <ele>1227.9</ele>
        <time>2026-02-07T10:56:26.000Z</time>
      </trkpt>
      <trkpt lat="43.03907" lon="-0.361">
        <ele>1228</ele>
        <time>2026-02-07T10:56:29.000Z</time>
      </trkpt>
      <trkpt lat="43.03904" lon="-0.36101">
        <ele>1228.2</ele>
        <time>2026-02-07T10:56:32.000Z</time>
      </trkpt>
      <trkpt lat="43.03902" lon="-0.36101">
        <ele>1228.3</ele>
        <time>2026-02-07T10:56:35.000Z</time>
      </trkpt>
      <trkpt lat="43.03899" lon="-0.361">
        <ele>1228.5</ele>
        <time>2026-02-07T10:56:38.000Z</time>
      </trkpt>
      <trkpt lat="43.03896" lon="-0.361">
        <ele>1228.8</ele>
        <time>2026-02-07T10:56:41.000Z</time>
      </trkpt>
      <trkpt lat="43.03893" lon="-0.36098">
        <ele>1228.9</ele>
        <time>2026-02-07T10:56:44.000Z</time>
      </trkpt>
      <trkpt lat="43.03891" lon="-0.36097">
        <ele>1229.1</ele>
        <time>2026-02-07T10:56:47.000Z</time>
      </trkpt>
      <trkpt lat="43.03888" lon="-0.36096">
        <ele>1229.4</ele>
        <time>2026-02-07T10:56:50.000Z</time>
      </trkpt>
      <trkpt lat="43.03886" lon="-0.36094">
        <ele>1229.5</ele>
        <time>2026-02-07T10:56:53.000Z</time>
      </trkpt>
      <trkpt lat="43.03883" lon="-0.36092">
        <ele>1229.7</ele>
        <time>2026-02-07T10:56:56.000Z</time>
      </trkpt>
      <trkpt lat="43.0388" lon="-0.36091">
        <ele>1229.9</ele>
        <time>2026-02-07T10:56:59.000Z</time>
      </trkpt>
      <trkpt lat="43.03878" lon="-0.36088">
        <ele>1230.1</ele>
        <time>2026-02-07T10:57:02.000Z</time>
      </trkpt>
      <trkpt lat="43.03875" lon="-0.36086">
        <ele>1230.3</ele>
        <time>2026-02-07T10:57:05.000Z</time>
      </trkpt>
      <trkpt lat="43.03873" lon="-0.36084">
        <ele>1230.6</ele>
        <time>2026-02-07T10:57:08.000Z</time>
      </trkpt>
      <trkpt lat="43.03871" lon="-0.36082">
        <ele>1230.8</ele>
        <time>2026-02-07T10:57:11.000Z</time>
      </trkpt>
      <trkpt lat="43.03869" lon="-0.36079">
        <ele>1231</ele>
        <time>2026-02-07T10:57:14.000Z</time>
      </trkpt>
      <trkpt lat="43.03866" lon="-0.36076">
        <ele>1231.1</ele>
        <time>2026-02-07T10:57:17.000Z</time>
      </trkpt>
      <trkpt lat="43.03864" lon="-0.36074">
        <ele>1231.2</ele>
        <time>2026-02-07T10:57:20.000Z</time>
      </trkpt>
      <trkpt lat="43.03862" lon="-0.36072">
        <ele>1231.4</ele>
        <time>2026-02-07T10:57:23.000Z</time>
      </trkpt>
      <trkpt lat="43.0386" lon="-0.3607">
        <ele>1231.6</ele>
        <time>2026-02-07T10:57:26.000Z</time>
      </trkpt>
      <trkpt lat="43.03857" lon="-0.36068">
        <ele>1231.9</ele>
        <time>2026-02-07T10:57:29.000Z</time>
      </trkpt>
      <trkpt lat="43.03855" lon="-0.36067">
        <ele>1232.2</ele>
        <time>2026-02-07T10:57:32.000Z</time>
      </trkpt>
      <trkpt lat="43.03853" lon="-0.36065">
        <ele>1232.5</ele>
        <time>2026-02-07T10:57:35.000Z</time>
      </trkpt>
      <trkpt lat="43.0385" lon="-0.36063">
        <ele>1232.7</ele>
        <time>2026-02-07T10:57:38.000Z</time>
      </trkpt>
      <trkpt lat="43.03848" lon="-0.36062">
        <ele>1233</ele>
        <time>2026-02-07T10:57:41.000Z</time>
      </trkpt>
      <trkpt lat="43.03846" lon="-0.36061">
        <ele>1233.4</ele>
        <time>2026-02-07T10:57:44.000Z</time>
      </trkpt>
      <trkpt lat="43.03843" lon="-0.36058">
        <ele>1233.7</ele>
        <time>2026-02-07T10:57:47.000Z</time>
      </trkpt>
      <trkpt lat="43.03841" lon="-0.36057">
        <ele>1234</ele>
        <time>2026-02-07T10:57:50.000Z</time>
      </trkpt>
      <trkpt lat="43.03839" lon="-0.36055">
        <ele>1234.2</ele>
        <time>2026-02-07T10:57:53.000Z</time>
      </trkpt>
      <trkpt lat="43.03837" lon="-0.36053">
        <ele>1234.5</ele>
        <time>2026-02-07T10:57:56.000Z</time>
      </trkpt>
      <trkpt lat="43.03835" lon="-0.3605">
        <ele>1234.7</ele>
        <time>2026-02-07T10:57:59.000Z</time>
      </trkpt>
      <trkpt lat="43.03833" lon="-0.36049">
        <ele>1234.9</ele>
        <time>2026-02-07T10:58:02.000Z</time>
      </trkpt>
      <trkpt lat="43.03831" lon="-0.36047">
        <ele>1235.1</ele>
        <time>2026-02-07T10:58:05.000Z</time>
      </trkpt>
      <trkpt lat="43.03828" lon="-0.36044">
        <ele>1235.2</ele>
        <time>2026-02-07T10:58:08.000Z</time>
      </trkpt>
      <trkpt lat="43.03826" lon="-0.36042">
        <ele>1235.3</ele>
        <time>2026-02-07T10:58:11.000Z</time>
      </trkpt>
      <trkpt lat="43.03824" lon="-0.3604">
        <ele>1235.5</ele>
        <time>2026-02-07T10:58:14.000Z</time>
      </trkpt>
      <trkpt lat="43.03822" lon="-0.36038">
        <ele>1235.7</ele>
        <time>2026-02-07T10:58:17.000Z</time>
      </trkpt>
      <trkpt lat="43.0382" lon="-0.36036">
        <ele>1235.9</ele>
        <time>2026-02-07T10:58:20.000Z</time>
      </trkpt>
      <trkpt lat="43.03818" lon="-0.36034">
        <ele>1236.2</ele>
        <time>2026-02-07T10:58:23.000Z</time>
      </trkpt>
      <trkpt lat="43.03816" lon="-0.36032">
        <ele>1236.6</ele>
        <time>2026-02-07T10:58:26.000Z</time>
      </trkpt>
      <trkpt lat="43.03813" lon="-0.3603">
        <ele>1237</ele>
        <time>2026-02-07T10:58:29.000Z</time>
      </trkpt>
      <trkpt lat="43.03811" lon="-0.36028">
        <ele>1237.3</ele>
        <time>2026-02-07T10:58:32.000Z</time>
      </trkpt>
      <trkpt lat="43.03809" lon="-0.36027">
        <ele>1237.7</ele>
        <time>2026-02-07T10:58:35.000Z</time>
      </trkpt>
      <trkpt lat="43.03807" lon="-0.36027">
        <ele>1238</ele>
        <time>2026-02-07T10:58:38.000Z</time>
      </trkpt>
      <trkpt lat="43.03805" lon="-0.36026">
        <ele>1238.3</ele>
        <time>2026-02-07T10:58:41.000Z</time>
      </trkpt>
      <trkpt lat="43.03802" lon="-0.36025">
        <ele>1238.5</ele>
        <time>2026-02-07T10:58:44.000Z</time>
      </trkpt>
      <trkpt lat="43.038" lon="-0.36024">
        <ele>1238.7</ele>
        <time>2026-02-07T10:58:47.000Z</time>
      </trkpt>
      <trkpt lat="43.03798" lon="-0.36025">
        <ele>1238.9</ele>
        <time>2026-02-07T10:58:50.000Z</time>
      </trkpt>
      <trkpt lat="43.03795" lon="-0.36026">
        <ele>1239.1</ele>
        <time>2026-02-07T10:58:53.000Z</time>
      </trkpt>
      <trkpt lat="43.03793" lon="-0.36027">
        <ele>1239.2</ele>
        <time>2026-02-07T10:58:56.000Z</time>
      </trkpt>
      <trkpt lat="43.03791" lon="-0.36027">
        <ele>1239.4</ele>
        <time>2026-02-07T10:58:59.000Z</time>
      </trkpt>
      <trkpt lat="43.03789" lon="-0.36028">
        <ele>1239.7</ele>
        <time>2026-02-07T10:59:02.000Z</time>
      </trkpt>
      <trkpt lat="43.03786" lon="-0.36029">
        <ele>1239.9</ele>
        <time>2026-02-07T10:59:05.000Z</time>
      </trkpt>
      <trkpt lat="43.03784" lon="-0.3603">
        <ele>1240.1</ele>
        <time>2026-02-07T10:59:08.000Z</time>
      </trkpt>
      <trkpt lat="43.03782" lon="-0.3603">
        <ele>1240.4</ele>
        <time>2026-02-07T10:59:11.000Z</time>
      </trkpt>
      <trkpt lat="43.0378" lon="-0.36031">
        <ele>1240.7</ele>
        <time>2026-02-07T10:59:14.000Z</time>
      </trkpt>
      <trkpt lat="43.03777" lon="-0.36032">
        <ele>1241</ele>
        <time>2026-02-07T10:59:17.000Z</time>
      </trkpt>
      <trkpt lat="43.03777" lon="-0.36033">
        <ele>1241.3</ele>
        <time>2026-02-07T10:59:20.000Z</time>
      </trkpt>
      <trkpt lat="43.03775" lon="-0.36034">
        <ele>1241.6</ele>
        <time>2026-02-07T10:59:23.000Z</time>
      </trkpt>
      <trkpt lat="43.03772" lon="-0.36033">
        <ele>1241.9</ele>
        <time>2026-02-07T10:59:26.000Z</time>
      </trkpt>
      <trkpt lat="43.03769" lon="-0.36032">
        <ele>1242.2</ele>
        <time>2026-02-07T10:59:29.000Z</time>
      </trkpt>
      <trkpt lat="43.03766" lon="-0.36032">
        <ele>1242.5</ele>
        <time>2026-02-07T10:59:32.000Z</time>
      </trkpt>
      <trkpt lat="43.03763" lon="-0.36031">
        <ele>1242.8</ele>
        <time>2026-02-07T10:59:35.000Z</time>
      </trkpt>
      <trkpt lat="43.0376" lon="-0.3603">
        <ele>1243</ele>
        <time>2026-02-07T10:59:38.000Z</time>
      </trkpt>
      <trkpt lat="43.03758" lon="-0.3603">
        <ele>1243.3</ele>
        <time>2026-02-07T10:59:41.000Z</time>
      </trkpt>
      <trkpt lat="43.03755" lon="-0.36029">
        <ele>1243.6</ele>
        <time>2026-02-07T10:59:44.000Z</time>
      </trkpt>
      <trkpt lat="43.03752" lon="-0.36028">
        <ele>1243.8</ele>
        <time>2026-02-07T10:59:47.000Z</time>
      </trkpt>
      <trkpt lat="43.03749" lon="-0.36028">
        <ele>1244</ele>
        <time>2026-02-07T10:59:50.000Z</time>
      </trkpt>
      <trkpt lat="43.03747" lon="-0.36027">
        <ele>1244.2</ele>
        <time>2026-02-07T10:59:53.000Z</time>
      </trkpt>
      <trkpt lat="43.03744" lon="-0.36026">
        <ele>1244.4</ele>
        <time>2026-02-07T10:59:56.000Z</time>
      </trkpt>
      <trkpt lat="43.03741" lon="-0.36025">
        <ele>1244.7</ele>
        <time>2026-02-07T10:59:59.000Z</time>
      </trkpt>
      <trkpt lat="43.03739" lon="-0.36024">
        <ele>1245</ele>
        <time>2026-02-07T11:00:02.000Z</time>
      </trkpt>
      <trkpt lat="43.03736" lon="-0.36023">
        <ele>1245.2</ele>
        <time>2026-02-07T11:00:05.000Z</time>
      </trkpt>
      <trkpt lat="43.03733" lon="-0.36021">
        <ele>1245.5</ele>
        <time>2026-02-07T11:00:08.000Z</time>
      </trkpt>
      <trkpt lat="43.03731" lon="-0.3602">
        <ele>1245.8</ele>
        <time>2026-02-07T11:00:11.000Z</time>
      </trkpt>
      <trkpt lat="43.03729" lon="-0.36019">
        <ele>1246.1</ele>
        <time>2026-02-07T11:00:14.000Z</time>
      </trkpt>
      <trkpt lat="43.03726" lon="-0.36018">
        <ele>1246.3</ele>
        <time>2026-02-07T11:00:17.000Z</time>
      </trkpt>
      <trkpt lat="43.03724" lon="-0.36017">
        <ele>1246.6</ele>
        <time>2026-02-07T11:00:20.000Z</time>
      </trkpt>
      <trkpt lat="43.03721" lon="-0.36016">
        <ele>1246.7</ele>
        <time>2026-02-07T11:00:23.000Z</time>
      </trkpt>
      <trkpt lat="43.03718" lon="-0.36016">
        <ele>1247</ele>
        <time>2026-02-07T11:00:26.000Z</time>
      </trkpt>
      <trkpt lat="43.03716" lon="-0.36016">
        <ele>1247.3</ele>
        <time>2026-02-07T11:00:29.000Z</time>
      </trkpt>
      <trkpt lat="43.03714" lon="-0.36016">
        <ele>1247.5</ele>
        <time>2026-02-07T11:00:32.000Z</time>
      </trkpt>
      <trkpt lat="43.03712" lon="-0.36016">
        <ele>1247.9</ele>
        <time>2026-02-07T11:00:35.000Z</time>
      </trkpt>
      <trkpt lat="43.03709" lon="-0.36016">
        <ele>1248.1</ele>
        <time>2026-02-07T11:00:38.000Z</time>
      </trkpt>
      <trkpt lat="43.03708" lon="-0.36015">
        <ele>1248.3</ele>
        <time>2026-02-07T11:00:41.000Z</time>
      </trkpt>
      <trkpt lat="43.03705" lon="-0.36015">
        <ele>1248.5</ele>
        <time>2026-02-07T11:00:44.000Z</time>
      </trkpt>
      <trkpt lat="43.03702" lon="-0.36015">
        <ele>1248.8</ele>
        <time>2026-02-07T11:00:47.000Z</time>
      </trkpt>
      <trkpt lat="43.03699" lon="-0.36016">
        <ele>1249.1</ele>
        <time>2026-02-07T11:00:50.000Z</time>
      </trkpt>
      <trkpt lat="43.03697" lon="-0.36018">
        <ele>1249.3</ele>
        <time>2026-02-07T11:00:53.000Z</time>
      </trkpt>
      <trkpt lat="43.03695" lon="-0.36019">
        <ele>1249.4</ele>
        <time>2026-02-07T11:00:56.000Z</time>
      </trkpt>
      <trkpt lat="43.03693" lon="-0.36021">
        <ele>1249.6</ele>
        <time>2026-02-07T11:00:59.000Z</time>
      </trkpt>
      <trkpt lat="43.03691" lon="-0.36023">
        <ele>1249.9</ele>
        <time>2026-02-07T11:01:02.000Z</time>
      </trkpt>
      <trkpt lat="43.03689" lon="-0.36026">
        <ele>1250.1</ele>
        <time>2026-02-07T11:01:05.000Z</time>
      </trkpt>
      <trkpt lat="43.03688" lon="-0.36028">
        <ele>1250.4</ele>
        <time>2026-02-07T11:01:08.000Z</time>
      </trkpt>
      <trkpt lat="43.03687" lon="-0.36031">
        <ele>1250.7</ele>
        <time>2026-02-07T11:01:11.000Z</time>
      </trkpt>
      <trkpt lat="43.03687" lon="-0.36033">
        <ele>1251</ele>
        <time>2026-02-07T11:01:14.000Z</time>
      </trkpt>
      <trkpt lat="43.03687" lon="-0.36036">
        <ele>1251.3</ele>
        <time>2026-02-07T11:01:17.000Z</time>
      </trkpt>
      <trkpt lat="43.03687" lon="-0.36037">
        <ele>1251.6</ele>
        <time>2026-02-07T11:01:20.000Z</time>
      </trkpt>
      <trkpt lat="43.03687" lon="-0.36039">
        <ele>1251.9</ele>
        <time>2026-02-07T11:01:23.000Z</time>
      </trkpt>
      <trkpt lat="43.03686" lon="-0.3604">
        <ele>1252.3</ele>
        <time>2026-02-07T11:01:26.000Z</time>
      </trkpt>
      <trkpt lat="43.03686" lon="-0.36043">
        <ele>1252.7</ele>
        <time>2026-02-07T11:01:29.000Z</time>
      </trkpt>
      <trkpt lat="43.03685" lon="-0.36046">
        <ele>1253</ele>
        <time>2026-02-07T11:01:32.000Z</time>
      </trkpt>
      <trkpt lat="43.03684" lon="-0.36048">
        <ele>1253.4</ele>
        <time>2026-02-07T11:01:35.000Z</time>
      </trkpt>
      <trkpt lat="43.03683" lon="-0.36051">
        <ele>1253.7</ele>
        <time>2026-02-07T11:01:38.000Z</time>
      </trkpt>
      <trkpt lat="43.03683" lon="-0.36054">
        <ele>1253.9</ele>
        <time>2026-02-07T11:01:41.000Z</time>
      </trkpt>
      <trkpt lat="43.03683" lon="-0.36057">
        <ele>1254.1</ele>
        <time>2026-02-07T11:01:44.000Z</time>
      </trkpt>
      <trkpt lat="43.03682" lon="-0.3606">
        <ele>1254.3</ele>
        <time>2026-02-07T11:01:47.000Z</time>
      </trkpt>
      <trkpt lat="43.03682" lon="-0.36063">
        <ele>1254.5</ele>
        <time>2026-02-07T11:01:50.000Z</time>
      </trkpt>
      <trkpt lat="43.03681" lon="-0.36065">
        <ele>1254.7</ele>
        <time>2026-02-07T11:01:53.000Z</time>
      </trkpt>
      <trkpt lat="43.03681" lon="-0.36067">
        <ele>1254.9</ele>
        <time>2026-02-07T11:01:56.000Z</time>
      </trkpt>
      <trkpt lat="43.03681" lon="-0.36067">
        <ele>1255.2</ele>
        <time>2026-02-07T11:01:59.000Z</time>
      </trkpt>
      <trkpt lat="43.03681" lon="-0.36067">
        <ele>1255.2</ele>
        <time>2026-02-07T11:02:00.000Z</time>
      </trkpt>
      <trkpt lat="43.03681" lon="-0.36067">
        <ele>1255.2</ele>
        <time>2026-02-07T11:02:01.000Z</time>
      </trkpt>
      <trkpt lat="43.03681" lon="-0.36067">
        <ele>1255.3</ele>
        <time>2026-02-07T11:02:02.000Z</time>
      </trkpt>
      <trkpt lat="43.03681" lon="-0.36067">
        <ele>1255.3</ele>
        <time>2026-02-07T11:02:03.000Z</time>
      </trkpt>
      <trkpt lat="43.03681" lon="-0.36067">
        <ele>1255.4</ele>
        <time>2026-02-07T11:02:04.000Z</time>
      </trkpt>
      <trkpt lat="43.03681" lon="-0.36067">
        <ele>1255.5</ele>
        <time>2026-02-07T11:02:07.000Z</time>
      </trkpt>
      <trkpt lat="43.03681" lon="-0.36067">
        <ele>1255.5</ele>
        <time>2026-02-07T11:02:08.000Z</time>
      </trkpt>
      <trkpt lat="43.03681" lon="-0.36067">
        <ele>1255.6</ele>
        <time>2026-02-07T11:02:11.000Z</time>
      </trkpt>
      <trkpt lat="43.03681" lon="-0.36067">
        <ele>1255.7</ele>
        <time>2026-02-07T11:02:14.000Z</time>
      </trkpt>
      <trkpt lat="43.03681" lon="-0.36067">
        <ele>1255.7</ele>
        <time>2026-02-07T11:02:17.000Z</time>
      </trkpt>
      <trkpt lat="43.03681" lon="-0.36067">
        <ele>1255.7</ele>
        <time>2026-02-07T11:02:18.000Z</time>
      </trkpt>
      <trkpt lat="43.03681" lon="-0.36066">
        <ele>1255.6</ele>
        <time>2026-02-07T11:02:21.000Z</time>
      </trkpt>
      <trkpt lat="43.03681" lon="-0.36066">
        <ele>1255.5</ele>
        <time>2026-02-07T11:02:24.000Z</time>
      </trkpt>
      <trkpt lat="43.03681" lon="-0.36066">
        <ele>1255.5</ele>
        <time>2026-02-07T11:02:25.000Z</time>
      </trkpt>
      <trkpt lat="43.03681" lon="-0.36066">
        <ele>1255.4</ele>
        <time>2026-02-07T11:02:26.000Z</time>
      </trkpt>
      <trkpt lat="43.03681" lon="-0.36066">
        <ele>1255.3</ele>
        <time>2026-02-07T11:02:29.000Z</time>
      </trkpt>
      <trkpt lat="43.03681" lon="-0.36066">
        <ele>1255.2</ele>
        <time>2026-02-07T11:02:32.000Z</time>
      </trkpt>
      <trkpt lat="43.03681" lon="-0.36066">
        <ele>1255.2</ele>
        <time>2026-02-07T11:02:35.000Z</time>
      </trkpt>
      <trkpt lat="43.03681" lon="-0.36066">
        <ele>1255.1</ele>
        <time>2026-02-07T11:02:38.000Z</time>
      </trkpt>
      <trkpt lat="43.03681" lon="-0.36066">
        <ele>1255.1</ele>
        <time>2026-02-07T11:02:41.000Z</time>
      </trkpt>
      <trkpt lat="43.03681" lon="-0.36066">
        <ele>1255.1</ele>
        <time>2026-02-07T11:02:44.000Z</time>
      </trkpt>
      <trkpt lat="43.03681" lon="-0.36066">
        <ele>1255.1</ele>
        <time>2026-02-07T11:02:47.000Z</time>
      </trkpt>
      <trkpt lat="43.03681" lon="-0.36066">
        <ele>1255.1</ele>
        <time>2026-02-07T11:02:50.000Z</time>
      </trkpt>
      <trkpt lat="43.03681" lon="-0.36065">
        <ele>1255</ele>
        <time>2026-02-07T11:02:53.000Z</time>
      </trkpt>
      <trkpt lat="43.03681" lon="-0.36065">
        <ele>1255</ele>
        <time>2026-02-07T11:02:56.000Z</time>
      </trkpt>
      <trkpt lat="43.03681" lon="-0.36065">
        <ele>1255</ele>
        <time>2026-02-07T11:02:59.000Z</time>
      </trkpt>
      <trkpt lat="43.03681" lon="-0.36065">
        <ele>1255</ele>
        <time>2026-02-07T11:03:00.000Z</time>
      </trkpt>
      <trkpt lat="43.03681" lon="-0.36065">
        <ele>1255</ele>
        <time>2026-02-07T11:03:01.000Z</time>
      </trkpt>
      <trkpt lat="43.03681" lon="-0.36065">
        <ele>1255</ele>
        <time>2026-02-07T11:03:04.000Z</time>
      </trkpt>
      <trkpt lat="43.03681" lon="-0.36065">
        <ele>1255</ele>
        <time>2026-02-07T11:03:05.000Z</time>
      </trkpt>
      <trkpt lat="43.03681" lon="-0.36065">
        <ele>1255</ele>
        <time>2026-02-07T11:03:06.000Z</time>
      </trkpt>
      <trkpt lat="43.03681" lon="-0.36065">
        <ele>1255</ele>
        <time>2026-02-07T11:03:09.000Z</time>
      </trkpt>
      <trkpt lat="43.03681" lon="-0.36065">
        <ele>1255</ele>
        <time>2026-02-07T11:03:12.000Z</time>
      </trkpt>
      <trkpt lat="43.03681" lon="-0.36065">
        <ele>1255</ele>
        <time>2026-02-07T11:03:13.000Z</time>
      </trkpt>
      <trkpt lat="43.03681" lon="-0.36065">
        <ele>1255</ele>
        <time>2026-02-07T11:03:16.000Z</time>
      </trkpt>
      <trkpt lat="43.03681" lon="-0.36065">
        <ele>1255</ele>
        <time>2026-02-07T11:03:17.000Z</time>
      </trkpt>
      <trkpt lat="43.03681" lon="-0.36065">
        <ele>1255</ele>
        <time>2026-02-07T11:03:18.000Z</time>
      </trkpt>
      <trkpt lat="43.03681" lon="-0.36065">
        <ele>1255</ele>
        <time>2026-02-07T11:03:19.000Z</time>
      </trkpt>
      <trkpt lat="43.03682" lon="-0.36064">
        <ele>1255.1</ele>
        <time>2026-02-07T11:03:20.000Z</time>
      </trkpt>
      <trkpt lat="43.03682" lon="-0.36064">
        <ele>1255.1</ele>
        <time>2026-02-07T11:03:21.000Z</time>
      </trkpt>
      <trkpt lat="43.03682" lon="-0.36064">
        <ele>1255.1</ele>
        <time>2026-02-07T11:03:22.000Z</time>
      </trkpt>
      <trkpt lat="43.03682" lon="-0.36064">
        <ele>1255.1</ele>
        <time>2026-02-07T11:03:23.000Z</time>
      </trkpt>
      <trkpt lat="43.03682" lon="-0.36064">
        <ele>1255.1</ele>
        <time>2026-02-07T11:03:24.000Z</time>
      </trkpt>
      <trkpt lat="43.03682" lon="-0.36064">
        <ele>1255.2</ele>
        <time>2026-02-07T11:03:27.000Z</time>
      </trkpt>
      <trkpt lat="43.03682" lon="-0.36064">
        <ele>1255.2</ele>
        <time>2026-02-07T11:03:30.000Z</time>
      </trkpt>
      <trkpt lat="43.03682" lon="-0.36064">
        <ele>1255.3</ele>
        <time>2026-02-07T11:03:33.000Z</time>
      </trkpt>
      <trkpt lat="43.03682" lon="-0.36064">
        <ele>1255.3</ele>
        <time>2026-02-07T11:03:36.000Z</time>
      </trkpt>
      <trkpt lat="43.03682" lon="-0.36064">
        <ele>1255.4</ele>
        <time>2026-02-07T11:03:39.000Z</time>
      </trkpt>
      <trkpt lat="43.03682" lon="-0.36064">
        <ele>1255.5</ele>
        <time>2026-02-07T11:03:42.000Z</time>
      </trkpt>
      <trkpt lat="43.03682" lon="-0.36064">
        <ele>1255.5</ele>
        <time>2026-02-07T11:03:45.000Z</time>
      </trkpt>
      <trkpt lat="43.03682" lon="-0.36064">
        <ele>1255.6</ele>
        <time>2026-02-07T11:03:48.000Z</time>
      </trkpt>
      <trkpt lat="43.03682" lon="-0.36064">
        <ele>1255.7</ele>
        <time>2026-02-07T11:03:51.000Z</time>
      </trkpt>
      <trkpt lat="43.03682" lon="-0.36064">
        <ele>1255.7</ele>
        <time>2026-02-07T11:03:54.000Z</time>
      </trkpt>
      <trkpt lat="43.03682" lon="-0.36064">
        <ele>1255.8</ele>
        <time>2026-02-07T11:03:57.000Z</time>
      </trkpt>
      <trkpt lat="43.03682" lon="-0.36064">
        <ele>1255.8</ele>
        <time>2026-02-07T11:04:00.000Z</time>
      </trkpt>
      <trkpt lat="43.03682" lon="-0.36064">
        <ele>1255.8</ele>
        <time>2026-02-07T11:04:03.000Z</time>
      </trkpt>
      <trkpt lat="43.03682" lon="-0.36064">
        <ele>1255.8</ele>
        <time>2026-02-07T11:04:06.000Z</time>
      </trkpt>
      <trkpt lat="43.03682" lon="-0.36064">
        <ele>1255.8</ele>
        <time>2026-02-07T11:04:09.000Z</time>
      </trkpt>
      <trkpt lat="43.03682" lon="-0.36064">
        <ele>1255.8</ele>
        <time>2026-02-07T11:04:12.000Z</time>
      </trkpt>
      <trkpt lat="43.03682" lon="-0.36064">
        <ele>1255.8</ele>
        <time>2026-02-07T11:04:15.000Z</time>
      </trkpt>
      <trkpt lat="43.03682" lon="-0.36064">
        <ele>1255.8</ele>
        <time>2026-02-07T11:04:18.000Z</time>
      </trkpt>
      <trkpt lat="43.03682" lon="-0.36064">
        <ele>1255.8</ele>
        <time>2026-02-07T11:04:21.000Z</time>
      </trkpt>
      <trkpt lat="43.03682" lon="-0.36064">
        <ele>1255.8</ele>
        <time>2026-02-07T11:04:24.000Z</time>
      </trkpt>
      <trkpt lat="43.03682" lon="-0.36064">
        <ele>1255.8</ele>
        <time>2026-02-07T11:04:27.000Z</time>
      </trkpt>
      <trkpt lat="43.03682" lon="-0.36064">
        <ele>1255.8</ele>
        <time>2026-02-07T11:04:30.000Z</time>
      </trkpt>
      <trkpt lat="43.03682" lon="-0.36064">
        <ele>1255.8</ele>
        <time>2026-02-07T11:04:33.000Z</time>
      </trkpt>
      <trkpt lat="43.03682" lon="-0.36064">
        <ele>1255.7</ele>
        <time>2026-02-07T11:04:36.000Z</time>
      </trkpt>
      <trkpt lat="43.03682" lon="-0.36064">
        <ele>1255.7</ele>
        <time>2026-02-07T11:04:39.000Z</time>
      </trkpt>
      <trkpt lat="43.03682" lon="-0.36064">
        <ele>1255.7</ele>
        <time>2026-02-07T11:04:42.000Z</time>
      </trkpt>
      <trkpt lat="43.03682" lon="-0.36064">
        <ele>1255.7</ele>
        <time>2026-02-07T11:04:45.000Z</time>
      </trkpt>
      <trkpt lat="43.03682" lon="-0.36064">
        <ele>1255.7</ele>
        <time>2026-02-07T11:04:48.000Z</time>
      </trkpt>
      <trkpt lat="43.03682" lon="-0.36064">
        <ele>1255.7</ele>
        <time>2026-02-07T11:04:51.000Z</time>
      </trkpt>
      <trkpt lat="43.03682" lon="-0.36064">
        <ele>1255.7</ele>
        <time>2026-02-07T11:04:54.000Z</time>
      </trkpt>
      <trkpt lat="43.03682" lon="-0.36064">
        <ele>1255.6</ele>
        <time>2026-02-07T11:04:57.000Z</time>
      </trkpt>
      <trkpt lat="43.03682" lon="-0.36064">
        <ele>1255.6</ele>
        <time>2026-02-07T11:05:00.000Z</time>
      </trkpt>
      <trkpt lat="43.03682" lon="-0.36064">
        <ele>1255.6</ele>
        <time>2026-02-07T11:05:03.000Z</time>
      </trkpt>
      <trkpt lat="43.03682" lon="-0.36064">
        <ele>1255.6</ele>
        <time>2026-02-07T11:05:06.000Z</time>
      </trkpt>
      <trkpt lat="43.03682" lon="-0.36064">
        <ele>1255.6</ele>
        <time>2026-02-07T11:05:07.000Z</time>
      </trkpt>
      <trkpt lat="43.03682" lon="-0.36064">
        <ele>1255.6</ele>
        <time>2026-02-07T11:05:08.000Z</time>
      </trkpt>
      <trkpt lat="43.03683" lon="-0.36063">
        <ele>1255.6</ele>
        <time>2026-02-07T11:05:11.000Z</time>
      </trkpt>
      <trkpt lat="43.03685" lon="-0.36062">
        <ele>1255.7</ele>
        <time>2026-02-07T11:05:14.000Z</time>
      </trkpt>
      <trkpt lat="43.03685" lon="-0.36063">
        <ele>1255.7</ele>
        <time>2026-02-07T11:05:17.000Z</time>
      </trkpt>
      <trkpt lat="43.03685" lon="-0.36063">
        <ele>1255.7</ele>
        <time>2026-02-07T11:05:20.000Z</time>
      </trkpt>
      <trkpt lat="43.03685" lon="-0.36064">
        <ele>1255.7</ele>
        <time>2026-02-07T11:05:23.000Z</time>
      </trkpt>
      <trkpt lat="43.03685" lon="-0.36064">
        <ele>1255.8</ele>
        <time>2026-02-07T11:05:26.000Z</time>
      </trkpt>
      <trkpt lat="43.03685" lon="-0.36064">
        <ele>1255.8</ele>
        <time>2026-02-07T11:05:29.000Z</time>
      </trkpt>
      <trkpt lat="43.03685" lon="-0.36064">
        <ele>1255.8</ele>
        <time>2026-02-07T11:05:30.000Z</time>
      </trkpt>
      <trkpt lat="43.03685" lon="-0.36064">
        <ele>1255.8</ele>
        <time>2026-02-07T11:05:31.000Z</time>
      </trkpt>
      <trkpt lat="43.03685" lon="-0.36064">
        <ele>1255.8</ele>
        <time>2026-02-07T11:05:32.000Z</time>
      </trkpt>
      <trkpt lat="43.03685" lon="-0.36065">
        <ele>1255.8</ele>
        <time>2026-02-07T11:05:33.000Z</time>
      </trkpt>
      <trkpt lat="43.03685" lon="-0.36065">
        <ele>1255.8</ele>
        <time>2026-02-07T11:05:34.000Z</time>
      </trkpt>
      <trkpt lat="43.03685" lon="-0.36065">
        <ele>1255.8</ele>
        <time>2026-02-07T11:05:35.000Z</time>
      </trkpt>
      <trkpt lat="43.03685" lon="-0.36065">
        <ele>1255.8</ele>
        <time>2026-02-07T11:05:36.000Z</time>
      </trkpt>
      <trkpt lat="43.03685" lon="-0.36066">
        <ele>1255.8</ele>
        <time>2026-02-07T11:05:39.000Z</time>
      </trkpt>
      <trkpt lat="43.03685" lon="-0.36066">
        <ele>1255.8</ele>
        <time>2026-02-07T11:05:42.000Z</time>
      </trkpt>
      <trkpt lat="43.03685" lon="-0.36066">
        <ele>1255.8</ele>
        <time>2026-02-07T11:05:45.000Z</time>
      </trkpt>
      <trkpt lat="43.03685" lon="-0.36066">
        <ele>1255.8</ele>
        <time>2026-02-07T11:05:48.000Z</time>
      </trkpt>
      <trkpt lat="43.03685" lon="-0.36066">
        <ele>1255.8</ele>
        <time>2026-02-07T11:05:51.000Z</time>
      </trkpt>
      <trkpt lat="43.03685" lon="-0.36066">
        <ele>1255.8</ele>
        <time>2026-02-07T11:05:52.000Z</time>
      </trkpt>
      <trkpt lat="43.03685" lon="-0.36066">
        <ele>1255.8</ele>
        <time>2026-02-07T11:05:53.000Z</time>
      </trkpt>
      <trkpt lat="43.03685" lon="-0.36066">
        <ele>1255.8</ele>
        <time>2026-02-07T11:05:54.000Z</time>
      </trkpt>
      <trkpt lat="43.03685" lon="-0.36066">
        <ele>1255.8</ele>
        <time>2026-02-07T11:05:55.000Z</time>
      </trkpt>
      <trkpt lat="43.03685" lon="-0.36066">
        <ele>1255.8</ele>
        <time>2026-02-07T11:05:56.000Z</time>
      </trkpt>
      <trkpt lat="43.03685" lon="-0.36066">
        <ele>1255.8</ele>
        <time>2026-02-07T11:05:59.000Z</time>
      </trkpt>
      <trkpt lat="43.03685" lon="-0.36067">
        <ele>1255.9</ele>
        <time>2026-02-07T11:06:02.000Z</time>
      </trkpt>
      <trkpt lat="43.03685" lon="-0.36067">
        <ele>1255.9</ele>
        <time>2026-02-07T11:06:05.000Z</time>
      </trkpt>
      <trkpt lat="43.03685" lon="-0.36067">
        <ele>1255.9</ele>
        <time>2026-02-07T11:06:08.000Z</time>
      </trkpt>
      <trkpt lat="43.03685" lon="-0.36067">
        <ele>1255.9</ele>
        <time>2026-02-07T11:06:11.000Z</time>
      </trkpt>
      <trkpt lat="43.03685" lon="-0.36067">
        <ele>1255.9</ele>
        <time>2026-02-07T11:06:14.000Z</time>
      </trkpt>
      <trkpt lat="43.03685" lon="-0.36067">
        <ele>1255.9</ele>
        <time>2026-02-07T11:06:17.000Z</time>
      </trkpt>
      <trkpt lat="43.03685" lon="-0.36067">
        <ele>1255.9</ele>
        <time>2026-02-07T11:06:20.000Z</time>
      </trkpt>
      <trkpt lat="43.03685" lon="-0.36067">
        <ele>1255.9</ele>
        <time>2026-02-07T11:06:23.000Z</time>
      </trkpt>
      <trkpt lat="43.03685" lon="-0.36067">
        <ele>1255.9</ele>
        <time>2026-02-07T11:06:26.000Z</time>
      </trkpt>
      <trkpt lat="43.03685" lon="-0.36067">
        <ele>1255.9</ele>
        <time>2026-02-07T11:06:29.000Z</time>
      </trkpt>
      <trkpt lat="43.03685" lon="-0.36067">
        <ele>1255.9</ele>
        <time>2026-02-07T11:06:32.000Z</time>
      </trkpt>
      <trkpt lat="43.03685" lon="-0.36067">
        <ele>1255.9</ele>
        <time>2026-02-07T11:06:35.000Z</time>
      </trkpt>
      <trkpt lat="43.03685" lon="-0.36067">
        <ele>1256</ele>
        <time>2026-02-07T11:06:38.000Z</time>
      </trkpt>
      <trkpt lat="43.03685" lon="-0.36067">
        <ele>1255.9</ele>
        <time>2026-02-07T11:06:41.000Z</time>
      </trkpt>
      <trkpt lat="43.03685" lon="-0.36067">
        <ele>1255.9</ele>
        <time>2026-02-07T11:06:44.000Z</time>
      </trkpt>
      <trkpt lat="43.03685" lon="-0.36067">
        <ele>1255.9</ele>
        <time>2026-02-07T11:06:47.000Z</time>
      </trkpt>
      <trkpt lat="43.03685" lon="-0.36067">
        <ele>1255.9</ele>
        <time>2026-02-07T11:06:50.000Z</time>
      </trkpt>
      <trkpt lat="43.03685" lon="-0.36067">
        <ele>1255.9</ele>
        <time>2026-02-07T11:06:53.000Z</time>
      </trkpt>
      <trkpt lat="43.03685" lon="-0.36067">
        <ele>1255.9</ele>
        <time>2026-02-07T11:06:56.000Z</time>
      </trkpt>
      <trkpt lat="43.03685" lon="-0.36067">
        <ele>1255.9</ele>
        <time>2026-02-07T11:06:59.000Z</time>
      </trkpt>
      <trkpt lat="43.03685" lon="-0.36067">
        <ele>1256</ele>
        <time>2026-02-07T11:07:02.000Z</time>
      </trkpt>
      <trkpt lat="43.03685" lon="-0.36067">
        <ele>1256</ele>
        <time>2026-02-07T11:07:03.000Z</time>
      </trkpt>
      <trkpt lat="43.03685" lon="-0.36067">
        <ele>1256</ele>
        <time>2026-02-07T11:07:04.000Z</time>
      </trkpt>
      <trkpt lat="43.03685" lon="-0.36067">
        <ele>1256</ele>
        <time>2026-02-07T11:07:07.000Z</time>
      </trkpt>
      <trkpt lat="43.03685" lon="-0.36067">
        <ele>1256</ele>
        <time>2026-02-07T11:07:10.000Z</time>
      </trkpt>
      <trkpt lat="43.03685" lon="-0.36067">
        <ele>1256</ele>
        <time>2026-02-07T11:07:11.000Z</time>
      </trkpt>
      <trkpt lat="43.03685" lon="-0.36067">
        <ele>1256</ele>
        <time>2026-02-07T11:07:12.000Z</time>
      </trkpt>
      <trkpt lat="43.03685" lon="-0.36067">
        <ele>1256.1</ele>
        <time>2026-02-07T11:07:15.000Z</time>
      </trkpt>
      <trkpt lat="43.03685" lon="-0.36067">
        <ele>1256.1</ele>
        <time>2026-02-07T11:07:16.000Z</time>
      </trkpt>
      <trkpt lat="43.03685" lon="-0.36067">
        <ele>1256</ele>
        <time>2026-02-07T11:07:19.000Z</time>
      </trkpt>
      <trkpt lat="43.03685" lon="-0.36067">
        <ele>1256</ele>
        <time>2026-02-07T11:07:20.000Z</time>
      </trkpt>
      <trkpt lat="43.03685" lon="-0.36067">
        <ele>1256</ele>
        <time>2026-02-07T11:07:21.000Z</time>
      </trkpt>
      <trkpt lat="43.03685" lon="-0.36067">
        <ele>1256</ele>
        <time>2026-02-07T11:07:24.000Z</time>
      </trkpt>
      <trkpt lat="43.03685" lon="-0.36067">
        <ele>1256</ele>
        <time>2026-02-07T11:07:27.000Z</time>
      </trkpt>
      <trkpt lat="43.03685" lon="-0.36067">
        <ele>1256</ele>
        <time>2026-02-07T11:07:30.000Z</time>
      </trkpt>
      <trkpt lat="43.03685" lon="-0.36067">
        <ele>1256</ele>
        <time>2026-02-07T11:07:33.000Z</time>
      </trkpt>
      <trkpt lat="43.03685" lon="-0.36067">
        <ele>1256</ele>
        <time>2026-02-07T11:07:36.000Z</time>
      </trkpt>
      <trkpt lat="43.03685" lon="-0.36067">
        <ele>1256</ele>
        <time>2026-02-07T11:07:37.000Z</time>
      </trkpt>
      <trkpt lat="43.03685" lon="-0.36067">
        <ele>1256</ele>
        <time>2026-02-07T11:07:38.000Z</time>
      </trkpt>
      <trkpt lat="43.03685" lon="-0.36067">
        <ele>1256</ele>
        <time>2026-02-07T11:07:39.000Z</time>
      </trkpt>
      <trkpt lat="43.03685" lon="-0.36067">
        <ele>1256</ele>
        <time>2026-02-07T11:07:40.000Z</time>
      </trkpt>
      <trkpt lat="43.03685" lon="-0.36067">
        <ele>1256</ele>
        <time>2026-02-07T11:07:41.000Z</time>
      </trkpt>
      <trkpt lat="43.03685" lon="-0.36067">
        <ele>1256</ele>
        <time>2026-02-07T11:07:42.000Z</time>
      </trkpt>
      <trkpt lat="43.03686" lon="-0.36067">
        <ele>1256</ele>
        <time>2026-02-07T11:07:43.000Z</time>
      </trkpt>
      <trkpt lat="43.03685" lon="-0.36067">
        <ele>1256</ele>
        <time>2026-02-07T11:07:44.000Z</time>
      </trkpt>
      <trkpt lat="43.03685" lon="-0.36067">
        <ele>1256</ele>
        <time>2026-02-07T11:07:45.000Z</time>
      </trkpt>
      <trkpt lat="43.03685" lon="-0.36067">
        <ele>1256</ele>
        <time>2026-02-07T11:07:46.000Z</time>
      </trkpt>
      <trkpt lat="43.03685" lon="-0.36067">
        <ele>1256</ele>
        <time>2026-02-07T11:07:47.000Z</time>
      </trkpt>
      <trkpt lat="43.03686" lon="-0.36067">
        <ele>1256.1</ele>
        <time>2026-02-07T11:07:50.000Z</time>
      </trkpt>
      <trkpt lat="43.03686" lon="-0.36067">
        <ele>1256.1</ele>
        <time>2026-02-07T11:07:53.000Z</time>
      </trkpt>
      <trkpt lat="43.03686" lon="-0.36067">
        <ele>1256.1</ele>
        <time>2026-02-07T11:07:56.000Z</time>
      </trkpt>
      <trkpt lat="43.03686" lon="-0.36068">
        <ele>1256</ele>
        <time>2026-02-07T11:07:59.000Z</time>
      </trkpt>
      <trkpt lat="43.03686" lon="-0.36069">
        <ele>1256</ele>
        <time>2026-02-07T11:08:00.000Z</time>
      </trkpt>
      <trkpt lat="43.03686" lon="-0.36069">
        <ele>1256</ele>
        <time>2026-02-07T11:08:01.000Z</time>
      </trkpt>
      <trkpt lat="43.03686" lon="-0.36072">
        <ele>1256.1</ele>
        <time>2026-02-07T11:08:04.000Z</time>
      </trkpt>
      <trkpt lat="43.03686" lon="-0.36076">
        <ele>1256.1</ele>
        <time>2026-02-07T11:08:07.000Z</time>
      </trkpt>
      <trkpt lat="43.03686" lon="-0.3608">
        <ele>1256.1</ele>
        <time>2026-02-07T11:08:10.000Z</time>
      </trkpt>
      <trkpt lat="43.03686" lon="-0.36082">
        <ele>1256.1</ele>
        <time>2026-02-07T11:08:13.000Z</time>
      </trkpt>
      <trkpt lat="43.03686" lon="-0.36085">
        <ele>1256.2</ele>
        <time>2026-02-07T11:08:16.000Z</time>
      </trkpt>
      <trkpt lat="43.03687" lon="-0.36087">
        <ele>1256.3</ele>
        <time>2026-02-07T11:08:19.000Z</time>
      </trkpt>
      <trkpt lat="43.03687" lon="-0.3609">
        <ele>1256.5</ele>
        <time>2026-02-07T11:08:22.000Z</time>
      </trkpt>
      <trkpt lat="43.03688" lon="-0.36093">
        <ele>1256.7</ele>
        <time>2026-02-07T11:08:25.000Z</time>
      </trkpt>
      <trkpt lat="43.03689" lon="-0.36095">
        <ele>1256.9</ele>
        <time>2026-02-07T11:08:28.000Z</time>
      </trkpt>
      <trkpt lat="43.0369" lon="-0.36099">
        <ele>1257.2</ele>
        <time>2026-02-07T11:08:31.000Z</time>
      </trkpt>
      <trkpt lat="43.0369" lon="-0.36102">
        <ele>1257.6</ele>
        <time>2026-02-07T11:08:34.000Z</time>
      </trkpt>
      <trkpt lat="43.0369" lon="-0.36105">
        <ele>1258.1</ele>
        <time>2026-02-07T11:08:37.000Z</time>
      </trkpt>
      <trkpt lat="43.03691" lon="-0.36109">
        <ele>1258.5</ele>
        <time>2026-02-07T11:08:40.000Z</time>
      </trkpt>
      <trkpt lat="43.03691" lon="-0.36112">
        <ele>1259</ele>
        <time>2026-02-07T11:08:43.000Z</time>
      </trkpt>
      <trkpt lat="43.03692" lon="-0.36116">
        <ele>1259.5</ele>
        <time>2026-02-07T11:08:46.000Z</time>
      </trkpt>
      <trkpt lat="43.03693" lon="-0.36119">
        <ele>1259.8</ele>
        <time>2026-02-07T11:08:49.000Z</time>
      </trkpt>
      <trkpt lat="43.03694" lon="-0.36122">
        <ele>1260.1</ele>
        <time>2026-02-07T11:08:52.000Z</time>
      </trkpt>
      <trkpt lat="43.03694" lon="-0.36124">
        <ele>1260.3</ele>
        <time>2026-02-07T11:08:55.000Z</time>
      </trkpt>
      <trkpt lat="43.03694" lon="-0.36127">
        <ele>1260.4</ele>
        <time>2026-02-07T11:08:58.000Z</time>
      </trkpt>
      <trkpt lat="43.03694" lon="-0.36131">
        <ele>1260.6</ele>
        <time>2026-02-07T11:09:01.000Z</time>
      </trkpt>
      <trkpt lat="43.03695" lon="-0.36134">
        <ele>1260.7</ele>
        <time>2026-02-07T11:09:04.000Z</time>
      </trkpt>
      <trkpt lat="43.03695" lon="-0.36138">
        <ele>1260.7</ele>
        <time>2026-02-07T11:09:07.000Z</time>
      </trkpt>
      <trkpt lat="43.03696" lon="-0.36141">
        <ele>1260.8</ele>
        <time>2026-02-07T11:09:10.000Z</time>
      </trkpt>
      <trkpt lat="43.03696" lon="-0.36145">
        <ele>1260.9</ele>
        <time>2026-02-07T11:09:13.000Z</time>
      </trkpt>
      <trkpt lat="43.03697" lon="-0.36148">
        <ele>1261</ele>
        <time>2026-02-07T11:09:16.000Z</time>
      </trkpt>
      <trkpt lat="43.03698" lon="-0.3615">
        <ele>1261.1</ele>
        <time>2026-02-07T11:09:19.000Z</time>
      </trkpt>
      <trkpt lat="43.037" lon="-0.36153">
        <ele>1261.3</ele>
        <time>2026-02-07T11:09:22.000Z</time>
      </trkpt>
      <trkpt lat="43.03701" lon="-0.36156">
        <ele>1261.6</ele>
        <time>2026-02-07T11:09:25.000Z</time>
      </trkpt>
      <trkpt lat="43.03702" lon="-0.36159">
        <ele>1261.8</ele>
        <time>2026-02-07T11:09:28.000Z</time>
      </trkpt>
      <trkpt lat="43.03703" lon="-0.36161">
        <ele>1262.1</ele>
        <time>2026-02-07T11:09:31.000Z</time>
      </trkpt>
      <trkpt lat="43.03704" lon="-0.36164">
        <ele>1262.3</ele>
        <time>2026-02-07T11:09:34.000Z</time>
      </trkpt>
      <trkpt lat="43.03705" lon="-0.36167">
        <ele>1262.6</ele>
        <time>2026-02-07T11:09:37.000Z</time>
      </trkpt>
      <trkpt lat="43.03705" lon="-0.3617">
        <ele>1262.8</ele>
        <time>2026-02-07T11:09:40.000Z</time>
      </trkpt>
      <trkpt lat="43.03706" lon="-0.36172">
        <ele>1263</ele>
        <time>2026-02-07T11:09:43.000Z</time>
      </trkpt>
      <trkpt lat="43.03707" lon="-0.36175">
        <ele>1263.3</ele>
        <time>2026-02-07T11:09:46.000Z</time>
      </trkpt>
      <trkpt lat="43.03709" lon="-0.36177">
        <ele>1263.5</ele>
        <time>2026-02-07T11:09:49.000Z</time>
      </trkpt>
      <trkpt lat="43.0371" lon="-0.36179">
        <ele>1263.9</ele>
        <time>2026-02-07T11:09:52.000Z</time>
      </trkpt>
      <trkpt lat="43.03712" lon="-0.36181">
        <ele>1264.1</ele>
        <time>2026-02-07T11:09:55.000Z</time>
      </trkpt>
      <trkpt lat="43.03714" lon="-0.36183">
        <ele>1264.4</ele>
        <time>2026-02-07T11:09:58.000Z</time>
      </trkpt>
      <trkpt lat="43.03715" lon="-0.36185">
        <ele>1264.7</ele>
        <time>2026-02-07T11:10:01.000Z</time>
      </trkpt>
      <trkpt lat="43.03717" lon="-0.36187">
        <ele>1264.9</ele>
        <time>2026-02-07T11:10:04.000Z</time>
      </trkpt>
      <trkpt lat="43.0372" lon="-0.36189">
        <ele>1265.2</ele>
        <time>2026-02-07T11:10:07.000Z</time>
      </trkpt>
      <trkpt lat="43.03722" lon="-0.3619">
        <ele>1265.5</ele>
        <time>2026-02-07T11:10:10.000Z</time>
      </trkpt>
      <trkpt lat="43.03724" lon="-0.36192">
        <ele>1265.7</ele>
        <time>2026-02-07T11:10:13.000Z</time>
      </trkpt>
      <trkpt lat="43.03726" lon="-0.36194">
        <ele>1265.9</ele>
        <time>2026-02-07T11:10:16.000Z</time>
      </trkpt>
      <trkpt lat="43.03728" lon="-0.36195">
        <ele>1266.2</ele>
        <time>2026-02-07T11:10:19.000Z</time>
      </trkpt>
      <trkpt lat="43.03728" lon="-0.36196">
        <ele>1266.4</ele>
        <time>2026-02-07T11:10:22.000Z</time>
      </trkpt>
      <trkpt lat="43.03729" lon="-0.36196">
        <ele>1266.8</ele>
        <time>2026-02-07T11:10:25.000Z</time>
      </trkpt>
      <trkpt lat="43.03731" lon="-0.36197">
        <ele>1267.1</ele>
        <time>2026-02-07T11:10:28.000Z</time>
      </trkpt>
      <trkpt lat="43.03734" lon="-0.36198">
        <ele>1267.5</ele>
        <time>2026-02-07T11:10:31.000Z</time>
      </trkpt>
      <trkpt lat="43.03736" lon="-0.362">
        <ele>1267.9</ele>
        <time>2026-02-07T11:10:34.000Z</time>
      </trkpt>
      <trkpt lat="43.03739" lon="-0.36201">
        <ele>1268.2</ele>
        <time>2026-02-07T11:10:37.000Z</time>
      </trkpt>
      <trkpt lat="43.03741" lon="-0.36203">
        <ele>1268.6</ele>
        <time>2026-02-07T11:10:40.000Z</time>
      </trkpt>
      <trkpt lat="43.03743" lon="-0.36204">
        <ele>1268.9</ele>
        <time>2026-02-07T11:10:43.000Z</time>
      </trkpt>
      <trkpt lat="43.03746" lon="-0.36205">
        <ele>1269.2</ele>
        <time>2026-02-07T11:10:46.000Z</time>
      </trkpt>
      <trkpt lat="43.03749" lon="-0.36206">
        <ele>1269.5</ele>
        <time>2026-02-07T11:10:49.000Z</time>
      </trkpt>
      <trkpt lat="43.03751" lon="-0.36206">
        <ele>1269.8</ele>
        <time>2026-02-07T11:10:52.000Z</time>
      </trkpt>
      <trkpt lat="43.03753" lon="-0.36208">
        <ele>1270</ele>
        <time>2026-02-07T11:10:55.000Z</time>
      </trkpt>
      <trkpt lat="43.03754" lon="-0.36211">
        <ele>1270.2</ele>
        <time>2026-02-07T11:10:58.000Z</time>
      </trkpt>
      <trkpt lat="43.03754" lon="-0.36214">
        <ele>1270.4</ele>
        <time>2026-02-07T11:11:01.000Z</time>
      </trkpt>
      <trkpt lat="43.03753" lon="-0.36216">
        <ele>1270.7</ele>
        <time>2026-02-07T11:11:04.000Z</time>
      </trkpt>
      <trkpt lat="43.03753" lon="-0.36219">
        <ele>1271.1</ele>
        <time>2026-02-07T11:11:07.000Z</time>
      </trkpt>
      <trkpt lat="43.03752" lon="-0.36221">
        <ele>1271.6</ele>
        <time>2026-02-07T11:11:10.000Z</time>
      </trkpt>
      <trkpt lat="43.03752" lon="-0.36223">
        <ele>1272</ele>
        <time>2026-02-07T11:11:13.000Z</time>
      </trkpt>
      <trkpt lat="43.03751" lon="-0.36225">
        <ele>1272.4</ele>
        <time>2026-02-07T11:11:16.000Z</time>
      </trkpt>
      <trkpt lat="43.0375" lon="-0.36227">
        <ele>1272.9</ele>
        <time>2026-02-07T11:11:19.000Z</time>
      </trkpt>
      <trkpt lat="43.03748" lon="-0.36229">
        <ele>1273.2</ele>
        <time>2026-02-07T11:11:22.000Z</time>
      </trkpt>
      <trkpt lat="43.03748" lon="-0.36231">
        <ele>1273.7</ele>
        <time>2026-02-07T11:11:25.000Z</time>
      </trkpt>
      <trkpt lat="43.03746" lon="-0.36232">
        <ele>1274.3</ele>
        <time>2026-02-07T11:11:28.000Z</time>
      </trkpt>
      <trkpt lat="43.03745" lon="-0.36233">
        <ele>1274.8</ele>
        <time>2026-02-07T11:11:31.000Z</time>
      </trkpt>
      <trkpt lat="43.03744" lon="-0.36234">
        <ele>1275.3</ele>
        <time>2026-02-07T11:11:34.000Z</time>
      </trkpt>
      <trkpt lat="43.03744" lon="-0.36235">
        <ele>1275.8</ele>
        <time>2026-02-07T11:11:37.000Z</time>
      </trkpt>
      <trkpt lat="43.03743" lon="-0.36236">
        <ele>1276.1</ele>
        <time>2026-02-07T11:11:40.000Z</time>
      </trkpt>
      <trkpt lat="43.03741" lon="-0.36237">
        <ele>1276.4</ele>
        <time>2026-02-07T11:11:43.000Z</time>
      </trkpt>
      <trkpt lat="43.03739" lon="-0.36238">
        <ele>1276.8</ele>
        <time>2026-02-07T11:11:46.000Z</time>
      </trkpt>
      <trkpt lat="43.03736" lon="-0.36238">
        <ele>1277.2</ele>
        <time>2026-02-07T11:11:49.000Z</time>
      </trkpt>
      <trkpt lat="43.03735" lon="-0.36238">
        <ele>1277.7</ele>
        <time>2026-02-07T11:11:52.000Z</time>
      </trkpt>
      <trkpt lat="43.03734" lon="-0.36239">
        <ele>1278.1</ele>
        <time>2026-02-07T11:11:55.000Z</time>
      </trkpt>
      <trkpt lat="43.03732" lon="-0.36239">
        <ele>1278.5</ele>
        <time>2026-02-07T11:11:58.000Z</time>
      </trkpt>
      <trkpt lat="43.0373" lon="-0.36239">
        <ele>1279</ele>
        <time>2026-02-07T11:12:01.000Z</time>
      </trkpt>
      <trkpt lat="43.03729" lon="-0.36239">
        <ele>1279.3</ele>
        <time>2026-02-07T11:12:04.000Z</time>
      </trkpt>
      <trkpt lat="43.03727" lon="-0.36239">
        <ele>1279.7</ele>
        <time>2026-02-07T11:12:07.000Z</time>
      </trkpt>
      <trkpt lat="43.03726" lon="-0.36239">
        <ele>1280.2</ele>
        <time>2026-02-07T11:12:10.000Z</time>
      </trkpt>
      <trkpt lat="43.03726" lon="-0.3624">
        <ele>1280.5</ele>
        <time>2026-02-07T11:12:13.000Z</time>
      </trkpt>
      <trkpt lat="43.03726" lon="-0.3624">
        <ele>1280.9</ele>
        <time>2026-02-07T11:12:16.000Z</time>
      </trkpt>
      <trkpt lat="43.03724" lon="-0.36242">
        <ele>1281.2</ele>
        <time>2026-02-07T11:12:19.000Z</time>
      </trkpt>
      <trkpt lat="43.03721" lon="-0.36243">
        <ele>1281.5</ele>
        <time>2026-02-07T11:12:22.000Z</time>
      </trkpt>
      <trkpt lat="43.03718" lon="-0.36243">
        <ele>1281.9</ele>
        <time>2026-02-07T11:12:25.000Z</time>
      </trkpt>
      <trkpt lat="43.03717" lon="-0.36243">
        <ele>1282.3</ele>
        <time>2026-02-07T11:12:28.000Z</time>
      </trkpt>
      <trkpt lat="43.03716" lon="-0.36243">
        <ele>1282.7</ele>
        <time>2026-02-07T11:12:31.000Z</time>
      </trkpt>
      <trkpt lat="43.03715" lon="-0.36244">
        <ele>1283.1</ele>
        <time>2026-02-07T11:12:34.000Z</time>
      </trkpt>
      <trkpt lat="43.03714" lon="-0.36244">
        <ele>1283.4</ele>
        <time>2026-02-07T11:12:37.000Z</time>
      </trkpt>
      <trkpt lat="43.03712" lon="-0.36245">
        <ele>1283.6</ele>
        <time>2026-02-07T11:12:40.000Z</time>
      </trkpt>
      <trkpt lat="43.03711" lon="-0.36245">
        <ele>1284</ele>
        <time>2026-02-07T11:12:43.000Z</time>
      </trkpt>
      <trkpt lat="43.0371" lon="-0.36245">
        <ele>1284.3</ele>
        <time>2026-02-07T11:12:46.000Z</time>
      </trkpt>
      <trkpt lat="43.03708" lon="-0.36247">
        <ele>1284.7</ele>
        <time>2026-02-07T11:12:49.000Z</time>
      </trkpt>
      <trkpt lat="43.03706" lon="-0.36247">
        <ele>1285.2</ele>
        <time>2026-02-07T11:12:52.000Z</time>
      </trkpt>
      <trkpt lat="43.03703" lon="-0.36246">
        <ele>1285.6</ele>
        <time>2026-02-07T11:12:55.000Z</time>
      </trkpt>
      <trkpt lat="43.03698" lon="-0.36246">
        <ele>1286</ele>
        <time>2026-02-07T11:12:58.000Z</time>
      </trkpt>
      <trkpt lat="43.03694" lon="-0.36245">
        <ele>1286.4</ele>
        <time>2026-02-07T11:13:01.000Z</time>
      </trkpt>
      <trkpt lat="43.03691" lon="-0.36244">
        <ele>1286.8</ele>
        <time>2026-02-07T11:13:04.000Z</time>
      </trkpt>
      <trkpt lat="43.03692" lon="-0.36242">
        <ele>1287</ele>
        <time>2026-02-07T11:13:07.000Z</time>
      </trkpt>
      <trkpt lat="43.03693" lon="-0.36241">
        <ele>1287.1</ele>
        <time>2026-02-07T11:13:10.000Z</time>
      </trkpt>
      <trkpt lat="43.03693" lon="-0.3624">
        <ele>1287.1</ele>
        <time>2026-02-07T11:13:12.000Z</time>
      </trkpt>
      <trkpt lat="43.03693" lon="-0.3624">
        <ele>1287.1</ele>
        <time>2026-02-07T11:13:13.000Z</time>
      </trkpt>
      <trkpt lat="43.03694" lon="-0.3624">
        <ele>1287.1</ele>
        <time>2026-02-07T11:13:16.000Z</time>
      </trkpt>
      <trkpt lat="43.03695" lon="-0.36239">
        <ele>1287.2</ele>
        <time>2026-02-07T11:13:19.000Z</time>
      </trkpt>
      <trkpt lat="43.03695" lon="-0.36238">
        <ele>1287.2</ele>
        <time>2026-02-07T11:13:22.000Z</time>
      </trkpt>
      <trkpt lat="43.03693" lon="-0.36238">
        <ele>1287.2</ele>
        <time>2026-02-07T11:13:25.000Z</time>
      </trkpt>
      <trkpt lat="43.03692" lon="-0.36237">
        <ele>1287.2</ele>
        <time>2026-02-07T11:13:26.000Z</time>
      </trkpt>
      <trkpt lat="43.0369" lon="-0.36237">
        <ele>1287.2</ele>
        <time>2026-02-07T11:13:29.000Z</time>
      </trkpt>
      <trkpt lat="43.03688" lon="-0.36235">
        <ele>1287.3</ele>
        <time>2026-02-07T11:13:32.000Z</time>
      </trkpt>
      <trkpt lat="43.03684" lon="-0.36233">
        <ele>1287.5</ele>
        <time>2026-02-07T11:13:35.000Z</time>
      </trkpt>
      <trkpt lat="43.03682" lon="-0.3623">
        <ele>1287.7</ele>
        <time>2026-02-07T11:13:38.000Z</time>
      </trkpt>
      <trkpt lat="43.03681" lon="-0.36228">
        <ele>1288</ele>
        <time>2026-02-07T11:13:41.000Z</time>
      </trkpt>
      <trkpt lat="43.03678" lon="-0.36226">
        <ele>1288.3</ele>
        <time>2026-02-07T11:13:44.000Z</time>
      </trkpt>
      <trkpt lat="43.03676" lon="-0.36224">
        <ele>1288.7</ele>
        <time>2026-02-07T11:13:47.000Z</time>
      </trkpt>
      <trkpt lat="43.03673" lon="-0.36223">
        <ele>1289.1</ele>
        <time>2026-02-07T11:13:50.000Z</time>
      </trkpt>
      <trkpt lat="43.0367" lon="-0.36221">
        <ele>1289.5</ele>
        <time>2026-02-07T11:13:53.000Z</time>
      </trkpt>
      <trkpt lat="43.03668" lon="-0.36219">
        <ele>1289.9</ele>
        <time>2026-02-07T11:13:56.000Z</time>
      </trkpt>
      <trkpt lat="43.03667" lon="-0.36216">
        <ele>1290.2</ele>
        <time>2026-02-07T11:13:59.000Z</time>
      </trkpt>
      <trkpt lat="43.03665" lon="-0.36213">
        <ele>1290.6</ele>
        <time>2026-02-07T11:14:02.000Z</time>
      </trkpt>
      <trkpt lat="43.03664" lon="-0.36209">
        <ele>1291</ele>
        <time>2026-02-07T11:14:05.000Z</time>
      </trkpt>
      <trkpt lat="43.03665" lon="-0.36205">
        <ele>1291.3</ele>
        <time>2026-02-07T11:14:08.000Z</time>
      </trkpt>
      <trkpt lat="43.03664" lon="-0.36203">
        <ele>1291.8</ele>
        <time>2026-02-07T11:14:11.000Z</time>
      </trkpt>
      <trkpt lat="43.03661" lon="-0.36201">
        <ele>1292.2</ele>
        <time>2026-02-07T11:14:14.000Z</time>
      </trkpt>
      <trkpt lat="43.03659" lon="-0.362">
        <ele>1292.6</ele>
        <time>2026-02-07T11:14:17.000Z</time>
      </trkpt>
      <trkpt lat="43.03655" lon="-0.36199">
        <ele>1292.9</ele>
        <time>2026-02-07T11:14:20.000Z</time>
      </trkpt>
      <trkpt lat="43.03653" lon="-0.36197">
        <ele>1293.2</ele>
        <time>2026-02-07T11:14:23.000Z</time>
      </trkpt>
      <trkpt lat="43.0365" lon="-0.36195">
        <ele>1293.5</ele>
        <time>2026-02-07T11:14:26.000Z</time>
      </trkpt>
      <trkpt lat="43.03648" lon="-0.36193">
        <ele>1293.8</ele>
        <time>2026-02-07T11:14:29.000Z</time>
      </trkpt>
      <trkpt lat="43.03647" lon="-0.36191">
        <ele>1294</ele>
        <time>2026-02-07T11:14:32.000Z</time>
      </trkpt>
      <trkpt lat="43.03646" lon="-0.36188">
        <ele>1294.3</ele>
        <time>2026-02-07T11:14:35.000Z</time>
      </trkpt>
      <trkpt lat="43.03644" lon="-0.36187">
        <ele>1294.6</ele>
        <time>2026-02-07T11:14:38.000Z</time>
      </trkpt>
      <trkpt lat="43.03642" lon="-0.36185">
        <ele>1295</ele>
        <time>2026-02-07T11:14:41.000Z</time>
      </trkpt>
      <trkpt lat="43.03639" lon="-0.36184">
        <ele>1295.3</ele>
        <time>2026-02-07T11:14:44.000Z</time>
      </trkpt>
      <trkpt lat="43.03636" lon="-0.36183">
        <ele>1295.7</ele>
        <time>2026-02-07T11:14:47.000Z</time>
      </trkpt>
      <trkpt lat="43.03634" lon="-0.36182">
        <ele>1296</ele>
        <time>2026-02-07T11:14:50.000Z</time>
      </trkpt>
      <trkpt lat="43.03633" lon="-0.3618">
        <ele>1296.4</ele>
        <time>2026-02-07T11:14:53.000Z</time>
      </trkpt>
      <trkpt lat="43.03632" lon="-0.36179">
        <ele>1296.8</ele>
        <time>2026-02-07T11:14:56.000Z</time>
      </trkpt>
      <trkpt lat="43.03629" lon="-0.36178">
        <ele>1297.2</ele>
        <time>2026-02-07T11:14:59.000Z</time>
      </trkpt>
      <trkpt lat="43.03627" lon="-0.36177">
        <ele>1297.5</ele>
        <time>2026-02-07T11:15:02.000Z</time>
      </trkpt>
      <trkpt lat="43.03625" lon="-0.36175">
        <ele>1297.8</ele>
        <time>2026-02-07T11:15:05.000Z</time>
      </trkpt>
      <trkpt lat="43.03624" lon="-0.36173">
        <ele>1297.9</ele>
        <time>2026-02-07T11:15:08.000Z</time>
      </trkpt>
      <trkpt lat="43.03622" lon="-0.3617">
        <ele>1298</ele>
        <time>2026-02-07T11:15:11.000Z</time>
      </trkpt>
      <trkpt lat="43.03622" lon="-0.36167">
        <ele>1298.1</ele>
        <time>2026-02-07T11:15:14.000Z</time>
      </trkpt>
      <trkpt lat="43.03622" lon="-0.36166">
        <ele>1298.3</ele>
        <time>2026-02-07T11:15:17.000Z</time>
      </trkpt>
      <trkpt lat="43.03624" lon="-0.36162">
        <ele>1298.4</ele>
        <time>2026-02-07T11:15:20.000Z</time>
      </trkpt>
      <trkpt lat="43.03624" lon="-0.36157">
        <ele>1298.6</ele>
        <time>2026-02-07T11:15:23.000Z</time>
      </trkpt>
      <trkpt lat="43.03624" lon="-0.36153">
        <ele>1298.9</ele>
        <time>2026-02-07T11:15:26.000Z</time>
      </trkpt>
      <trkpt lat="43.03625" lon="-0.36149">
        <ele>1299.2</ele>
        <time>2026-02-07T11:15:29.000Z</time>
      </trkpt>
      <trkpt lat="43.03626" lon="-0.36144">
        <ele>1299.5</ele>
        <time>2026-02-07T11:15:32.000Z</time>
      </trkpt>
      <trkpt lat="43.03627" lon="-0.36141">
        <ele>1299.8</ele>
        <time>2026-02-07T11:15:35.000Z</time>
      </trkpt>
      <trkpt lat="43.03628" lon="-0.36139">
        <ele>1300.1</ele>
        <time>2026-02-07T11:15:38.000Z</time>
      </trkpt>
      <trkpt lat="43.03628" lon="-0.36139">
        <ele>1300.2</ele>
        <time>2026-02-07T11:15:39.000Z</time>
      </trkpt>
      <trkpt lat="43.03628" lon="-0.36139">
        <ele>1300.2</ele>
        <time>2026-02-07T11:15:40.000Z</time>
      </trkpt>
      <trkpt lat="43.03628" lon="-0.36139">
        <ele>1300.3</ele>
        <time>2026-02-07T11:15:41.000Z</time>
      </trkpt>
      <trkpt lat="43.03628" lon="-0.36139">
        <ele>1300.5</ele>
        <time>2026-02-07T11:15:44.000Z</time>
      </trkpt>
      <trkpt lat="43.03627" lon="-0.36138">
        <ele>1300.6</ele>
        <time>2026-02-07T11:15:47.000Z</time>
      </trkpt>
      <trkpt lat="43.03626" lon="-0.36136">
        <ele>1300.7</ele>
        <time>2026-02-07T11:15:50.000Z</time>
      </trkpt>
      <trkpt lat="43.03627" lon="-0.36135">
        <ele>1300.7</ele>
        <time>2026-02-07T11:15:51.000Z</time>
      </trkpt>
      <trkpt lat="43.03627" lon="-0.36132">
        <ele>1300.9</ele>
        <time>2026-02-07T11:15:54.000Z</time>
      </trkpt>
      <trkpt lat="43.03627" lon="-0.36129">
        <ele>1301</ele>
        <time>2026-02-07T11:15:57.000Z</time>
      </trkpt>
      <trkpt lat="43.03628" lon="-0.36125">
        <ele>1301.1</ele>
        <time>2026-02-07T11:16:00.000Z</time>
      </trkpt>
      <trkpt lat="43.03628" lon="-0.36122">
        <ele>1301.3</ele>
        <time>2026-02-07T11:16:03.000Z</time>
      </trkpt>
      <trkpt lat="43.03628" lon="-0.36118">
        <ele>1301.4</ele>
        <time>2026-02-07T11:16:06.000Z</time>
      </trkpt>
      <trkpt lat="43.03628" lon="-0.36115">
        <ele>1301.5</ele>
        <time>2026-02-07T11:16:09.000Z</time>
      </trkpt>
      <trkpt lat="43.03627" lon="-0.36112">
        <ele>1301.7</ele>
        <time>2026-02-07T11:16:12.000Z</time>
      </trkpt>
      <trkpt lat="43.03626" lon="-0.3611">
        <ele>1301.9</ele>
        <time>2026-02-07T11:16:15.000Z</time>
      </trkpt>
      <trkpt lat="43.03624" lon="-0.36108">
        <ele>1302</ele>
        <time>2026-02-07T11:16:18.000Z</time>
      </trkpt>
      <trkpt lat="43.03623" lon="-0.36106">
        <ele>1302.3</ele>
        <time>2026-02-07T11:16:21.000Z</time>
      </trkpt>
      <trkpt lat="43.03622" lon="-0.36104">
        <ele>1302.6</ele>
        <time>2026-02-07T11:16:24.000Z</time>
      </trkpt>
      <trkpt lat="43.0362" lon="-0.36103">
        <ele>1303.1</ele>
        <time>2026-02-07T11:16:27.000Z</time>
      </trkpt>
      <trkpt lat="43.03619" lon="-0.36102">
        <ele>1303.4</ele>
        <time>2026-02-07T11:16:30.000Z</time>
      </trkpt>
      <trkpt lat="43.03618" lon="-0.36101">
        <ele>1303.6</ele>
        <time>2026-02-07T11:16:33.000Z</time>
      </trkpt>
      <trkpt lat="43.03618" lon="-0.36102">
        <ele>1303.7</ele>
        <time>2026-02-07T11:16:34.000Z</time>
      </trkpt>
      <trkpt lat="43.03619" lon="-0.36102">
        <ele>1303.7</ele>
        <time>2026-02-07T11:16:35.000Z</time>
      </trkpt>
      <trkpt lat="43.03619" lon="-0.36102">
        <ele>1303.8</ele>
        <time>2026-02-07T11:16:36.000Z</time>
      </trkpt>
      <trkpt lat="43.0362" lon="-0.36102">
        <ele>1303.8</ele>
        <time>2026-02-07T11:16:37.000Z</time>
      </trkpt>
      <trkpt lat="43.0362" lon="-0.36102">
        <ele>1303.8</ele>
        <time>2026-02-07T11:16:38.000Z</time>
      </trkpt>
      <trkpt lat="43.0362" lon="-0.36103">
        <ele>1303.9</ele>
        <time>2026-02-07T11:16:39.000Z</time>
      </trkpt>
      <trkpt lat="43.0362" lon="-0.36103">
        <ele>1303.9</ele>
        <time>2026-02-07T11:16:40.000Z</time>
      </trkpt>
      <trkpt lat="43.0362" lon="-0.36103">
        <ele>1303.9</ele>
        <time>2026-02-07T11:16:41.000Z</time>
      </trkpt>
      <trkpt lat="43.03619" lon="-0.36103">
        <ele>1304</ele>
        <time>2026-02-07T11:16:44.000Z</time>
      </trkpt>
      <trkpt lat="43.03619" lon="-0.36103">
        <ele>1304</ele>
        <time>2026-02-07T11:16:47.000Z</time>
      </trkpt>
      <trkpt lat="43.03619" lon="-0.36103">
        <ele>1304</ele>
        <time>2026-02-07T11:16:50.000Z</time>
      </trkpt>
      <trkpt lat="43.03618" lon="-0.36103">
        <ele>1303.9</ele>
        <time>2026-02-07T11:16:53.000Z</time>
      </trkpt>
      <trkpt lat="43.03618" lon="-0.36103">
        <ele>1303.9</ele>
        <time>2026-02-07T11:16:56.000Z</time>
      </trkpt>
      <trkpt lat="43.03618" lon="-0.36103">
        <ele>1303.9</ele>
        <time>2026-02-07T11:16:59.000Z</time>
      </trkpt>
      <trkpt lat="43.03618" lon="-0.36103">
        <ele>1303.8</ele>
        <time>2026-02-07T11:17:02.000Z</time>
      </trkpt>
      <trkpt lat="43.03618" lon="-0.36103">
        <ele>1303.8</ele>
        <time>2026-02-07T11:17:05.000Z</time>
      </trkpt>
      <trkpt lat="43.03618" lon="-0.36103">
        <ele>1303.8</ele>
        <time>2026-02-07T11:17:08.000Z</time>
      </trkpt>
      <trkpt lat="43.03618" lon="-0.36103">
        <ele>1303.8</ele>
        <time>2026-02-07T11:17:11.000Z</time>
      </trkpt>
      <trkpt lat="43.03619" lon="-0.36103">
        <ele>1303.8</ele>
        <time>2026-02-07T11:17:14.000Z</time>
      </trkpt>
      <trkpt lat="43.03619" lon="-0.36103">
        <ele>1303.8</ele>
        <time>2026-02-07T11:17:17.000Z</time>
      </trkpt>
      <trkpt lat="43.03619" lon="-0.36103">
        <ele>1303.9</ele>
        <time>2026-02-07T11:17:20.000Z</time>
      </trkpt>
      <trkpt lat="43.0362" lon="-0.36103">
        <ele>1303.9</ele>
        <time>2026-02-07T11:17:23.000Z</time>
      </trkpt>
      <trkpt lat="43.0362" lon="-0.36103">
        <ele>1303.9</ele>
        <time>2026-02-07T11:17:25.000Z</time>
      </trkpt>
      <trkpt lat="43.0362" lon="-0.36103">
        <ele>1303.9</ele>
        <time>2026-02-07T11:17:26.000Z</time>
      </trkpt>
      <trkpt lat="43.03619" lon="-0.36103">
        <ele>1303.9</ele>
        <time>2026-02-07T11:17:29.000Z</time>
      </trkpt>
      <trkpt lat="43.0362" lon="-0.36103">
        <ele>1303.9</ele>
        <time>2026-02-07T11:17:30.000Z</time>
      </trkpt>
      <trkpt lat="43.03619" lon="-0.36103">
        <ele>1303.9</ele>
        <time>2026-02-07T11:17:31.000Z</time>
      </trkpt>
      <trkpt lat="43.03619" lon="-0.36102">
        <ele>1303.9</ele>
        <time>2026-02-07T11:17:34.000Z</time>
      </trkpt>
      <trkpt lat="43.03618" lon="-0.36101">
        <ele>1303.9</ele>
        <time>2026-02-07T11:17:35.000Z</time>
      </trkpt>
      <trkpt lat="43.03618" lon="-0.36101">
        <ele>1303.9</ele>
        <time>2026-02-07T11:17:36.000Z</time>
      </trkpt>
      <trkpt lat="43.03615" lon="-0.361">
        <ele>1303.9</ele>
        <time>2026-02-07T11:17:39.000Z</time>
      </trkpt>
      <trkpt lat="43.03612" lon="-0.36097">
        <ele>1304</ele>
        <time>2026-02-07T11:17:42.000Z</time>
      </trkpt>
      <trkpt lat="43.03609" lon="-0.36094">
        <ele>1304.1</ele>
        <time>2026-02-07T11:17:45.000Z</time>
      </trkpt>
      <trkpt lat="43.03606" lon="-0.36091">
        <ele>1304.2</ele>
        <time>2026-02-07T11:17:48.000Z</time>
      </trkpt>
      <trkpt lat="43.03604" lon="-0.36087">
        <ele>1304.4</ele>
        <time>2026-02-07T11:17:51.000Z</time>
      </trkpt>
      <trkpt lat="43.03602" lon="-0.36085">
        <ele>1304.6</ele>
        <time>2026-02-07T11:17:54.000Z</time>
      </trkpt>
      <trkpt lat="43.036" lon="-0.36082">
        <ele>1304.9</ele>
        <time>2026-02-07T11:17:57.000Z</time>
      </trkpt>
      <trkpt lat="43.03597" lon="-0.36081">
        <ele>1305.1</ele>
        <time>2026-02-07T11:18:00.000Z</time>
      </trkpt>
      <trkpt lat="43.03596" lon="-0.36078">
        <ele>1305.3</ele>
        <time>2026-02-07T11:18:03.000Z</time>
      </trkpt>
      <trkpt lat="43.03594" lon="-0.36075">
        <ele>1305.6</ele>
        <time>2026-02-07T11:18:06.000Z</time>
      </trkpt>
      <trkpt lat="43.03593" lon="-0.36072">
        <ele>1305.8</ele>
        <time>2026-02-07T11:18:09.000Z</time>
      </trkpt>
      <trkpt lat="43.03592" lon="-0.36069">
        <ele>1306</ele>
        <time>2026-02-07T11:18:12.000Z</time>
      </trkpt>
      <trkpt lat="43.0359" lon="-0.36066">
        <ele>1306.3</ele>
        <time>2026-02-07T11:18:15.000Z</time>
      </trkpt>
      <trkpt lat="43.03587" lon="-0.36063">
        <ele>1306.5</ele>
        <time>2026-02-07T11:18:18.000Z</time>
      </trkpt>
      <trkpt lat="43.03585" lon="-0.3606">
        <ele>1306.7</ele>
        <time>2026-02-07T11:18:21.000Z</time>
      </trkpt>
      <trkpt lat="43.03585" lon="-0.36056">
        <ele>1307</ele>
        <time>2026-02-07T11:18:24.000Z</time>
      </trkpt>
      <trkpt lat="43.03582" lon="-0.36053">
        <ele>1307.2</ele>
        <time>2026-02-07T11:18:27.000Z</time>
      </trkpt>
      <trkpt lat="43.0358" lon="-0.36051">
        <ele>1307.4</ele>
        <time>2026-02-07T11:18:30.000Z</time>
      </trkpt>
      <trkpt lat="43.03579" lon="-0.36048">
        <ele>1307.6</ele>
        <time>2026-02-07T11:18:33.000Z</time>
      </trkpt>
      <trkpt lat="43.03578" lon="-0.36044">
        <ele>1307.7</ele>
        <time>2026-02-07T11:18:36.000Z</time>
      </trkpt>
      <trkpt lat="43.03577" lon="-0.3604">
        <ele>1307.9</ele>
        <time>2026-02-07T11:18:39.000Z</time>
      </trkpt>
      <trkpt lat="43.03576" lon="-0.36036">
        <ele>1308.1</ele>
        <time>2026-02-07T11:18:42.000Z</time>
      </trkpt>
      <trkpt lat="43.03576" lon="-0.36032">
        <ele>1308.3</ele>
        <time>2026-02-07T11:18:45.000Z</time>
      </trkpt>
      <trkpt lat="43.03576" lon="-0.36028">
        <ele>1308.6</ele>
        <time>2026-02-07T11:18:48.000Z</time>
      </trkpt>
      <trkpt lat="43.03576" lon="-0.36023">
        <ele>1308.9</ele>
        <time>2026-02-07T11:18:51.000Z</time>
      </trkpt>
      <trkpt lat="43.03576" lon="-0.36019">
        <ele>1309.1</ele>
        <time>2026-02-07T11:18:54.000Z</time>
      </trkpt>
      <trkpt lat="43.03577" lon="-0.36016">
        <ele>1309.2</ele>
        <time>2026-02-07T11:18:57.000Z</time>
      </trkpt>
      <trkpt lat="43.03579" lon="-0.36014">
        <ele>1309.3</ele>
        <time>2026-02-07T11:19:00.000Z</time>
      </trkpt>
      <trkpt lat="43.03581" lon="-0.36011">
        <ele>1309.6</ele>
        <time>2026-02-07T11:19:03.000Z</time>
      </trkpt>
      <trkpt lat="43.03581" lon="-0.36008">
        <ele>1309.8</ele>
        <time>2026-02-07T11:19:06.000Z</time>
      </trkpt>
      <trkpt lat="43.03582" lon="-0.36004">
        <ele>1310</ele>
        <time>2026-02-07T11:19:09.000Z</time>
      </trkpt>
      <trkpt lat="43.03581" lon="-0.35999">
        <ele>1310.3</ele>
        <time>2026-02-07T11:19:12.000Z</time>
      </trkpt>
      <trkpt lat="43.03581" lon="-0.35995">
        <ele>1310.5</ele>
        <time>2026-02-07T11:19:15.000Z</time>
      </trkpt>
      <trkpt lat="43.03582" lon="-0.35991">
        <ele>1310.8</ele>
        <time>2026-02-07T11:19:18.000Z</time>
      </trkpt>
      <trkpt lat="43.03583" lon="-0.35989">
        <ele>1311.1</ele>
        <time>2026-02-07T11:19:21.000Z</time>
      </trkpt>
      <trkpt lat="43.03583" lon="-0.35988">
        <ele>1311.4</ele>
        <time>2026-02-07T11:19:24.000Z</time>
      </trkpt>
      <trkpt lat="43.03583" lon="-0.35988">
        <ele>1311.5</ele>
        <time>2026-02-07T11:19:25.000Z</time>
      </trkpt>
      <trkpt lat="43.03583" lon="-0.35988">
        <ele>1311.5</ele>
        <time>2026-02-07T11:19:26.000Z</time>
      </trkpt>
      <trkpt lat="43.03583" lon="-0.35986">
        <ele>1311.6</ele>
        <time>2026-02-07T11:19:29.000Z</time>
      </trkpt>
      <trkpt lat="43.03584" lon="-0.35986">
        <ele>1311.6</ele>
        <time>2026-02-07T11:19:30.000Z</time>
      </trkpt>
      <trkpt lat="43.03584" lon="-0.35985">
        <ele>1311.7</ele>
        <time>2026-02-07T11:19:31.000Z</time>
      </trkpt>
      <trkpt lat="43.03586" lon="-0.35982">
        <ele>1311.8</ele>
        <time>2026-02-07T11:19:34.000Z</time>
      </trkpt>
      <trkpt lat="43.03587" lon="-0.35979">
        <ele>1312</ele>
        <time>2026-02-07T11:19:37.000Z</time>
      </trkpt>
      <trkpt lat="43.03587" lon="-0.35975">
        <ele>1312.1</ele>
        <time>2026-02-07T11:19:40.000Z</time>
      </trkpt>
      <trkpt lat="43.03588" lon="-0.35972">
        <ele>1312.2</ele>
        <time>2026-02-07T11:19:43.000Z</time>
      </trkpt>
      <trkpt lat="43.03589" lon="-0.35969">
        <ele>1312.3</ele>
        <time>2026-02-07T11:19:46.000Z</time>
      </trkpt>
      <trkpt lat="43.03589" lon="-0.35968">
        <ele>1312.4</ele>
        <time>2026-02-07T11:19:49.000Z</time>
      </trkpt>
      <trkpt lat="43.03589" lon="-0.35968">
        <ele>1312.5</ele>
        <time>2026-02-07T11:19:52.000Z</time>
      </trkpt>
      <trkpt lat="43.03589" lon="-0.35968">
        <ele>1312.6</ele>
        <time>2026-02-07T11:19:53.000Z</time>
      </trkpt>
      <trkpt lat="43.03589" lon="-0.35968">
        <ele>1312.6</ele>
        <time>2026-02-07T11:19:54.000Z</time>
      </trkpt>
      <trkpt lat="43.03589" lon="-0.35965">
        <ele>1312.7</ele>
        <time>2026-02-07T11:19:57.000Z</time>
      </trkpt>
      <trkpt lat="43.03589" lon="-0.35964">
        <ele>1312.7</ele>
        <time>2026-02-07T11:19:58.000Z</time>
      </trkpt>
      <trkpt lat="43.03589" lon="-0.3596">
        <ele>1312.9</ele>
        <time>2026-02-07T11:20:01.000Z</time>
      </trkpt>
      <trkpt lat="43.03589" lon="-0.35957">
        <ele>1313</ele>
        <time>2026-02-07T11:20:04.000Z</time>
      </trkpt>
      <trkpt lat="43.03588" lon="-0.35952">
        <ele>1313.1</ele>
        <time>2026-02-07T11:20:07.000Z</time>
      </trkpt>
      <trkpt lat="43.03587" lon="-0.35948">
        <ele>1313.2</ele>
        <time>2026-02-07T11:20:10.000Z</time>
      </trkpt>
      <trkpt lat="43.03586" lon="-0.35944">
        <ele>1313.5</ele>
        <time>2026-02-07T11:20:13.000Z</time>
      </trkpt>
      <trkpt lat="43.03585" lon="-0.35939">
        <ele>1313.6</ele>
        <time>2026-02-07T11:20:16.000Z</time>
      </trkpt>
      <trkpt lat="43.03585" lon="-0.35935">
        <ele>1313.7</ele>
        <time>2026-02-07T11:20:19.000Z</time>
      </trkpt>
      <trkpt lat="43.03585" lon="-0.35931">
        <ele>1313.9</ele>
        <time>2026-02-07T11:20:22.000Z</time>
      </trkpt>
      <trkpt lat="43.03585" lon="-0.35928">
        <ele>1314.2</ele>
        <time>2026-02-07T11:20:25.000Z</time>
      </trkpt>
      <trkpt lat="43.03584" lon="-0.35924">
        <ele>1314.5</ele>
        <time>2026-02-07T11:20:28.000Z</time>
      </trkpt>
      <trkpt lat="43.03583" lon="-0.35921">
        <ele>1314.8</ele>
        <time>2026-02-07T11:20:31.000Z</time>
      </trkpt>
      <trkpt lat="43.03583" lon="-0.35919">
        <ele>1315.1</ele>
        <time>2026-02-07T11:20:34.000Z</time>
      </trkpt>
      <trkpt lat="43.03583" lon="-0.3592">
        <ele>1315.4</ele>
        <time>2026-02-07T11:20:37.000Z</time>
      </trkpt>
      <trkpt lat="43.03583" lon="-0.3592">
        <ele>1315.5</ele>
        <time>2026-02-07T11:20:38.000Z</time>
      </trkpt>
      <trkpt lat="43.03583" lon="-0.35919">
        <ele>1315.6</ele>
        <time>2026-02-07T11:20:41.000Z</time>
      </trkpt>
      <trkpt lat="43.03583" lon="-0.3592">
        <ele>1315.7</ele>
        <time>2026-02-07T11:20:44.000Z</time>
      </trkpt>
      <trkpt lat="43.03582" lon="-0.3592">
        <ele>1315.8</ele>
        <time>2026-02-07T11:20:47.000Z</time>
      </trkpt>
      <trkpt lat="43.03582" lon="-0.3592">
        <ele>1315.9</ele>
        <time>2026-02-07T11:20:50.000Z</time>
      </trkpt>
      <trkpt lat="43.03582" lon="-0.3592">
        <ele>1316.1</ele>
        <time>2026-02-07T11:20:53.000Z</time>
      </trkpt>
      <trkpt lat="43.03582" lon="-0.3592">
        <ele>1316.2</ele>
        <time>2026-02-07T11:20:56.000Z</time>
      </trkpt>
      <trkpt lat="43.03582" lon="-0.3592">
        <ele>1316.2</ele>
        <time>2026-02-07T11:20:59.000Z</time>
      </trkpt>
      <trkpt lat="43.03582" lon="-0.3592">
        <ele>1316.2</ele>
        <time>2026-02-07T11:21:02.000Z</time>
      </trkpt>
      <trkpt lat="43.03582" lon="-0.3592">
        <ele>1316.2</ele>
        <time>2026-02-07T11:21:05.000Z</time>
      </trkpt>
      <trkpt lat="43.03582" lon="-0.3592">
        <ele>1316.3</ele>
        <time>2026-02-07T11:21:08.000Z</time>
      </trkpt>
      <trkpt lat="43.03582" lon="-0.3592">
        <ele>1316.3</ele>
        <time>2026-02-07T11:21:11.000Z</time>
      </trkpt>
      <trkpt lat="43.03582" lon="-0.3592">
        <ele>1316.3</ele>
        <time>2026-02-07T11:21:14.000Z</time>
      </trkpt>
      <trkpt lat="43.03582" lon="-0.3592">
        <ele>1316.4</ele>
        <time>2026-02-07T11:21:17.000Z</time>
      </trkpt>
      <trkpt lat="43.03582" lon="-0.3592">
        <ele>1316.4</ele>
        <time>2026-02-07T11:21:20.000Z</time>
      </trkpt>
      <trkpt lat="43.03582" lon="-0.3592">
        <ele>1316.4</ele>
        <time>2026-02-07T11:21:23.000Z</time>
      </trkpt>
      <trkpt lat="43.03582" lon="-0.3592">
        <ele>1316.4</ele>
        <time>2026-02-07T11:21:26.000Z</time>
      </trkpt>
      <trkpt lat="43.03582" lon="-0.3592">
        <ele>1316.4</ele>
        <time>2026-02-07T11:21:29.000Z</time>
      </trkpt>
      <trkpt lat="43.03582" lon="-0.3592">
        <ele>1316.4</ele>
        <time>2026-02-07T11:21:32.000Z</time>
      </trkpt>
      <trkpt lat="43.03582" lon="-0.3592">
        <ele>1316.3</ele>
        <time>2026-02-07T11:21:35.000Z</time>
      </trkpt>
      <trkpt lat="43.03582" lon="-0.3592">
        <ele>1316.3</ele>
        <time>2026-02-07T11:21:38.000Z</time>
      </trkpt>
      <trkpt lat="43.03581" lon="-0.35919">
        <ele>1316.2</ele>
        <time>2026-02-07T11:21:41.000Z</time>
      </trkpt>
      <trkpt lat="43.03581" lon="-0.35919">
        <ele>1316.2</ele>
        <time>2026-02-07T11:21:44.000Z</time>
      </trkpt>
      <trkpt lat="43.03581" lon="-0.35919">
        <ele>1316.1</ele>
        <time>2026-02-07T11:21:47.000Z</time>
      </trkpt>
      <trkpt lat="43.03581" lon="-0.35919">
        <ele>1316</ele>
        <time>2026-02-07T11:21:50.000Z</time>
      </trkpt>
      <trkpt lat="43.03581" lon="-0.35919">
        <ele>1316</ele>
        <time>2026-02-07T11:21:53.000Z</time>
      </trkpt>
      <trkpt lat="43.03581" lon="-0.35919">
        <ele>1315.9</ele>
        <time>2026-02-07T11:21:56.000Z</time>
      </trkpt>
      <trkpt lat="43.03584" lon="-0.35921">
        <ele>1315.9</ele>
        <time>2026-02-07T11:21:59.000Z</time>
      </trkpt>
      <trkpt lat="43.03584" lon="-0.35921">
        <ele>1316</ele>
        <time>2026-02-07T11:22:02.000Z</time>
      </trkpt>
      <trkpt lat="43.03584" lon="-0.35921">
        <ele>1316</ele>
        <time>2026-02-07T11:22:05.000Z</time>
      </trkpt>
      <trkpt lat="43.03584" lon="-0.35921">
        <ele>1316</ele>
        <time>2026-02-07T11:22:08.000Z</time>
      </trkpt>
      <trkpt lat="43.03584" lon="-0.35921">
        <ele>1316</ele>
        <time>2026-02-07T11:22:11.000Z</time>
      </trkpt>
      <trkpt lat="43.03584" lon="-0.35921">
        <ele>1316</ele>
        <time>2026-02-07T11:22:14.000Z</time>
      </trkpt>
      <trkpt lat="43.03584" lon="-0.35921">
        <ele>1316.1</ele>
        <time>2026-02-07T11:22:17.000Z</time>
      </trkpt>
      <trkpt lat="43.03584" lon="-0.35921">
        <ele>1316.1</ele>
        <time>2026-02-07T11:22:20.000Z</time>
      </trkpt>
      <trkpt lat="43.03584" lon="-0.35921">
        <ele>1316.1</ele>
        <time>2026-02-07T11:22:23.000Z</time>
      </trkpt>
      <trkpt lat="43.03584" lon="-0.35921">
        <ele>1316.2</ele>
        <time>2026-02-07T11:22:26.000Z</time>
      </trkpt>
      <trkpt lat="43.03584" lon="-0.35921">
        <ele>1316.2</ele>
        <time>2026-02-07T11:22:29.000Z</time>
      </trkpt>
      <trkpt lat="43.03584" lon="-0.35921">
        <ele>1316.2</ele>
        <time>2026-02-07T11:22:32.000Z</time>
      </trkpt>
      <trkpt lat="43.03584" lon="-0.35921">
        <ele>1316.2</ele>
        <time>2026-02-07T11:22:33.000Z</time>
      </trkpt>
      <trkpt lat="43.03584" lon="-0.35921">
        <ele>1316.3</ele>
        <time>2026-02-07T11:22:34.000Z</time>
      </trkpt>
      <trkpt lat="43.03584" lon="-0.35921">
        <ele>1316.3</ele>
        <time>2026-02-07T11:22:35.000Z</time>
      </trkpt>
      <trkpt lat="43.03584" lon="-0.35921">
        <ele>1316.3</ele>
        <time>2026-02-07T11:22:36.000Z</time>
      </trkpt>
      <trkpt lat="43.03584" lon="-0.35921">
        <ele>1316.3</ele>
        <time>2026-02-07T11:22:39.000Z</time>
      </trkpt>
      <trkpt lat="43.03584" lon="-0.35921">
        <ele>1316.4</ele>
        <time>2026-02-07T11:22:42.000Z</time>
      </trkpt>
      <trkpt lat="43.03584" lon="-0.35921">
        <ele>1316.4</ele>
        <time>2026-02-07T11:22:45.000Z</time>
      </trkpt>
      <trkpt lat="43.03584" lon="-0.35921">
        <ele>1316.4</ele>
        <time>2026-02-07T11:22:48.000Z</time>
      </trkpt>
      <trkpt lat="43.03584" lon="-0.35921">
        <ele>1316.5</ele>
        <time>2026-02-07T11:22:51.000Z</time>
      </trkpt>
      <trkpt lat="43.03584" lon="-0.35921">
        <ele>1316.5</ele>
        <time>2026-02-07T11:22:54.000Z</time>
      </trkpt>
      <trkpt lat="43.03584" lon="-0.35921">
        <ele>1316.5</ele>
        <time>2026-02-07T11:22:57.000Z</time>
      </trkpt>
      <trkpt lat="43.03583" lon="-0.3592">
        <ele>1316.5</ele>
        <time>2026-02-07T11:23:00.000Z</time>
      </trkpt>
      <trkpt lat="43.03583" lon="-0.3592">
        <ele>1316.6</ele>
        <time>2026-02-07T11:23:03.000Z</time>
      </trkpt>
      <trkpt lat="43.03583" lon="-0.3592">
        <ele>1316.6</ele>
        <time>2026-02-07T11:23:06.000Z</time>
      </trkpt>
      <trkpt lat="43.03582" lon="-0.35919">
        <ele>1316.6</ele>
        <time>2026-02-07T11:23:09.000Z</time>
      </trkpt>
      <trkpt lat="43.03582" lon="-0.35919">
        <ele>1316.6</ele>
        <time>2026-02-07T11:23:12.000Z</time>
      </trkpt>
      <trkpt lat="43.03582" lon="-0.35918">
        <ele>1316.6</ele>
        <time>2026-02-07T11:23:13.000Z</time>
      </trkpt>
      <trkpt lat="43.03581" lon="-0.35918">
        <ele>1316.6</ele>
        <time>2026-02-07T11:23:16.000Z</time>
      </trkpt>
      <trkpt lat="43.03581" lon="-0.35918">
        <ele>1316.7</ele>
        <time>2026-02-07T11:23:19.000Z</time>
      </trkpt>
      <trkpt lat="43.03581" lon="-0.35918">
        <ele>1316.7</ele>
        <time>2026-02-07T11:23:20.000Z</time>
      </trkpt>
      <trkpt lat="43.03581" lon="-0.35918">
        <ele>1316.7</ele>
        <time>2026-02-07T11:23:21.000Z</time>
      </trkpt>
      <trkpt lat="43.03581" lon="-0.35918">
        <ele>1316.7</ele>
        <time>2026-02-07T11:23:24.000Z</time>
      </trkpt>
      <trkpt lat="43.03581" lon="-0.35918">
        <ele>1316.7</ele>
        <time>2026-02-07T11:23:27.000Z</time>
      </trkpt>
      <trkpt lat="43.03581" lon="-0.35918">
        <ele>1316.7</ele>
        <time>2026-02-07T11:23:30.000Z</time>
      </trkpt>
      <trkpt lat="43.03581" lon="-0.35918">
        <ele>1316.7</ele>
        <time>2026-02-07T11:23:33.000Z</time>
      </trkpt>
      <trkpt lat="43.03581" lon="-0.35917">
        <ele>1316.7</ele>
        <time>2026-02-07T11:23:35.000Z</time>
      </trkpt>
      <trkpt lat="43.0358" lon="-0.35917">
        <ele>1316.7</ele>
        <time>2026-02-07T11:23:36.000Z</time>
      </trkpt>
      <trkpt lat="43.0358" lon="-0.35916">
        <ele>1316.7</ele>
        <time>2026-02-07T11:23:37.000Z</time>
      </trkpt>
      <trkpt lat="43.03578" lon="-0.35914">
        <ele>1316.7</ele>
        <time>2026-02-07T11:23:40.000Z</time>
      </trkpt>
      <trkpt lat="43.03577" lon="-0.35914">
        <ele>1316.7</ele>
        <time>2026-02-07T11:23:43.000Z</time>
      </trkpt>
      <trkpt lat="43.03577" lon="-0.35914">
        <ele>1316.7</ele>
        <time>2026-02-07T11:23:45.000Z</time>
      </trkpt>
      <trkpt lat="43.03577" lon="-0.35913">
        <ele>1316.7</ele>
        <time>2026-02-07T11:23:46.000Z</time>
      </trkpt>
      <trkpt lat="43.03577" lon="-0.35913">
        <ele>1316.8</ele>
        <time>2026-02-07T11:23:47.000Z</time>
      </trkpt>
      <trkpt lat="43.03577" lon="-0.35913">
        <ele>1316.8</ele>
        <time>2026-02-07T11:23:48.000Z</time>
      </trkpt>
      <trkpt lat="43.03577" lon="-0.35913">
        <ele>1316.8</ele>
        <time>2026-02-07T11:23:49.000Z</time>
      </trkpt>
      <trkpt lat="43.03575" lon="-0.35912">
        <ele>1316.9</ele>
        <time>2026-02-07T11:23:52.000Z</time>
      </trkpt>
      <trkpt lat="43.03573" lon="-0.35911">
        <ele>1317.1</ele>
        <time>2026-02-07T11:23:55.000Z</time>
      </trkpt>
      <trkpt lat="43.03571" lon="-0.35912">
        <ele>1317.4</ele>
        <time>2026-02-07T11:23:58.000Z</time>
      </trkpt>
      <trkpt lat="43.0357" lon="-0.35912">
        <ele>1317.8</ele>
        <time>2026-02-07T11:24:01.000Z</time>
      </trkpt>
      <trkpt lat="43.03568" lon="-0.35913">
        <ele>1318.4</ele>
        <time>2026-02-07T11:24:04.000Z</time>
      </trkpt>
      <trkpt lat="43.03566" lon="-0.35913">
        <ele>1319.1</ele>
        <time>2026-02-07T11:24:07.000Z</time>
      </trkpt>
      <trkpt lat="43.03564" lon="-0.35912">
        <ele>1319.7</ele>
        <time>2026-02-07T11:24:10.000Z</time>
      </trkpt>
      <trkpt lat="43.03561" lon="-0.35912">
        <ele>1320.1</ele>
        <time>2026-02-07T11:24:13.000Z</time>
      </trkpt>
      <trkpt lat="43.03559" lon="-0.35912">
        <ele>1320.5</ele>
        <time>2026-02-07T11:24:16.000Z</time>
      </trkpt>
      <trkpt lat="43.03557" lon="-0.3591">
        <ele>1321</ele>
        <time>2026-02-07T11:24:19.000Z</time>
      </trkpt>
      <trkpt lat="43.03556" lon="-0.35908">
        <ele>1321.3</ele>
        <time>2026-02-07T11:24:22.000Z</time>
      </trkpt>
      <trkpt lat="43.03556" lon="-0.35905">
        <ele>1321.7</ele>
        <time>2026-02-07T11:24:25.000Z</time>
      </trkpt>
      <trkpt lat="43.03556" lon="-0.35902">
        <ele>1322.1</ele>
        <time>2026-02-07T11:24:28.000Z</time>
      </trkpt>
      <trkpt lat="43.03556" lon="-0.35899">
        <ele>1322.5</ele>
        <time>2026-02-07T11:24:31.000Z</time>
      </trkpt>
      <trkpt lat="43.03557" lon="-0.35895">
        <ele>1322.9</ele>
        <time>2026-02-07T11:24:34.000Z</time>
      </trkpt>
      <trkpt lat="43.03559" lon="-0.35893">
        <ele>1323.2</ele>
        <time>2026-02-07T11:24:37.000Z</time>
      </trkpt>
      <trkpt lat="43.03562" lon="-0.3589">
        <ele>1323.4</ele>
        <time>2026-02-07T11:24:40.000Z</time>
      </trkpt>
      <trkpt lat="43.03563" lon="-0.35887">
        <ele>1323.6</ele>
        <time>2026-02-07T11:24:43.000Z</time>
      </trkpt>
      <trkpt lat="43.03564" lon="-0.35885">
        <ele>1323.8</ele>
        <time>2026-02-07T11:24:46.000Z</time>
      </trkpt>
      <trkpt lat="43.03565" lon="-0.35883">
        <ele>1324</ele>
        <time>2026-02-07T11:24:49.000Z</time>
      </trkpt>
      <trkpt lat="43.03562" lon="-0.35882">
        <ele>1324.1</ele>
        <time>2026-02-07T11:24:52.000Z</time>
      </trkpt>
      <trkpt lat="43.0356" lon="-0.35881">
        <ele>1324.3</ele>
        <time>2026-02-07T11:24:55.000Z</time>
      </trkpt>
      <trkpt lat="43.03558" lon="-0.35879">
        <ele>1324.4</ele>
        <time>2026-02-07T11:24:58.000Z</time>
      </trkpt>
      <trkpt lat="43.03557" lon="-0.35876">
        <ele>1324.3</ele>
        <time>2026-02-07T11:25:01.000Z</time>
      </trkpt>
      <trkpt lat="43.03557" lon="-0.35871">
        <ele>1324.3</ele>
        <time>2026-02-07T11:25:04.000Z</time>
      </trkpt>
      <trkpt lat="43.03557" lon="-0.35867">
        <ele>1324.2</ele>
        <time>2026-02-07T11:25:07.000Z</time>
      </trkpt>
      <trkpt lat="43.03557" lon="-0.35863">
        <ele>1324.1</ele>
        <time>2026-02-07T11:25:10.000Z</time>
      </trkpt>
      <trkpt lat="43.03558" lon="-0.35861">
        <ele>1324</ele>
        <time>2026-02-07T11:25:13.000Z</time>
      </trkpt>
      <trkpt lat="43.0356" lon="-0.35861">
        <ele>1324</ele>
        <time>2026-02-07T11:25:16.000Z</time>
      </trkpt>
      <trkpt lat="43.03561" lon="-0.3586">
        <ele>1324</ele>
        <time>2026-02-07T11:25:19.000Z</time>
      </trkpt>
      <trkpt lat="43.03562" lon="-0.35859">
        <ele>1324</ele>
        <time>2026-02-07T11:25:22.000Z</time>
      </trkpt>
      <trkpt lat="43.03562" lon="-0.35859">
        <ele>1324</ele>
        <time>2026-02-07T11:25:23.000Z</time>
      </trkpt>
      <trkpt lat="43.03562" lon="-0.35857">
        <ele>1324</ele>
        <time>2026-02-07T11:25:26.000Z</time>
      </trkpt>
      <trkpt lat="43.03562" lon="-0.35856">
        <ele>1324</ele>
        <time>2026-02-07T11:25:27.000Z</time>
      </trkpt>
      <trkpt lat="43.03562" lon="-0.35854">
        <ele>1324</ele>
        <time>2026-02-07T11:25:28.000Z</time>
      </trkpt>
      <trkpt lat="43.03563" lon="-0.35851">
        <ele>1324</ele>
        <time>2026-02-07T11:25:31.000Z</time>
      </trkpt>
      <trkpt lat="43.03565" lon="-0.35847">
        <ele>1324</ele>
        <time>2026-02-07T11:25:34.000Z</time>
      </trkpt>
      <trkpt lat="43.03567" lon="-0.35845">
        <ele>1323.9</ele>
        <time>2026-02-07T11:25:37.000Z</time>
      </trkpt>
      <trkpt lat="43.03569" lon="-0.35842">
        <ele>1323.9</ele>
        <time>2026-02-07T11:25:40.000Z</time>
      </trkpt>
      <trkpt lat="43.0357" lon="-0.35838">
        <ele>1323.9</ele>
        <time>2026-02-07T11:25:43.000Z</time>
      </trkpt>
      <trkpt lat="43.03572" lon="-0.35835">
        <ele>1323.8</ele>
        <time>2026-02-07T11:25:46.000Z</time>
      </trkpt>
      <trkpt lat="43.03574" lon="-0.35832">
        <ele>1323.8</ele>
        <time>2026-02-07T11:25:49.000Z</time>
      </trkpt>
      <trkpt lat="43.03575" lon="-0.35829">
        <ele>1323.8</ele>
        <time>2026-02-07T11:25:52.000Z</time>
      </trkpt>
      <trkpt lat="43.03577" lon="-0.35826">
        <ele>1323.8</ele>
        <time>2026-02-07T11:25:55.000Z</time>
      </trkpt>
      <trkpt lat="43.03576" lon="-0.35823">
        <ele>1323.8</ele>
        <time>2026-02-07T11:25:58.000Z</time>
      </trkpt>
      <trkpt lat="43.03575" lon="-0.35819">
        <ele>1323.8</ele>
        <time>2026-02-07T11:26:01.000Z</time>
      </trkpt>
      <trkpt lat="43.03574" lon="-0.35816">
        <ele>1323.7</ele>
        <time>2026-02-07T11:26:04.000Z</time>
      </trkpt>
      <trkpt lat="43.03572" lon="-0.35814">
        <ele>1323.8</ele>
        <time>2026-02-07T11:26:07.000Z</time>
      </trkpt>
      <trkpt lat="43.0357" lon="-0.35811">
        <ele>1323.8</ele>
        <time>2026-02-07T11:26:10.000Z</time>
      </trkpt>
      <trkpt lat="43.03568" lon="-0.35809">
        <ele>1323.8</ele>
        <time>2026-02-07T11:26:13.000Z</time>
      </trkpt>
      <trkpt lat="43.03566" lon="-0.35807">
        <ele>1323.8</ele>
        <time>2026-02-07T11:26:16.000Z</time>
      </trkpt>
      <trkpt lat="43.03564" lon="-0.35805">
        <ele>1323.9</ele>
        <time>2026-02-07T11:26:19.000Z</time>
      </trkpt>
      <trkpt lat="43.03562" lon="-0.35803">
        <ele>1323.9</ele>
        <time>2026-02-07T11:26:22.000Z</time>
      </trkpt>
      <trkpt lat="43.0356" lon="-0.35802">
        <ele>1324</ele>
        <time>2026-02-07T11:26:25.000Z</time>
      </trkpt>
      <trkpt lat="43.03557" lon="-0.35801">
        <ele>1324.1</ele>
        <time>2026-02-07T11:26:28.000Z</time>
      </trkpt>
      <trkpt lat="43.03554" lon="-0.358">
        <ele>1324.2</ele>
        <time>2026-02-07T11:26:31.000Z</time>
      </trkpt>
      <trkpt lat="43.03552" lon="-0.358">
        <ele>1324.4</ele>
        <time>2026-02-07T11:26:34.000Z</time>
      </trkpt>
      <trkpt lat="43.03549" lon="-0.35799">
        <ele>1324.6</ele>
        <time>2026-02-07T11:26:37.000Z</time>
      </trkpt>
      <trkpt lat="43.03547" lon="-0.35799">
        <ele>1325</ele>
        <time>2026-02-07T11:26:40.000Z</time>
      </trkpt>
      <trkpt lat="43.03545" lon="-0.35797">
        <ele>1325.3</ele>
        <time>2026-02-07T11:26:43.000Z</time>
      </trkpt>
      <trkpt lat="43.03542" lon="-0.35797">
        <ele>1325.6</ele>
        <time>2026-02-07T11:26:46.000Z</time>
      </trkpt>
      <trkpt lat="43.0354" lon="-0.35796">
        <ele>1325.8</ele>
        <time>2026-02-07T11:26:49.000Z</time>
      </trkpt>
      <trkpt lat="43.03537" lon="-0.35796">
        <ele>1326.1</ele>
        <time>2026-02-07T11:26:52.000Z</time>
      </trkpt>
      <trkpt lat="43.03535" lon="-0.35794">
        <ele>1326.3</ele>
        <time>2026-02-07T11:26:55.000Z</time>
      </trkpt>
      <trkpt lat="43.03533" lon="-0.35792">
        <ele>1326.6</ele>
        <time>2026-02-07T11:26:58.000Z</time>
      </trkpt>
      <trkpt lat="43.03532" lon="-0.35789">
        <ele>1326.9</ele>
        <time>2026-02-07T11:27:01.000Z</time>
      </trkpt>
      <trkpt lat="43.03532" lon="-0.35789">
        <ele>1327.1</ele>
        <time>2026-02-07T11:27:04.000Z</time>
      </trkpt>
      <trkpt lat="43.03532" lon="-0.35789">
        <ele>1327.2</ele>
        <time>2026-02-07T11:27:05.000Z</time>
      </trkpt>
      <trkpt lat="43.03532" lon="-0.35789">
        <ele>1327.3</ele>
        <time>2026-02-07T11:27:06.000Z</time>
      </trkpt>
      <trkpt lat="43.03532" lon="-0.35789">
        <ele>1327.4</ele>
        <time>2026-02-07T11:27:09.000Z</time>
      </trkpt>
      <trkpt lat="43.03532" lon="-0.35788">
        <ele>1327.4</ele>
        <time>2026-02-07T11:27:10.000Z</time>
      </trkpt>
      <trkpt lat="43.03532" lon="-0.35787">
        <ele>1327.5</ele>
        <time>2026-02-07T11:27:11.000Z</time>
      </trkpt>
      <trkpt lat="43.0353" lon="-0.35784">
        <ele>1327.7</ele>
        <time>2026-02-07T11:27:14.000Z</time>
      </trkpt>
      <trkpt lat="43.03529" lon="-0.3578">
        <ele>1327.9</ele>
        <time>2026-02-07T11:27:17.000Z</time>
      </trkpt>
      <trkpt lat="43.03529" lon="-0.35777">
        <ele>1328.3</ele>
        <time>2026-02-07T11:27:20.000Z</time>
      </trkpt>
      <trkpt lat="43.03528" lon="-0.35774">
        <ele>1328.6</ele>
        <time>2026-02-07T11:27:23.000Z</time>
      </trkpt>
      <trkpt lat="43.03528" lon="-0.35773">
        <ele>1328.9</ele>
        <time>2026-02-07T11:27:26.000Z</time>
      </trkpt>
      <trkpt lat="43.03528" lon="-0.35773">
        <ele>1329</ele>
        <time>2026-02-07T11:27:27.000Z</time>
      </trkpt>
      <trkpt lat="43.03528" lon="-0.35773">
        <ele>1329.1</ele>
        <time>2026-02-07T11:27:28.000Z</time>
      </trkpt>
      <trkpt lat="43.03528" lon="-0.35772">
        <ele>1329.1</ele>
        <time>2026-02-07T11:27:29.000Z</time>
      </trkpt>
      <trkpt lat="43.03528" lon="-0.35771">
        <ele>1329.2</ele>
        <time>2026-02-07T11:27:30.000Z</time>
      </trkpt>
      <trkpt lat="43.03529" lon="-0.3577">
        <ele>1329.3</ele>
        <time>2026-02-07T11:27:31.000Z</time>
      </trkpt>
      <trkpt lat="43.03529" lon="-0.35769">
        <ele>1329.4</ele>
        <time>2026-02-07T11:27:32.000Z</time>
      </trkpt>
      <trkpt lat="43.03529" lon="-0.35767">
        <ele>1329.6</ele>
        <time>2026-02-07T11:27:35.000Z</time>
      </trkpt>
      <trkpt lat="43.03529" lon="-0.35763">
        <ele>1329.8</ele>
        <time>2026-02-07T11:27:38.000Z</time>
      </trkpt>
      <trkpt lat="43.03529" lon="-0.3576">
        <ele>1329.9</ele>
        <time>2026-02-07T11:27:41.000Z</time>
      </trkpt>
      <trkpt lat="43.0353" lon="-0.35757">
        <ele>1330.2</ele>
        <time>2026-02-07T11:27:44.000Z</time>
      </trkpt>
      <trkpt lat="43.0353" lon="-0.35753">
        <ele>1330.6</ele>
        <time>2026-02-07T11:27:47.000Z</time>
      </trkpt>
      <trkpt lat="43.03531" lon="-0.3575">
        <ele>1330.9</ele>
        <time>2026-02-07T11:27:50.000Z</time>
      </trkpt>
      <trkpt lat="43.03531" lon="-0.35747">
        <ele>1331.3</ele>
        <time>2026-02-07T11:27:53.000Z</time>
      </trkpt>
      <trkpt lat="43.03532" lon="-0.35744">
        <ele>1331.7</ele>
        <time>2026-02-07T11:27:56.000Z</time>
      </trkpt>
      <trkpt lat="43.03533" lon="-0.35741">
        <ele>1332</ele>
        <time>2026-02-07T11:27:59.000Z</time>
      </trkpt>
      <trkpt lat="43.03534" lon="-0.35738">
        <ele>1332.3</ele>
        <time>2026-02-07T11:28:02.000Z</time>
      </trkpt>
      <trkpt lat="43.03534" lon="-0.35735">
        <ele>1332.7</ele>
        <time>2026-02-07T11:28:05.000Z</time>
      </trkpt>
      <trkpt lat="43.03535" lon="-0.35733">
        <ele>1332.9</ele>
        <time>2026-02-07T11:28:08.000Z</time>
      </trkpt>
      <trkpt lat="43.03536" lon="-0.35731">
        <ele>1333.4</ele>
        <time>2026-02-07T11:28:11.000Z</time>
      </trkpt>
      <trkpt lat="43.03537" lon="-0.35728">
        <ele>1333.7</ele>
        <time>2026-02-07T11:28:14.000Z</time>
      </trkpt>
      <trkpt lat="43.03538" lon="-0.35726">
        <ele>1334.1</ele>
        <time>2026-02-07T11:28:17.000Z</time>
      </trkpt>
      <trkpt lat="43.03538" lon="-0.35723">
        <ele>1334.5</ele>
        <time>2026-02-07T11:28:20.000Z</time>
      </trkpt>
      <trkpt lat="43.03539" lon="-0.35721">
        <ele>1334.8</ele>
        <time>2026-02-07T11:28:23.000Z</time>
      </trkpt>
      <trkpt lat="43.03539" lon="-0.35718">
        <ele>1335.1</ele>
        <time>2026-02-07T11:28:26.000Z</time>
      </trkpt>
      <trkpt lat="43.03538" lon="-0.35715">
        <ele>1335.4</ele>
        <time>2026-02-07T11:28:29.000Z</time>
      </trkpt>
      <trkpt lat="43.03538" lon="-0.35711">
        <ele>1335.8</ele>
        <time>2026-02-07T11:28:32.000Z</time>
      </trkpt>
      <trkpt lat="43.03539" lon="-0.35709">
        <ele>1336.2</ele>
        <time>2026-02-07T11:28:35.000Z</time>
      </trkpt>
      <trkpt lat="43.03541" lon="-0.35708">
        <ele>1336.6</ele>
        <time>2026-02-07T11:28:38.000Z</time>
      </trkpt>
      <trkpt lat="43.03542" lon="-0.35706">
        <ele>1337.1</ele>
        <time>2026-02-07T11:28:41.000Z</time>
      </trkpt>
      <trkpt lat="43.03544" lon="-0.35705">
        <ele>1337.5</ele>
        <time>2026-02-07T11:28:44.000Z</time>
      </trkpt>
      <trkpt lat="43.03545" lon="-0.35703">
        <ele>1337.9</ele>
        <time>2026-02-07T11:28:47.000Z</time>
      </trkpt>
      <trkpt lat="43.03545" lon="-0.35701">
        <ele>1338.3</ele>
        <time>2026-02-07T11:28:50.000Z</time>
      </trkpt>
      <trkpt lat="43.03546" lon="-0.35699">
        <ele>1338.7</ele>
        <time>2026-02-07T11:28:53.000Z</time>
      </trkpt>
      <trkpt lat="43.03547" lon="-0.35697">
        <ele>1339</ele>
        <time>2026-02-07T11:28:56.000Z</time>
      </trkpt>
      <trkpt lat="43.03548" lon="-0.35695">
        <ele>1339.2</ele>
        <time>2026-02-07T11:28:59.000Z</time>
      </trkpt>
      <trkpt lat="43.03549" lon="-0.35693">
        <ele>1339.5</ele>
        <time>2026-02-07T11:29:02.000Z</time>
      </trkpt>
      <trkpt lat="43.0355" lon="-0.35691">
        <ele>1339.8</ele>
        <time>2026-02-07T11:29:05.000Z</time>
      </trkpt>
      <trkpt lat="43.0355" lon="-0.35689">
        <ele>1340.1</ele>
        <time>2026-02-07T11:29:08.000Z</time>
      </trkpt>
      <trkpt lat="43.03551" lon="-0.35687">
        <ele>1340.3</ele>
        <time>2026-02-07T11:29:11.000Z</time>
      </trkpt>
      <trkpt lat="43.03552" lon="-0.35685">
        <ele>1340.7</ele>
        <time>2026-02-07T11:29:14.000Z</time>
      </trkpt>
      <trkpt lat="43.03552" lon="-0.35683">
        <ele>1341</ele>
        <time>2026-02-07T11:29:17.000Z</time>
      </trkpt>
      <trkpt lat="43.03553" lon="-0.35681">
        <ele>1341.2</ele>
        <time>2026-02-07T11:29:20.000Z</time>
      </trkpt>
      <trkpt lat="43.03553" lon="-0.35679">
        <ele>1341.5</ele>
        <time>2026-02-07T11:29:23.000Z</time>
      </trkpt>
      <trkpt lat="43.03554" lon="-0.35677">
        <ele>1341.8</ele>
        <time>2026-02-07T11:29:26.000Z</time>
      </trkpt>
      <trkpt lat="43.03555" lon="-0.35675">
        <ele>1342.1</ele>
        <time>2026-02-07T11:29:29.000Z</time>
      </trkpt>
      <trkpt lat="43.03555" lon="-0.35673">
        <ele>1342.5</ele>
        <time>2026-02-07T11:29:32.000Z</time>
      </trkpt>
      <trkpt lat="43.03554" lon="-0.3567">
        <ele>1342.8</ele>
        <time>2026-02-07T11:29:35.000Z</time>
      </trkpt>
      <trkpt lat="43.03555" lon="-0.35667">
        <ele>1343.1</ele>
        <time>2026-02-07T11:29:38.000Z</time>
      </trkpt>
      <trkpt lat="43.03555" lon="-0.35665">
        <ele>1343.4</ele>
        <time>2026-02-07T11:29:41.000Z</time>
      </trkpt>
      <trkpt lat="43.03555" lon="-0.35662">
        <ele>1343.7</ele>
        <time>2026-02-07T11:29:44.000Z</time>
      </trkpt>
      <trkpt lat="43.03556" lon="-0.3566">
        <ele>1343.9</ele>
        <time>2026-02-07T11:29:47.000Z</time>
      </trkpt>
      <trkpt lat="43.03557" lon="-0.35659">
        <ele>1344.2</ele>
        <time>2026-02-07T11:29:50.000Z</time>
      </trkpt>
      <trkpt lat="43.03558" lon="-0.3566">
        <ele>1344.5</ele>
        <time>2026-02-07T11:29:53.000Z</time>
      </trkpt>
      <trkpt lat="43.03558" lon="-0.35659">
        <ele>1344.7</ele>
        <time>2026-02-07T11:29:55.000Z</time>
      </trkpt>
      <trkpt lat="43.03557" lon="-0.35659">
        <ele>1344.7</ele>
        <time>2026-02-07T11:29:56.000Z</time>
      </trkpt>
      <trkpt lat="43.03556" lon="-0.35659">
        <ele>1344.8</ele>
        <time>2026-02-07T11:29:57.000Z</time>
      </trkpt>
      <trkpt lat="43.03556" lon="-0.35659">
        <ele>1344.9</ele>
        <time>2026-02-07T11:30:00.000Z</time>
      </trkpt>
      <trkpt lat="43.03557" lon="-0.3566">
        <ele>1345.1</ele>
        <time>2026-02-07T11:30:03.000Z</time>
      </trkpt>
      <trkpt lat="43.03557" lon="-0.3566">
        <ele>1345.1</ele>
        <time>2026-02-07T11:30:04.000Z</time>
      </trkpt>
      <trkpt lat="43.03556" lon="-0.3566">
        <ele>1345.1</ele>
        <time>2026-02-07T11:30:05.000Z</time>
      </trkpt>
      <trkpt lat="43.03556" lon="-0.3566">
        <ele>1345.1</ele>
        <time>2026-02-07T11:30:06.000Z</time>
      </trkpt>
      <trkpt lat="43.03556" lon="-0.3566">
        <ele>1345.2</ele>
        <time>2026-02-07T11:30:09.000Z</time>
      </trkpt>
      <trkpt lat="43.03556" lon="-0.3566">
        <ele>1345.2</ele>
        <time>2026-02-07T11:30:10.000Z</time>
      </trkpt>
      <trkpt lat="43.03556" lon="-0.3566">
        <ele>1345.2</ele>
        <time>2026-02-07T11:30:11.000Z</time>
      </trkpt>
      <trkpt lat="43.03556" lon="-0.3566">
        <ele>1345.2</ele>
        <time>2026-02-07T11:30:12.000Z</time>
      </trkpt>
      <trkpt lat="43.03556" lon="-0.3566">
        <ele>1345.3</ele>
        <time>2026-02-07T11:30:15.000Z</time>
      </trkpt>
      <trkpt lat="43.03556" lon="-0.3566">
        <ele>1345.3</ele>
        <time>2026-02-07T11:30:18.000Z</time>
      </trkpt>
      <trkpt lat="43.03556" lon="-0.3566">
        <ele>1345.2</ele>
        <time>2026-02-07T11:30:21.000Z</time>
      </trkpt>
      <trkpt lat="43.03556" lon="-0.3566">
        <ele>1345.3</ele>
        <time>2026-02-07T11:30:24.000Z</time>
      </trkpt>
      <trkpt lat="43.03556" lon="-0.3566">
        <ele>1345.2</ele>
        <time>2026-02-07T11:30:27.000Z</time>
      </trkpt>
      <trkpt lat="43.03556" lon="-0.35661">
        <ele>1345.2</ele>
        <time>2026-02-07T11:30:30.000Z</time>
      </trkpt>
      <trkpt lat="43.03557" lon="-0.35661">
        <ele>1345.2</ele>
        <time>2026-02-07T11:30:33.000Z</time>
      </trkpt>
      <trkpt lat="43.03557" lon="-0.35661">
        <ele>1345.2</ele>
        <time>2026-02-07T11:30:36.000Z</time>
      </trkpt>
      <trkpt lat="43.03557" lon="-0.35661">
        <ele>1345.2</ele>
        <time>2026-02-07T11:30:39.000Z</time>
      </trkpt>
      <trkpt lat="43.03558" lon="-0.3566">
        <ele>1345.2</ele>
        <time>2026-02-07T11:30:42.000Z</time>
      </trkpt>
      <trkpt lat="43.03558" lon="-0.3566">
        <ele>1345.2</ele>
        <time>2026-02-07T11:30:43.000Z</time>
      </trkpt>
      <trkpt lat="43.0356" lon="-0.35657">
        <ele>1345.3</ele>
        <time>2026-02-07T11:30:46.000Z</time>
      </trkpt>
      <trkpt lat="43.03561" lon="-0.35654">
        <ele>1345.4</ele>
        <time>2026-02-07T11:30:49.000Z</time>
      </trkpt>
      <trkpt lat="43.03562" lon="-0.35653">
        <ele>1345.5</ele>
        <time>2026-02-07T11:30:52.000Z</time>
      </trkpt>
      <trkpt lat="43.03562" lon="-0.3565">
        <ele>1345.7</ele>
        <time>2026-02-07T11:30:55.000Z</time>
      </trkpt>
      <trkpt lat="43.03563" lon="-0.35648">
        <ele>1346</ele>
        <time>2026-02-07T11:30:58.000Z</time>
      </trkpt>
      <trkpt lat="43.03564" lon="-0.35645">
        <ele>1346.5</ele>
        <time>2026-02-07T11:31:01.000Z</time>
      </trkpt>
      <trkpt lat="43.03569" lon="-0.35642">
        <ele>1347</ele>
        <time>2026-02-07T11:31:04.000Z</time>
      </trkpt>
      <trkpt lat="43.0357" lon="-0.3564">
        <ele>1347.4</ele>
        <time>2026-02-07T11:31:07.000Z</time>
      </trkpt>
      <trkpt lat="43.03572" lon="-0.35639">
        <ele>1347.9</ele>
        <time>2026-02-07T11:31:10.000Z</time>
      </trkpt>
      <trkpt lat="43.03572" lon="-0.35637">
        <ele>1348.3</ele>
        <time>2026-02-07T11:31:13.000Z</time>
      </trkpt>
      <trkpt lat="43.03574" lon="-0.35635">
        <ele>1348.6</ele>
        <time>2026-02-07T11:31:16.000Z</time>
      </trkpt>
      <trkpt lat="43.03576" lon="-0.35632">
        <ele>1349</ele>
        <time>2026-02-07T11:31:19.000Z</time>
      </trkpt>
      <trkpt lat="43.03578" lon="-0.35631">
        <ele>1349.4</ele>
        <time>2026-02-07T11:31:22.000Z</time>
      </trkpt>
      <trkpt lat="43.03578" lon="-0.35631">
        <ele>1349.9</ele>
        <time>2026-02-07T11:31:25.000Z</time>
      </trkpt>
      <trkpt lat="43.03579" lon="-0.35629">
        <ele>1350.4</ele>
        <time>2026-02-07T11:31:28.000Z</time>
      </trkpt>
      <trkpt lat="43.0358" lon="-0.35627">
        <ele>1350.9</ele>
        <time>2026-02-07T11:31:31.000Z</time>
      </trkpt>
      <trkpt lat="43.0358" lon="-0.35625">
        <ele>1351.4</ele>
        <time>2026-02-07T11:31:34.000Z</time>
      </trkpt>
      <trkpt lat="43.0358" lon="-0.35621">
        <ele>1351.8</ele>
        <time>2026-02-07T11:31:37.000Z</time>
      </trkpt>
      <trkpt lat="43.03579" lon="-0.35619">
        <ele>1352.3</ele>
        <time>2026-02-07T11:31:40.000Z</time>
      </trkpt>
      <trkpt lat="43.03579" lon="-0.35616">
        <ele>1352.9</ele>
        <time>2026-02-07T11:31:43.000Z</time>
      </trkpt>
      <trkpt lat="43.03578" lon="-0.35613">
        <ele>1353.4</ele>
        <time>2026-02-07T11:31:46.000Z</time>
      </trkpt>
      <trkpt lat="43.03578" lon="-0.3561">
        <ele>1353.9</ele>
        <time>2026-02-07T11:31:49.000Z</time>
      </trkpt>
      <trkpt lat="43.03577" lon="-0.35607">
        <ele>1354.2</ele>
        <time>2026-02-07T11:31:52.000Z</time>
      </trkpt>
      <trkpt lat="43.03576" lon="-0.35604">
        <ele>1354.4</ele>
        <time>2026-02-07T11:31:55.000Z</time>
      </trkpt>
      <trkpt lat="43.03575" lon="-0.35601">
        <ele>1354.7</ele>
        <time>2026-02-07T11:31:58.000Z</time>
      </trkpt>
      <trkpt lat="43.03575" lon="-0.35599">
        <ele>1355</ele>
        <time>2026-02-07T11:32:01.000Z</time>
      </trkpt>
      <trkpt lat="43.03575" lon="-0.35596">
        <ele>1355.3</ele>
        <time>2026-02-07T11:32:04.000Z</time>
      </trkpt>
      <trkpt lat="43.03574" lon="-0.35593">
        <ele>1355.6</ele>
        <time>2026-02-07T11:32:07.000Z</time>
      </trkpt>
      <trkpt lat="43.03575" lon="-0.35591">
        <ele>1355.7</ele>
        <time>2026-02-07T11:32:10.000Z</time>
      </trkpt>
      <trkpt lat="43.03574" lon="-0.35589">
        <ele>1356</ele>
        <time>2026-02-07T11:32:13.000Z</time>
      </trkpt>
      <trkpt lat="43.03573" lon="-0.35587">
        <ele>1356.3</ele>
        <time>2026-02-07T11:32:16.000Z</time>
      </trkpt>
      <trkpt lat="43.03573" lon="-0.35583">
        <ele>1356.6</ele>
        <time>2026-02-07T11:32:19.000Z</time>
      </trkpt>
      <trkpt lat="43.03573" lon="-0.3558">
        <ele>1357</ele>
        <time>2026-02-07T11:32:22.000Z</time>
      </trkpt>
      <trkpt lat="43.03572" lon="-0.35578">
        <ele>1357.4</ele>
        <time>2026-02-07T11:32:25.000Z</time>
      </trkpt>
      <trkpt lat="43.03571" lon="-0.35575">
        <ele>1357.8</ele>
        <time>2026-02-07T11:32:28.000Z</time>
      </trkpt>
      <trkpt lat="43.03571" lon="-0.35573">
        <ele>1358.4</ele>
        <time>2026-02-07T11:32:31.000Z</time>
      </trkpt>
      <trkpt lat="43.03571" lon="-0.3557">
        <ele>1358.9</ele>
        <time>2026-02-07T11:32:34.000Z</time>
      </trkpt>
      <trkpt lat="43.03571" lon="-0.35567">
        <ele>1359.2</ele>
        <time>2026-02-07T11:32:37.000Z</time>
      </trkpt>
      <trkpt lat="43.03571" lon="-0.35564">
        <ele>1359.5</ele>
        <time>2026-02-07T11:32:40.000Z</time>
      </trkpt>
      <trkpt lat="43.03571" lon="-0.35561">
        <ele>1359.9</ele>
        <time>2026-02-07T11:32:43.000Z</time>
      </trkpt>
      <trkpt lat="43.03569" lon="-0.35559">
        <ele>1360.2</ele>
        <time>2026-02-07T11:32:46.000Z</time>
      </trkpt>
      <trkpt lat="43.03567" lon="-0.35557">
        <ele>1360.5</ele>
        <time>2026-02-07T11:32:49.000Z</time>
      </trkpt>
      <trkpt lat="43.03566" lon="-0.35555">
        <ele>1360.8</ele>
        <time>2026-02-07T11:32:52.000Z</time>
      </trkpt>
      <trkpt lat="43.03565" lon="-0.35553">
        <ele>1361</ele>
        <time>2026-02-07T11:32:55.000Z</time>
      </trkpt>
      <trkpt lat="43.03564" lon="-0.35551">
        <ele>1361.3</ele>
        <time>2026-02-07T11:32:58.000Z</time>
      </trkpt>
      <trkpt lat="43.03565" lon="-0.35552">
        <ele>1361.5</ele>
        <time>2026-02-07T11:33:01.000Z</time>
      </trkpt>
      <trkpt lat="43.03565" lon="-0.35552">
        <ele>1361.6</ele>
        <time>2026-02-07T11:33:02.000Z</time>
      </trkpt>
      <trkpt lat="43.03565" lon="-0.35552">
        <ele>1361.6</ele>
        <time>2026-02-07T11:33:03.000Z</time>
      </trkpt>
      <trkpt lat="43.03564" lon="-0.35552">
        <ele>1361.7</ele>
        <time>2026-02-07T11:33:06.000Z</time>
      </trkpt>
      <trkpt lat="43.03564" lon="-0.35551">
        <ele>1361.9</ele>
        <time>2026-02-07T11:33:09.000Z</time>
      </trkpt>
      <trkpt lat="43.03564" lon="-0.35551">
        <ele>1361.9</ele>
        <time>2026-02-07T11:33:10.000Z</time>
      </trkpt>
      <trkpt lat="43.03564" lon="-0.35551">
        <ele>1362</ele>
        <time>2026-02-07T11:33:11.000Z</time>
      </trkpt>
      <trkpt lat="43.03564" lon="-0.35551">
        <ele>1362</ele>
        <time>2026-02-07T11:33:12.000Z</time>
      </trkpt>
      <trkpt lat="43.03564" lon="-0.35551">
        <ele>1362</ele>
        <time>2026-02-07T11:33:13.000Z</time>
      </trkpt>
      <trkpt lat="43.03563" lon="-0.35551">
        <ele>1362.1</ele>
        <time>2026-02-07T11:33:16.000Z</time>
      </trkpt>
      <trkpt lat="43.03562" lon="-0.35551">
        <ele>1362.2</ele>
        <time>2026-02-07T11:33:17.000Z</time>
      </trkpt>
      <trkpt lat="43.03561" lon="-0.3555">
        <ele>1362.2</ele>
        <time>2026-02-07T11:33:18.000Z</time>
      </trkpt>
      <trkpt lat="43.03559" lon="-0.35549">
        <ele>1362.4</ele>
        <time>2026-02-07T11:33:21.000Z</time>
      </trkpt>
      <trkpt lat="43.03556" lon="-0.3555">
        <ele>1362.6</ele>
        <time>2026-02-07T11:33:24.000Z</time>
      </trkpt>
      <trkpt lat="43.03555" lon="-0.35552">
        <ele>1362.8</ele>
        <time>2026-02-07T11:33:27.000Z</time>
      </trkpt>
      <trkpt lat="43.03553" lon="-0.35555">
        <ele>1363.1</ele>
        <time>2026-02-07T11:33:30.000Z</time>
      </trkpt>
      <trkpt lat="43.03552" lon="-0.35558">
        <ele>1363.2</ele>
        <time>2026-02-07T11:33:33.000Z</time>
      </trkpt>
      <trkpt lat="43.0355" lon="-0.35561">
        <ele>1363.3</ele>
        <time>2026-02-07T11:33:36.000Z</time>
      </trkpt>
      <trkpt lat="43.03549" lon="-0.35562">
        <ele>1363.6</ele>
        <time>2026-02-07T11:33:39.000Z</time>
      </trkpt>
      <trkpt lat="43.03548" lon="-0.35564">
        <ele>1363.8</ele>
        <time>2026-02-07T11:33:42.000Z</time>
      </trkpt>
      <trkpt lat="43.03546" lon="-0.35567">
        <ele>1364.1</ele>
        <time>2026-02-07T11:33:45.000Z</time>
      </trkpt>
      <trkpt lat="43.03545" lon="-0.35569">
        <ele>1364.3</ele>
        <time>2026-02-07T11:33:48.000Z</time>
      </trkpt>
      <trkpt lat="43.03545" lon="-0.35569">
        <ele>1364.5</ele>
        <time>2026-02-07T11:33:51.000Z</time>
      </trkpt>
      <trkpt lat="43.03545" lon="-0.35569">
        <ele>1364.6</ele>
        <time>2026-02-07T11:33:52.000Z</time>
      </trkpt>
      <trkpt lat="43.03545" lon="-0.35569">
        <ele>1364.6</ele>
        <time>2026-02-07T11:33:53.000Z</time>
      </trkpt>
      <trkpt lat="43.03545" lon="-0.35569">
        <ele>1364.7</ele>
        <time>2026-02-07T11:33:54.000Z</time>
      </trkpt>
      <trkpt lat="43.03544" lon="-0.35569">
        <ele>1364.8</ele>
        <time>2026-02-07T11:33:55.000Z</time>
      </trkpt>
      <trkpt lat="43.03543" lon="-0.3557">
        <ele>1364.8</ele>
        <time>2026-02-07T11:33:56.000Z</time>
      </trkpt>
      <trkpt lat="43.03541" lon="-0.35571">
        <ele>1365</ele>
        <time>2026-02-07T11:33:59.000Z</time>
      </trkpt>
      <trkpt lat="43.03539" lon="-0.35572">
        <ele>1365.2</ele>
        <time>2026-02-07T11:34:02.000Z</time>
      </trkpt>
      <trkpt lat="43.03538" lon="-0.35574">
        <ele>1365.4</ele>
        <time>2026-02-07T11:34:05.000Z</time>
      </trkpt>
      <trkpt lat="43.03536" lon="-0.35574">
        <ele>1365.8</ele>
        <time>2026-02-07T11:34:08.000Z</time>
      </trkpt>
      <trkpt lat="43.03534" lon="-0.35575">
        <ele>1366.1</ele>
        <time>2026-02-07T11:34:11.000Z</time>
      </trkpt>
      <trkpt lat="43.03533" lon="-0.35576">
        <ele>1366.3</ele>
        <time>2026-02-07T11:34:14.000Z</time>
      </trkpt>
      <trkpt lat="43.03533" lon="-0.35576">
        <ele>1366.5</ele>
        <time>2026-02-07T11:34:17.000Z</time>
      </trkpt>
      <trkpt lat="43.03531" lon="-0.35574">
        <ele>1366.7</ele>
        <time>2026-02-07T11:34:20.000Z</time>
      </trkpt>
      <trkpt lat="43.03529" lon="-0.35574">
        <ele>1367</ele>
        <time>2026-02-07T11:34:23.000Z</time>
      </trkpt>
      <trkpt lat="43.03527" lon="-0.35576">
        <ele>1367.3</ele>
        <time>2026-02-07T11:34:26.000Z</time>
      </trkpt>
      <trkpt lat="43.03526" lon="-0.35577">
        <ele>1367.6</ele>
        <time>2026-02-07T11:34:29.000Z</time>
      </trkpt>
      <trkpt lat="43.03525" lon="-0.35579">
        <ele>1368</ele>
        <time>2026-02-07T11:34:32.000Z</time>
      </trkpt>
      <trkpt lat="43.03523" lon="-0.3558">
        <ele>1368.3</ele>
        <time>2026-02-07T11:34:35.000Z</time>
      </trkpt>
      <trkpt lat="43.03522" lon="-0.35581">
        <ele>1368.8</ele>
        <time>2026-02-07T11:34:38.000Z</time>
      </trkpt>
      <trkpt lat="43.0352" lon="-0.35581">
        <ele>1369.3</ele>
        <time>2026-02-07T11:34:41.000Z</time>
      </trkpt>
      <trkpt lat="43.03519" lon="-0.35581">
        <ele>1369.9</ele>
        <time>2026-02-07T11:34:44.000Z</time>
      </trkpt>
      <trkpt lat="43.03517" lon="-0.3558">
        <ele>1370.4</ele>
        <time>2026-02-07T11:34:47.000Z</time>
      </trkpt>
      <trkpt lat="43.03515" lon="-0.3558">
        <ele>1370.7</ele>
        <time>2026-02-07T11:34:50.000Z</time>
      </trkpt>
      <trkpt lat="43.03514" lon="-0.35579">
        <ele>1371.1</ele>
        <time>2026-02-07T11:34:53.000Z</time>
      </trkpt>
      <trkpt lat="43.03512" lon="-0.35579">
        <ele>1371.5</ele>
        <time>2026-02-07T11:34:56.000Z</time>
      </trkpt>
      <trkpt lat="43.03511" lon="-0.35579">
        <ele>1371.8</ele>
        <time>2026-02-07T11:34:59.000Z</time>
      </trkpt>
      <trkpt lat="43.0351" lon="-0.35579">
        <ele>1372.1</ele>
        <time>2026-02-07T11:35:02.000Z</time>
      </trkpt>
      <trkpt lat="43.03508" lon="-0.35578">
        <ele>1372.5</ele>
        <time>2026-02-07T11:35:05.000Z</time>
      </trkpt>
      <trkpt lat="43.03507" lon="-0.35579">
        <ele>1372.9</ele>
        <time>2026-02-07T11:35:08.000Z</time>
      </trkpt>
      <trkpt lat="43.03505" lon="-0.35579">
        <ele>1373.4</ele>
        <time>2026-02-07T11:35:11.000Z</time>
      </trkpt>
      <trkpt lat="43.03504" lon="-0.35575">
        <ele>1373.8</ele>
        <time>2026-02-07T11:35:14.000Z</time>
      </trkpt>
      <trkpt lat="43.03503" lon="-0.35575">
        <ele>1374.3</ele>
        <time>2026-02-07T11:35:17.000Z</time>
      </trkpt>
      <trkpt lat="43.03502" lon="-0.35575">
        <ele>1374.8</ele>
        <time>2026-02-07T11:35:20.000Z</time>
      </trkpt>
      <trkpt lat="43.03501" lon="-0.35574">
        <ele>1375.3</ele>
        <time>2026-02-07T11:35:23.000Z</time>
      </trkpt>
      <trkpt lat="43.035" lon="-0.35574">
        <ele>1375.8</ele>
        <time>2026-02-07T11:35:26.000Z</time>
      </trkpt>
      <trkpt lat="43.03499" lon="-0.35575">
        <ele>1376.3</ele>
        <time>2026-02-07T11:35:29.000Z</time>
      </trkpt>
      <trkpt lat="43.03497" lon="-0.35575">
        <ele>1376.7</ele>
        <time>2026-02-07T11:35:32.000Z</time>
      </trkpt>
      <trkpt lat="43.03496" lon="-0.35575">
        <ele>1376.8</ele>
        <time>2026-02-07T11:35:35.000Z</time>
      </trkpt>
      <trkpt lat="43.03496" lon="-0.35574">
        <ele>1377</ele>
        <time>2026-02-07T11:35:37.000Z</time>
      </trkpt>
      <trkpt lat="43.03496" lon="-0.35575">
        <ele>1377.1</ele>
        <time>2026-02-07T11:35:38.000Z</time>
      </trkpt>
      <trkpt lat="43.03496" lon="-0.35574">
        <ele>1377.3</ele>
        <time>2026-02-07T11:35:41.000Z</time>
      </trkpt>
      <trkpt lat="43.03496" lon="-0.35574">
        <ele>1377.5</ele>
        <time>2026-02-07T11:35:44.000Z</time>
      </trkpt>
      <trkpt lat="43.03496" lon="-0.35574">
        <ele>1377.7</ele>
        <time>2026-02-07T11:35:47.000Z</time>
      </trkpt>
      <trkpt lat="43.03496" lon="-0.35574">
        <ele>1377.8</ele>
        <time>2026-02-07T11:35:50.000Z</time>
      </trkpt>
      <trkpt lat="43.03496" lon="-0.35574">
        <ele>1377.9</ele>
        <time>2026-02-07T11:35:53.000Z</time>
      </trkpt>
      <trkpt lat="43.03496" lon="-0.35574">
        <ele>1378</ele>
        <time>2026-02-07T11:35:56.000Z</time>
      </trkpt>
      <trkpt lat="43.03496" lon="-0.35574">
        <ele>1378</ele>
        <time>2026-02-07T11:35:59.000Z</time>
      </trkpt>
      <trkpt lat="43.03496" lon="-0.35574">
        <ele>1378</ele>
        <time>2026-02-07T11:36:00.000Z</time>
      </trkpt>
      <trkpt lat="43.03496" lon="-0.35574">
        <ele>1378.1</ele>
        <time>2026-02-07T11:36:01.000Z</time>
      </trkpt>
      <trkpt lat="43.03496" lon="-0.35574">
        <ele>1378.1</ele>
        <time>2026-02-07T11:36:02.000Z</time>
      </trkpt>
      <trkpt lat="43.03496" lon="-0.35574">
        <ele>1378.1</ele>
        <time>2026-02-07T11:36:03.000Z</time>
      </trkpt>
      <trkpt lat="43.03496" lon="-0.35574">
        <ele>1378.2</ele>
        <time>2026-02-07T11:36:04.000Z</time>
      </trkpt>
      <trkpt lat="43.03496" lon="-0.35574">
        <ele>1378.2</ele>
        <time>2026-02-07T11:36:07.000Z</time>
      </trkpt>
      <trkpt lat="43.03496" lon="-0.35573">
        <ele>1378.3</ele>
        <time>2026-02-07T11:36:10.000Z</time>
      </trkpt>
      <trkpt lat="43.03496" lon="-0.35573">
        <ele>1378.4</ele>
        <time>2026-02-07T11:36:13.000Z</time>
      </trkpt>
      <trkpt lat="43.03496" lon="-0.35573">
        <ele>1378.4</ele>
        <time>2026-02-07T11:36:16.000Z</time>
      </trkpt>
      <trkpt lat="43.03496" lon="-0.35573">
        <ele>1378.5</ele>
        <time>2026-02-07T11:36:19.000Z</time>
      </trkpt>
      <trkpt lat="43.03496" lon="-0.35573">
        <ele>1378.5</ele>
        <time>2026-02-07T11:36:22.000Z</time>
      </trkpt>
      <trkpt lat="43.03496" lon="-0.35573">
        <ele>1378.5</ele>
        <time>2026-02-07T11:36:25.000Z</time>
      </trkpt>
      <trkpt lat="43.03496" lon="-0.35573">
        <ele>1378.5</ele>
        <time>2026-02-07T11:36:28.000Z</time>
      </trkpt>
      <trkpt lat="43.03496" lon="-0.35573">
        <ele>1378.5</ele>
        <time>2026-02-07T11:36:31.000Z</time>
      </trkpt>
      <trkpt lat="43.03496" lon="-0.35573">
        <ele>1378.6</ele>
        <time>2026-02-07T11:36:34.000Z</time>
      </trkpt>
      <trkpt lat="43.03496" lon="-0.35573">
        <ele>1378.6</ele>
        <time>2026-02-07T11:36:37.000Z</time>
      </trkpt>
      <trkpt lat="43.03496" lon="-0.35573">
        <ele>1378.6</ele>
        <time>2026-02-07T11:36:40.000Z</time>
      </trkpt>
      <trkpt lat="43.03496" lon="-0.35573">
        <ele>1378.6</ele>
        <time>2026-02-07T11:36:43.000Z</time>
      </trkpt>
      <trkpt lat="43.03496" lon="-0.35573">
        <ele>1378.6</ele>
        <time>2026-02-07T11:36:46.000Z</time>
      </trkpt>
      <trkpt lat="43.03496" lon="-0.35573">
        <ele>1378.7</ele>
        <time>2026-02-07T11:36:49.000Z</time>
      </trkpt>
      <trkpt lat="43.03496" lon="-0.35573">
        <ele>1378.8</ele>
        <time>2026-02-07T11:36:52.000Z</time>
      </trkpt>
      <trkpt lat="43.03496" lon="-0.35573">
        <ele>1378.8</ele>
        <time>2026-02-07T11:36:55.000Z</time>
      </trkpt>
      <trkpt lat="43.03496" lon="-0.35573">
        <ele>1378.9</ele>
        <time>2026-02-07T11:36:58.000Z</time>
      </trkpt>
      <trkpt lat="43.03496" lon="-0.35573">
        <ele>1378.9</ele>
        <time>2026-02-07T11:37:01.000Z</time>
      </trkpt>
      <trkpt lat="43.03496" lon="-0.35573">
        <ele>1378.9</ele>
        <time>2026-02-07T11:37:02.000Z</time>
      </trkpt>
      <trkpt lat="43.03496" lon="-0.35573">
        <ele>1379</ele>
        <time>2026-02-07T11:37:03.000Z</time>
      </trkpt>
      <trkpt lat="43.03494" lon="-0.3557">
        <ele>1379</ele>
        <time>2026-02-07T11:37:06.000Z</time>
      </trkpt>
      <trkpt lat="43.03493" lon="-0.35568">
        <ele>1379.1</ele>
        <time>2026-02-07T11:37:09.000Z</time>
      </trkpt>
      <trkpt lat="43.03491" lon="-0.35565">
        <ele>1379.3</ele>
        <time>2026-02-07T11:37:12.000Z</time>
      </trkpt>
      <trkpt lat="43.0349" lon="-0.35562">
        <ele>1379.5</ele>
        <time>2026-02-07T11:37:15.000Z</time>
      </trkpt>
      <trkpt lat="43.0349" lon="-0.35559">
        <ele>1379.8</ele>
        <time>2026-02-07T11:37:18.000Z</time>
      </trkpt>
      <trkpt lat="43.03491" lon="-0.35556">
        <ele>1380.2</ele>
        <time>2026-02-07T11:37:21.000Z</time>
      </trkpt>
      <trkpt lat="43.03492" lon="-0.35553">
        <ele>1380.6</ele>
        <time>2026-02-07T11:37:24.000Z</time>
      </trkpt>
      <trkpt lat="43.03493" lon="-0.3555">
        <ele>1381</ele>
        <time>2026-02-07T11:37:27.000Z</time>
      </trkpt>
      <trkpt lat="43.03494" lon="-0.35547">
        <ele>1381.4</ele>
        <time>2026-02-07T11:37:30.000Z</time>
      </trkpt>
      <trkpt lat="43.03496" lon="-0.35545">
        <ele>1381.7</ele>
        <time>2026-02-07T11:37:33.000Z</time>
      </trkpt>
      <trkpt lat="43.03498" lon="-0.35544">
        <ele>1382.1</ele>
        <time>2026-02-07T11:37:36.000Z</time>
      </trkpt>
      <trkpt lat="43.03499" lon="-0.35541">
        <ele>1382.5</ele>
        <time>2026-02-07T11:37:39.000Z</time>
      </trkpt>
      <trkpt lat="43.035" lon="-0.35539">
        <ele>1383</ele>
        <time>2026-02-07T11:37:42.000Z</time>
      </trkpt>
      <trkpt lat="43.03501" lon="-0.35537">
        <ele>1383.5</ele>
        <time>2026-02-07T11:37:45.000Z</time>
      </trkpt>
      <trkpt lat="43.03503" lon="-0.35535">
        <ele>1383.9</ele>
        <time>2026-02-07T11:37:48.000Z</time>
      </trkpt>
      <trkpt lat="43.03504" lon="-0.35533">
        <ele>1384.2</ele>
        <time>2026-02-07T11:37:51.000Z</time>
      </trkpt>
      <trkpt lat="43.03505" lon="-0.3553">
        <ele>1384.4</ele>
        <time>2026-02-07T11:37:54.000Z</time>
      </trkpt>
      <trkpt lat="43.03506" lon="-0.35528">
        <ele>1384.6</ele>
        <time>2026-02-07T11:37:57.000Z</time>
      </trkpt>
      <trkpt lat="43.03508" lon="-0.35526">
        <ele>1384.8</ele>
        <time>2026-02-07T11:38:00.000Z</time>
      </trkpt>
      <trkpt lat="43.03511" lon="-0.35524">
        <ele>1384.9</ele>
        <time>2026-02-07T11:38:03.000Z</time>
      </trkpt>
      <trkpt lat="43.03513" lon="-0.35523">
        <ele>1385</ele>
        <time>2026-02-07T11:38:06.000Z</time>
      </trkpt>
      <trkpt lat="43.03514" lon="-0.35521">
        <ele>1385.2</ele>
        <time>2026-02-07T11:38:09.000Z</time>
      </trkpt>
      <trkpt lat="43.03516" lon="-0.35518">
        <ele>1385.4</ele>
        <time>2026-02-07T11:38:12.000Z</time>
      </trkpt>
      <trkpt lat="43.03516" lon="-0.35515">
        <ele>1385.5</ele>
        <time>2026-02-07T11:38:15.000Z</time>
      </trkpt>
      <trkpt lat="43.03517" lon="-0.35512">
        <ele>1385.7</ele>
        <time>2026-02-07T11:38:18.000Z</time>
      </trkpt>
      <trkpt lat="43.03518" lon="-0.35509">
        <ele>1385.8</ele>
        <time>2026-02-07T11:38:21.000Z</time>
      </trkpt>
      <trkpt lat="43.03521" lon="-0.3551">
        <ele>1386</ele>
        <time>2026-02-07T11:38:24.000Z</time>
      </trkpt>
      <trkpt lat="43.03521" lon="-0.35508">
        <ele>1386.1</ele>
        <time>2026-02-07T11:38:27.000Z</time>
      </trkpt>
      <trkpt lat="43.0352" lon="-0.35504">
        <ele>1386.3</ele>
        <time>2026-02-07T11:38:30.000Z</time>
      </trkpt>
      <trkpt lat="43.03519" lon="-0.35501">
        <ele>1386.5</ele>
        <time>2026-02-07T11:38:33.000Z</time>
      </trkpt>
      <trkpt lat="43.03518" lon="-0.35499">
        <ele>1386.8</ele>
        <time>2026-02-07T11:38:36.000Z</time>
      </trkpt>
      <trkpt lat="43.03518" lon="-0.35496">
        <ele>1387.2</ele>
        <time>2026-02-07T11:38:39.000Z</time>
      </trkpt>
      <trkpt lat="43.03517" lon="-0.35493">
        <ele>1387.5</ele>
        <time>2026-02-07T11:38:42.000Z</time>
      </trkpt>
      <trkpt lat="43.03517" lon="-0.3549">
        <ele>1387.9</ele>
        <time>2026-02-07T11:38:45.000Z</time>
      </trkpt>
      <trkpt lat="43.03517" lon="-0.35487">
        <ele>1388.2</ele>
        <time>2026-02-07T11:38:48.000Z</time>
      </trkpt>
      <trkpt lat="43.03517" lon="-0.35483">
        <ele>1388.4</ele>
        <time>2026-02-07T11:38:51.000Z</time>
      </trkpt>
      <trkpt lat="43.03517" lon="-0.35481">
        <ele>1388.7</ele>
        <time>2026-02-07T11:38:54.000Z</time>
      </trkpt>
      <trkpt lat="43.03516" lon="-0.35479">
        <ele>1388.9</ele>
        <time>2026-02-07T11:38:57.000Z</time>
      </trkpt>
      <trkpt lat="43.03517" lon="-0.35479">
        <ele>1389.1</ele>
        <time>2026-02-07T11:39:00.000Z</time>
      </trkpt>
      <trkpt lat="43.03517" lon="-0.35479">
        <ele>1389.2</ele>
        <time>2026-02-07T11:39:02.000Z</time>
      </trkpt>
      <trkpt lat="43.03517" lon="-0.35479">
        <ele>1389.2</ele>
        <time>2026-02-07T11:39:03.000Z</time>
      </trkpt>
      <trkpt lat="43.03517" lon="-0.35479">
        <ele>1389.3</ele>
        <time>2026-02-07T11:39:06.000Z</time>
      </trkpt>
      <trkpt lat="43.03517" lon="-0.35479">
        <ele>1389.4</ele>
        <time>2026-02-07T11:39:09.000Z</time>
      </trkpt>
      <trkpt lat="43.03517" lon="-0.35479">
        <ele>1389.4</ele>
        <time>2026-02-07T11:39:12.000Z</time>
      </trkpt>
      <trkpt lat="43.03517" lon="-0.35479">
        <ele>1389.4</ele>
        <time>2026-02-07T11:39:15.000Z</time>
      </trkpt>
      <trkpt lat="43.03518" lon="-0.3548">
        <ele>1389.4</ele>
        <time>2026-02-07T11:39:18.000Z</time>
      </trkpt>
      <trkpt lat="43.03518" lon="-0.3548">
        <ele>1389.4</ele>
        <time>2026-02-07T11:39:19.000Z</time>
      </trkpt>
      <trkpt lat="43.03518" lon="-0.3548">
        <ele>1389.4</ele>
        <time>2026-02-07T11:39:20.000Z</time>
      </trkpt>
      <trkpt lat="43.03518" lon="-0.3548">
        <ele>1389.4</ele>
        <time>2026-02-07T11:39:21.000Z</time>
      </trkpt>
      <trkpt lat="43.03518" lon="-0.3548">
        <ele>1389.5</ele>
        <time>2026-02-07T11:39:22.000Z</time>
      </trkpt>
      <trkpt lat="43.03518" lon="-0.3548">
        <ele>1389.5</ele>
        <time>2026-02-07T11:39:23.000Z</time>
      </trkpt>
      <trkpt lat="43.03518" lon="-0.3548">
        <ele>1389.5</ele>
        <time>2026-02-07T11:39:26.000Z</time>
      </trkpt>
      <trkpt lat="43.03518" lon="-0.3548">
        <ele>1389.5</ele>
        <time>2026-02-07T11:39:29.000Z</time>
      </trkpt>
      <trkpt lat="43.03518" lon="-0.3548">
        <ele>1389.5</ele>
        <time>2026-02-07T11:39:32.000Z</time>
      </trkpt>
      <trkpt lat="43.03518" lon="-0.35479">
        <ele>1389.5</ele>
        <time>2026-02-07T11:39:35.000Z</time>
      </trkpt>
      <trkpt lat="43.03517" lon="-0.35479">
        <ele>1389.5</ele>
        <time>2026-02-07T11:39:37.000Z</time>
      </trkpt>
      <trkpt lat="43.03517" lon="-0.35478">
        <ele>1389.5</ele>
        <time>2026-02-07T11:39:38.000Z</time>
      </trkpt>
      <trkpt lat="43.03517" lon="-0.35478">
        <ele>1389.5</ele>
        <time>2026-02-07T11:39:39.000Z</time>
      </trkpt>
      <trkpt lat="43.03517" lon="-0.35479">
        <ele>1389.5</ele>
        <time>2026-02-07T11:39:42.000Z</time>
      </trkpt>
      <trkpt lat="43.03517" lon="-0.35478">
        <ele>1389.5</ele>
        <time>2026-02-07T11:39:43.000Z</time>
      </trkpt>
      <trkpt lat="43.03517" lon="-0.35478">
        <ele>1389.5</ele>
        <time>2026-02-07T11:39:44.000Z</time>
      </trkpt>
      <trkpt lat="43.03517" lon="-0.35478">
        <ele>1389.5</ele>
        <time>2026-02-07T11:39:45.000Z</time>
      </trkpt>
      <trkpt lat="43.03517" lon="-0.35478">
        <ele>1389.5</ele>
        <time>2026-02-07T11:39:46.000Z</time>
      </trkpt>
      <trkpt lat="43.03517" lon="-0.35478">
        <ele>1389.5</ele>
        <time>2026-02-07T11:39:47.000Z</time>
      </trkpt>
      <trkpt lat="43.03517" lon="-0.35478">
        <ele>1389.5</ele>
        <time>2026-02-07T11:39:48.000Z</time>
      </trkpt>
      <trkpt lat="43.03517" lon="-0.35478">
        <ele>1389.5</ele>
        <time>2026-02-07T11:39:51.000Z</time>
      </trkpt>
      <trkpt lat="43.03517" lon="-0.35478">
        <ele>1389.6</ele>
        <time>2026-02-07T11:39:54.000Z</time>
      </trkpt>
      <trkpt lat="43.03517" lon="-0.35478">
        <ele>1389.6</ele>
        <time>2026-02-07T11:39:57.000Z</time>
      </trkpt>
      <trkpt lat="43.03518" lon="-0.35479">
        <ele>1389.6</ele>
        <time>2026-02-07T11:40:00.000Z</time>
      </trkpt>
      <trkpt lat="43.03518" lon="-0.35479">
        <ele>1389.6</ele>
        <time>2026-02-07T11:40:01.000Z</time>
      </trkpt>
      <trkpt lat="43.03518" lon="-0.35478">
        <ele>1389.6</ele>
        <time>2026-02-07T11:40:04.000Z</time>
      </trkpt>
      <trkpt lat="43.03517" lon="-0.35476">
        <ele>1389.6</ele>
        <time>2026-02-07T11:40:07.000Z</time>
      </trkpt>
      <trkpt lat="43.03516" lon="-0.35473">
        <ele>1389.6</ele>
        <time>2026-02-07T11:40:10.000Z</time>
      </trkpt>
      <trkpt lat="43.03516" lon="-0.35469">
        <ele>1389.6</ele>
        <time>2026-02-07T11:40:13.000Z</time>
      </trkpt>
      <trkpt lat="43.03516" lon="-0.35465">
        <ele>1389.7</ele>
        <time>2026-02-07T11:40:16.000Z</time>
      </trkpt>
      <trkpt lat="43.03517" lon="-0.35462">
        <ele>1389.8</ele>
        <time>2026-02-07T11:40:19.000Z</time>
      </trkpt>
      <trkpt lat="43.03518" lon="-0.35459">
        <ele>1389.9</ele>
        <time>2026-02-07T11:40:22.000Z</time>
      </trkpt>
      <trkpt lat="43.03518" lon="-0.35459">
        <ele>1390.1</ele>
        <time>2026-02-07T11:40:25.000Z</time>
      </trkpt>
      <trkpt lat="43.03518" lon="-0.35459">
        <ele>1390.2</ele>
        <time>2026-02-07T11:40:27.000Z</time>
      </trkpt>
      <trkpt lat="43.03518" lon="-0.35459">
        <ele>1390.3</ele>
        <time>2026-02-07T11:40:28.000Z</time>
      </trkpt>
      <trkpt lat="43.03518" lon="-0.35459">
        <ele>1390.5</ele>
        <time>2026-02-07T11:40:31.000Z</time>
      </trkpt>
      <trkpt lat="43.03518" lon="-0.35457">
        <ele>1390.6</ele>
        <time>2026-02-07T11:40:34.000Z</time>
      </trkpt>
      <trkpt lat="43.03518" lon="-0.35457">
        <ele>1390.7</ele>
        <time>2026-02-07T11:40:35.000Z</time>
      </trkpt>
      <trkpt lat="43.03518" lon="-0.35456">
        <ele>1390.7</ele>
        <time>2026-02-07T11:40:36.000Z</time>
      </trkpt>
      <trkpt lat="43.03519" lon="-0.35453">
        <ele>1391</ele>
        <time>2026-02-07T11:40:39.000Z</time>
      </trkpt>
      <trkpt lat="43.0352" lon="-0.35449">
        <ele>1391.2</ele>
        <time>2026-02-07T11:40:42.000Z</time>
      </trkpt>
      <trkpt lat="43.0352" lon="-0.35447">
        <ele>1391.6</ele>
        <time>2026-02-07T11:40:45.000Z</time>
      </trkpt>
      <trkpt lat="43.0352" lon="-0.35446">
        <ele>1391.8</ele>
        <time>2026-02-07T11:40:48.000Z</time>
      </trkpt>
      <trkpt lat="43.0352" lon="-0.35446">
        <ele>1392</ele>
        <time>2026-02-07T11:40:50.000Z</time>
      </trkpt>
      <trkpt lat="43.0352" lon="-0.35446">
        <ele>1392</ele>
        <time>2026-02-07T11:40:51.000Z</time>
      </trkpt>
      <trkpt lat="43.0352" lon="-0.35446">
        <ele>1392.2</ele>
        <time>2026-02-07T11:40:54.000Z</time>
      </trkpt>
      <trkpt lat="43.0352" lon="-0.35446">
        <ele>1392.3</ele>
        <time>2026-02-07T11:40:57.000Z</time>
      </trkpt>
      <trkpt lat="43.0352" lon="-0.35446">
        <ele>1392.3</ele>
        <time>2026-02-07T11:41:00.000Z</time>
      </trkpt>
      <trkpt lat="43.0352" lon="-0.35446">
        <ele>1392.4</ele>
        <time>2026-02-07T11:41:03.000Z</time>
      </trkpt>
      <trkpt lat="43.03521" lon="-0.35446">
        <ele>1392.4</ele>
        <time>2026-02-07T11:41:06.000Z</time>
      </trkpt>
      <trkpt lat="43.03521" lon="-0.35445">
        <ele>1392.4</ele>
        <time>2026-02-07T11:41:09.000Z</time>
      </trkpt>
      <trkpt lat="43.03521" lon="-0.35443">
        <ele>1392.4</ele>
        <time>2026-02-07T11:41:10.000Z</time>
      </trkpt>
      <trkpt lat="43.03521" lon="-0.35442">
        <ele>1392.4</ele>
        <time>2026-02-07T11:41:11.000Z</time>
      </trkpt>
      <trkpt lat="43.03522" lon="-0.35439">
        <ele>1392.5</ele>
        <time>2026-02-07T11:41:14.000Z</time>
      </trkpt>
      <trkpt lat="43.03522" lon="-0.35436">
        <ele>1392.6</ele>
        <time>2026-02-07T11:41:17.000Z</time>
      </trkpt>
      <trkpt lat="43.03523" lon="-0.35432">
        <ele>1392.7</ele>
        <time>2026-02-07T11:41:20.000Z</time>
      </trkpt>
      <trkpt lat="43.03524" lon="-0.35429">
        <ele>1392.7</ele>
        <time>2026-02-07T11:41:23.000Z</time>
      </trkpt>
      <trkpt lat="43.03525" lon="-0.35426">
        <ele>1392.7</ele>
        <time>2026-02-07T11:41:26.000Z</time>
      </trkpt>
      <trkpt lat="43.03526" lon="-0.35423">
        <ele>1392.7</ele>
        <time>2026-02-07T11:41:29.000Z</time>
      </trkpt>
      <trkpt lat="43.03527" lon="-0.3542">
        <ele>1392.7</ele>
        <time>2026-02-07T11:41:32.000Z</time>
      </trkpt>
      <trkpt lat="43.03529" lon="-0.35417">
        <ele>1392.7</ele>
        <time>2026-02-07T11:41:35.000Z</time>
      </trkpt>
      <trkpt lat="43.0353" lon="-0.35414">
        <ele>1392.7</ele>
        <time>2026-02-07T11:41:38.000Z</time>
      </trkpt>
      <trkpt lat="43.03531" lon="-0.35412">
        <ele>1392.8</ele>
        <time>2026-02-07T11:41:41.000Z</time>
      </trkpt>
      <trkpt lat="43.03533" lon="-0.35409">
        <ele>1392.9</ele>
        <time>2026-02-07T11:41:44.000Z</time>
      </trkpt>
      <trkpt lat="43.03535" lon="-0.35407">
        <ele>1393</ele>
        <time>2026-02-07T11:41:47.000Z</time>
      </trkpt>
      <trkpt lat="43.03537" lon="-0.35404">
        <ele>1393.1</ele>
        <time>2026-02-07T11:41:50.000Z</time>
      </trkpt>
      <trkpt lat="43.03539" lon="-0.35401">
        <ele>1393.3</ele>
        <time>2026-02-07T11:41:53.000Z</time>
      </trkpt>
      <trkpt lat="43.03541" lon="-0.35399">
        <ele>1393.6</ele>
        <time>2026-02-07T11:41:56.000Z</time>
      </trkpt>
      <trkpt lat="43.03543" lon="-0.35396">
        <ele>1393.9</ele>
        <time>2026-02-07T11:41:59.000Z</time>
      </trkpt>
      <trkpt lat="43.03544" lon="-0.35393">
        <ele>1394.3</ele>
        <time>2026-02-07T11:42:02.000Z</time>
      </trkpt>
      <trkpt lat="43.03546" lon="-0.3539">
        <ele>1394.6</ele>
        <time>2026-02-07T11:42:05.000Z</time>
      </trkpt>
      <trkpt lat="43.03548" lon="-0.35387">
        <ele>1394.9</ele>
        <time>2026-02-07T11:42:08.000Z</time>
      </trkpt>
      <trkpt lat="43.03549" lon="-0.35384">
        <ele>1395.1</ele>
        <time>2026-02-07T11:42:11.000Z</time>
      </trkpt>
      <trkpt lat="43.03551" lon="-0.35382">
        <ele>1395.2</ele>
        <time>2026-02-07T11:42:14.000Z</time>
      </trkpt>
      <trkpt lat="43.03552" lon="-0.35379">
        <ele>1395.3</ele>
        <time>2026-02-07T11:42:17.000Z</time>
      </trkpt>
      <trkpt lat="43.03552" lon="-0.35376">
        <ele>1395.5</ele>
        <time>2026-02-07T11:42:20.000Z</time>
      </trkpt>
      <trkpt lat="43.03553" lon="-0.35373">
        <ele>1395.5</ele>
        <time>2026-02-07T11:42:23.000Z</time>
      </trkpt>
      <trkpt lat="43.03555" lon="-0.3537">
        <ele>1395.6</ele>
        <time>2026-02-07T11:42:26.000Z</time>
      </trkpt>
      <trkpt lat="43.03555" lon="-0.35367">
        <ele>1395.7</ele>
        <time>2026-02-07T11:42:29.000Z</time>
      </trkpt>
      <trkpt lat="43.03556" lon="-0.35364">
        <ele>1395.8</ele>
        <time>2026-02-07T11:42:32.000Z</time>
      </trkpt>
      <trkpt lat="43.03556" lon="-0.3536">
        <ele>1395.9</ele>
        <time>2026-02-07T11:42:35.000Z</time>
      </trkpt>
      <trkpt lat="43.03557" lon="-0.35357">
        <ele>1395.9</ele>
        <time>2026-02-07T11:42:38.000Z</time>
      </trkpt>
      <trkpt lat="43.03558" lon="-0.35354">
        <ele>1396</ele>
        <time>2026-02-07T11:42:41.000Z</time>
      </trkpt>
      <trkpt lat="43.03559" lon="-0.35351">
        <ele>1396.1</ele>
        <time>2026-02-07T11:42:44.000Z</time>
      </trkpt>
      <trkpt lat="43.03559" lon="-0.35348">
        <ele>1396.4</ele>
        <time>2026-02-07T11:42:47.000Z</time>
      </trkpt>
      <trkpt lat="43.0356" lon="-0.35345">
        <ele>1396.6</ele>
        <time>2026-02-07T11:42:50.000Z</time>
      </trkpt>
      <trkpt lat="43.03561" lon="-0.35343">
        <ele>1397</ele>
        <time>2026-02-07T11:42:53.000Z</time>
      </trkpt>
      <trkpt lat="43.03561" lon="-0.3534">
        <ele>1397.3</ele>
        <time>2026-02-07T11:42:56.000Z</time>
      </trkpt>
      <trkpt lat="43.03561" lon="-0.35338">
        <ele>1397.5</ele>
        <time>2026-02-07T11:42:59.000Z</time>
      </trkpt>
      <trkpt lat="43.03561" lon="-0.35334">
        <ele>1397.8</ele>
        <time>2026-02-07T11:43:02.000Z</time>
      </trkpt>
      <trkpt lat="43.03562" lon="-0.35331">
        <ele>1398.2</ele>
        <time>2026-02-07T11:43:05.000Z</time>
      </trkpt>
      <trkpt lat="43.03561" lon="-0.35328">
        <ele>1398.6</ele>
        <time>2026-02-07T11:43:08.000Z</time>
      </trkpt>
      <trkpt lat="43.03561" lon="-0.35325">
        <ele>1398.9</ele>
        <time>2026-02-07T11:43:11.000Z</time>
      </trkpt>
      <trkpt lat="43.03561" lon="-0.35322">
        <ele>1399.2</ele>
        <time>2026-02-07T11:43:14.000Z</time>
      </trkpt>
      <trkpt lat="43.03561" lon="-0.35319">
        <ele>1399.6</ele>
        <time>2026-02-07T11:43:17.000Z</time>
      </trkpt>
      <trkpt lat="43.03562" lon="-0.35316">
        <ele>1399.8</ele>
        <time>2026-02-07T11:43:20.000Z</time>
      </trkpt>
      <trkpt lat="43.03563" lon="-0.35314">
        <ele>1400.1</ele>
        <time>2026-02-07T11:43:23.000Z</time>
      </trkpt>
      <trkpt lat="43.03563" lon="-0.35311">
        <ele>1400.3</ele>
        <time>2026-02-07T11:43:26.000Z</time>
      </trkpt>
      <trkpt lat="43.03563" lon="-0.35307">
        <ele>1400.7</ele>
        <time>2026-02-07T11:43:29.000Z</time>
      </trkpt>
      <trkpt lat="43.03563" lon="-0.35304">
        <ele>1401</ele>
        <time>2026-02-07T11:43:32.000Z</time>
      </trkpt>
      <trkpt lat="43.03564" lon="-0.35302">
        <ele>1401.4</ele>
        <time>2026-02-07T11:43:35.000Z</time>
      </trkpt>
      <trkpt lat="43.03565" lon="-0.35299">
        <ele>1401.8</ele>
        <time>2026-02-07T11:43:38.000Z</time>
      </trkpt>
      <trkpt lat="43.03566" lon="-0.35295">
        <ele>1402.2</ele>
        <time>2026-02-07T11:43:41.000Z</time>
      </trkpt>
      <trkpt lat="43.03566" lon="-0.35291">
        <ele>1402.5</ele>
        <time>2026-02-07T11:43:44.000Z</time>
      </trkpt>
      <trkpt lat="43.03566" lon="-0.35288">
        <ele>1402.7</ele>
        <time>2026-02-07T11:43:47.000Z</time>
      </trkpt>
      <trkpt lat="43.03567" lon="-0.35284">
        <ele>1402.8</ele>
        <time>2026-02-07T11:43:50.000Z</time>
      </trkpt>
      <trkpt lat="43.03568" lon="-0.35281">
        <ele>1402.9</ele>
        <time>2026-02-07T11:43:53.000Z</time>
      </trkpt>
      <trkpt lat="43.03568" lon="-0.35277">
        <ele>1403.1</ele>
        <time>2026-02-07T11:43:56.000Z</time>
      </trkpt>
      <trkpt lat="43.03568" lon="-0.35274">
        <ele>1403.2</ele>
        <time>2026-02-07T11:43:59.000Z</time>
      </trkpt>
      <trkpt lat="43.03568" lon="-0.3527">
        <ele>1403.4</ele>
        <time>2026-02-07T11:44:02.000Z</time>
      </trkpt>
      <trkpt lat="43.03568" lon="-0.35267">
        <ele>1403.6</ele>
        <time>2026-02-07T11:44:05.000Z</time>
      </trkpt>
      <trkpt lat="43.03567" lon="-0.35263">
        <ele>1403.8</ele>
        <time>2026-02-07T11:44:08.000Z</time>
      </trkpt>
      <trkpt lat="43.03567" lon="-0.35259">
        <ele>1404</ele>
        <time>2026-02-07T11:44:11.000Z</time>
      </trkpt>
      <trkpt lat="43.03566" lon="-0.35255">
        <ele>1404.3</ele>
        <time>2026-02-07T11:44:14.000Z</time>
      </trkpt>
      <trkpt lat="43.03567" lon="-0.35252">
        <ele>1404.4</ele>
        <time>2026-02-07T11:44:17.000Z</time>
      </trkpt>
      <trkpt lat="43.03567" lon="-0.35249">
        <ele>1404.6</ele>
        <time>2026-02-07T11:44:20.000Z</time>
      </trkpt>
      <trkpt lat="43.03567" lon="-0.35246">
        <ele>1404.8</ele>
        <time>2026-02-07T11:44:23.000Z</time>
      </trkpt>
      <trkpt lat="43.03567" lon="-0.35243">
        <ele>1405</ele>
        <time>2026-02-07T11:44:26.000Z</time>
      </trkpt>
      <trkpt lat="43.03567" lon="-0.35239">
        <ele>1405.3</ele>
        <time>2026-02-07T11:44:29.000Z</time>
      </trkpt>
      <trkpt lat="43.03567" lon="-0.35236">
        <ele>1405.4</ele>
        <time>2026-02-07T11:44:32.000Z</time>
      </trkpt>
      <trkpt lat="43.03568" lon="-0.35234">
        <ele>1405.7</ele>
        <time>2026-02-07T11:44:35.000Z</time>
      </trkpt>
      <trkpt lat="43.03569" lon="-0.35231">
        <ele>1406</ele>
        <time>2026-02-07T11:44:38.000Z</time>
      </trkpt>
      <trkpt lat="43.0357" lon="-0.35228">
        <ele>1406.4</ele>
        <time>2026-02-07T11:44:41.000Z</time>
      </trkpt>
      <trkpt lat="43.0357" lon="-0.35224">
        <ele>1406.8</ele>
        <time>2026-02-07T11:44:44.000Z</time>
      </trkpt>
      <trkpt lat="43.03571" lon="-0.3522">
        <ele>1407.2</ele>
        <time>2026-02-07T11:44:47.000Z</time>
      </trkpt>
      <trkpt lat="43.03572" lon="-0.35217">
        <ele>1407.5</ele>
        <time>2026-02-07T11:44:50.000Z</time>
      </trkpt>
      <trkpt lat="43.03573" lon="-0.35214">
        <ele>1407.8</ele>
        <time>2026-02-07T11:44:53.000Z</time>
      </trkpt>
      <trkpt lat="43.03573" lon="-0.35211">
        <ele>1408</ele>
        <time>2026-02-07T11:44:56.000Z</time>
      </trkpt>
      <trkpt lat="43.03574" lon="-0.35208">
        <ele>1408.2</ele>
        <time>2026-02-07T11:44:59.000Z</time>
      </trkpt>
      <trkpt lat="43.03575" lon="-0.35205">
        <ele>1408.4</ele>
        <time>2026-02-07T11:45:02.000Z</time>
      </trkpt>
      <trkpt lat="43.03576" lon="-0.35202">
        <ele>1408.6</ele>
        <time>2026-02-07T11:45:05.000Z</time>
      </trkpt>
      <trkpt lat="43.03577" lon="-0.35199">
        <ele>1408.8</ele>
        <time>2026-02-07T11:45:08.000Z</time>
      </trkpt>
      <trkpt lat="43.03578" lon="-0.35196">
        <ele>1409</ele>
        <time>2026-02-07T11:45:11.000Z</time>
      </trkpt>
      <trkpt lat="43.03578" lon="-0.35193">
        <ele>1409.2</ele>
        <time>2026-02-07T11:45:14.000Z</time>
      </trkpt>
      <trkpt lat="43.03578" lon="-0.3519">
        <ele>1409.4</ele>
        <time>2026-02-07T11:45:17.000Z</time>
      </trkpt>
      <trkpt lat="43.03578" lon="-0.35186">
        <ele>1409.6</ele>
        <time>2026-02-07T11:45:20.000Z</time>
      </trkpt>
      <trkpt lat="43.03577" lon="-0.35183">
        <ele>1409.9</ele>
        <time>2026-02-07T11:45:23.000Z</time>
      </trkpt>
      <trkpt lat="43.03578" lon="-0.3518">
        <ele>1410.2</ele>
        <time>2026-02-07T11:45:26.000Z</time>
      </trkpt>
      <trkpt lat="43.03578" lon="-0.35177">
        <ele>1410.6</ele>
        <time>2026-02-07T11:45:29.000Z</time>
      </trkpt>
      <trkpt lat="43.03579" lon="-0.35175">
        <ele>1410.9</ele>
        <time>2026-02-07T11:45:32.000Z</time>
      </trkpt>
      <trkpt lat="43.03579" lon="-0.35172">
        <ele>1411.4</ele>
        <time>2026-02-07T11:45:35.000Z</time>
      </trkpt>
      <trkpt lat="43.0358" lon="-0.3517">
        <ele>1411.6</ele>
        <time>2026-02-07T11:45:38.000Z</time>
      </trkpt>
      <trkpt lat="43.0358" lon="-0.35167">
        <ele>1411.9</ele>
        <time>2026-02-07T11:45:41.000Z</time>
      </trkpt>
      <trkpt lat="43.0358" lon="-0.35164">
        <ele>1412.3</ele>
        <time>2026-02-07T11:45:44.000Z</time>
      </trkpt>
      <trkpt lat="43.03581" lon="-0.35162">
        <ele>1412.7</ele>
        <time>2026-02-07T11:45:47.000Z</time>
      </trkpt>
      <trkpt lat="43.03582" lon="-0.35159">
        <ele>1413</ele>
        <time>2026-02-07T11:45:50.000Z</time>
      </trkpt>
      <trkpt lat="43.03582" lon="-0.35156">
        <ele>1413.3</ele>
        <time>2026-02-07T11:45:53.000Z</time>
      </trkpt>
      <trkpt lat="43.03583" lon="-0.35153">
        <ele>1413.6</ele>
        <time>2026-02-07T11:45:56.000Z</time>
      </trkpt>
      <trkpt lat="43.03584" lon="-0.35151">
        <ele>1413.9</ele>
        <time>2026-02-07T11:45:59.000Z</time>
      </trkpt>
      <trkpt lat="43.03584" lon="-0.35148">
        <ele>1414.3</ele>
        <time>2026-02-07T11:46:02.000Z</time>
      </trkpt>
      <trkpt lat="43.03584" lon="-0.35145">
        <ele>1414.4</ele>
        <time>2026-02-07T11:46:05.000Z</time>
      </trkpt>
      <trkpt lat="43.03584" lon="-0.35142">
        <ele>1414.7</ele>
        <time>2026-02-07T11:46:08.000Z</time>
      </trkpt>
      <trkpt lat="43.03584" lon="-0.35139">
        <ele>1415.1</ele>
        <time>2026-02-07T11:46:11.000Z</time>
      </trkpt>
      <trkpt lat="43.03585" lon="-0.35136">
        <ele>1415.4</ele>
        <time>2026-02-07T11:46:14.000Z</time>
      </trkpt>
      <trkpt lat="43.03584" lon="-0.35133">
        <ele>1415.8</ele>
        <time>2026-02-07T11:46:17.000Z</time>
      </trkpt>
      <trkpt lat="43.03583" lon="-0.35131">
        <ele>1416.1</ele>
        <time>2026-02-07T11:46:20.000Z</time>
      </trkpt>
      <trkpt lat="43.03582" lon="-0.35127">
        <ele>1416.5</ele>
        <time>2026-02-07T11:46:23.000Z</time>
      </trkpt>
      <trkpt lat="43.03581" lon="-0.35124">
        <ele>1416.8</ele>
        <time>2026-02-07T11:46:26.000Z</time>
      </trkpt>
      <trkpt lat="43.03581" lon="-0.35121">
        <ele>1417.2</ele>
        <time>2026-02-07T11:46:29.000Z</time>
      </trkpt>
      <trkpt lat="43.0358" lon="-0.35118">
        <ele>1417.6</ele>
        <time>2026-02-07T11:46:32.000Z</time>
      </trkpt>
      <trkpt lat="43.03581" lon="-0.35116">
        <ele>1418</ele>
        <time>2026-02-07T11:46:35.000Z</time>
      </trkpt>
      <trkpt lat="43.03581" lon="-0.35113">
        <ele>1418.4</ele>
        <time>2026-02-07T11:46:38.000Z</time>
      </trkpt>
      <trkpt lat="43.03581" lon="-0.35111">
        <ele>1418.7</ele>
        <time>2026-02-07T11:46:41.000Z</time>
      </trkpt>
      <trkpt lat="43.03582" lon="-0.35108">
        <ele>1419.1</ele>
        <time>2026-02-07T11:46:44.000Z</time>
      </trkpt>
      <trkpt lat="43.03583" lon="-0.35106">
        <ele>1419.5</ele>
        <time>2026-02-07T11:46:47.000Z</time>
      </trkpt>
      <trkpt lat="43.03584" lon="-0.35103">
        <ele>1419.9</ele>
        <time>2026-02-07T11:46:50.000Z</time>
      </trkpt>
      <trkpt lat="43.03584" lon="-0.35101">
        <ele>1420.2</ele>
        <time>2026-02-07T11:46:53.000Z</time>
      </trkpt>
      <trkpt lat="43.03585" lon="-0.35098">
        <ele>1420.4</ele>
        <time>2026-02-07T11:46:56.000Z</time>
      </trkpt>
      <trkpt lat="43.03585" lon="-0.35095">
        <ele>1420.5</ele>
        <time>2026-02-07T11:46:59.000Z</time>
      </trkpt>
      <trkpt lat="43.03585" lon="-0.35093">
        <ele>1420.7</ele>
        <time>2026-02-07T11:47:02.000Z</time>
      </trkpt>
      <trkpt lat="43.03585" lon="-0.3509">
        <ele>1420.9</ele>
        <time>2026-02-07T11:47:05.000Z</time>
      </trkpt>
      <trkpt lat="43.03586" lon="-0.35087">
        <ele>1421.2</ele>
        <time>2026-02-07T11:47:08.000Z</time>
      </trkpt>
      <trkpt lat="43.03586" lon="-0.35084">
        <ele>1421.4</ele>
        <time>2026-02-07T11:47:11.000Z</time>
      </trkpt>
      <trkpt lat="43.03586" lon="-0.35082">
        <ele>1421.7</ele>
        <time>2026-02-07T11:47:14.000Z</time>
      </trkpt>
      <trkpt lat="43.03586" lon="-0.35079">
        <ele>1422</ele>
        <time>2026-02-07T11:47:17.000Z</time>
      </trkpt>
      <trkpt lat="43.03586" lon="-0.35076">
        <ele>1422.3</ele>
        <time>2026-02-07T11:47:20.000Z</time>
      </trkpt>
      <trkpt lat="43.03586" lon="-0.35073">
        <ele>1422.7</ele>
        <time>2026-02-07T11:47:23.000Z</time>
      </trkpt>
      <trkpt lat="43.03586" lon="-0.3507">
        <ele>1423.2</ele>
        <time>2026-02-07T11:47:26.000Z</time>
      </trkpt>
      <trkpt lat="43.03585" lon="-0.35067">
        <ele>1423.6</ele>
        <time>2026-02-07T11:47:29.000Z</time>
      </trkpt>
      <trkpt lat="43.03586" lon="-0.35064">
        <ele>1424</ele>
        <time>2026-02-07T11:47:32.000Z</time>
      </trkpt>
      <trkpt lat="43.03586" lon="-0.35061">
        <ele>1424.3</ele>
        <time>2026-02-07T11:47:35.000Z</time>
      </trkpt>
      <trkpt lat="43.03587" lon="-0.35059">
        <ele>1424.6</ele>
        <time>2026-02-07T11:47:38.000Z</time>
      </trkpt>
      <trkpt lat="43.03588" lon="-0.35057">
        <ele>1425</ele>
        <time>2026-02-07T11:47:41.000Z</time>
      </trkpt>
      <trkpt lat="43.03589" lon="-0.35054">
        <ele>1425.2</ele>
        <time>2026-02-07T11:47:44.000Z</time>
      </trkpt>
      <trkpt lat="43.03589" lon="-0.35051">
        <ele>1425.5</ele>
        <time>2026-02-07T11:47:47.000Z</time>
      </trkpt>
      <trkpt lat="43.03589" lon="-0.35048">
        <ele>1425.8</ele>
        <time>2026-02-07T11:47:50.000Z</time>
      </trkpt>
      <trkpt lat="43.0359" lon="-0.35045">
        <ele>1426.1</ele>
        <time>2026-02-07T11:47:53.000Z</time>
      </trkpt>
      <trkpt lat="43.03591" lon="-0.35042">
        <ele>1426.5</ele>
        <time>2026-02-07T11:47:56.000Z</time>
      </trkpt>
      <trkpt lat="43.03592" lon="-0.3504">
        <ele>1426.9</ele>
        <time>2026-02-07T11:47:59.000Z</time>
      </trkpt>
      <trkpt lat="43.03592" lon="-0.35037">
        <ele>1427.4</ele>
        <time>2026-02-07T11:48:02.000Z</time>
      </trkpt>
      <trkpt lat="43.03593" lon="-0.35035">
        <ele>1427.8</ele>
        <time>2026-02-07T11:48:05.000Z</time>
      </trkpt>
      <trkpt lat="43.03593" lon="-0.35033">
        <ele>1428.1</ele>
        <time>2026-02-07T11:48:08.000Z</time>
      </trkpt>
      <trkpt lat="43.03593" lon="-0.35029">
        <ele>1428.4</ele>
        <time>2026-02-07T11:48:11.000Z</time>
      </trkpt>
      <trkpt lat="43.03593" lon="-0.35026">
        <ele>1428.6</ele>
        <time>2026-02-07T11:48:14.000Z</time>
      </trkpt>
      <trkpt lat="43.03593" lon="-0.35024">
        <ele>1428.8</ele>
        <time>2026-02-07T11:48:17.000Z</time>
      </trkpt>
      <trkpt lat="43.03594" lon="-0.35021">
        <ele>1429.1</ele>
        <time>2026-02-07T11:48:20.000Z</time>
      </trkpt>
      <trkpt lat="43.03594" lon="-0.35018">
        <ele>1429.4</ele>
        <time>2026-02-07T11:48:23.000Z</time>
      </trkpt>
      <trkpt lat="43.03594" lon="-0.35015">
        <ele>1429.7</ele>
        <time>2026-02-07T11:48:26.000Z</time>
      </trkpt>
      <trkpt lat="43.03595" lon="-0.35012">
        <ele>1430</ele>
        <time>2026-02-07T11:48:29.000Z</time>
      </trkpt>
      <trkpt lat="43.03595" lon="-0.3501">
        <ele>1430.3</ele>
        <time>2026-02-07T11:48:32.000Z</time>
      </trkpt>
      <trkpt lat="43.03596" lon="-0.35007">
        <ele>1430.7</ele>
        <time>2026-02-07T11:48:35.000Z</time>
      </trkpt>
      <trkpt lat="43.03597" lon="-0.35004">
        <ele>1431</ele>
        <time>2026-02-07T11:48:38.000Z</time>
      </trkpt>
      <trkpt lat="43.03598" lon="-0.35001">
        <ele>1431.2</ele>
        <time>2026-02-07T11:48:41.000Z</time>
      </trkpt>
      <trkpt lat="43.03598" lon="-0.34998">
        <ele>1431.5</ele>
        <time>2026-02-07T11:48:44.000Z</time>
      </trkpt>
      <trkpt lat="43.03598" lon="-0.34995">
        <ele>1431.8</ele>
        <time>2026-02-07T11:48:47.000Z</time>
      </trkpt>
      <trkpt lat="43.03598" lon="-0.34993">
        <ele>1432</ele>
        <time>2026-02-07T11:48:50.000Z</time>
      </trkpt>
      <trkpt lat="43.03597" lon="-0.3499">
        <ele>1432.2</ele>
        <time>2026-02-07T11:48:53.000Z</time>
      </trkpt>
      <trkpt lat="43.03597" lon="-0.34987">
        <ele>1432.5</ele>
        <time>2026-02-07T11:48:56.000Z</time>
      </trkpt>
      <trkpt lat="43.03597" lon="-0.34985">
        <ele>1432.9</ele>
        <time>2026-02-07T11:48:59.000Z</time>
      </trkpt>
      <trkpt lat="43.03598" lon="-0.34982">
        <ele>1433.2</ele>
        <time>2026-02-07T11:49:02.000Z</time>
      </trkpt>
      <trkpt lat="43.03598" lon="-0.34979">
        <ele>1433.6</ele>
        <time>2026-02-07T11:49:05.000Z</time>
      </trkpt>
      <trkpt lat="43.03599" lon="-0.34976">
        <ele>1433.9</ele>
        <time>2026-02-07T11:49:08.000Z</time>
      </trkpt>
      <trkpt lat="43.036" lon="-0.34973">
        <ele>1434.2</ele>
        <time>2026-02-07T11:49:11.000Z</time>
      </trkpt>
      <trkpt lat="43.036" lon="-0.34969">
        <ele>1434.6</ele>
        <time>2026-02-07T11:49:14.000Z</time>
      </trkpt>
      <trkpt lat="43.036" lon="-0.34966">
        <ele>1435</ele>
        <time>2026-02-07T11:49:17.000Z</time>
      </trkpt>
      <trkpt lat="43.03601" lon="-0.34963">
        <ele>1435.3</ele>
        <time>2026-02-07T11:49:20.000Z</time>
      </trkpt>
      <trkpt lat="43.03602" lon="-0.3496">
        <ele>1435.6</ele>
        <time>2026-02-07T11:49:23.000Z</time>
      </trkpt>
      <trkpt lat="43.03602" lon="-0.34957">
        <ele>1436</ele>
        <time>2026-02-07T11:49:26.000Z</time>
      </trkpt>
      <trkpt lat="43.03603" lon="-0.34953">
        <ele>1436.3</ele>
        <time>2026-02-07T11:49:29.000Z</time>
      </trkpt>
      <trkpt lat="43.03603" lon="-0.3495">
        <ele>1436.6</ele>
        <time>2026-02-07T11:49:32.000Z</time>
      </trkpt>
      <trkpt lat="43.03604" lon="-0.34947">
        <ele>1436.9</ele>
        <time>2026-02-07T11:49:35.000Z</time>
      </trkpt>
      <trkpt lat="43.03604" lon="-0.34945">
        <ele>1437.3</ele>
        <time>2026-02-07T11:49:38.000Z</time>
      </trkpt>
      <trkpt lat="43.03604" lon="-0.34941">
        <ele>1437.7</ele>
        <time>2026-02-07T11:49:41.000Z</time>
      </trkpt>
      <trkpt lat="43.03604" lon="-0.34938">
        <ele>1438.1</ele>
        <time>2026-02-07T11:49:44.000Z</time>
      </trkpt>
      <trkpt lat="43.03605" lon="-0.34935">
        <ele>1438.5</ele>
        <time>2026-02-07T11:49:47.000Z</time>
      </trkpt>
      <trkpt lat="43.03605" lon="-0.34932">
        <ele>1438.7</ele>
        <time>2026-02-07T11:49:50.000Z</time>
      </trkpt>
      <trkpt lat="43.03606" lon="-0.3493">
        <ele>1439</ele>
        <time>2026-02-07T11:49:53.000Z</time>
      </trkpt>
      <trkpt lat="43.03607" lon="-0.34927">
        <ele>1439.3</ele>
        <time>2026-02-07T11:49:56.000Z</time>
      </trkpt>
      <trkpt lat="43.03607" lon="-0.34924">
        <ele>1439.6</ele>
        <time>2026-02-07T11:49:59.000Z</time>
      </trkpt>
      <trkpt lat="43.03607" lon="-0.34921">
        <ele>1439.9</ele>
        <time>2026-02-07T11:50:02.000Z</time>
      </trkpt>
      <trkpt lat="43.03608" lon="-0.34918">
        <ele>1440.2</ele>
        <time>2026-02-07T11:50:05.000Z</time>
      </trkpt>
      <trkpt lat="43.03608" lon="-0.34915">
        <ele>1440.5</ele>
        <time>2026-02-07T11:50:08.000Z</time>
      </trkpt>
      <trkpt lat="43.03609" lon="-0.34912">
        <ele>1440.8</ele>
        <time>2026-02-07T11:50:11.000Z</time>
      </trkpt>
      <trkpt lat="43.03609" lon="-0.34909">
        <ele>1441.1</ele>
        <time>2026-02-07T11:50:14.000Z</time>
      </trkpt>
      <trkpt lat="43.03608" lon="-0.34906">
        <ele>1441.4</ele>
        <time>2026-02-07T11:50:17.000Z</time>
      </trkpt>
      <trkpt lat="43.03608" lon="-0.34903">
        <ele>1441.7</ele>
        <time>2026-02-07T11:50:20.000Z</time>
      </trkpt>
      <trkpt lat="43.03609" lon="-0.349">
        <ele>1441.9</ele>
        <time>2026-02-07T11:50:23.000Z</time>
      </trkpt>
      <trkpt lat="43.03609" lon="-0.34897">
        <ele>1442.2</ele>
        <time>2026-02-07T11:50:26.000Z</time>
      </trkpt>
      <trkpt lat="43.03609" lon="-0.34895">
        <ele>1442.5</ele>
        <time>2026-02-07T11:50:29.000Z</time>
      </trkpt>
      <trkpt lat="43.0361" lon="-0.34893">
        <ele>1442.8</ele>
        <time>2026-02-07T11:50:32.000Z</time>
      </trkpt>
      <trkpt lat="43.0361" lon="-0.34891">
        <ele>1443.1</ele>
        <time>2026-02-07T11:50:35.000Z</time>
      </trkpt>
      <trkpt lat="43.0361" lon="-0.34888">
        <ele>1443.5</ele>
        <time>2026-02-07T11:50:38.000Z</time>
      </trkpt>
      <trkpt lat="43.03609" lon="-0.34885">
        <ele>1443.9</ele>
        <time>2026-02-07T11:50:41.000Z</time>
      </trkpt>
      <trkpt lat="43.03609" lon="-0.34882">
        <ele>1444.3</ele>
        <time>2026-02-07T11:50:44.000Z</time>
      </trkpt>
      <trkpt lat="43.03609" lon="-0.34879">
        <ele>1444.8</ele>
        <time>2026-02-07T11:50:47.000Z</time>
      </trkpt>
      <trkpt lat="43.03609" lon="-0.34876">
        <ele>1445.3</ele>
        <time>2026-02-07T11:50:50.000Z</time>
      </trkpt>
      <trkpt lat="43.03609" lon="-0.34874">
        <ele>1445.7</ele>
        <time>2026-02-07T11:50:53.000Z</time>
      </trkpt>
      <trkpt lat="43.03609" lon="-0.34871">
        <ele>1446.1</ele>
        <time>2026-02-07T11:50:56.000Z</time>
      </trkpt>
      <trkpt lat="43.0361" lon="-0.34868">
        <ele>1446.6</ele>
        <time>2026-02-07T11:50:59.000Z</time>
      </trkpt>
      <trkpt lat="43.03611" lon="-0.34866">
        <ele>1446.9</ele>
        <time>2026-02-07T11:51:02.000Z</time>
      </trkpt>
      <trkpt lat="43.03611" lon="-0.34863">
        <ele>1447.2</ele>
        <time>2026-02-07T11:51:05.000Z</time>
      </trkpt>
      <trkpt lat="43.03611" lon="-0.3486">
        <ele>1447.5</ele>
        <time>2026-02-07T11:51:08.000Z</time>
      </trkpt>
      <trkpt lat="43.03611" lon="-0.34857">
        <ele>1447.8</ele>
        <time>2026-02-07T11:51:11.000Z</time>
      </trkpt>
      <trkpt lat="43.03611" lon="-0.34854">
        <ele>1448.2</ele>
        <time>2026-02-07T11:51:14.000Z</time>
      </trkpt>
      <trkpt lat="43.03611" lon="-0.34851">
        <ele>1448.5</ele>
        <time>2026-02-07T11:51:17.000Z</time>
      </trkpt>
      <trkpt lat="43.03611" lon="-0.34848">
        <ele>1448.8</ele>
        <time>2026-02-07T11:51:20.000Z</time>
      </trkpt>
      <trkpt lat="43.03611" lon="-0.34845">
        <ele>1449.1</ele>
        <time>2026-02-07T11:51:23.000Z</time>
      </trkpt>
      <trkpt lat="43.03611" lon="-0.34843">
        <ele>1449.4</ele>
        <time>2026-02-07T11:51:26.000Z</time>
      </trkpt>
      <trkpt lat="43.03611" lon="-0.3484">
        <ele>1449.7</ele>
        <time>2026-02-07T11:51:29.000Z</time>
      </trkpt>
      <trkpt lat="43.03611" lon="-0.34837">
        <ele>1449.9</ele>
        <time>2026-02-07T11:51:32.000Z</time>
      </trkpt>
      <trkpt lat="43.03611" lon="-0.34835">
        <ele>1450.1</ele>
        <time>2026-02-07T11:51:35.000Z</time>
      </trkpt>
      <trkpt lat="43.03611" lon="-0.34832">
        <ele>1450.4</ele>
        <time>2026-02-07T11:51:38.000Z</time>
      </trkpt>
      <trkpt lat="43.03611" lon="-0.34828">
        <ele>1450.7</ele>
        <time>2026-02-07T11:51:41.000Z</time>
      </trkpt>
      <trkpt lat="43.03611" lon="-0.34826">
        <ele>1451</ele>
        <time>2026-02-07T11:51:44.000Z</time>
      </trkpt>
      <trkpt lat="43.03612" lon="-0.34825">
        <ele>1451.3</ele>
        <time>2026-02-07T11:51:47.000Z</time>
      </trkpt>
      <trkpt lat="43.03612" lon="-0.34825">
        <ele>1451.3</ele>
        <time>2026-02-07T11:51:48.000Z</time>
      </trkpt>
      <trkpt lat="43.03612" lon="-0.34825">
        <ele>1451.4</ele>
        <time>2026-02-07T11:51:49.000Z</time>
      </trkpt>
      <trkpt lat="43.03612" lon="-0.34825">
        <ele>1451.5</ele>
        <time>2026-02-07T11:51:50.000Z</time>
      </trkpt>
      <trkpt lat="43.03613" lon="-0.34825">
        <ele>1451.6</ele>
        <time>2026-02-07T11:51:51.000Z</time>
      </trkpt>
      <trkpt lat="43.03613" lon="-0.34825">
        <ele>1451.7</ele>
        <time>2026-02-07T11:51:52.000Z</time>
      </trkpt>
      <trkpt lat="43.03613" lon="-0.34825">
        <ele>1451.7</ele>
        <time>2026-02-07T11:51:53.000Z</time>
      </trkpt>
      <trkpt lat="43.03613" lon="-0.34825">
        <ele>1451.8</ele>
        <time>2026-02-07T11:51:56.000Z</time>
      </trkpt>
      <trkpt lat="43.03613" lon="-0.34825">
        <ele>1451.9</ele>
        <time>2026-02-07T11:51:59.000Z</time>
      </trkpt>
      <trkpt lat="43.03613" lon="-0.34825">
        <ele>1451.9</ele>
        <time>2026-02-07T11:52:00.000Z</time>
      </trkpt>
      <trkpt lat="43.03613" lon="-0.34825">
        <ele>1451.9</ele>
        <time>2026-02-07T11:52:01.000Z</time>
      </trkpt>
      <trkpt lat="43.03613" lon="-0.34825">
        <ele>1451.9</ele>
        <time>2026-02-07T11:52:02.000Z</time>
      </trkpt>
      <trkpt lat="43.03613" lon="-0.34825">
        <ele>1451.9</ele>
        <time>2026-02-07T11:52:03.000Z</time>
      </trkpt>
      <trkpt lat="43.03613" lon="-0.34825">
        <ele>1451.9</ele>
        <time>2026-02-07T11:52:06.000Z</time>
      </trkpt>
      <trkpt lat="43.03613" lon="-0.34825">
        <ele>1451.9</ele>
        <time>2026-02-07T11:52:09.000Z</time>
      </trkpt>
      <trkpt lat="43.03613" lon="-0.34825">
        <ele>1451.9</ele>
        <time>2026-02-07T11:52:12.000Z</time>
      </trkpt>
      <trkpt lat="43.03613" lon="-0.34825">
        <ele>1451.9</ele>
        <time>2026-02-07T11:52:15.000Z</time>
      </trkpt>
      <trkpt lat="43.03613" lon="-0.34825">
        <ele>1451.9</ele>
        <time>2026-02-07T11:52:18.000Z</time>
      </trkpt>
      <trkpt lat="43.03613" lon="-0.34825">
        <ele>1451.9</ele>
        <time>2026-02-07T11:52:19.000Z</time>
      </trkpt>
      <trkpt lat="43.03613" lon="-0.34825">
        <ele>1451.9</ele>
        <time>2026-02-07T11:52:20.000Z</time>
      </trkpt>
      <trkpt lat="43.03613" lon="-0.34825">
        <ele>1451.9</ele>
        <time>2026-02-07T11:52:21.000Z</time>
      </trkpt>
      <trkpt lat="43.03613" lon="-0.34825">
        <ele>1451.9</ele>
        <time>2026-02-07T11:52:24.000Z</time>
      </trkpt>
      <trkpt lat="43.03613" lon="-0.34825">
        <ele>1451.9</ele>
        <time>2026-02-07T11:52:27.000Z</time>
      </trkpt>
      <trkpt lat="43.03613" lon="-0.34825">
        <ele>1452</ele>
        <time>2026-02-07T11:52:29.000Z</time>
      </trkpt>
      <trkpt lat="43.03613" lon="-0.34825">
        <ele>1452</ele>
        <time>2026-02-07T11:52:30.000Z</time>
      </trkpt>
      <trkpt lat="43.03613" lon="-0.34825">
        <ele>1452</ele>
        <time>2026-02-07T11:52:31.000Z</time>
      </trkpt>
      <trkpt lat="43.03613" lon="-0.34825">
        <ele>1452</ele>
        <time>2026-02-07T11:52:32.000Z</time>
      </trkpt>
      <trkpt lat="43.03613" lon="-0.34825">
        <ele>1452</ele>
        <time>2026-02-07T11:52:33.000Z</time>
      </trkpt>
      <trkpt lat="43.03613" lon="-0.34825">
        <ele>1452</ele>
        <time>2026-02-07T11:52:36.000Z</time>
      </trkpt>
      <trkpt lat="43.03613" lon="-0.34825">
        <ele>1452</ele>
        <time>2026-02-07T11:52:39.000Z</time>
      </trkpt>
      <trkpt lat="43.03613" lon="-0.34825">
        <ele>1452</ele>
        <time>2026-02-07T11:52:42.000Z</time>
      </trkpt>
      <trkpt lat="43.03613" lon="-0.34825">
        <ele>1452</ele>
        <time>2026-02-07T11:52:45.000Z</time>
      </trkpt>
      <trkpt lat="43.03613" lon="-0.34825">
        <ele>1452</ele>
        <time>2026-02-07T11:52:48.000Z</time>
      </trkpt>
      <trkpt lat="43.03613" lon="-0.34825">
        <ele>1452</ele>
        <time>2026-02-07T11:52:51.000Z</time>
      </trkpt>
      <trkpt lat="43.03613" lon="-0.34825">
        <ele>1452</ele>
        <time>2026-02-07T11:52:54.000Z</time>
      </trkpt>
      <trkpt lat="43.03613" lon="-0.34824">
        <ele>1452</ele>
        <time>2026-02-07T11:52:57.000Z</time>
      </trkpt>
      <trkpt lat="43.03613" lon="-0.34823">
        <ele>1452</ele>
        <time>2026-02-07T11:52:58.000Z</time>
      </trkpt>
      <trkpt lat="43.03612" lon="-0.34821">
        <ele>1452</ele>
        <time>2026-02-07T11:53:01.000Z</time>
      </trkpt>
      <trkpt lat="43.03612" lon="-0.34818">
        <ele>1452</ele>
        <time>2026-02-07T11:53:04.000Z</time>
      </trkpt>
      <trkpt lat="43.03612" lon="-0.34816">
        <ele>1452.1</ele>
        <time>2026-02-07T11:53:07.000Z</time>
      </trkpt>
      <trkpt lat="43.03613" lon="-0.34813">
        <ele>1452.1</ele>
        <time>2026-02-07T11:53:10.000Z</time>
      </trkpt>
      <trkpt lat="43.03614" lon="-0.3481">
        <ele>1452.2</ele>
        <time>2026-02-07T11:53:13.000Z</time>
      </trkpt>
      <trkpt lat="43.03614" lon="-0.34807">
        <ele>1452.3</ele>
        <time>2026-02-07T11:53:16.000Z</time>
      </trkpt>
      <trkpt lat="43.03614" lon="-0.34804">
        <ele>1452.5</ele>
        <time>2026-02-07T11:53:19.000Z</time>
      </trkpt>
      <trkpt lat="43.03615" lon="-0.34801">
        <ele>1452.7</ele>
        <time>2026-02-07T11:53:22.000Z</time>
      </trkpt>
      <trkpt lat="43.03615" lon="-0.34798">
        <ele>1453</ele>
        <time>2026-02-07T11:53:25.000Z</time>
      </trkpt>
      <trkpt lat="43.03615" lon="-0.34796">
        <ele>1453.3</ele>
        <time>2026-02-07T11:53:28.000Z</time>
      </trkpt>
      <trkpt lat="43.03616" lon="-0.34793">
        <ele>1453.6</ele>
        <time>2026-02-07T11:53:31.000Z</time>
      </trkpt>
      <trkpt lat="43.03616" lon="-0.3479">
        <ele>1454</ele>
        <time>2026-02-07T11:53:34.000Z</time>
      </trkpt>
      <trkpt lat="43.03616" lon="-0.34788">
        <ele>1454.3</ele>
        <time>2026-02-07T11:53:37.000Z</time>
      </trkpt>
      <trkpt lat="43.03616" lon="-0.34785">
        <ele>1454.7</ele>
        <time>2026-02-07T11:53:40.000Z</time>
      </trkpt>
      <trkpt lat="43.03617" lon="-0.34783">
        <ele>1454.9</ele>
        <time>2026-02-07T11:53:43.000Z</time>
      </trkpt>
      <trkpt lat="43.03617" lon="-0.3478">
        <ele>1455.1</ele>
        <time>2026-02-07T11:53:46.000Z</time>
      </trkpt>
      <trkpt lat="43.03618" lon="-0.34778">
        <ele>1455.4</ele>
        <time>2026-02-07T11:53:49.000Z</time>
      </trkpt>
      <trkpt lat="43.03619" lon="-0.34776">
        <ele>1455.5</ele>
        <time>2026-02-07T11:53:52.000Z</time>
      </trkpt>
      <trkpt lat="43.03619" lon="-0.34774">
        <ele>1455.8</ele>
        <time>2026-02-07T11:53:55.000Z</time>
      </trkpt>
      <trkpt lat="43.0362" lon="-0.34771">
        <ele>1455.9</ele>
        <time>2026-02-07T11:53:58.000Z</time>
      </trkpt>
      <trkpt lat="43.0362" lon="-0.34769">
        <ele>1456.1</ele>
        <time>2026-02-07T11:54:01.000Z</time>
      </trkpt>
      <trkpt lat="43.03621" lon="-0.34767">
        <ele>1456.3</ele>
        <time>2026-02-07T11:54:04.000Z</time>
      </trkpt>
      <trkpt lat="43.03622" lon="-0.34764">
        <ele>1456.7</ele>
        <time>2026-02-07T11:54:07.000Z</time>
      </trkpt>
      <trkpt lat="43.03622" lon="-0.34762">
        <ele>1457.1</ele>
        <time>2026-02-07T11:54:10.000Z</time>
      </trkpt>
      <trkpt lat="43.03622" lon="-0.3476">
        <ele>1457.5</ele>
        <time>2026-02-07T11:54:13.000Z</time>
      </trkpt>
      <trkpt lat="43.03622" lon="-0.3476">
        <ele>1457.7</ele>
        <time>2026-02-07T11:54:15.000Z</time>
      </trkpt>
      <trkpt lat="43.03622" lon="-0.3476">
        <ele>1457.9</ele>
        <time>2026-02-07T11:54:16.000Z</time>
      </trkpt>
      <trkpt lat="43.03622" lon="-0.3476">
        <ele>1458</ele>
        <time>2026-02-07T11:54:17.000Z</time>
      </trkpt>
      <trkpt lat="43.03622" lon="-0.3476">
        <ele>1458.2</ele>
        <time>2026-02-07T11:54:20.000Z</time>
      </trkpt>
      <trkpt lat="43.03622" lon="-0.3476">
        <ele>1458.5</ele>
        <time>2026-02-07T11:54:23.000Z</time>
      </trkpt>
      <trkpt lat="43.03622" lon="-0.3476">
        <ele>1458.7</ele>
        <time>2026-02-07T11:54:26.000Z</time>
      </trkpt>
      <trkpt lat="43.03622" lon="-0.3476">
        <ele>1458.9</ele>
        <time>2026-02-07T11:54:29.000Z</time>
      </trkpt>
      <trkpt lat="43.03622" lon="-0.34759">
        <ele>1459</ele>
        <time>2026-02-07T11:54:32.000Z</time>
      </trkpt>
      <trkpt lat="43.03623" lon="-0.34757">
        <ele>1459.1</ele>
        <time>2026-02-07T11:54:34.000Z</time>
      </trkpt>
      <trkpt lat="43.03623" lon="-0.34756">
        <ele>1459.2</ele>
        <time>2026-02-07T11:54:35.000Z</time>
      </trkpt>
      <trkpt lat="43.03623" lon="-0.34755">
        <ele>1459.2</ele>
        <time>2026-02-07T11:54:36.000Z</time>
      </trkpt>
      <trkpt lat="43.03623" lon="-0.34752">
        <ele>1459.4</ele>
        <time>2026-02-07T11:54:39.000Z</time>
      </trkpt>
      <trkpt lat="43.03622" lon="-0.34748">
        <ele>1459.6</ele>
        <time>2026-02-07T11:54:42.000Z</time>
      </trkpt>
      <trkpt lat="43.03623" lon="-0.34746">
        <ele>1459.9</ele>
        <time>2026-02-07T11:54:45.000Z</time>
      </trkpt>
      <trkpt lat="43.03623" lon="-0.34743">
        <ele>1460.2</ele>
        <time>2026-02-07T11:54:48.000Z</time>
      </trkpt>
      <trkpt lat="43.03624" lon="-0.3474">
        <ele>1460.5</ele>
        <time>2026-02-07T11:54:51.000Z</time>
      </trkpt>
      <trkpt lat="43.03624" lon="-0.34737">
        <ele>1460.9</ele>
        <time>2026-02-07T11:54:54.000Z</time>
      </trkpt>
      <trkpt lat="43.03624" lon="-0.34734">
        <ele>1461.2</ele>
        <time>2026-02-07T11:54:57.000Z</time>
      </trkpt>
      <trkpt lat="43.03624" lon="-0.34731">
        <ele>1461.6</ele>
        <time>2026-02-07T11:55:00.000Z</time>
      </trkpt>
      <trkpt lat="43.03623" lon="-0.34728">
        <ele>1462</ele>
        <time>2026-02-07T11:55:03.000Z</time>
      </trkpt>
      <trkpt lat="43.03623" lon="-0.34725">
        <ele>1462.5</ele>
        <time>2026-02-07T11:55:06.000Z</time>
      </trkpt>
      <trkpt lat="43.03624" lon="-0.34723">
        <ele>1462.9</ele>
        <time>2026-02-07T11:55:09.000Z</time>
      </trkpt>
      <trkpt lat="43.03624" lon="-0.3472">
        <ele>1463.5</ele>
        <time>2026-02-07T11:55:12.000Z</time>
      </trkpt>
      <trkpt lat="43.03624" lon="-0.34717">
        <ele>1464</ele>
        <time>2026-02-07T11:55:15.000Z</time>
      </trkpt>
      <trkpt lat="43.03624" lon="-0.34715">
        <ele>1464.3</ele>
        <time>2026-02-07T11:55:18.000Z</time>
      </trkpt>
      <trkpt lat="43.03624" lon="-0.34712">
        <ele>1464.6</ele>
        <time>2026-02-07T11:55:21.000Z</time>
      </trkpt>
      <trkpt lat="43.03623" lon="-0.3471">
        <ele>1465</ele>
        <time>2026-02-07T11:55:24.000Z</time>
      </trkpt>
      <trkpt lat="43.03622" lon="-0.34707">
        <ele>1465.3</ele>
        <time>2026-02-07T11:55:27.000Z</time>
      </trkpt>
      <trkpt lat="43.03622" lon="-0.34705">
        <ele>1465.7</ele>
        <time>2026-02-07T11:55:30.000Z</time>
      </trkpt>
      <trkpt lat="43.03622" lon="-0.34702">
        <ele>1466.1</ele>
        <time>2026-02-07T11:55:33.000Z</time>
      </trkpt>
      <trkpt lat="43.03622" lon="-0.347">
        <ele>1466.4</ele>
        <time>2026-02-07T11:55:36.000Z</time>
      </trkpt>
      <trkpt lat="43.03622" lon="-0.34697">
        <ele>1466.8</ele>
        <time>2026-02-07T11:55:39.000Z</time>
      </trkpt>
      <trkpt lat="43.03622" lon="-0.34695">
        <ele>1467.2</ele>
        <time>2026-02-07T11:55:42.000Z</time>
      </trkpt>
      <trkpt lat="43.03622" lon="-0.34693">
        <ele>1467.7</ele>
        <time>2026-02-07T11:55:45.000Z</time>
      </trkpt>
      <trkpt lat="43.03622" lon="-0.34691">
        <ele>1468.2</ele>
        <time>2026-02-07T11:55:48.000Z</time>
      </trkpt>
      <trkpt lat="43.03623" lon="-0.34689">
        <ele>1468.6</ele>
        <time>2026-02-07T11:55:51.000Z</time>
      </trkpt>
      <trkpt lat="43.03623" lon="-0.34687">
        <ele>1469</ele>
        <time>2026-02-07T11:55:54.000Z</time>
      </trkpt>
      <trkpt lat="43.03624" lon="-0.34685">
        <ele>1469.4</ele>
        <time>2026-02-07T11:55:57.000Z</time>
      </trkpt>
      <trkpt lat="43.03624" lon="-0.34683">
        <ele>1469.8</ele>
        <time>2026-02-07T11:56:00.000Z</time>
      </trkpt>
      <trkpt lat="43.03624" lon="-0.3468">
        <ele>1470.2</ele>
        <time>2026-02-07T11:56:03.000Z</time>
      </trkpt>
      <trkpt lat="43.03624" lon="-0.34678">
        <ele>1470.5</ele>
        <time>2026-02-07T11:56:06.000Z</time>
      </trkpt>
      <trkpt lat="43.03623" lon="-0.34676">
        <ele>1471</ele>
        <time>2026-02-07T11:56:09.000Z</time>
      </trkpt>
      <trkpt lat="43.03622" lon="-0.34673">
        <ele>1471.3</ele>
        <time>2026-02-07T11:56:12.000Z</time>
      </trkpt>
      <trkpt lat="43.03622" lon="-0.34671">
        <ele>1471.7</ele>
        <time>2026-02-07T11:56:15.000Z</time>
      </trkpt>
      <trkpt lat="43.03622" lon="-0.34669">
        <ele>1472.1</ele>
        <time>2026-02-07T11:56:18.000Z</time>
      </trkpt>
      <trkpt lat="43.03621" lon="-0.34667">
        <ele>1472.5</ele>
        <time>2026-02-07T11:56:21.000Z</time>
      </trkpt>
      <trkpt lat="43.03622" lon="-0.34664">
        <ele>1472.9</ele>
        <time>2026-02-07T11:56:24.000Z</time>
      </trkpt>
      <trkpt lat="43.03622" lon="-0.34662">
        <ele>1473.3</ele>
        <time>2026-02-07T11:56:27.000Z</time>
      </trkpt>
      <trkpt lat="43.03623" lon="-0.3466">
        <ele>1473.7</ele>
        <time>2026-02-07T11:56:30.000Z</time>
      </trkpt>
      <trkpt lat="43.03624" lon="-0.34657">
        <ele>1474.2</ele>
        <time>2026-02-07T11:56:33.000Z</time>
      </trkpt>
      <trkpt lat="43.03624" lon="-0.34655">
        <ele>1474.5</ele>
        <time>2026-02-07T11:56:36.000Z</time>
      </trkpt>
      <trkpt lat="43.03625" lon="-0.34653">
        <ele>1475</ele>
        <time>2026-02-07T11:56:39.000Z</time>
      </trkpt>
      <trkpt lat="43.03625" lon="-0.3465">
        <ele>1475.4</ele>
        <time>2026-02-07T11:56:42.000Z</time>
      </trkpt>
      <trkpt lat="43.03626" lon="-0.34647">
        <ele>1475.7</ele>
        <time>2026-02-07T11:56:45.000Z</time>
      </trkpt>
      <trkpt lat="43.03625" lon="-0.34644">
        <ele>1476.1</ele>
        <time>2026-02-07T11:56:48.000Z</time>
      </trkpt>
      <trkpt lat="43.03625" lon="-0.34641">
        <ele>1476.5</ele>
        <time>2026-02-07T11:56:51.000Z</time>
      </trkpt>
      <trkpt lat="43.03626" lon="-0.34639">
        <ele>1476.8</ele>
        <time>2026-02-07T11:56:54.000Z</time>
      </trkpt>
      <trkpt lat="43.03626" lon="-0.34636">
        <ele>1477.2</ele>
        <time>2026-02-07T11:56:57.000Z</time>
      </trkpt>
      <trkpt lat="43.03626" lon="-0.34634">
        <ele>1477.6</ele>
        <time>2026-02-07T11:57:00.000Z</time>
      </trkpt>
      <trkpt lat="43.03625" lon="-0.34631">
        <ele>1477.9</ele>
        <time>2026-02-07T11:57:03.000Z</time>
      </trkpt>
      <trkpt lat="43.03625" lon="-0.34629">
        <ele>1478.2</ele>
        <time>2026-02-07T11:57:06.000Z</time>
      </trkpt>
      <trkpt lat="43.03624" lon="-0.34626">
        <ele>1478.6</ele>
        <time>2026-02-07T11:57:09.000Z</time>
      </trkpt>
      <trkpt lat="43.03624" lon="-0.34624">
        <ele>1478.8</ele>
        <time>2026-02-07T11:57:12.000Z</time>
      </trkpt>
      <trkpt lat="43.03623" lon="-0.34622">
        <ele>1479</ele>
        <time>2026-02-07T11:57:15.000Z</time>
      </trkpt>
      <trkpt lat="43.03622" lon="-0.34622">
        <ele>1479.3</ele>
        <time>2026-02-07T11:57:18.000Z</time>
      </trkpt>
      <trkpt lat="43.0362" lon="-0.34621">
        <ele>1479.7</ele>
        <time>2026-02-07T11:57:21.000Z</time>
      </trkpt>
      <trkpt lat="43.03618" lon="-0.3462">
        <ele>1480</ele>
        <time>2026-02-07T11:57:24.000Z</time>
      </trkpt>
      <trkpt lat="43.03617" lon="-0.34618">
        <ele>1480.5</ele>
        <time>2026-02-07T11:57:27.000Z</time>
      </trkpt>
      <trkpt lat="43.03615" lon="-0.34616">
        <ele>1480.9</ele>
        <time>2026-02-07T11:57:30.000Z</time>
      </trkpt>
      <trkpt lat="43.03613" lon="-0.34614">
        <ele>1481.3</ele>
        <time>2026-02-07T11:57:33.000Z</time>
      </trkpt>
      <trkpt lat="43.03612" lon="-0.34612">
        <ele>1481.6</ele>
        <time>2026-02-07T11:57:36.000Z</time>
      </trkpt>
      <trkpt lat="43.03611" lon="-0.3461">
        <ele>1481.9</ele>
        <time>2026-02-07T11:57:39.000Z</time>
      </trkpt>
      <trkpt lat="43.0361" lon="-0.34609">
        <ele>1482.2</ele>
        <time>2026-02-07T11:57:42.000Z</time>
      </trkpt>
      <trkpt lat="43.03609" lon="-0.34608">
        <ele>1482.5</ele>
        <time>2026-02-07T11:57:45.000Z</time>
      </trkpt>
      <trkpt lat="43.0361" lon="-0.34608">
        <ele>1482.8</ele>
        <time>2026-02-07T11:57:48.000Z</time>
      </trkpt>
      <trkpt lat="43.0361" lon="-0.34608">
        <ele>1482.9</ele>
        <time>2026-02-07T11:57:49.000Z</time>
      </trkpt>
      <trkpt lat="43.0361" lon="-0.34609">
        <ele>1483</ele>
        <time>2026-02-07T11:57:52.000Z</time>
      </trkpt>
      <trkpt lat="43.0361" lon="-0.34608">
        <ele>1483.1</ele>
        <time>2026-02-07T11:57:55.000Z</time>
      </trkpt>
      <trkpt lat="43.0361" lon="-0.34608">
        <ele>1483.1</ele>
        <time>2026-02-07T11:57:58.000Z</time>
      </trkpt>
      <trkpt lat="43.0361" lon="-0.34608">
        <ele>1483.1</ele>
        <time>2026-02-07T11:58:01.000Z</time>
      </trkpt>
      <trkpt lat="43.0361" lon="-0.34608">
        <ele>1483.2</ele>
        <time>2026-02-07T11:58:04.000Z</time>
      </trkpt>
      <trkpt lat="43.0361" lon="-0.34608">
        <ele>1483.2</ele>
        <time>2026-02-07T11:58:07.000Z</time>
      </trkpt>
      <trkpt lat="43.0361" lon="-0.34608">
        <ele>1483.3</ele>
        <time>2026-02-07T11:58:10.000Z</time>
      </trkpt>
      <trkpt lat="43.0361" lon="-0.34608">
        <ele>1483.3</ele>
        <time>2026-02-07T11:58:13.000Z</time>
      </trkpt>
      <trkpt lat="43.0361" lon="-0.34608">
        <ele>1483.3</ele>
        <time>2026-02-07T11:58:16.000Z</time>
      </trkpt>
      <trkpt lat="43.0361" lon="-0.34608">
        <ele>1483.3</ele>
        <time>2026-02-07T11:58:19.000Z</time>
      </trkpt>
      <trkpt lat="43.03611" lon="-0.34609">
        <ele>1483.4</ele>
        <time>2026-02-07T11:58:22.000Z</time>
      </trkpt>
      <trkpt lat="43.03611" lon="-0.34609">
        <ele>1483.4</ele>
        <time>2026-02-07T11:58:23.000Z</time>
      </trkpt>
      <trkpt lat="43.03611" lon="-0.34609">
        <ele>1483.5</ele>
        <time>2026-02-07T11:58:24.000Z</time>
      </trkpt>
      <trkpt lat="43.03611" lon="-0.3461">
        <ele>1483.5</ele>
        <time>2026-02-07T11:58:27.000Z</time>
      </trkpt>
      <trkpt lat="43.03611" lon="-0.3461">
        <ele>1483.6</ele>
        <time>2026-02-07T11:58:30.000Z</time>
      </trkpt>
      <trkpt lat="43.03611" lon="-0.3461">
        <ele>1483.7</ele>
        <time>2026-02-07T11:58:31.000Z</time>
      </trkpt>
      <trkpt lat="43.03611" lon="-0.3461">
        <ele>1483.7</ele>
        <time>2026-02-07T11:58:32.000Z</time>
      </trkpt>
      <trkpt lat="43.03611" lon="-0.3461">
        <ele>1483.7</ele>
        <time>2026-02-07T11:58:35.000Z</time>
      </trkpt>
      <trkpt lat="43.03612" lon="-0.3461">
        <ele>1483.7</ele>
        <time>2026-02-07T11:58:37.000Z</time>
      </trkpt>
      <trkpt lat="43.03612" lon="-0.3461">
        <ele>1483.7</ele>
        <time>2026-02-07T11:58:38.000Z</time>
      </trkpt>
      <trkpt lat="43.03612" lon="-0.3461">
        <ele>1483.8</ele>
        <time>2026-02-07T11:58:39.000Z</time>
      </trkpt>
      <trkpt lat="43.03612" lon="-0.3461">
        <ele>1483.8</ele>
        <time>2026-02-07T11:58:40.000Z</time>
      </trkpt>
      <trkpt lat="43.03612" lon="-0.3461">
        <ele>1483.8</ele>
        <time>2026-02-07T11:58:41.000Z</time>
      </trkpt>
      <trkpt lat="43.03612" lon="-0.3461">
        <ele>1483.8</ele>
        <time>2026-02-07T11:58:42.000Z</time>
      </trkpt>
      <trkpt lat="43.03612" lon="-0.3461">
        <ele>1483.8</ele>
        <time>2026-02-07T11:58:45.000Z</time>
      </trkpt>
      <trkpt lat="43.03612" lon="-0.3461">
        <ele>1483.8</ele>
        <time>2026-02-07T11:58:48.000Z</time>
      </trkpt>
      <trkpt lat="43.03612" lon="-0.3461">
        <ele>1483.9</ele>
        <time>2026-02-07T11:58:51.000Z</time>
      </trkpt>
      <trkpt lat="43.03612" lon="-0.3461">
        <ele>1483.9</ele>
        <time>2026-02-07T11:58:54.000Z</time>
      </trkpt>
      <trkpt lat="43.03612" lon="-0.34609">
        <ele>1483.8</ele>
        <time>2026-02-07T11:58:57.000Z</time>
      </trkpt>
      <trkpt lat="43.03612" lon="-0.34608">
        <ele>1483.8</ele>
        <time>2026-02-07T11:58:58.000Z</time>
      </trkpt>
      <trkpt lat="43.03612" lon="-0.34608">
        <ele>1483.8</ele>
        <time>2026-02-07T11:58:59.000Z</time>
      </trkpt>
      <trkpt lat="43.03611" lon="-0.34607">
        <ele>1483.8</ele>
        <time>2026-02-07T11:59:02.000Z</time>
      </trkpt>
      <trkpt lat="43.03609" lon="-0.34604">
        <ele>1483.8</ele>
        <time>2026-02-07T11:59:05.000Z</time>
      </trkpt>
      <trkpt lat="43.03608" lon="-0.34601">
        <ele>1483.8</ele>
        <time>2026-02-07T11:59:08.000Z</time>
      </trkpt>
      <trkpt lat="43.03607" lon="-0.34598">
        <ele>1483.9</ele>
        <time>2026-02-07T11:59:11.000Z</time>
      </trkpt>
      <trkpt lat="43.03606" lon="-0.34594">
        <ele>1484</ele>
        <time>2026-02-07T11:59:14.000Z</time>
      </trkpt>
      <trkpt lat="43.03606" lon="-0.34591">
        <ele>1484.1</ele>
        <time>2026-02-07T11:59:17.000Z</time>
      </trkpt>
      <trkpt lat="43.03606" lon="-0.34587">
        <ele>1484.2</ele>
        <time>2026-02-07T11:59:20.000Z</time>
      </trkpt>
      <trkpt lat="43.03606" lon="-0.34583">
        <ele>1484.4</ele>
        <time>2026-02-07T11:59:23.000Z</time>
      </trkpt>
      <trkpt lat="43.03606" lon="-0.3458">
        <ele>1484.6</ele>
        <time>2026-02-07T11:59:26.000Z</time>
      </trkpt>
      <trkpt lat="43.03606" lon="-0.34577">
        <ele>1484.8</ele>
        <time>2026-02-07T11:59:29.000Z</time>
      </trkpt>
      <trkpt lat="43.03605" lon="-0.34573">
        <ele>1485.1</ele>
        <time>2026-02-07T11:59:32.000Z</time>
      </trkpt>
      <trkpt lat="43.03606" lon="-0.3457">
        <ele>1485.4</ele>
        <time>2026-02-07T11:59:35.000Z</time>
      </trkpt>
      <trkpt lat="43.03605" lon="-0.34566">
        <ele>1485.7</ele>
        <time>2026-02-07T11:59:38.000Z</time>
      </trkpt>
      <trkpt lat="43.03605" lon="-0.34562">
        <ele>1486</ele>
        <time>2026-02-07T11:59:41.000Z</time>
      </trkpt>
      <trkpt lat="43.03605" lon="-0.34558">
        <ele>1486.2</ele>
        <time>2026-02-07T11:59:44.000Z</time>
      </trkpt>
      <trkpt lat="43.03605" lon="-0.34555">
        <ele>1486.5</ele>
        <time>2026-02-07T11:59:47.000Z</time>
      </trkpt>
      <trkpt lat="43.03605" lon="-0.34551">
        <ele>1486.8</ele>
        <time>2026-02-07T11:59:50.000Z</time>
      </trkpt>
      <trkpt lat="43.03604" lon="-0.34548">
        <ele>1487</ele>
        <time>2026-02-07T11:59:53.000Z</time>
      </trkpt>
      <trkpt lat="43.03604" lon="-0.34545">
        <ele>1487.3</ele>
        <time>2026-02-07T11:59:56.000Z</time>
      </trkpt>
      <trkpt lat="43.03603" lon="-0.34541">
        <ele>1487.5</ele>
        <time>2026-02-07T11:59:59.000Z</time>
      </trkpt>
      <trkpt lat="43.03602" lon="-0.34537">
        <ele>1487.8</ele>
        <time>2026-02-07T12:00:02.000Z</time>
      </trkpt>
      <trkpt lat="43.03601" lon="-0.34534">
        <ele>1488.1</ele>
        <time>2026-02-07T12:00:05.000Z</time>
      </trkpt>
      <trkpt lat="43.036" lon="-0.3453">
        <ele>1488.4</ele>
        <time>2026-02-07T12:00:08.000Z</time>
      </trkpt>
      <trkpt lat="43.03599" lon="-0.34527">
        <ele>1488.7</ele>
        <time>2026-02-07T12:00:11.000Z</time>
      </trkpt>
      <trkpt lat="43.03599" lon="-0.34524">
        <ele>1489</ele>
        <time>2026-02-07T12:00:14.000Z</time>
      </trkpt>
      <trkpt lat="43.03598" lon="-0.34521">
        <ele>1489.2</ele>
        <time>2026-02-07T12:00:17.000Z</time>
      </trkpt>
      <trkpt lat="43.03597" lon="-0.34518">
        <ele>1489.4</ele>
        <time>2026-02-07T12:00:20.000Z</time>
      </trkpt>
      <trkpt lat="43.03596" lon="-0.34515">
        <ele>1489.8</ele>
        <time>2026-02-07T12:00:23.000Z</time>
      </trkpt>
      <trkpt lat="43.03596" lon="-0.34511">
        <ele>1490</ele>
        <time>2026-02-07T12:00:26.000Z</time>
      </trkpt>
      <trkpt lat="43.03595" lon="-0.34508">
        <ele>1490.3</ele>
        <time>2026-02-07T12:00:29.000Z</time>
      </trkpt>
      <trkpt lat="43.03593" lon="-0.34504">
        <ele>1490.5</ele>
        <time>2026-02-07T12:00:32.000Z</time>
      </trkpt>
      <trkpt lat="43.03593" lon="-0.34501">
        <ele>1490.8</ele>
        <time>2026-02-07T12:00:35.000Z</time>
      </trkpt>
      <trkpt lat="43.03592" lon="-0.34498">
        <ele>1491</ele>
        <time>2026-02-07T12:00:38.000Z</time>
      </trkpt>
      <trkpt lat="43.03591" lon="-0.34495">
        <ele>1491.2</ele>
        <time>2026-02-07T12:00:41.000Z</time>
      </trkpt>
      <trkpt lat="43.03591" lon="-0.34491">
        <ele>1491.4</ele>
        <time>2026-02-07T12:00:44.000Z</time>
      </trkpt>
      <trkpt lat="43.03591" lon="-0.34488">
        <ele>1491.5</ele>
        <time>2026-02-07T12:00:47.000Z</time>
      </trkpt>
      <trkpt lat="43.0359" lon="-0.34485">
        <ele>1491.7</ele>
        <time>2026-02-07T12:00:50.000Z</time>
      </trkpt>
      <trkpt lat="43.03589" lon="-0.34482">
        <ele>1491.8</ele>
        <time>2026-02-07T12:00:53.000Z</time>
      </trkpt>
      <trkpt lat="43.03588" lon="-0.34478">
        <ele>1492.1</ele>
        <time>2026-02-07T12:00:56.000Z</time>
      </trkpt>
      <trkpt lat="43.03587" lon="-0.34476">
        <ele>1492.4</ele>
        <time>2026-02-07T12:00:59.000Z</time>
      </trkpt>
      <trkpt lat="43.03586" lon="-0.34473">
        <ele>1492.7</ele>
        <time>2026-02-07T12:01:02.000Z</time>
      </trkpt>
      <trkpt lat="43.03584" lon="-0.34471">
        <ele>1493.1</ele>
        <time>2026-02-07T12:01:05.000Z</time>
      </trkpt>
      <trkpt lat="43.03584" lon="-0.3447">
        <ele>1493.5</ele>
        <time>2026-02-07T12:01:08.000Z</time>
      </trkpt>
      <trkpt lat="43.03584" lon="-0.34469">
        <ele>1493.7</ele>
        <time>2026-02-07T12:01:10.000Z</time>
      </trkpt>
      <trkpt lat="43.03584" lon="-0.34469">
        <ele>1493.7</ele>
        <time>2026-02-07T12:01:11.000Z</time>
      </trkpt>
      <trkpt lat="43.03584" lon="-0.34469">
        <ele>1493.8</ele>
        <time>2026-02-07T12:01:12.000Z</time>
      </trkpt>
      <trkpt lat="43.03584" lon="-0.34469">
        <ele>1494</ele>
        <time>2026-02-07T12:01:15.000Z</time>
      </trkpt>
      <trkpt lat="43.03584" lon="-0.34469">
        <ele>1494.1</ele>
        <time>2026-02-07T12:01:18.000Z</time>
      </trkpt>
      <trkpt lat="43.03584" lon="-0.34469">
        <ele>1494.2</ele>
        <time>2026-02-07T12:01:21.000Z</time>
      </trkpt>
      <trkpt lat="43.03584" lon="-0.34469">
        <ele>1494.2</ele>
        <time>2026-02-07T12:01:22.000Z</time>
      </trkpt>
      <trkpt lat="43.03584" lon="-0.34469">
        <ele>1494.3</ele>
        <time>2026-02-07T12:01:23.000Z</time>
      </trkpt>
      <trkpt lat="43.03584" lon="-0.34469">
        <ele>1494.3</ele>
        <time>2026-02-07T12:01:24.000Z</time>
      </trkpt>
      <trkpt lat="43.03584" lon="-0.34469">
        <ele>1494.3</ele>
        <time>2026-02-07T12:01:25.000Z</time>
      </trkpt>
      <trkpt lat="43.03584" lon="-0.34469">
        <ele>1494.3</ele>
        <time>2026-02-07T12:01:26.000Z</time>
      </trkpt>
      <trkpt lat="43.03584" lon="-0.34469">
        <ele>1494.3</ele>
        <time>2026-02-07T12:01:29.000Z</time>
      </trkpt>
      <trkpt lat="43.03584" lon="-0.34469">
        <ele>1494.4</ele>
        <time>2026-02-07T12:01:32.000Z</time>
      </trkpt>
      <trkpt lat="43.03584" lon="-0.34469">
        <ele>1494.4</ele>
        <time>2026-02-07T12:01:33.000Z</time>
      </trkpt>
      <trkpt lat="43.03584" lon="-0.34469">
        <ele>1494.4</ele>
        <time>2026-02-07T12:01:34.000Z</time>
      </trkpt>
      <trkpt lat="43.03584" lon="-0.34469">
        <ele>1494.4</ele>
        <time>2026-02-07T12:01:35.000Z</time>
      </trkpt>
      <trkpt lat="43.03584" lon="-0.34469">
        <ele>1494.4</ele>
        <time>2026-02-07T12:01:36.000Z</time>
      </trkpt>
      <trkpt lat="43.03584" lon="-0.34469">
        <ele>1494.4</ele>
        <time>2026-02-07T12:01:39.000Z</time>
      </trkpt>
      <trkpt lat="43.03585" lon="-0.34469">
        <ele>1494.4</ele>
        <time>2026-02-07T12:01:42.000Z</time>
      </trkpt>
      <trkpt lat="43.03585" lon="-0.34469">
        <ele>1494.4</ele>
        <time>2026-02-07T12:01:45.000Z</time>
      </trkpt>
      <trkpt lat="43.03585" lon="-0.34469">
        <ele>1494.4</ele>
        <time>2026-02-07T12:01:48.000Z</time>
      </trkpt>
      <trkpt lat="43.03585" lon="-0.34469">
        <ele>1494.4</ele>
        <time>2026-02-07T12:01:51.000Z</time>
      </trkpt>
      <trkpt lat="43.03585" lon="-0.34469">
        <ele>1494.4</ele>
        <time>2026-02-07T12:01:54.000Z</time>
      </trkpt>
      <trkpt lat="43.03585" lon="-0.34469">
        <ele>1494.4</ele>
        <time>2026-02-07T12:01:57.000Z</time>
      </trkpt>
      <trkpt lat="43.03584" lon="-0.34469">
        <ele>1494.4</ele>
        <time>2026-02-07T12:02:00.000Z</time>
      </trkpt>
      <trkpt lat="43.03584" lon="-0.34468">
        <ele>1494.3</ele>
        <time>2026-02-07T12:02:02.000Z</time>
      </trkpt>
      <trkpt lat="43.03584" lon="-0.34467">
        <ele>1494.4</ele>
        <time>2026-02-07T12:02:03.000Z</time>
      </trkpt>
      <trkpt lat="43.03584" lon="-0.34466">
        <ele>1494.4</ele>
        <time>2026-02-07T12:02:06.000Z</time>
      </trkpt>
      <trkpt lat="43.03583" lon="-0.34465">
        <ele>1494.4</ele>
        <time>2026-02-07T12:02:09.000Z</time>
      </trkpt>
      <trkpt lat="43.03583" lon="-0.34465">
        <ele>1494.4</ele>
        <time>2026-02-07T12:02:12.000Z</time>
      </trkpt>
      <trkpt lat="43.03583" lon="-0.34465">
        <ele>1494.4</ele>
        <time>2026-02-07T12:02:14.000Z</time>
      </trkpt>
      <trkpt lat="43.03583" lon="-0.34465">
        <ele>1494.4</ele>
        <time>2026-02-07T12:02:15.000Z</time>
      </trkpt>
      <trkpt lat="43.03583" lon="-0.34465">
        <ele>1494.4</ele>
        <time>2026-02-07T12:02:16.000Z</time>
      </trkpt>
      <trkpt lat="43.03583" lon="-0.34465">
        <ele>1494.4</ele>
        <time>2026-02-07T12:02:19.000Z</time>
      </trkpt>
      <trkpt lat="43.03583" lon="-0.34465">
        <ele>1494.4</ele>
        <time>2026-02-07T12:02:22.000Z</time>
      </trkpt>
      <trkpt lat="43.03583" lon="-0.34465">
        <ele>1494.4</ele>
        <time>2026-02-07T12:02:25.000Z</time>
      </trkpt>
      <trkpt lat="43.03583" lon="-0.34465">
        <ele>1494.4</ele>
        <time>2026-02-07T12:02:28.000Z</time>
      </trkpt>
      <trkpt lat="43.03583" lon="-0.34465">
        <ele>1494.4</ele>
        <time>2026-02-07T12:02:31.000Z</time>
      </trkpt>
      <trkpt lat="43.03583" lon="-0.34465">
        <ele>1494.4</ele>
        <time>2026-02-07T12:02:34.000Z</time>
      </trkpt>
      <trkpt lat="43.03583" lon="-0.34465">
        <ele>1494.4</ele>
        <time>2026-02-07T12:02:37.000Z</time>
      </trkpt>
      <trkpt lat="43.03583" lon="-0.34465">
        <ele>1494.4</ele>
        <time>2026-02-07T12:02:40.000Z</time>
      </trkpt>
      <trkpt lat="43.03583" lon="-0.34465">
        <ele>1494.4</ele>
        <time>2026-02-07T12:02:43.000Z</time>
      </trkpt>
      <trkpt lat="43.03583" lon="-0.34465">
        <ele>1494.4</ele>
        <time>2026-02-07T12:02:46.000Z</time>
      </trkpt>
      <trkpt lat="43.03583" lon="-0.34465">
        <ele>1494.4</ele>
        <time>2026-02-07T12:02:47.000Z</time>
      </trkpt>
      <trkpt lat="43.03583" lon="-0.34465">
        <ele>1494.4</ele>
        <time>2026-02-07T12:02:48.000Z</time>
      </trkpt>
      <trkpt lat="43.03583" lon="-0.34465">
        <ele>1494.4</ele>
        <time>2026-02-07T12:02:49.000Z</time>
      </trkpt>
      <trkpt lat="43.03583" lon="-0.34465">
        <ele>1494.4</ele>
        <time>2026-02-07T12:02:50.000Z</time>
      </trkpt>
      <trkpt lat="43.03583" lon="-0.34465">
        <ele>1494.4</ele>
        <time>2026-02-07T12:02:51.000Z</time>
      </trkpt>
      <trkpt lat="43.03583" lon="-0.34465">
        <ele>1494.4</ele>
        <time>2026-02-07T12:02:52.000Z</time>
      </trkpt>
      <trkpt lat="43.03583" lon="-0.34465">
        <ele>1494.4</ele>
        <time>2026-02-07T12:02:53.000Z</time>
      </trkpt>
      <trkpt lat="43.03583" lon="-0.34465">
        <ele>1494.4</ele>
        <time>2026-02-07T12:02:54.000Z</time>
      </trkpt>
      <trkpt lat="43.03583" lon="-0.34465">
        <ele>1494.4</ele>
        <time>2026-02-07T12:02:57.000Z</time>
      </trkpt>
      <trkpt lat="43.03583" lon="-0.34466">
        <ele>1494.4</ele>
        <time>2026-02-07T12:02:58.000Z</time>
      </trkpt>
      <trkpt lat="43.03583" lon="-0.34466">
        <ele>1494.4</ele>
        <time>2026-02-07T12:03:01.000Z</time>
      </trkpt>
      <trkpt lat="43.03583" lon="-0.34466">
        <ele>1494.4</ele>
        <time>2026-02-07T12:03:04.000Z</time>
      </trkpt>
      <trkpt lat="43.03583" lon="-0.34466">
        <ele>1494.4</ele>
        <time>2026-02-07T12:03:07.000Z</time>
      </trkpt>
      <trkpt lat="43.03583" lon="-0.34466">
        <ele>1494.4</ele>
        <time>2026-02-07T12:03:10.000Z</time>
      </trkpt>
      <trkpt lat="43.03583" lon="-0.34465">
        <ele>1494.4</ele>
        <time>2026-02-07T12:03:12.000Z</time>
      </trkpt>
      <trkpt lat="43.03583" lon="-0.34465">
        <ele>1494.4</ele>
        <time>2026-02-07T12:03:13.000Z</time>
      </trkpt>
      <trkpt lat="43.03583" lon="-0.34465">
        <ele>1494.4</ele>
        <time>2026-02-07T12:03:16.000Z</time>
      </trkpt>
      <trkpt lat="43.03583" lon="-0.34465">
        <ele>1494.4</ele>
        <time>2026-02-07T12:03:17.000Z</time>
      </trkpt>
      <trkpt lat="43.03583" lon="-0.34465">
        <ele>1494.4</ele>
        <time>2026-02-07T12:03:18.000Z</time>
      </trkpt>
      <trkpt lat="43.03583" lon="-0.34465">
        <ele>1494.4</ele>
        <time>2026-02-07T12:03:21.000Z</time>
      </trkpt>
      <trkpt lat="43.03582" lon="-0.34465">
        <ele>1494.4</ele>
        <time>2026-02-07T12:03:24.000Z</time>
      </trkpt>
      <trkpt lat="43.03583" lon="-0.34465">
        <ele>1494.5</ele>
        <time>2026-02-07T12:03:27.000Z</time>
      </trkpt>
      <trkpt lat="43.03583" lon="-0.34465">
        <ele>1494.4</ele>
        <time>2026-02-07T12:03:30.000Z</time>
      </trkpt>
      <trkpt lat="43.03582" lon="-0.34462">
        <ele>1494.5</ele>
        <time>2026-02-07T12:03:33.000Z</time>
      </trkpt>
      <trkpt lat="43.03583" lon="-0.34461">
        <ele>1494.5</ele>
        <time>2026-02-07T12:03:34.000Z</time>
      </trkpt>
      <trkpt lat="43.03584" lon="-0.34459">
        <ele>1494.5</ele>
        <time>2026-02-07T12:03:37.000Z</time>
      </trkpt>
      <trkpt lat="43.03585" lon="-0.34456">
        <ele>1494.6</ele>
        <time>2026-02-07T12:03:40.000Z</time>
      </trkpt>
      <trkpt lat="43.03586" lon="-0.34453">
        <ele>1494.6</ele>
        <time>2026-02-07T12:03:43.000Z</time>
      </trkpt>
      <trkpt lat="43.03586" lon="-0.34449">
        <ele>1494.7</ele>
        <time>2026-02-07T12:03:46.000Z</time>
      </trkpt>
      <trkpt lat="43.03587" lon="-0.34447">
        <ele>1494.8</ele>
        <time>2026-02-07T12:03:49.000Z</time>
      </trkpt>
      <trkpt lat="43.03587" lon="-0.34447">
        <ele>1494.9</ele>
        <time>2026-02-07T12:03:52.000Z</time>
      </trkpt>
      <trkpt lat="43.03587" lon="-0.34447">
        <ele>1495</ele>
        <time>2026-02-07T12:03:53.000Z</time>
      </trkpt>
      <trkpt lat="43.03587" lon="-0.34445">
        <ele>1495.1</ele>
        <time>2026-02-07T12:03:56.000Z</time>
      </trkpt>
      <trkpt lat="43.03588" lon="-0.34444">
        <ele>1495.2</ele>
        <time>2026-02-07T12:03:57.000Z</time>
      </trkpt>
      <trkpt lat="43.03588" lon="-0.34443">
        <ele>1495.2</ele>
        <time>2026-02-07T12:03:58.000Z</time>
      </trkpt>
      <trkpt lat="43.03589" lon="-0.34442">
        <ele>1495.3</ele>
        <time>2026-02-07T12:03:59.000Z</time>
      </trkpt>
      <trkpt lat="43.03589" lon="-0.34439">
        <ele>1495.4</ele>
        <time>2026-02-07T12:04:02.000Z</time>
      </trkpt>
      <trkpt lat="43.03589" lon="-0.34435">
        <ele>1495.6</ele>
        <time>2026-02-07T12:04:05.000Z</time>
      </trkpt>
      <trkpt lat="43.0359" lon="-0.34432">
        <ele>1495.7</ele>
        <time>2026-02-07T12:04:08.000Z</time>
      </trkpt>
      <trkpt lat="43.0359" lon="-0.34429">
        <ele>1495.9</ele>
        <time>2026-02-07T12:04:11.000Z</time>
      </trkpt>
      <trkpt lat="43.0359" lon="-0.34425">
        <ele>1496.1</ele>
        <time>2026-02-07T12:04:14.000Z</time>
      </trkpt>
      <trkpt lat="43.0359" lon="-0.34422">
        <ele>1496.3</ele>
        <time>2026-02-07T12:04:17.000Z</time>
      </trkpt>
      <trkpt lat="43.03591" lon="-0.34419">
        <ele>1496.6</ele>
        <time>2026-02-07T12:04:20.000Z</time>
      </trkpt>
      <trkpt lat="43.03592" lon="-0.34416">
        <ele>1496.8</ele>
        <time>2026-02-07T12:04:23.000Z</time>
      </trkpt>
      <trkpt lat="43.03593" lon="-0.34413">
        <ele>1497</ele>
        <time>2026-02-07T12:04:26.000Z</time>
      </trkpt>
      <trkpt lat="43.03593" lon="-0.3441">
        <ele>1497.3</ele>
        <time>2026-02-07T12:04:29.000Z</time>
      </trkpt>
      <trkpt lat="43.03594" lon="-0.34406">
        <ele>1497.5</ele>
        <time>2026-02-07T12:04:32.000Z</time>
      </trkpt>
      <trkpt lat="43.03594" lon="-0.34403">
        <ele>1497.7</ele>
        <time>2026-02-07T12:04:35.000Z</time>
      </trkpt>
      <trkpt lat="43.03594" lon="-0.344">
        <ele>1497.9</ele>
        <time>2026-02-07T12:04:38.000Z</time>
      </trkpt>
      <trkpt lat="43.03595" lon="-0.34397">
        <ele>1498</ele>
        <time>2026-02-07T12:04:41.000Z</time>
      </trkpt>
      <trkpt lat="43.03595" lon="-0.34394">
        <ele>1498.2</ele>
        <time>2026-02-07T12:04:44.000Z</time>
      </trkpt>
      <trkpt lat="43.03595" lon="-0.34391">
        <ele>1498.3</ele>
        <time>2026-02-07T12:04:47.000Z</time>
      </trkpt>
      <trkpt lat="43.03595" lon="-0.34388">
        <ele>1498.5</ele>
        <time>2026-02-07T12:04:50.000Z</time>
      </trkpt>
      <trkpt lat="43.03595" lon="-0.34386">
        <ele>1498.7</ele>
        <time>2026-02-07T12:04:53.000Z</time>
      </trkpt>
      <trkpt lat="43.03595" lon="-0.34382">
        <ele>1499</ele>
        <time>2026-02-07T12:04:56.000Z</time>
      </trkpt>
      <trkpt lat="43.03595" lon="-0.34379">
        <ele>1499.3</ele>
        <time>2026-02-07T12:04:59.000Z</time>
      </trkpt>
      <trkpt lat="43.03595" lon="-0.34376">
        <ele>1499.6</ele>
        <time>2026-02-07T12:05:02.000Z</time>
      </trkpt>
      <trkpt lat="43.03595" lon="-0.34373">
        <ele>1499.8</ele>
        <time>2026-02-07T12:05:05.000Z</time>
      </trkpt>
      <trkpt lat="43.03595" lon="-0.34369">
        <ele>1500.1</ele>
        <time>2026-02-07T12:05:08.000Z</time>
      </trkpt>
      <trkpt lat="43.03595" lon="-0.34366">
        <ele>1500.3</ele>
        <time>2026-02-07T12:05:11.000Z</time>
      </trkpt>
      <trkpt lat="43.03595" lon="-0.34363">
        <ele>1500.4</ele>
        <time>2026-02-07T12:05:14.000Z</time>
      </trkpt>
      <trkpt lat="43.03595" lon="-0.3436">
        <ele>1500.5</ele>
        <time>2026-02-07T12:05:17.000Z</time>
      </trkpt>
      <trkpt lat="43.03594" lon="-0.34356">
        <ele>1500.6</ele>
        <time>2026-02-07T12:05:20.000Z</time>
      </trkpt>
      <trkpt lat="43.03595" lon="-0.34353">
        <ele>1500.8</ele>
        <time>2026-02-07T12:05:23.000Z</time>
      </trkpt>
      <trkpt lat="43.03595" lon="-0.34349">
        <ele>1501</ele>
        <time>2026-02-07T12:05:26.000Z</time>
      </trkpt>
      <trkpt lat="43.03594" lon="-0.34346">
        <ele>1501.1</ele>
        <time>2026-02-07T12:05:29.000Z</time>
      </trkpt>
      <trkpt lat="43.03595" lon="-0.34343">
        <ele>1501.2</ele>
        <time>2026-02-07T12:05:32.000Z</time>
      </trkpt>
      <trkpt lat="43.03595" lon="-0.34339">
        <ele>1501.3</ele>
        <time>2026-02-07T12:05:35.000Z</time>
      </trkpt>
      <trkpt lat="43.03594" lon="-0.34335">
        <ele>1501.4</ele>
        <time>2026-02-07T12:05:38.000Z</time>
      </trkpt>
      <trkpt lat="43.03593" lon="-0.34331">
        <ele>1501.6</ele>
        <time>2026-02-07T12:05:41.000Z</time>
      </trkpt>
      <trkpt lat="43.03592" lon="-0.34328">
        <ele>1501.7</ele>
        <time>2026-02-07T12:05:44.000Z</time>
      </trkpt>
      <trkpt lat="43.03591" lon="-0.34324">
        <ele>1501.9</ele>
        <time>2026-02-07T12:05:47.000Z</time>
      </trkpt>
      <trkpt lat="43.03591" lon="-0.34321">
        <ele>1502</ele>
        <time>2026-02-07T12:05:50.000Z</time>
      </trkpt>
      <trkpt lat="43.03591" lon="-0.34317">
        <ele>1502.1</ele>
        <time>2026-02-07T12:05:53.000Z</time>
      </trkpt>
      <trkpt lat="43.0359" lon="-0.34313">
        <ele>1502.2</ele>
        <time>2026-02-07T12:05:56.000Z</time>
      </trkpt>
      <trkpt lat="43.03589" lon="-0.3431">
        <ele>1502.3</ele>
        <time>2026-02-07T12:05:59.000Z</time>
      </trkpt>
      <trkpt lat="43.03589" lon="-0.34307">
        <ele>1502.4</ele>
        <time>2026-02-07T12:06:02.000Z</time>
      </trkpt>
      <trkpt lat="43.03589" lon="-0.34304">
        <ele>1502.4</ele>
        <time>2026-02-07T12:06:05.000Z</time>
      </trkpt>
      <trkpt lat="43.03588" lon="-0.343">
        <ele>1502.6</ele>
        <time>2026-02-07T12:06:08.000Z</time>
      </trkpt>
      <trkpt lat="43.03588" lon="-0.34297">
        <ele>1502.7</ele>
        <time>2026-02-07T12:06:11.000Z</time>
      </trkpt>
      <trkpt lat="43.03588" lon="-0.34294">
        <ele>1502.8</ele>
        <time>2026-02-07T12:06:14.000Z</time>
      </trkpt>
      <trkpt lat="43.03588" lon="-0.3429">
        <ele>1502.8</ele>
        <time>2026-02-07T12:06:17.000Z</time>
      </trkpt>
      <trkpt lat="43.03588" lon="-0.34287">
        <ele>1502.9</ele>
        <time>2026-02-07T12:06:20.000Z</time>
      </trkpt>
      <trkpt lat="43.03588" lon="-0.34284">
        <ele>1503</ele>
        <time>2026-02-07T12:06:23.000Z</time>
      </trkpt>
      <trkpt lat="43.03588" lon="-0.3428">
        <ele>1503.1</ele>
        <time>2026-02-07T12:06:26.000Z</time>
      </trkpt>
      <trkpt lat="43.03587" lon="-0.34276">
        <ele>1503.1</ele>
        <time>2026-02-07T12:06:29.000Z</time>
      </trkpt>
      <trkpt lat="43.03587" lon="-0.34273">
        <ele>1503.2</ele>
        <time>2026-02-07T12:06:32.000Z</time>
      </trkpt>
      <trkpt lat="43.03586" lon="-0.3427">
        <ele>1503.2</ele>
        <time>2026-02-07T12:06:35.000Z</time>
      </trkpt>
      <trkpt lat="43.03585" lon="-0.34266">
        <ele>1503.3</ele>
        <time>2026-02-07T12:06:38.000Z</time>
      </trkpt>
      <trkpt lat="43.03584" lon="-0.34263">
        <ele>1503.3</ele>
        <time>2026-02-07T12:06:41.000Z</time>
      </trkpt>
      <trkpt lat="43.03584" lon="-0.34259">
        <ele>1503.4</ele>
        <time>2026-02-07T12:06:44.000Z</time>
      </trkpt>
      <trkpt lat="43.03584" lon="-0.34256">
        <ele>1503.4</ele>
        <time>2026-02-07T12:06:47.000Z</time>
      </trkpt>
      <trkpt lat="43.03584" lon="-0.34252">
        <ele>1503.5</ele>
        <time>2026-02-07T12:06:50.000Z</time>
      </trkpt>
      <trkpt lat="43.03583" lon="-0.34249">
        <ele>1503.6</ele>
        <time>2026-02-07T12:06:53.000Z</time>
      </trkpt>
      <trkpt lat="43.03583" lon="-0.34245">
        <ele>1503.7</ele>
        <time>2026-02-07T12:06:56.000Z</time>
      </trkpt>
      <trkpt lat="43.03583" lon="-0.34242">
        <ele>1503.8</ele>
        <time>2026-02-07T12:06:59.000Z</time>
      </trkpt>
      <trkpt lat="43.03583" lon="-0.34238">
        <ele>1503.9</ele>
        <time>2026-02-07T12:07:02.000Z</time>
      </trkpt>
      <trkpt lat="43.03583" lon="-0.34235">
        <ele>1504.1</ele>
        <time>2026-02-07T12:07:05.000Z</time>
      </trkpt>
      <trkpt lat="43.03584" lon="-0.34231">
        <ele>1504.2</ele>
        <time>2026-02-07T12:07:08.000Z</time>
      </trkpt>
      <trkpt lat="43.03585" lon="-0.34228">
        <ele>1504.4</ele>
        <time>2026-02-07T12:07:11.000Z</time>
      </trkpt>
      <trkpt lat="43.03586" lon="-0.34225">
        <ele>1504.6</ele>
        <time>2026-02-07T12:07:14.000Z</time>
      </trkpt>
      <trkpt lat="43.03586" lon="-0.34222">
        <ele>1504.7</ele>
        <time>2026-02-07T12:07:17.000Z</time>
      </trkpt>
      <trkpt lat="43.03587" lon="-0.34219">
        <ele>1504.9</ele>
        <time>2026-02-07T12:07:20.000Z</time>
      </trkpt>
      <trkpt lat="43.03587" lon="-0.34216">
        <ele>1505</ele>
        <time>2026-02-07T12:07:23.000Z</time>
      </trkpt>
      <trkpt lat="43.03587" lon="-0.34213">
        <ele>1505.1</ele>
        <time>2026-02-07T12:07:26.000Z</time>
      </trkpt>
      <trkpt lat="43.03588" lon="-0.34209">
        <ele>1505.3</ele>
        <time>2026-02-07T12:07:29.000Z</time>
      </trkpt>
      <trkpt lat="43.03588" lon="-0.34206">
        <ele>1505.4</ele>
        <time>2026-02-07T12:07:32.000Z</time>
      </trkpt>
      <trkpt lat="43.03589" lon="-0.34202">
        <ele>1505.5</ele>
        <time>2026-02-07T12:07:35.000Z</time>
      </trkpt>
      <trkpt lat="43.03589" lon="-0.342">
        <ele>1505.6</ele>
        <time>2026-02-07T12:07:38.000Z</time>
      </trkpt>
      <trkpt lat="43.03589" lon="-0.34196">
        <ele>1505.7</ele>
        <time>2026-02-07T12:07:41.000Z</time>
      </trkpt>
      <trkpt lat="43.03589" lon="-0.34193">
        <ele>1505.8</ele>
        <time>2026-02-07T12:07:44.000Z</time>
      </trkpt>
      <trkpt lat="43.03588" lon="-0.3419">
        <ele>1505.9</ele>
        <time>2026-02-07T12:07:47.000Z</time>
      </trkpt>
      <trkpt lat="43.03588" lon="-0.34187">
        <ele>1505.9</ele>
        <time>2026-02-07T12:07:50.000Z</time>
      </trkpt>
      <trkpt lat="43.03588" lon="-0.34183">
        <ele>1506</ele>
        <time>2026-02-07T12:07:53.000Z</time>
      </trkpt>
      <trkpt lat="43.03588" lon="-0.3418">
        <ele>1506.1</ele>
        <time>2026-02-07T12:07:56.000Z</time>
      </trkpt>
      <trkpt lat="43.03589" lon="-0.34177">
        <ele>1506.2</ele>
        <time>2026-02-07T12:07:59.000Z</time>
      </trkpt>
      <trkpt lat="43.03589" lon="-0.34173">
        <ele>1506.3</ele>
        <time>2026-02-07T12:08:02.000Z</time>
      </trkpt>
      <trkpt lat="43.0359" lon="-0.34169">
        <ele>1506.5</ele>
        <time>2026-02-07T12:08:05.000Z</time>
      </trkpt>
      <trkpt lat="43.0359" lon="-0.34166">
        <ele>1506.6</ele>
        <time>2026-02-07T12:08:08.000Z</time>
      </trkpt>
      <trkpt lat="43.03591" lon="-0.34162">
        <ele>1506.6</ele>
        <time>2026-02-07T12:08:11.000Z</time>
      </trkpt>
      <trkpt lat="43.03591" lon="-0.34159">
        <ele>1506.7</ele>
        <time>2026-02-07T12:08:14.000Z</time>
      </trkpt>
      <trkpt lat="43.03592" lon="-0.34156">
        <ele>1506.8</ele>
        <time>2026-02-07T12:08:17.000Z</time>
      </trkpt>
      <trkpt lat="43.03592" lon="-0.34153">
        <ele>1506.9</ele>
        <time>2026-02-07T12:08:20.000Z</time>
      </trkpt>
      <trkpt lat="43.03592" lon="-0.34149">
        <ele>1507</ele>
        <time>2026-02-07T12:08:23.000Z</time>
      </trkpt>
      <trkpt lat="43.03593" lon="-0.34146">
        <ele>1507.1</ele>
        <time>2026-02-07T12:08:26.000Z</time>
      </trkpt>
      <trkpt lat="43.03594" lon="-0.34143">
        <ele>1507.1</ele>
        <time>2026-02-07T12:08:29.000Z</time>
      </trkpt>
      <trkpt lat="43.03594" lon="-0.3414">
        <ele>1507.2</ele>
        <time>2026-02-07T12:08:32.000Z</time>
      </trkpt>
      <trkpt lat="43.03595" lon="-0.34136">
        <ele>1507.3</ele>
        <time>2026-02-07T12:08:35.000Z</time>
      </trkpt>
      <trkpt lat="43.03595" lon="-0.34133">
        <ele>1507.4</ele>
        <time>2026-02-07T12:08:38.000Z</time>
      </trkpt>
      <trkpt lat="43.03596" lon="-0.3413">
        <ele>1507.5</ele>
        <time>2026-02-07T12:08:41.000Z</time>
      </trkpt>
      <trkpt lat="43.03596" lon="-0.34127">
        <ele>1507.6</ele>
        <time>2026-02-07T12:08:44.000Z</time>
      </trkpt>
      <trkpt lat="43.03597" lon="-0.34124">
        <ele>1507.7</ele>
        <time>2026-02-07T12:08:47.000Z</time>
      </trkpt>
      <trkpt lat="43.03597" lon="-0.3412">
        <ele>1507.8</ele>
        <time>2026-02-07T12:08:50.000Z</time>
      </trkpt>
      <trkpt lat="43.03598" lon="-0.34117">
        <ele>1507.9</ele>
        <time>2026-02-07T12:08:53.000Z</time>
      </trkpt>
      <trkpt lat="43.03598" lon="-0.34114">
        <ele>1508</ele>
        <time>2026-02-07T12:08:56.000Z</time>
      </trkpt>
      <trkpt lat="43.03599" lon="-0.3411">
        <ele>1508.1</ele>
        <time>2026-02-07T12:08:59.000Z</time>
      </trkpt>
      <trkpt lat="43.036" lon="-0.34107">
        <ele>1508.2</ele>
        <time>2026-02-07T12:09:02.000Z</time>
      </trkpt>
      <trkpt lat="43.03601" lon="-0.34103">
        <ele>1508.3</ele>
        <time>2026-02-07T12:09:05.000Z</time>
      </trkpt>
      <trkpt lat="43.03601" lon="-0.34099">
        <ele>1508.4</ele>
        <time>2026-02-07T12:09:08.000Z</time>
      </trkpt>
      <trkpt lat="43.03602" lon="-0.34096">
        <ele>1508.5</ele>
        <time>2026-02-07T12:09:11.000Z</time>
      </trkpt>
      <trkpt lat="43.03602" lon="-0.34092">
        <ele>1508.5</ele>
        <time>2026-02-07T12:09:14.000Z</time>
      </trkpt>
      <trkpt lat="43.03603" lon="-0.34089">
        <ele>1508.6</ele>
        <time>2026-02-07T12:09:17.000Z</time>
      </trkpt>
      <trkpt lat="43.03603" lon="-0.34087">
        <ele>1508.6</ele>
        <time>2026-02-07T12:09:20.000Z</time>
      </trkpt>
      <trkpt lat="43.03604" lon="-0.34084">
        <ele>1508.7</ele>
        <time>2026-02-07T12:09:23.000Z</time>
      </trkpt>
      <trkpt lat="43.03604" lon="-0.3408">
        <ele>1508.8</ele>
        <time>2026-02-07T12:09:26.000Z</time>
      </trkpt>
      <trkpt lat="43.03605" lon="-0.34077">
        <ele>1508.8</ele>
        <time>2026-02-07T12:09:29.000Z</time>
      </trkpt>
      <trkpt lat="43.03606" lon="-0.34073">
        <ele>1508.8</ele>
        <time>2026-02-07T12:09:32.000Z</time>
      </trkpt>
      <trkpt lat="43.03606" lon="-0.34072">
        <ele>1508.9</ele>
        <time>2026-02-07T12:09:35.000Z</time>
      </trkpt>
      <trkpt lat="43.03606" lon="-0.34072">
        <ele>1509</ele>
        <time>2026-02-07T12:09:37.000Z</time>
      </trkpt>
      <trkpt lat="43.03606" lon="-0.34072">
        <ele>1509</ele>
        <time>2026-02-07T12:09:38.000Z</time>
      </trkpt>
      <trkpt lat="43.03606" lon="-0.34072">
        <ele>1509</ele>
        <time>2026-02-07T12:09:41.000Z</time>
      </trkpt>
      <trkpt lat="43.03606" lon="-0.34072">
        <ele>1509.1</ele>
        <time>2026-02-07T12:09:44.000Z</time>
      </trkpt>
      <trkpt lat="43.03606" lon="-0.34072">
        <ele>1509.2</ele>
        <time>2026-02-07T12:09:47.000Z</time>
      </trkpt>
      <trkpt lat="43.03606" lon="-0.34072">
        <ele>1509.3</ele>
        <time>2026-02-07T12:09:50.000Z</time>
      </trkpt>
      <trkpt lat="43.03606" lon="-0.34072">
        <ele>1509.3</ele>
        <time>2026-02-07T12:09:53.000Z</time>
      </trkpt>
      <trkpt lat="43.03607" lon="-0.34071">
        <ele>1509.4</ele>
        <time>2026-02-07T12:09:55.000Z</time>
      </trkpt>
      <trkpt lat="43.03608" lon="-0.3407">
        <ele>1509.4</ele>
        <time>2026-02-07T12:09:56.000Z</time>
      </trkpt>
      <trkpt lat="43.0361" lon="-0.34068">
        <ele>1509.4</ele>
        <time>2026-02-07T12:09:59.000Z</time>
      </trkpt>
      <trkpt lat="43.03613" lon="-0.34066">
        <ele>1509.5</ele>
        <time>2026-02-07T12:10:02.000Z</time>
      </trkpt>
      <trkpt lat="43.03616" lon="-0.34065">
        <ele>1509.5</ele>
        <time>2026-02-07T12:10:05.000Z</time>
      </trkpt>
      <trkpt lat="43.0362" lon="-0.34065">
        <ele>1509.5</ele>
        <time>2026-02-07T12:10:08.000Z</time>
      </trkpt>
      <trkpt lat="43.03623" lon="-0.34064">
        <ele>1509.6</ele>
        <time>2026-02-07T12:10:11.000Z</time>
      </trkpt>
      <trkpt lat="43.03626" lon="-0.34062">
        <ele>1509.6</ele>
        <time>2026-02-07T12:10:14.000Z</time>
      </trkpt>
      <trkpt lat="43.03629" lon="-0.34062">
        <ele>1509.5</ele>
        <time>2026-02-07T12:10:17.000Z</time>
      </trkpt>
      <trkpt lat="43.03631" lon="-0.34061">
        <ele>1509.5</ele>
        <time>2026-02-07T12:10:20.000Z</time>
      </trkpt>
      <trkpt lat="43.03634" lon="-0.34061">
        <ele>1509.4</ele>
        <time>2026-02-07T12:10:23.000Z</time>
      </trkpt>
      <trkpt lat="43.03635" lon="-0.34061">
        <ele>1509.2</ele>
        <time>2026-02-07T12:10:26.000Z</time>
      </trkpt>
      <trkpt lat="43.03635" lon="-0.34061">
        <ele>1509.1</ele>
        <time>2026-02-07T12:10:29.000Z</time>
      </trkpt>
      <trkpt lat="43.03635" lon="-0.34061">
        <ele>1509.1</ele>
        <time>2026-02-07T12:10:30.000Z</time>
      </trkpt>
      <trkpt lat="43.03635" lon="-0.34061">
        <ele>1509.1</ele>
        <time>2026-02-07T12:10:31.000Z</time>
      </trkpt>
      <trkpt lat="43.03635" lon="-0.34061">
        <ele>1509</ele>
        <time>2026-02-07T12:10:34.000Z</time>
      </trkpt>
      <trkpt lat="43.03635" lon="-0.34061">
        <ele>1509</ele>
        <time>2026-02-07T12:10:37.000Z</time>
      </trkpt>
      <trkpt lat="43.03636" lon="-0.34061">
        <ele>1509</ele>
        <time>2026-02-07T12:10:39.000Z</time>
      </trkpt>
      <trkpt lat="43.03636" lon="-0.34061">
        <ele>1509</ele>
        <time>2026-02-07T12:10:40.000Z</time>
      </trkpt>
      <trkpt lat="43.03636" lon="-0.34061">
        <ele>1508.9</ele>
        <time>2026-02-07T12:10:41.000Z</time>
      </trkpt>
      <trkpt lat="43.03636" lon="-0.34061">
        <ele>1508.9</ele>
        <time>2026-02-07T12:10:42.000Z</time>
      </trkpt>
      <trkpt lat="43.03636" lon="-0.34061">
        <ele>1508.9</ele>
        <time>2026-02-07T12:10:43.000Z</time>
      </trkpt>
      <trkpt lat="43.03636" lon="-0.34061">
        <ele>1508.9</ele>
        <time>2026-02-07T12:10:44.000Z</time>
      </trkpt>
      <trkpt lat="43.03636" lon="-0.34061">
        <ele>1508.9</ele>
        <time>2026-02-07T12:10:45.000Z</time>
      </trkpt>
      <trkpt lat="43.03636" lon="-0.34061">
        <ele>1508.9</ele>
        <time>2026-02-07T12:10:46.000Z</time>
      </trkpt>
      <trkpt lat="43.03636" lon="-0.34061">
        <ele>1508.8</ele>
        <time>2026-02-07T12:10:47.000Z</time>
      </trkpt>
      <trkpt lat="43.03636" lon="-0.34061">
        <ele>1508.8</ele>
        <time>2026-02-07T12:10:48.000Z</time>
      </trkpt>
      <trkpt lat="43.03636" lon="-0.34061">
        <ele>1508.8</ele>
        <time>2026-02-07T12:10:49.000Z</time>
      </trkpt>
      <trkpt lat="43.03636" lon="-0.34061">
        <ele>1508.8</ele>
        <time>2026-02-07T12:10:50.000Z</time>
      </trkpt>
      <trkpt lat="43.03636" lon="-0.34061">
        <ele>1508.7</ele>
        <time>2026-02-07T12:10:51.000Z</time>
      </trkpt>
      <trkpt lat="43.03636" lon="-0.34061">
        <ele>1508.7</ele>
        <time>2026-02-07T12:10:54.000Z</time>
      </trkpt>
      <trkpt lat="43.03636" lon="-0.34061">
        <ele>1508.7</ele>
        <time>2026-02-07T12:10:57.000Z</time>
      </trkpt>
      <trkpt lat="43.03637" lon="-0.34061">
        <ele>1508.7</ele>
        <time>2026-02-07T12:11:00.000Z</time>
      </trkpt>
      <trkpt lat="43.03637" lon="-0.34061">
        <ele>1508.7</ele>
        <time>2026-02-07T12:11:03.000Z</time>
      </trkpt>
      <trkpt lat="43.03638" lon="-0.34062">
        <ele>1508.7</ele>
        <time>2026-02-07T12:11:06.000Z</time>
      </trkpt>
      <trkpt lat="43.03642" lon="-0.34062">
        <ele>1508.7</ele>
        <time>2026-02-07T12:11:09.000Z</time>
      </trkpt>
      <trkpt lat="43.03644" lon="-0.34063">
        <ele>1508.7</ele>
        <time>2026-02-07T12:11:12.000Z</time>
      </trkpt>
      <trkpt lat="43.03646" lon="-0.34062">
        <ele>1508.7</ele>
        <time>2026-02-07T12:11:15.000Z</time>
      </trkpt>
      <trkpt lat="43.03649" lon="-0.34063">
        <ele>1508.7</ele>
        <time>2026-02-07T12:11:18.000Z</time>
      </trkpt>
      <trkpt lat="43.03652" lon="-0.34064">
        <ele>1508.8</ele>
        <time>2026-02-07T12:11:21.000Z</time>
      </trkpt>
      <trkpt lat="43.03655" lon="-0.34065">
        <ele>1508.9</ele>
        <time>2026-02-07T12:11:24.000Z</time>
      </trkpt>
      <trkpt lat="43.03657" lon="-0.34066">
        <ele>1509</ele>
        <time>2026-02-07T12:11:27.000Z</time>
      </trkpt>
      <trkpt lat="43.0366" lon="-0.34068">
        <ele>1509.1</ele>
        <time>2026-02-07T12:11:30.000Z</time>
      </trkpt>
      <trkpt lat="43.03663" lon="-0.3407">
        <ele>1509.3</ele>
        <time>2026-02-07T12:11:33.000Z</time>
      </trkpt>
      <trkpt lat="43.03664" lon="-0.34072">
        <ele>1509.3</ele>
        <time>2026-02-07T12:11:36.000Z</time>
      </trkpt>
      <trkpt lat="43.03665" lon="-0.34073">
        <ele>1509.5</ele>
        <time>2026-02-07T12:11:39.000Z</time>
      </trkpt>
      <trkpt lat="43.03666" lon="-0.34074">
        <ele>1509.6</ele>
        <time>2026-02-07T12:11:42.000Z</time>
      </trkpt>
      <trkpt lat="43.03665" lon="-0.34075">
        <ele>1509.7</ele>
        <time>2026-02-07T12:11:45.000Z</time>
      </trkpt>
      <trkpt lat="43.03666" lon="-0.34076">
        <ele>1509.7</ele>
        <time>2026-02-07T12:11:48.000Z</time>
      </trkpt>
      <trkpt lat="43.03667" lon="-0.34079">
        <ele>1509.7</ele>
        <time>2026-02-07T12:11:51.000Z</time>
      </trkpt>
      <trkpt lat="43.03668" lon="-0.34081">
        <ele>1509.8</ele>
        <time>2026-02-07T12:11:54.000Z</time>
      </trkpt>
      <trkpt lat="43.03669" lon="-0.34083">
        <ele>1509.9</ele>
        <time>2026-02-07T12:11:57.000Z</time>
      </trkpt>
      <trkpt lat="43.03669" lon="-0.34084">
        <ele>1510</ele>
        <time>2026-02-07T12:12:00.000Z</time>
      </trkpt>
      <trkpt lat="43.0367" lon="-0.34083">
        <ele>1510.1</ele>
        <time>2026-02-07T12:12:03.000Z</time>
      </trkpt>
      <trkpt lat="43.0367" lon="-0.34083">
        <ele>1510.1</ele>
        <time>2026-02-07T12:12:05.000Z</time>
      </trkpt>
      <trkpt lat="43.03671" lon="-0.34083">
        <ele>1510.2</ele>
        <time>2026-02-07T12:12:06.000Z</time>
      </trkpt>
      <trkpt lat="43.03671" lon="-0.34083">
        <ele>1510.2</ele>
        <time>2026-02-07T12:12:07.000Z</time>
      </trkpt>
      <trkpt lat="43.03672" lon="-0.34083">
        <ele>1510.3</ele>
        <time>2026-02-07T12:12:08.000Z</time>
      </trkpt>
      <trkpt lat="43.03673" lon="-0.34083">
        <ele>1510.5</ele>
        <time>2026-02-07T12:12:11.000Z</time>
      </trkpt>
      <trkpt lat="43.03674" lon="-0.34083">
        <ele>1511</ele>
        <time>2026-02-07T12:12:14.000Z</time>
      </trkpt>
      <trkpt lat="43.03675" lon="-0.34083">
        <ele>1511.4</ele>
        <time>2026-02-07T12:12:17.000Z</time>
      </trkpt>
      <trkpt lat="43.03675" lon="-0.34082">
        <ele>1511.8</ele>
        <time>2026-02-07T12:12:20.000Z</time>
      </trkpt>
      <trkpt lat="43.03675" lon="-0.34082">
        <ele>1512.2</ele>
        <time>2026-02-07T12:12:23.000Z</time>
      </trkpt>
      <trkpt lat="43.03675" lon="-0.34082">
        <ele>1512.1</ele>
        <time>2026-02-07T12:12:24.000Z</time>
      </trkpt>
      <trkpt lat="43.03675" lon="-0.34082">
        <ele>1512.1</ele>
        <time>2026-02-07T12:12:25.000Z</time>
      </trkpt>
      <trkpt lat="43.03675" lon="-0.34082">
        <ele>1512.1</ele>
        <time>2026-02-07T12:12:26.000Z</time>
      </trkpt>
      <trkpt lat="43.03674" lon="-0.34083">
        <ele>1512.2</ele>
        <time>2026-02-07T12:12:29.000Z</time>
      </trkpt>
      <trkpt lat="43.03674" lon="-0.34083">
        <ele>1512.2</ele>
        <time>2026-02-07T12:12:30.000Z</time>
      </trkpt>
      <trkpt lat="43.03674" lon="-0.34083">
        <ele>1512.1</ele>
        <time>2026-02-07T12:12:31.000Z</time>
      </trkpt>
      <trkpt lat="43.03674" lon="-0.34083">
        <ele>1512</ele>
        <time>2026-02-07T12:12:34.000Z</time>
      </trkpt>
      <trkpt lat="43.03674" lon="-0.34083">
        <ele>1512</ele>
        <time>2026-02-07T12:12:35.000Z</time>
      </trkpt>
      <trkpt lat="43.03674" lon="-0.34083">
        <ele>1512</ele>
        <time>2026-02-07T12:12:36.000Z</time>
      </trkpt>
      <trkpt lat="43.03674" lon="-0.34083">
        <ele>1511.9</ele>
        <time>2026-02-07T12:12:39.000Z</time>
      </trkpt>
      <trkpt lat="43.03674" lon="-0.34083">
        <ele>1511.9</ele>
        <time>2026-02-07T12:12:40.000Z</time>
      </trkpt>
      <trkpt lat="43.03674" lon="-0.34083">
        <ele>1511.9</ele>
        <time>2026-02-07T12:12:41.000Z</time>
      </trkpt>
      <trkpt lat="43.03674" lon="-0.34083">
        <ele>1511.8</ele>
        <time>2026-02-07T12:12:44.000Z</time>
      </trkpt>
      <trkpt lat="43.03674" lon="-0.34083">
        <ele>1511.8</ele>
        <time>2026-02-07T12:12:45.000Z</time>
      </trkpt>
      <trkpt lat="43.03674" lon="-0.34083">
        <ele>1511.8</ele>
        <time>2026-02-07T12:12:46.000Z</time>
      </trkpt>
      <trkpt lat="43.03674" lon="-0.34083">
        <ele>1511.8</ele>
        <time>2026-02-07T12:12:47.000Z</time>
      </trkpt>
      <trkpt lat="43.03674" lon="-0.34083">
        <ele>1511.8</ele>
        <time>2026-02-07T12:12:50.000Z</time>
      </trkpt>
      <trkpt lat="43.03674" lon="-0.34083">
        <ele>1511.7</ele>
        <time>2026-02-07T12:12:53.000Z</time>
      </trkpt>
      <trkpt lat="43.03674" lon="-0.34083">
        <ele>1511.7</ele>
        <time>2026-02-07T12:12:56.000Z</time>
      </trkpt>
      <trkpt lat="43.03674" lon="-0.34083">
        <ele>1511.7</ele>
        <time>2026-02-07T12:12:57.000Z</time>
      </trkpt>
      <trkpt lat="43.03674" lon="-0.34083">
        <ele>1511.7</ele>
        <time>2026-02-07T12:12:58.000Z</time>
      </trkpt>
      <trkpt lat="43.03674" lon="-0.34083">
        <ele>1511.7</ele>
        <time>2026-02-07T12:12:59.000Z</time>
      </trkpt>
      <trkpt lat="43.03674" lon="-0.34083">
        <ele>1511.7</ele>
        <time>2026-02-07T12:13:00.000Z</time>
      </trkpt>
      <trkpt lat="43.03674" lon="-0.34083">
        <ele>1511.7</ele>
        <time>2026-02-07T12:13:01.000Z</time>
      </trkpt>
      <trkpt lat="43.03674" lon="-0.34083">
        <ele>1511.7</ele>
        <time>2026-02-07T12:13:04.000Z</time>
      </trkpt>
      <trkpt lat="43.03674" lon="-0.34083">
        <ele>1511.6</ele>
        <time>2026-02-07T12:13:07.000Z</time>
      </trkpt>
      <trkpt lat="43.03674" lon="-0.34083">
        <ele>1511.6</ele>
        <time>2026-02-07T12:13:10.000Z</time>
      </trkpt>
      <trkpt lat="43.03674" lon="-0.34083">
        <ele>1511.6</ele>
        <time>2026-02-07T12:13:13.000Z</time>
      </trkpt>
      <trkpt lat="43.03674" lon="-0.34083">
        <ele>1511.5</ele>
        <time>2026-02-07T12:13:16.000Z</time>
      </trkpt>
      <trkpt lat="43.03674" lon="-0.34083">
        <ele>1511.5</ele>
        <time>2026-02-07T12:13:19.000Z</time>
      </trkpt>
      <trkpt lat="43.03674" lon="-0.34083">
        <ele>1511.5</ele>
        <time>2026-02-07T12:13:22.000Z</time>
      </trkpt>
      <trkpt lat="43.03674" lon="-0.34083">
        <ele>1511.4</ele>
        <time>2026-02-07T12:13:25.000Z</time>
      </trkpt>
      <trkpt lat="43.03674" lon="-0.34083">
        <ele>1511.4</ele>
        <time>2026-02-07T12:13:28.000Z</time>
      </trkpt>
      <trkpt lat="43.03674" lon="-0.34083">
        <ele>1511.4</ele>
        <time>2026-02-07T12:13:31.000Z</time>
      </trkpt>
      <trkpt lat="43.03674" lon="-0.34083">
        <ele>1511.4</ele>
        <time>2026-02-07T12:13:34.000Z</time>
      </trkpt>
      <trkpt lat="43.03674" lon="-0.34083">
        <ele>1511.4</ele>
        <time>2026-02-07T12:13:37.000Z</time>
      </trkpt>
      <trkpt lat="43.03674" lon="-0.34083">
        <ele>1511.4</ele>
        <time>2026-02-07T12:13:40.000Z</time>
      </trkpt>
      <trkpt lat="43.03674" lon="-0.34083">
        <ele>1511.4</ele>
        <time>2026-02-07T12:13:43.000Z</time>
      </trkpt>
      <trkpt lat="43.03674" lon="-0.34084">
        <ele>1511.4</ele>
        <time>2026-02-07T12:13:46.000Z</time>
      </trkpt>
      <trkpt lat="43.03674" lon="-0.34084">
        <ele>1511.4</ele>
        <time>2026-02-07T12:13:49.000Z</time>
      </trkpt>
      <trkpt lat="43.03674" lon="-0.34084">
        <ele>1511.4</ele>
        <time>2026-02-07T12:13:52.000Z</time>
      </trkpt>
      <trkpt lat="43.03674" lon="-0.34084">
        <ele>1511.4</ele>
        <time>2026-02-07T12:13:55.000Z</time>
      </trkpt>
      <trkpt lat="43.03674" lon="-0.34084">
        <ele>1511.4</ele>
        <time>2026-02-07T12:13:58.000Z</time>
      </trkpt>
      <trkpt lat="43.03674" lon="-0.34084">
        <ele>1511.4</ele>
        <time>2026-02-07T12:14:01.000Z</time>
      </trkpt>
      <trkpt lat="43.03674" lon="-0.34084">
        <ele>1511.3</ele>
        <time>2026-02-07T12:14:04.000Z</time>
      </trkpt>
      <trkpt lat="43.03674" lon="-0.34084">
        <ele>1511.3</ele>
        <time>2026-02-07T12:14:07.000Z</time>
      </trkpt>
      <trkpt lat="43.03674" lon="-0.34084">
        <ele>1511.3</ele>
        <time>2026-02-07T12:14:10.000Z</time>
      </trkpt>
      <trkpt lat="43.03674" lon="-0.34084">
        <ele>1511.3</ele>
        <time>2026-02-07T12:14:13.000Z</time>
      </trkpt>
      <trkpt lat="43.03674" lon="-0.34084">
        <ele>1511.3</ele>
        <time>2026-02-07T12:14:16.000Z</time>
      </trkpt>
      <trkpt lat="43.03674" lon="-0.34084">
        <ele>1511.3</ele>
        <time>2026-02-07T12:14:19.000Z</time>
      </trkpt>
      <trkpt lat="43.03674" lon="-0.34084">
        <ele>1511.3</ele>
        <time>2026-02-07T12:14:22.000Z</time>
      </trkpt>
      <trkpt lat="43.03674" lon="-0.34084">
        <ele>1511.3</ele>
        <time>2026-02-07T12:14:25.000Z</time>
      </trkpt>
      <trkpt lat="43.03674" lon="-0.34084">
        <ele>1511.3</ele>
        <time>2026-02-07T12:14:28.000Z</time>
      </trkpt>
      <trkpt lat="43.03674" lon="-0.34084">
        <ele>1511.3</ele>
        <time>2026-02-07T12:14:31.000Z</time>
      </trkpt>
      <trkpt lat="43.03674" lon="-0.34084">
        <ele>1511.3</ele>
        <time>2026-02-07T12:14:34.000Z</time>
      </trkpt>
      <trkpt lat="43.03674" lon="-0.34084">
        <ele>1511.3</ele>
        <time>2026-02-07T12:14:37.000Z</time>
      </trkpt>
      <trkpt lat="43.03674" lon="-0.34084">
        <ele>1511.3</ele>
        <time>2026-02-07T12:14:40.000Z</time>
      </trkpt>
      <trkpt lat="43.03674" lon="-0.34084">
        <ele>1511.3</ele>
        <time>2026-02-07T12:14:43.000Z</time>
      </trkpt>
      <trkpt lat="43.03674" lon="-0.34084">
        <ele>1511.3</ele>
        <time>2026-02-07T12:14:46.000Z</time>
      </trkpt>
      <trkpt lat="43.03674" lon="-0.34084">
        <ele>1511.3</ele>
        <time>2026-02-07T12:14:49.000Z</time>
      </trkpt>
      <trkpt lat="43.03674" lon="-0.34084">
        <ele>1511.3</ele>
        <time>2026-02-07T12:14:52.000Z</time>
      </trkpt>
      <trkpt lat="43.03674" lon="-0.34084">
        <ele>1511.3</ele>
        <time>2026-02-07T12:14:55.000Z</time>
      </trkpt>
      <trkpt lat="43.03674" lon="-0.34084">
        <ele>1511.3</ele>
        <time>2026-02-07T12:14:58.000Z</time>
      </trkpt>
      <trkpt lat="43.03674" lon="-0.34084">
        <ele>1511.3</ele>
        <time>2026-02-07T12:15:01.000Z</time>
      </trkpt>
      <trkpt lat="43.03674" lon="-0.34084">
        <ele>1511.2</ele>
        <time>2026-02-07T12:15:04.000Z</time>
      </trkpt>
      <trkpt lat="43.03674" lon="-0.34084">
        <ele>1511.2</ele>
        <time>2026-02-07T12:15:07.000Z</time>
      </trkpt>
      <trkpt lat="43.03674" lon="-0.34084">
        <ele>1511.2</ele>
        <time>2026-02-07T12:15:10.000Z</time>
      </trkpt>
      <trkpt lat="43.03674" lon="-0.34084">
        <ele>1511.2</ele>
        <time>2026-02-07T12:15:13.000Z</time>
      </trkpt>
      <trkpt lat="43.03674" lon="-0.34084">
        <ele>1511.2</ele>
        <time>2026-02-07T12:15:16.000Z</time>
      </trkpt>
      <trkpt lat="43.03674" lon="-0.34084">
        <ele>1511.2</ele>
        <time>2026-02-07T12:15:19.000Z</time>
      </trkpt>
      <trkpt lat="43.03674" lon="-0.34084">
        <ele>1511.2</ele>
        <time>2026-02-07T12:15:22.000Z</time>
      </trkpt>
      <trkpt lat="43.03674" lon="-0.34084">
        <ele>1511.2</ele>
        <time>2026-02-07T12:15:25.000Z</time>
      </trkpt>
      <trkpt lat="43.03674" lon="-0.34084">
        <ele>1511.2</ele>
        <time>2026-02-07T12:15:28.000Z</time>
      </trkpt>
      <trkpt lat="43.03674" lon="-0.34084">
        <ele>1511.2</ele>
        <time>2026-02-07T12:15:31.000Z</time>
      </trkpt>
      <trkpt lat="43.03674" lon="-0.34084">
        <ele>1511.1</ele>
        <time>2026-02-07T12:15:34.000Z</time>
      </trkpt>
      <trkpt lat="43.03674" lon="-0.34084">
        <ele>1511.1</ele>
        <time>2026-02-07T12:15:37.000Z</time>
      </trkpt>
      <trkpt lat="43.03674" lon="-0.34084">
        <ele>1511.1</ele>
        <time>2026-02-07T12:15:40.000Z</time>
      </trkpt>
      <trkpt lat="43.03674" lon="-0.34084">
        <ele>1511.1</ele>
        <time>2026-02-07T12:15:43.000Z</time>
      </trkpt>
      <trkpt lat="43.03674" lon="-0.34084">
        <ele>1511.1</ele>
        <time>2026-02-07T12:15:46.000Z</time>
      </trkpt>
      <trkpt lat="43.03674" lon="-0.34084">
        <ele>1511.1</ele>
        <time>2026-02-07T12:15:49.000Z</time>
      </trkpt>
      <trkpt lat="43.03674" lon="-0.34084">
        <ele>1511.1</ele>
        <time>2026-02-07T12:15:52.000Z</time>
      </trkpt>
      <trkpt lat="43.03673" lon="-0.34084">
        <ele>1511</ele>
        <time>2026-02-07T12:15:55.000Z</time>
      </trkpt>
      <trkpt lat="43.03673" lon="-0.34084">
        <ele>1511</ele>
        <time>2026-02-07T12:15:58.000Z</time>
      </trkpt>
      <trkpt lat="43.03673" lon="-0.34084">
        <ele>1511</ele>
        <time>2026-02-07T12:16:01.000Z</time>
      </trkpt>
      <trkpt lat="43.03673" lon="-0.34084">
        <ele>1511</ele>
        <time>2026-02-07T12:16:04.000Z</time>
      </trkpt>
      <trkpt lat="43.03673" lon="-0.34084">
        <ele>1511</ele>
        <time>2026-02-07T12:16:07.000Z</time>
      </trkpt>
      <trkpt lat="43.03673" lon="-0.34084">
        <ele>1511</ele>
        <time>2026-02-07T12:16:10.000Z</time>
      </trkpt>
      <trkpt lat="43.03673" lon="-0.34084">
        <ele>1511</ele>
        <time>2026-02-07T12:16:13.000Z</time>
      </trkpt>
      <trkpt lat="43.03673" lon="-0.34084">
        <ele>1511</ele>
        <time>2026-02-07T12:16:16.000Z</time>
      </trkpt>
      <trkpt lat="43.03673" lon="-0.34084">
        <ele>1511</ele>
        <time>2026-02-07T12:16:19.000Z</time>
      </trkpt>
      <trkpt lat="43.03673" lon="-0.34084">
        <ele>1511</ele>
        <time>2026-02-07T12:16:22.000Z</time>
      </trkpt>
      <trkpt lat="43.03673" lon="-0.34084">
        <ele>1511</ele>
        <time>2026-02-07T12:16:25.000Z</time>
      </trkpt>
      <trkpt lat="43.03673" lon="-0.34084">
        <ele>1511</ele>
        <time>2026-02-07T12:16:28.000Z</time>
      </trkpt>
      <trkpt lat="43.03673" lon="-0.34084">
        <ele>1511</ele>
        <time>2026-02-07T12:16:31.000Z</time>
      </trkpt>
      <trkpt lat="43.03673" lon="-0.34084">
        <ele>1511</ele>
        <time>2026-02-07T12:16:34.000Z</time>
      </trkpt>
      <trkpt lat="43.03673" lon="-0.34084">
        <ele>1511</ele>
        <time>2026-02-07T12:16:37.000Z</time>
      </trkpt>
      <trkpt lat="43.03673" lon="-0.34084">
        <ele>1511</ele>
        <time>2026-02-07T12:16:40.000Z</time>
      </trkpt>
      <trkpt lat="43.03673" lon="-0.34084">
        <ele>1511</ele>
        <time>2026-02-07T12:16:43.000Z</time>
      </trkpt>
      <trkpt lat="43.03673" lon="-0.34084">
        <ele>1511</ele>
        <time>2026-02-07T12:16:46.000Z</time>
      </trkpt>
      <trkpt lat="43.03673" lon="-0.34084">
        <ele>1511</ele>
        <time>2026-02-07T12:16:49.000Z</time>
      </trkpt>
      <trkpt lat="43.03673" lon="-0.34084">
        <ele>1511</ele>
        <time>2026-02-07T12:16:52.000Z</time>
      </trkpt>
      <trkpt lat="43.03673" lon="-0.34084">
        <ele>1511</ele>
        <time>2026-02-07T12:16:55.000Z</time>
      </trkpt>
      <trkpt lat="43.03673" lon="-0.34084">
        <ele>1511</ele>
        <time>2026-02-07T12:16:58.000Z</time>
      </trkpt>
      <trkpt lat="43.03673" lon="-0.34084">
        <ele>1511</ele>
        <time>2026-02-07T12:17:01.000Z</time>
      </trkpt>
      <trkpt lat="43.03673" lon="-0.34084">
        <ele>1511</ele>
        <time>2026-02-07T12:17:04.000Z</time>
      </trkpt>
      <trkpt lat="43.03673" lon="-0.34084">
        <ele>1511</ele>
        <time>2026-02-07T12:17:07.000Z</time>
      </trkpt>
      <trkpt lat="43.03673" lon="-0.34084">
        <ele>1511</ele>
        <time>2026-02-07T12:17:10.000Z</time>
      </trkpt>
      <trkpt lat="43.03673" lon="-0.34084">
        <ele>1511</ele>
        <time>2026-02-07T12:17:13.000Z</time>
      </trkpt>
      <trkpt lat="43.03673" lon="-0.34084">
        <ele>1511</ele>
        <time>2026-02-07T12:17:16.000Z</time>
      </trkpt>
      <trkpt lat="43.03673" lon="-0.34084">
        <ele>1511</ele>
        <time>2026-02-07T12:17:19.000Z</time>
      </trkpt>
      <trkpt lat="43.03673" lon="-0.34084">
        <ele>1511</ele>
        <time>2026-02-07T12:17:22.000Z</time>
      </trkpt>
      <trkpt lat="43.03673" lon="-0.34084">
        <ele>1511</ele>
        <time>2026-02-07T12:17:23.000Z</time>
      </trkpt>
      <trkpt lat="43.03673" lon="-0.34084">
        <ele>1511</ele>
        <time>2026-02-07T12:17:24.000Z</time>
      </trkpt>
      <trkpt lat="43.03673" lon="-0.34084">
        <ele>1511</ele>
        <time>2026-02-07T12:17:25.000Z</time>
      </trkpt>
      <trkpt lat="43.03673" lon="-0.34084">
        <ele>1511</ele>
        <time>2026-02-07T12:17:26.000Z</time>
      </trkpt>
      <trkpt lat="43.03673" lon="-0.34085">
        <ele>1511.1</ele>
        <time>2026-02-07T12:17:29.000Z</time>
      </trkpt>
      <trkpt lat="43.03673" lon="-0.34085">
        <ele>1511.1</ele>
        <time>2026-02-07T12:17:32.000Z</time>
      </trkpt>
      <trkpt lat="43.03673" lon="-0.34085">
        <ele>1511.1</ele>
        <time>2026-02-07T12:17:35.000Z</time>
      </trkpt>
      <trkpt lat="43.03673" lon="-0.34085">
        <ele>1511.1</ele>
        <time>2026-02-07T12:17:38.000Z</time>
      </trkpt>
      <trkpt lat="43.03673" lon="-0.34085">
        <ele>1511.1</ele>
        <time>2026-02-07T12:17:41.000Z</time>
      </trkpt>
      <trkpt lat="43.03673" lon="-0.34085">
        <ele>1511.1</ele>
        <time>2026-02-07T12:17:44.000Z</time>
      </trkpt>
      <trkpt lat="43.03673" lon="-0.34085">
        <ele>1511.1</ele>
        <time>2026-02-07T12:17:47.000Z</time>
      </trkpt>
      <trkpt lat="43.03673" lon="-0.34085">
        <ele>1511.1</ele>
        <time>2026-02-07T12:17:50.000Z</time>
      </trkpt>
      <trkpt lat="43.03673" lon="-0.34085">
        <ele>1511.1</ele>
        <time>2026-02-07T12:17:53.000Z</time>
      </trkpt>
      <trkpt lat="43.03673" lon="-0.34085">
        <ele>1511.1</ele>
        <time>2026-02-07T12:17:56.000Z</time>
      </trkpt>
      <trkpt lat="43.03673" lon="-0.34085">
        <ele>1511.1</ele>
        <time>2026-02-07T12:17:59.000Z</time>
      </trkpt>
      <trkpt lat="43.03673" lon="-0.34085">
        <ele>1511.1</ele>
        <time>2026-02-07T12:18:02.000Z</time>
      </trkpt>
      <trkpt lat="43.03673" lon="-0.34085">
        <ele>1511.1</ele>
        <time>2026-02-07T12:18:05.000Z</time>
      </trkpt>
      <trkpt lat="43.03673" lon="-0.34085">
        <ele>1511.1</ele>
        <time>2026-02-07T12:18:08.000Z</time>
      </trkpt>
      <trkpt lat="43.03673" lon="-0.34085">
        <ele>1511.1</ele>
        <time>2026-02-07T12:18:11.000Z</time>
      </trkpt>
      <trkpt lat="43.03673" lon="-0.34085">
        <ele>1511.1</ele>
        <time>2026-02-07T12:18:14.000Z</time>
      </trkpt>
      <trkpt lat="43.03673" lon="-0.34085">
        <ele>1511.1</ele>
        <time>2026-02-07T12:18:17.000Z</time>
      </trkpt>
      <trkpt lat="43.03673" lon="-0.34085">
        <ele>1511.1</ele>
        <time>2026-02-07T12:18:20.000Z</time>
      </trkpt>
      <trkpt lat="43.03673" lon="-0.34085">
        <ele>1511.1</ele>
        <time>2026-02-07T12:18:23.000Z</time>
      </trkpt>
      <trkpt lat="43.03673" lon="-0.34085">
        <ele>1511.1</ele>
        <time>2026-02-07T12:18:26.000Z</time>
      </trkpt>
      <trkpt lat="43.03673" lon="-0.34085">
        <ele>1511.1</ele>
        <time>2026-02-07T12:18:29.000Z</time>
      </trkpt>
      <trkpt lat="43.03673" lon="-0.34085">
        <ele>1511.1</ele>
        <time>2026-02-07T12:18:32.000Z</time>
      </trkpt>
      <trkpt lat="43.03673" lon="-0.34085">
        <ele>1511.1</ele>
        <time>2026-02-07T12:18:35.000Z</time>
      </trkpt>
      <trkpt lat="43.03673" lon="-0.34085">
        <ele>1511.2</ele>
        <time>2026-02-07T12:18:38.000Z</time>
      </trkpt>
      <trkpt lat="43.03673" lon="-0.34085">
        <ele>1511.2</ele>
        <time>2026-02-07T12:18:41.000Z</time>
      </trkpt>
      <trkpt lat="43.03673" lon="-0.34085">
        <ele>1511.2</ele>
        <time>2026-02-07T12:18:44.000Z</time>
      </trkpt>
      <trkpt lat="43.03673" lon="-0.34085">
        <ele>1511.2</ele>
        <time>2026-02-07T12:18:47.000Z</time>
      </trkpt>
      <trkpt lat="43.03673" lon="-0.34085">
        <ele>1511.3</ele>
        <time>2026-02-07T12:18:50.000Z</time>
      </trkpt>
      <trkpt lat="43.03673" lon="-0.34085">
        <ele>1511.3</ele>
        <time>2026-02-07T12:18:53.000Z</time>
      </trkpt>
      <trkpt lat="43.03673" lon="-0.34085">
        <ele>1511.3</ele>
        <time>2026-02-07T12:18:56.000Z</time>
      </trkpt>
      <trkpt lat="43.03673" lon="-0.34085">
        <ele>1511.3</ele>
        <time>2026-02-07T12:18:59.000Z</time>
      </trkpt>
      <trkpt lat="43.03673" lon="-0.34085">
        <ele>1511.3</ele>
        <time>2026-02-07T12:19:02.000Z</time>
      </trkpt>
      <trkpt lat="43.03673" lon="-0.34085">
        <ele>1511.4</ele>
        <time>2026-02-07T12:19:05.000Z</time>
      </trkpt>
      <trkpt lat="43.03673" lon="-0.34085">
        <ele>1511.4</ele>
        <time>2026-02-07T12:19:08.000Z</time>
      </trkpt>
      <trkpt lat="43.03673" lon="-0.34085">
        <ele>1511.4</ele>
        <time>2026-02-07T12:19:11.000Z</time>
      </trkpt>
      <trkpt lat="43.03673" lon="-0.34085">
        <ele>1511.4</ele>
        <time>2026-02-07T12:19:14.000Z</time>
      </trkpt>
      <trkpt lat="43.03673" lon="-0.34085">
        <ele>1511.4</ele>
        <time>2026-02-07T12:19:17.000Z</time>
      </trkpt>
      <trkpt lat="43.03673" lon="-0.34085">
        <ele>1511.4</ele>
        <time>2026-02-07T12:19:20.000Z</time>
      </trkpt>
      <trkpt lat="43.03673" lon="-0.34085">
        <ele>1511.5</ele>
        <time>2026-02-07T12:19:23.000Z</time>
      </trkpt>
      <trkpt lat="43.03673" lon="-0.34085">
        <ele>1511.5</ele>
        <time>2026-02-07T12:19:26.000Z</time>
      </trkpt>
      <trkpt lat="43.03673" lon="-0.34085">
        <ele>1511.5</ele>
        <time>2026-02-07T12:19:29.000Z</time>
      </trkpt>
      <trkpt lat="43.03673" lon="-0.34085">
        <ele>1511.5</ele>
        <time>2026-02-07T12:19:32.000Z</time>
      </trkpt>
      <trkpt lat="43.03673" lon="-0.34085">
        <ele>1511.5</ele>
        <time>2026-02-07T12:19:35.000Z</time>
      </trkpt>
      <trkpt lat="43.03673" lon="-0.34085">
        <ele>1511.6</ele>
        <time>2026-02-07T12:19:38.000Z</time>
      </trkpt>
      <trkpt lat="43.03673" lon="-0.34085">
        <ele>1511.6</ele>
        <time>2026-02-07T12:19:41.000Z</time>
      </trkpt>
      <trkpt lat="43.03673" lon="-0.34085">
        <ele>1511.6</ele>
        <time>2026-02-07T12:19:44.000Z</time>
      </trkpt>
      <trkpt lat="43.03673" lon="-0.34085">
        <ele>1511.6</ele>
        <time>2026-02-07T12:19:47.000Z</time>
      </trkpt>
      <trkpt lat="43.03673" lon="-0.34085">
        <ele>1511.7</ele>
        <time>2026-02-07T12:19:50.000Z</time>
      </trkpt>
      <trkpt lat="43.03673" lon="-0.34085">
        <ele>1511.7</ele>
        <time>2026-02-07T12:19:53.000Z</time>
      </trkpt>
      <trkpt lat="43.03673" lon="-0.34085">
        <ele>1511.7</ele>
        <time>2026-02-07T12:19:56.000Z</time>
      </trkpt>
      <trkpt lat="43.03673" lon="-0.34085">
        <ele>1511.7</ele>
        <time>2026-02-07T12:19:59.000Z</time>
      </trkpt>
      <trkpt lat="43.03673" lon="-0.34085">
        <ele>1511.7</ele>
        <time>2026-02-07T12:20:02.000Z</time>
      </trkpt>
      <trkpt lat="43.03673" lon="-0.34085">
        <ele>1511.8</ele>
        <time>2026-02-07T12:20:05.000Z</time>
      </trkpt>
      <trkpt lat="43.03673" lon="-0.34085">
        <ele>1511.8</ele>
        <time>2026-02-07T12:20:08.000Z</time>
      </trkpt>
      <trkpt lat="43.03673" lon="-0.34085">
        <ele>1511.8</ele>
        <time>2026-02-07T12:20:11.000Z</time>
      </trkpt>
      <trkpt lat="43.03673" lon="-0.34085">
        <ele>1511.8</ele>
        <time>2026-02-07T12:20:14.000Z</time>
      </trkpt>
      <trkpt lat="43.03673" lon="-0.34085">
        <ele>1511.8</ele>
        <time>2026-02-07T12:20:17.000Z</time>
      </trkpt>
      <trkpt lat="43.03673" lon="-0.34085">
        <ele>1511.8</ele>
        <time>2026-02-07T12:20:20.000Z</time>
      </trkpt>
      <trkpt lat="43.03673" lon="-0.34085">
        <ele>1511.7</ele>
        <time>2026-02-07T12:20:23.000Z</time>
      </trkpt>
      <trkpt lat="43.03673" lon="-0.34085">
        <ele>1511.7</ele>
        <time>2026-02-07T12:20:26.000Z</time>
      </trkpt>
      <trkpt lat="43.03673" lon="-0.34085">
        <ele>1511.7</ele>
        <time>2026-02-07T12:20:29.000Z</time>
      </trkpt>
      <trkpt lat="43.03673" lon="-0.34085">
        <ele>1511.7</ele>
        <time>2026-02-07T12:20:32.000Z</time>
      </trkpt>
      <trkpt lat="43.03673" lon="-0.34085">
        <ele>1511.7</ele>
        <time>2026-02-07T12:20:35.000Z</time>
      </trkpt>
      <trkpt lat="43.03673" lon="-0.34085">
        <ele>1511.7</ele>
        <time>2026-02-07T12:20:38.000Z</time>
      </trkpt>
      <trkpt lat="43.03673" lon="-0.34085">
        <ele>1511.7</ele>
        <time>2026-02-07T12:20:41.000Z</time>
      </trkpt>
      <trkpt lat="43.03673" lon="-0.34085">
        <ele>1511.7</ele>
        <time>2026-02-07T12:20:44.000Z</time>
      </trkpt>
      <trkpt lat="43.03673" lon="-0.34085">
        <ele>1511.7</ele>
        <time>2026-02-07T12:20:47.000Z</time>
      </trkpt>
      <trkpt lat="43.03673" lon="-0.34085">
        <ele>1511.7</ele>
        <time>2026-02-07T12:20:50.000Z</time>
      </trkpt>
      <trkpt lat="43.03673" lon="-0.34085">
        <ele>1511.7</ele>
        <time>2026-02-07T12:20:53.000Z</time>
      </trkpt>
      <trkpt lat="43.03673" lon="-0.34085">
        <ele>1511.7</ele>
        <time>2026-02-07T12:20:56.000Z</time>
      </trkpt>
      <trkpt lat="43.03673" lon="-0.34085">
        <ele>1511.7</ele>
        <time>2026-02-07T12:20:59.000Z</time>
      </trkpt>
      <trkpt lat="43.03673" lon="-0.34085">
        <ele>1511.7</ele>
        <time>2026-02-07T12:21:02.000Z</time>
      </trkpt>
      <trkpt lat="43.03673" lon="-0.34085">
        <ele>1511.7</ele>
        <time>2026-02-07T12:21:05.000Z</time>
      </trkpt>
      <trkpt lat="43.03673" lon="-0.34085">
        <ele>1511.7</ele>
        <time>2026-02-07T12:21:08.000Z</time>
      </trkpt>
      <trkpt lat="43.03673" lon="-0.34085">
        <ele>1511.7</ele>
        <time>2026-02-07T12:21:11.000Z</time>
      </trkpt>
      <trkpt lat="43.03673" lon="-0.34085">
        <ele>1511.7</ele>
        <time>2026-02-07T12:21:14.000Z</time>
      </trkpt>
      <trkpt lat="43.03673" lon="-0.34085">
        <ele>1511.7</ele>
        <time>2026-02-07T12:21:17.000Z</time>
      </trkpt>
      <trkpt lat="43.03673" lon="-0.34085">
        <ele>1511.7</ele>
        <time>2026-02-07T12:21:20.000Z</time>
      </trkpt>
      <trkpt lat="43.03673" lon="-0.34085">
        <ele>1511.7</ele>
        <time>2026-02-07T12:21:23.000Z</time>
      </trkpt>
      <trkpt lat="43.03673" lon="-0.34085">
        <ele>1511.7</ele>
        <time>2026-02-07T12:21:26.000Z</time>
      </trkpt>
      <trkpt lat="43.03673" lon="-0.34085">
        <ele>1511.7</ele>
        <time>2026-02-07T12:21:29.000Z</time>
      </trkpt>
      <trkpt lat="43.03673" lon="-0.34085">
        <ele>1511.7</ele>
        <time>2026-02-07T12:21:32.000Z</time>
      </trkpt>
      <trkpt lat="43.03673" lon="-0.34085">
        <ele>1511.7</ele>
        <time>2026-02-07T12:21:35.000Z</time>
      </trkpt>
      <trkpt lat="43.03673" lon="-0.34085">
        <ele>1511.7</ele>
        <time>2026-02-07T12:21:38.000Z</time>
      </trkpt>
      <trkpt lat="43.03673" lon="-0.34085">
        <ele>1511.7</ele>
        <time>2026-02-07T12:21:41.000Z</time>
      </trkpt>
      <trkpt lat="43.03673" lon="-0.34085">
        <ele>1511.8</ele>
        <time>2026-02-07T12:21:44.000Z</time>
      </trkpt>
      <trkpt lat="43.03673" lon="-0.34085">
        <ele>1511.8</ele>
        <time>2026-02-07T12:21:47.000Z</time>
      </trkpt>
      <trkpt lat="43.03673" lon="-0.34085">
        <ele>1511.8</ele>
        <time>2026-02-07T12:21:50.000Z</time>
      </trkpt>
      <trkpt lat="43.03673" lon="-0.34085">
        <ele>1511.8</ele>
        <time>2026-02-07T12:21:53.000Z</time>
      </trkpt>
      <trkpt lat="43.03673" lon="-0.34085">
        <ele>1511.8</ele>
        <time>2026-02-07T12:21:56.000Z</time>
      </trkpt>
      <trkpt lat="43.03673" lon="-0.34085">
        <ele>1511.8</ele>
        <time>2026-02-07T12:21:59.000Z</time>
      </trkpt>
      <trkpt lat="43.03673" lon="-0.34085">
        <ele>1511.8</ele>
        <time>2026-02-07T12:22:02.000Z</time>
      </trkpt>
      <trkpt lat="43.03673" lon="-0.34085">
        <ele>1511.8</ele>
        <time>2026-02-07T12:22:05.000Z</time>
      </trkpt>
      <trkpt lat="43.03673" lon="-0.34085">
        <ele>1511.8</ele>
        <time>2026-02-07T12:22:08.000Z</time>
      </trkpt>
      <trkpt lat="43.03672" lon="-0.34085">
        <ele>1511.8</ele>
        <time>2026-02-07T12:22:11.000Z</time>
      </trkpt>
      <trkpt lat="43.03672" lon="-0.34085">
        <ele>1511.8</ele>
        <time>2026-02-07T12:22:14.000Z</time>
      </trkpt>
      <trkpt lat="43.03672" lon="-0.34085">
        <ele>1511.8</ele>
        <time>2026-02-07T12:22:17.000Z</time>
      </trkpt>
      <trkpt lat="43.03672" lon="-0.34085">
        <ele>1511.8</ele>
        <time>2026-02-07T12:22:20.000Z</time>
      </trkpt>
      <trkpt lat="43.03672" lon="-0.34085">
        <ele>1511.8</ele>
        <time>2026-02-07T12:22:23.000Z</time>
      </trkpt>
      <trkpt lat="43.03672" lon="-0.34085">
        <ele>1511.8</ele>
        <time>2026-02-07T12:22:26.000Z</time>
      </trkpt>
      <trkpt lat="43.03672" lon="-0.34085">
        <ele>1511.8</ele>
        <time>2026-02-07T12:22:29.000Z</time>
      </trkpt>
      <trkpt lat="43.03672" lon="-0.34085">
        <ele>1511.8</ele>
        <time>2026-02-07T12:22:32.000Z</time>
      </trkpt>
      <trkpt lat="43.03672" lon="-0.34085">
        <ele>1511.8</ele>
        <time>2026-02-07T12:22:35.000Z</time>
      </trkpt>
      <trkpt lat="43.03672" lon="-0.34085">
        <ele>1511.8</ele>
        <time>2026-02-07T12:22:38.000Z</time>
      </trkpt>
      <trkpt lat="43.03672" lon="-0.34085">
        <ele>1511.8</ele>
        <time>2026-02-07T12:22:41.000Z</time>
      </trkpt>
      <trkpt lat="43.03672" lon="-0.34085">
        <ele>1511.8</ele>
        <time>2026-02-07T12:22:44.000Z</time>
      </trkpt>
      <trkpt lat="43.03672" lon="-0.34085">
        <ele>1511.9</ele>
        <time>2026-02-07T12:22:47.000Z</time>
      </trkpt>
      <trkpt lat="43.03672" lon="-0.34085">
        <ele>1511.9</ele>
        <time>2026-02-07T12:22:50.000Z</time>
      </trkpt>
      <trkpt lat="43.03672" lon="-0.34085">
        <ele>1511.9</ele>
        <time>2026-02-07T12:22:53.000Z</time>
      </trkpt>
      <trkpt lat="43.03672" lon="-0.34085">
        <ele>1511.9</ele>
        <time>2026-02-07T12:22:56.000Z</time>
      </trkpt>
      <trkpt lat="43.03672" lon="-0.34085">
        <ele>1511.9</ele>
        <time>2026-02-07T12:22:59.000Z</time>
      </trkpt>
      <trkpt lat="43.03672" lon="-0.34085">
        <ele>1511.9</ele>
        <time>2026-02-07T12:23:02.000Z</time>
      </trkpt>
      <trkpt lat="43.03672" lon="-0.34085">
        <ele>1511.9</ele>
        <time>2026-02-07T12:23:05.000Z</time>
      </trkpt>
      <trkpt lat="43.03672" lon="-0.34085">
        <ele>1511.9</ele>
        <time>2026-02-07T12:23:08.000Z</time>
      </trkpt>
      <trkpt lat="43.03672" lon="-0.34085">
        <ele>1511.9</ele>
        <time>2026-02-07T12:23:11.000Z</time>
      </trkpt>
      <trkpt lat="43.03672" lon="-0.34085">
        <ele>1511.9</ele>
        <time>2026-02-07T12:23:14.000Z</time>
      </trkpt>
      <trkpt lat="43.03672" lon="-0.34085">
        <ele>1511.9</ele>
        <time>2026-02-07T12:23:17.000Z</time>
      </trkpt>
      <trkpt lat="43.03672" lon="-0.34085">
        <ele>1511.9</ele>
        <time>2026-02-07T12:23:20.000Z</time>
      </trkpt>
      <trkpt lat="43.03672" lon="-0.34085">
        <ele>1511.9</ele>
        <time>2026-02-07T12:23:23.000Z</time>
      </trkpt>
      <trkpt lat="43.03672" lon="-0.34085">
        <ele>1511.9</ele>
        <time>2026-02-07T12:23:26.000Z</time>
      </trkpt>
      <trkpt lat="43.03672" lon="-0.34085">
        <ele>1511.9</ele>
        <time>2026-02-07T12:23:29.000Z</time>
      </trkpt>
      <trkpt lat="43.03672" lon="-0.34085">
        <ele>1511.9</ele>
        <time>2026-02-07T12:23:32.000Z</time>
      </trkpt>
      <trkpt lat="43.03672" lon="-0.34085">
        <ele>1512</ele>
        <time>2026-02-07T12:23:35.000Z</time>
      </trkpt>
      <trkpt lat="43.03672" lon="-0.34085">
        <ele>1512</ele>
        <time>2026-02-07T12:23:38.000Z</time>
      </trkpt>
      <trkpt lat="43.03672" lon="-0.34085">
        <ele>1512</ele>
        <time>2026-02-07T12:23:41.000Z</time>
      </trkpt>
      <trkpt lat="43.03672" lon="-0.34085">
        <ele>1512</ele>
        <time>2026-02-07T12:23:44.000Z</time>
      </trkpt>
      <trkpt lat="43.03672" lon="-0.34085">
        <ele>1512</ele>
        <time>2026-02-07T12:23:47.000Z</time>
      </trkpt>
      <trkpt lat="43.03672" lon="-0.34085">
        <ele>1512</ele>
        <time>2026-02-07T12:23:50.000Z</time>
      </trkpt>
      <trkpt lat="43.03672" lon="-0.34085">
        <ele>1512</ele>
        <time>2026-02-07T12:23:53.000Z</time>
      </trkpt>
      <trkpt lat="43.03672" lon="-0.34085">
        <ele>1512</ele>
        <time>2026-02-07T12:23:56.000Z</time>
      </trkpt>
      <trkpt lat="43.03672" lon="-0.34085">
        <ele>1512</ele>
        <time>2026-02-07T12:23:59.000Z</time>
      </trkpt>
      <trkpt lat="43.03672" lon="-0.34085">
        <ele>1512</ele>
        <time>2026-02-07T12:24:02.000Z</time>
      </trkpt>
      <trkpt lat="43.03672" lon="-0.34085">
        <ele>1512</ele>
        <time>2026-02-07T12:24:05.000Z</time>
      </trkpt>
      <trkpt lat="43.03672" lon="-0.34085">
        <ele>1512</ele>
        <time>2026-02-07T12:24:08.000Z</time>
      </trkpt>
      <trkpt lat="43.03672" lon="-0.34085">
        <ele>1512</ele>
        <time>2026-02-07T12:24:11.000Z</time>
      </trkpt>
      <trkpt lat="43.03672" lon="-0.34085">
        <ele>1512</ele>
        <time>2026-02-07T12:24:14.000Z</time>
      </trkpt>
      <trkpt lat="43.03672" lon="-0.34085">
        <ele>1512.1</ele>
        <time>2026-02-07T12:24:17.000Z</time>
      </trkpt>
      <trkpt lat="43.03672" lon="-0.34085">
        <ele>1512.1</ele>
        <time>2026-02-07T12:24:20.000Z</time>
      </trkpt>
      <trkpt lat="43.03672" lon="-0.34085">
        <ele>1512.1</ele>
        <time>2026-02-07T12:24:23.000Z</time>
      </trkpt>
      <trkpt lat="43.03672" lon="-0.34085">
        <ele>1512.1</ele>
        <time>2026-02-07T12:24:26.000Z</time>
      </trkpt>
      <trkpt lat="43.03672" lon="-0.34085">
        <ele>1512.1</ele>
        <time>2026-02-07T12:24:29.000Z</time>
      </trkpt>
      <trkpt lat="43.03672" lon="-0.34085">
        <ele>1512.1</ele>
        <time>2026-02-07T12:24:32.000Z</time>
      </trkpt>
      <trkpt lat="43.03672" lon="-0.34085">
        <ele>1512.1</ele>
        <time>2026-02-07T12:24:35.000Z</time>
      </trkpt>
      <trkpt lat="43.03672" lon="-0.34085">
        <ele>1512.1</ele>
        <time>2026-02-07T12:24:38.000Z</time>
      </trkpt>
      <trkpt lat="43.03672" lon="-0.34085">
        <ele>1512.1</ele>
        <time>2026-02-07T12:24:41.000Z</time>
      </trkpt>
      <trkpt lat="43.03672" lon="-0.34085">
        <ele>1512.1</ele>
        <time>2026-02-07T12:24:44.000Z</time>
      </trkpt>
      <trkpt lat="43.03672" lon="-0.34085">
        <ele>1512.1</ele>
        <time>2026-02-07T12:24:47.000Z</time>
      </trkpt>
      <trkpt lat="43.03672" lon="-0.34085">
        <ele>1512.1</ele>
        <time>2026-02-07T12:24:50.000Z</time>
      </trkpt>
      <trkpt lat="43.03672" lon="-0.34085">
        <ele>1512.1</ele>
        <time>2026-02-07T12:24:53.000Z</time>
      </trkpt>
      <trkpt lat="43.03672" lon="-0.34085">
        <ele>1512.1</ele>
        <time>2026-02-07T12:24:56.000Z</time>
      </trkpt>
      <trkpt lat="43.03672" lon="-0.34085">
        <ele>1512.1</ele>
        <time>2026-02-07T12:24:59.000Z</time>
      </trkpt>
      <trkpt lat="43.03672" lon="-0.34085">
        <ele>1512.1</ele>
        <time>2026-02-07T12:25:02.000Z</time>
      </trkpt>
      <trkpt lat="43.03672" lon="-0.34085">
        <ele>1512.1</ele>
        <time>2026-02-07T12:25:05.000Z</time>
      </trkpt>
      <trkpt lat="43.03672" lon="-0.34085">
        <ele>1512.1</ele>
        <time>2026-02-07T12:25:08.000Z</time>
      </trkpt>
      <trkpt lat="43.03672" lon="-0.34085">
        <ele>1512.1</ele>
        <time>2026-02-07T12:25:11.000Z</time>
      </trkpt>
      <trkpt lat="43.03672" lon="-0.34085">
        <ele>1512.1</ele>
        <time>2026-02-07T12:25:14.000Z</time>
      </trkpt>
      <trkpt lat="43.03672" lon="-0.34085">
        <ele>1512.1</ele>
        <time>2026-02-07T12:25:17.000Z</time>
      </trkpt>
      <trkpt lat="43.03672" lon="-0.34085">
        <ele>1512.1</ele>
        <time>2026-02-07T12:25:20.000Z</time>
      </trkpt>
      <trkpt lat="43.03672" lon="-0.34085">
        <ele>1512.1</ele>
        <time>2026-02-07T12:25:23.000Z</time>
      </trkpt>
      <trkpt lat="43.03672" lon="-0.34085">
        <ele>1512.1</ele>
        <time>2026-02-07T12:25:26.000Z</time>
      </trkpt>
      <trkpt lat="43.03672" lon="-0.34085">
        <ele>1512.1</ele>
        <time>2026-02-07T12:25:29.000Z</time>
      </trkpt>
      <trkpt lat="43.03672" lon="-0.34085">
        <ele>1512.1</ele>
        <time>2026-02-07T12:25:32.000Z</time>
      </trkpt>
      <trkpt lat="43.03672" lon="-0.34085">
        <ele>1512.1</ele>
        <time>2026-02-07T12:25:35.000Z</time>
      </trkpt>
      <trkpt lat="43.03672" lon="-0.34085">
        <ele>1512.1</ele>
        <time>2026-02-07T12:25:38.000Z</time>
      </trkpt>
      <trkpt lat="43.03672" lon="-0.34085">
        <ele>1512.1</ele>
        <time>2026-02-07T12:25:41.000Z</time>
      </trkpt>
      <trkpt lat="43.03672" lon="-0.34085">
        <ele>1512.1</ele>
        <time>2026-02-07T12:25:44.000Z</time>
      </trkpt>
      <trkpt lat="43.03672" lon="-0.34085">
        <ele>1512.1</ele>
        <time>2026-02-07T12:25:47.000Z</time>
      </trkpt>
      <trkpt lat="43.03672" lon="-0.34085">
        <ele>1512.1</ele>
        <time>2026-02-07T12:25:50.000Z</time>
      </trkpt>
      <trkpt lat="43.03672" lon="-0.34085">
        <ele>1512.1</ele>
        <time>2026-02-07T12:25:53.000Z</time>
      </trkpt>
      <trkpt lat="43.03672" lon="-0.34085">
        <ele>1512.1</ele>
        <time>2026-02-07T12:25:56.000Z</time>
      </trkpt>
      <trkpt lat="43.03672" lon="-0.34085">
        <ele>1512.1</ele>
        <time>2026-02-07T12:25:59.000Z</time>
      </trkpt>
      <trkpt lat="43.03672" lon="-0.34085">
        <ele>1512.1</ele>
        <time>2026-02-07T12:26:02.000Z</time>
      </trkpt>
      <trkpt lat="43.03672" lon="-0.34085">
        <ele>1512.1</ele>
        <time>2026-02-07T12:26:05.000Z</time>
      </trkpt>
      <trkpt lat="43.03672" lon="-0.34085">
        <ele>1512.1</ele>
        <time>2026-02-07T12:26:08.000Z</time>
      </trkpt>
      <trkpt lat="43.03672" lon="-0.34085">
        <ele>1512.1</ele>
        <time>2026-02-07T12:26:11.000Z</time>
      </trkpt>
      <trkpt lat="43.03672" lon="-0.34085">
        <ele>1512.1</ele>
        <time>2026-02-07T12:26:14.000Z</time>
      </trkpt>
      <trkpt lat="43.03672" lon="-0.34085">
        <ele>1512.1</ele>
        <time>2026-02-07T12:26:17.000Z</time>
      </trkpt>
      <trkpt lat="43.03672" lon="-0.34085">
        <ele>1512.1</ele>
        <time>2026-02-07T12:26:20.000Z</time>
      </trkpt>
      <trkpt lat="43.03672" lon="-0.34085">
        <ele>1512.1</ele>
        <time>2026-02-07T12:26:23.000Z</time>
      </trkpt>
      <trkpt lat="43.03672" lon="-0.34085">
        <ele>1512.1</ele>
        <time>2026-02-07T12:26:26.000Z</time>
      </trkpt>
      <trkpt lat="43.03672" lon="-0.34085">
        <ele>1512.1</ele>
        <time>2026-02-07T12:26:29.000Z</time>
      </trkpt>
      <trkpt lat="43.03672" lon="-0.34085">
        <ele>1512.1</ele>
        <time>2026-02-07T12:26:32.000Z</time>
      </trkpt>
      <trkpt lat="43.03672" lon="-0.34085">
        <ele>1512.1</ele>
        <time>2026-02-07T12:26:35.000Z</time>
      </trkpt>
      <trkpt lat="43.03672" lon="-0.34085">
        <ele>1512.1</ele>
        <time>2026-02-07T12:26:38.000Z</time>
      </trkpt>
      <trkpt lat="43.03672" lon="-0.34085">
        <ele>1512.1</ele>
        <time>2026-02-07T12:26:41.000Z</time>
      </trkpt>
      <trkpt lat="43.03672" lon="-0.34085">
        <ele>1512.1</ele>
        <time>2026-02-07T12:26:44.000Z</time>
      </trkpt>
      <trkpt lat="43.03672" lon="-0.34085">
        <ele>1512.1</ele>
        <time>2026-02-07T12:26:47.000Z</time>
      </trkpt>
      <trkpt lat="43.03672" lon="-0.34085">
        <ele>1512.1</ele>
        <time>2026-02-07T12:26:50.000Z</time>
      </trkpt>
      <trkpt lat="43.03672" lon="-0.34085">
        <ele>1512.1</ele>
        <time>2026-02-07T12:26:53.000Z</time>
      </trkpt>
      <trkpt lat="43.03672" lon="-0.34085">
        <ele>1512.1</ele>
        <time>2026-02-07T12:26:56.000Z</time>
      </trkpt>
      <trkpt lat="43.03672" lon="-0.34085">
        <ele>1512.1</ele>
        <time>2026-02-07T12:26:59.000Z</time>
      </trkpt>
      <trkpt lat="43.03672" lon="-0.34085">
        <ele>1512.1</ele>
        <time>2026-02-07T12:27:02.000Z</time>
      </trkpt>
      <trkpt lat="43.03672" lon="-0.34085">
        <ele>1512.1</ele>
        <time>2026-02-07T12:27:05.000Z</time>
      </trkpt>
      <trkpt lat="43.03672" lon="-0.34085">
        <ele>1512.1</ele>
        <time>2026-02-07T12:27:08.000Z</time>
      </trkpt>
      <trkpt lat="43.03672" lon="-0.34085">
        <ele>1512.1</ele>
        <time>2026-02-07T12:27:11.000Z</time>
      </trkpt>
      <trkpt lat="43.03672" lon="-0.34085">
        <ele>1512.1</ele>
        <time>2026-02-07T12:27:14.000Z</time>
      </trkpt>
      <trkpt lat="43.03672" lon="-0.34085">
        <ele>1512.1</ele>
        <time>2026-02-07T12:27:17.000Z</time>
      </trkpt>
      <trkpt lat="43.03672" lon="-0.34085">
        <ele>1512.1</ele>
        <time>2026-02-07T12:27:20.000Z</time>
      </trkpt>
      <trkpt lat="43.03672" lon="-0.34085">
        <ele>1512.1</ele>
        <time>2026-02-07T12:27:23.000Z</time>
      </trkpt>
      <trkpt lat="43.03672" lon="-0.34085">
        <ele>1512.1</ele>
        <time>2026-02-07T12:27:26.000Z</time>
      </trkpt>
      <trkpt lat="43.03672" lon="-0.34085">
        <ele>1512</ele>
        <time>2026-02-07T12:27:29.000Z</time>
      </trkpt>
      <trkpt lat="43.03672" lon="-0.34085">
        <ele>1512</ele>
        <time>2026-02-07T12:27:32.000Z</time>
      </trkpt>
      <trkpt lat="43.03672" lon="-0.34085">
        <ele>1512</ele>
        <time>2026-02-07T12:27:35.000Z</time>
      </trkpt>
      <trkpt lat="43.03672" lon="-0.34085">
        <ele>1512</ele>
        <time>2026-02-07T12:27:38.000Z</time>
      </trkpt>
      <trkpt lat="43.03672" lon="-0.34085">
        <ele>1512</ele>
        <time>2026-02-07T12:27:41.000Z</time>
      </trkpt>
      <trkpt lat="43.03672" lon="-0.34085">
        <ele>1512</ele>
        <time>2026-02-07T12:27:44.000Z</time>
      </trkpt>
      <trkpt lat="43.03672" lon="-0.34085">
        <ele>1512</ele>
        <time>2026-02-07T12:27:47.000Z</time>
      </trkpt>
      <trkpt lat="43.03672" lon="-0.34085">
        <ele>1512</ele>
        <time>2026-02-07T12:27:50.000Z</time>
      </trkpt>
      <trkpt lat="43.03672" lon="-0.34085">
        <ele>1512</ele>
        <time>2026-02-07T12:27:53.000Z</time>
      </trkpt>
      <trkpt lat="43.03672" lon="-0.34085">
        <ele>1512</ele>
        <time>2026-02-07T12:27:56.000Z</time>
      </trkpt>
      <trkpt lat="43.03672" lon="-0.34085">
        <ele>1512</ele>
        <time>2026-02-07T12:27:59.000Z</time>
      </trkpt>
      <trkpt lat="43.03672" lon="-0.34085">
        <ele>1512</ele>
        <time>2026-02-07T12:28:02.000Z</time>
      </trkpt>
      <trkpt lat="43.03672" lon="-0.34085">
        <ele>1512</ele>
        <time>2026-02-07T12:28:05.000Z</time>
      </trkpt>
      <trkpt lat="43.03672" lon="-0.34085">
        <ele>1512</ele>
        <time>2026-02-07T12:28:08.000Z</time>
      </trkpt>
      <trkpt lat="43.03672" lon="-0.34085">
        <ele>1512</ele>
        <time>2026-02-07T12:28:11.000Z</time>
      </trkpt>
      <trkpt lat="43.03672" lon="-0.34085">
        <ele>1512</ele>
        <time>2026-02-07T12:28:14.000Z</time>
      </trkpt>
      <trkpt lat="43.03672" lon="-0.34085">
        <ele>1512</ele>
        <time>2026-02-07T12:28:17.000Z</time>
      </trkpt>
      <trkpt lat="43.03672" lon="-0.34085">
        <ele>1512</ele>
        <time>2026-02-07T12:28:20.000Z</time>
      </trkpt>
      <trkpt lat="43.03672" lon="-0.34085">
        <ele>1512</ele>
        <time>2026-02-07T12:28:23.000Z</time>
      </trkpt>
      <trkpt lat="43.03672" lon="-0.34085">
        <ele>1512</ele>
        <time>2026-02-07T12:28:26.000Z</time>
      </trkpt>
      <trkpt lat="43.03672" lon="-0.34085">
        <ele>1512</ele>
        <time>2026-02-07T12:28:29.000Z</time>
      </trkpt>
      <trkpt lat="43.03672" lon="-0.34085">
        <ele>1512</ele>
        <time>2026-02-07T12:28:32.000Z</time>
      </trkpt>
      <trkpt lat="43.03672" lon="-0.34085">
        <ele>1512</ele>
        <time>2026-02-07T12:28:35.000Z</time>
      </trkpt>
      <trkpt lat="43.03672" lon="-0.34085">
        <ele>1512</ele>
        <time>2026-02-07T12:28:38.000Z</time>
      </trkpt>
      <trkpt lat="43.03672" lon="-0.34085">
        <ele>1512</ele>
        <time>2026-02-07T12:28:41.000Z</time>
      </trkpt>
      <trkpt lat="43.03672" lon="-0.34085">
        <ele>1512</ele>
        <time>2026-02-07T12:28:44.000Z</time>
      </trkpt>
      <trkpt lat="43.03672" lon="-0.34085">
        <ele>1512</ele>
        <time>2026-02-07T12:28:47.000Z</time>
      </trkpt>
      <trkpt lat="43.03672" lon="-0.34085">
        <ele>1512</ele>
        <time>2026-02-07T12:28:50.000Z</time>
      </trkpt>
      <trkpt lat="43.03672" lon="-0.34085">
        <ele>1512</ele>
        <time>2026-02-07T12:28:53.000Z</time>
      </trkpt>
      <trkpt lat="43.03672" lon="-0.34085">
        <ele>1512</ele>
        <time>2026-02-07T12:28:56.000Z</time>
      </trkpt>
      <trkpt lat="43.03672" lon="-0.34085">
        <ele>1512</ele>
        <time>2026-02-07T12:28:59.000Z</time>
      </trkpt>
      <trkpt lat="43.03672" lon="-0.34085">
        <ele>1512</ele>
        <time>2026-02-07T12:29:02.000Z</time>
      </trkpt>
      <trkpt lat="43.03672" lon="-0.34085">
        <ele>1512</ele>
        <time>2026-02-07T12:29:05.000Z</time>
      </trkpt>
      <trkpt lat="43.03672" lon="-0.34085">
        <ele>1512</ele>
        <time>2026-02-07T12:29:08.000Z</time>
      </trkpt>
      <trkpt lat="43.03672" lon="-0.34085">
        <ele>1512</ele>
        <time>2026-02-07T12:29:11.000Z</time>
      </trkpt>
      <trkpt lat="43.03672" lon="-0.34085">
        <ele>1512</ele>
        <time>2026-02-07T12:29:14.000Z</time>
      </trkpt>
      <trkpt lat="43.03672" lon="-0.34085">
        <ele>1512</ele>
        <time>2026-02-07T12:29:17.000Z</time>
      </trkpt>
      <trkpt lat="43.03672" lon="-0.34085">
        <ele>1512</ele>
        <time>2026-02-07T12:29:20.000Z</time>
      </trkpt>
      <trkpt lat="43.03672" lon="-0.34085">
        <ele>1512</ele>
        <time>2026-02-07T12:29:23.000Z</time>
      </trkpt>
      <trkpt lat="43.03672" lon="-0.34085">
        <ele>1512</ele>
        <time>2026-02-07T12:29:26.000Z</time>
      </trkpt>
      <trkpt lat="43.03672" lon="-0.34085">
        <ele>1512</ele>
        <time>2026-02-07T12:29:29.000Z</time>
      </trkpt>
      <trkpt lat="43.03672" lon="-0.34085">
        <ele>1512</ele>
        <time>2026-02-07T12:29:32.000Z</time>
      </trkpt>
      <trkpt lat="43.03672" lon="-0.34085">
        <ele>1512</ele>
        <time>2026-02-07T12:29:35.000Z</time>
      </trkpt>
      <trkpt lat="43.03672" lon="-0.34085">
        <ele>1512</ele>
        <time>2026-02-07T12:29:38.000Z</time>
      </trkpt>
      <trkpt lat="43.03672" lon="-0.34085">
        <ele>1512</ele>
        <time>2026-02-07T12:29:41.000Z</time>
      </trkpt>
      <trkpt lat="43.03672" lon="-0.34085">
        <ele>1512</ele>
        <time>2026-02-07T12:29:44.000Z</time>
      </trkpt>
      <trkpt lat="43.03672" lon="-0.34085">
        <ele>1512</ele>
        <time>2026-02-07T12:29:47.000Z</time>
      </trkpt>
      <trkpt lat="43.03672" lon="-0.34085">
        <ele>1512</ele>
        <time>2026-02-07T12:29:50.000Z</time>
      </trkpt>
      <trkpt lat="43.03672" lon="-0.34085">
        <ele>1512</ele>
        <time>2026-02-07T12:29:53.000Z</time>
      </trkpt>
      <trkpt lat="43.03672" lon="-0.34085">
        <ele>1512</ele>
        <time>2026-02-07T12:29:56.000Z</time>
      </trkpt>
      <trkpt lat="43.03672" lon="-0.34085">
        <ele>1512</ele>
        <time>2026-02-07T12:29:59.000Z</time>
      </trkpt>
      <trkpt lat="43.03672" lon="-0.34085">
        <ele>1512</ele>
        <time>2026-02-07T12:30:02.000Z</time>
      </trkpt>
      <trkpt lat="43.03672" lon="-0.34085">
        <ele>1512</ele>
        <time>2026-02-07T12:30:05.000Z</time>
      </trkpt>
      <trkpt lat="43.03672" lon="-0.34085">
        <ele>1512</ele>
        <time>2026-02-07T12:30:08.000Z</time>
      </trkpt>
      <trkpt lat="43.03672" lon="-0.34085">
        <ele>1512</ele>
        <time>2026-02-07T12:30:11.000Z</time>
      </trkpt>
      <trkpt lat="43.03672" lon="-0.34085">
        <ele>1512</ele>
        <time>2026-02-07T12:30:14.000Z</time>
      </trkpt>
      <trkpt lat="43.03672" lon="-0.34085">
        <ele>1512</ele>
        <time>2026-02-07T12:30:17.000Z</time>
      </trkpt>
      <trkpt lat="43.03672" lon="-0.34085">
        <ele>1512</ele>
        <time>2026-02-07T12:30:20.000Z</time>
      </trkpt>
      <trkpt lat="43.03672" lon="-0.34085">
        <ele>1512</ele>
        <time>2026-02-07T12:30:23.000Z</time>
      </trkpt>
      <trkpt lat="43.03672" lon="-0.34085">
        <ele>1512</ele>
        <time>2026-02-07T12:30:26.000Z</time>
      </trkpt>
      <trkpt lat="43.03672" lon="-0.34085">
        <ele>1512</ele>
        <time>2026-02-07T12:30:29.000Z</time>
      </trkpt>
      <trkpt lat="43.03672" lon="-0.34085">
        <ele>1512</ele>
        <time>2026-02-07T12:30:32.000Z</time>
      </trkpt>
      <trkpt lat="43.03672" lon="-0.34085">
        <ele>1512</ele>
        <time>2026-02-07T12:30:35.000Z</time>
      </trkpt>
      <trkpt lat="43.03672" lon="-0.34085">
        <ele>1512</ele>
        <time>2026-02-07T12:30:38.000Z</time>
      </trkpt>
      <trkpt lat="43.03672" lon="-0.34085">
        <ele>1512</ele>
        <time>2026-02-07T12:30:41.000Z</time>
      </trkpt>
      <trkpt lat="43.03672" lon="-0.34085">
        <ele>1512</ele>
        <time>2026-02-07T12:30:44.000Z</time>
      </trkpt>
      <trkpt lat="43.03672" lon="-0.34085">
        <ele>1512</ele>
        <time>2026-02-07T12:30:47.000Z</time>
      </trkpt>
      <trkpt lat="43.03672" lon="-0.34085">
        <ele>1512</ele>
        <time>2026-02-07T12:30:50.000Z</time>
      </trkpt>
      <trkpt lat="43.03672" lon="-0.34085">
        <ele>1512</ele>
        <time>2026-02-07T12:30:53.000Z</time>
      </trkpt>
      <trkpt lat="43.03672" lon="-0.34085">
        <ele>1512</ele>
        <time>2026-02-07T12:30:56.000Z</time>
      </trkpt>
      <trkpt lat="43.03672" lon="-0.34085">
        <ele>1512</ele>
        <time>2026-02-07T12:30:59.000Z</time>
      </trkpt>
      <trkpt lat="43.03672" lon="-0.34085">
        <ele>1512</ele>
        <time>2026-02-07T12:31:02.000Z</time>
      </trkpt>
      <trkpt lat="43.03672" lon="-0.34085">
        <ele>1511.9</ele>
        <time>2026-02-07T12:31:05.000Z</time>
      </trkpt>
      <trkpt lat="43.03672" lon="-0.34085">
        <ele>1511.9</ele>
        <time>2026-02-07T12:31:08.000Z</time>
      </trkpt>
      <trkpt lat="43.03672" lon="-0.34085">
        <ele>1511.9</ele>
        <time>2026-02-07T12:31:11.000Z</time>
      </trkpt>
      <trkpt lat="43.03672" lon="-0.34085">
        <ele>1511.9</ele>
        <time>2026-02-07T12:31:14.000Z</time>
      </trkpt>
      <trkpt lat="43.03672" lon="-0.34085">
        <ele>1511.9</ele>
        <time>2026-02-07T12:31:17.000Z</time>
      </trkpt>
      <trkpt lat="43.03672" lon="-0.34085">
        <ele>1511.9</ele>
        <time>2026-02-07T12:31:20.000Z</time>
      </trkpt>
      <trkpt lat="43.03672" lon="-0.34085">
        <ele>1511.9</ele>
        <time>2026-02-07T12:31:23.000Z</time>
      </trkpt>
      <trkpt lat="43.03672" lon="-0.34085">
        <ele>1511.9</ele>
        <time>2026-02-07T12:31:26.000Z</time>
      </trkpt>
      <trkpt lat="43.03672" lon="-0.34085">
        <ele>1511.9</ele>
        <time>2026-02-07T12:31:29.000Z</time>
      </trkpt>
      <trkpt lat="43.03672" lon="-0.34085">
        <ele>1511.9</ele>
        <time>2026-02-07T12:31:32.000Z</time>
      </trkpt>
      <trkpt lat="43.03672" lon="-0.34085">
        <ele>1511.9</ele>
        <time>2026-02-07T12:31:35.000Z</time>
      </trkpt>
      <trkpt lat="43.03672" lon="-0.34085">
        <ele>1511.9</ele>
        <time>2026-02-07T12:31:38.000Z</time>
      </trkpt>
      <trkpt lat="43.03672" lon="-0.34085">
        <ele>1511.9</ele>
        <time>2026-02-07T12:31:41.000Z</time>
      </trkpt>
      <trkpt lat="43.03672" lon="-0.34085">
        <ele>1511.9</ele>
        <time>2026-02-07T12:31:44.000Z</time>
      </trkpt>
      <trkpt lat="43.03672" lon="-0.34085">
        <ele>1511.9</ele>
        <time>2026-02-07T12:31:47.000Z</time>
      </trkpt>
      <trkpt lat="43.03672" lon="-0.34085">
        <ele>1511.9</ele>
        <time>2026-02-07T12:31:50.000Z</time>
      </trkpt>
      <trkpt lat="43.03672" lon="-0.34085">
        <ele>1511.9</ele>
        <time>2026-02-07T12:31:53.000Z</time>
      </trkpt>
      <trkpt lat="43.03672" lon="-0.34085">
        <ele>1511.9</ele>
        <time>2026-02-07T12:31:56.000Z</time>
      </trkpt>
      <trkpt lat="43.03672" lon="-0.34085">
        <ele>1511.9</ele>
        <time>2026-02-07T12:31:59.000Z</time>
      </trkpt>
      <trkpt lat="43.03672" lon="-0.34085">
        <ele>1511.9</ele>
        <time>2026-02-07T12:32:02.000Z</time>
      </trkpt>
      <trkpt lat="43.03672" lon="-0.34085">
        <ele>1511.9</ele>
        <time>2026-02-07T12:32:05.000Z</time>
      </trkpt>
      <trkpt lat="43.03672" lon="-0.34085">
        <ele>1511.9</ele>
        <time>2026-02-07T12:32:08.000Z</time>
      </trkpt>
      <trkpt lat="43.03672" lon="-0.34085">
        <ele>1511.8</ele>
        <time>2026-02-07T12:32:11.000Z</time>
      </trkpt>
      <trkpt lat="43.03672" lon="-0.34085">
        <ele>1511.8</ele>
        <time>2026-02-07T12:32:14.000Z</time>
      </trkpt>
      <trkpt lat="43.03672" lon="-0.34085">
        <ele>1511.8</ele>
        <time>2026-02-07T12:32:17.000Z</time>
      </trkpt>
      <trkpt lat="43.03672" lon="-0.34085">
        <ele>1511.8</ele>
        <time>2026-02-07T12:32:20.000Z</time>
      </trkpt>
      <trkpt lat="43.03672" lon="-0.34085">
        <ele>1511.8</ele>
        <time>2026-02-07T12:32:23.000Z</time>
      </trkpt>
      <trkpt lat="43.03672" lon="-0.34085">
        <ele>1511.8</ele>
        <time>2026-02-07T12:32:26.000Z</time>
      </trkpt>
      <trkpt lat="43.03672" lon="-0.34085">
        <ele>1511.8</ele>
        <time>2026-02-07T12:32:29.000Z</time>
      </trkpt>
      <trkpt lat="43.03672" lon="-0.34085">
        <ele>1511.8</ele>
        <time>2026-02-07T12:32:32.000Z</time>
      </trkpt>
      <trkpt lat="43.03672" lon="-0.34085">
        <ele>1511.8</ele>
        <time>2026-02-07T12:32:35.000Z</time>
      </trkpt>
      <trkpt lat="43.03672" lon="-0.34085">
        <ele>1511.8</ele>
        <time>2026-02-07T12:32:38.000Z</time>
      </trkpt>
      <trkpt lat="43.03672" lon="-0.34085">
        <ele>1511.8</ele>
        <time>2026-02-07T12:32:41.000Z</time>
      </trkpt>
      <trkpt lat="43.03672" lon="-0.34085">
        <ele>1511.8</ele>
        <time>2026-02-07T12:32:44.000Z</time>
      </trkpt>
      <trkpt lat="43.03672" lon="-0.34085">
        <ele>1511.8</ele>
        <time>2026-02-07T12:32:47.000Z</time>
      </trkpt>
      <trkpt lat="43.03672" lon="-0.34085">
        <ele>1511.8</ele>
        <time>2026-02-07T12:32:50.000Z</time>
      </trkpt>
      <trkpt lat="43.03672" lon="-0.34085">
        <ele>1511.8</ele>
        <time>2026-02-07T12:32:53.000Z</time>
      </trkpt>
      <trkpt lat="43.03672" lon="-0.34085">
        <ele>1511.8</ele>
        <time>2026-02-07T12:32:56.000Z</time>
      </trkpt>
      <trkpt lat="43.03672" lon="-0.34085">
        <ele>1511.8</ele>
        <time>2026-02-07T12:32:59.000Z</time>
      </trkpt>
      <trkpt lat="43.03672" lon="-0.34085">
        <ele>1511.8</ele>
        <time>2026-02-07T12:33:02.000Z</time>
      </trkpt>
      <trkpt lat="43.03672" lon="-0.34085">
        <ele>1511.8</ele>
        <time>2026-02-07T12:33:05.000Z</time>
      </trkpt>
      <trkpt lat="43.03672" lon="-0.34085">
        <ele>1511.8</ele>
        <time>2026-02-07T12:33:08.000Z</time>
      </trkpt>
      <trkpt lat="43.03672" lon="-0.34085">
        <ele>1511.8</ele>
        <time>2026-02-07T12:33:11.000Z</time>
      </trkpt>
      <trkpt lat="43.03671" lon="-0.34085">
        <ele>1511.8</ele>
        <time>2026-02-07T12:33:14.000Z</time>
      </trkpt>
      <trkpt lat="43.03671" lon="-0.34085">
        <ele>1511.8</ele>
        <time>2026-02-07T12:33:17.000Z</time>
      </trkpt>
      <trkpt lat="43.03671" lon="-0.34085">
        <ele>1511.8</ele>
        <time>2026-02-07T12:33:20.000Z</time>
      </trkpt>
      <trkpt lat="43.03671" lon="-0.34085">
        <ele>1511.8</ele>
        <time>2026-02-07T12:33:23.000Z</time>
      </trkpt>
      <trkpt lat="43.03671" lon="-0.34085">
        <ele>1511.8</ele>
        <time>2026-02-07T12:33:26.000Z</time>
      </trkpt>
      <trkpt lat="43.03671" lon="-0.34085">
        <ele>1511.7</ele>
        <time>2026-02-07T12:33:29.000Z</time>
      </trkpt>
      <trkpt lat="43.03671" lon="-0.34085">
        <ele>1511.7</ele>
        <time>2026-02-07T12:33:32.000Z</time>
      </trkpt>
      <trkpt lat="43.03671" lon="-0.34085">
        <ele>1511.7</ele>
        <time>2026-02-07T12:33:33.000Z</time>
      </trkpt>
      <trkpt lat="43.03671" lon="-0.34085">
        <ele>1511.7</ele>
        <time>2026-02-07T12:33:34.000Z</time>
      </trkpt>
      <trkpt lat="43.03671" lon="-0.34085">
        <ele>1511.7</ele>
        <time>2026-02-07T12:33:37.000Z</time>
      </trkpt>
      <trkpt lat="43.03671" lon="-0.34085">
        <ele>1511.7</ele>
        <time>2026-02-07T12:33:38.000Z</time>
      </trkpt>
      <trkpt lat="43.03671" lon="-0.34085">
        <ele>1511.7</ele>
        <time>2026-02-07T12:33:39.000Z</time>
      </trkpt>
      <trkpt lat="43.03671" lon="-0.34085">
        <ele>1511.7</ele>
        <time>2026-02-07T12:33:42.000Z</time>
      </trkpt>
      <trkpt lat="43.03671" lon="-0.34085">
        <ele>1511.7</ele>
        <time>2026-02-07T12:33:43.000Z</time>
      </trkpt>
      <trkpt lat="43.03671" lon="-0.34085">
        <ele>1511.7</ele>
        <time>2026-02-07T12:33:44.000Z</time>
      </trkpt>
      <trkpt lat="43.03671" lon="-0.34085">
        <ele>1511.7</ele>
        <time>2026-02-07T12:33:45.000Z</time>
      </trkpt>
      <trkpt lat="43.03671" lon="-0.34085">
        <ele>1511.7</ele>
        <time>2026-02-07T12:33:46.000Z</time>
      </trkpt>
      <trkpt lat="43.03671" lon="-0.34085">
        <ele>1511.7</ele>
        <time>2026-02-07T12:33:47.000Z</time>
      </trkpt>
      <trkpt lat="43.03671" lon="-0.34085">
        <ele>1511.7</ele>
        <time>2026-02-07T12:33:48.000Z</time>
      </trkpt>
      <trkpt lat="43.03671" lon="-0.34085">
        <ele>1511.7</ele>
        <time>2026-02-07T12:33:49.000Z</time>
      </trkpt>
      <trkpt lat="43.03671" lon="-0.34085">
        <ele>1511.7</ele>
        <time>2026-02-07T12:33:52.000Z</time>
      </trkpt>
      <trkpt lat="43.03671" lon="-0.34085">
        <ele>1511.7</ele>
        <time>2026-02-07T12:33:55.000Z</time>
      </trkpt>
      <trkpt lat="43.03671" lon="-0.34085">
        <ele>1511.7</ele>
        <time>2026-02-07T12:33:58.000Z</time>
      </trkpt>
      <trkpt lat="43.03671" lon="-0.34085">
        <ele>1511.7</ele>
        <time>2026-02-07T12:34:00.000Z</time>
      </trkpt>
      <trkpt lat="43.03671" lon="-0.34085">
        <ele>1511.7</ele>
        <time>2026-02-07T12:34:01.000Z</time>
      </trkpt>
      <trkpt lat="43.03671" lon="-0.34085">
        <ele>1511.7</ele>
        <time>2026-02-07T12:34:04.000Z</time>
      </trkpt>
      <trkpt lat="43.03671" lon="-0.34085">
        <ele>1511.7</ele>
        <time>2026-02-07T12:34:05.000Z</time>
      </trkpt>
      <trkpt lat="43.03671" lon="-0.34085">
        <ele>1511.7</ele>
        <time>2026-02-07T12:34:06.000Z</time>
      </trkpt>
      <trkpt lat="43.03671" lon="-0.34085">
        <ele>1511.7</ele>
        <time>2026-02-07T12:34:07.000Z</time>
      </trkpt>
      <trkpt lat="43.03671" lon="-0.34085">
        <ele>1511.7</ele>
        <time>2026-02-07T12:34:10.000Z</time>
      </trkpt>
      <trkpt lat="43.03671" lon="-0.34085">
        <ele>1511.7</ele>
        <time>2026-02-07T12:34:13.000Z</time>
      </trkpt>
      <trkpt lat="43.03671" lon="-0.34085">
        <ele>1511.7</ele>
        <time>2026-02-07T12:34:16.000Z</time>
      </trkpt>
      <trkpt lat="43.03671" lon="-0.34085">
        <ele>1511.7</ele>
        <time>2026-02-07T12:34:19.000Z</time>
      </trkpt>
      <trkpt lat="43.03671" lon="-0.34085">
        <ele>1511.7</ele>
        <time>2026-02-07T12:34:22.000Z</time>
      </trkpt>
      <trkpt lat="43.03671" lon="-0.34085">
        <ele>1511.7</ele>
        <time>2026-02-07T12:34:25.000Z</time>
      </trkpt>
      <trkpt lat="43.03671" lon="-0.34085">
        <ele>1511.7</ele>
        <time>2026-02-07T12:34:26.000Z</time>
      </trkpt>
      <trkpt lat="43.03671" lon="-0.34085">
        <ele>1511.7</ele>
        <time>2026-02-07T12:34:27.000Z</time>
      </trkpt>
      <trkpt lat="43.03671" lon="-0.34085">
        <ele>1511.7</ele>
        <time>2026-02-07T12:34:28.000Z</time>
      </trkpt>
      <trkpt lat="43.03671" lon="-0.34085">
        <ele>1511.7</ele>
        <time>2026-02-07T12:34:29.000Z</time>
      </trkpt>
      <trkpt lat="43.03671" lon="-0.34085">
        <ele>1511.7</ele>
        <time>2026-02-07T12:34:30.000Z</time>
      </trkpt>
      <trkpt lat="43.03671" lon="-0.34085">
        <ele>1511.7</ele>
        <time>2026-02-07T12:34:31.000Z</time>
      </trkpt>
      <trkpt lat="43.03671" lon="-0.34085">
        <ele>1511.7</ele>
        <time>2026-02-07T12:34:32.000Z</time>
      </trkpt>
      <trkpt lat="43.03671" lon="-0.34085">
        <ele>1511.7</ele>
        <time>2026-02-07T12:34:33.000Z</time>
      </trkpt>
      <trkpt lat="43.03671" lon="-0.34085">
        <ele>1511.7</ele>
        <time>2026-02-07T12:34:34.000Z</time>
      </trkpt>
      <trkpt lat="43.03671" lon="-0.34085">
        <ele>1511.7</ele>
        <time>2026-02-07T12:34:35.000Z</time>
      </trkpt>
      <trkpt lat="43.03671" lon="-0.34085">
        <ele>1511.7</ele>
        <time>2026-02-07T12:34:36.000Z</time>
      </trkpt>
      <trkpt lat="43.03671" lon="-0.34085">
        <ele>1511.7</ele>
        <time>2026-02-07T12:34:39.000Z</time>
      </trkpt>
      <trkpt lat="43.03671" lon="-0.34085">
        <ele>1511.7</ele>
        <time>2026-02-07T12:34:40.000Z</time>
      </trkpt>
      <trkpt lat="43.03671" lon="-0.34085">
        <ele>1511.7</ele>
        <time>2026-02-07T12:34:41.000Z</time>
      </trkpt>
      <trkpt lat="43.03671" lon="-0.34085">
        <ele>1511.7</ele>
        <time>2026-02-07T12:34:44.000Z</time>
      </trkpt>
      <trkpt lat="43.03671" lon="-0.34085">
        <ele>1511.7</ele>
        <time>2026-02-07T12:34:47.000Z</time>
      </trkpt>
      <trkpt lat="43.03671" lon="-0.34085">
        <ele>1511.7</ele>
        <time>2026-02-07T12:34:50.000Z</time>
      </trkpt>
      <trkpt lat="43.03671" lon="-0.34085">
        <ele>1511.7</ele>
        <time>2026-02-07T12:34:53.000Z</time>
      </trkpt>
      <trkpt lat="43.03671" lon="-0.34085">
        <ele>1511.7</ele>
        <time>2026-02-07T12:34:56.000Z</time>
      </trkpt>
      <trkpt lat="43.03671" lon="-0.34085">
        <ele>1511.7</ele>
        <time>2026-02-07T12:34:59.000Z</time>
      </trkpt>
      <trkpt lat="43.03671" lon="-0.34085">
        <ele>1511.7</ele>
        <time>2026-02-07T12:35:02.000Z</time>
      </trkpt>
      <trkpt lat="43.03671" lon="-0.34085">
        <ele>1511.7</ele>
        <time>2026-02-07T12:35:05.000Z</time>
      </trkpt>
      <trkpt lat="43.03671" lon="-0.34085">
        <ele>1511.7</ele>
        <time>2026-02-07T12:35:08.000Z</time>
      </trkpt>
      <trkpt lat="43.03671" lon="-0.34085">
        <ele>1511.7</ele>
        <time>2026-02-07T12:35:11.000Z</time>
      </trkpt>
      <trkpt lat="43.03671" lon="-0.34085">
        <ele>1511.7</ele>
        <time>2026-02-07T12:35:14.000Z</time>
      </trkpt>
      <trkpt lat="43.03671" lon="-0.34085">
        <ele>1511.7</ele>
        <time>2026-02-07T12:35:17.000Z</time>
      </trkpt>
      <trkpt lat="43.03671" lon="-0.34085">
        <ele>1511.7</ele>
        <time>2026-02-07T12:35:20.000Z</time>
      </trkpt>
      <trkpt lat="43.03671" lon="-0.34085">
        <ele>1511.7</ele>
        <time>2026-02-07T12:35:23.000Z</time>
      </trkpt>
      <trkpt lat="43.03671" lon="-0.34085">
        <ele>1511.7</ele>
        <time>2026-02-07T12:35:26.000Z</time>
      </trkpt>
      <trkpt lat="43.03671" lon="-0.34085">
        <ele>1511.7</ele>
        <time>2026-02-07T12:35:29.000Z</time>
      </trkpt>
      <trkpt lat="43.03671" lon="-0.34085">
        <ele>1511.7</ele>
        <time>2026-02-07T12:35:32.000Z</time>
      </trkpt>
      <trkpt lat="43.03671" lon="-0.34085">
        <ele>1511.7</ele>
        <time>2026-02-07T12:35:35.000Z</time>
      </trkpt>
      <trkpt lat="43.03671" lon="-0.34085">
        <ele>1511.7</ele>
        <time>2026-02-07T12:35:38.000Z</time>
      </trkpt>
      <trkpt lat="43.03671" lon="-0.34085">
        <ele>1511.7</ele>
        <time>2026-02-07T12:35:41.000Z</time>
      </trkpt>
      <trkpt lat="43.03671" lon="-0.34085">
        <ele>1511.7</ele>
        <time>2026-02-07T12:35:44.000Z</time>
      </trkpt>
      <trkpt lat="43.03671" lon="-0.34085">
        <ele>1511.7</ele>
        <time>2026-02-07T12:35:47.000Z</time>
      </trkpt>
      <trkpt lat="43.03671" lon="-0.34085">
        <ele>1511.7</ele>
        <time>2026-02-07T12:35:50.000Z</time>
      </trkpt>
      <trkpt lat="43.03671" lon="-0.34085">
        <ele>1511.7</ele>
        <time>2026-02-07T12:35:53.000Z</time>
      </trkpt>
      <trkpt lat="43.03671" lon="-0.34085">
        <ele>1511.7</ele>
        <time>2026-02-07T12:35:56.000Z</time>
      </trkpt>
      <trkpt lat="43.03671" lon="-0.34085">
        <ele>1511.7</ele>
        <time>2026-02-07T12:35:59.000Z</time>
      </trkpt>
      <trkpt lat="43.03671" lon="-0.34085">
        <ele>1511.7</ele>
        <time>2026-02-07T12:36:02.000Z</time>
      </trkpt>
      <trkpt lat="43.03671" lon="-0.34085">
        <ele>1511.7</ele>
        <time>2026-02-07T12:36:05.000Z</time>
      </trkpt>
      <trkpt lat="43.03671" lon="-0.34085">
        <ele>1511.7</ele>
        <time>2026-02-07T12:36:08.000Z</time>
      </trkpt>
      <trkpt lat="43.03671" lon="-0.34085">
        <ele>1511.7</ele>
        <time>2026-02-07T12:36:11.000Z</time>
      </trkpt>
      <trkpt lat="43.03671" lon="-0.34085">
        <ele>1511.7</ele>
        <time>2026-02-07T12:36:14.000Z</time>
      </trkpt>
      <trkpt lat="43.03671" lon="-0.34085">
        <ele>1511.7</ele>
        <time>2026-02-07T12:36:17.000Z</time>
      </trkpt>
      <trkpt lat="43.03671" lon="-0.34085">
        <ele>1511.8</ele>
        <time>2026-02-07T12:36:20.000Z</time>
      </trkpt>
      <trkpt lat="43.03671" lon="-0.34085">
        <ele>1511.8</ele>
        <time>2026-02-07T12:36:23.000Z</time>
      </trkpt>
      <trkpt lat="43.03671" lon="-0.34085">
        <ele>1511.8</ele>
        <time>2026-02-07T12:36:26.000Z</time>
      </trkpt>
      <trkpt lat="43.03671" lon="-0.34085">
        <ele>1511.8</ele>
        <time>2026-02-07T12:36:29.000Z</time>
      </trkpt>
      <trkpt lat="43.03671" lon="-0.34085">
        <ele>1511.8</ele>
        <time>2026-02-07T12:36:32.000Z</time>
      </trkpt>
      <trkpt lat="43.03671" lon="-0.34085">
        <ele>1511.8</ele>
        <time>2026-02-07T12:36:35.000Z</time>
      </trkpt>
      <trkpt lat="43.03671" lon="-0.34085">
        <ele>1511.8</ele>
        <time>2026-02-07T12:36:38.000Z</time>
      </trkpt>
      <trkpt lat="43.03671" lon="-0.34085">
        <ele>1511.8</ele>
        <time>2026-02-07T12:36:41.000Z</time>
      </trkpt>
      <trkpt lat="43.03671" lon="-0.34085">
        <ele>1511.8</ele>
        <time>2026-02-07T12:36:44.000Z</time>
      </trkpt>
      <trkpt lat="43.03671" lon="-0.34085">
        <ele>1511.8</ele>
        <time>2026-02-07T12:36:47.000Z</time>
      </trkpt>
      <trkpt lat="43.03671" lon="-0.34085">
        <ele>1511.8</ele>
        <time>2026-02-07T12:36:50.000Z</time>
      </trkpt>
      <trkpt lat="43.03671" lon="-0.34085">
        <ele>1511.8</ele>
        <time>2026-02-07T12:36:53.000Z</time>
      </trkpt>
      <trkpt lat="43.03671" lon="-0.34085">
        <ele>1511.8</ele>
        <time>2026-02-07T12:36:56.000Z</time>
      </trkpt>
      <trkpt lat="43.03671" lon="-0.34085">
        <ele>1511.8</ele>
        <time>2026-02-07T12:36:59.000Z</time>
      </trkpt>
      <trkpt lat="43.03671" lon="-0.34085">
        <ele>1511.8</ele>
        <time>2026-02-07T12:37:02.000Z</time>
      </trkpt>
      <trkpt lat="43.03671" lon="-0.34085">
        <ele>1511.8</ele>
        <time>2026-02-07T12:37:05.000Z</time>
      </trkpt>
      <trkpt lat="43.03671" lon="-0.34085">
        <ele>1511.8</ele>
        <time>2026-02-07T12:37:08.000Z</time>
      </trkpt>
      <trkpt lat="43.03671" lon="-0.34085">
        <ele>1511.8</ele>
        <time>2026-02-07T12:37:11.000Z</time>
      </trkpt>
      <trkpt lat="43.03671" lon="-0.34085">
        <ele>1511.8</ele>
        <time>2026-02-07T12:37:14.000Z</time>
      </trkpt>
      <trkpt lat="43.03671" lon="-0.34085">
        <ele>1511.8</ele>
        <time>2026-02-07T12:37:17.000Z</time>
      </trkpt>
      <trkpt lat="43.03671" lon="-0.34085">
        <ele>1511.8</ele>
        <time>2026-02-07T12:37:20.000Z</time>
      </trkpt>
      <trkpt lat="43.03671" lon="-0.34085">
        <ele>1511.8</ele>
        <time>2026-02-07T12:37:23.000Z</time>
      </trkpt>
      <trkpt lat="43.03671" lon="-0.34085">
        <ele>1511.8</ele>
        <time>2026-02-07T12:37:26.000Z</time>
      </trkpt>
      <trkpt lat="43.03671" lon="-0.34085">
        <ele>1511.8</ele>
        <time>2026-02-07T12:37:29.000Z</time>
      </trkpt>
      <trkpt lat="43.03671" lon="-0.34085">
        <ele>1511.8</ele>
        <time>2026-02-07T12:37:32.000Z</time>
      </trkpt>
      <trkpt lat="43.03671" lon="-0.34085">
        <ele>1511.9</ele>
        <time>2026-02-07T12:37:35.000Z</time>
      </trkpt>
      <trkpt lat="43.03671" lon="-0.34085">
        <ele>1511.9</ele>
        <time>2026-02-07T12:37:38.000Z</time>
      </trkpt>
      <trkpt lat="43.03671" lon="-0.34085">
        <ele>1511.9</ele>
        <time>2026-02-07T12:37:41.000Z</time>
      </trkpt>
      <trkpt lat="43.03671" lon="-0.34085">
        <ele>1511.9</ele>
        <time>2026-02-07T12:37:44.000Z</time>
      </trkpt>
      <trkpt lat="43.03671" lon="-0.34085">
        <ele>1511.9</ele>
        <time>2026-02-07T12:37:47.000Z</time>
      </trkpt>
      <trkpt lat="43.03671" lon="-0.34085">
        <ele>1511.9</ele>
        <time>2026-02-07T12:37:50.000Z</time>
      </trkpt>
      <trkpt lat="43.03671" lon="-0.34085">
        <ele>1511.9</ele>
        <time>2026-02-07T12:37:53.000Z</time>
      </trkpt>
      <trkpt lat="43.03671" lon="-0.34085">
        <ele>1511.9</ele>
        <time>2026-02-07T12:37:56.000Z</time>
      </trkpt>
      <trkpt lat="43.03671" lon="-0.34085">
        <ele>1511.9</ele>
        <time>2026-02-07T12:37:59.000Z</time>
      </trkpt>
      <trkpt lat="43.03671" lon="-0.34085">
        <ele>1511.9</ele>
        <time>2026-02-07T12:38:02.000Z</time>
      </trkpt>
      <trkpt lat="43.03671" lon="-0.34085">
        <ele>1511.9</ele>
        <time>2026-02-07T12:38:05.000Z</time>
      </trkpt>
      <trkpt lat="43.03671" lon="-0.34085">
        <ele>1511.9</ele>
        <time>2026-02-07T12:38:08.000Z</time>
      </trkpt>
      <trkpt lat="43.03671" lon="-0.34085">
        <ele>1511.9</ele>
        <time>2026-02-07T12:38:11.000Z</time>
      </trkpt>
      <trkpt lat="43.03671" lon="-0.34085">
        <ele>1512</ele>
        <time>2026-02-07T12:38:14.000Z</time>
      </trkpt>
      <trkpt lat="43.03671" lon="-0.34085">
        <ele>1512</ele>
        <time>2026-02-07T12:38:17.000Z</time>
      </trkpt>
      <trkpt lat="43.03671" lon="-0.34085">
        <ele>1512</ele>
        <time>2026-02-07T12:38:20.000Z</time>
      </trkpt>
      <trkpt lat="43.03671" lon="-0.34085">
        <ele>1512</ele>
        <time>2026-02-07T12:38:23.000Z</time>
      </trkpt>
      <trkpt lat="43.03671" lon="-0.34085">
        <ele>1511.9</ele>
        <time>2026-02-07T12:38:26.000Z</time>
      </trkpt>
      <trkpt lat="43.03671" lon="-0.34085">
        <ele>1512</ele>
        <time>2026-02-07T12:38:29.000Z</time>
      </trkpt>
      <trkpt lat="43.03671" lon="-0.34085">
        <ele>1511.9</ele>
        <time>2026-02-07T12:38:32.000Z</time>
      </trkpt>
      <trkpt lat="43.03671" lon="-0.34085">
        <ele>1511.9</ele>
        <time>2026-02-07T12:38:35.000Z</time>
      </trkpt>
      <trkpt lat="43.03671" lon="-0.34085">
        <ele>1511.9</ele>
        <time>2026-02-07T12:38:38.000Z</time>
      </trkpt>
      <trkpt lat="43.03671" lon="-0.34085">
        <ele>1511.9</ele>
        <time>2026-02-07T12:38:41.000Z</time>
      </trkpt>
      <trkpt lat="43.03671" lon="-0.34085">
        <ele>1511.9</ele>
        <time>2026-02-07T12:38:44.000Z</time>
      </trkpt>
      <trkpt lat="43.03671" lon="-0.34085">
        <ele>1511.9</ele>
        <time>2026-02-07T12:38:47.000Z</time>
      </trkpt>
      <trkpt lat="43.03671" lon="-0.34085">
        <ele>1511.9</ele>
        <time>2026-02-07T12:38:50.000Z</time>
      </trkpt>
      <trkpt lat="43.03671" lon="-0.34085">
        <ele>1511.9</ele>
        <time>2026-02-07T12:38:53.000Z</time>
      </trkpt>
      <trkpt lat="43.03671" lon="-0.34085">
        <ele>1511.9</ele>
        <time>2026-02-07T12:38:56.000Z</time>
      </trkpt>
      <trkpt lat="43.03671" lon="-0.34085">
        <ele>1511.9</ele>
        <time>2026-02-07T12:38:59.000Z</time>
      </trkpt>
      <trkpt lat="43.03671" lon="-0.34085">
        <ele>1512</ele>
        <time>2026-02-07T12:39:02.000Z</time>
      </trkpt>
      <trkpt lat="43.03671" lon="-0.34085">
        <ele>1512</ele>
        <time>2026-02-07T12:39:05.000Z</time>
      </trkpt>
      <trkpt lat="43.03671" lon="-0.34085">
        <ele>1512</ele>
        <time>2026-02-07T12:39:08.000Z</time>
      </trkpt>
      <trkpt lat="43.03671" lon="-0.34085">
        <ele>1512</ele>
        <time>2026-02-07T12:39:11.000Z</time>
      </trkpt>
      <trkpt lat="43.03671" lon="-0.34085">
        <ele>1512</ele>
        <time>2026-02-07T12:39:14.000Z</time>
      </trkpt>
      <trkpt lat="43.03671" lon="-0.34085">
        <ele>1512</ele>
        <time>2026-02-07T12:39:17.000Z</time>
      </trkpt>
      <trkpt lat="43.03671" lon="-0.34085">
        <ele>1512</ele>
        <time>2026-02-07T12:39:20.000Z</time>
      </trkpt>
      <trkpt lat="43.03671" lon="-0.34085">
        <ele>1512</ele>
        <time>2026-02-07T12:39:23.000Z</time>
      </trkpt>
      <trkpt lat="43.03671" lon="-0.34085">
        <ele>1512</ele>
        <time>2026-02-07T12:39:26.000Z</time>
      </trkpt>
      <trkpt lat="43.03671" lon="-0.34085">
        <ele>1512</ele>
        <time>2026-02-07T12:39:29.000Z</time>
      </trkpt>
      <trkpt lat="43.03671" lon="-0.34085">
        <ele>1512</ele>
        <time>2026-02-07T12:39:32.000Z</time>
      </trkpt>
      <trkpt lat="43.03671" lon="-0.34085">
        <ele>1512</ele>
        <time>2026-02-07T12:39:35.000Z</time>
      </trkpt>
      <trkpt lat="43.03671" lon="-0.34085">
        <ele>1512</ele>
        <time>2026-02-07T12:39:38.000Z</time>
      </trkpt>
      <trkpt lat="43.03671" lon="-0.34085">
        <ele>1512</ele>
        <time>2026-02-07T12:39:40.000Z</time>
      </trkpt>
      <trkpt lat="43.03671" lon="-0.34085">
        <ele>1512</ele>
        <time>2026-02-07T12:39:41.000Z</time>
      </trkpt>
      <trkpt lat="43.03671" lon="-0.34085">
        <ele>1512</ele>
        <time>2026-02-07T12:39:44.000Z</time>
      </trkpt>
      <trkpt lat="43.03671" lon="-0.34085">
        <ele>1512</ele>
        <time>2026-02-07T12:39:45.000Z</time>
      </trkpt>
      <trkpt lat="43.03671" lon="-0.34085">
        <ele>1512</ele>
        <time>2026-02-07T12:39:46.000Z</time>
      </trkpt>
      <trkpt lat="43.03671" lon="-0.34085">
        <ele>1512</ele>
        <time>2026-02-07T12:39:49.000Z</time>
      </trkpt>
      <trkpt lat="43.03671" lon="-0.34085">
        <ele>1512</ele>
        <time>2026-02-07T12:39:52.000Z</time>
      </trkpt>
      <trkpt lat="43.03671" lon="-0.34085">
        <ele>1512</ele>
        <time>2026-02-07T12:39:55.000Z</time>
      </trkpt>
      <trkpt lat="43.03671" lon="-0.34085">
        <ele>1512</ele>
        <time>2026-02-07T12:39:58.000Z</time>
      </trkpt>
      <trkpt lat="43.03671" lon="-0.34085">
        <ele>1512</ele>
        <time>2026-02-07T12:40:01.000Z</time>
      </trkpt>
      <trkpt lat="43.03671" lon="-0.34085">
        <ele>1512</ele>
        <time>2026-02-07T12:40:04.000Z</time>
      </trkpt>
      <trkpt lat="43.03671" lon="-0.34085">
        <ele>1512</ele>
        <time>2026-02-07T12:40:07.000Z</time>
      </trkpt>
      <trkpt lat="43.03671" lon="-0.34085">
        <ele>1512</ele>
        <time>2026-02-07T12:40:10.000Z</time>
      </trkpt>
      <trkpt lat="43.03671" lon="-0.34085">
        <ele>1512</ele>
        <time>2026-02-07T12:40:13.000Z</time>
      </trkpt>
      <trkpt lat="43.03671" lon="-0.34085">
        <ele>1512</ele>
        <time>2026-02-07T12:40:16.000Z</time>
      </trkpt>
      <trkpt lat="43.03671" lon="-0.34085">
        <ele>1512</ele>
        <time>2026-02-07T12:40:19.000Z</time>
      </trkpt>
      <trkpt lat="43.03671" lon="-0.34085">
        <ele>1512</ele>
        <time>2026-02-07T12:40:22.000Z</time>
      </trkpt>
      <trkpt lat="43.03671" lon="-0.34085">
        <ele>1512</ele>
        <time>2026-02-07T12:40:25.000Z</time>
      </trkpt>
      <trkpt lat="43.03671" lon="-0.34085">
        <ele>1512</ele>
        <time>2026-02-07T12:40:28.000Z</time>
      </trkpt>
      <trkpt lat="43.03671" lon="-0.34085">
        <ele>1512</ele>
        <time>2026-02-07T12:40:31.000Z</time>
      </trkpt>
      <trkpt lat="43.03671" lon="-0.34085">
        <ele>1512</ele>
        <time>2026-02-07T12:40:34.000Z</time>
      </trkpt>
      <trkpt lat="43.03671" lon="-0.34085">
        <ele>1512</ele>
        <time>2026-02-07T12:40:35.000Z</time>
      </trkpt>
      <trkpt lat="43.03671" lon="-0.34085">
        <ele>1512</ele>
        <time>2026-02-07T12:40:36.000Z</time>
      </trkpt>
      <trkpt lat="43.03671" lon="-0.34085">
        <ele>1512</ele>
        <time>2026-02-07T12:40:37.000Z</time>
      </trkpt>
      <trkpt lat="43.03671" lon="-0.34085">
        <ele>1512</ele>
        <time>2026-02-07T12:40:38.000Z</time>
      </trkpt>
      <trkpt lat="43.03671" lon="-0.34085">
        <ele>1512</ele>
        <time>2026-02-07T12:40:39.000Z</time>
      </trkpt>
      <trkpt lat="43.03671" lon="-0.34085">
        <ele>1512</ele>
        <time>2026-02-07T12:40:42.000Z</time>
      </trkpt>
      <trkpt lat="43.03671" lon="-0.34085">
        <ele>1512</ele>
        <time>2026-02-07T12:40:45.000Z</time>
      </trkpt>
      <trkpt lat="43.03671" lon="-0.34085">
        <ele>1512</ele>
        <time>2026-02-07T12:40:46.000Z</time>
      </trkpt>
      <trkpt lat="43.03671" lon="-0.34085">
        <ele>1512</ele>
        <time>2026-02-07T12:40:49.000Z</time>
      </trkpt>
      <trkpt lat="43.03671" lon="-0.34085">
        <ele>1512</ele>
        <time>2026-02-07T12:40:52.000Z</time>
      </trkpt>
      <trkpt lat="43.03671" lon="-0.34085">
        <ele>1511.9</ele>
        <time>2026-02-07T12:40:53.000Z</time>
      </trkpt>
      <trkpt lat="43.03671" lon="-0.34085">
        <ele>1511.9</ele>
        <time>2026-02-07T12:40:56.000Z</time>
      </trkpt>
      <trkpt lat="43.03671" lon="-0.34085">
        <ele>1511.9</ele>
        <time>2026-02-07T12:40:59.000Z</time>
      </trkpt>
      <trkpt lat="43.03671" lon="-0.34085">
        <ele>1511.9</ele>
        <time>2026-02-07T12:41:00.000Z</time>
      </trkpt>
      <trkpt lat="43.03671" lon="-0.34085">
        <ele>1511.9</ele>
        <time>2026-02-07T12:41:01.000Z</time>
      </trkpt>
      <trkpt lat="43.03671" lon="-0.34085">
        <ele>1511.9</ele>
        <time>2026-02-07T12:41:02.000Z</time>
      </trkpt>
      <trkpt lat="43.03671" lon="-0.34085">
        <ele>1511.9</ele>
        <time>2026-02-07T12:41:03.000Z</time>
      </trkpt>
      <trkpt lat="43.03671" lon="-0.34085">
        <ele>1511.9</ele>
        <time>2026-02-07T12:41:04.000Z</time>
      </trkpt>
      <trkpt lat="43.03671" lon="-0.34085">
        <ele>1511.9</ele>
        <time>2026-02-07T12:41:07.000Z</time>
      </trkpt>
      <trkpt lat="43.03671" lon="-0.34085">
        <ele>1511.9</ele>
        <time>2026-02-07T12:41:08.000Z</time>
      </trkpt>
      <trkpt lat="43.03671" lon="-0.34085">
        <ele>1511.9</ele>
        <time>2026-02-07T12:41:09.000Z</time>
      </trkpt>
      <trkpt lat="43.03671" lon="-0.34085">
        <ele>1511.9</ele>
        <time>2026-02-07T12:41:10.000Z</time>
      </trkpt>
      <trkpt lat="43.03671" lon="-0.34085">
        <ele>1511.9</ele>
        <time>2026-02-07T12:41:11.000Z</time>
      </trkpt>
      <trkpt lat="43.03671" lon="-0.34085">
        <ele>1511.9</ele>
        <time>2026-02-07T12:41:14.000Z</time>
      </trkpt>
      <trkpt lat="43.03671" lon="-0.34085">
        <ele>1511.9</ele>
        <time>2026-02-07T12:41:17.000Z</time>
      </trkpt>
      <trkpt lat="43.03671" lon="-0.34085">
        <ele>1511.9</ele>
        <time>2026-02-07T12:41:20.000Z</time>
      </trkpt>
      <trkpt lat="43.03671" lon="-0.34085">
        <ele>1511.9</ele>
        <time>2026-02-07T12:41:21.000Z</time>
      </trkpt>
      <trkpt lat="43.03671" lon="-0.34085">
        <ele>1511.9</ele>
        <time>2026-02-07T12:41:22.000Z</time>
      </trkpt>
      <trkpt lat="43.03671" lon="-0.34085">
        <ele>1511.9</ele>
        <time>2026-02-07T12:41:23.000Z</time>
      </trkpt>
      <trkpt lat="43.03671" lon="-0.34085">
        <ele>1511.9</ele>
        <time>2026-02-07T12:41:24.000Z</time>
      </trkpt>
      <trkpt lat="43.03671" lon="-0.34085">
        <ele>1511.9</ele>
        <time>2026-02-07T12:41:27.000Z</time>
      </trkpt>
      <trkpt lat="43.03671" lon="-0.34085">
        <ele>1511.9</ele>
        <time>2026-02-07T12:41:30.000Z</time>
      </trkpt>
      <trkpt lat="43.03671" lon="-0.34085">
        <ele>1512</ele>
        <time>2026-02-07T12:41:33.000Z</time>
      </trkpt>
      <trkpt lat="43.03671" lon="-0.34085">
        <ele>1512</ele>
        <time>2026-02-07T12:41:36.000Z</time>
      </trkpt>
      <trkpt lat="43.03671" lon="-0.34085">
        <ele>1512</ele>
        <time>2026-02-07T12:41:39.000Z</time>
      </trkpt>
      <trkpt lat="43.03671" lon="-0.34085">
        <ele>1512</ele>
        <time>2026-02-07T12:41:42.000Z</time>
      </trkpt>
      <trkpt lat="43.03671" lon="-0.34085">
        <ele>1512</ele>
        <time>2026-02-07T12:41:45.000Z</time>
      </trkpt>
      <trkpt lat="43.03671" lon="-0.34085">
        <ele>1512</ele>
        <time>2026-02-07T12:41:48.000Z</time>
      </trkpt>
      <trkpt lat="43.03671" lon="-0.34085">
        <ele>1512</ele>
        <time>2026-02-07T12:41:51.000Z</time>
      </trkpt>
      <trkpt lat="43.03671" lon="-0.34085">
        <ele>1512</ele>
        <time>2026-02-07T12:41:54.000Z</time>
      </trkpt>
      <trkpt lat="43.03671" lon="-0.34085">
        <ele>1512</ele>
        <time>2026-02-07T12:41:57.000Z</time>
      </trkpt>
      <trkpt lat="43.03671" lon="-0.34085">
        <ele>1512</ele>
        <time>2026-02-07T12:42:00.000Z</time>
      </trkpt>
      <trkpt lat="43.03671" lon="-0.34085">
        <ele>1512</ele>
        <time>2026-02-07T12:42:03.000Z</time>
      </trkpt>
      <trkpt lat="43.03671" lon="-0.34085">
        <ele>1512</ele>
        <time>2026-02-07T12:42:06.000Z</time>
      </trkpt>
      <trkpt lat="43.03671" lon="-0.34085">
        <ele>1512</ele>
        <time>2026-02-07T12:42:09.000Z</time>
      </trkpt>
      <trkpt lat="43.03671" lon="-0.34085">
        <ele>1512</ele>
        <time>2026-02-07T12:42:12.000Z</time>
      </trkpt>
      <trkpt lat="43.03671" lon="-0.34085">
        <ele>1512</ele>
        <time>2026-02-07T12:42:14.000Z</time>
      </trkpt>
      <trkpt lat="43.03671" lon="-0.34085">
        <ele>1512</ele>
        <time>2026-02-07T12:42:15.000Z</time>
      </trkpt>
      <trkpt lat="43.03671" lon="-0.34085">
        <ele>1512.1</ele>
        <time>2026-02-07T12:42:16.000Z</time>
      </trkpt>
      <trkpt lat="43.03671" lon="-0.34085">
        <ele>1512.1</ele>
        <time>2026-02-07T12:42:19.000Z</time>
      </trkpt>
      <trkpt lat="43.03672" lon="-0.34084">
        <ele>1512.2</ele>
        <time>2026-02-07T12:42:22.000Z</time>
      </trkpt>
      <trkpt lat="43.03672" lon="-0.34084">
        <ele>1512.3</ele>
        <time>2026-02-07T12:42:25.000Z</time>
      </trkpt>
      <trkpt lat="43.03672" lon="-0.34084">
        <ele>1512.3</ele>
        <time>2026-02-07T12:42:26.000Z</time>
      </trkpt>
      <trkpt lat="43.03672" lon="-0.34084">
        <ele>1512.3</ele>
        <time>2026-02-07T12:42:29.000Z</time>
      </trkpt>
      <trkpt lat="43.03672" lon="-0.34084">
        <ele>1512.4</ele>
        <time>2026-02-07T12:42:30.000Z</time>
      </trkpt>
      <trkpt lat="43.03672" lon="-0.34084">
        <ele>1512.4</ele>
        <time>2026-02-07T12:42:31.000Z</time>
      </trkpt>
      <trkpt lat="43.03672" lon="-0.34084">
        <ele>1512.5</ele>
        <time>2026-02-07T12:42:34.000Z</time>
      </trkpt>
      <trkpt lat="43.03672" lon="-0.34084">
        <ele>1512.5</ele>
        <time>2026-02-07T12:42:35.000Z</time>
      </trkpt>
      <trkpt lat="43.03672" lon="-0.34084">
        <ele>1512.5</ele>
        <time>2026-02-07T12:42:36.000Z</time>
      </trkpt>
      <trkpt lat="43.03672" lon="-0.34084">
        <ele>1512.5</ele>
        <time>2026-02-07T12:42:37.000Z</time>
      </trkpt>
      <trkpt lat="43.03672" lon="-0.34084">
        <ele>1512.6</ele>
        <time>2026-02-07T12:42:38.000Z</time>
      </trkpt>
      <trkpt lat="43.03672" lon="-0.34084">
        <ele>1512.6</ele>
        <time>2026-02-07T12:42:39.000Z</time>
      </trkpt>
      <trkpt lat="43.03672" lon="-0.34084">
        <ele>1512.7</ele>
        <time>2026-02-07T12:42:42.000Z</time>
      </trkpt>
      <trkpt lat="43.03672" lon="-0.34084">
        <ele>1512.7</ele>
        <time>2026-02-07T12:42:43.000Z</time>
      </trkpt>
      <trkpt lat="43.03672" lon="-0.34084">
        <ele>1512.7</ele>
        <time>2026-02-07T12:42:44.000Z</time>
      </trkpt>
      <trkpt lat="43.03672" lon="-0.34084">
        <ele>1512.8</ele>
        <time>2026-02-07T12:42:47.000Z</time>
      </trkpt>
      <trkpt lat="43.03672" lon="-0.34084">
        <ele>1512.9</ele>
        <time>2026-02-07T12:42:50.000Z</time>
      </trkpt>
      <trkpt lat="43.03672" lon="-0.34084">
        <ele>1513</ele>
        <time>2026-02-07T12:42:53.000Z</time>
      </trkpt>
      <trkpt lat="43.03672" lon="-0.34084">
        <ele>1513</ele>
        <time>2026-02-07T12:42:54.000Z</time>
      </trkpt>
      <trkpt lat="43.03672" lon="-0.34084">
        <ele>1513</ele>
        <time>2026-02-07T12:42:55.000Z</time>
      </trkpt>
      <trkpt lat="43.03672" lon="-0.34084">
        <ele>1513.1</ele>
        <time>2026-02-07T12:42:56.000Z</time>
      </trkpt>
      <trkpt lat="43.03672" lon="-0.34084">
        <ele>1513.1</ele>
        <time>2026-02-07T12:42:57.000Z</time>
      </trkpt>
      <trkpt lat="43.03672" lon="-0.34084">
        <ele>1513.1</ele>
        <time>2026-02-07T12:43:00.000Z</time>
      </trkpt>
      <trkpt lat="43.03672" lon="-0.34084">
        <ele>1513.2</ele>
        <time>2026-02-07T12:43:03.000Z</time>
      </trkpt>
      <trkpt lat="43.03672" lon="-0.34084">
        <ele>1513.2</ele>
        <time>2026-02-07T12:43:04.000Z</time>
      </trkpt>
      <trkpt lat="43.03672" lon="-0.34085">
        <ele>1513.2</ele>
        <time>2026-02-07T12:43:05.000Z</time>
      </trkpt>
      <trkpt lat="43.03671" lon="-0.34085">
        <ele>1513.2</ele>
        <time>2026-02-07T12:43:06.000Z</time>
      </trkpt>
      <trkpt lat="43.03671" lon="-0.34084">
        <ele>1513.3</ele>
        <time>2026-02-07T12:43:09.000Z</time>
      </trkpt>
      <trkpt lat="43.03671" lon="-0.34084">
        <ele>1513.3</ele>
        <time>2026-02-07T12:43:12.000Z</time>
      </trkpt>
      <trkpt lat="43.03671" lon="-0.34084">
        <ele>1513.2</ele>
        <time>2026-02-07T12:43:15.000Z</time>
      </trkpt>
      <trkpt lat="43.03669" lon="-0.34084">
        <ele>1513.1</ele>
        <time>2026-02-07T12:43:18.000Z</time>
      </trkpt>
      <trkpt lat="43.03667" lon="-0.34084">
        <ele>1513</ele>
        <time>2026-02-07T12:43:21.000Z</time>
      </trkpt>
      <trkpt lat="43.03665" lon="-0.34083">
        <ele>1512.7</ele>
        <time>2026-02-07T12:43:24.000Z</time>
      </trkpt>
      <trkpt lat="43.03664" lon="-0.34081">
        <ele>1512.3</ele>
        <time>2026-02-07T12:43:27.000Z</time>
      </trkpt>
      <trkpt lat="43.03662" lon="-0.34079">
        <ele>1511.9</ele>
        <time>2026-02-07T12:43:30.000Z</time>
      </trkpt>
      <trkpt lat="43.03659" lon="-0.34077">
        <ele>1511.4</ele>
        <time>2026-02-07T12:43:33.000Z</time>
      </trkpt>
      <trkpt lat="43.03657" lon="-0.34075">
        <ele>1510.9</ele>
        <time>2026-02-07T12:43:36.000Z</time>
      </trkpt>
      <trkpt lat="43.03654" lon="-0.34073">
        <ele>1510.6</ele>
        <time>2026-02-07T12:43:39.000Z</time>
      </trkpt>
      <trkpt lat="43.03651" lon="-0.3407">
        <ele>1510.3</ele>
        <time>2026-02-07T12:43:42.000Z</time>
      </trkpt>
      <trkpt lat="43.03649" lon="-0.34068">
        <ele>1510</ele>
        <time>2026-02-07T12:43:45.000Z</time>
      </trkpt>
      <trkpt lat="43.03647" lon="-0.34066">
        <ele>1509.8</ele>
        <time>2026-02-07T12:43:48.000Z</time>
      </trkpt>
      <trkpt lat="43.03644" lon="-0.34063">
        <ele>1509.5</ele>
        <time>2026-02-07T12:43:51.000Z</time>
      </trkpt>
      <trkpt lat="43.03642" lon="-0.34061">
        <ele>1509.4</ele>
        <time>2026-02-07T12:43:54.000Z</time>
      </trkpt>
      <trkpt lat="43.03639" lon="-0.34059">
        <ele>1509.4</ele>
        <time>2026-02-07T12:43:57.000Z</time>
      </trkpt>
      <trkpt lat="43.03637" lon="-0.34058">
        <ele>1509.2</ele>
        <time>2026-02-07T12:44:00.000Z</time>
      </trkpt>
      <trkpt lat="43.03634" lon="-0.34057">
        <ele>1509.2</ele>
        <time>2026-02-07T12:44:03.000Z</time>
      </trkpt>
      <trkpt lat="43.03633" lon="-0.34056">
        <ele>1509.2</ele>
        <time>2026-02-07T12:44:06.000Z</time>
      </trkpt>
      <trkpt lat="43.03632" lon="-0.34056">
        <ele>1509.2</ele>
        <time>2026-02-07T12:44:09.000Z</time>
      </trkpt>
      <trkpt lat="43.03632" lon="-0.34056">
        <ele>1509.2</ele>
        <time>2026-02-07T12:44:12.000Z</time>
      </trkpt>
      <trkpt lat="43.03631" lon="-0.34056">
        <ele>1509.2</ele>
        <time>2026-02-07T12:44:15.000Z</time>
      </trkpt>
      <trkpt lat="43.03631" lon="-0.34057">
        <ele>1509.2</ele>
        <time>2026-02-07T12:44:18.000Z</time>
      </trkpt>
      <trkpt lat="43.03631" lon="-0.34057">
        <ele>1509.2</ele>
        <time>2026-02-07T12:44:21.000Z</time>
      </trkpt>
      <trkpt lat="43.03631" lon="-0.34057">
        <ele>1509.2</ele>
        <time>2026-02-07T12:44:22.000Z</time>
      </trkpt>
      <trkpt lat="43.03631" lon="-0.34057">
        <ele>1509.2</ele>
        <time>2026-02-07T12:44:23.000Z</time>
      </trkpt>
      <trkpt lat="43.03631" lon="-0.34057">
        <ele>1509.2</ele>
        <time>2026-02-07T12:44:24.000Z</time>
      </trkpt>
      <trkpt lat="43.03631" lon="-0.34057">
        <ele>1509.2</ele>
        <time>2026-02-07T12:44:27.000Z</time>
      </trkpt>
      <trkpt lat="43.03632" lon="-0.34058">
        <ele>1509.3</ele>
        <time>2026-02-07T12:44:30.000Z</time>
      </trkpt>
      <trkpt lat="43.03632" lon="-0.34058">
        <ele>1509.3</ele>
        <time>2026-02-07T12:44:31.000Z</time>
      </trkpt>
      <trkpt lat="43.03632" lon="-0.34058">
        <ele>1509.3</ele>
        <time>2026-02-07T12:44:32.000Z</time>
      </trkpt>
      <trkpt lat="43.03631" lon="-0.3406">
        <ele>1509.3</ele>
        <time>2026-02-07T12:44:35.000Z</time>
      </trkpt>
      <trkpt lat="43.03632" lon="-0.34061">
        <ele>1509.3</ele>
        <time>2026-02-07T12:44:36.000Z</time>
      </trkpt>
      <trkpt lat="43.03632" lon="-0.34061">
        <ele>1509.3</ele>
        <time>2026-02-07T12:44:37.000Z</time>
      </trkpt>
      <trkpt lat="43.03632" lon="-0.34061">
        <ele>1509.3</ele>
        <time>2026-02-07T12:44:38.000Z</time>
      </trkpt>
      <trkpt lat="43.03632" lon="-0.34061">
        <ele>1509.3</ele>
        <time>2026-02-07T12:44:39.000Z</time>
      </trkpt>
      <trkpt lat="43.03632" lon="-0.34061">
        <ele>1509.3</ele>
        <time>2026-02-07T12:44:40.000Z</time>
      </trkpt>
      <trkpt lat="43.03632" lon="-0.34061">
        <ele>1509.3</ele>
        <time>2026-02-07T12:44:41.000Z</time>
      </trkpt>
      <trkpt lat="43.03634" lon="-0.34061">
        <ele>1509.3</ele>
        <time>2026-02-07T12:44:44.000Z</time>
      </trkpt>
      <trkpt lat="43.03635" lon="-0.34061">
        <ele>1509.3</ele>
        <time>2026-02-07T12:44:47.000Z</time>
      </trkpt>
      <trkpt lat="43.03635" lon="-0.3406">
        <ele>1509.3</ele>
        <time>2026-02-07T12:44:48.000Z</time>
      </trkpt>
      <trkpt lat="43.03636" lon="-0.3406">
        <ele>1509.3</ele>
        <time>2026-02-07T12:44:49.000Z</time>
      </trkpt>
      <trkpt lat="43.03635" lon="-0.34057">
        <ele>1509.3</ele>
        <time>2026-02-07T12:44:52.000Z</time>
      </trkpt>
      <trkpt lat="43.03634" lon="-0.34056">
        <ele>1509.3</ele>
        <time>2026-02-07T12:44:55.000Z</time>
      </trkpt>
      <trkpt lat="43.03634" lon="-0.34056">
        <ele>1509.3</ele>
        <time>2026-02-07T12:44:57.000Z</time>
      </trkpt>
      <trkpt lat="43.03634" lon="-0.34056">
        <ele>1509.3</ele>
        <time>2026-02-07T12:44:58.000Z</time>
      </trkpt>
      <trkpt lat="43.03634" lon="-0.34056">
        <ele>1509.3</ele>
        <time>2026-02-07T12:45:01.000Z</time>
      </trkpt>
      <trkpt lat="43.03634" lon="-0.34056">
        <ele>1509.3</ele>
        <time>2026-02-07T12:45:04.000Z</time>
      </trkpt>
      <trkpt lat="43.03634" lon="-0.34056">
        <ele>1509.3</ele>
        <time>2026-02-07T12:45:05.000Z</time>
      </trkpt>
      <trkpt lat="43.03634" lon="-0.34056">
        <ele>1509.3</ele>
        <time>2026-02-07T12:45:06.000Z</time>
      </trkpt>
      <trkpt lat="43.03634" lon="-0.34056">
        <ele>1509.3</ele>
        <time>2026-02-07T12:45:09.000Z</time>
      </trkpt>
      <trkpt lat="43.03634" lon="-0.34056">
        <ele>1509.3</ele>
        <time>2026-02-07T12:45:10.000Z</time>
      </trkpt>
      <trkpt lat="43.03634" lon="-0.34056">
        <ele>1509.3</ele>
        <time>2026-02-07T12:45:11.000Z</time>
      </trkpt>
      <trkpt lat="43.03634" lon="-0.34056">
        <ele>1509.3</ele>
        <time>2026-02-07T12:45:12.000Z</time>
      </trkpt>
      <trkpt lat="43.03634" lon="-0.34056">
        <ele>1509.4</ele>
        <time>2026-02-07T12:45:15.000Z</time>
      </trkpt>
      <trkpt lat="43.03634" lon="-0.34056">
        <ele>1509.4</ele>
        <time>2026-02-07T12:45:18.000Z</time>
      </trkpt>
      <trkpt lat="43.03634" lon="-0.34056">
        <ele>1509.4</ele>
        <time>2026-02-07T12:45:21.000Z</time>
      </trkpt>
      <trkpt lat="43.03634" lon="-0.34056">
        <ele>1509.4</ele>
        <time>2026-02-07T12:45:24.000Z</time>
      </trkpt>
      <trkpt lat="43.03634" lon="-0.34056">
        <ele>1509.4</ele>
        <time>2026-02-07T12:45:27.000Z</time>
      </trkpt>
      <trkpt lat="43.03634" lon="-0.34056">
        <ele>1509.4</ele>
        <time>2026-02-07T12:45:30.000Z</time>
      </trkpt>
      <trkpt lat="43.03634" lon="-0.34056">
        <ele>1509.4</ele>
        <time>2026-02-07T12:45:33.000Z</time>
      </trkpt>
      <trkpt lat="43.03634" lon="-0.34056">
        <ele>1509.4</ele>
        <time>2026-02-07T12:45:36.000Z</time>
      </trkpt>
      <trkpt lat="43.03634" lon="-0.34056">
        <ele>1509.4</ele>
        <time>2026-02-07T12:45:39.000Z</time>
      </trkpt>
      <trkpt lat="43.03634" lon="-0.34056">
        <ele>1509.4</ele>
        <time>2026-02-07T12:45:40.000Z</time>
      </trkpt>
      <trkpt lat="43.03634" lon="-0.34056">
        <ele>1509.4</ele>
        <time>2026-02-07T12:45:41.000Z</time>
      </trkpt>
      <trkpt lat="43.03634" lon="-0.34056">
        <ele>1509.4</ele>
        <time>2026-02-07T12:45:42.000Z</time>
      </trkpt>
      <trkpt lat="43.03634" lon="-0.34056">
        <ele>1509.4</ele>
        <time>2026-02-07T12:45:43.000Z</time>
      </trkpt>
      <trkpt lat="43.03634" lon="-0.34056">
        <ele>1509.5</ele>
        <time>2026-02-07T12:45:46.000Z</time>
      </trkpt>
      <trkpt lat="43.03634" lon="-0.34056">
        <ele>1509.5</ele>
        <time>2026-02-07T12:45:49.000Z</time>
      </trkpt>
      <trkpt lat="43.03634" lon="-0.34056">
        <ele>1509.5</ele>
        <time>2026-02-07T12:45:52.000Z</time>
      </trkpt>
      <trkpt lat="43.03634" lon="-0.34056">
        <ele>1509.6</ele>
        <time>2026-02-07T12:45:55.000Z</time>
      </trkpt>
      <trkpt lat="43.03634" lon="-0.34055">
        <ele>1509.6</ele>
        <time>2026-02-07T12:45:58.000Z</time>
      </trkpt>
      <trkpt lat="43.03633" lon="-0.34055">
        <ele>1509.7</ele>
        <time>2026-02-07T12:46:01.000Z</time>
      </trkpt>
      <trkpt lat="43.03633" lon="-0.34055">
        <ele>1509.7</ele>
        <time>2026-02-07T12:46:04.000Z</time>
      </trkpt>
      <trkpt lat="43.03632" lon="-0.34055">
        <ele>1509.7</ele>
        <time>2026-02-07T12:46:05.000Z</time>
      </trkpt>
      <trkpt lat="43.03632" lon="-0.34054">
        <ele>1509.7</ele>
        <time>2026-02-07T12:46:06.000Z</time>
      </trkpt>
      <trkpt lat="43.03632" lon="-0.34054">
        <ele>1509.7</ele>
        <time>2026-02-07T12:46:07.000Z</time>
      </trkpt>
      <trkpt lat="43.03632" lon="-0.34054">
        <ele>1509.8</ele>
        <time>2026-02-07T12:46:10.000Z</time>
      </trkpt>
      <trkpt lat="43.03632" lon="-0.34054">
        <ele>1509.8</ele>
        <time>2026-02-07T12:46:12.000Z</time>
      </trkpt>
      <trkpt lat="43.03632" lon="-0.34054">
        <ele>1509.8</ele>
        <time>2026-02-07T12:46:13.000Z</time>
      </trkpt>
      <trkpt lat="43.03632" lon="-0.34054">
        <ele>1509.8</ele>
        <time>2026-02-07T12:46:14.000Z</time>
      </trkpt>
      <trkpt lat="43.03632" lon="-0.34054">
        <ele>1509.8</ele>
        <time>2026-02-07T12:46:17.000Z</time>
      </trkpt>
      <trkpt lat="43.03632" lon="-0.34054">
        <ele>1509.8</ele>
        <time>2026-02-07T12:46:20.000Z</time>
      </trkpt>
      <trkpt lat="43.03632" lon="-0.34053">
        <ele>1509.8</ele>
        <time>2026-02-07T12:46:23.000Z</time>
      </trkpt>
      <trkpt lat="43.03631" lon="-0.34052">
        <ele>1509.8</ele>
        <time>2026-02-07T12:46:24.000Z</time>
      </trkpt>
      <trkpt lat="43.03631" lon="-0.34051">
        <ele>1509.8</ele>
        <time>2026-02-07T12:46:25.000Z</time>
      </trkpt>
      <trkpt lat="43.03631" lon="-0.3405">
        <ele>1509.8</ele>
        <time>2026-02-07T12:46:26.000Z</time>
      </trkpt>
      <trkpt lat="43.0363" lon="-0.34047">
        <ele>1509.9</ele>
        <time>2026-02-07T12:46:29.000Z</time>
      </trkpt>
      <trkpt lat="43.0363" lon="-0.34044">
        <ele>1510</ele>
        <time>2026-02-07T12:46:32.000Z</time>
      </trkpt>
      <trkpt lat="43.03629" lon="-0.34041">
        <ele>1510.1</ele>
        <time>2026-02-07T12:46:35.000Z</time>
      </trkpt>
      <trkpt lat="43.03629" lon="-0.34037">
        <ele>1510.2</ele>
        <time>2026-02-07T12:46:38.000Z</time>
      </trkpt>
      <trkpt lat="43.03629" lon="-0.34035">
        <ele>1510.3</ele>
        <time>2026-02-07T12:46:41.000Z</time>
      </trkpt>
      <trkpt lat="43.03629" lon="-0.34034">
        <ele>1510.5</ele>
        <time>2026-02-07T12:46:44.000Z</time>
      </trkpt>
      <trkpt lat="43.03629" lon="-0.34034">
        <ele>1510.5</ele>
        <time>2026-02-07T12:46:45.000Z</time>
      </trkpt>
      <trkpt lat="43.03629" lon="-0.34034">
        <ele>1510.5</ele>
        <time>2026-02-07T12:46:46.000Z</time>
      </trkpt>
      <trkpt lat="43.03629" lon="-0.34034">
        <ele>1510.6</ele>
        <time>2026-02-07T12:46:49.000Z</time>
      </trkpt>
      <trkpt lat="43.03629" lon="-0.34033">
        <ele>1510.6</ele>
        <time>2026-02-07T12:46:52.000Z</time>
      </trkpt>
      <trkpt lat="43.03629" lon="-0.34032">
        <ele>1510.7</ele>
        <time>2026-02-07T12:46:53.000Z</time>
      </trkpt>
      <trkpt lat="43.03629" lon="-0.3403">
        <ele>1510.7</ele>
        <time>2026-02-07T12:46:54.000Z</time>
      </trkpt>
      <trkpt lat="43.03629" lon="-0.34026">
        <ele>1510.8</ele>
        <time>2026-02-07T12:46:57.000Z</time>
      </trkpt>
      <trkpt lat="43.03629" lon="-0.34022">
        <ele>1510.9</ele>
        <time>2026-02-07T12:47:00.000Z</time>
      </trkpt>
      <trkpt lat="43.03629" lon="-0.34021">
        <ele>1511</ele>
        <time>2026-02-07T12:47:03.000Z</time>
      </trkpt>
      <trkpt lat="43.03629" lon="-0.34021">
        <ele>1511</ele>
        <time>2026-02-07T12:47:05.000Z</time>
      </trkpt>
      <trkpt lat="43.03629" lon="-0.34021">
        <ele>1511.1</ele>
        <time>2026-02-07T12:47:06.000Z</time>
      </trkpt>
      <trkpt lat="43.03629" lon="-0.34021">
        <ele>1511.1</ele>
        <time>2026-02-07T12:47:09.000Z</time>
      </trkpt>
      <trkpt lat="43.03629" lon="-0.3402">
        <ele>1511.2</ele>
        <time>2026-02-07T12:47:10.000Z</time>
      </trkpt>
      <trkpt lat="43.03629" lon="-0.34019">
        <ele>1511.2</ele>
        <time>2026-02-07T12:47:11.000Z</time>
      </trkpt>
      <trkpt lat="43.03629" lon="-0.34017">
        <ele>1511.2</ele>
        <time>2026-02-07T12:47:12.000Z</time>
      </trkpt>
      <trkpt lat="43.03629" lon="-0.34013">
        <ele>1511.3</ele>
        <time>2026-02-07T12:47:15.000Z</time>
      </trkpt>
      <trkpt lat="43.03629" lon="-0.34009">
        <ele>1511.4</ele>
        <time>2026-02-07T12:47:18.000Z</time>
      </trkpt>
      <trkpt lat="43.03629" lon="-0.34005">
        <ele>1511.5</ele>
        <time>2026-02-07T12:47:21.000Z</time>
      </trkpt>
      <trkpt lat="43.0363" lon="-0.34001">
        <ele>1511.5</ele>
        <time>2026-02-07T12:47:24.000Z</time>
      </trkpt>
      <trkpt lat="43.03629" lon="-0.33996">
        <ele>1511.5</ele>
        <time>2026-02-07T12:47:27.000Z</time>
      </trkpt>
      <trkpt lat="43.0363" lon="-0.33992">
        <ele>1511.6</ele>
        <time>2026-02-07T12:47:30.000Z</time>
      </trkpt>
      <trkpt lat="43.0363" lon="-0.33988">
        <ele>1511.6</ele>
        <time>2026-02-07T12:47:33.000Z</time>
      </trkpt>
      <trkpt lat="43.03629" lon="-0.33984">
        <ele>1511.7</ele>
        <time>2026-02-07T12:47:36.000Z</time>
      </trkpt>
      <trkpt lat="43.03629" lon="-0.33979">
        <ele>1511.7</ele>
        <time>2026-02-07T12:47:39.000Z</time>
      </trkpt>
      <trkpt lat="43.03629" lon="-0.33975">
        <ele>1511.8</ele>
        <time>2026-02-07T12:47:42.000Z</time>
      </trkpt>
      <trkpt lat="43.03629" lon="-0.33971">
        <ele>1511.8</ele>
        <time>2026-02-07T12:47:45.000Z</time>
      </trkpt>
      <trkpt lat="43.03629" lon="-0.33967">
        <ele>1511.9</ele>
        <time>2026-02-07T12:47:48.000Z</time>
      </trkpt>
      <trkpt lat="43.03629" lon="-0.33963">
        <ele>1511.9</ele>
        <time>2026-02-07T12:47:51.000Z</time>
      </trkpt>
      <trkpt lat="43.03629" lon="-0.33959">
        <ele>1512</ele>
        <time>2026-02-07T12:47:54.000Z</time>
      </trkpt>
      <trkpt lat="43.03629" lon="-0.33954">
        <ele>1512</ele>
        <time>2026-02-07T12:47:57.000Z</time>
      </trkpt>
      <trkpt lat="43.03629" lon="-0.3395">
        <ele>1512</ele>
        <time>2026-02-07T12:48:00.000Z</time>
      </trkpt>
      <trkpt lat="43.03629" lon="-0.33946">
        <ele>1512</ele>
        <time>2026-02-07T12:48:03.000Z</time>
      </trkpt>
      <trkpt lat="43.03629" lon="-0.33941">
        <ele>1512</ele>
        <time>2026-02-07T12:48:06.000Z</time>
      </trkpt>
      <trkpt lat="43.03629" lon="-0.33937">
        <ele>1512.1</ele>
        <time>2026-02-07T12:48:09.000Z</time>
      </trkpt>
      <trkpt lat="43.03629" lon="-0.33933">
        <ele>1512.1</ele>
        <time>2026-02-07T12:48:12.000Z</time>
      </trkpt>
      <trkpt lat="43.03629" lon="-0.33929">
        <ele>1512.2</ele>
        <time>2026-02-07T12:48:15.000Z</time>
      </trkpt>
      <trkpt lat="43.0363" lon="-0.33925">
        <ele>1512.3</ele>
        <time>2026-02-07T12:48:18.000Z</time>
      </trkpt>
      <trkpt lat="43.03631" lon="-0.3392">
        <ele>1512.3</ele>
        <time>2026-02-07T12:48:21.000Z</time>
      </trkpt>
      <trkpt lat="43.03631" lon="-0.33916">
        <ele>1512.4</ele>
        <time>2026-02-07T12:48:24.000Z</time>
      </trkpt>
      <trkpt lat="43.03631" lon="-0.33912">
        <ele>1512.5</ele>
        <time>2026-02-07T12:48:27.000Z</time>
      </trkpt>
      <trkpt lat="43.03631" lon="-0.33907">
        <ele>1512.6</ele>
        <time>2026-02-07T12:48:30.000Z</time>
      </trkpt>
      <trkpt lat="43.03631" lon="-0.33903">
        <ele>1512.7</ele>
        <time>2026-02-07T12:48:33.000Z</time>
      </trkpt>
      <trkpt lat="43.03631" lon="-0.33898">
        <ele>1512.9</ele>
        <time>2026-02-07T12:48:36.000Z</time>
      </trkpt>
      <trkpt lat="43.03632" lon="-0.33894">
        <ele>1513</ele>
        <time>2026-02-07T12:48:39.000Z</time>
      </trkpt>
      <trkpt lat="43.03632" lon="-0.3389">
        <ele>1513.1</ele>
        <time>2026-02-07T12:48:42.000Z</time>
      </trkpt>
      <trkpt lat="43.03633" lon="-0.33886">
        <ele>1513.1</ele>
        <time>2026-02-07T12:48:45.000Z</time>
      </trkpt>
      <trkpt lat="43.03634" lon="-0.33882">
        <ele>1513.2</ele>
        <time>2026-02-07T12:48:48.000Z</time>
      </trkpt>
      <trkpt lat="43.03634" lon="-0.33877">
        <ele>1513.2</ele>
        <time>2026-02-07T12:48:51.000Z</time>
      </trkpt>
      <trkpt lat="43.03634" lon="-0.33872">
        <ele>1513.2</ele>
        <time>2026-02-07T12:48:54.000Z</time>
      </trkpt>
      <trkpt lat="43.03635" lon="-0.33867">
        <ele>1513.1</ele>
        <time>2026-02-07T12:48:57.000Z</time>
      </trkpt>
      <trkpt lat="43.03636" lon="-0.33863">
        <ele>1513.1</ele>
        <time>2026-02-07T12:49:00.000Z</time>
      </trkpt>
      <trkpt lat="43.03637" lon="-0.33858">
        <ele>1513</ele>
        <time>2026-02-07T12:49:03.000Z</time>
      </trkpt>
      <trkpt lat="43.03637" lon="-0.33852">
        <ele>1513</ele>
        <time>2026-02-07T12:49:06.000Z</time>
      </trkpt>
      <trkpt lat="43.03638" lon="-0.33848">
        <ele>1512.8</ele>
        <time>2026-02-07T12:49:09.000Z</time>
      </trkpt>
      <trkpt lat="43.03638" lon="-0.33843">
        <ele>1512.7</ele>
        <time>2026-02-07T12:49:12.000Z</time>
      </trkpt>
      <trkpt lat="43.03638" lon="-0.33839">
        <ele>1512.6</ele>
        <time>2026-02-07T12:49:15.000Z</time>
      </trkpt>
      <trkpt lat="43.03639" lon="-0.33834">
        <ele>1512.4</ele>
        <time>2026-02-07T12:49:18.000Z</time>
      </trkpt>
      <trkpt lat="43.03638" lon="-0.33829">
        <ele>1512.3</ele>
        <time>2026-02-07T12:49:21.000Z</time>
      </trkpt>
      <trkpt lat="43.03638" lon="-0.33824">
        <ele>1512.3</ele>
        <time>2026-02-07T12:49:24.000Z</time>
      </trkpt>
      <trkpt lat="43.03639" lon="-0.3382">
        <ele>1512.2</ele>
        <time>2026-02-07T12:49:27.000Z</time>
      </trkpt>
      <trkpt lat="43.0364" lon="-0.33815">
        <ele>1512</ele>
        <time>2026-02-07T12:49:30.000Z</time>
      </trkpt>
      <trkpt lat="43.03641" lon="-0.3381">
        <ele>1511.8</ele>
        <time>2026-02-07T12:49:33.000Z</time>
      </trkpt>
      <trkpt lat="43.03642" lon="-0.33806">
        <ele>1511.7</ele>
        <time>2026-02-07T12:49:36.000Z</time>
      </trkpt>
      <trkpt lat="43.03643" lon="-0.33801">
        <ele>1511.5</ele>
        <time>2026-02-07T12:49:39.000Z</time>
      </trkpt>
      <trkpt lat="43.03644" lon="-0.33796">
        <ele>1511.3</ele>
        <time>2026-02-07T12:49:42.000Z</time>
      </trkpt>
      <trkpt lat="43.03644" lon="-0.33792">
        <ele>1511.2</ele>
        <time>2026-02-07T12:49:45.000Z</time>
      </trkpt>
      <trkpt lat="43.03644" lon="-0.33787">
        <ele>1511</ele>
        <time>2026-02-07T12:49:48.000Z</time>
      </trkpt>
      <trkpt lat="43.03643" lon="-0.33782">
        <ele>1510.8</ele>
        <time>2026-02-07T12:49:51.000Z</time>
      </trkpt>
      <trkpt lat="43.03643" lon="-0.33777">
        <ele>1510.5</ele>
        <time>2026-02-07T12:49:54.000Z</time>
      </trkpt>
      <trkpt lat="43.03644" lon="-0.33773">
        <ele>1510.4</ele>
        <time>2026-02-07T12:49:57.000Z</time>
      </trkpt>
      <trkpt lat="43.03645" lon="-0.33769">
        <ele>1510.2</ele>
        <time>2026-02-07T12:50:00.000Z</time>
      </trkpt>
      <trkpt lat="43.03645" lon="-0.33766">
        <ele>1510.1</ele>
        <time>2026-02-07T12:50:03.000Z</time>
      </trkpt>
      <trkpt lat="43.03645" lon="-0.33763">
        <ele>1510</ele>
        <time>2026-02-07T12:50:06.000Z</time>
      </trkpt>
      <trkpt lat="43.03646" lon="-0.33759">
        <ele>1509.9</ele>
        <time>2026-02-07T12:50:09.000Z</time>
      </trkpt>
      <trkpt lat="43.03645" lon="-0.33755">
        <ele>1509.7</ele>
        <time>2026-02-07T12:50:12.000Z</time>
      </trkpt>
      <trkpt lat="43.03645" lon="-0.3375">
        <ele>1509.5</ele>
        <time>2026-02-07T12:50:15.000Z</time>
      </trkpt>
      <trkpt lat="43.03646" lon="-0.33746">
        <ele>1509.3</ele>
        <time>2026-02-07T12:50:18.000Z</time>
      </trkpt>
      <trkpt lat="43.03647" lon="-0.33742">
        <ele>1509.1</ele>
        <time>2026-02-07T12:50:21.000Z</time>
      </trkpt>
      <trkpt lat="43.03646" lon="-0.33737">
        <ele>1508.8</ele>
        <time>2026-02-07T12:50:24.000Z</time>
      </trkpt>
      <trkpt lat="43.03646" lon="-0.33733">
        <ele>1508.5</ele>
        <time>2026-02-07T12:50:27.000Z</time>
      </trkpt>
      <trkpt lat="43.03647" lon="-0.33728">
        <ele>1508.3</ele>
        <time>2026-02-07T12:50:30.000Z</time>
      </trkpt>
      <trkpt lat="43.03647" lon="-0.33724">
        <ele>1508.1</ele>
        <time>2026-02-07T12:50:33.000Z</time>
      </trkpt>
      <trkpt lat="43.03647" lon="-0.3372">
        <ele>1507.8</ele>
        <time>2026-02-07T12:50:36.000Z</time>
      </trkpt>
      <trkpt lat="43.03648" lon="-0.33716">
        <ele>1507.6</ele>
        <time>2026-02-07T12:50:39.000Z</time>
      </trkpt>
      <trkpt lat="43.03648" lon="-0.33711">
        <ele>1507.3</ele>
        <time>2026-02-07T12:50:42.000Z</time>
      </trkpt>
      <trkpt lat="43.03648" lon="-0.33706">
        <ele>1507</ele>
        <time>2026-02-07T12:50:45.000Z</time>
      </trkpt>
      <trkpt lat="43.03648" lon="-0.33701">
        <ele>1506.7</ele>
        <time>2026-02-07T12:50:48.000Z</time>
      </trkpt>
      <trkpt lat="43.03648" lon="-0.33697">
        <ele>1506.4</ele>
        <time>2026-02-07T12:50:51.000Z</time>
      </trkpt>
      <trkpt lat="43.03648" lon="-0.33693">
        <ele>1506.1</ele>
        <time>2026-02-07T12:50:54.000Z</time>
      </trkpt>
      <trkpt lat="43.03649" lon="-0.33689">
        <ele>1505.9</ele>
        <time>2026-02-07T12:50:57.000Z</time>
      </trkpt>
      <trkpt lat="43.03649" lon="-0.33684">
        <ele>1505.7</ele>
        <time>2026-02-07T12:51:00.000Z</time>
      </trkpt>
      <trkpt lat="43.0365" lon="-0.33679">
        <ele>1505.4</ele>
        <time>2026-02-07T12:51:03.000Z</time>
      </trkpt>
      <trkpt lat="43.0365" lon="-0.33674">
        <ele>1505.2</ele>
        <time>2026-02-07T12:51:06.000Z</time>
      </trkpt>
      <trkpt lat="43.0365" lon="-0.33668">
        <ele>1504.9</ele>
        <time>2026-02-07T12:51:09.000Z</time>
      </trkpt>
      <trkpt lat="43.0365" lon="-0.33664">
        <ele>1504.6</ele>
        <time>2026-02-07T12:51:12.000Z</time>
      </trkpt>
      <trkpt lat="43.0365" lon="-0.33662">
        <ele>1504.3</ele>
        <time>2026-02-07T12:51:15.000Z</time>
      </trkpt>
      <trkpt lat="43.0365" lon="-0.33662">
        <ele>1504.1</ele>
        <time>2026-02-07T12:51:18.000Z</time>
      </trkpt>
      <trkpt lat="43.0365" lon="-0.33662">
        <ele>1504.1</ele>
        <time>2026-02-07T12:51:19.000Z</time>
      </trkpt>
      <trkpt lat="43.0365" lon="-0.33662">
        <ele>1503.9</ele>
        <time>2026-02-07T12:51:22.000Z</time>
      </trkpt>
      <trkpt lat="43.0365" lon="-0.33662">
        <ele>1503.8</ele>
        <time>2026-02-07T12:51:25.000Z</time>
      </trkpt>
      <trkpt lat="43.0365" lon="-0.33662">
        <ele>1503.8</ele>
        <time>2026-02-07T12:51:28.000Z</time>
      </trkpt>
      <trkpt lat="43.0365" lon="-0.33662">
        <ele>1503.7</ele>
        <time>2026-02-07T12:51:31.000Z</time>
      </trkpt>
      <trkpt lat="43.03651" lon="-0.3366">
        <ele>1503.6</ele>
        <time>2026-02-07T12:51:34.000Z</time>
      </trkpt>
      <trkpt lat="43.03652" lon="-0.33659">
        <ele>1503.6</ele>
        <time>2026-02-07T12:51:35.000Z</time>
      </trkpt>
      <trkpt lat="43.03652" lon="-0.33657">
        <ele>1503.6</ele>
        <time>2026-02-07T12:51:36.000Z</time>
      </trkpt>
      <trkpt lat="43.03652" lon="-0.33656">
        <ele>1503.6</ele>
        <time>2026-02-07T12:51:37.000Z</time>
      </trkpt>
      <trkpt lat="43.03653" lon="-0.33652">
        <ele>1503.6</ele>
        <time>2026-02-07T12:51:40.000Z</time>
      </trkpt>
      <trkpt lat="43.03653" lon="-0.33647">
        <ele>1503.5</ele>
        <time>2026-02-07T12:51:43.000Z</time>
      </trkpt>
      <trkpt lat="43.03654" lon="-0.33642">
        <ele>1503.4</ele>
        <time>2026-02-07T12:51:46.000Z</time>
      </trkpt>
      <trkpt lat="43.03655" lon="-0.33637">
        <ele>1503.3</ele>
        <time>2026-02-07T12:51:49.000Z</time>
      </trkpt>
      <trkpt lat="43.03656" lon="-0.33633">
        <ele>1503.1</ele>
        <time>2026-02-07T12:51:52.000Z</time>
      </trkpt>
      <trkpt lat="43.03656" lon="-0.33629">
        <ele>1502.9</ele>
        <time>2026-02-07T12:51:55.000Z</time>
      </trkpt>
      <trkpt lat="43.03657" lon="-0.33624">
        <ele>1502.6</ele>
        <time>2026-02-07T12:51:58.000Z</time>
      </trkpt>
      <trkpt lat="43.03657" lon="-0.3362">
        <ele>1502.3</ele>
        <time>2026-02-07T12:52:01.000Z</time>
      </trkpt>
      <trkpt lat="43.03658" lon="-0.33616">
        <ele>1501.9</ele>
        <time>2026-02-07T12:52:04.000Z</time>
      </trkpt>
      <trkpt lat="43.03659" lon="-0.33612">
        <ele>1501.6</ele>
        <time>2026-02-07T12:52:07.000Z</time>
      </trkpt>
      <trkpt lat="43.0366" lon="-0.33608">
        <ele>1501.3</ele>
        <time>2026-02-07T12:52:10.000Z</time>
      </trkpt>
      <trkpt lat="43.03661" lon="-0.33604">
        <ele>1500.9</ele>
        <time>2026-02-07T12:52:13.000Z</time>
      </trkpt>
      <trkpt lat="43.03661" lon="-0.336">
        <ele>1500.5</ele>
        <time>2026-02-07T12:52:16.000Z</time>
      </trkpt>
      <trkpt lat="43.03662" lon="-0.33596">
        <ele>1500.1</ele>
        <time>2026-02-07T12:52:19.000Z</time>
      </trkpt>
      <trkpt lat="43.03663" lon="-0.33592">
        <ele>1499.7</ele>
        <time>2026-02-07T12:52:22.000Z</time>
      </trkpt>
      <trkpt lat="43.03664" lon="-0.33588">
        <ele>1499.4</ele>
        <time>2026-02-07T12:52:25.000Z</time>
      </trkpt>
      <trkpt lat="43.03665" lon="-0.33584">
        <ele>1499.1</ele>
        <time>2026-02-07T12:52:28.000Z</time>
      </trkpt>
      <trkpt lat="43.03666" lon="-0.3358">
        <ele>1498.8</ele>
        <time>2026-02-07T12:52:31.000Z</time>
      </trkpt>
      <trkpt lat="43.03667" lon="-0.33577">
        <ele>1498.6</ele>
        <time>2026-02-07T12:52:34.000Z</time>
      </trkpt>
      <trkpt lat="43.03668" lon="-0.33573">
        <ele>1498.3</ele>
        <time>2026-02-07T12:52:37.000Z</time>
      </trkpt>
      <trkpt lat="43.03669" lon="-0.3357">
        <ele>1498</ele>
        <time>2026-02-07T12:52:40.000Z</time>
      </trkpt>
      <trkpt lat="43.0367" lon="-0.33567">
        <ele>1497.7</ele>
        <time>2026-02-07T12:52:43.000Z</time>
      </trkpt>
      <trkpt lat="43.03672" lon="-0.33564">
        <ele>1497.4</ele>
        <time>2026-02-07T12:52:46.000Z</time>
      </trkpt>
      <trkpt lat="43.03672" lon="-0.3356">
        <ele>1497</ele>
        <time>2026-02-07T12:52:49.000Z</time>
      </trkpt>
      <trkpt lat="43.03673" lon="-0.33557">
        <ele>1496.6</ele>
        <time>2026-02-07T12:52:52.000Z</time>
      </trkpt>
      <trkpt lat="43.03673" lon="-0.33553">
        <ele>1496.3</ele>
        <time>2026-02-07T12:52:55.000Z</time>
      </trkpt>
      <trkpt lat="43.03674" lon="-0.33549">
        <ele>1496</ele>
        <time>2026-02-07T12:52:58.000Z</time>
      </trkpt>
      <trkpt lat="43.03676" lon="-0.33546">
        <ele>1495.6</ele>
        <time>2026-02-07T12:53:01.000Z</time>
      </trkpt>
      <trkpt lat="43.03676" lon="-0.33542">
        <ele>1495.2</ele>
        <time>2026-02-07T12:53:04.000Z</time>
      </trkpt>
      <trkpt lat="43.03677" lon="-0.33538">
        <ele>1494.7</ele>
        <time>2026-02-07T12:53:07.000Z</time>
      </trkpt>
      <trkpt lat="43.03677" lon="-0.33534">
        <ele>1494.2</ele>
        <time>2026-02-07T12:53:10.000Z</time>
      </trkpt>
      <trkpt lat="43.03676" lon="-0.3353">
        <ele>1493.7</ele>
        <time>2026-02-07T12:53:13.000Z</time>
      </trkpt>
      <trkpt lat="43.03676" lon="-0.33526">
        <ele>1493.3</ele>
        <time>2026-02-07T12:53:16.000Z</time>
      </trkpt>
      <trkpt lat="43.03677" lon="-0.33523">
        <ele>1492.9</ele>
        <time>2026-02-07T12:53:19.000Z</time>
      </trkpt>
      <trkpt lat="43.03678" lon="-0.33521">
        <ele>1492.5</ele>
        <time>2026-02-07T12:53:22.000Z</time>
      </trkpt>
      <trkpt lat="43.0368" lon="-0.3352">
        <ele>1492.5</ele>
        <time>2026-02-07T12:53:25.000Z</time>
      </trkpt>
      <trkpt lat="43.03681" lon="-0.33518">
        <ele>1492.3</ele>
        <time>2026-02-07T12:53:28.000Z</time>
      </trkpt>
      <trkpt lat="43.03682" lon="-0.33515">
        <ele>1492.1</ele>
        <time>2026-02-07T12:53:31.000Z</time>
      </trkpt>
      <trkpt lat="43.03682" lon="-0.33515">
        <ele>1491.6</ele>
        <time>2026-02-07T12:53:34.000Z</time>
      </trkpt>
      <trkpt lat="43.03683" lon="-0.33513">
        <ele>1491.1</ele>
        <time>2026-02-07T12:53:37.000Z</time>
      </trkpt>
      <trkpt lat="43.03685" lon="-0.3351">
        <ele>1490.3</ele>
        <time>2026-02-07T12:53:40.000Z</time>
      </trkpt>
      <trkpt lat="43.03687" lon="-0.33507">
        <ele>1489.6</ele>
        <time>2026-02-07T12:53:43.000Z</time>
      </trkpt>
      <trkpt lat="43.03687" lon="-0.33504">
        <ele>1489.2</ele>
        <time>2026-02-07T12:53:46.000Z</time>
      </trkpt>
      <trkpt lat="43.03687" lon="-0.33505">
        <ele>1489</ele>
        <time>2026-02-07T12:53:47.000Z</time>
      </trkpt>
      <trkpt lat="43.03687" lon="-0.33505">
        <ele>1488.9</ele>
        <time>2026-02-07T12:53:48.000Z</time>
      </trkpt>
      <trkpt lat="43.03688" lon="-0.33504">
        <ele>1488.7</ele>
        <time>2026-02-07T12:53:49.000Z</time>
      </trkpt>
      <trkpt lat="43.03688" lon="-0.33504">
        <ele>1488.6</ele>
        <time>2026-02-07T12:53:50.000Z</time>
      </trkpt>
      <trkpt lat="43.03689" lon="-0.33503">
        <ele>1488.6</ele>
        <time>2026-02-07T12:53:51.000Z</time>
      </trkpt>
      <trkpt lat="43.03691" lon="-0.33502">
        <ele>1488.5</ele>
        <time>2026-02-07T12:53:54.000Z</time>
      </trkpt>
      <trkpt lat="43.03692" lon="-0.33499">
        <ele>1488.5</ele>
        <time>2026-02-07T12:53:57.000Z</time>
      </trkpt>
      <trkpt lat="43.03694" lon="-0.33497">
        <ele>1488.5</ele>
        <time>2026-02-07T12:54:00.000Z</time>
      </trkpt>
      <trkpt lat="43.03694" lon="-0.33496">
        <ele>1488.4</ele>
        <time>2026-02-07T12:54:03.000Z</time>
      </trkpt>
      <trkpt lat="43.03694" lon="-0.33496">
        <ele>1488.4</ele>
        <time>2026-02-07T12:54:04.000Z</time>
      </trkpt>
      <trkpt lat="43.03694" lon="-0.33496">
        <ele>1488.4</ele>
        <time>2026-02-07T12:54:05.000Z</time>
      </trkpt>
      <trkpt lat="43.03694" lon="-0.33496">
        <ele>1488.3</ele>
        <time>2026-02-07T12:54:06.000Z</time>
      </trkpt>
      <trkpt lat="43.03694" lon="-0.33496">
        <ele>1488.3</ele>
        <time>2026-02-07T12:54:07.000Z</time>
      </trkpt>
      <trkpt lat="43.03695" lon="-0.33495">
        <ele>1488.4</ele>
        <time>2026-02-07T12:54:08.000Z</time>
      </trkpt>
      <trkpt lat="43.03696" lon="-0.33493">
        <ele>1488.3</ele>
        <time>2026-02-07T12:54:11.000Z</time>
      </trkpt>
      <trkpt lat="43.03697" lon="-0.33489">
        <ele>1488.3</ele>
        <time>2026-02-07T12:54:14.000Z</time>
      </trkpt>
      <trkpt lat="43.03698" lon="-0.33486">
        <ele>1488.3</ele>
        <time>2026-02-07T12:54:17.000Z</time>
      </trkpt>
      <trkpt lat="43.03699" lon="-0.33483">
        <ele>1488.3</ele>
        <time>2026-02-07T12:54:20.000Z</time>
      </trkpt>
      <trkpt lat="43.03699" lon="-0.33481">
        <ele>1488.3</ele>
        <time>2026-02-07T12:54:23.000Z</time>
      </trkpt>
      <trkpt lat="43.03699" lon="-0.33481">
        <ele>1488.3</ele>
        <time>2026-02-07T12:54:24.000Z</time>
      </trkpt>
      <trkpt lat="43.03699" lon="-0.33481">
        <ele>1488.3</ele>
        <time>2026-02-07T12:54:25.000Z</time>
      </trkpt>
      <trkpt lat="43.03699" lon="-0.33481">
        <ele>1488.3</ele>
        <time>2026-02-07T12:54:26.000Z</time>
      </trkpt>
      <trkpt lat="43.03699" lon="-0.33481">
        <ele>1488.3</ele>
        <time>2026-02-07T12:54:29.000Z</time>
      </trkpt>
      <trkpt lat="43.03699" lon="-0.33481">
        <ele>1488.3</ele>
        <time>2026-02-07T12:54:32.000Z</time>
      </trkpt>
      <trkpt lat="43.03699" lon="-0.33481">
        <ele>1488.3</ele>
        <time>2026-02-07T12:54:35.000Z</time>
      </trkpt>
      <trkpt lat="43.03699" lon="-0.33481">
        <ele>1488.3</ele>
        <time>2026-02-07T12:54:38.000Z</time>
      </trkpt>
      <trkpt lat="43.037" lon="-0.3348">
        <ele>1488.3</ele>
        <time>2026-02-07T12:54:39.000Z</time>
      </trkpt>
      <trkpt lat="43.037" lon="-0.3348">
        <ele>1488.3</ele>
        <time>2026-02-07T12:54:40.000Z</time>
      </trkpt>
      <trkpt lat="43.037" lon="-0.33479">
        <ele>1488.3</ele>
        <time>2026-02-07T12:54:41.000Z</time>
      </trkpt>
      <trkpt lat="43.03699" lon="-0.33477">
        <ele>1488.2</ele>
        <time>2026-02-07T12:54:44.000Z</time>
      </trkpt>
      <trkpt lat="43.03699" lon="-0.33474">
        <ele>1488.2</ele>
        <time>2026-02-07T12:54:47.000Z</time>
      </trkpt>
      <trkpt lat="43.03699" lon="-0.33471">
        <ele>1488</ele>
        <time>2026-02-07T12:54:50.000Z</time>
      </trkpt>
      <trkpt lat="43.03699" lon="-0.33468">
        <ele>1487.9</ele>
        <time>2026-02-07T12:54:53.000Z</time>
      </trkpt>
      <trkpt lat="43.03697" lon="-0.33466">
        <ele>1487.6</ele>
        <time>2026-02-07T12:54:56.000Z</time>
      </trkpt>
      <trkpt lat="43.03695" lon="-0.33462">
        <ele>1487.2</ele>
        <time>2026-02-07T12:54:59.000Z</time>
      </trkpt>
      <trkpt lat="43.03695" lon="-0.33457">
        <ele>1486.6</ele>
        <time>2026-02-07T12:55:02.000Z</time>
      </trkpt>
      <trkpt lat="43.03695" lon="-0.33453">
        <ele>1485.8</ele>
        <time>2026-02-07T12:55:05.000Z</time>
      </trkpt>
      <trkpt lat="43.03695" lon="-0.33448">
        <ele>1485.2</ele>
        <time>2026-02-07T12:55:08.000Z</time>
      </trkpt>
      <trkpt lat="43.03695" lon="-0.33444">
        <ele>1484.7</ele>
        <time>2026-02-07T12:55:11.000Z</time>
      </trkpt>
      <trkpt lat="43.03695" lon="-0.33439">
        <ele>1484.4</ele>
        <time>2026-02-07T12:55:14.000Z</time>
      </trkpt>
      <trkpt lat="43.03695" lon="-0.33436">
        <ele>1483.9</ele>
        <time>2026-02-07T12:55:17.000Z</time>
      </trkpt>
      <trkpt lat="43.03694" lon="-0.33434">
        <ele>1483.5</ele>
        <time>2026-02-07T12:55:20.000Z</time>
      </trkpt>
      <trkpt lat="43.03693" lon="-0.33431">
        <ele>1483</ele>
        <time>2026-02-07T12:55:23.000Z</time>
      </trkpt>
      <trkpt lat="43.03693" lon="-0.33428">
        <ele>1482.5</ele>
        <time>2026-02-07T12:55:26.000Z</time>
      </trkpt>
      <trkpt lat="43.03692" lon="-0.33425">
        <ele>1482</ele>
        <time>2026-02-07T12:55:29.000Z</time>
      </trkpt>
      <trkpt lat="43.03691" lon="-0.33421">
        <ele>1481.4</ele>
        <time>2026-02-07T12:55:32.000Z</time>
      </trkpt>
      <trkpt lat="43.0369" lon="-0.33416">
        <ele>1480.8</ele>
        <time>2026-02-07T12:55:35.000Z</time>
      </trkpt>
      <trkpt lat="43.03691" lon="-0.33412">
        <ele>1480.1</ele>
        <time>2026-02-07T12:55:38.000Z</time>
      </trkpt>
      <trkpt lat="43.0369" lon="-0.33408">
        <ele>1479.5</ele>
        <time>2026-02-07T12:55:41.000Z</time>
      </trkpt>
      <trkpt lat="43.03691" lon="-0.33404">
        <ele>1478.9</ele>
        <time>2026-02-07T12:55:44.000Z</time>
      </trkpt>
      <trkpt lat="43.03692" lon="-0.33399">
        <ele>1478.4</ele>
        <time>2026-02-07T12:55:47.000Z</time>
      </trkpt>
      <trkpt lat="43.03692" lon="-0.33395">
        <ele>1477.9</ele>
        <time>2026-02-07T12:55:50.000Z</time>
      </trkpt>
      <trkpt lat="43.03692" lon="-0.33391">
        <ele>1477.5</ele>
        <time>2026-02-07T12:55:53.000Z</time>
      </trkpt>
      <trkpt lat="43.03693" lon="-0.33387">
        <ele>1477</ele>
        <time>2026-02-07T12:55:56.000Z</time>
      </trkpt>
      <trkpt lat="43.03694" lon="-0.33383">
        <ele>1476.5</ele>
        <time>2026-02-07T12:55:59.000Z</time>
      </trkpt>
      <trkpt lat="43.03694" lon="-0.3338">
        <ele>1475.9</ele>
        <time>2026-02-07T12:56:02.000Z</time>
      </trkpt>
      <trkpt lat="43.03693" lon="-0.33376">
        <ele>1475.4</ele>
        <time>2026-02-07T12:56:05.000Z</time>
      </trkpt>
      <trkpt lat="43.03692" lon="-0.33372">
        <ele>1474.8</ele>
        <time>2026-02-07T12:56:08.000Z</time>
      </trkpt>
      <trkpt lat="43.03691" lon="-0.33368">
        <ele>1474.3</ele>
        <time>2026-02-07T12:56:11.000Z</time>
      </trkpt>
      <trkpt lat="43.0369" lon="-0.33364">
        <ele>1473.7</ele>
        <time>2026-02-07T12:56:14.000Z</time>
      </trkpt>
      <trkpt lat="43.03689" lon="-0.33361">
        <ele>1473.2</ele>
        <time>2026-02-07T12:56:17.000Z</time>
      </trkpt>
      <trkpt lat="43.03688" lon="-0.33357">
        <ele>1472.6</ele>
        <time>2026-02-07T12:56:20.000Z</time>
      </trkpt>
      <trkpt lat="43.03687" lon="-0.33353">
        <ele>1472</ele>
        <time>2026-02-07T12:56:23.000Z</time>
      </trkpt>
      <trkpt lat="43.03685" lon="-0.3335">
        <ele>1471.6</ele>
        <time>2026-02-07T12:56:26.000Z</time>
      </trkpt>
      <trkpt lat="43.03684" lon="-0.33346">
        <ele>1471.2</ele>
        <time>2026-02-07T12:56:29.000Z</time>
      </trkpt>
      <trkpt lat="43.03682" lon="-0.33342">
        <ele>1470.9</ele>
        <time>2026-02-07T12:56:32.000Z</time>
      </trkpt>
      <trkpt lat="43.03681" lon="-0.33338">
        <ele>1470.5</ele>
        <time>2026-02-07T12:56:35.000Z</time>
      </trkpt>
      <trkpt lat="43.0368" lon="-0.33335">
        <ele>1470.1</ele>
        <time>2026-02-07T12:56:38.000Z</time>
      </trkpt>
      <trkpt lat="43.0368" lon="-0.33331">
        <ele>1469.7</ele>
        <time>2026-02-07T12:56:41.000Z</time>
      </trkpt>
      <trkpt lat="43.03679" lon="-0.33327">
        <ele>1469.2</ele>
        <time>2026-02-07T12:56:44.000Z</time>
      </trkpt>
      <trkpt lat="43.03678" lon="-0.33323">
        <ele>1468.7</ele>
        <time>2026-02-07T12:56:47.000Z</time>
      </trkpt>
      <trkpt lat="43.03679" lon="-0.33319">
        <ele>1468.3</ele>
        <time>2026-02-07T12:56:50.000Z</time>
      </trkpt>
      <trkpt lat="43.0368" lon="-0.33316">
        <ele>1467.9</ele>
        <time>2026-02-07T12:56:53.000Z</time>
      </trkpt>
      <trkpt lat="43.0368" lon="-0.33314">
        <ele>1467.5</ele>
        <time>2026-02-07T12:56:56.000Z</time>
      </trkpt>
      <trkpt lat="43.0368" lon="-0.33314">
        <ele>1467.3</ele>
        <time>2026-02-07T12:56:59.000Z</time>
      </trkpt>
      <trkpt lat="43.0368" lon="-0.33314">
        <ele>1467.2</ele>
        <time>2026-02-07T12:57:00.000Z</time>
      </trkpt>
      <trkpt lat="43.0368" lon="-0.33314">
        <ele>1467.2</ele>
        <time>2026-02-07T12:57:01.000Z</time>
      </trkpt>
      <trkpt lat="43.0368" lon="-0.33314">
        <ele>1467</ele>
        <time>2026-02-07T12:57:04.000Z</time>
      </trkpt>
      <trkpt lat="43.0368" lon="-0.33314">
        <ele>1466.9</ele>
        <time>2026-02-07T12:57:07.000Z</time>
      </trkpt>
      <trkpt lat="43.0368" lon="-0.33314">
        <ele>1466.8</ele>
        <time>2026-02-07T12:57:09.000Z</time>
      </trkpt>
      <trkpt lat="43.0368" lon="-0.33314">
        <ele>1466.8</ele>
        <time>2026-02-07T12:57:10.000Z</time>
      </trkpt>
      <trkpt lat="43.0368" lon="-0.33314">
        <ele>1466.7</ele>
        <time>2026-02-07T12:57:11.000Z</time>
      </trkpt>
      <trkpt lat="43.0368" lon="-0.33314">
        <ele>1466.7</ele>
        <time>2026-02-07T12:57:12.000Z</time>
      </trkpt>
      <trkpt lat="43.0368" lon="-0.33314">
        <ele>1466.7</ele>
        <time>2026-02-07T12:57:13.000Z</time>
      </trkpt>
      <trkpt lat="43.0368" lon="-0.33314">
        <ele>1466.7</ele>
        <time>2026-02-07T12:57:14.000Z</time>
      </trkpt>
      <trkpt lat="43.0368" lon="-0.33314">
        <ele>1466.6</ele>
        <time>2026-02-07T12:57:17.000Z</time>
      </trkpt>
      <trkpt lat="43.0368" lon="-0.33314">
        <ele>1466.6</ele>
        <time>2026-02-07T12:57:20.000Z</time>
      </trkpt>
      <trkpt lat="43.0368" lon="-0.33314">
        <ele>1466.6</ele>
        <time>2026-02-07T12:57:23.000Z</time>
      </trkpt>
      <trkpt lat="43.0368" lon="-0.33314">
        <ele>1466.5</ele>
        <time>2026-02-07T12:57:26.000Z</time>
      </trkpt>
      <trkpt lat="43.0368" lon="-0.33314">
        <ele>1466.5</ele>
        <time>2026-02-07T12:57:29.000Z</time>
      </trkpt>
      <trkpt lat="43.0368" lon="-0.33314">
        <ele>1466.5</ele>
        <time>2026-02-07T12:57:32.000Z</time>
      </trkpt>
      <trkpt lat="43.0368" lon="-0.33314">
        <ele>1466.5</ele>
        <time>2026-02-07T12:57:33.000Z</time>
      </trkpt>
      <trkpt lat="43.0368" lon="-0.33314">
        <ele>1466.5</ele>
        <time>2026-02-07T12:57:34.000Z</time>
      </trkpt>
      <trkpt lat="43.0368" lon="-0.33314">
        <ele>1466.5</ele>
        <time>2026-02-07T12:57:35.000Z</time>
      </trkpt>
      <trkpt lat="43.0368" lon="-0.33314">
        <ele>1466.5</ele>
        <time>2026-02-07T12:57:36.000Z</time>
      </trkpt>
      <trkpt lat="43.0368" lon="-0.33314">
        <ele>1466.5</ele>
        <time>2026-02-07T12:57:39.000Z</time>
      </trkpt>
      <trkpt lat="43.03681" lon="-0.33313">
        <ele>1466.4</ele>
        <time>2026-02-07T12:57:42.000Z</time>
      </trkpt>
      <trkpt lat="43.03681" lon="-0.33313">
        <ele>1466.4</ele>
        <time>2026-02-07T12:57:43.000Z</time>
      </trkpt>
      <trkpt lat="43.03682" lon="-0.3331">
        <ele>1466.3</ele>
        <time>2026-02-07T12:57:46.000Z</time>
      </trkpt>
      <trkpt lat="43.03682" lon="-0.33308">
        <ele>1466.2</ele>
        <time>2026-02-07T12:57:49.000Z</time>
      </trkpt>
      <trkpt lat="43.03683" lon="-0.33305">
        <ele>1466</ele>
        <time>2026-02-07T12:57:52.000Z</time>
      </trkpt>
      <trkpt lat="43.03683" lon="-0.33302">
        <ele>1465.7</ele>
        <time>2026-02-07T12:57:55.000Z</time>
      </trkpt>
      <trkpt lat="43.03684" lon="-0.333">
        <ele>1465.2</ele>
        <time>2026-02-07T12:57:58.000Z</time>
      </trkpt>
      <trkpt lat="43.03684" lon="-0.33297">
        <ele>1464.6</ele>
        <time>2026-02-07T12:58:01.000Z</time>
      </trkpt>
      <trkpt lat="43.03684" lon="-0.33294">
        <ele>1464</ele>
        <time>2026-02-07T12:58:04.000Z</time>
      </trkpt>
      <trkpt lat="43.03685" lon="-0.33291">
        <ele>1463.2</ele>
        <time>2026-02-07T12:58:07.000Z</time>
      </trkpt>
      <trkpt lat="43.03686" lon="-0.33286">
        <ele>1462.4</ele>
        <time>2026-02-07T12:58:10.000Z</time>
      </trkpt>
      <trkpt lat="43.03687" lon="-0.33282">
        <ele>1461.6</ele>
        <time>2026-02-07T12:58:13.000Z</time>
      </trkpt>
      <trkpt lat="43.03687" lon="-0.33278">
        <ele>1460.9</ele>
        <time>2026-02-07T12:58:16.000Z</time>
      </trkpt>
      <trkpt lat="43.03688" lon="-0.33275">
        <ele>1460.2</ele>
        <time>2026-02-07T12:58:19.000Z</time>
      </trkpt>
      <trkpt lat="43.03688" lon="-0.33272">
        <ele>1459.5</ele>
        <time>2026-02-07T12:58:22.000Z</time>
      </trkpt>
      <trkpt lat="43.03689" lon="-0.33268">
        <ele>1458.9</ele>
        <time>2026-02-07T12:58:25.000Z</time>
      </trkpt>
      <trkpt lat="43.0369" lon="-0.33265">
        <ele>1458.2</ele>
        <time>2026-02-07T12:58:28.000Z</time>
      </trkpt>
      <trkpt lat="43.03691" lon="-0.33261">
        <ele>1457.7</ele>
        <time>2026-02-07T12:58:31.000Z</time>
      </trkpt>
      <trkpt lat="43.03692" lon="-0.33257">
        <ele>1457.2</ele>
        <time>2026-02-07T12:58:34.000Z</time>
      </trkpt>
      <trkpt lat="43.03694" lon="-0.33253">
        <ele>1456.6</ele>
        <time>2026-02-07T12:58:37.000Z</time>
      </trkpt>
      <trkpt lat="43.03694" lon="-0.33249">
        <ele>1456.1</ele>
        <time>2026-02-07T12:58:40.000Z</time>
      </trkpt>
      <trkpt lat="43.03695" lon="-0.33245">
        <ele>1455.8</ele>
        <time>2026-02-07T12:58:43.000Z</time>
      </trkpt>
      <trkpt lat="43.03697" lon="-0.33241">
        <ele>1455.4</ele>
        <time>2026-02-07T12:58:46.000Z</time>
      </trkpt>
      <trkpt lat="43.03698" lon="-0.33238">
        <ele>1455</ele>
        <time>2026-02-07T12:58:49.000Z</time>
      </trkpt>
      <trkpt lat="43.03699" lon="-0.33235">
        <ele>1454.7</ele>
        <time>2026-02-07T12:58:52.000Z</time>
      </trkpt>
      <trkpt lat="43.037" lon="-0.33235">
        <ele>1454.4</ele>
        <time>2026-02-07T12:58:55.000Z</time>
      </trkpt>
      <trkpt lat="43.037" lon="-0.33235">
        <ele>1454.2</ele>
        <time>2026-02-07T12:58:58.000Z</time>
      </trkpt>
      <trkpt lat="43.037" lon="-0.33236">
        <ele>1454.2</ele>
        <time>2026-02-07T12:59:00.000Z</time>
      </trkpt>
      <trkpt lat="43.037" lon="-0.33236">
        <ele>1454.1</ele>
        <time>2026-02-07T12:59:01.000Z</time>
      </trkpt>
      <trkpt lat="43.03701" lon="-0.33237">
        <ele>1454</ele>
        <time>2026-02-07T12:59:04.000Z</time>
      </trkpt>
      <trkpt lat="43.03701" lon="-0.33237">
        <ele>1454</ele>
        <time>2026-02-07T12:59:05.000Z</time>
      </trkpt>
      <trkpt lat="43.03701" lon="-0.33237">
        <ele>1454</ele>
        <time>2026-02-07T12:59:06.000Z</time>
      </trkpt>
      <trkpt lat="43.03701" lon="-0.33237">
        <ele>1454</ele>
        <time>2026-02-07T12:59:09.000Z</time>
      </trkpt>
      <trkpt lat="43.03702" lon="-0.33237">
        <ele>1454</ele>
        <time>2026-02-07T12:59:12.000Z</time>
      </trkpt>
      <trkpt lat="43.037" lon="-0.33236">
        <ele>1454</ele>
        <time>2026-02-07T12:59:15.000Z</time>
      </trkpt>
      <trkpt lat="43.037" lon="-0.33232">
        <ele>1453.9</ele>
        <time>2026-02-07T12:59:18.000Z</time>
      </trkpt>
      <trkpt lat="43.03701" lon="-0.33227">
        <ele>1453.9</ele>
        <time>2026-02-07T12:59:21.000Z</time>
      </trkpt>
      <trkpt lat="43.03702" lon="-0.33222">
        <ele>1453.9</ele>
        <time>2026-02-07T12:59:24.000Z</time>
      </trkpt>
      <trkpt lat="43.03704" lon="-0.33218">
        <ele>1453.8</ele>
        <time>2026-02-07T12:59:27.000Z</time>
      </trkpt>
      <trkpt lat="43.03706" lon="-0.33214">
        <ele>1453.7</ele>
        <time>2026-02-07T12:59:30.000Z</time>
      </trkpt>
      <trkpt lat="43.03707" lon="-0.33211">
        <ele>1453.5</ele>
        <time>2026-02-07T12:59:33.000Z</time>
      </trkpt>
      <trkpt lat="43.03707" lon="-0.33206">
        <ele>1453</ele>
        <time>2026-02-07T12:59:36.000Z</time>
      </trkpt>
      <trkpt lat="43.03708" lon="-0.33201">
        <ele>1452.2</ele>
        <time>2026-02-07T12:59:39.000Z</time>
      </trkpt>
      <trkpt lat="43.03709" lon="-0.33196">
        <ele>1451.2</ele>
        <time>2026-02-07T12:59:42.000Z</time>
      </trkpt>
      <trkpt lat="43.03709" lon="-0.33191">
        <ele>1450.1</ele>
        <time>2026-02-07T12:59:45.000Z</time>
      </trkpt>
      <trkpt lat="43.03708" lon="-0.33186">
        <ele>1448.9</ele>
        <time>2026-02-07T12:59:48.000Z</time>
      </trkpt>
      <trkpt lat="43.03709" lon="-0.33183">
        <ele>1448</ele>
        <time>2026-02-07T12:59:51.000Z</time>
      </trkpt>
      <trkpt lat="43.03711" lon="-0.33178">
        <ele>1447</ele>
        <time>2026-02-07T12:59:54.000Z</time>
      </trkpt>
      <trkpt lat="43.03712" lon="-0.33176">
        <ele>1446.5</ele>
        <time>2026-02-07T12:59:57.000Z</time>
      </trkpt>
      <trkpt lat="43.03714" lon="-0.33177">
        <ele>1446.3</ele>
        <time>2026-02-07T13:00:03.000Z</time>
      </trkpt>
      <trkpt lat="43.03714" lon="-0.33176">
        <ele>1446.3</ele>
        <time>2026-02-07T13:00:04.000Z</time>
      </trkpt>
      <trkpt lat="43.03714" lon="-0.33177">
        <ele>1446.3</ele>
        <time>2026-02-07T13:00:05.000Z</time>
      </trkpt>
      <trkpt lat="43.03714" lon="-0.33177">
        <ele>1446.2</ele>
        <time>2026-02-07T13:00:06.000Z</time>
      </trkpt>
      <trkpt lat="43.03715" lon="-0.33177">
        <ele>1446.2</ele>
        <time>2026-02-07T13:00:09.000Z</time>
      </trkpt>
      <trkpt lat="43.03715" lon="-0.33177">
        <ele>1446.2</ele>
        <time>2026-02-07T13:00:10.000Z</time>
      </trkpt>
      <trkpt lat="43.03716" lon="-0.33177">
        <ele>1446.3</ele>
        <time>2026-02-07T13:00:11.000Z</time>
      </trkpt>
      <trkpt lat="43.03716" lon="-0.33177">
        <ele>1446.3</ele>
        <time>2026-02-07T13:00:12.000Z</time>
      </trkpt>
      <trkpt lat="43.03717" lon="-0.33177">
        <ele>1446.4</ele>
        <time>2026-02-07T13:00:15.000Z</time>
      </trkpt>
      <trkpt lat="43.03717" lon="-0.33178">
        <ele>1446.4</ele>
        <time>2026-02-07T13:00:16.000Z</time>
      </trkpt>
      <trkpt lat="43.03717" lon="-0.33179">
        <ele>1452.3</ele>
        <time>2026-02-07T14:03:32.000Z</time>
      </trkpt>
      <trkpt lat="43.03716" lon="-0.3318">
        <ele>1452.3</ele>
        <time>2026-02-07T14:03:35.000Z</time>
      </trkpt>
      <trkpt lat="43.03716" lon="-0.3318">
        <ele>1452.3</ele>
        <time>2026-02-07T14:03:38.000Z</time>
      </trkpt>
      <trkpt lat="43.03716" lon="-0.33183">
        <ele>1452.4</ele>
        <time>2026-02-07T14:03:41.000Z</time>
      </trkpt>
      <trkpt lat="43.03715" lon="-0.33185">
        <ele>1452.4</ele>
        <time>2026-02-07T14:03:44.000Z</time>
      </trkpt>
      <trkpt lat="43.03712" lon="-0.3319">
        <ele>1451.8</ele>
        <time>2026-02-07T14:06:27.000Z</time>
      </trkpt>
      <trkpt lat="43.03712" lon="-0.3319">
        <ele>1451.9</ele>
        <time>2026-02-07T14:06:30.000Z</time>
      </trkpt>
      <trkpt lat="43.03711" lon="-0.33191">
        <ele>1451.9</ele>
        <time>2026-02-07T14:06:33.000Z</time>
      </trkpt>
      <trkpt lat="43.0371" lon="-0.33191">
        <ele>1451.9</ele>
        <time>2026-02-07T14:06:36.000Z</time>
      </trkpt>
      <trkpt lat="43.0371" lon="-0.33191">
        <ele>1452</ele>
        <time>2026-02-07T14:06:39.000Z</time>
      </trkpt>
      <trkpt lat="43.0371" lon="-0.33192">
        <ele>1453.3</ele>
        <time>2026-02-07T14:07:47.000Z</time>
      </trkpt>
      <trkpt lat="43.0371" lon="-0.33192">
        <ele>1453.4</ele>
        <time>2026-02-07T14:07:50.000Z</time>
      </trkpt>
      <trkpt lat="43.0371" lon="-0.33192">
        <ele>1453.4</ele>
        <time>2026-02-07T14:07:51.000Z</time>
      </trkpt>
      <trkpt lat="43.0371" lon="-0.33192">
        <ele>1453.5</ele>
        <time>2026-02-07T14:07:54.000Z</time>
      </trkpt>
      <trkpt lat="43.0371" lon="-0.33192">
        <ele>1453.6</ele>
        <time>2026-02-07T14:07:57.000Z</time>
      </trkpt>
      <trkpt lat="43.0371" lon="-0.33194">
        <ele>1453.8</ele>
        <time>2026-02-07T14:08:00.000Z</time>
      </trkpt>
      <trkpt lat="43.0371" lon="-0.33195">
        <ele>1453.8</ele>
        <time>2026-02-07T14:08:01.000Z</time>
      </trkpt>
      <trkpt lat="43.03711" lon="-0.33196">
        <ele>1453.9</ele>
        <time>2026-02-07T14:08:02.000Z</time>
      </trkpt>
      <trkpt lat="43.03711" lon="-0.33199">
        <ele>1454.1</ele>
        <time>2026-02-07T14:08:05.000Z</time>
      </trkpt>
      <trkpt lat="43.0371" lon="-0.33202">
        <ele>1454.3</ele>
        <time>2026-02-07T14:08:08.000Z</time>
      </trkpt>
      <trkpt lat="43.03711" lon="-0.33204">
        <ele>1454.6</ele>
        <time>2026-02-07T14:08:11.000Z</time>
      </trkpt>
      <trkpt lat="43.03711" lon="-0.33207">
        <ele>1454.8</ele>
        <time>2026-02-07T14:08:14.000Z</time>
      </trkpt>
      <trkpt lat="43.03711" lon="-0.33209">
        <ele>1455.1</ele>
        <time>2026-02-07T14:08:17.000Z</time>
      </trkpt>
      <trkpt lat="43.03712" lon="-0.33211">
        <ele>1455.6</ele>
        <time>2026-02-07T14:08:20.000Z</time>
      </trkpt>
      <trkpt lat="43.03714" lon="-0.33213">
        <ele>1455.9</ele>
        <time>2026-02-07T14:08:23.000Z</time>
      </trkpt>
      <trkpt lat="43.03715" lon="-0.33215">
        <ele>1456.3</ele>
        <time>2026-02-07T14:08:26.000Z</time>
      </trkpt>
      <trkpt lat="43.03717" lon="-0.33216">
        <ele>1456.8</ele>
        <time>2026-02-07T14:08:29.000Z</time>
      </trkpt>
      <trkpt lat="43.03718" lon="-0.33219">
        <ele>1457.3</ele>
        <time>2026-02-07T14:08:32.000Z</time>
      </trkpt>
      <trkpt lat="43.03718" lon="-0.33221">
        <ele>1457.8</ele>
        <time>2026-02-07T14:08:35.000Z</time>
      </trkpt>
      <trkpt lat="43.03717" lon="-0.33225">
        <ele>1458.2</ele>
        <time>2026-02-07T14:08:38.000Z</time>
      </trkpt>
      <trkpt lat="43.03716" lon="-0.33227">
        <ele>1458.5</ele>
        <time>2026-02-07T14:08:41.000Z</time>
      </trkpt>
      <trkpt lat="43.03717" lon="-0.3323">
        <ele>1458.8</ele>
        <time>2026-02-07T14:08:44.000Z</time>
      </trkpt>
      <trkpt lat="43.03716" lon="-0.33233">
        <ele>1459.2</ele>
        <time>2026-02-07T14:08:47.000Z</time>
      </trkpt>
      <trkpt lat="43.03716" lon="-0.33235">
        <ele>1459.5</ele>
        <time>2026-02-07T14:08:50.000Z</time>
      </trkpt>
      <trkpt lat="43.03715" lon="-0.33236">
        <ele>1459.7</ele>
        <time>2026-02-07T14:08:53.000Z</time>
      </trkpt>
      <trkpt lat="43.03715" lon="-0.33236">
        <ele>1459.9</ele>
        <time>2026-02-07T14:08:56.000Z</time>
      </trkpt>
      <trkpt lat="43.03715" lon="-0.33236">
        <ele>1460</ele>
        <time>2026-02-07T14:08:57.000Z</time>
      </trkpt>
      <trkpt lat="43.03715" lon="-0.33236">
        <ele>1460</ele>
        <time>2026-02-07T14:08:58.000Z</time>
      </trkpt>
      <trkpt lat="43.03715" lon="-0.33236">
        <ele>1460.1</ele>
        <time>2026-02-07T14:09:01.000Z</time>
      </trkpt>
      <trkpt lat="43.03714" lon="-0.33237">
        <ele>1460.1</ele>
        <time>2026-02-07T14:09:04.000Z</time>
      </trkpt>
      <trkpt lat="43.03714" lon="-0.33238">
        <ele>1460.1</ele>
        <time>2026-02-07T14:09:05.000Z</time>
      </trkpt>
      <trkpt lat="43.03714" lon="-0.33239">
        <ele>1460.2</ele>
        <time>2026-02-07T14:09:06.000Z</time>
      </trkpt>
      <trkpt lat="43.03713" lon="-0.33242">
        <ele>1460.2</ele>
        <time>2026-02-07T14:09:09.000Z</time>
      </trkpt>
      <trkpt lat="43.03712" lon="-0.33246">
        <ele>1460.3</ele>
        <time>2026-02-07T14:09:12.000Z</time>
      </trkpt>
      <trkpt lat="43.03712" lon="-0.3325">
        <ele>1460.3</ele>
        <time>2026-02-07T14:09:15.000Z</time>
      </trkpt>
      <trkpt lat="43.03711" lon="-0.33254">
        <ele>1460.4</ele>
        <time>2026-02-07T14:09:18.000Z</time>
      </trkpt>
      <trkpt lat="43.03711" lon="-0.33256">
        <ele>1460.5</ele>
        <time>2026-02-07T14:09:21.000Z</time>
      </trkpt>
      <trkpt lat="43.03711" lon="-0.33259">
        <ele>1460.6</ele>
        <time>2026-02-07T14:09:24.000Z</time>
      </trkpt>
      <trkpt lat="43.03711" lon="-0.33262">
        <ele>1460.7</ele>
        <time>2026-02-07T14:09:27.000Z</time>
      </trkpt>
      <trkpt lat="43.03711" lon="-0.33265">
        <ele>1461</ele>
        <time>2026-02-07T14:09:30.000Z</time>
      </trkpt>
      <trkpt lat="43.03711" lon="-0.33267">
        <ele>1461.2</ele>
        <time>2026-02-07T14:09:33.000Z</time>
      </trkpt>
      <trkpt lat="43.03711" lon="-0.3327">
        <ele>1461.6</ele>
        <time>2026-02-07T14:09:36.000Z</time>
      </trkpt>
      <trkpt lat="43.03711" lon="-0.33273">
        <ele>1461.9</ele>
        <time>2026-02-07T14:09:39.000Z</time>
      </trkpt>
      <trkpt lat="43.03711" lon="-0.33274">
        <ele>1462.3</ele>
        <time>2026-02-07T14:09:42.000Z</time>
      </trkpt>
      <trkpt lat="43.03712" lon="-0.33277">
        <ele>1462.7</ele>
        <time>2026-02-07T14:09:45.000Z</time>
      </trkpt>
      <trkpt lat="43.03712" lon="-0.33279">
        <ele>1463.1</ele>
        <time>2026-02-07T14:09:48.000Z</time>
      </trkpt>
      <trkpt lat="43.03713" lon="-0.33281">
        <ele>1463.5</ele>
        <time>2026-02-07T14:09:51.000Z</time>
      </trkpt>
      <trkpt lat="43.03712" lon="-0.33283">
        <ele>1463.9</ele>
        <time>2026-02-07T14:09:54.000Z</time>
      </trkpt>
      <trkpt lat="43.03712" lon="-0.33285">
        <ele>1464.2</ele>
        <time>2026-02-07T14:09:57.000Z</time>
      </trkpt>
      <trkpt lat="43.03712" lon="-0.33288">
        <ele>1464.5</ele>
        <time>2026-02-07T14:10:00.000Z</time>
      </trkpt>
      <trkpt lat="43.03713" lon="-0.33291">
        <ele>1464.8</ele>
        <time>2026-02-07T14:10:03.000Z</time>
      </trkpt>
      <trkpt lat="43.03713" lon="-0.33293">
        <ele>1465.2</ele>
        <time>2026-02-07T14:10:06.000Z</time>
      </trkpt>
      <trkpt lat="43.03714" lon="-0.33297">
        <ele>1465.5</ele>
        <time>2026-02-07T14:10:09.000Z</time>
      </trkpt>
      <trkpt lat="43.03714" lon="-0.33299">
        <ele>1465.8</ele>
        <time>2026-02-07T14:10:12.000Z</time>
      </trkpt>
      <trkpt lat="43.03715" lon="-0.33301">
        <ele>1466.1</ele>
        <time>2026-02-07T14:10:15.000Z</time>
      </trkpt>
      <trkpt lat="43.03715" lon="-0.33303">
        <ele>1466.3</ele>
        <time>2026-02-07T14:10:18.000Z</time>
      </trkpt>
      <trkpt lat="43.03715" lon="-0.33305">
        <ele>1466.6</ele>
        <time>2026-02-07T14:10:21.000Z</time>
      </trkpt>
      <trkpt lat="43.03715" lon="-0.33308">
        <ele>1466.8</ele>
        <time>2026-02-07T14:10:24.000Z</time>
      </trkpt>
      <trkpt lat="43.03716" lon="-0.3331">
        <ele>1467</ele>
        <time>2026-02-07T14:10:27.000Z</time>
      </trkpt>
      <trkpt lat="43.03716" lon="-0.33312">
        <ele>1467.3</ele>
        <time>2026-02-07T14:10:30.000Z</time>
      </trkpt>
      <trkpt lat="43.03716" lon="-0.33314">
        <ele>1467.6</ele>
        <time>2026-02-07T14:10:33.000Z</time>
      </trkpt>
      <trkpt lat="43.03717" lon="-0.33316">
        <ele>1467.8</ele>
        <time>2026-02-07T14:10:36.000Z</time>
      </trkpt>
      <trkpt lat="43.03717" lon="-0.33319">
        <ele>1468.1</ele>
        <time>2026-02-07T14:10:39.000Z</time>
      </trkpt>
      <trkpt lat="43.03718" lon="-0.33321">
        <ele>1468.2</ele>
        <time>2026-02-07T14:10:42.000Z</time>
      </trkpt>
      <trkpt lat="43.03719" lon="-0.33323">
        <ele>1468.4</ele>
        <time>2026-02-07T14:10:45.000Z</time>
      </trkpt>
      <trkpt lat="43.03719" lon="-0.33324">
        <ele>1468.6</ele>
        <time>2026-02-07T14:10:48.000Z</time>
      </trkpt>
      <trkpt lat="43.03719" lon="-0.33326">
        <ele>1468.8</ele>
        <time>2026-02-07T14:10:51.000Z</time>
      </trkpt>
      <trkpt lat="43.03719" lon="-0.33328">
        <ele>1469.1</ele>
        <time>2026-02-07T14:10:54.000Z</time>
      </trkpt>
      <trkpt lat="43.03719" lon="-0.33331">
        <ele>1469.3</ele>
        <time>2026-02-07T14:10:57.000Z</time>
      </trkpt>
      <trkpt lat="43.0372" lon="-0.33333">
        <ele>1469.6</ele>
        <time>2026-02-07T14:11:00.000Z</time>
      </trkpt>
      <trkpt lat="43.0372" lon="-0.33335">
        <ele>1469.9</ele>
        <time>2026-02-07T14:11:03.000Z</time>
      </trkpt>
      <trkpt lat="43.0372" lon="-0.33337">
        <ele>1470.3</ele>
        <time>2026-02-07T14:11:06.000Z</time>
      </trkpt>
      <trkpt lat="43.03721" lon="-0.33339">
        <ele>1470.6</ele>
        <time>2026-02-07T14:11:09.000Z</time>
      </trkpt>
      <trkpt lat="43.03721" lon="-0.33343">
        <ele>1471</ele>
        <time>2026-02-07T14:11:12.000Z</time>
      </trkpt>
      <trkpt lat="43.03723" lon="-0.33345">
        <ele>1471.3</ele>
        <time>2026-02-07T14:11:15.000Z</time>
      </trkpt>
      <trkpt lat="43.03723" lon="-0.33345">
        <ele>1471.6</ele>
        <time>2026-02-07T14:11:18.000Z</time>
      </trkpt>
      <trkpt lat="43.03723" lon="-0.33345">
        <ele>1471.9</ele>
        <time>2026-02-07T14:11:21.000Z</time>
      </trkpt>
      <trkpt lat="43.03723" lon="-0.33345">
        <ele>1471.9</ele>
        <time>2026-02-07T14:11:22.000Z</time>
      </trkpt>
      <trkpt lat="43.03723" lon="-0.33345">
        <ele>1472</ele>
        <time>2026-02-07T14:11:23.000Z</time>
      </trkpt>
      <trkpt lat="43.03723" lon="-0.33345">
        <ele>1472.1</ele>
        <time>2026-02-07T14:11:26.000Z</time>
      </trkpt>
      <trkpt lat="43.03723" lon="-0.33346">
        <ele>1472.1</ele>
        <time>2026-02-07T14:11:27.000Z</time>
      </trkpt>
      <trkpt lat="43.03723" lon="-0.33347">
        <ele>1472.2</ele>
        <time>2026-02-07T14:11:28.000Z</time>
      </trkpt>
      <trkpt lat="43.03723" lon="-0.33348">
        <ele>1472.3</ele>
        <time>2026-02-07T14:11:29.000Z</time>
      </trkpt>
      <trkpt lat="43.03724" lon="-0.3335">
        <ele>1472.4</ele>
        <time>2026-02-07T14:11:32.000Z</time>
      </trkpt>
      <trkpt lat="43.03725" lon="-0.33352">
        <ele>1472.6</ele>
        <time>2026-02-07T14:11:35.000Z</time>
      </trkpt>
      <trkpt lat="43.03726" lon="-0.33353">
        <ele>1472.9</ele>
        <time>2026-02-07T14:11:38.000Z</time>
      </trkpt>
      <trkpt lat="43.03726" lon="-0.33353">
        <ele>1473.1</ele>
        <time>2026-02-07T14:11:41.000Z</time>
      </trkpt>
      <trkpt lat="43.03726" lon="-0.33353">
        <ele>1473.2</ele>
        <time>2026-02-07T14:11:42.000Z</time>
      </trkpt>
      <trkpt lat="43.03726" lon="-0.33353">
        <ele>1473.2</ele>
        <time>2026-02-07T14:11:43.000Z</time>
      </trkpt>
      <trkpt lat="43.03726" lon="-0.33353">
        <ele>1473.3</ele>
        <time>2026-02-07T14:11:44.000Z</time>
      </trkpt>
      <trkpt lat="43.03726" lon="-0.33353">
        <ele>1473.4</ele>
        <time>2026-02-07T14:11:47.000Z</time>
      </trkpt>
      <trkpt lat="43.03726" lon="-0.33353">
        <ele>1473.5</ele>
        <time>2026-02-07T14:11:50.000Z</time>
      </trkpt>
      <trkpt lat="43.03726" lon="-0.33354">
        <ele>1473.6</ele>
        <time>2026-02-07T14:11:51.000Z</time>
      </trkpt>
      <trkpt lat="43.03727" lon="-0.33354">
        <ele>1473.7</ele>
        <time>2026-02-07T14:11:54.000Z</time>
      </trkpt>
      <trkpt lat="43.03728" lon="-0.33355">
        <ele>1473.8</ele>
        <time>2026-02-07T14:11:57.000Z</time>
      </trkpt>
      <trkpt lat="43.03728" lon="-0.33356">
        <ele>1474.1</ele>
        <time>2026-02-07T14:12:00.000Z</time>
      </trkpt>
      <trkpt lat="43.03729" lon="-0.33357">
        <ele>1474.3</ele>
        <time>2026-02-07T14:12:03.000Z</time>
      </trkpt>
      <trkpt lat="43.0373" lon="-0.33359">
        <ele>1474.5</ele>
        <time>2026-02-07T14:12:06.000Z</time>
      </trkpt>
      <trkpt lat="43.0373" lon="-0.33359">
        <ele>1474.8</ele>
        <time>2026-02-07T14:12:09.000Z</time>
      </trkpt>
      <trkpt lat="43.03731" lon="-0.3336">
        <ele>1475.1</ele>
        <time>2026-02-07T14:12:12.000Z</time>
      </trkpt>
      <trkpt lat="43.03731" lon="-0.33361">
        <ele>1475.5</ele>
        <time>2026-02-07T14:12:15.000Z</time>
      </trkpt>
      <trkpt lat="43.03732" lon="-0.33362">
        <ele>1475.8</ele>
        <time>2026-02-07T14:12:18.000Z</time>
      </trkpt>
      <trkpt lat="43.03732" lon="-0.33363">
        <ele>1476.2</ele>
        <time>2026-02-07T14:12:21.000Z</time>
      </trkpt>
      <trkpt lat="43.03732" lon="-0.33364">
        <ele>1476.6</ele>
        <time>2026-02-07T14:12:24.000Z</time>
      </trkpt>
      <trkpt lat="43.03733" lon="-0.33366">
        <ele>1477</ele>
        <time>2026-02-07T14:12:27.000Z</time>
      </trkpt>
      <trkpt lat="43.03733" lon="-0.33368">
        <ele>1477.3</ele>
        <time>2026-02-07T14:12:30.000Z</time>
      </trkpt>
      <trkpt lat="43.03733" lon="-0.33369">
        <ele>1477.6</ele>
        <time>2026-02-07T14:12:33.000Z</time>
      </trkpt>
      <trkpt lat="43.03733" lon="-0.33371">
        <ele>1477.8</ele>
        <time>2026-02-07T14:12:36.000Z</time>
      </trkpt>
      <trkpt lat="43.03734" lon="-0.33373">
        <ele>1478.1</ele>
        <time>2026-02-07T14:12:39.000Z</time>
      </trkpt>
      <trkpt lat="43.03734" lon="-0.33375">
        <ele>1478.4</ele>
        <time>2026-02-07T14:12:42.000Z</time>
      </trkpt>
      <trkpt lat="43.03734" lon="-0.33376">
        <ele>1478.7</ele>
        <time>2026-02-07T14:12:45.000Z</time>
      </trkpt>
      <trkpt lat="43.03734" lon="-0.33378">
        <ele>1479</ele>
        <time>2026-02-07T14:12:48.000Z</time>
      </trkpt>
      <trkpt lat="43.03735" lon="-0.3338">
        <ele>1479.3</ele>
        <time>2026-02-07T14:12:51.000Z</time>
      </trkpt>
      <trkpt lat="43.03734" lon="-0.33381">
        <ele>1479.5</ele>
        <time>2026-02-07T14:12:54.000Z</time>
      </trkpt>
      <trkpt lat="43.03735" lon="-0.33382">
        <ele>1479.7</ele>
        <time>2026-02-07T14:12:57.000Z</time>
      </trkpt>
      <trkpt lat="43.03736" lon="-0.33384">
        <ele>1480</ele>
        <time>2026-02-07T14:13:00.000Z</time>
      </trkpt>
      <trkpt lat="43.03737" lon="-0.33386">
        <ele>1480.2</ele>
        <time>2026-02-07T14:13:03.000Z</time>
      </trkpt>
      <trkpt lat="43.03737" lon="-0.33387">
        <ele>1480.5</ele>
        <time>2026-02-07T14:13:06.000Z</time>
      </trkpt>
      <trkpt lat="43.03737" lon="-0.33389">
        <ele>1480.8</ele>
        <time>2026-02-07T14:13:09.000Z</time>
      </trkpt>
      <trkpt lat="43.03738" lon="-0.33391">
        <ele>1481.1</ele>
        <time>2026-02-07T14:13:12.000Z</time>
      </trkpt>
      <trkpt lat="43.03738" lon="-0.33394">
        <ele>1481.4</ele>
        <time>2026-02-07T14:13:15.000Z</time>
      </trkpt>
      <trkpt lat="43.03739" lon="-0.33395">
        <ele>1481.7</ele>
        <time>2026-02-07T14:13:18.000Z</time>
      </trkpt>
      <trkpt lat="43.03738" lon="-0.33398">
        <ele>1482</ele>
        <time>2026-02-07T14:13:21.000Z</time>
      </trkpt>
      <trkpt lat="43.03739" lon="-0.334">
        <ele>1482.2</ele>
        <time>2026-02-07T14:13:24.000Z</time>
      </trkpt>
      <trkpt lat="43.03739" lon="-0.33401">
        <ele>1482.5</ele>
        <time>2026-02-07T14:13:27.000Z</time>
      </trkpt>
      <trkpt lat="43.03739" lon="-0.33403">
        <ele>1482.8</ele>
        <time>2026-02-07T14:13:30.000Z</time>
      </trkpt>
      <trkpt lat="43.03739" lon="-0.33405">
        <ele>1483</ele>
        <time>2026-02-07T14:13:33.000Z</time>
      </trkpt>
      <trkpt lat="43.0374" lon="-0.33407">
        <ele>1483.4</ele>
        <time>2026-02-07T14:13:36.000Z</time>
      </trkpt>
      <trkpt lat="43.03741" lon="-0.33409">
        <ele>1483.6</ele>
        <time>2026-02-07T14:13:39.000Z</time>
      </trkpt>
      <trkpt lat="43.03742" lon="-0.33411">
        <ele>1483.9</ele>
        <time>2026-02-07T14:13:42.000Z</time>
      </trkpt>
      <trkpt lat="43.03742" lon="-0.33413">
        <ele>1484.2</ele>
        <time>2026-02-07T14:13:45.000Z</time>
      </trkpt>
      <trkpt lat="43.03742" lon="-0.33415">
        <ele>1484.5</ele>
        <time>2026-02-07T14:13:48.000Z</time>
      </trkpt>
      <trkpt lat="43.03742" lon="-0.33418">
        <ele>1484.8</ele>
        <time>2026-02-07T14:13:51.000Z</time>
      </trkpt>
      <trkpt lat="43.03742" lon="-0.33419">
        <ele>1485.1</ele>
        <time>2026-02-07T14:13:54.000Z</time>
      </trkpt>
      <trkpt lat="43.03743" lon="-0.33423">
        <ele>1485.4</ele>
        <time>2026-02-07T14:13:57.000Z</time>
      </trkpt>
      <trkpt lat="43.03743" lon="-0.33425">
        <ele>1485.8</ele>
        <time>2026-02-07T14:14:00.000Z</time>
      </trkpt>
      <trkpt lat="43.03744" lon="-0.33424">
        <ele>1486.1</ele>
        <time>2026-02-07T14:14:03.000Z</time>
      </trkpt>
      <trkpt lat="43.03744" lon="-0.33423">
        <ele>1486.2</ele>
        <time>2026-02-07T14:14:04.000Z</time>
      </trkpt>
      <trkpt lat="43.03744" lon="-0.33423">
        <ele>1486.3</ele>
        <time>2026-02-07T14:14:05.000Z</time>
      </trkpt>
      <trkpt lat="43.03744" lon="-0.33423">
        <ele>1486.3</ele>
        <time>2026-02-07T14:14:06.000Z</time>
      </trkpt>
      <trkpt lat="43.03745" lon="-0.33424">
        <ele>1486.6</ele>
        <time>2026-02-07T14:14:09.000Z</time>
      </trkpt>
      <trkpt lat="43.03745" lon="-0.33425">
        <ele>1486.6</ele>
        <time>2026-02-07T14:14:10.000Z</time>
      </trkpt>
      <trkpt lat="43.03745" lon="-0.33426">
        <ele>1486.7</ele>
        <time>2026-02-07T14:14:11.000Z</time>
      </trkpt>
      <trkpt lat="43.03745" lon="-0.33429">
        <ele>1487</ele>
        <time>2026-02-07T14:14:14.000Z</time>
      </trkpt>
      <trkpt lat="43.03744" lon="-0.33431">
        <ele>1487.3</ele>
        <time>2026-02-07T14:14:17.000Z</time>
      </trkpt>
      <trkpt lat="43.03745" lon="-0.33434">
        <ele>1487.6</ele>
        <time>2026-02-07T14:14:20.000Z</time>
      </trkpt>
      <trkpt lat="43.03746" lon="-0.33437">
        <ele>1487.9</ele>
        <time>2026-02-07T14:14:23.000Z</time>
      </trkpt>
      <trkpt lat="43.03746" lon="-0.3344">
        <ele>1488.2</ele>
        <time>2026-02-07T14:14:26.000Z</time>
      </trkpt>
      <trkpt lat="43.03747" lon="-0.33442">
        <ele>1488.6</ele>
        <time>2026-02-07T14:14:29.000Z</time>
      </trkpt>
      <trkpt lat="43.03747" lon="-0.33444">
        <ele>1488.9</ele>
        <time>2026-02-07T14:14:32.000Z</time>
      </trkpt>
      <trkpt lat="43.03747" lon="-0.33447">
        <ele>1489.3</ele>
        <time>2026-02-07T14:14:35.000Z</time>
      </trkpt>
      <trkpt lat="43.03748" lon="-0.33449">
        <ele>1489.7</ele>
        <time>2026-02-07T14:14:38.000Z</time>
      </trkpt>
      <trkpt lat="43.03748" lon="-0.33451">
        <ele>1490.1</ele>
        <time>2026-02-07T14:14:41.000Z</time>
      </trkpt>
      <trkpt lat="43.03748" lon="-0.33453">
        <ele>1490.4</ele>
        <time>2026-02-07T14:14:44.000Z</time>
      </trkpt>
      <trkpt lat="43.03749" lon="-0.33456">
        <ele>1490.6</ele>
        <time>2026-02-07T14:14:47.000Z</time>
      </trkpt>
      <trkpt lat="43.0375" lon="-0.33457">
        <ele>1491</ele>
        <time>2026-02-07T14:14:50.000Z</time>
      </trkpt>
      <trkpt lat="43.0375" lon="-0.3346">
        <ele>1491.4</ele>
        <time>2026-02-07T14:14:53.000Z</time>
      </trkpt>
      <trkpt lat="43.03751" lon="-0.33462">
        <ele>1491.8</ele>
        <time>2026-02-07T14:14:56.000Z</time>
      </trkpt>
      <trkpt lat="43.03751" lon="-0.33464">
        <ele>1492.2</ele>
        <time>2026-02-07T14:14:59.000Z</time>
      </trkpt>
      <trkpt lat="43.03752" lon="-0.33467">
        <ele>1492.6</ele>
        <time>2026-02-07T14:15:02.000Z</time>
      </trkpt>
      <trkpt lat="43.03753" lon="-0.3347">
        <ele>1493</ele>
        <time>2026-02-07T14:15:05.000Z</time>
      </trkpt>
      <trkpt lat="43.03754" lon="-0.33472">
        <ele>1493.4</ele>
        <time>2026-02-07T14:15:08.000Z</time>
      </trkpt>
      <trkpt lat="43.03755" lon="-0.33474">
        <ele>1493.8</ele>
        <time>2026-02-07T14:15:11.000Z</time>
      </trkpt>
      <trkpt lat="43.03755" lon="-0.33476">
        <ele>1494.2</ele>
        <time>2026-02-07T14:15:14.000Z</time>
      </trkpt>
      <trkpt lat="43.03756" lon="-0.33478">
        <ele>1494.6</ele>
        <time>2026-02-07T14:15:17.000Z</time>
      </trkpt>
      <trkpt lat="43.03757" lon="-0.3348">
        <ele>1495</ele>
        <time>2026-02-07T14:15:20.000Z</time>
      </trkpt>
      <trkpt lat="43.03757" lon="-0.33483">
        <ele>1495.4</ele>
        <time>2026-02-07T14:15:23.000Z</time>
      </trkpt>
      <trkpt lat="43.03758" lon="-0.33485">
        <ele>1495.7</ele>
        <time>2026-02-07T14:15:26.000Z</time>
      </trkpt>
      <trkpt lat="43.03758" lon="-0.33488">
        <ele>1496</ele>
        <time>2026-02-07T14:15:29.000Z</time>
      </trkpt>
      <trkpt lat="43.03758" lon="-0.33491">
        <ele>1496.2</ele>
        <time>2026-02-07T14:15:32.000Z</time>
      </trkpt>
      <trkpt lat="43.03759" lon="-0.33493">
        <ele>1496.5</ele>
        <time>2026-02-07T14:15:35.000Z</time>
      </trkpt>
      <trkpt lat="43.03761" lon="-0.33495">
        <ele>1496.8</ele>
        <time>2026-02-07T14:15:38.000Z</time>
      </trkpt>
      <trkpt lat="43.03762" lon="-0.33497">
        <ele>1497.1</ele>
        <time>2026-02-07T14:15:41.000Z</time>
      </trkpt>
      <trkpt lat="43.03764" lon="-0.33499">
        <ele>1497.4</ele>
        <time>2026-02-07T14:15:44.000Z</time>
      </trkpt>
      <trkpt lat="43.03764" lon="-0.33501">
        <ele>1497.7</ele>
        <time>2026-02-07T14:15:47.000Z</time>
      </trkpt>
      <trkpt lat="43.03764" lon="-0.33502">
        <ele>1498</ele>
        <time>2026-02-07T14:15:50.000Z</time>
      </trkpt>
      <trkpt lat="43.03765" lon="-0.33504">
        <ele>1498.4</ele>
        <time>2026-02-07T14:15:53.000Z</time>
      </trkpt>
      <trkpt lat="43.03765" lon="-0.33506">
        <ele>1498.7</ele>
        <time>2026-02-07T14:15:56.000Z</time>
      </trkpt>
      <trkpt lat="43.03765" lon="-0.33509">
        <ele>1498.9</ele>
        <time>2026-02-07T14:15:59.000Z</time>
      </trkpt>
      <trkpt lat="43.03764" lon="-0.33511">
        <ele>1499.2</ele>
        <time>2026-02-07T14:16:02.000Z</time>
      </trkpt>
      <trkpt lat="43.03765" lon="-0.33514">
        <ele>1499.5</ele>
        <time>2026-02-07T14:16:05.000Z</time>
      </trkpt>
      <trkpt lat="43.03766" lon="-0.33515">
        <ele>1499.8</ele>
        <time>2026-02-07T14:16:08.000Z</time>
      </trkpt>
      <trkpt lat="43.03766" lon="-0.33518">
        <ele>1500</ele>
        <time>2026-02-07T14:16:11.000Z</time>
      </trkpt>
      <trkpt lat="43.03765" lon="-0.33522">
        <ele>1500.2</ele>
        <time>2026-02-07T14:16:14.000Z</time>
      </trkpt>
      <trkpt lat="43.03764" lon="-0.33525">
        <ele>1500.3</ele>
        <time>2026-02-07T14:16:17.000Z</time>
      </trkpt>
      <trkpt lat="43.03763" lon="-0.33529">
        <ele>1500.4</ele>
        <time>2026-02-07T14:16:20.000Z</time>
      </trkpt>
      <trkpt lat="43.03761" lon="-0.33532">
        <ele>1500.5</ele>
        <time>2026-02-07T14:16:23.000Z</time>
      </trkpt>
      <trkpt lat="43.0376" lon="-0.33535">
        <ele>1500.6</ele>
        <time>2026-02-07T14:16:26.000Z</time>
      </trkpt>
      <trkpt lat="43.03759" lon="-0.33539">
        <ele>1500.6</ele>
        <time>2026-02-07T14:16:29.000Z</time>
      </trkpt>
      <trkpt lat="43.03758" lon="-0.33542">
        <ele>1500.7</ele>
        <time>2026-02-07T14:16:32.000Z</time>
      </trkpt>
      <trkpt lat="43.03756" lon="-0.33545">
        <ele>1500.7</ele>
        <time>2026-02-07T14:16:35.000Z</time>
      </trkpt>
      <trkpt lat="43.03756" lon="-0.33548">
        <ele>1500.8</ele>
        <time>2026-02-07T14:16:38.000Z</time>
      </trkpt>
      <trkpt lat="43.03755" lon="-0.33551">
        <ele>1501</ele>
        <time>2026-02-07T14:16:41.000Z</time>
      </trkpt>
      <trkpt lat="43.03755" lon="-0.33555">
        <ele>1501.2</ele>
        <time>2026-02-07T14:16:44.000Z</time>
      </trkpt>
      <trkpt lat="43.03754" lon="-0.33558">
        <ele>1501.4</ele>
        <time>2026-02-07T14:16:47.000Z</time>
      </trkpt>
      <trkpt lat="43.03753" lon="-0.33561">
        <ele>1501.7</ele>
        <time>2026-02-07T14:16:50.000Z</time>
      </trkpt>
      <trkpt lat="43.03752" lon="-0.33565">
        <ele>1501.9</ele>
        <time>2026-02-07T14:16:53.000Z</time>
      </trkpt>
      <trkpt lat="43.03751" lon="-0.33568">
        <ele>1502.1</ele>
        <time>2026-02-07T14:16:56.000Z</time>
      </trkpt>
      <trkpt lat="43.0375" lon="-0.3357">
        <ele>1502.3</ele>
        <time>2026-02-07T14:16:59.000Z</time>
      </trkpt>
      <trkpt lat="43.03749" lon="-0.33574">
        <ele>1502.5</ele>
        <time>2026-02-07T14:17:02.000Z</time>
      </trkpt>
      <trkpt lat="43.03749" lon="-0.33577">
        <ele>1502.7</ele>
        <time>2026-02-07T14:17:05.000Z</time>
      </trkpt>
      <trkpt lat="43.03749" lon="-0.33581">
        <ele>1503</ele>
        <time>2026-02-07T14:17:08.000Z</time>
      </trkpt>
      <trkpt lat="43.03747" lon="-0.33583">
        <ele>1503.2</ele>
        <time>2026-02-07T14:17:11.000Z</time>
      </trkpt>
      <trkpt lat="43.03747" lon="-0.33586">
        <ele>1503.3</ele>
        <time>2026-02-07T14:17:14.000Z</time>
      </trkpt>
      <trkpt lat="43.03746" lon="-0.3359">
        <ele>1503.6</ele>
        <time>2026-02-07T14:17:17.000Z</time>
      </trkpt>
      <trkpt lat="43.03744" lon="-0.33591">
        <ele>1503.8</ele>
        <time>2026-02-07T14:17:20.000Z</time>
      </trkpt>
      <trkpt lat="43.03743" lon="-0.33592">
        <ele>1504</ele>
        <time>2026-02-07T14:17:23.000Z</time>
      </trkpt>
      <trkpt lat="43.03741" lon="-0.33593">
        <ele>1504.1</ele>
        <time>2026-02-07T14:17:26.000Z</time>
      </trkpt>
      <trkpt lat="43.0374" lon="-0.33594">
        <ele>1504.2</ele>
        <time>2026-02-07T14:17:29.000Z</time>
      </trkpt>
      <trkpt lat="43.03739" lon="-0.33596">
        <ele>1504.2</ele>
        <time>2026-02-07T14:17:32.000Z</time>
      </trkpt>
      <trkpt lat="43.03738" lon="-0.33599">
        <ele>1504.2</ele>
        <time>2026-02-07T14:17:35.000Z</time>
      </trkpt>
      <trkpt lat="43.03737" lon="-0.336">
        <ele>1504.3</ele>
        <time>2026-02-07T14:17:38.000Z</time>
      </trkpt>
      <trkpt lat="43.03737" lon="-0.336">
        <ele>1504.2</ele>
        <time>2026-02-07T14:17:39.000Z</time>
      </trkpt>
      <trkpt lat="43.03737" lon="-0.336">
        <ele>1504.2</ele>
        <time>2026-02-07T14:17:40.000Z</time>
      </trkpt>
      <trkpt lat="43.03737" lon="-0.336">
        <ele>1504.2</ele>
        <time>2026-02-07T14:17:41.000Z</time>
      </trkpt>
      <trkpt lat="43.03737" lon="-0.33601">
        <ele>1504.2</ele>
        <time>2026-02-07T14:17:44.000Z</time>
      </trkpt>
      <trkpt lat="43.03737" lon="-0.33601">
        <ele>1504.2</ele>
        <time>2026-02-07T14:17:45.000Z</time>
      </trkpt>
      <trkpt lat="43.03737" lon="-0.33602">
        <ele>1504.2</ele>
        <time>2026-02-07T14:17:46.000Z</time>
      </trkpt>
      <trkpt lat="43.03736" lon="-0.33605">
        <ele>1504.2</ele>
        <time>2026-02-07T14:17:49.000Z</time>
      </trkpt>
      <trkpt lat="43.03735" lon="-0.33606">
        <ele>1504.2</ele>
        <time>2026-02-07T14:17:52.000Z</time>
      </trkpt>
      <trkpt lat="43.03733" lon="-0.33608">
        <ele>1504.2</ele>
        <time>2026-02-07T14:17:55.000Z</time>
      </trkpt>
      <trkpt lat="43.03734" lon="-0.3361">
        <ele>1504.2</ele>
        <time>2026-02-07T14:17:58.000Z</time>
      </trkpt>
      <trkpt lat="43.03733" lon="-0.33612">
        <ele>1504.3</ele>
        <time>2026-02-07T14:18:01.000Z</time>
      </trkpt>
      <trkpt lat="43.03732" lon="-0.33615">
        <ele>1504.3</ele>
        <time>2026-02-07T14:18:04.000Z</time>
      </trkpt>
      <trkpt lat="43.0373" lon="-0.33617">
        <ele>1504.3</ele>
        <time>2026-02-07T14:18:07.000Z</time>
      </trkpt>
      <trkpt lat="43.03728" lon="-0.33619">
        <ele>1504.4</ele>
        <time>2026-02-07T14:18:10.000Z</time>
      </trkpt>
      <trkpt lat="43.03727" lon="-0.33622">
        <ele>1504.5</ele>
        <time>2026-02-07T14:18:13.000Z</time>
      </trkpt>
      <trkpt lat="43.03725" lon="-0.33625">
        <ele>1504.6</ele>
        <time>2026-02-07T14:18:16.000Z</time>
      </trkpt>
      <trkpt lat="43.03725" lon="-0.33628">
        <ele>1504.7</ele>
        <time>2026-02-07T14:18:19.000Z</time>
      </trkpt>
      <trkpt lat="43.03724" lon="-0.33633">
        <ele>1504.7</ele>
        <time>2026-02-07T14:18:22.000Z</time>
      </trkpt>
      <trkpt lat="43.03723" lon="-0.33636">
        <ele>1504.9</ele>
        <time>2026-02-07T14:18:25.000Z</time>
      </trkpt>
      <trkpt lat="43.03722" lon="-0.33638">
        <ele>1505</ele>
        <time>2026-02-07T14:18:28.000Z</time>
      </trkpt>
      <trkpt lat="43.03722" lon="-0.33639">
        <ele>1505.1</ele>
        <time>2026-02-07T14:18:31.000Z</time>
      </trkpt>
      <trkpt lat="43.03722" lon="-0.3364">
        <ele>1505.3</ele>
        <time>2026-02-07T14:18:34.000Z</time>
      </trkpt>
      <trkpt lat="43.0372" lon="-0.33643">
        <ele>1505.4</ele>
        <time>2026-02-07T14:18:37.000Z</time>
      </trkpt>
      <trkpt lat="43.03719" lon="-0.33647">
        <ele>1505.5</ele>
        <time>2026-02-07T14:18:40.000Z</time>
      </trkpt>
      <trkpt lat="43.03718" lon="-0.33651">
        <ele>1505.6</ele>
        <time>2026-02-07T14:18:43.000Z</time>
      </trkpt>
      <trkpt lat="43.03716" lon="-0.33654">
        <ele>1505.7</ele>
        <time>2026-02-07T14:18:46.000Z</time>
      </trkpt>
      <trkpt lat="43.03715" lon="-0.33657">
        <ele>1505.8</ele>
        <time>2026-02-07T14:18:49.000Z</time>
      </trkpt>
      <trkpt lat="43.03713" lon="-0.33662">
        <ele>1506</ele>
        <time>2026-02-07T14:18:52.000Z</time>
      </trkpt>
      <trkpt lat="43.03712" lon="-0.33665">
        <ele>1506.2</ele>
        <time>2026-02-07T14:18:55.000Z</time>
      </trkpt>
      <trkpt lat="43.03711" lon="-0.33668">
        <ele>1506.3</ele>
        <time>2026-02-07T14:18:58.000Z</time>
      </trkpt>
      <trkpt lat="43.03711" lon="-0.33671">
        <ele>1506.5</ele>
        <time>2026-02-07T14:19:01.000Z</time>
      </trkpt>
      <trkpt lat="43.0371" lon="-0.33674">
        <ele>1506.7</ele>
        <time>2026-02-07T14:19:04.000Z</time>
      </trkpt>
      <trkpt lat="43.03709" lon="-0.33677">
        <ele>1506.9</ele>
        <time>2026-02-07T14:19:07.000Z</time>
      </trkpt>
      <trkpt lat="43.03709" lon="-0.3368">
        <ele>1507</ele>
        <time>2026-02-07T14:19:10.000Z</time>
      </trkpt>
      <trkpt lat="43.03708" lon="-0.33682">
        <ele>1507.1</ele>
        <time>2026-02-07T14:19:13.000Z</time>
      </trkpt>
      <trkpt lat="43.03708" lon="-0.33685">
        <ele>1507.3</ele>
        <time>2026-02-07T14:19:16.000Z</time>
      </trkpt>
      <trkpt lat="43.03707" lon="-0.33687">
        <ele>1507.6</ele>
        <time>2026-02-07T14:19:19.000Z</time>
      </trkpt>
      <trkpt lat="43.03706" lon="-0.33689">
        <ele>1507.8</ele>
        <time>2026-02-07T14:19:22.000Z</time>
      </trkpt>
      <trkpt lat="43.03705" lon="-0.33692">
        <ele>1508</ele>
        <time>2026-02-07T14:19:25.000Z</time>
      </trkpt>
      <trkpt lat="43.03705" lon="-0.33695">
        <ele>1508.3</ele>
        <time>2026-02-07T14:19:28.000Z</time>
      </trkpt>
      <trkpt lat="43.03704" lon="-0.33698">
        <ele>1508.4</ele>
        <time>2026-02-07T14:19:31.000Z</time>
      </trkpt>
      <trkpt lat="43.03705" lon="-0.337">
        <ele>1508.6</ele>
        <time>2026-02-07T14:19:34.000Z</time>
      </trkpt>
      <trkpt lat="43.03705" lon="-0.33703">
        <ele>1508.8</ele>
        <time>2026-02-07T14:19:37.000Z</time>
      </trkpt>
      <trkpt lat="43.03705" lon="-0.33706">
        <ele>1508.9</ele>
        <time>2026-02-07T14:19:40.000Z</time>
      </trkpt>
      <trkpt lat="43.03704" lon="-0.33708">
        <ele>1509.2</ele>
        <time>2026-02-07T14:19:43.000Z</time>
      </trkpt>
      <trkpt lat="43.03704" lon="-0.33712">
        <ele>1509.4</ele>
        <time>2026-02-07T14:19:46.000Z</time>
      </trkpt>
      <trkpt lat="43.03704" lon="-0.33716">
        <ele>1509.6</ele>
        <time>2026-02-07T14:19:49.000Z</time>
      </trkpt>
      <trkpt lat="43.03704" lon="-0.33719">
        <ele>1509.8</ele>
        <time>2026-02-07T14:19:52.000Z</time>
      </trkpt>
      <trkpt lat="43.03704" lon="-0.33722">
        <ele>1510</ele>
        <time>2026-02-07T14:19:55.000Z</time>
      </trkpt>
      <trkpt lat="43.03704" lon="-0.33726">
        <ele>1510.1</ele>
        <time>2026-02-07T14:19:58.000Z</time>
      </trkpt>
      <trkpt lat="43.03704" lon="-0.33729">
        <ele>1510.2</ele>
        <time>2026-02-07T14:20:01.000Z</time>
      </trkpt>
      <trkpt lat="43.03704" lon="-0.33732">
        <ele>1510.3</ele>
        <time>2026-02-07T14:20:04.000Z</time>
      </trkpt>
      <trkpt lat="43.03704" lon="-0.33735">
        <ele>1510.5</ele>
        <time>2026-02-07T14:20:07.000Z</time>
      </trkpt>
      <trkpt lat="43.03705" lon="-0.33738">
        <ele>1510.6</ele>
        <time>2026-02-07T14:20:10.000Z</time>
      </trkpt>
      <trkpt lat="43.03704" lon="-0.33742">
        <ele>1510.8</ele>
        <time>2026-02-07T14:20:13.000Z</time>
      </trkpt>
      <trkpt lat="43.03705" lon="-0.33744">
        <ele>1511</ele>
        <time>2026-02-07T14:20:16.000Z</time>
      </trkpt>
      <trkpt lat="43.03706" lon="-0.33746">
        <ele>1511.1</ele>
        <time>2026-02-07T14:20:19.000Z</time>
      </trkpt>
      <trkpt lat="43.03706" lon="-0.33747">
        <ele>1511.3</ele>
        <time>2026-02-07T14:20:22.000Z</time>
      </trkpt>
      <trkpt lat="43.03706" lon="-0.33747">
        <ele>1511.4</ele>
        <time>2026-02-07T14:20:25.000Z</time>
      </trkpt>
      <trkpt lat="43.03706" lon="-0.33747">
        <ele>1511.5</ele>
        <time>2026-02-07T14:20:28.000Z</time>
      </trkpt>
      <trkpt lat="43.03706" lon="-0.33747">
        <ele>1511.5</ele>
        <time>2026-02-07T14:20:29.000Z</time>
      </trkpt>
      <trkpt lat="43.03706" lon="-0.33747">
        <ele>1511.6</ele>
        <time>2026-02-07T14:20:32.000Z</time>
      </trkpt>
      <trkpt lat="43.03706" lon="-0.33747">
        <ele>1511.6</ele>
        <time>2026-02-07T14:20:35.000Z</time>
      </trkpt>
      <trkpt lat="43.03706" lon="-0.33747">
        <ele>1511.6</ele>
        <time>2026-02-07T14:20:38.000Z</time>
      </trkpt>
      <trkpt lat="43.03706" lon="-0.33747">
        <ele>1511.6</ele>
        <time>2026-02-07T14:20:41.000Z</time>
      </trkpt>
      <trkpt lat="43.03706" lon="-0.33747">
        <ele>1511.7</ele>
        <time>2026-02-07T14:20:44.000Z</time>
      </trkpt>
      <trkpt lat="43.03706" lon="-0.33747">
        <ele>1511.7</ele>
        <time>2026-02-07T14:20:45.000Z</time>
      </trkpt>
      <trkpt lat="43.03706" lon="-0.33747">
        <ele>1511.7</ele>
        <time>2026-02-07T14:20:46.000Z</time>
      </trkpt>
      <trkpt lat="43.03706" lon="-0.33747">
        <ele>1511.7</ele>
        <time>2026-02-07T14:20:47.000Z</time>
      </trkpt>
      <trkpt lat="43.03706" lon="-0.33747">
        <ele>1511.7</ele>
        <time>2026-02-07T14:20:48.000Z</time>
      </trkpt>
      <trkpt lat="43.03706" lon="-0.33747">
        <ele>1511.7</ele>
        <time>2026-02-07T14:20:51.000Z</time>
      </trkpt>
      <trkpt lat="43.03706" lon="-0.33747">
        <ele>1511.7</ele>
        <time>2026-02-07T14:20:54.000Z</time>
      </trkpt>
      <trkpt lat="43.03706" lon="-0.33747">
        <ele>1511.7</ele>
        <time>2026-02-07T14:20:57.000Z</time>
      </trkpt>
      <trkpt lat="43.03706" lon="-0.33747">
        <ele>1511.7</ele>
        <time>2026-02-07T14:21:00.000Z</time>
      </trkpt>
      <trkpt lat="43.03706" lon="-0.33747">
        <ele>1511.6</ele>
        <time>2026-02-07T14:21:03.000Z</time>
      </trkpt>
      <trkpt lat="43.03706" lon="-0.33747">
        <ele>1511.6</ele>
        <time>2026-02-07T14:21:06.000Z</time>
      </trkpt>
      <trkpt lat="43.03706" lon="-0.33747">
        <ele>1511.6</ele>
        <time>2026-02-07T14:21:09.000Z</time>
      </trkpt>
      <trkpt lat="43.03706" lon="-0.33747">
        <ele>1511.6</ele>
        <time>2026-02-07T14:21:12.000Z</time>
      </trkpt>
      <trkpt lat="43.03706" lon="-0.33747">
        <ele>1511.6</ele>
        <time>2026-02-07T14:21:15.000Z</time>
      </trkpt>
      <trkpt lat="43.03706" lon="-0.33747">
        <ele>1511.6</ele>
        <time>2026-02-07T14:21:18.000Z</time>
      </trkpt>
      <trkpt lat="43.03706" lon="-0.33747">
        <ele>1511.6</ele>
        <time>2026-02-07T14:21:21.000Z</time>
      </trkpt>
      <trkpt lat="43.03706" lon="-0.33747">
        <ele>1511.6</ele>
        <time>2026-02-07T14:21:24.000Z</time>
      </trkpt>
      <trkpt lat="43.03706" lon="-0.33747">
        <ele>1511.6</ele>
        <time>2026-02-07T14:21:27.000Z</time>
      </trkpt>
      <trkpt lat="43.03706" lon="-0.33747">
        <ele>1511.5</ele>
        <time>2026-02-07T14:21:30.000Z</time>
      </trkpt>
      <trkpt lat="43.03706" lon="-0.33747">
        <ele>1511.5</ele>
        <time>2026-02-07T14:21:33.000Z</time>
      </trkpt>
      <trkpt lat="43.03706" lon="-0.33747">
        <ele>1511.5</ele>
        <time>2026-02-07T14:21:36.000Z</time>
      </trkpt>
      <trkpt lat="43.03706" lon="-0.33747">
        <ele>1511.5</ele>
        <time>2026-02-07T14:21:39.000Z</time>
      </trkpt>
      <trkpt lat="43.03706" lon="-0.33747">
        <ele>1511.5</ele>
        <time>2026-02-07T14:21:42.000Z</time>
      </trkpt>
      <trkpt lat="43.03706" lon="-0.33747">
        <ele>1511.5</ele>
        <time>2026-02-07T14:21:45.000Z</time>
      </trkpt>
      <trkpt lat="43.03706" lon="-0.33747">
        <ele>1511.4</ele>
        <time>2026-02-07T14:21:48.000Z</time>
      </trkpt>
      <trkpt lat="43.03706" lon="-0.33747">
        <ele>1511.4</ele>
        <time>2026-02-07T14:21:51.000Z</time>
      </trkpt>
      <trkpt lat="43.03706" lon="-0.33747">
        <ele>1511.4</ele>
        <time>2026-02-07T14:21:54.000Z</time>
      </trkpt>
      <trkpt lat="43.03706" lon="-0.33746">
        <ele>1511.4</ele>
        <time>2026-02-07T14:21:57.000Z</time>
      </trkpt>
      <trkpt lat="43.03706" lon="-0.33746">
        <ele>1511.4</ele>
        <time>2026-02-07T14:22:00.000Z</time>
      </trkpt>
      <trkpt lat="43.03707" lon="-0.33746">
        <ele>1511.3</ele>
        <time>2026-02-07T14:22:02.000Z</time>
      </trkpt>
      <trkpt lat="43.03707" lon="-0.33747">
        <ele>1511.3</ele>
        <time>2026-02-07T14:22:03.000Z</time>
      </trkpt>
      <trkpt lat="43.03707" lon="-0.33748">
        <ele>1511.4</ele>
        <time>2026-02-07T14:22:04.000Z</time>
      </trkpt>
      <trkpt lat="43.03706" lon="-0.3375">
        <ele>1511.4</ele>
        <time>2026-02-07T14:22:07.000Z</time>
      </trkpt>
      <trkpt lat="43.03706" lon="-0.33753">
        <ele>1511.4</ele>
        <time>2026-02-07T14:22:10.000Z</time>
      </trkpt>
      <trkpt lat="43.03706" lon="-0.33756">
        <ele>1511.4</ele>
        <time>2026-02-07T14:22:13.000Z</time>
      </trkpt>
      <trkpt lat="43.03707" lon="-0.33758">
        <ele>1511.4</ele>
        <time>2026-02-07T14:22:16.000Z</time>
      </trkpt>
      <trkpt lat="43.03708" lon="-0.33761">
        <ele>1511.4</ele>
        <time>2026-02-07T14:22:19.000Z</time>
      </trkpt>
      <trkpt lat="43.03709" lon="-0.33764">
        <ele>1511.5</ele>
        <time>2026-02-07T14:22:22.000Z</time>
      </trkpt>
      <trkpt lat="43.03709" lon="-0.33765">
        <ele>1511.6</ele>
        <time>2026-02-07T14:22:25.000Z</time>
      </trkpt>
      <trkpt lat="43.03709" lon="-0.33765">
        <ele>1511.6</ele>
        <time>2026-02-07T14:22:27.000Z</time>
      </trkpt>
      <trkpt lat="43.03709" lon="-0.33765">
        <ele>1511.6</ele>
        <time>2026-02-07T14:22:28.000Z</time>
      </trkpt>
      <trkpt lat="43.03709" lon="-0.33765">
        <ele>1511.7</ele>
        <time>2026-02-07T14:22:29.000Z</time>
      </trkpt>
      <trkpt lat="43.03709" lon="-0.33765">
        <ele>1511.8</ele>
        <time>2026-02-07T14:22:32.000Z</time>
      </trkpt>
      <trkpt lat="43.03709" lon="-0.33765">
        <ele>1511.9</ele>
        <time>2026-02-07T14:22:35.000Z</time>
      </trkpt>
      <trkpt lat="43.03709" lon="-0.33765">
        <ele>1512</ele>
        <time>2026-02-07T14:22:38.000Z</time>
      </trkpt>
      <trkpt lat="43.03709" lon="-0.33765">
        <ele>1512</ele>
        <time>2026-02-07T14:22:39.000Z</time>
      </trkpt>
      <trkpt lat="43.03709" lon="-0.33765">
        <ele>1512</ele>
        <time>2026-02-07T14:22:40.000Z</time>
      </trkpt>
      <trkpt lat="43.03709" lon="-0.33766">
        <ele>1512</ele>
        <time>2026-02-07T14:22:41.000Z</time>
      </trkpt>
      <trkpt lat="43.0371" lon="-0.33767">
        <ele>1512.1</ele>
        <time>2026-02-07T14:22:44.000Z</time>
      </trkpt>
      <trkpt lat="43.03712" lon="-0.33769">
        <ele>1512.2</ele>
        <time>2026-02-07T14:22:47.000Z</time>
      </trkpt>
      <trkpt lat="43.03714" lon="-0.33771">
        <ele>1512.3</ele>
        <time>2026-02-07T14:22:50.000Z</time>
      </trkpt>
      <trkpt lat="43.03715" lon="-0.33773">
        <ele>1512.5</ele>
        <time>2026-02-07T14:22:53.000Z</time>
      </trkpt>
      <trkpt lat="43.03715" lon="-0.33773">
        <ele>1512.6</ele>
        <time>2026-02-07T14:22:55.000Z</time>
      </trkpt>
      <trkpt lat="43.03715" lon="-0.33773">
        <ele>1512.6</ele>
        <time>2026-02-07T14:22:56.000Z</time>
      </trkpt>
      <trkpt lat="43.03715" lon="-0.33773">
        <ele>1512.7</ele>
        <time>2026-02-07T14:22:57.000Z</time>
      </trkpt>
      <trkpt lat="43.03715" lon="-0.33773">
        <ele>1512.8</ele>
        <time>2026-02-07T14:23:00.000Z</time>
      </trkpt>
      <trkpt lat="43.03715" lon="-0.33773">
        <ele>1512.9</ele>
        <time>2026-02-07T14:23:03.000Z</time>
      </trkpt>
      <trkpt lat="43.03715" lon="-0.33773">
        <ele>1513</ele>
        <time>2026-02-07T14:23:06.000Z</time>
      </trkpt>
      <trkpt lat="43.03715" lon="-0.33773">
        <ele>1513.1</ele>
        <time>2026-02-07T14:23:09.000Z</time>
      </trkpt>
      <trkpt lat="43.03715" lon="-0.33773">
        <ele>1513.1</ele>
        <time>2026-02-07T14:23:12.000Z</time>
      </trkpt>
      <trkpt lat="43.03715" lon="-0.33773">
        <ele>1513.2</ele>
        <time>2026-02-07T14:23:14.000Z</time>
      </trkpt>
      <trkpt lat="43.03715" lon="-0.33774">
        <ele>1513.2</ele>
        <time>2026-02-07T14:23:15.000Z</time>
      </trkpt>
      <trkpt lat="43.03715" lon="-0.33774">
        <ele>1513.2</ele>
        <time>2026-02-07T14:23:16.000Z</time>
      </trkpt>
      <trkpt lat="43.03716" lon="-0.33776">
        <ele>1513.3</ele>
        <time>2026-02-07T14:23:19.000Z</time>
      </trkpt>
      <trkpt lat="43.03717" lon="-0.33778">
        <ele>1513.4</ele>
        <time>2026-02-07T14:23:22.000Z</time>
      </trkpt>
      <trkpt lat="43.03717" lon="-0.33779">
        <ele>1513.6</ele>
        <time>2026-02-07T14:23:25.000Z</time>
      </trkpt>
      <trkpt lat="43.03717" lon="-0.33781">
        <ele>1513.8</ele>
        <time>2026-02-07T14:23:28.000Z</time>
      </trkpt>
      <trkpt lat="43.03718" lon="-0.33783">
        <ele>1514.1</ele>
        <time>2026-02-07T14:23:31.000Z</time>
      </trkpt>
      <trkpt lat="43.03718" lon="-0.33785">
        <ele>1514.4</ele>
        <time>2026-02-07T14:23:34.000Z</time>
      </trkpt>
      <trkpt lat="43.03719" lon="-0.33787">
        <ele>1514.7</ele>
        <time>2026-02-07T14:23:37.000Z</time>
      </trkpt>
      <trkpt lat="43.0372" lon="-0.33788">
        <ele>1514.9</ele>
        <time>2026-02-07T14:23:40.000Z</time>
      </trkpt>
      <trkpt lat="43.03722" lon="-0.3379">
        <ele>1515.2</ele>
        <time>2026-02-07T14:23:43.000Z</time>
      </trkpt>
      <trkpt lat="43.03723" lon="-0.33791">
        <ele>1515.4</ele>
        <time>2026-02-07T14:23:46.000Z</time>
      </trkpt>
      <trkpt lat="43.03723" lon="-0.33792">
        <ele>1515.7</ele>
        <time>2026-02-07T14:23:49.000Z</time>
      </trkpt>
      <trkpt lat="43.03724" lon="-0.33793">
        <ele>1515.9</ele>
        <time>2026-02-07T14:23:52.000Z</time>
      </trkpt>
      <trkpt lat="43.03724" lon="-0.33793">
        <ele>1516.1</ele>
        <time>2026-02-07T14:23:55.000Z</time>
      </trkpt>
      <trkpt lat="43.03724" lon="-0.33793">
        <ele>1516.4</ele>
        <time>2026-02-07T14:23:58.000Z</time>
      </trkpt>
      <trkpt lat="43.03724" lon="-0.33793">
        <ele>1516.5</ele>
        <time>2026-02-07T14:24:00.000Z</time>
      </trkpt>
      <trkpt lat="43.03724" lon="-0.33793">
        <ele>1516.5</ele>
        <time>2026-02-07T14:24:01.000Z</time>
      </trkpt>
      <trkpt lat="43.03724" lon="-0.33793">
        <ele>1516.6</ele>
        <time>2026-02-07T14:24:02.000Z</time>
      </trkpt>
      <trkpt lat="43.03724" lon="-0.33793">
        <ele>1516.6</ele>
        <time>2026-02-07T14:24:03.000Z</time>
      </trkpt>
      <trkpt lat="43.03724" lon="-0.33793">
        <ele>1516.7</ele>
        <time>2026-02-07T14:24:04.000Z</time>
      </trkpt>
      <trkpt lat="43.03724" lon="-0.33793">
        <ele>1516.8</ele>
        <time>2026-02-07T14:24:07.000Z</time>
      </trkpt>
      <trkpt lat="43.03724" lon="-0.33793">
        <ele>1516.8</ele>
        <time>2026-02-07T14:24:08.000Z</time>
      </trkpt>
      <trkpt lat="43.03724" lon="-0.33793">
        <ele>1516.9</ele>
        <time>2026-02-07T14:24:09.000Z</time>
      </trkpt>
      <trkpt lat="43.03724" lon="-0.33793">
        <ele>1516.9</ele>
        <time>2026-02-07T14:24:12.000Z</time>
      </trkpt>
      <trkpt lat="43.03724" lon="-0.33793">
        <ele>1516.9</ele>
        <time>2026-02-07T14:24:15.000Z</time>
      </trkpt>
      <trkpt lat="43.03725" lon="-0.33794">
        <ele>1517</ele>
        <time>2026-02-07T14:24:18.000Z</time>
      </trkpt>
      <trkpt lat="43.03726" lon="-0.33795">
        <ele>1517</ele>
        <time>2026-02-07T14:24:19.000Z</time>
      </trkpt>
      <trkpt lat="43.03726" lon="-0.33795">
        <ele>1517</ele>
        <time>2026-02-07T14:24:20.000Z</time>
      </trkpt>
      <trkpt lat="43.03727" lon="-0.33796">
        <ele>1517.1</ele>
        <time>2026-02-07T14:24:21.000Z</time>
      </trkpt>
      <trkpt lat="43.03727" lon="-0.33797">
        <ele>1517.1</ele>
        <time>2026-02-07T14:24:24.000Z</time>
      </trkpt>
      <trkpt lat="43.03728" lon="-0.33799">
        <ele>1517.3</ele>
        <time>2026-02-07T14:24:27.000Z</time>
      </trkpt>
      <trkpt lat="43.03728" lon="-0.33801">
        <ele>1517.5</ele>
        <time>2026-02-07T14:24:30.000Z</time>
      </trkpt>
      <trkpt lat="43.03729" lon="-0.33803">
        <ele>1517.7</ele>
        <time>2026-02-07T14:24:33.000Z</time>
      </trkpt>
      <trkpt lat="43.0373" lon="-0.33804">
        <ele>1518</ele>
        <time>2026-02-07T14:24:36.000Z</time>
      </trkpt>
      <trkpt lat="43.0373" lon="-0.33805">
        <ele>1518.3</ele>
        <time>2026-02-07T14:24:39.000Z</time>
      </trkpt>
      <trkpt lat="43.03732" lon="-0.33806">
        <ele>1518.7</ele>
        <time>2026-02-07T14:24:42.000Z</time>
      </trkpt>
      <trkpt lat="43.03734" lon="-0.33807">
        <ele>1519.1</ele>
        <time>2026-02-07T14:24:45.000Z</time>
      </trkpt>
      <trkpt lat="43.03736" lon="-0.33807">
        <ele>1519.6</ele>
        <time>2026-02-07T14:24:48.000Z</time>
      </trkpt>
      <trkpt lat="43.03737" lon="-0.33808">
        <ele>1520.1</ele>
        <time>2026-02-07T14:24:51.000Z</time>
      </trkpt>
      <trkpt lat="43.03739" lon="-0.3381">
        <ele>1520.5</ele>
        <time>2026-02-07T14:24:54.000Z</time>
      </trkpt>
      <trkpt lat="43.03739" lon="-0.3381">
        <ele>1520.9</ele>
        <time>2026-02-07T14:24:57.000Z</time>
      </trkpt>
      <trkpt lat="43.0374" lon="-0.33812">
        <ele>1521.3</ele>
        <time>2026-02-07T14:25:00.000Z</time>
      </trkpt>
      <trkpt lat="43.03741" lon="-0.33813">
        <ele>1521.7</ele>
        <time>2026-02-07T14:25:03.000Z</time>
      </trkpt>
      <trkpt lat="43.03742" lon="-0.33815">
        <ele>1522.1</ele>
        <time>2026-02-07T14:25:06.000Z</time>
      </trkpt>
      <trkpt lat="43.03742" lon="-0.33816">
        <ele>1522.3</ele>
        <time>2026-02-07T14:25:09.000Z</time>
      </trkpt>
      <trkpt lat="43.03742" lon="-0.33818">
        <ele>1522.6</ele>
        <time>2026-02-07T14:25:12.000Z</time>
      </trkpt>
      <trkpt lat="43.03742" lon="-0.33819">
        <ele>1523</ele>
        <time>2026-02-07T14:25:15.000Z</time>
      </trkpt>
      <trkpt lat="43.03743" lon="-0.33821">
        <ele>1523.3</ele>
        <time>2026-02-07T14:25:18.000Z</time>
      </trkpt>
      <trkpt lat="43.03743" lon="-0.33822">
        <ele>1523.7</ele>
        <time>2026-02-07T14:25:21.000Z</time>
      </trkpt>
      <trkpt lat="43.03743" lon="-0.33823">
        <ele>1524.1</ele>
        <time>2026-02-07T14:25:24.000Z</time>
      </trkpt>
      <trkpt lat="43.03743" lon="-0.33824">
        <ele>1524.3</ele>
        <time>2026-02-07T14:25:27.000Z</time>
      </trkpt>
      <trkpt lat="43.03745" lon="-0.33826">
        <ele>1524.6</ele>
        <time>2026-02-07T14:25:30.000Z</time>
      </trkpt>
      <trkpt lat="43.03745" lon="-0.3383">
        <ele>1524.9</ele>
        <time>2026-02-07T14:25:33.000Z</time>
      </trkpt>
      <trkpt lat="43.03745" lon="-0.3383">
        <ele>1525.2</ele>
        <time>2026-02-07T14:25:36.000Z</time>
      </trkpt>
      <trkpt lat="43.03746" lon="-0.33831">
        <ele>1525.6</ele>
        <time>2026-02-07T14:25:39.000Z</time>
      </trkpt>
      <trkpt lat="43.03748" lon="-0.33832">
        <ele>1526.1</ele>
        <time>2026-02-07T14:25:42.000Z</time>
      </trkpt>
      <trkpt lat="43.03749" lon="-0.33833">
        <ele>1526.6</ele>
        <time>2026-02-07T14:25:45.000Z</time>
      </trkpt>
      <trkpt lat="43.0375" lon="-0.33834">
        <ele>1527.1</ele>
        <time>2026-02-07T14:25:48.000Z</time>
      </trkpt>
      <trkpt lat="43.03751" lon="-0.33836">
        <ele>1527.4</ele>
        <time>2026-02-07T14:25:51.000Z</time>
      </trkpt>
      <trkpt lat="43.03754" lon="-0.33839">
        <ele>1527.8</ele>
        <time>2026-02-07T14:25:54.000Z</time>
      </trkpt>
      <trkpt lat="43.03755" lon="-0.33841">
        <ele>1528.2</ele>
        <time>2026-02-07T14:25:57.000Z</time>
      </trkpt>
      <trkpt lat="43.03755" lon="-0.33841">
        <ele>1528.7</ele>
        <time>2026-02-07T14:26:00.000Z</time>
      </trkpt>
      <trkpt lat="43.03756" lon="-0.33842">
        <ele>1529.2</ele>
        <time>2026-02-07T14:26:03.000Z</time>
      </trkpt>
      <trkpt lat="43.03756" lon="-0.33843">
        <ele>1529.6</ele>
        <time>2026-02-07T14:26:06.000Z</time>
      </trkpt>
      <trkpt lat="43.03757" lon="-0.33845">
        <ele>1530.1</ele>
        <time>2026-02-07T14:26:09.000Z</time>
      </trkpt>
      <trkpt lat="43.03756" lon="-0.33845">
        <ele>1530.6</ele>
        <time>2026-02-07T14:26:12.000Z</time>
      </trkpt>
      <trkpt lat="43.03757" lon="-0.33845">
        <ele>1530.8</ele>
        <time>2026-02-07T14:26:14.000Z</time>
      </trkpt>
      <trkpt lat="43.03757" lon="-0.33845">
        <ele>1531</ele>
        <time>2026-02-07T14:26:15.000Z</time>
      </trkpt>
      <trkpt lat="43.03757" lon="-0.33845">
        <ele>1531</ele>
        <time>2026-02-07T14:26:16.000Z</time>
      </trkpt>
      <trkpt lat="43.03757" lon="-0.33845">
        <ele>1531.2</ele>
        <time>2026-02-07T14:26:19.000Z</time>
      </trkpt>
      <trkpt lat="43.03756" lon="-0.33845">
        <ele>1531.3</ele>
        <time>2026-02-07T14:26:22.000Z</time>
      </trkpt>
      <trkpt lat="43.03756" lon="-0.33845">
        <ele>1531.3</ele>
        <time>2026-02-07T14:26:25.000Z</time>
      </trkpt>
      <trkpt lat="43.03756" lon="-0.33845">
        <ele>1531.4</ele>
        <time>2026-02-07T14:26:28.000Z</time>
      </trkpt>
      <trkpt lat="43.03756" lon="-0.33845">
        <ele>1531.4</ele>
        <time>2026-02-07T14:26:31.000Z</time>
      </trkpt>
      <trkpt lat="43.03756" lon="-0.33845">
        <ele>1531.5</ele>
        <time>2026-02-07T14:26:34.000Z</time>
      </trkpt>
      <trkpt lat="43.03756" lon="-0.33844">
        <ele>1531.4</ele>
        <time>2026-02-07T14:26:37.000Z</time>
      </trkpt>
      <trkpt lat="43.03756" lon="-0.33844">
        <ele>1531.4</ele>
        <time>2026-02-07T14:26:40.000Z</time>
      </trkpt>
      <trkpt lat="43.03756" lon="-0.33844">
        <ele>1531.4</ele>
        <time>2026-02-07T14:26:43.000Z</time>
      </trkpt>
      <trkpt lat="43.03756" lon="-0.33844">
        <ele>1531.4</ele>
        <time>2026-02-07T14:26:46.000Z</time>
      </trkpt>
      <trkpt lat="43.03756" lon="-0.33844">
        <ele>1531.4</ele>
        <time>2026-02-07T14:26:49.000Z</time>
      </trkpt>
      <trkpt lat="43.03756" lon="-0.33844">
        <ele>1531.4</ele>
        <time>2026-02-07T14:26:50.000Z</time>
      </trkpt>
      <trkpt lat="43.03756" lon="-0.33844">
        <ele>1531.4</ele>
        <time>2026-02-07T14:26:51.000Z</time>
      </trkpt>
      <trkpt lat="43.03756" lon="-0.33844">
        <ele>1531.4</ele>
        <time>2026-02-07T14:26:52.000Z</time>
      </trkpt>
      <trkpt lat="43.03756" lon="-0.33844">
        <ele>1531.4</ele>
        <time>2026-02-07T14:26:53.000Z</time>
      </trkpt>
      <trkpt lat="43.03756" lon="-0.33844">
        <ele>1531.4</ele>
        <time>2026-02-07T14:26:54.000Z</time>
      </trkpt>
      <trkpt lat="43.03756" lon="-0.33844">
        <ele>1531.4</ele>
        <time>2026-02-07T14:26:57.000Z</time>
      </trkpt>
      <trkpt lat="43.03756" lon="-0.33844">
        <ele>1531.4</ele>
        <time>2026-02-07T14:27:00.000Z</time>
      </trkpt>
      <trkpt lat="43.03756" lon="-0.33844">
        <ele>1531.3</ele>
        <time>2026-02-07T14:27:03.000Z</time>
      </trkpt>
      <trkpt lat="43.03756" lon="-0.33844">
        <ele>1531.3</ele>
        <time>2026-02-07T14:27:06.000Z</time>
      </trkpt>
      <trkpt lat="43.03756" lon="-0.33844">
        <ele>1531.3</ele>
        <time>2026-02-07T14:27:09.000Z</time>
      </trkpt>
      <trkpt lat="43.03756" lon="-0.33844">
        <ele>1531.3</ele>
        <time>2026-02-07T14:27:12.000Z</time>
      </trkpt>
      <trkpt lat="43.03756" lon="-0.33844">
        <ele>1531.3</ele>
        <time>2026-02-07T14:27:15.000Z</time>
      </trkpt>
      <trkpt lat="43.03756" lon="-0.33844">
        <ele>1531.3</ele>
        <time>2026-02-07T14:27:18.000Z</time>
      </trkpt>
      <trkpt lat="43.03756" lon="-0.33844">
        <ele>1531.3</ele>
        <time>2026-02-07T14:27:21.000Z</time>
      </trkpt>
      <trkpt lat="43.03756" lon="-0.33844">
        <ele>1531.2</ele>
        <time>2026-02-07T14:27:24.000Z</time>
      </trkpt>
      <trkpt lat="43.03755" lon="-0.33844">
        <ele>1531.2</ele>
        <time>2026-02-07T14:27:27.000Z</time>
      </trkpt>
      <trkpt lat="43.03755" lon="-0.33844">
        <ele>1531.2</ele>
        <time>2026-02-07T14:27:30.000Z</time>
      </trkpt>
      <trkpt lat="43.03755" lon="-0.33844">
        <ele>1531.2</ele>
        <time>2026-02-07T14:27:33.000Z</time>
      </trkpt>
      <trkpt lat="43.03755" lon="-0.33844">
        <ele>1531.2</ele>
        <time>2026-02-07T14:27:36.000Z</time>
      </trkpt>
      <trkpt lat="43.03755" lon="-0.33843">
        <ele>1531.2</ele>
        <time>2026-02-07T14:27:39.000Z</time>
      </trkpt>
      <trkpt lat="43.03754" lon="-0.33843">
        <ele>1531.2</ele>
        <time>2026-02-07T14:27:42.000Z</time>
      </trkpt>
      <trkpt lat="43.03754" lon="-0.33843">
        <ele>1531.1</ele>
        <time>2026-02-07T14:27:45.000Z</time>
      </trkpt>
      <trkpt lat="43.03754" lon="-0.33843">
        <ele>1531.1</ele>
        <time>2026-02-07T14:27:48.000Z</time>
      </trkpt>
      <trkpt lat="43.03754" lon="-0.33843">
        <ele>1531.1</ele>
        <time>2026-02-07T14:27:51.000Z</time>
      </trkpt>
      <trkpt lat="43.03754" lon="-0.33843">
        <ele>1531.1</ele>
        <time>2026-02-07T14:27:54.000Z</time>
      </trkpt>
      <trkpt lat="43.03754" lon="-0.33842">
        <ele>1531</ele>
        <time>2026-02-07T14:27:57.000Z</time>
      </trkpt>
      <trkpt lat="43.03754" lon="-0.33841">
        <ele>1531</ele>
        <time>2026-02-07T14:28:00.000Z</time>
      </trkpt>
      <trkpt lat="43.03754" lon="-0.33841">
        <ele>1531</ele>
        <time>2026-02-07T14:28:03.000Z</time>
      </trkpt>
      <trkpt lat="43.03754" lon="-0.33841">
        <ele>1531</ele>
        <time>2026-02-07T14:28:06.000Z</time>
      </trkpt>
      <trkpt lat="43.03754" lon="-0.33841">
        <ele>1531</ele>
        <time>2026-02-07T14:28:09.000Z</time>
      </trkpt>
      <trkpt lat="43.03754" lon="-0.3384">
        <ele>1531</ele>
        <time>2026-02-07T14:28:12.000Z</time>
      </trkpt>
      <trkpt lat="43.03754" lon="-0.3384">
        <ele>1531</ele>
        <time>2026-02-07T14:28:15.000Z</time>
      </trkpt>
      <trkpt lat="43.03754" lon="-0.3384">
        <ele>1531</ele>
        <time>2026-02-07T14:28:18.000Z</time>
      </trkpt>
      <trkpt lat="43.03754" lon="-0.3384">
        <ele>1531</ele>
        <time>2026-02-07T14:28:21.000Z</time>
      </trkpt>
      <trkpt lat="43.03754" lon="-0.3384">
        <ele>1531</ele>
        <time>2026-02-07T14:28:24.000Z</time>
      </trkpt>
      <trkpt lat="43.03754" lon="-0.3384">
        <ele>1531</ele>
        <time>2026-02-07T14:28:27.000Z</time>
      </trkpt>
      <trkpt lat="43.03754" lon="-0.3384">
        <ele>1531</ele>
        <time>2026-02-07T14:28:30.000Z</time>
      </trkpt>
      <trkpt lat="43.03754" lon="-0.3384">
        <ele>1531</ele>
        <time>2026-02-07T14:28:33.000Z</time>
      </trkpt>
      <trkpt lat="43.03754" lon="-0.3384">
        <ele>1531</ele>
        <time>2026-02-07T14:28:36.000Z</time>
      </trkpt>
      <trkpt lat="43.03754" lon="-0.3384">
        <ele>1531</ele>
        <time>2026-02-07T14:28:39.000Z</time>
      </trkpt>
      <trkpt lat="43.03754" lon="-0.3384">
        <ele>1531</ele>
        <time>2026-02-07T14:28:42.000Z</time>
      </trkpt>
      <trkpt lat="43.03754" lon="-0.3384">
        <ele>1531.1</ele>
        <time>2026-02-07T14:28:45.000Z</time>
      </trkpt>
      <trkpt lat="43.03754" lon="-0.3384">
        <ele>1531.1</ele>
        <time>2026-02-07T14:28:48.000Z</time>
      </trkpt>
      <trkpt lat="43.03754" lon="-0.3384">
        <ele>1531.1</ele>
        <time>2026-02-07T14:28:51.000Z</time>
      </trkpt>
      <trkpt lat="43.03754" lon="-0.3384">
        <ele>1531.1</ele>
        <time>2026-02-07T14:28:54.000Z</time>
      </trkpt>
      <trkpt lat="43.03754" lon="-0.3384">
        <ele>1531.1</ele>
        <time>2026-02-07T14:28:57.000Z</time>
      </trkpt>
      <trkpt lat="43.03754" lon="-0.3384">
        <ele>1531.2</ele>
        <time>2026-02-07T14:29:00.000Z</time>
      </trkpt>
      <trkpt lat="43.03754" lon="-0.3384">
        <ele>1531.2</ele>
        <time>2026-02-07T14:29:03.000Z</time>
      </trkpt>
      <trkpt lat="43.03754" lon="-0.3384">
        <ele>1531.2</ele>
        <time>2026-02-07T14:29:06.000Z</time>
      </trkpt>
      <trkpt lat="43.03753" lon="-0.3384">
        <ele>1531.2</ele>
        <time>2026-02-07T14:29:09.000Z</time>
      </trkpt>
      <trkpt lat="43.03753" lon="-0.3384">
        <ele>1531.3</ele>
        <time>2026-02-07T14:29:12.000Z</time>
      </trkpt>
      <trkpt lat="43.03753" lon="-0.3384">
        <ele>1531.3</ele>
        <time>2026-02-07T14:29:15.000Z</time>
      </trkpt>
      <trkpt lat="43.03753" lon="-0.3384">
        <ele>1531.3</ele>
        <time>2026-02-07T14:29:18.000Z</time>
      </trkpt>
      <trkpt lat="43.03753" lon="-0.3384">
        <ele>1531.3</ele>
        <time>2026-02-07T14:29:21.000Z</time>
      </trkpt>
      <trkpt lat="43.03753" lon="-0.3384">
        <ele>1531.4</ele>
        <time>2026-02-07T14:29:24.000Z</time>
      </trkpt>
      <trkpt lat="43.03753" lon="-0.3384">
        <ele>1531.4</ele>
        <time>2026-02-07T14:29:27.000Z</time>
      </trkpt>
      <trkpt lat="43.03753" lon="-0.3384">
        <ele>1531.4</ele>
        <time>2026-02-07T14:29:30.000Z</time>
      </trkpt>
      <trkpt lat="43.03753" lon="-0.3384">
        <ele>1531.4</ele>
        <time>2026-02-07T14:29:32.000Z</time>
      </trkpt>
      <trkpt lat="43.03753" lon="-0.3384">
        <ele>1531.5</ele>
        <time>2026-02-07T14:29:33.000Z</time>
      </trkpt>
      <trkpt lat="43.03753" lon="-0.3384">
        <ele>1531.5</ele>
        <time>2026-02-07T14:29:34.000Z</time>
      </trkpt>
      <trkpt lat="43.03753" lon="-0.33839">
        <ele>1531.5</ele>
        <time>2026-02-07T14:29:37.000Z</time>
      </trkpt>
      <trkpt lat="43.03752" lon="-0.33839">
        <ele>1531.5</ele>
        <time>2026-02-07T14:29:38.000Z</time>
      </trkpt>
      <trkpt lat="43.03752" lon="-0.33839">
        <ele>1531.5</ele>
        <time>2026-02-07T14:29:39.000Z</time>
      </trkpt>
      <trkpt lat="43.03752" lon="-0.33839">
        <ele>1531.5</ele>
        <time>2026-02-07T14:29:42.000Z</time>
      </trkpt>
      <trkpt lat="43.03752" lon="-0.33839">
        <ele>1531.6</ele>
        <time>2026-02-07T14:29:45.000Z</time>
      </trkpt>
      <trkpt lat="43.03752" lon="-0.33839">
        <ele>1531.6</ele>
        <time>2026-02-07T14:29:48.000Z</time>
      </trkpt>
      <trkpt lat="43.03753" lon="-0.33839">
        <ele>1531.6</ele>
        <time>2026-02-07T14:29:49.000Z</time>
      </trkpt>
      <trkpt lat="43.03753" lon="-0.33839">
        <ele>1531.6</ele>
        <time>2026-02-07T14:29:50.000Z</time>
      </trkpt>
      <trkpt lat="43.03753" lon="-0.3384">
        <ele>1531.6</ele>
        <time>2026-02-07T14:29:51.000Z</time>
      </trkpt>
      <trkpt lat="43.03755" lon="-0.33842">
        <ele>1531.7</ele>
        <time>2026-02-07T14:29:54.000Z</time>
      </trkpt>
      <trkpt lat="43.03757" lon="-0.33843">
        <ele>1531.8</ele>
        <time>2026-02-07T14:29:57.000Z</time>
      </trkpt>
      <trkpt lat="43.03758" lon="-0.33845">
        <ele>1532</ele>
        <time>2026-02-07T14:30:00.000Z</time>
      </trkpt>
      <trkpt lat="43.03759" lon="-0.33846">
        <ele>1532.2</ele>
        <time>2026-02-07T14:30:03.000Z</time>
      </trkpt>
      <trkpt lat="43.03761" lon="-0.33847">
        <ele>1532.5</ele>
        <time>2026-02-07T14:30:06.000Z</time>
      </trkpt>
      <trkpt lat="43.03762" lon="-0.33847">
        <ele>1532.8</ele>
        <time>2026-02-07T14:30:09.000Z</time>
      </trkpt>
      <trkpt lat="43.03763" lon="-0.33847">
        <ele>1533.2</ele>
        <time>2026-02-07T14:30:12.000Z</time>
      </trkpt>
      <trkpt lat="43.03764" lon="-0.33846">
        <ele>1533.4</ele>
        <time>2026-02-07T14:30:14.000Z</time>
      </trkpt>
      <trkpt lat="43.03764" lon="-0.33846">
        <ele>1533.5</ele>
        <time>2026-02-07T14:30:15.000Z</time>
      </trkpt>
      <trkpt lat="43.03764" lon="-0.33846">
        <ele>1533.6</ele>
        <time>2026-02-07T14:30:16.000Z</time>
      </trkpt>
      <trkpt lat="43.03765" lon="-0.33846">
        <ele>1533.7</ele>
        <time>2026-02-07T14:30:17.000Z</time>
      </trkpt>
      <trkpt lat="43.03765" lon="-0.33847">
        <ele>1533.9</ele>
        <time>2026-02-07T14:30:18.000Z</time>
      </trkpt>
      <trkpt lat="43.03766" lon="-0.33848">
        <ele>1534.2</ele>
        <time>2026-02-07T14:30:21.000Z</time>
      </trkpt>
      <trkpt lat="43.03768" lon="-0.33848">
        <ele>1534.7</ele>
        <time>2026-02-07T14:30:24.000Z</time>
      </trkpt>
      <trkpt lat="43.03769" lon="-0.3385">
        <ele>1535.2</ele>
        <time>2026-02-07T14:30:27.000Z</time>
      </trkpt>
      <trkpt lat="43.03771" lon="-0.33852">
        <ele>1535.7</ele>
        <time>2026-02-07T14:30:30.000Z</time>
      </trkpt>
      <trkpt lat="43.03772" lon="-0.33853">
        <ele>1536.1</ele>
        <time>2026-02-07T14:30:33.000Z</time>
      </trkpt>
      <trkpt lat="43.03773" lon="-0.33855">
        <ele>1536.6</ele>
        <time>2026-02-07T14:30:36.000Z</time>
      </trkpt>
      <trkpt lat="43.03774" lon="-0.33856">
        <ele>1536.9</ele>
        <time>2026-02-07T14:30:39.000Z</time>
      </trkpt>
      <trkpt lat="43.03776" lon="-0.33859">
        <ele>1537.2</ele>
        <time>2026-02-07T14:30:42.000Z</time>
      </trkpt>
      <trkpt lat="43.03778" lon="-0.33861">
        <ele>1537.6</ele>
        <time>2026-02-07T14:30:45.000Z</time>
      </trkpt>
      <trkpt lat="43.03779" lon="-0.33862">
        <ele>1537.9</ele>
        <time>2026-02-07T14:30:48.000Z</time>
      </trkpt>
      <trkpt lat="43.0378" lon="-0.33864">
        <ele>1538.2</ele>
        <time>2026-02-07T14:30:51.000Z</time>
      </trkpt>
      <trkpt lat="43.03781" lon="-0.33865">
        <ele>1538.5</ele>
        <time>2026-02-07T14:30:54.000Z</time>
      </trkpt>
      <trkpt lat="43.03781" lon="-0.33866">
        <ele>1538.8</ele>
        <time>2026-02-07T14:30:57.000Z</time>
      </trkpt>
      <trkpt lat="43.03782" lon="-0.33866">
        <ele>1539.2</ele>
        <time>2026-02-07T14:31:00.000Z</time>
      </trkpt>
      <trkpt lat="43.03785" lon="-0.33865">
        <ele>1539.8</ele>
        <time>2026-02-07T14:31:03.000Z</time>
      </trkpt>
      <trkpt lat="43.03788" lon="-0.33865">
        <ele>1540.1</ele>
        <time>2026-02-07T14:31:06.000Z</time>
      </trkpt>
      <trkpt lat="43.0379" lon="-0.33866">
        <ele>1540.5</ele>
        <time>2026-02-07T14:31:09.000Z</time>
      </trkpt>
      <trkpt lat="43.03791" lon="-0.33868">
        <ele>1540.8</ele>
        <time>2026-02-07T14:31:12.000Z</time>
      </trkpt>
      <trkpt lat="43.03792" lon="-0.33871">
        <ele>1541.3</ele>
        <time>2026-02-07T14:31:15.000Z</time>
      </trkpt>
      <trkpt lat="43.03793" lon="-0.33873">
        <ele>1541.7</ele>
        <time>2026-02-07T14:31:18.000Z</time>
      </trkpt>
      <trkpt lat="43.03795" lon="-0.33874">
        <ele>1542</ele>
        <time>2026-02-07T14:31:21.000Z</time>
      </trkpt>
      <trkpt lat="43.03796" lon="-0.33874">
        <ele>1542.3</ele>
        <time>2026-02-07T14:31:24.000Z</time>
      </trkpt>
      <trkpt lat="43.03797" lon="-0.33874">
        <ele>1542.7</ele>
        <time>2026-02-07T14:31:27.000Z</time>
      </trkpt>
      <trkpt lat="43.03799" lon="-0.33874">
        <ele>1543</ele>
        <time>2026-02-07T14:31:30.000Z</time>
      </trkpt>
      <trkpt lat="43.03799" lon="-0.33875">
        <ele>1543.3</ele>
        <time>2026-02-07T14:31:33.000Z</time>
      </trkpt>
      <trkpt lat="43.03799" lon="-0.33875">
        <ele>1543.6</ele>
        <time>2026-02-07T14:31:36.000Z</time>
      </trkpt>
      <trkpt lat="43.038" lon="-0.33875">
        <ele>1544</ele>
        <time>2026-02-07T14:31:39.000Z</time>
      </trkpt>
      <trkpt lat="43.038" lon="-0.33875">
        <ele>1544.4</ele>
        <time>2026-02-07T14:31:42.000Z</time>
      </trkpt>
      <trkpt lat="43.03802" lon="-0.33876">
        <ele>1544.9</ele>
        <time>2026-02-07T14:31:45.000Z</time>
      </trkpt>
      <trkpt lat="43.03804" lon="-0.33879">
        <ele>1545.3</ele>
        <time>2026-02-07T14:31:48.000Z</time>
      </trkpt>
      <trkpt lat="43.03806" lon="-0.3388">
        <ele>1545.7</ele>
        <time>2026-02-07T14:31:51.000Z</time>
      </trkpt>
      <trkpt lat="43.03807" lon="-0.3388">
        <ele>1545.8</ele>
        <time>2026-02-07T14:31:52.000Z</time>
      </trkpt>
      <trkpt lat="43.03808" lon="-0.33879">
        <ele>1546</ele>
        <time>2026-02-07T14:31:55.000Z</time>
      </trkpt>
      <trkpt lat="43.03808" lon="-0.3388">
        <ele>1546.1</ele>
        <time>2026-02-07T14:31:56.000Z</time>
      </trkpt>
      <trkpt lat="43.03809" lon="-0.33881">
        <ele>1546.4</ele>
        <time>2026-02-07T14:31:59.000Z</time>
      </trkpt>
      <trkpt lat="43.03811" lon="-0.33883">
        <ele>1546.7</ele>
        <time>2026-02-07T14:32:02.000Z</time>
      </trkpt>
      <trkpt lat="43.0381" lon="-0.33884">
        <ele>1547.1</ele>
        <time>2026-02-07T14:32:05.000Z</time>
      </trkpt>
      <trkpt lat="43.0381" lon="-0.33885">
        <ele>1547.4</ele>
        <time>2026-02-07T14:32:08.000Z</time>
      </trkpt>
      <trkpt lat="43.0381" lon="-0.33885">
        <ele>1547.8</ele>
        <time>2026-02-07T14:32:11.000Z</time>
      </trkpt>
      <trkpt lat="43.0381" lon="-0.33885">
        <ele>1548.2</ele>
        <time>2026-02-07T14:32:14.000Z</time>
      </trkpt>
      <trkpt lat="43.03811" lon="-0.33884">
        <ele>1548.6</ele>
        <time>2026-02-07T14:32:17.000Z</time>
      </trkpt>
      <trkpt lat="43.03811" lon="-0.33885">
        <ele>1548.8</ele>
        <time>2026-02-07T14:32:19.000Z</time>
      </trkpt>
      <trkpt lat="43.03811" lon="-0.33885">
        <ele>1548.9</ele>
        <time>2026-02-07T14:32:20.000Z</time>
      </trkpt>
      <trkpt lat="43.03811" lon="-0.33885">
        <ele>1549</ele>
        <time>2026-02-07T14:32:21.000Z</time>
      </trkpt>
      <trkpt lat="43.03811" lon="-0.33886">
        <ele>1549.1</ele>
        <time>2026-02-07T14:32:22.000Z</time>
      </trkpt>
      <trkpt lat="43.03811" lon="-0.33886">
        <ele>1549.2</ele>
        <time>2026-02-07T14:32:23.000Z</time>
      </trkpt>
      <trkpt lat="43.03812" lon="-0.33886">
        <ele>1549.4</ele>
        <time>2026-02-07T14:32:26.000Z</time>
      </trkpt>
      <trkpt lat="43.03813" lon="-0.33887">
        <ele>1549.6</ele>
        <time>2026-02-07T14:32:29.000Z</time>
      </trkpt>
      <trkpt lat="43.03815" lon="-0.33888">
        <ele>1549.9</ele>
        <time>2026-02-07T14:32:32.000Z</time>
      </trkpt>
      <trkpt lat="43.03816" lon="-0.33887">
        <ele>1550.2</ele>
        <time>2026-02-07T14:32:35.000Z</time>
      </trkpt>
      <trkpt lat="43.03817" lon="-0.33886">
        <ele>1550.7</ele>
        <time>2026-02-07T14:32:38.000Z</time>
      </trkpt>
      <trkpt lat="43.03818" lon="-0.33885">
        <ele>1551.1</ele>
        <time>2026-02-07T14:32:41.000Z</time>
      </trkpt>
      <trkpt lat="43.03819" lon="-0.33882">
        <ele>1551.6</ele>
        <time>2026-02-07T14:32:44.000Z</time>
      </trkpt>
      <trkpt lat="43.0382" lon="-0.33881">
        <ele>1552</ele>
        <time>2026-02-07T14:32:47.000Z</time>
      </trkpt>
      <trkpt lat="43.03821" lon="-0.3388">
        <ele>1552.4</ele>
        <time>2026-02-07T14:32:50.000Z</time>
      </trkpt>
      <trkpt lat="43.03821" lon="-0.3388">
        <ele>1552.7</ele>
        <time>2026-02-07T14:32:53.000Z</time>
      </trkpt>
      <trkpt lat="43.03822" lon="-0.3388">
        <ele>1552.9</ele>
        <time>2026-02-07T14:32:56.000Z</time>
      </trkpt>
      <trkpt lat="43.03822" lon="-0.33881">
        <ele>1553.2</ele>
        <time>2026-02-07T14:32:59.000Z</time>
      </trkpt>
      <trkpt lat="43.03823" lon="-0.3388">
        <ele>1553.4</ele>
        <time>2026-02-07T14:33:02.000Z</time>
      </trkpt>
      <trkpt lat="43.03823" lon="-0.3388">
        <ele>1553.9</ele>
        <time>2026-02-07T14:33:05.000Z</time>
      </trkpt>
      <trkpt lat="43.03823" lon="-0.3388">
        <ele>1554.2</ele>
        <time>2026-02-07T14:33:08.000Z</time>
      </trkpt>
      <trkpt lat="43.03823" lon="-0.3388">
        <ele>1554.6</ele>
        <time>2026-02-07T14:33:11.000Z</time>
      </trkpt>
      <trkpt lat="43.03824" lon="-0.33879">
        <ele>1555</ele>
        <time>2026-02-07T14:33:14.000Z</time>
      </trkpt>
      <trkpt lat="43.03826" lon="-0.33878">
        <ele>1555.3</ele>
        <time>2026-02-07T14:33:17.000Z</time>
      </trkpt>
      <trkpt lat="43.03827" lon="-0.33875">
        <ele>1555.5</ele>
        <time>2026-02-07T14:33:20.000Z</time>
      </trkpt>
      <trkpt lat="43.03829" lon="-0.33879">
        <ele>1555.9</ele>
        <time>2026-02-07T14:33:23.000Z</time>
      </trkpt>
      <trkpt lat="43.0383" lon="-0.33882">
        <ele>1556.3</ele>
        <time>2026-02-07T14:33:26.000Z</time>
      </trkpt>
      <trkpt lat="43.0383" lon="-0.33884">
        <ele>1556.6</ele>
        <time>2026-02-07T14:33:29.000Z</time>
      </trkpt>
      <trkpt lat="43.03831" lon="-0.33886">
        <ele>1557.1</ele>
        <time>2026-02-07T14:33:32.000Z</time>
      </trkpt>
      <trkpt lat="43.03833" lon="-0.33885">
        <ele>1557.6</ele>
        <time>2026-02-07T14:33:35.000Z</time>
      </trkpt>
      <trkpt lat="43.03835" lon="-0.33886">
        <ele>1558</ele>
        <time>2026-02-07T14:33:38.000Z</time>
      </trkpt>
      <trkpt lat="43.03837" lon="-0.33888">
        <ele>1558.3</ele>
        <time>2026-02-07T14:33:41.000Z</time>
      </trkpt>
      <trkpt lat="43.03837" lon="-0.33888">
        <ele>1558.6</ele>
        <time>2026-02-07T14:33:44.000Z</time>
      </trkpt>
      <trkpt lat="43.03838" lon="-0.33887">
        <ele>1558.9</ele>
        <time>2026-02-07T14:33:47.000Z</time>
      </trkpt>
      <trkpt lat="43.03838" lon="-0.33887">
        <ele>1558.9</ele>
        <time>2026-02-07T14:33:48.000Z</time>
      </trkpt>
      <trkpt lat="43.03838" lon="-0.33887">
        <ele>1559</ele>
        <time>2026-02-07T14:33:49.000Z</time>
      </trkpt>
      <trkpt lat="43.03838" lon="-0.33886">
        <ele>1559.1</ele>
        <time>2026-02-07T14:33:52.000Z</time>
      </trkpt>
      <trkpt lat="43.03838" lon="-0.33886">
        <ele>1559.2</ele>
        <time>2026-02-07T14:33:55.000Z</time>
      </trkpt>
      <trkpt lat="43.03838" lon="-0.33886">
        <ele>1559.2</ele>
        <time>2026-02-07T14:33:58.000Z</time>
      </trkpt>
      <trkpt lat="43.03838" lon="-0.33886">
        <ele>1559.3</ele>
        <time>2026-02-07T14:33:59.000Z</time>
      </trkpt>
      <trkpt lat="43.03839" lon="-0.33887">
        <ele>1559.3</ele>
        <time>2026-02-07T14:34:02.000Z</time>
      </trkpt>
      <trkpt lat="43.03839" lon="-0.33888">
        <ele>1559.4</ele>
        <time>2026-02-07T14:34:05.000Z</time>
      </trkpt>
      <trkpt lat="43.03839" lon="-0.33888">
        <ele>1559.5</ele>
        <time>2026-02-07T14:34:08.000Z</time>
      </trkpt>
      <trkpt lat="43.03839" lon="-0.33888">
        <ele>1559.5</ele>
        <time>2026-02-07T14:34:09.000Z</time>
      </trkpt>
      <trkpt lat="43.03839" lon="-0.33888">
        <ele>1559.6</ele>
        <time>2026-02-07T14:34:12.000Z</time>
      </trkpt>
      <trkpt lat="43.03839" lon="-0.33889">
        <ele>1559.6</ele>
        <time>2026-02-07T14:34:14.000Z</time>
      </trkpt>
      <trkpt lat="43.03839" lon="-0.33889">
        <ele>1559.7</ele>
        <time>2026-02-07T14:34:15.000Z</time>
      </trkpt>
      <trkpt lat="43.0384" lon="-0.33889">
        <ele>1559.7</ele>
        <time>2026-02-07T14:34:16.000Z</time>
      </trkpt>
      <trkpt lat="43.03841" lon="-0.33891">
        <ele>1559.8</ele>
        <time>2026-02-07T14:34:19.000Z</time>
      </trkpt>
      <trkpt lat="43.03843" lon="-0.33892">
        <ele>1560</ele>
        <time>2026-02-07T14:34:22.000Z</time>
      </trkpt>
      <trkpt lat="43.03843" lon="-0.33893">
        <ele>1560.2</ele>
        <time>2026-02-07T14:34:25.000Z</time>
      </trkpt>
      <trkpt lat="43.03843" lon="-0.33893">
        <ele>1560.2</ele>
        <time>2026-02-07T14:34:26.000Z</time>
      </trkpt>
      <trkpt lat="43.03843" lon="-0.33893">
        <ele>1560.3</ele>
        <time>2026-02-07T14:34:29.000Z</time>
      </trkpt>
      <trkpt lat="43.03843" lon="-0.33893">
        <ele>1560.3</ele>
        <time>2026-02-07T14:34:32.000Z</time>
      </trkpt>
      <trkpt lat="43.03843" lon="-0.33894">
        <ele>1560.4</ele>
        <time>2026-02-07T14:34:35.000Z</time>
      </trkpt>
      <trkpt lat="43.03842" lon="-0.33894">
        <ele>1560.5</ele>
        <time>2026-02-07T14:34:38.000Z</time>
      </trkpt>
      <trkpt lat="43.03842" lon="-0.33894">
        <ele>1560.5</ele>
        <time>2026-02-07T14:34:41.000Z</time>
      </trkpt>
      <trkpt lat="43.03842" lon="-0.33894">
        <ele>1560.5</ele>
        <time>2026-02-07T14:34:44.000Z</time>
      </trkpt>
      <trkpt lat="43.03842" lon="-0.33895">
        <ele>1560.5</ele>
        <time>2026-02-07T14:34:47.000Z</time>
      </trkpt>
      <trkpt lat="43.03843" lon="-0.33895">
        <ele>1560.5</ele>
        <time>2026-02-07T14:34:50.000Z</time>
      </trkpt>
      <trkpt lat="43.03843" lon="-0.33896">
        <ele>1560.6</ele>
        <time>2026-02-07T14:34:51.000Z</time>
      </trkpt>
      <trkpt lat="43.03844" lon="-0.33896">
        <ele>1560.6</ele>
        <time>2026-02-07T14:34:52.000Z</time>
      </trkpt>
      <trkpt lat="43.03845" lon="-0.33898">
        <ele>1560.6</ele>
        <time>2026-02-07T14:34:55.000Z</time>
      </trkpt>
      <trkpt lat="43.03846" lon="-0.33899">
        <ele>1560.7</ele>
        <time>2026-02-07T14:34:58.000Z</time>
      </trkpt>
      <trkpt lat="43.03848" lon="-0.339">
        <ele>1560.8</ele>
        <time>2026-02-07T14:35:01.000Z</time>
      </trkpt>
      <trkpt lat="43.03849" lon="-0.33901">
        <ele>1560.9</ele>
        <time>2026-02-07T14:35:04.000Z</time>
      </trkpt>
      <trkpt lat="43.0385" lon="-0.33902">
        <ele>1561.1</ele>
        <time>2026-02-07T14:35:07.000Z</time>
      </trkpt>
      <trkpt lat="43.0385" lon="-0.33903">
        <ele>1561.3</ele>
        <time>2026-02-07T14:35:10.000Z</time>
      </trkpt>
      <trkpt lat="43.0385" lon="-0.33903">
        <ele>1561.4</ele>
        <time>2026-02-07T14:35:12.000Z</time>
      </trkpt>
      <trkpt lat="43.0385" lon="-0.33903">
        <ele>1561.5</ele>
        <time>2026-02-07T14:35:13.000Z</time>
      </trkpt>
      <trkpt lat="43.0385" lon="-0.33903">
        <ele>1561.6</ele>
        <time>2026-02-07T14:35:14.000Z</time>
      </trkpt>
      <trkpt lat="43.0385" lon="-0.33903">
        <ele>1561.6</ele>
        <time>2026-02-07T14:35:15.000Z</time>
      </trkpt>
      <trkpt lat="43.0385" lon="-0.33903">
        <ele>1561.7</ele>
        <time>2026-02-07T14:35:16.000Z</time>
      </trkpt>
      <trkpt lat="43.03851" lon="-0.33903">
        <ele>1561.9</ele>
        <time>2026-02-07T14:35:19.000Z</time>
      </trkpt>
      <trkpt lat="43.03852" lon="-0.33903">
        <ele>1562.1</ele>
        <time>2026-02-07T14:35:22.000Z</time>
      </trkpt>
      <trkpt lat="43.03854" lon="-0.33904">
        <ele>1562.3</ele>
        <time>2026-02-07T14:35:25.000Z</time>
      </trkpt>
      <trkpt lat="43.03856" lon="-0.33903">
        <ele>1562.6</ele>
        <time>2026-02-07T14:35:28.000Z</time>
      </trkpt>
      <trkpt lat="43.03858" lon="-0.33903">
        <ele>1562.9</ele>
        <time>2026-02-07T14:35:31.000Z</time>
      </trkpt>
      <trkpt lat="43.03858" lon="-0.33903">
        <ele>1563.3</ele>
        <time>2026-02-07T14:35:34.000Z</time>
      </trkpt>
      <trkpt lat="43.0386" lon="-0.33904">
        <ele>1563.7</ele>
        <time>2026-02-07T14:35:37.000Z</time>
      </trkpt>
      <trkpt lat="43.03862" lon="-0.33905">
        <ele>1564.2</ele>
        <time>2026-02-07T14:35:40.000Z</time>
      </trkpt>
      <trkpt lat="43.03862" lon="-0.33907">
        <ele>1564.7</ele>
        <time>2026-02-07T14:35:43.000Z</time>
      </trkpt>
      <trkpt lat="43.03864" lon="-0.33908">
        <ele>1565</ele>
        <time>2026-02-07T14:35:46.000Z</time>
      </trkpt>
      <trkpt lat="43.03865" lon="-0.33908">
        <ele>1565.5</ele>
        <time>2026-02-07T14:35:49.000Z</time>
      </trkpt>
      <trkpt lat="43.03865" lon="-0.33908">
        <ele>1565.7</ele>
        <time>2026-02-07T14:35:52.000Z</time>
      </trkpt>
      <trkpt lat="43.03865" lon="-0.33908">
        <ele>1565.8</ele>
        <time>2026-02-07T14:35:53.000Z</time>
      </trkpt>
      <trkpt lat="43.03865" lon="-0.33908">
        <ele>1565.9</ele>
        <time>2026-02-07T14:35:54.000Z</time>
      </trkpt>
      <trkpt lat="43.03865" lon="-0.33909">
        <ele>1565.9</ele>
        <time>2026-02-07T14:35:55.000Z</time>
      </trkpt>
      <trkpt lat="43.03866" lon="-0.3391">
        <ele>1566</ele>
        <time>2026-02-07T14:35:56.000Z</time>
      </trkpt>
      <trkpt lat="43.03866" lon="-0.33911">
        <ele>1566.1</ele>
        <time>2026-02-07T14:35:57.000Z</time>
      </trkpt>
      <trkpt lat="43.03865" lon="-0.33911">
        <ele>1566.3</ele>
        <time>2026-02-07T14:36:00.000Z</time>
      </trkpt>
      <trkpt lat="43.03865" lon="-0.33911">
        <ele>1566.3</ele>
        <time>2026-02-07T14:36:01.000Z</time>
      </trkpt>
      <trkpt lat="43.03865" lon="-0.33912">
        <ele>1566.5</ele>
        <time>2026-02-07T14:36:04.000Z</time>
      </trkpt>
      <trkpt lat="43.03866" lon="-0.33913">
        <ele>1566.5</ele>
        <time>2026-02-07T14:36:05.000Z</time>
      </trkpt>
      <trkpt lat="43.03866" lon="-0.33913">
        <ele>1566.6</ele>
        <time>2026-02-07T14:36:06.000Z</time>
      </trkpt>
      <trkpt lat="43.03866" lon="-0.33915">
        <ele>1566.7</ele>
        <time>2026-02-07T14:36:09.000Z</time>
      </trkpt>
      <trkpt lat="43.03867" lon="-0.33914">
        <ele>1566.9</ele>
        <time>2026-02-07T14:36:12.000Z</time>
      </trkpt>
      <trkpt lat="43.03867" lon="-0.33914">
        <ele>1567</ele>
        <time>2026-02-07T14:36:15.000Z</time>
      </trkpt>
      <trkpt lat="43.03867" lon="-0.33914">
        <ele>1567.1</ele>
        <time>2026-02-07T14:36:17.000Z</time>
      </trkpt>
      <trkpt lat="43.03868" lon="-0.33914">
        <ele>1567.1</ele>
        <time>2026-02-07T14:36:18.000Z</time>
      </trkpt>
      <trkpt lat="43.03868" lon="-0.33914">
        <ele>1567.2</ele>
        <time>2026-02-07T14:36:19.000Z</time>
      </trkpt>
      <trkpt lat="43.03869" lon="-0.33914">
        <ele>1567.2</ele>
        <time>2026-02-07T14:36:20.000Z</time>
      </trkpt>
      <trkpt lat="43.0387" lon="-0.33913">
        <ele>1567.3</ele>
        <time>2026-02-07T14:36:21.000Z</time>
      </trkpt>
      <trkpt lat="43.03871" lon="-0.33911">
        <ele>1567.7</ele>
        <time>2026-02-07T14:36:24.000Z</time>
      </trkpt>
      <trkpt lat="43.03872" lon="-0.3391">
        <ele>1568.1</ele>
        <time>2026-02-07T14:36:27.000Z</time>
      </trkpt>
      <trkpt lat="43.03873" lon="-0.33909">
        <ele>1568.5</ele>
        <time>2026-02-07T14:36:30.000Z</time>
      </trkpt>
      <trkpt lat="43.03874" lon="-0.33909">
        <ele>1568.9</ele>
        <time>2026-02-07T14:36:33.000Z</time>
      </trkpt>
      <trkpt lat="43.03874" lon="-0.33909">
        <ele>1569.2</ele>
        <time>2026-02-07T14:36:36.000Z</time>
      </trkpt>
      <trkpt lat="43.03874" lon="-0.33908">
        <ele>1569.6</ele>
        <time>2026-02-07T14:36:39.000Z</time>
      </trkpt>
      <trkpt lat="43.03875" lon="-0.33908">
        <ele>1570</ele>
        <time>2026-02-07T14:36:42.000Z</time>
      </trkpt>
      <trkpt lat="43.03876" lon="-0.33908">
        <ele>1570.4</ele>
        <time>2026-02-07T14:36:45.000Z</time>
      </trkpt>
      <trkpt lat="43.03876" lon="-0.33908">
        <ele>1570.8</ele>
        <time>2026-02-07T14:36:48.000Z</time>
      </trkpt>
      <trkpt lat="43.03877" lon="-0.33909">
        <ele>1571.1</ele>
        <time>2026-02-07T14:36:51.000Z</time>
      </trkpt>
      <trkpt lat="43.03877" lon="-0.3391">
        <ele>1571.4</ele>
        <time>2026-02-07T14:36:54.000Z</time>
      </trkpt>
      <trkpt lat="43.03877" lon="-0.33911">
        <ele>1571.8</ele>
        <time>2026-02-07T14:36:57.000Z</time>
      </trkpt>
      <trkpt lat="43.03878" lon="-0.33911">
        <ele>1572.2</ele>
        <time>2026-02-07T14:37:00.000Z</time>
      </trkpt>
      <trkpt lat="43.03879" lon="-0.33911">
        <ele>1572.6</ele>
        <time>2026-02-07T14:37:03.000Z</time>
      </trkpt>
      <trkpt lat="43.0388" lon="-0.33911">
        <ele>1573</ele>
        <time>2026-02-07T14:37:06.000Z</time>
      </trkpt>
      <trkpt lat="43.0388" lon="-0.33911">
        <ele>1573.2</ele>
        <time>2026-02-07T14:37:09.000Z</time>
      </trkpt>
      <trkpt lat="43.03881" lon="-0.33911">
        <ele>1573.5</ele>
        <time>2026-02-07T14:37:12.000Z</time>
      </trkpt>
      <trkpt lat="43.03881" lon="-0.3391">
        <ele>1573.8</ele>
        <time>2026-02-07T14:37:15.000Z</time>
      </trkpt>
      <trkpt lat="43.03882" lon="-0.3391">
        <ele>1574.1</ele>
        <time>2026-02-07T14:37:18.000Z</time>
      </trkpt>
      <trkpt lat="43.03882" lon="-0.3391">
        <ele>1574.4</ele>
        <time>2026-02-07T14:37:21.000Z</time>
      </trkpt>
      <trkpt lat="43.03882" lon="-0.3391">
        <ele>1574.7</ele>
        <time>2026-02-07T14:37:24.000Z</time>
      </trkpt>
      <trkpt lat="43.03882" lon="-0.3391">
        <ele>1574.9</ele>
        <time>2026-02-07T14:37:27.000Z</time>
      </trkpt>
      <trkpt lat="43.03882" lon="-0.3391">
        <ele>1575.1</ele>
        <time>2026-02-07T14:37:30.000Z</time>
      </trkpt>
      <trkpt lat="43.03883" lon="-0.33912">
        <ele>1575.4</ele>
        <time>2026-02-07T14:37:33.000Z</time>
      </trkpt>
      <trkpt lat="43.03885" lon="-0.33913">
        <ele>1575.7</ele>
        <time>2026-02-07T14:37:36.000Z</time>
      </trkpt>
      <trkpt lat="43.03886" lon="-0.33915">
        <ele>1576</ele>
        <time>2026-02-07T14:37:39.000Z</time>
      </trkpt>
      <trkpt lat="43.03887" lon="-0.33917">
        <ele>1576.3</ele>
        <time>2026-02-07T14:37:42.000Z</time>
      </trkpt>
      <trkpt lat="43.03888" lon="-0.33918">
        <ele>1576.6</ele>
        <time>2026-02-07T14:37:45.000Z</time>
      </trkpt>
      <trkpt lat="43.03889" lon="-0.33919">
        <ele>1576.9</ele>
        <time>2026-02-07T14:37:48.000Z</time>
      </trkpt>
      <trkpt lat="43.03889" lon="-0.3392">
        <ele>1577.3</ele>
        <time>2026-02-07T14:37:51.000Z</time>
      </trkpt>
      <trkpt lat="43.0389" lon="-0.3392">
        <ele>1577.8</ele>
        <time>2026-02-07T14:37:54.000Z</time>
      </trkpt>
      <trkpt lat="43.0389" lon="-0.33921">
        <ele>1578.3</ele>
        <time>2026-02-07T14:37:57.000Z</time>
      </trkpt>
      <trkpt lat="43.0389" lon="-0.33921">
        <ele>1578.8</ele>
        <time>2026-02-07T14:38:00.000Z</time>
      </trkpt>
      <trkpt lat="43.0389" lon="-0.33922">
        <ele>1579.1</ele>
        <time>2026-02-07T14:38:03.000Z</time>
      </trkpt>
      <trkpt lat="43.0389" lon="-0.33922">
        <ele>1579.4</ele>
        <time>2026-02-07T14:38:06.000Z</time>
      </trkpt>
      <trkpt lat="43.0389" lon="-0.33922">
        <ele>1579.7</ele>
        <time>2026-02-07T14:38:09.000Z</time>
      </trkpt>
      <trkpt lat="43.03891" lon="-0.33923">
        <ele>1580.1</ele>
        <time>2026-02-07T14:38:12.000Z</time>
      </trkpt>
      <trkpt lat="43.03891" lon="-0.33923">
        <ele>1580.3</ele>
        <time>2026-02-07T14:38:15.000Z</time>
      </trkpt>
      <trkpt lat="43.03891" lon="-0.33923">
        <ele>1580.4</ele>
        <time>2026-02-07T14:38:18.000Z</time>
      </trkpt>
      <trkpt lat="43.03892" lon="-0.33923">
        <ele>1580.6</ele>
        <time>2026-02-07T14:38:21.000Z</time>
      </trkpt>
      <trkpt lat="43.03892" lon="-0.33924">
        <ele>1580.8</ele>
        <time>2026-02-07T14:38:24.000Z</time>
      </trkpt>
      <trkpt lat="43.03893" lon="-0.33924">
        <ele>1581.2</ele>
        <time>2026-02-07T14:38:27.000Z</time>
      </trkpt>
      <trkpt lat="43.03895" lon="-0.33925">
        <ele>1581.4</ele>
        <time>2026-02-07T14:38:30.000Z</time>
      </trkpt>
      <trkpt lat="43.03895" lon="-0.33925">
        <ele>1581.7</ele>
        <time>2026-02-07T14:38:33.000Z</time>
      </trkpt>
      <trkpt lat="43.03897" lon="-0.33924">
        <ele>1582.1</ele>
        <time>2026-02-07T14:38:36.000Z</time>
      </trkpt>
      <trkpt lat="43.03899" lon="-0.33924">
        <ele>1582.7</ele>
        <time>2026-02-07T14:38:39.000Z</time>
      </trkpt>
      <trkpt lat="43.039" lon="-0.33923">
        <ele>1583</ele>
        <time>2026-02-07T14:38:42.000Z</time>
      </trkpt>
      <trkpt lat="43.039" lon="-0.33923">
        <ele>1583.4</ele>
        <time>2026-02-07T14:38:45.000Z</time>
      </trkpt>
      <trkpt lat="43.039" lon="-0.33923">
        <ele>1583.7</ele>
        <time>2026-02-07T14:38:48.000Z</time>
      </trkpt>
      <trkpt lat="43.03901" lon="-0.33923">
        <ele>1584</ele>
        <time>2026-02-07T14:38:51.000Z</time>
      </trkpt>
      <trkpt lat="43.03901" lon="-0.33923">
        <ele>1584.3</ele>
        <time>2026-02-07T14:38:54.000Z</time>
      </trkpt>
      <trkpt lat="43.039" lon="-0.33924">
        <ele>1584.6</ele>
        <time>2026-02-07T14:38:57.000Z</time>
      </trkpt>
      <trkpt lat="43.039" lon="-0.33924">
        <ele>1584.8</ele>
        <time>2026-02-07T14:39:00.000Z</time>
      </trkpt>
      <trkpt lat="43.039" lon="-0.33924">
        <ele>1585.1</ele>
        <time>2026-02-07T14:39:03.000Z</time>
      </trkpt>
      <trkpt lat="43.039" lon="-0.33924">
        <ele>1585.3</ele>
        <time>2026-02-07T14:39:06.000Z</time>
      </trkpt>
      <trkpt lat="43.03899" lon="-0.33925">
        <ele>1585.5</ele>
        <time>2026-02-07T14:39:09.000Z</time>
      </trkpt>
      <trkpt lat="43.039" lon="-0.33925">
        <ele>1585.7</ele>
        <time>2026-02-07T14:39:12.000Z</time>
      </trkpt>
      <trkpt lat="43.03901" lon="-0.33924">
        <ele>1586</ele>
        <time>2026-02-07T14:39:15.000Z</time>
      </trkpt>
      <trkpt lat="43.03901" lon="-0.33923">
        <ele>1586.3</ele>
        <time>2026-02-07T14:39:18.000Z</time>
      </trkpt>
      <trkpt lat="43.03902" lon="-0.33924">
        <ele>1586.5</ele>
        <time>2026-02-07T14:39:21.000Z</time>
      </trkpt>
      <trkpt lat="43.03902" lon="-0.33923">
        <ele>1586.8</ele>
        <time>2026-02-07T14:39:24.000Z</time>
      </trkpt>
      <trkpt lat="43.03902" lon="-0.33924">
        <ele>1587</ele>
        <time>2026-02-07T14:39:27.000Z</time>
      </trkpt>
      <trkpt lat="43.03903" lon="-0.33924">
        <ele>1587.3</ele>
        <time>2026-02-07T14:39:30.000Z</time>
      </trkpt>
      <trkpt lat="43.03904" lon="-0.33925">
        <ele>1587.7</ele>
        <time>2026-02-07T14:39:33.000Z</time>
      </trkpt>
      <trkpt lat="43.03904" lon="-0.33924">
        <ele>1588</ele>
        <time>2026-02-07T14:39:35.000Z</time>
      </trkpt>
      <trkpt lat="43.03905" lon="-0.33923">
        <ele>1588.1</ele>
        <time>2026-02-07T14:39:36.000Z</time>
      </trkpt>
      <trkpt lat="43.03905" lon="-0.33924">
        <ele>1588.2</ele>
        <time>2026-02-07T14:39:37.000Z</time>
      </trkpt>
      <trkpt lat="43.03906" lon="-0.33924">
        <ele>1588.3</ele>
        <time>2026-02-07T14:39:38.000Z</time>
      </trkpt>
      <trkpt lat="43.03906" lon="-0.33925">
        <ele>1588.6</ele>
        <time>2026-02-07T14:39:41.000Z</time>
      </trkpt>
      <trkpt lat="43.03907" lon="-0.33926">
        <ele>1589.1</ele>
        <time>2026-02-07T14:39:44.000Z</time>
      </trkpt>
      <trkpt lat="43.03908" lon="-0.33924">
        <ele>1589.5</ele>
        <time>2026-02-07T14:39:47.000Z</time>
      </trkpt>
      <trkpt lat="43.03908" lon="-0.33924">
        <ele>1589.8</ele>
        <time>2026-02-07T14:39:50.000Z</time>
      </trkpt>
      <trkpt lat="43.03908" lon="-0.33923">
        <ele>1590.1</ele>
        <time>2026-02-07T14:39:53.000Z</time>
      </trkpt>
      <trkpt lat="43.03908" lon="-0.33923">
        <ele>1590.2</ele>
        <time>2026-02-07T14:39:56.000Z</time>
      </trkpt>
      <trkpt lat="43.03908" lon="-0.33923">
        <ele>1590.4</ele>
        <time>2026-02-07T14:39:59.000Z</time>
      </trkpt>
      <trkpt lat="43.03909" lon="-0.33923">
        <ele>1590.7</ele>
        <time>2026-02-07T14:40:02.000Z</time>
      </trkpt>
      <trkpt lat="43.0391" lon="-0.33923">
        <ele>1591</ele>
        <time>2026-02-07T14:40:05.000Z</time>
      </trkpt>
      <trkpt lat="43.03909" lon="-0.33924">
        <ele>1591.4</ele>
        <time>2026-02-07T14:40:08.000Z</time>
      </trkpt>
      <trkpt lat="43.03909" lon="-0.33924">
        <ele>1591.7</ele>
        <time>2026-02-07T14:40:11.000Z</time>
      </trkpt>
      <trkpt lat="43.03909" lon="-0.33923">
        <ele>1591.9</ele>
        <time>2026-02-07T14:40:14.000Z</time>
      </trkpt>
      <trkpt lat="43.0391" lon="-0.33924">
        <ele>1592.2</ele>
        <time>2026-02-07T14:40:17.000Z</time>
      </trkpt>
      <trkpt lat="43.03911" lon="-0.33923">
        <ele>1592.6</ele>
        <time>2026-02-07T14:40:20.000Z</time>
      </trkpt>
      <trkpt lat="43.03912" lon="-0.33923">
        <ele>1592.9</ele>
        <time>2026-02-07T14:40:23.000Z</time>
      </trkpt>
      <trkpt lat="43.03913" lon="-0.33923">
        <ele>1593.3</ele>
        <time>2026-02-07T14:40:26.000Z</time>
      </trkpt>
      <trkpt lat="43.03913" lon="-0.33922">
        <ele>1593.7</ele>
        <time>2026-02-07T14:40:29.000Z</time>
      </trkpt>
      <trkpt lat="43.03913" lon="-0.33921">
        <ele>1593.8</ele>
        <time>2026-02-07T14:40:30.000Z</time>
      </trkpt>
      <trkpt lat="43.03914" lon="-0.3392">
        <ele>1593.8</ele>
        <time>2026-02-07T14:40:31.000Z</time>
      </trkpt>
      <trkpt lat="43.03915" lon="-0.3392">
        <ele>1594.1</ele>
        <time>2026-02-07T14:40:34.000Z</time>
      </trkpt>
      <trkpt lat="43.03915" lon="-0.3392">
        <ele>1594.2</ele>
        <time>2026-02-07T14:40:35.000Z</time>
      </trkpt>
      <trkpt lat="43.03915" lon="-0.3392">
        <ele>1594.2</ele>
        <time>2026-02-07T14:40:36.000Z</time>
      </trkpt>
      <trkpt lat="43.03916" lon="-0.33917">
        <ele>1594.4</ele>
        <time>2026-02-07T14:40:39.000Z</time>
      </trkpt>
      <trkpt lat="43.03916" lon="-0.33917">
        <ele>1594.6</ele>
        <time>2026-02-07T14:40:42.000Z</time>
      </trkpt>
      <trkpt lat="43.03916" lon="-0.33917">
        <ele>1594.7</ele>
        <time>2026-02-07T14:40:43.000Z</time>
      </trkpt>
      <trkpt lat="43.03916" lon="-0.33917">
        <ele>1594.7</ele>
        <time>2026-02-07T14:40:44.000Z</time>
      </trkpt>
      <trkpt lat="43.03916" lon="-0.33917">
        <ele>1594.9</ele>
        <time>2026-02-07T14:40:47.000Z</time>
      </trkpt>
      <trkpt lat="43.03916" lon="-0.33918">
        <ele>1594.9</ele>
        <time>2026-02-07T14:40:48.000Z</time>
      </trkpt>
      <trkpt lat="43.03916" lon="-0.33918">
        <ele>1595</ele>
        <time>2026-02-07T14:40:49.000Z</time>
      </trkpt>
      <trkpt lat="43.03916" lon="-0.33917">
        <ele>1595.1</ele>
        <time>2026-02-07T14:40:52.000Z</time>
      </trkpt>
      <trkpt lat="43.03916" lon="-0.33917">
        <ele>1595.2</ele>
        <time>2026-02-07T14:40:55.000Z</time>
      </trkpt>
      <trkpt lat="43.03917" lon="-0.33916">
        <ele>1595.3</ele>
        <time>2026-02-07T14:40:58.000Z</time>
      </trkpt>
      <trkpt lat="43.03918" lon="-0.33916">
        <ele>1595.6</ele>
        <time>2026-02-07T14:41:01.000Z</time>
      </trkpt>
      <trkpt lat="43.0392" lon="-0.33916">
        <ele>1595.9</ele>
        <time>2026-02-07T14:41:04.000Z</time>
      </trkpt>
      <trkpt lat="43.03921" lon="-0.33917">
        <ele>1596.4</ele>
        <time>2026-02-07T14:41:07.000Z</time>
      </trkpt>
      <trkpt lat="43.03922" lon="-0.33918">
        <ele>1597</ele>
        <time>2026-02-07T14:41:10.000Z</time>
      </trkpt>
      <trkpt lat="43.03923" lon="-0.3392">
        <ele>1597.6</ele>
        <time>2026-02-07T14:41:13.000Z</time>
      </trkpt>
      <trkpt lat="43.03924" lon="-0.33922">
        <ele>1598.1</ele>
        <time>2026-02-07T14:41:16.000Z</time>
      </trkpt>
      <trkpt lat="43.03925" lon="-0.33923">
        <ele>1598.7</ele>
        <time>2026-02-07T14:41:19.000Z</time>
      </trkpt>
      <trkpt lat="43.03926" lon="-0.33924">
        <ele>1599.2</ele>
        <time>2026-02-07T14:41:22.000Z</time>
      </trkpt>
      <trkpt lat="43.03926" lon="-0.33926">
        <ele>1599.7</ele>
        <time>2026-02-07T14:41:25.000Z</time>
      </trkpt>
      <trkpt lat="43.03926" lon="-0.33926">
        <ele>1600</ele>
        <time>2026-02-07T14:41:28.000Z</time>
      </trkpt>
      <trkpt lat="43.03926" lon="-0.33926">
        <ele>1600.1</ele>
        <time>2026-02-07T14:41:29.000Z</time>
      </trkpt>
      <trkpt lat="43.03926" lon="-0.33926">
        <ele>1600.1</ele>
        <time>2026-02-07T14:41:30.000Z</time>
      </trkpt>
      <trkpt lat="43.03926" lon="-0.33925">
        <ele>1600.2</ele>
        <time>2026-02-07T14:41:31.000Z</time>
      </trkpt>
      <trkpt lat="43.03926" lon="-0.33925">
        <ele>1600.3</ele>
        <time>2026-02-07T14:41:34.000Z</time>
      </trkpt>
      <trkpt lat="43.03926" lon="-0.33925">
        <ele>1600.4</ele>
        <time>2026-02-07T14:41:37.000Z</time>
      </trkpt>
      <trkpt lat="43.03926" lon="-0.33925">
        <ele>1600.4</ele>
        <time>2026-02-07T14:41:38.000Z</time>
      </trkpt>
      <trkpt lat="43.03926" lon="-0.33925">
        <ele>1600.4</ele>
        <time>2026-02-07T14:41:39.000Z</time>
      </trkpt>
      <trkpt lat="43.03926" lon="-0.33925">
        <ele>1600.4</ele>
        <time>2026-02-07T14:41:40.000Z</time>
      </trkpt>
      <trkpt lat="43.03926" lon="-0.33925">
        <ele>1600.4</ele>
        <time>2026-02-07T14:41:41.000Z</time>
      </trkpt>
      <trkpt lat="43.03926" lon="-0.33925">
        <ele>1600.5</ele>
        <time>2026-02-07T14:41:44.000Z</time>
      </trkpt>
      <trkpt lat="43.03926" lon="-0.33925">
        <ele>1600.5</ele>
        <time>2026-02-07T14:41:47.000Z</time>
      </trkpt>
      <trkpt lat="43.03926" lon="-0.33925">
        <ele>1600.6</ele>
        <time>2026-02-07T14:41:50.000Z</time>
      </trkpt>
      <trkpt lat="43.03926" lon="-0.33925">
        <ele>1600.6</ele>
        <time>2026-02-07T14:41:53.000Z</time>
      </trkpt>
      <trkpt lat="43.03925" lon="-0.33925">
        <ele>1600.6</ele>
        <time>2026-02-07T14:41:56.000Z</time>
      </trkpt>
      <trkpt lat="43.03925" lon="-0.33925">
        <ele>1600.6</ele>
        <time>2026-02-07T14:41:59.000Z</time>
      </trkpt>
      <trkpt lat="43.03925" lon="-0.33925">
        <ele>1600.6</ele>
        <time>2026-02-07T14:42:02.000Z</time>
      </trkpt>
      <trkpt lat="43.03925" lon="-0.33925">
        <ele>1600.6</ele>
        <time>2026-02-07T14:42:05.000Z</time>
      </trkpt>
      <trkpt lat="43.03925" lon="-0.33925">
        <ele>1600.6</ele>
        <time>2026-02-07T14:42:08.000Z</time>
      </trkpt>
      <trkpt lat="43.03925" lon="-0.33925">
        <ele>1600.6</ele>
        <time>2026-02-07T14:42:11.000Z</time>
      </trkpt>
      <trkpt lat="43.03925" lon="-0.33925">
        <ele>1600.6</ele>
        <time>2026-02-07T14:42:14.000Z</time>
      </trkpt>
      <trkpt lat="43.03925" lon="-0.33925">
        <ele>1600.6</ele>
        <time>2026-02-07T14:42:17.000Z</time>
      </trkpt>
      <trkpt lat="43.03925" lon="-0.33925">
        <ele>1600.6</ele>
        <time>2026-02-07T14:42:20.000Z</time>
      </trkpt>
      <trkpt lat="43.03925" lon="-0.33925">
        <ele>1600.6</ele>
        <time>2026-02-07T14:42:23.000Z</time>
      </trkpt>
      <trkpt lat="43.03925" lon="-0.33925">
        <ele>1600.6</ele>
        <time>2026-02-07T14:42:26.000Z</time>
      </trkpt>
      <trkpt lat="43.03925" lon="-0.33925">
        <ele>1600.7</ele>
        <time>2026-02-07T14:42:29.000Z</time>
      </trkpt>
      <trkpt lat="43.03925" lon="-0.33925">
        <ele>1600.7</ele>
        <time>2026-02-07T14:42:32.000Z</time>
      </trkpt>
      <trkpt lat="43.03925" lon="-0.33925">
        <ele>1600.7</ele>
        <time>2026-02-07T14:42:35.000Z</time>
      </trkpt>
      <trkpt lat="43.03925" lon="-0.33925">
        <ele>1600.7</ele>
        <time>2026-02-07T14:42:38.000Z</time>
      </trkpt>
      <trkpt lat="43.03925" lon="-0.33925">
        <ele>1600.7</ele>
        <time>2026-02-07T14:42:41.000Z</time>
      </trkpt>
      <trkpt lat="43.03925" lon="-0.33925">
        <ele>1600.7</ele>
        <time>2026-02-07T14:42:44.000Z</time>
      </trkpt>
      <trkpt lat="43.03925" lon="-0.33925">
        <ele>1600.7</ele>
        <time>2026-02-07T14:42:47.000Z</time>
      </trkpt>
      <trkpt lat="43.03925" lon="-0.33924">
        <ele>1600.7</ele>
        <time>2026-02-07T14:42:50.000Z</time>
      </trkpt>
      <trkpt lat="43.03925" lon="-0.33924">
        <ele>1600.7</ele>
        <time>2026-02-07T14:42:51.000Z</time>
      </trkpt>
      <trkpt lat="43.03925" lon="-0.33924">
        <ele>1600.7</ele>
        <time>2026-02-07T14:42:52.000Z</time>
      </trkpt>
      <trkpt lat="43.03925" lon="-0.33925">
        <ele>1600.7</ele>
        <time>2026-02-07T14:42:55.000Z</time>
      </trkpt>
      <trkpt lat="43.03925" lon="-0.33925">
        <ele>1600.7</ele>
        <time>2026-02-07T14:42:56.000Z</time>
      </trkpt>
      <trkpt lat="43.03925" lon="-0.33925">
        <ele>1600.7</ele>
        <time>2026-02-07T14:42:59.000Z</time>
      </trkpt>
      <trkpt lat="43.03925" lon="-0.33925">
        <ele>1600.7</ele>
        <time>2026-02-07T14:43:02.000Z</time>
      </trkpt>
      <trkpt lat="43.03925" lon="-0.33925">
        <ele>1600.7</ele>
        <time>2026-02-07T14:43:03.000Z</time>
      </trkpt>
      <trkpt lat="43.03925" lon="-0.33925">
        <ele>1600.7</ele>
        <time>2026-02-07T14:43:04.000Z</time>
      </trkpt>
      <trkpt lat="43.03925" lon="-0.33925">
        <ele>1600.7</ele>
        <time>2026-02-07T14:43:05.000Z</time>
      </trkpt>
      <trkpt lat="43.03925" lon="-0.33925">
        <ele>1600.7</ele>
        <time>2026-02-07T14:43:06.000Z</time>
      </trkpt>
      <trkpt lat="43.03925" lon="-0.33925">
        <ele>1600.7</ele>
        <time>2026-02-07T14:43:07.000Z</time>
      </trkpt>
      <trkpt lat="43.03925" lon="-0.33925">
        <ele>1600.7</ele>
        <time>2026-02-07T14:43:10.000Z</time>
      </trkpt>
      <trkpt lat="43.03925" lon="-0.33925">
        <ele>1600.7</ele>
        <time>2026-02-07T14:43:13.000Z</time>
      </trkpt>
      <trkpt lat="43.03925" lon="-0.33925">
        <ele>1600.6</ele>
        <time>2026-02-07T14:43:16.000Z</time>
      </trkpt>
      <trkpt lat="43.03925" lon="-0.33925">
        <ele>1600.6</ele>
        <time>2026-02-07T14:43:19.000Z</time>
      </trkpt>
      <trkpt lat="43.03925" lon="-0.33925">
        <ele>1600.6</ele>
        <time>2026-02-07T14:43:22.000Z</time>
      </trkpt>
      <trkpt lat="43.03924" lon="-0.33924">
        <ele>1600.6</ele>
        <time>2026-02-07T14:43:25.000Z</time>
      </trkpt>
      <trkpt lat="43.03925" lon="-0.33924">
        <ele>1600.6</ele>
        <time>2026-02-07T14:43:28.000Z</time>
      </trkpt>
      <trkpt lat="43.03924" lon="-0.33924">
        <ele>1600.6</ele>
        <time>2026-02-07T14:43:31.000Z</time>
      </trkpt>
      <trkpt lat="43.03924" lon="-0.33924">
        <ele>1600.6</ele>
        <time>2026-02-07T14:43:34.000Z</time>
      </trkpt>
      <trkpt lat="43.03924" lon="-0.33924">
        <ele>1600.6</ele>
        <time>2026-02-07T14:43:37.000Z</time>
      </trkpt>
      <trkpt lat="43.03924" lon="-0.33924">
        <ele>1600.6</ele>
        <time>2026-02-07T14:43:40.000Z</time>
      </trkpt>
      <trkpt lat="43.03924" lon="-0.33924">
        <ele>1600.6</ele>
        <time>2026-02-07T14:43:43.000Z</time>
      </trkpt>
      <trkpt lat="43.03924" lon="-0.33924">
        <ele>1600.6</ele>
        <time>2026-02-07T14:43:46.000Z</time>
      </trkpt>
      <trkpt lat="43.03924" lon="-0.33924">
        <ele>1600.6</ele>
        <time>2026-02-07T14:43:49.000Z</time>
      </trkpt>
      <trkpt lat="43.03924" lon="-0.33924">
        <ele>1600.6</ele>
        <time>2026-02-07T14:43:52.000Z</time>
      </trkpt>
      <trkpt lat="43.03924" lon="-0.33924">
        <ele>1600.5</ele>
        <time>2026-02-07T14:43:55.000Z</time>
      </trkpt>
      <trkpt lat="43.03924" lon="-0.33924">
        <ele>1600.5</ele>
        <time>2026-02-07T14:43:58.000Z</time>
      </trkpt>
      <trkpt lat="43.03924" lon="-0.33924">
        <ele>1600.5</ele>
        <time>2026-02-07T14:44:01.000Z</time>
      </trkpt>
      <trkpt lat="43.03924" lon="-0.33924">
        <ele>1600.5</ele>
        <time>2026-02-07T14:44:04.000Z</time>
      </trkpt>
      <trkpt lat="43.03924" lon="-0.33924">
        <ele>1600.5</ele>
        <time>2026-02-07T14:44:07.000Z</time>
      </trkpt>
      <trkpt lat="43.03924" lon="-0.33924">
        <ele>1600.5</ele>
        <time>2026-02-07T14:44:10.000Z</time>
      </trkpt>
      <trkpt lat="43.03924" lon="-0.33924">
        <ele>1600.5</ele>
        <time>2026-02-07T14:44:13.000Z</time>
      </trkpt>
      <trkpt lat="43.03924" lon="-0.33924">
        <ele>1600.5</ele>
        <time>2026-02-07T14:44:16.000Z</time>
      </trkpt>
      <trkpt lat="43.03924" lon="-0.33924">
        <ele>1600.4</ele>
        <time>2026-02-07T14:44:19.000Z</time>
      </trkpt>
      <trkpt lat="43.03924" lon="-0.33924">
        <ele>1600.4</ele>
        <time>2026-02-07T14:44:22.000Z</time>
      </trkpt>
      <trkpt lat="43.03924" lon="-0.33924">
        <ele>1600.4</ele>
        <time>2026-02-07T14:44:25.000Z</time>
      </trkpt>
      <trkpt lat="43.03924" lon="-0.33924">
        <ele>1600.4</ele>
        <time>2026-02-07T14:44:28.000Z</time>
      </trkpt>
      <trkpt lat="43.03924" lon="-0.33924">
        <ele>1600.4</ele>
        <time>2026-02-07T14:44:31.000Z</time>
      </trkpt>
      <trkpt lat="43.03924" lon="-0.33924">
        <ele>1600.4</ele>
        <time>2026-02-07T14:44:34.000Z</time>
      </trkpt>
      <trkpt lat="43.03924" lon="-0.33923">
        <ele>1600.4</ele>
        <time>2026-02-07T14:44:37.000Z</time>
      </trkpt>
      <trkpt lat="43.03924" lon="-0.33923">
        <ele>1600.4</ele>
        <time>2026-02-07T14:44:40.000Z</time>
      </trkpt>
      <trkpt lat="43.03924" lon="-0.33923">
        <ele>1600.4</ele>
        <time>2026-02-07T14:44:43.000Z</time>
      </trkpt>
      <trkpt lat="43.03924" lon="-0.33923">
        <ele>1600.4</ele>
        <time>2026-02-07T14:44:46.000Z</time>
      </trkpt>
      <trkpt lat="43.03924" lon="-0.33923">
        <ele>1600.4</ele>
        <time>2026-02-07T14:44:49.000Z</time>
      </trkpt>
      <trkpt lat="43.03924" lon="-0.33923">
        <ele>1600.4</ele>
        <time>2026-02-07T14:44:52.000Z</time>
      </trkpt>
      <trkpt lat="43.03924" lon="-0.33923">
        <ele>1600.4</ele>
        <time>2026-02-07T14:44:55.000Z</time>
      </trkpt>
      <trkpt lat="43.03924" lon="-0.33923">
        <ele>1600.4</ele>
        <time>2026-02-07T14:44:58.000Z</time>
      </trkpt>
      <trkpt lat="43.03924" lon="-0.33923">
        <ele>1600.4</ele>
        <time>2026-02-07T14:45:01.000Z</time>
      </trkpt>
      <trkpt lat="43.03924" lon="-0.33923">
        <ele>1600.4</ele>
        <time>2026-02-07T14:45:04.000Z</time>
      </trkpt>
      <trkpt lat="43.03923" lon="-0.33923">
        <ele>1600.4</ele>
        <time>2026-02-07T14:45:07.000Z</time>
      </trkpt>
      <trkpt lat="43.03923" lon="-0.33923">
        <ele>1600.4</ele>
        <time>2026-02-07T14:45:10.000Z</time>
      </trkpt>
      <trkpt lat="43.03923" lon="-0.33923">
        <ele>1600.4</ele>
        <time>2026-02-07T14:45:13.000Z</time>
      </trkpt>
      <trkpt lat="43.03923" lon="-0.33923">
        <ele>1600.4</ele>
        <time>2026-02-07T14:45:16.000Z</time>
      </trkpt>
      <trkpt lat="43.03924" lon="-0.33923">
        <ele>1600.4</ele>
        <time>2026-02-07T14:45:19.000Z</time>
      </trkpt>
      <trkpt lat="43.03924" lon="-0.33923">
        <ele>1600.4</ele>
        <time>2026-02-07T14:45:22.000Z</time>
      </trkpt>
      <trkpt lat="43.03924" lon="-0.33923">
        <ele>1600.4</ele>
        <time>2026-02-07T14:45:25.000Z</time>
      </trkpt>
      <trkpt lat="43.03924" lon="-0.33923">
        <ele>1600.3</ele>
        <time>2026-02-07T14:45:28.000Z</time>
      </trkpt>
      <trkpt lat="43.03924" lon="-0.33923">
        <ele>1600.3</ele>
        <time>2026-02-07T14:45:31.000Z</time>
      </trkpt>
      <trkpt lat="43.03924" lon="-0.33923">
        <ele>1600.3</ele>
        <time>2026-02-07T14:45:34.000Z</time>
      </trkpt>
      <trkpt lat="43.03924" lon="-0.33923">
        <ele>1600.3</ele>
        <time>2026-02-07T14:45:37.000Z</time>
      </trkpt>
      <trkpt lat="43.03924" lon="-0.33923">
        <ele>1600.3</ele>
        <time>2026-02-07T14:45:40.000Z</time>
      </trkpt>
      <trkpt lat="43.03924" lon="-0.33923">
        <ele>1600.3</ele>
        <time>2026-02-07T14:45:43.000Z</time>
      </trkpt>
      <trkpt lat="43.03924" lon="-0.33923">
        <ele>1600.3</ele>
        <time>2026-02-07T14:45:46.000Z</time>
      </trkpt>
      <trkpt lat="43.03924" lon="-0.33923">
        <ele>1600.3</ele>
        <time>2026-02-07T14:45:49.000Z</time>
      </trkpt>
      <trkpt lat="43.03924" lon="-0.33923">
        <ele>1600.3</ele>
        <time>2026-02-07T14:45:52.000Z</time>
      </trkpt>
      <trkpt lat="43.03924" lon="-0.33923">
        <ele>1600.2</ele>
        <time>2026-02-07T14:45:55.000Z</time>
      </trkpt>
      <trkpt lat="43.03924" lon="-0.33923">
        <ele>1600.2</ele>
        <time>2026-02-07T14:45:58.000Z</time>
      </trkpt>
      <trkpt lat="43.03924" lon="-0.33923">
        <ele>1600.2</ele>
        <time>2026-02-07T14:46:01.000Z</time>
      </trkpt>
      <trkpt lat="43.03924" lon="-0.33923">
        <ele>1600.2</ele>
        <time>2026-02-07T14:46:04.000Z</time>
      </trkpt>
      <trkpt lat="43.03924" lon="-0.33923">
        <ele>1600.2</ele>
        <time>2026-02-07T14:46:07.000Z</time>
      </trkpt>
      <trkpt lat="43.03924" lon="-0.33922">
        <ele>1600.2</ele>
        <time>2026-02-07T14:46:10.000Z</time>
      </trkpt>
      <trkpt lat="43.03924" lon="-0.33922">
        <ele>1600.2</ele>
        <time>2026-02-07T14:46:13.000Z</time>
      </trkpt>
      <trkpt lat="43.03924" lon="-0.33922">
        <ele>1600.2</ele>
        <time>2026-02-07T14:46:16.000Z</time>
      </trkpt>
      <trkpt lat="43.03924" lon="-0.33923">
        <ele>1600.2</ele>
        <time>2026-02-07T14:46:17.000Z</time>
      </trkpt>
      <trkpt lat="43.03924" lon="-0.33923">
        <ele>1600.2</ele>
        <time>2026-02-07T14:46:18.000Z</time>
      </trkpt>
      <trkpt lat="43.03924" lon="-0.33923">
        <ele>1600.2</ele>
        <time>2026-02-07T14:46:19.000Z</time>
      </trkpt>
      <trkpt lat="43.03924" lon="-0.33923">
        <ele>1600.2</ele>
        <time>2026-02-07T14:46:20.000Z</time>
      </trkpt>
      <trkpt lat="43.03924" lon="-0.33923">
        <ele>1600.2</ele>
        <time>2026-02-07T14:46:21.000Z</time>
      </trkpt>
      <trkpt lat="43.03924" lon="-0.33923">
        <ele>1600.2</ele>
        <time>2026-02-07T14:46:24.000Z</time>
      </trkpt>
      <trkpt lat="43.03925" lon="-0.33924">
        <ele>1600.2</ele>
        <time>2026-02-07T14:46:25.000Z</time>
      </trkpt>
      <trkpt lat="43.03925" lon="-0.33925">
        <ele>1600.2</ele>
        <time>2026-02-07T14:46:26.000Z</time>
      </trkpt>
      <trkpt lat="43.03926" lon="-0.33925">
        <ele>1600.2</ele>
        <time>2026-02-07T14:46:27.000Z</time>
      </trkpt>
      <trkpt lat="43.03927" lon="-0.33927">
        <ele>1600.2</ele>
        <time>2026-02-07T14:46:30.000Z</time>
      </trkpt>
      <trkpt lat="43.03928" lon="-0.33928">
        <ele>1600.3</ele>
        <time>2026-02-07T14:46:33.000Z</time>
      </trkpt>
      <trkpt lat="43.0393" lon="-0.33929">
        <ele>1600.4</ele>
        <time>2026-02-07T14:46:36.000Z</time>
      </trkpt>
      <trkpt lat="43.03931" lon="-0.33929">
        <ele>1600.6</ele>
        <time>2026-02-07T14:46:39.000Z</time>
      </trkpt>
      <trkpt lat="43.03932" lon="-0.33929">
        <ele>1600.9</ele>
        <time>2026-02-07T14:46:42.000Z</time>
      </trkpt>
      <trkpt lat="43.03933" lon="-0.33929">
        <ele>1601.3</ele>
        <time>2026-02-07T14:46:45.000Z</time>
      </trkpt>
      <trkpt lat="43.03933" lon="-0.33928">
        <ele>1601.7</ele>
        <time>2026-02-07T14:46:48.000Z</time>
      </trkpt>
      <trkpt lat="43.03933" lon="-0.33928">
        <ele>1601.8</ele>
        <time>2026-02-07T14:46:49.000Z</time>
      </trkpt>
      <trkpt lat="43.03934" lon="-0.33928">
        <ele>1601.8</ele>
        <time>2026-02-07T14:46:50.000Z</time>
      </trkpt>
      <trkpt lat="43.03934" lon="-0.33927">
        <ele>1602</ele>
        <time>2026-02-07T14:46:51.000Z</time>
      </trkpt>
      <trkpt lat="43.03935" lon="-0.33927">
        <ele>1602.2</ele>
        <time>2026-02-07T14:46:54.000Z</time>
      </trkpt>
      <trkpt lat="43.03935" lon="-0.33928">
        <ele>1602.5</ele>
        <time>2026-02-07T14:46:57.000Z</time>
      </trkpt>
      <trkpt lat="43.03936" lon="-0.33929">
        <ele>1602.8</ele>
        <time>2026-02-07T14:47:00.000Z</time>
      </trkpt>
      <trkpt lat="43.03936" lon="-0.3393">
        <ele>1602.9</ele>
        <time>2026-02-07T14:47:03.000Z</time>
      </trkpt>
      <trkpt lat="43.03936" lon="-0.33933">
        <ele>1603.1</ele>
        <time>2026-02-07T14:47:06.000Z</time>
      </trkpt>
      <trkpt lat="43.03936" lon="-0.33933">
        <ele>1603.4</ele>
        <time>2026-02-07T14:47:09.000Z</time>
      </trkpt>
      <trkpt lat="43.03937" lon="-0.33934">
        <ele>1603.6</ele>
        <time>2026-02-07T14:47:12.000Z</time>
      </trkpt>
      <trkpt lat="43.03938" lon="-0.33934">
        <ele>1603.9</ele>
        <time>2026-02-07T14:47:15.000Z</time>
      </trkpt>
      <trkpt lat="43.03938" lon="-0.33934">
        <ele>1604.2</ele>
        <time>2026-02-07T14:47:18.000Z</time>
      </trkpt>
      <trkpt lat="43.03939" lon="-0.33934">
        <ele>1604.5</ele>
        <time>2026-02-07T14:47:21.000Z</time>
      </trkpt>
      <trkpt lat="43.0394" lon="-0.33934">
        <ele>1604.9</ele>
        <time>2026-02-07T14:47:24.000Z</time>
      </trkpt>
      <trkpt lat="43.03941" lon="-0.33936">
        <ele>1605.2</ele>
        <time>2026-02-07T14:47:27.000Z</time>
      </trkpt>
      <trkpt lat="43.03941" lon="-0.33937">
        <ele>1605.4</ele>
        <time>2026-02-07T14:47:30.000Z</time>
      </trkpt>
      <trkpt lat="43.03941" lon="-0.33937">
        <ele>1605.6</ele>
        <time>2026-02-07T14:47:33.000Z</time>
      </trkpt>
      <trkpt lat="43.03942" lon="-0.33938">
        <ele>1605.8</ele>
        <time>2026-02-07T14:47:36.000Z</time>
      </trkpt>
      <trkpt lat="43.03943" lon="-0.33937">
        <ele>1606</ele>
        <time>2026-02-07T14:47:39.000Z</time>
      </trkpt>
      <trkpt lat="43.03943" lon="-0.33936">
        <ele>1606.1</ele>
        <time>2026-02-07T14:47:42.000Z</time>
      </trkpt>
      <trkpt lat="43.03944" lon="-0.33936">
        <ele>1606.4</ele>
        <time>2026-02-07T14:47:45.000Z</time>
      </trkpt>
      <trkpt lat="43.03944" lon="-0.33935">
        <ele>1606.7</ele>
        <time>2026-02-07T14:47:48.000Z</time>
      </trkpt>
      <trkpt lat="43.03945" lon="-0.33936">
        <ele>1606.9</ele>
        <time>2026-02-07T14:47:51.000Z</time>
      </trkpt>
      <trkpt lat="43.03946" lon="-0.33935">
        <ele>1607.3</ele>
        <time>2026-02-07T14:47:54.000Z</time>
      </trkpt>
      <trkpt lat="43.03947" lon="-0.33936">
        <ele>1607.6</ele>
        <time>2026-02-07T14:47:57.000Z</time>
      </trkpt>
      <trkpt lat="43.03948" lon="-0.33937">
        <ele>1607.9</ele>
        <time>2026-02-07T14:48:00.000Z</time>
      </trkpt>
      <trkpt lat="43.03948" lon="-0.33938">
        <ele>1608.2</ele>
        <time>2026-02-07T14:48:03.000Z</time>
      </trkpt>
      <trkpt lat="43.03948" lon="-0.33938">
        <ele>1608.5</ele>
        <time>2026-02-07T14:48:06.000Z</time>
      </trkpt>
      <trkpt lat="43.03949" lon="-0.33939">
        <ele>1608.9</ele>
        <time>2026-02-07T14:48:09.000Z</time>
      </trkpt>
      <trkpt lat="43.03949" lon="-0.33939">
        <ele>1609.1</ele>
        <time>2026-02-07T14:48:12.000Z</time>
      </trkpt>
      <trkpt lat="43.0395" lon="-0.33939">
        <ele>1609.5</ele>
        <time>2026-02-07T14:48:15.000Z</time>
      </trkpt>
      <trkpt lat="43.03951" lon="-0.3394">
        <ele>1609.8</ele>
        <time>2026-02-07T14:48:18.000Z</time>
      </trkpt>
      <trkpt lat="43.03951" lon="-0.3394">
        <ele>1610.1</ele>
        <time>2026-02-07T14:48:21.000Z</time>
      </trkpt>
      <trkpt lat="43.03951" lon="-0.33939">
        <ele>1610.4</ele>
        <time>2026-02-07T14:48:24.000Z</time>
      </trkpt>
      <trkpt lat="43.03951" lon="-0.33939">
        <ele>1610.7</ele>
        <time>2026-02-07T14:48:27.000Z</time>
      </trkpt>
      <trkpt lat="43.03951" lon="-0.33939">
        <ele>1610.9</ele>
        <time>2026-02-07T14:48:29.000Z</time>
      </trkpt>
      <trkpt lat="43.03951" lon="-0.33939">
        <ele>1610.9</ele>
        <time>2026-02-07T14:48:30.000Z</time>
      </trkpt>
      <trkpt lat="43.03951" lon="-0.33939">
        <ele>1611</ele>
        <time>2026-02-07T14:48:31.000Z</time>
      </trkpt>
      <trkpt lat="43.03952" lon="-0.33939">
        <ele>1611.2</ele>
        <time>2026-02-07T14:48:34.000Z</time>
      </trkpt>
      <trkpt lat="43.03952" lon="-0.33939">
        <ele>1611.3</ele>
        <time>2026-02-07T14:48:35.000Z</time>
      </trkpt>
      <trkpt lat="43.03952" lon="-0.33939">
        <ele>1611.3</ele>
        <time>2026-02-07T14:48:36.000Z</time>
      </trkpt>
      <trkpt lat="43.03953" lon="-0.33939">
        <ele>1611.5</ele>
        <time>2026-02-07T14:48:39.000Z</time>
      </trkpt>
      <trkpt lat="43.03954" lon="-0.33939">
        <ele>1611.8</ele>
        <time>2026-02-07T14:48:42.000Z</time>
      </trkpt>
      <trkpt lat="43.03954" lon="-0.33939">
        <ele>1612</ele>
        <time>2026-02-07T14:48:45.000Z</time>
      </trkpt>
      <trkpt lat="43.03955" lon="-0.33939">
        <ele>1612.2</ele>
        <time>2026-02-07T14:48:48.000Z</time>
      </trkpt>
      <trkpt lat="43.03955" lon="-0.33938">
        <ele>1612.4</ele>
        <time>2026-02-07T14:48:51.000Z</time>
      </trkpt>
      <trkpt lat="43.03956" lon="-0.33938">
        <ele>1612.6</ele>
        <time>2026-02-07T14:48:54.000Z</time>
      </trkpt>
      <trkpt lat="43.03957" lon="-0.33938">
        <ele>1612.9</ele>
        <time>2026-02-07T14:48:57.000Z</time>
      </trkpt>
      <trkpt lat="43.03957" lon="-0.33939">
        <ele>1613.1</ele>
        <time>2026-02-07T14:49:00.000Z</time>
      </trkpt>
      <trkpt lat="43.03958" lon="-0.3394">
        <ele>1613.3</ele>
        <time>2026-02-07T14:49:03.000Z</time>
      </trkpt>
      <trkpt lat="43.03958" lon="-0.3394">
        <ele>1613.6</ele>
        <time>2026-02-07T14:49:06.000Z</time>
      </trkpt>
      <trkpt lat="43.03958" lon="-0.3394">
        <ele>1613.8</ele>
        <time>2026-02-07T14:49:09.000Z</time>
      </trkpt>
      <trkpt lat="43.03958" lon="-0.3394">
        <ele>1614.1</ele>
        <time>2026-02-07T14:49:12.000Z</time>
      </trkpt>
      <trkpt lat="43.03958" lon="-0.3394">
        <ele>1614.4</ele>
        <time>2026-02-07T14:49:15.000Z</time>
      </trkpt>
      <trkpt lat="43.03958" lon="-0.3394">
        <ele>1614.6</ele>
        <time>2026-02-07T14:49:18.000Z</time>
      </trkpt>
      <trkpt lat="43.03959" lon="-0.33941">
        <ele>1614.9</ele>
        <time>2026-02-07T14:49:21.000Z</time>
      </trkpt>
      <trkpt lat="43.03959" lon="-0.33942">
        <ele>1615.2</ele>
        <time>2026-02-07T14:49:24.000Z</time>
      </trkpt>
      <trkpt lat="43.0396" lon="-0.33942">
        <ele>1615.5</ele>
        <time>2026-02-07T14:49:27.000Z</time>
      </trkpt>
      <trkpt lat="43.03961" lon="-0.33943">
        <ele>1615.9</ele>
        <time>2026-02-07T14:49:30.000Z</time>
      </trkpt>
      <trkpt lat="43.03962" lon="-0.33944">
        <ele>1616.2</ele>
        <time>2026-02-07T14:49:33.000Z</time>
      </trkpt>
      <trkpt lat="43.03962" lon="-0.33944">
        <ele>1616.4</ele>
        <time>2026-02-07T14:49:36.000Z</time>
      </trkpt>
      <trkpt lat="43.03962" lon="-0.33945">
        <ele>1616.6</ele>
        <time>2026-02-07T14:49:39.000Z</time>
      </trkpt>
      <trkpt lat="43.03962" lon="-0.33945">
        <ele>1616.9</ele>
        <time>2026-02-07T14:49:42.000Z</time>
      </trkpt>
      <trkpt lat="43.03962" lon="-0.33946">
        <ele>1617.1</ele>
        <time>2026-02-07T14:49:45.000Z</time>
      </trkpt>
      <trkpt lat="43.03962" lon="-0.33946">
        <ele>1617.2</ele>
        <time>2026-02-07T14:49:48.000Z</time>
      </trkpt>
      <trkpt lat="43.03962" lon="-0.33946">
        <ele>1617.3</ele>
        <time>2026-02-07T14:49:51.000Z</time>
      </trkpt>
      <trkpt lat="43.03964" lon="-0.33948">
        <ele>1617.5</ele>
        <time>2026-02-07T14:49:54.000Z</time>
      </trkpt>
      <trkpt lat="43.03964" lon="-0.33948">
        <ele>1617.8</ele>
        <time>2026-02-07T14:49:57.000Z</time>
      </trkpt>
      <trkpt lat="43.03964" lon="-0.33949">
        <ele>1618</ele>
        <time>2026-02-07T14:50:00.000Z</time>
      </trkpt>
      <trkpt lat="43.03964" lon="-0.3395">
        <ele>1618.2</ele>
        <time>2026-02-07T14:50:03.000Z</time>
      </trkpt>
      <trkpt lat="43.03964" lon="-0.3395">
        <ele>1618.4</ele>
        <time>2026-02-07T14:50:06.000Z</time>
      </trkpt>
      <trkpt lat="43.03965" lon="-0.3395">
        <ele>1618.7</ele>
        <time>2026-02-07T14:50:09.000Z</time>
      </trkpt>
      <trkpt lat="43.03965" lon="-0.33951">
        <ele>1618.9</ele>
        <time>2026-02-07T14:50:12.000Z</time>
      </trkpt>
      <trkpt lat="43.03966" lon="-0.33952">
        <ele>1619</ele>
        <time>2026-02-07T14:50:15.000Z</time>
      </trkpt>
      <trkpt lat="43.03966" lon="-0.33954">
        <ele>1619.2</ele>
        <time>2026-02-07T14:50:18.000Z</time>
      </trkpt>
      <trkpt lat="43.03966" lon="-0.33954">
        <ele>1619.4</ele>
        <time>2026-02-07T14:50:21.000Z</time>
      </trkpt>
      <trkpt lat="43.03967" lon="-0.33956">
        <ele>1619.6</ele>
        <time>2026-02-07T14:50:24.000Z</time>
      </trkpt>
      <trkpt lat="43.03968" lon="-0.33958">
        <ele>1619.8</ele>
        <time>2026-02-07T14:50:27.000Z</time>
      </trkpt>
      <trkpt lat="43.03969" lon="-0.33958">
        <ele>1620</ele>
        <time>2026-02-07T14:50:30.000Z</time>
      </trkpt>
      <trkpt lat="43.0397" lon="-0.33959">
        <ele>1620.1</ele>
        <time>2026-02-07T14:50:33.000Z</time>
      </trkpt>
      <trkpt lat="43.0397" lon="-0.33959">
        <ele>1620.3</ele>
        <time>2026-02-07T14:50:36.000Z</time>
      </trkpt>
      <trkpt lat="43.0397" lon="-0.3396">
        <ele>1620.5</ele>
        <time>2026-02-07T14:50:39.000Z</time>
      </trkpt>
      <trkpt lat="43.03971" lon="-0.33961">
        <ele>1620.6</ele>
        <time>2026-02-07T14:50:42.000Z</time>
      </trkpt>
      <trkpt lat="43.0397" lon="-0.33962">
        <ele>1620.8</ele>
        <time>2026-02-07T14:50:45.000Z</time>
      </trkpt>
      <trkpt lat="43.0397" lon="-0.33962">
        <ele>1621</ele>
        <time>2026-02-07T14:50:48.000Z</time>
      </trkpt>
      <trkpt lat="43.03971" lon="-0.33962">
        <ele>1621.2</ele>
        <time>2026-02-07T14:50:51.000Z</time>
      </trkpt>
      <trkpt lat="43.03971" lon="-0.33962">
        <ele>1621.2</ele>
        <time>2026-02-07T14:50:52.000Z</time>
      </trkpt>
      <trkpt lat="43.03971" lon="-0.33963">
        <ele>1621.3</ele>
        <time>2026-02-07T14:50:53.000Z</time>
      </trkpt>
      <trkpt lat="43.03972" lon="-0.33963">
        <ele>1621.4</ele>
        <time>2026-02-07T14:50:54.000Z</time>
      </trkpt>
      <trkpt lat="43.03972" lon="-0.33963">
        <ele>1621.4</ele>
        <time>2026-02-07T14:50:55.000Z</time>
      </trkpt>
      <trkpt lat="43.03972" lon="-0.33964">
        <ele>1621.5</ele>
        <time>2026-02-07T14:50:56.000Z</time>
      </trkpt>
      <trkpt lat="43.03972" lon="-0.33964">
        <ele>1621.8</ele>
        <time>2026-02-07T14:50:59.000Z</time>
      </trkpt>
      <trkpt lat="43.03973" lon="-0.33965">
        <ele>1622.1</ele>
        <time>2026-02-07T14:51:02.000Z</time>
      </trkpt>
      <trkpt lat="43.03974" lon="-0.33965">
        <ele>1622.3</ele>
        <time>2026-02-07T14:51:05.000Z</time>
      </trkpt>
      <trkpt lat="43.03974" lon="-0.33966">
        <ele>1622.6</ele>
        <time>2026-02-07T14:51:08.000Z</time>
      </trkpt>
      <trkpt lat="43.03975" lon="-0.33967">
        <ele>1622.8</ele>
        <time>2026-02-07T14:51:11.000Z</time>
      </trkpt>
      <trkpt lat="43.03975" lon="-0.33967">
        <ele>1623.1</ele>
        <time>2026-02-07T14:51:14.000Z</time>
      </trkpt>
      <trkpt lat="43.03976" lon="-0.33968">
        <ele>1623.4</ele>
        <time>2026-02-07T14:51:17.000Z</time>
      </trkpt>
      <trkpt lat="43.03976" lon="-0.33968">
        <ele>1623.7</ele>
        <time>2026-02-07T14:51:20.000Z</time>
      </trkpt>
      <trkpt lat="43.03976" lon="-0.33967">
        <ele>1624</ele>
        <time>2026-02-07T14:51:23.000Z</time>
      </trkpt>
      <trkpt lat="43.03976" lon="-0.33966">
        <ele>1624.1</ele>
        <time>2026-02-07T14:51:26.000Z</time>
      </trkpt>
      <trkpt lat="43.03976" lon="-0.33966">
        <ele>1624.4</ele>
        <time>2026-02-07T14:51:29.000Z</time>
      </trkpt>
      <trkpt lat="43.03976" lon="-0.33966">
        <ele>1624.5</ele>
        <time>2026-02-07T14:51:32.000Z</time>
      </trkpt>
      <trkpt lat="43.03977" lon="-0.33965">
        <ele>1624.8</ele>
        <time>2026-02-07T14:51:35.000Z</time>
      </trkpt>
      <trkpt lat="43.03977" lon="-0.33965">
        <ele>1625</ele>
        <time>2026-02-07T14:51:38.000Z</time>
      </trkpt>
      <trkpt lat="43.03978" lon="-0.33966">
        <ele>1625.3</ele>
        <time>2026-02-07T14:51:41.000Z</time>
      </trkpt>
      <trkpt lat="43.03979" lon="-0.33967">
        <ele>1625.7</ele>
        <time>2026-02-07T14:51:44.000Z</time>
      </trkpt>
      <trkpt lat="43.03979" lon="-0.33968">
        <ele>1626</ele>
        <time>2026-02-07T14:51:47.000Z</time>
      </trkpt>
      <trkpt lat="43.03979" lon="-0.33968">
        <ele>1626.1</ele>
        <time>2026-02-07T14:51:48.000Z</time>
      </trkpt>
      <trkpt lat="43.03979" lon="-0.33968">
        <ele>1626.2</ele>
        <time>2026-02-07T14:51:49.000Z</time>
      </trkpt>
      <trkpt lat="43.03979" lon="-0.33968">
        <ele>1626.3</ele>
        <time>2026-02-07T14:51:50.000Z</time>
      </trkpt>
      <trkpt lat="43.03979" lon="-0.33968">
        <ele>1626.4</ele>
        <time>2026-02-07T14:51:51.000Z</time>
      </trkpt>
      <trkpt lat="43.03979" lon="-0.33969">
        <ele>1626.6</ele>
        <time>2026-02-07T14:51:54.000Z</time>
      </trkpt>
      <trkpt lat="43.03979" lon="-0.3397">
        <ele>1626.8</ele>
        <time>2026-02-07T14:51:57.000Z</time>
      </trkpt>
      <trkpt lat="43.0398" lon="-0.33971">
        <ele>1627</ele>
        <time>2026-02-07T14:52:00.000Z</time>
      </trkpt>
      <trkpt lat="43.03981" lon="-0.33971">
        <ele>1627.3</ele>
        <time>2026-02-07T14:52:03.000Z</time>
      </trkpt>
      <trkpt lat="43.03983" lon="-0.33972">
        <ele>1627.5</ele>
        <time>2026-02-07T14:52:06.000Z</time>
      </trkpt>
      <trkpt lat="43.03983" lon="-0.33972">
        <ele>1627.8</ele>
        <time>2026-02-07T14:52:09.000Z</time>
      </trkpt>
      <trkpt lat="43.03983" lon="-0.33972">
        <ele>1627.9</ele>
        <time>2026-02-07T14:52:10.000Z</time>
      </trkpt>
      <trkpt lat="43.03983" lon="-0.33972">
        <ele>1628</ele>
        <time>2026-02-07T14:52:11.000Z</time>
      </trkpt>
      <trkpt lat="43.03983" lon="-0.33972">
        <ele>1628</ele>
        <time>2026-02-07T14:52:12.000Z</time>
      </trkpt>
      <trkpt lat="43.03983" lon="-0.33972">
        <ele>1628.1</ele>
        <time>2026-02-07T14:52:13.000Z</time>
      </trkpt>
      <trkpt lat="43.03983" lon="-0.33973">
        <ele>1628.3</ele>
        <time>2026-02-07T14:52:16.000Z</time>
      </trkpt>
      <trkpt lat="43.03983" lon="-0.33974">
        <ele>1628.6</ele>
        <time>2026-02-07T14:52:19.000Z</time>
      </trkpt>
      <trkpt lat="43.03984" lon="-0.33973">
        <ele>1629</ele>
        <time>2026-02-07T14:52:22.000Z</time>
      </trkpt>
      <trkpt lat="43.03985" lon="-0.33974">
        <ele>1629.4</ele>
        <time>2026-02-07T14:52:25.000Z</time>
      </trkpt>
      <trkpt lat="43.03985" lon="-0.33974">
        <ele>1629.8</ele>
        <time>2026-02-07T14:52:28.000Z</time>
      </trkpt>
      <trkpt lat="43.03986" lon="-0.33975">
        <ele>1630.2</ele>
        <time>2026-02-07T14:52:31.000Z</time>
      </trkpt>
      <trkpt lat="43.03987" lon="-0.33976">
        <ele>1630.5</ele>
        <time>2026-02-07T14:52:34.000Z</time>
      </trkpt>
      <trkpt lat="43.03987" lon="-0.33976">
        <ele>1630.6</ele>
        <time>2026-02-07T14:52:35.000Z</time>
      </trkpt>
      <trkpt lat="43.03987" lon="-0.33976">
        <ele>1630.7</ele>
        <time>2026-02-07T14:52:36.000Z</time>
      </trkpt>
      <trkpt lat="43.03987" lon="-0.33976">
        <ele>1630.7</ele>
        <time>2026-02-07T14:52:37.000Z</time>
      </trkpt>
      <trkpt lat="43.03987" lon="-0.33977">
        <ele>1630.8</ele>
        <time>2026-02-07T14:52:38.000Z</time>
      </trkpt>
      <trkpt lat="43.03987" lon="-0.33977">
        <ele>1630.8</ele>
        <time>2026-02-07T14:52:39.000Z</time>
      </trkpt>
      <trkpt lat="43.03989" lon="-0.33979">
        <ele>1631</ele>
        <time>2026-02-07T14:52:42.000Z</time>
      </trkpt>
      <trkpt lat="43.0399" lon="-0.3398">
        <ele>1631.2</ele>
        <time>2026-02-07T14:52:45.000Z</time>
      </trkpt>
      <trkpt lat="43.0399" lon="-0.33981">
        <ele>1631.3</ele>
        <time>2026-02-07T14:52:48.000Z</time>
      </trkpt>
      <trkpt lat="43.0399" lon="-0.33981">
        <ele>1631.4</ele>
        <time>2026-02-07T14:52:51.000Z</time>
      </trkpt>
      <trkpt lat="43.0399" lon="-0.33982">
        <ele>1631.5</ele>
        <time>2026-02-07T14:52:54.000Z</time>
      </trkpt>
      <trkpt lat="43.03989" lon="-0.33982">
        <ele>1631.6</ele>
        <time>2026-02-07T14:52:57.000Z</time>
      </trkpt>
      <trkpt lat="43.0399" lon="-0.33983">
        <ele>1631.6</ele>
        <time>2026-02-07T14:53:00.000Z</time>
      </trkpt>
      <trkpt lat="43.03989" lon="-0.33985">
        <ele>1631.6</ele>
        <time>2026-02-07T14:53:03.000Z</time>
      </trkpt>
      <trkpt lat="43.03988" lon="-0.33986">
        <ele>1631.6</ele>
        <time>2026-02-07T14:53:06.000Z</time>
      </trkpt>
      <trkpt lat="43.03987" lon="-0.33988">
        <ele>1631.6</ele>
        <time>2026-02-07T14:53:09.000Z</time>
      </trkpt>
      <trkpt lat="43.03986" lon="-0.33989">
        <ele>1631.6</ele>
        <time>2026-02-07T14:53:12.000Z</time>
      </trkpt>
      <trkpt lat="43.03986" lon="-0.3399">
        <ele>1631.6</ele>
        <time>2026-02-07T14:53:15.000Z</time>
      </trkpt>
      <trkpt lat="43.03986" lon="-0.3399">
        <ele>1631.6</ele>
        <time>2026-02-07T14:53:18.000Z</time>
      </trkpt>
      <trkpt lat="43.03986" lon="-0.3399">
        <ele>1631.6</ele>
        <time>2026-02-07T14:53:19.000Z</time>
      </trkpt>
      <trkpt lat="43.03986" lon="-0.3399">
        <ele>1631.6</ele>
        <time>2026-02-07T14:53:20.000Z</time>
      </trkpt>
      <trkpt lat="43.03986" lon="-0.3399">
        <ele>1631.6</ele>
        <time>2026-02-07T14:53:21.000Z</time>
      </trkpt>
      <trkpt lat="43.03986" lon="-0.3399">
        <ele>1631.6</ele>
        <time>2026-02-07T14:53:24.000Z</time>
      </trkpt>
      <trkpt lat="43.03986" lon="-0.3399">
        <ele>1631.6</ele>
        <time>2026-02-07T14:53:27.000Z</time>
      </trkpt>
      <trkpt lat="43.03986" lon="-0.3399">
        <ele>1631.6</ele>
        <time>2026-02-07T14:53:28.000Z</time>
      </trkpt>
      <trkpt lat="43.03986" lon="-0.3399">
        <ele>1631.6</ele>
        <time>2026-02-07T14:53:29.000Z</time>
      </trkpt>
      <trkpt lat="43.03986" lon="-0.3399">
        <ele>1631.6</ele>
        <time>2026-02-07T14:53:30.000Z</time>
      </trkpt>
      <trkpt lat="43.03986" lon="-0.3399">
        <ele>1631.6</ele>
        <time>2026-02-07T14:53:31.000Z</time>
      </trkpt>
      <trkpt lat="43.03986" lon="-0.3399">
        <ele>1631.6</ele>
        <time>2026-02-07T14:53:32.000Z</time>
      </trkpt>
      <trkpt lat="43.03986" lon="-0.3399">
        <ele>1631.6</ele>
        <time>2026-02-07T14:53:35.000Z</time>
      </trkpt>
      <trkpt lat="43.03986" lon="-0.3399">
        <ele>1631.6</ele>
        <time>2026-02-07T14:53:38.000Z</time>
      </trkpt>
      <trkpt lat="43.03986" lon="-0.33991">
        <ele>1631.6</ele>
        <time>2026-02-07T14:53:39.000Z</time>
      </trkpt>
      <trkpt lat="43.03986" lon="-0.33991">
        <ele>1631.6</ele>
        <time>2026-02-07T14:53:40.000Z</time>
      </trkpt>
      <trkpt lat="43.03986" lon="-0.33991">
        <ele>1631.6</ele>
        <time>2026-02-07T14:53:41.000Z</time>
      </trkpt>
      <trkpt lat="43.03987" lon="-0.33992">
        <ele>1631.7</ele>
        <time>2026-02-07T14:53:44.000Z</time>
      </trkpt>
      <trkpt lat="43.03988" lon="-0.33993">
        <ele>1631.8</ele>
        <time>2026-02-07T14:53:47.000Z</time>
      </trkpt>
      <trkpt lat="43.0399" lon="-0.33994">
        <ele>1631.9</ele>
        <time>2026-02-07T14:53:50.000Z</time>
      </trkpt>
      <trkpt lat="43.03991" lon="-0.33995">
        <ele>1632</ele>
        <time>2026-02-07T14:53:53.000Z</time>
      </trkpt>
      <trkpt lat="43.03991" lon="-0.33996">
        <ele>1632.2</ele>
        <time>2026-02-07T14:53:56.000Z</time>
      </trkpt>
      <trkpt lat="43.03992" lon="-0.33996">
        <ele>1632.5</ele>
        <time>2026-02-07T14:53:59.000Z</time>
      </trkpt>
      <trkpt lat="43.03993" lon="-0.33998">
        <ele>1632.9</ele>
        <time>2026-02-07T14:54:02.000Z</time>
      </trkpt>
      <trkpt lat="43.03993" lon="-0.33998">
        <ele>1633.2</ele>
        <time>2026-02-07T14:54:05.000Z</time>
      </trkpt>
      <trkpt lat="43.03994" lon="-0.34">
        <ele>1633.6</ele>
        <time>2026-02-07T14:54:08.000Z</time>
      </trkpt>
      <trkpt lat="43.03994" lon="-0.34001">
        <ele>1634</ele>
        <time>2026-02-07T14:54:11.000Z</time>
      </trkpt>
      <trkpt lat="43.03995" lon="-0.34002">
        <ele>1634.4</ele>
        <time>2026-02-07T14:54:14.000Z</time>
      </trkpt>
      <trkpt lat="43.03994" lon="-0.34003">
        <ele>1634.9</ele>
        <time>2026-02-07T14:54:17.000Z</time>
      </trkpt>
      <trkpt lat="43.03995" lon="-0.34004">
        <ele>1635.5</ele>
        <time>2026-02-07T14:54:20.000Z</time>
      </trkpt>
      <trkpt lat="43.03996" lon="-0.34006">
        <ele>1636</ele>
        <time>2026-02-07T14:54:23.000Z</time>
      </trkpt>
      <trkpt lat="43.03996" lon="-0.34008">
        <ele>1636.4</ele>
        <time>2026-02-07T14:54:26.000Z</time>
      </trkpt>
      <trkpt lat="43.03997" lon="-0.34008">
        <ele>1636.7</ele>
        <time>2026-02-07T14:54:29.000Z</time>
      </trkpt>
      <trkpt lat="43.03997" lon="-0.3401">
        <ele>1637</ele>
        <time>2026-02-07T14:54:32.000Z</time>
      </trkpt>
      <trkpt lat="43.03997" lon="-0.3401">
        <ele>1637.3</ele>
        <time>2026-02-07T14:54:35.000Z</time>
      </trkpt>
      <trkpt lat="43.03998" lon="-0.3401">
        <ele>1637.6</ele>
        <time>2026-02-07T14:54:38.000Z</time>
      </trkpt>
      <trkpt lat="43.03998" lon="-0.3401">
        <ele>1637.6</ele>
        <time>2026-02-07T14:54:39.000Z</time>
      </trkpt>
      <trkpt lat="43.03998" lon="-0.3401">
        <ele>1637.7</ele>
        <time>2026-02-07T14:54:40.000Z</time>
      </trkpt>
      <trkpt lat="43.03998" lon="-0.3401">
        <ele>1637.7</ele>
        <time>2026-02-07T14:54:41.000Z</time>
      </trkpt>
      <trkpt lat="43.03998" lon="-0.3401">
        <ele>1637.8</ele>
        <time>2026-02-07T14:54:44.000Z</time>
      </trkpt>
      <trkpt lat="43.03998" lon="-0.3401">
        <ele>1637.8</ele>
        <time>2026-02-07T14:54:45.000Z</time>
      </trkpt>
      <trkpt lat="43.03998" lon="-0.3401">
        <ele>1637.9</ele>
        <time>2026-02-07T14:54:46.000Z</time>
      </trkpt>
      <trkpt lat="43.03998" lon="-0.3401">
        <ele>1638.1</ele>
        <time>2026-02-07T14:54:49.000Z</time>
      </trkpt>
      <trkpt lat="43.03999" lon="-0.3401">
        <ele>1638.2</ele>
        <time>2026-02-07T14:54:52.000Z</time>
      </trkpt>
      <trkpt lat="43.03999" lon="-0.34011">
        <ele>1638.5</ele>
        <time>2026-02-07T14:54:55.000Z</time>
      </trkpt>
      <trkpt lat="43.04" lon="-0.34011">
        <ele>1638.9</ele>
        <time>2026-02-07T14:54:58.000Z</time>
      </trkpt>
      <trkpt lat="43.04001" lon="-0.34011">
        <ele>1639.3</ele>
        <time>2026-02-07T14:55:01.000Z</time>
      </trkpt>
      <trkpt lat="43.04001" lon="-0.34011">
        <ele>1639.7</ele>
        <time>2026-02-07T14:55:04.000Z</time>
      </trkpt>
      <trkpt lat="43.04002" lon="-0.34011">
        <ele>1640</ele>
        <time>2026-02-07T14:55:07.000Z</time>
      </trkpt>
      <trkpt lat="43.04002" lon="-0.34011">
        <ele>1640.5</ele>
        <time>2026-02-07T14:55:10.000Z</time>
      </trkpt>
      <trkpt lat="43.04002" lon="-0.34011">
        <ele>1641</ele>
        <time>2026-02-07T14:55:13.000Z</time>
      </trkpt>
      <trkpt lat="43.04003" lon="-0.34012">
        <ele>1641.4</ele>
        <time>2026-02-07T14:55:16.000Z</time>
      </trkpt>
      <trkpt lat="43.04003" lon="-0.34012">
        <ele>1641.8</ele>
        <time>2026-02-07T14:55:19.000Z</time>
      </trkpt>
      <trkpt lat="43.04004" lon="-0.34012">
        <ele>1642.4</ele>
        <time>2026-02-07T14:55:22.000Z</time>
      </trkpt>
      <trkpt lat="43.04005" lon="-0.34014">
        <ele>1642.7</ele>
        <time>2026-02-07T14:55:25.000Z</time>
      </trkpt>
      <trkpt lat="43.04005" lon="-0.34014">
        <ele>1643</ele>
        <time>2026-02-07T14:55:28.000Z</time>
      </trkpt>
      <trkpt lat="43.04006" lon="-0.34015">
        <ele>1643.4</ele>
        <time>2026-02-07T14:55:31.000Z</time>
      </trkpt>
      <trkpt lat="43.04006" lon="-0.34015">
        <ele>1643.7</ele>
        <time>2026-02-07T14:55:34.000Z</time>
      </trkpt>
      <trkpt lat="43.04006" lon="-0.34015">
        <ele>1643.7</ele>
        <time>2026-02-07T14:55:35.000Z</time>
      </trkpt>
      <trkpt lat="43.04006" lon="-0.34015">
        <ele>1643.8</ele>
        <time>2026-02-07T14:55:36.000Z</time>
      </trkpt>
      <trkpt lat="43.04006" lon="-0.34015">
        <ele>1643.9</ele>
        <time>2026-02-07T14:55:39.000Z</time>
      </trkpt>
      <trkpt lat="43.04006" lon="-0.34015">
        <ele>1643.9</ele>
        <time>2026-02-07T14:55:42.000Z</time>
      </trkpt>
      <trkpt lat="43.04006" lon="-0.34015">
        <ele>1643.9</ele>
        <time>2026-02-07T14:55:43.000Z</time>
      </trkpt>
      <trkpt lat="43.04006" lon="-0.34015">
        <ele>1644</ele>
        <time>2026-02-07T14:55:46.000Z</time>
      </trkpt>
      <trkpt lat="43.04007" lon="-0.34016">
        <ele>1644.1</ele>
        <time>2026-02-07T14:55:49.000Z</time>
      </trkpt>
      <trkpt lat="43.04006" lon="-0.34016">
        <ele>1644.3</ele>
        <time>2026-02-07T14:55:52.000Z</time>
      </trkpt>
      <trkpt lat="43.04006" lon="-0.34016">
        <ele>1644.3</ele>
        <time>2026-02-07T14:55:53.000Z</time>
      </trkpt>
      <trkpt lat="43.04006" lon="-0.34016">
        <ele>1644.4</ele>
        <time>2026-02-07T14:55:54.000Z</time>
      </trkpt>
      <trkpt lat="43.04006" lon="-0.34016">
        <ele>1644.6</ele>
        <time>2026-02-07T14:55:57.000Z</time>
      </trkpt>
      <trkpt lat="43.04007" lon="-0.34016">
        <ele>1644.7</ele>
        <time>2026-02-07T14:56:00.000Z</time>
      </trkpt>
      <trkpt lat="43.04007" lon="-0.34017">
        <ele>1644.7</ele>
        <time>2026-02-07T14:56:01.000Z</time>
      </trkpt>
      <trkpt lat="43.04008" lon="-0.34017">
        <ele>1644.9</ele>
        <time>2026-02-07T14:56:04.000Z</time>
      </trkpt>
      <trkpt lat="43.04009" lon="-0.34017">
        <ele>1645</ele>
        <time>2026-02-07T14:56:07.000Z</time>
      </trkpt>
      <trkpt lat="43.0401" lon="-0.34017">
        <ele>1645.3</ele>
        <time>2026-02-07T14:56:10.000Z</time>
      </trkpt>
      <trkpt lat="43.0401" lon="-0.34017">
        <ele>1645.6</ele>
        <time>2026-02-07T14:56:13.000Z</time>
      </trkpt>
      <trkpt lat="43.0401" lon="-0.34017">
        <ele>1645.8</ele>
        <time>2026-02-07T14:56:16.000Z</time>
      </trkpt>
      <trkpt lat="43.04011" lon="-0.34017">
        <ele>1646.1</ele>
        <time>2026-02-07T14:56:19.000Z</time>
      </trkpt>
      <trkpt lat="43.04011" lon="-0.34017">
        <ele>1646.4</ele>
        <time>2026-02-07T14:56:22.000Z</time>
      </trkpt>
      <trkpt lat="43.04011" lon="-0.34017">
        <ele>1646.8</ele>
        <time>2026-02-07T14:56:25.000Z</time>
      </trkpt>
      <trkpt lat="43.04011" lon="-0.34017">
        <ele>1647</ele>
        <time>2026-02-07T14:56:27.000Z</time>
      </trkpt>
      <trkpt lat="43.04011" lon="-0.34017">
        <ele>1647.1</ele>
        <time>2026-02-07T14:56:28.000Z</time>
      </trkpt>
      <trkpt lat="43.04011" lon="-0.34017">
        <ele>1647.2</ele>
        <time>2026-02-07T14:56:29.000Z</time>
      </trkpt>
      <trkpt lat="43.04012" lon="-0.34017">
        <ele>1647.3</ele>
        <time>2026-02-07T14:56:30.000Z</time>
      </trkpt>
      <trkpt lat="43.04012" lon="-0.34017">
        <ele>1647.4</ele>
        <time>2026-02-07T14:56:31.000Z</time>
      </trkpt>
      <trkpt lat="43.04012" lon="-0.34018">
        <ele>1647.6</ele>
        <time>2026-02-07T14:56:34.000Z</time>
      </trkpt>
      <trkpt lat="43.04012" lon="-0.3402">
        <ele>1648</ele>
        <time>2026-02-07T14:56:37.000Z</time>
      </trkpt>
      <trkpt lat="43.04014" lon="-0.34021">
        <ele>1648.3</ele>
        <time>2026-02-07T14:56:40.000Z</time>
      </trkpt>
      <trkpt lat="43.04014" lon="-0.34022">
        <ele>1648.6</ele>
        <time>2026-02-07T14:56:43.000Z</time>
      </trkpt>
      <trkpt lat="43.04014" lon="-0.34022">
        <ele>1648.8</ele>
        <time>2026-02-07T14:56:46.000Z</time>
      </trkpt>
      <trkpt lat="43.04014" lon="-0.34022">
        <ele>1648.9</ele>
        <time>2026-02-07T14:56:49.000Z</time>
      </trkpt>
      <trkpt lat="43.04014" lon="-0.34022">
        <ele>1649</ele>
        <time>2026-02-07T14:56:50.000Z</time>
      </trkpt>
      <trkpt lat="43.04014" lon="-0.34022">
        <ele>1649</ele>
        <time>2026-02-07T14:56:51.000Z</time>
      </trkpt>
      <trkpt lat="43.04014" lon="-0.34022">
        <ele>1649</ele>
        <time>2026-02-07T14:56:54.000Z</time>
      </trkpt>
      <trkpt lat="43.04014" lon="-0.34022">
        <ele>1649</ele>
        <time>2026-02-07T14:56:55.000Z</time>
      </trkpt>
      <trkpt lat="43.04014" lon="-0.34022">
        <ele>1649.1</ele>
        <time>2026-02-07T14:56:56.000Z</time>
      </trkpt>
      <trkpt lat="43.04014" lon="-0.34022">
        <ele>1649.1</ele>
        <time>2026-02-07T14:56:59.000Z</time>
      </trkpt>
      <trkpt lat="43.04014" lon="-0.34022">
        <ele>1649.1</ele>
        <time>2026-02-07T14:57:00.000Z</time>
      </trkpt>
      <trkpt lat="43.04014" lon="-0.34022">
        <ele>1649.1</ele>
        <time>2026-02-07T14:57:01.000Z</time>
      </trkpt>
      <trkpt lat="43.04014" lon="-0.34021">
        <ele>1649.1</ele>
        <time>2026-02-07T14:57:04.000Z</time>
      </trkpt>
      <trkpt lat="43.04014" lon="-0.34021">
        <ele>1649.1</ele>
        <time>2026-02-07T14:57:07.000Z</time>
      </trkpt>
      <trkpt lat="43.04014" lon="-0.34022">
        <ele>1649.2</ele>
        <time>2026-02-07T14:57:08.000Z</time>
      </trkpt>
      <trkpt lat="43.04015" lon="-0.34022">
        <ele>1649.2</ele>
        <time>2026-02-07T14:57:11.000Z</time>
      </trkpt>
      <trkpt lat="43.04015" lon="-0.34021">
        <ele>1649.3</ele>
        <time>2026-02-07T14:57:14.000Z</time>
      </trkpt>
      <trkpt lat="43.04015" lon="-0.34021">
        <ele>1649.3</ele>
        <time>2026-02-07T14:57:17.000Z</time>
      </trkpt>
      <trkpt lat="43.04015" lon="-0.3402">
        <ele>1649.4</ele>
        <time>2026-02-07T14:57:20.000Z</time>
      </trkpt>
      <trkpt lat="43.04015" lon="-0.3402">
        <ele>1649.5</ele>
        <time>2026-02-07T14:57:23.000Z</time>
      </trkpt>
      <trkpt lat="43.04015" lon="-0.3402">
        <ele>1649.6</ele>
        <time>2026-02-07T14:57:24.000Z</time>
      </trkpt>
      <trkpt lat="43.04015" lon="-0.3402">
        <ele>1649.7</ele>
        <time>2026-02-07T14:57:27.000Z</time>
      </trkpt>
      <trkpt lat="43.04015" lon="-0.3402">
        <ele>1649.7</ele>
        <time>2026-02-07T14:57:30.000Z</time>
      </trkpt>
      <trkpt lat="43.04015" lon="-0.3402">
        <ele>1649.7</ele>
        <time>2026-02-07T14:57:31.000Z</time>
      </trkpt>
      <trkpt lat="43.04015" lon="-0.3402">
        <ele>1649.7</ele>
        <time>2026-02-07T14:57:32.000Z</time>
      </trkpt>
      <trkpt lat="43.04015" lon="-0.3402">
        <ele>1649.8</ele>
        <time>2026-02-07T14:57:35.000Z</time>
      </trkpt>
      <trkpt lat="43.04016" lon="-0.34019">
        <ele>1649.8</ele>
        <time>2026-02-07T14:57:38.000Z</time>
      </trkpt>
      <trkpt lat="43.04016" lon="-0.34017">
        <ele>1649.8</ele>
        <time>2026-02-07T14:57:41.000Z</time>
      </trkpt>
      <trkpt lat="43.04016" lon="-0.34015">
        <ele>1649.9</ele>
        <time>2026-02-07T14:57:44.000Z</time>
      </trkpt>
      <trkpt lat="43.04016" lon="-0.34014">
        <ele>1649.9</ele>
        <time>2026-02-07T14:57:47.000Z</time>
      </trkpt>
      <trkpt lat="43.04016" lon="-0.34014">
        <ele>1650</ele>
        <time>2026-02-07T14:57:50.000Z</time>
      </trkpt>
      <trkpt lat="43.04016" lon="-0.34014">
        <ele>1650</ele>
        <time>2026-02-07T14:57:53.000Z</time>
      </trkpt>
      <trkpt lat="43.04016" lon="-0.34014">
        <ele>1650</ele>
        <time>2026-02-07T14:57:54.000Z</time>
      </trkpt>
      <trkpt lat="43.04016" lon="-0.34014">
        <ele>1650</ele>
        <time>2026-02-07T14:57:55.000Z</time>
      </trkpt>
      <trkpt lat="43.04016" lon="-0.34013">
        <ele>1650</ele>
        <time>2026-02-07T14:57:56.000Z</time>
      </trkpt>
      <trkpt lat="43.04016" lon="-0.34012">
        <ele>1650.1</ele>
        <time>2026-02-07T14:57:57.000Z</time>
      </trkpt>
      <trkpt lat="43.04016" lon="-0.34012">
        <ele>1650.1</ele>
        <time>2026-02-07T14:57:58.000Z</time>
      </trkpt>
      <trkpt lat="43.04017" lon="-0.3401">
        <ele>1650.1</ele>
        <time>2026-02-07T14:58:01.000Z</time>
      </trkpt>
      <trkpt lat="43.04017" lon="-0.3401">
        <ele>1650.2</ele>
        <time>2026-02-07T14:58:04.000Z</time>
      </trkpt>
      <trkpt lat="43.04017" lon="-0.3401">
        <ele>1650.2</ele>
        <time>2026-02-07T14:58:07.000Z</time>
      </trkpt>
      <trkpt lat="43.04017" lon="-0.3401">
        <ele>1650.2</ele>
        <time>2026-02-07T14:58:08.000Z</time>
      </trkpt>
      <trkpt lat="43.04017" lon="-0.3401">
        <ele>1650.3</ele>
        <time>2026-02-07T14:58:11.000Z</time>
      </trkpt>
      <trkpt lat="43.04017" lon="-0.3401">
        <ele>1650.3</ele>
        <time>2026-02-07T14:58:14.000Z</time>
      </trkpt>
      <trkpt lat="43.04017" lon="-0.3401">
        <ele>1650.4</ele>
        <time>2026-02-07T14:58:17.000Z</time>
      </trkpt>
      <trkpt lat="43.04017" lon="-0.34009">
        <ele>1650.4</ele>
        <time>2026-02-07T14:58:18.000Z</time>
      </trkpt>
      <trkpt lat="43.04017" lon="-0.34009">
        <ele>1650.4</ele>
        <time>2026-02-07T14:58:21.000Z</time>
      </trkpt>
      <trkpt lat="43.04016" lon="-0.34009">
        <ele>1650.4</ele>
        <time>2026-02-07T14:58:24.000Z</time>
      </trkpt>
      <trkpt lat="43.04016" lon="-0.34009">
        <ele>1650.4</ele>
        <time>2026-02-07T14:58:25.000Z</time>
      </trkpt>
      <trkpt lat="43.04016" lon="-0.34009">
        <ele>1650.4</ele>
        <time>2026-02-07T14:58:26.000Z</time>
      </trkpt>
      <trkpt lat="43.04016" lon="-0.34009">
        <ele>1650.4</ele>
        <time>2026-02-07T14:58:29.000Z</time>
      </trkpt>
      <trkpt lat="43.04016" lon="-0.34009">
        <ele>1650.4</ele>
        <time>2026-02-07T14:58:32.000Z</time>
      </trkpt>
      <trkpt lat="43.04016" lon="-0.34009">
        <ele>1650.4</ele>
        <time>2026-02-07T14:58:33.000Z</time>
      </trkpt>
      <trkpt lat="43.04016" lon="-0.34009">
        <ele>1650.3</ele>
        <time>2026-02-07T14:58:36.000Z</time>
      </trkpt>
      <trkpt lat="43.04016" lon="-0.34009">
        <ele>1650.3</ele>
        <time>2026-02-07T14:58:39.000Z</time>
      </trkpt>
      <trkpt lat="43.04016" lon="-0.34009">
        <ele>1650.3</ele>
        <time>2026-02-07T14:58:40.000Z</time>
      </trkpt>
      <trkpt lat="43.04016" lon="-0.34009">
        <ele>1650.3</ele>
        <time>2026-02-07T14:58:41.000Z</time>
      </trkpt>
      <trkpt lat="43.04015" lon="-0.34009">
        <ele>1650.3</ele>
        <time>2026-02-07T14:58:44.000Z</time>
      </trkpt>
      <trkpt lat="43.04015" lon="-0.34009">
        <ele>1650.3</ele>
        <time>2026-02-07T14:58:47.000Z</time>
      </trkpt>
      <trkpt lat="43.04015" lon="-0.34009">
        <ele>1650.3</ele>
        <time>2026-02-07T14:58:48.000Z</time>
      </trkpt>
      <trkpt lat="43.04015" lon="-0.34009">
        <ele>1650.3</ele>
        <time>2026-02-07T14:58:49.000Z</time>
      </trkpt>
      <trkpt lat="43.04015" lon="-0.34009">
        <ele>1650.3</ele>
        <time>2026-02-07T14:58:50.000Z</time>
      </trkpt>
      <trkpt lat="43.04015" lon="-0.34009">
        <ele>1650.3</ele>
        <time>2026-02-07T14:58:51.000Z</time>
      </trkpt>
      <trkpt lat="43.04015" lon="-0.34009">
        <ele>1650.3</ele>
        <time>2026-02-07T14:58:52.000Z</time>
      </trkpt>
      <trkpt lat="43.04015" lon="-0.34008">
        <ele>1650.3</ele>
        <time>2026-02-07T14:58:53.000Z</time>
      </trkpt>
      <trkpt lat="43.04015" lon="-0.34008">
        <ele>1650.3</ele>
        <time>2026-02-07T14:58:54.000Z</time>
      </trkpt>
      <trkpt lat="43.04014" lon="-0.34007">
        <ele>1650.2</ele>
        <time>2026-02-07T14:58:57.000Z</time>
      </trkpt>
      <trkpt lat="43.04014" lon="-0.34007">
        <ele>1650.2</ele>
        <time>2026-02-07T14:58:59.000Z</time>
      </trkpt>
      <trkpt lat="43.04014" lon="-0.34007">
        <ele>1650.2</ele>
        <time>2026-02-07T14:59:00.000Z</time>
      </trkpt>
      <trkpt lat="43.04014" lon="-0.34007">
        <ele>1650.2</ele>
        <time>2026-02-07T14:59:01.000Z</time>
      </trkpt>
      <trkpt lat="43.04014" lon="-0.34007">
        <ele>1650.2</ele>
        <time>2026-02-07T14:59:04.000Z</time>
      </trkpt>
      <trkpt lat="43.04014" lon="-0.34007">
        <ele>1650.2</ele>
        <time>2026-02-07T14:59:07.000Z</time>
      </trkpt>
      <trkpt lat="43.04014" lon="-0.34007">
        <ele>1650.2</ele>
        <time>2026-02-07T14:59:08.000Z</time>
      </trkpt>
      <trkpt lat="43.04014" lon="-0.34007">
        <ele>1650.2</ele>
        <time>2026-02-07T14:59:09.000Z</time>
      </trkpt>
      <trkpt lat="43.04014" lon="-0.34007">
        <ele>1650.2</ele>
        <time>2026-02-07T14:59:10.000Z</time>
      </trkpt>
      <trkpt lat="43.04014" lon="-0.34007">
        <ele>1650.1</ele>
        <time>2026-02-07T14:59:11.000Z</time>
      </trkpt>
      <trkpt lat="43.04014" lon="-0.34007">
        <ele>1650.1</ele>
        <time>2026-02-07T14:59:14.000Z</time>
      </trkpt>
      <trkpt lat="43.04014" lon="-0.34007">
        <ele>1650.1</ele>
        <time>2026-02-07T14:59:17.000Z</time>
      </trkpt>
      <trkpt lat="43.04014" lon="-0.34007">
        <ele>1650.1</ele>
        <time>2026-02-07T14:59:20.000Z</time>
      </trkpt>
      <trkpt lat="43.04014" lon="-0.34007">
        <ele>1650.1</ele>
        <time>2026-02-07T14:59:23.000Z</time>
      </trkpt>
      <trkpt lat="43.04014" lon="-0.34007">
        <ele>1650.1</ele>
        <time>2026-02-07T14:59:24.000Z</time>
      </trkpt>
      <trkpt lat="43.04013" lon="-0.34006">
        <ele>1650</ele>
        <time>2026-02-07T14:59:27.000Z</time>
      </trkpt>
      <trkpt lat="43.04012" lon="-0.34006">
        <ele>1649.9</ele>
        <time>2026-02-07T14:59:30.000Z</time>
      </trkpt>
      <trkpt lat="43.04012" lon="-0.34006">
        <ele>1649.9</ele>
        <time>2026-02-07T14:59:33.000Z</time>
      </trkpt>
      <trkpt lat="43.04013" lon="-0.34005">
        <ele>1649.8</ele>
        <time>2026-02-07T14:59:36.000Z</time>
      </trkpt>
      <trkpt lat="43.04013" lon="-0.34005">
        <ele>1649.7</ele>
        <time>2026-02-07T14:59:39.000Z</time>
      </trkpt>
      <trkpt lat="43.04013" lon="-0.34005">
        <ele>1649.7</ele>
        <time>2026-02-07T14:59:42.000Z</time>
      </trkpt>
      <trkpt lat="43.04013" lon="-0.34005">
        <ele>1649.7</ele>
        <time>2026-02-07T14:59:45.000Z</time>
      </trkpt>
      <trkpt lat="43.04013" lon="-0.34005">
        <ele>1649.7</ele>
        <time>2026-02-07T14:59:48.000Z</time>
      </trkpt>
      <trkpt lat="43.04014" lon="-0.34004">
        <ele>1649.7</ele>
        <time>2026-02-07T14:59:51.000Z</time>
      </trkpt>
      <trkpt lat="43.04014" lon="-0.34004">
        <ele>1649.7</ele>
        <time>2026-02-07T14:59:54.000Z</time>
      </trkpt>
      <trkpt lat="43.04014" lon="-0.34004">
        <ele>1649.8</ele>
        <time>2026-02-07T14:59:57.000Z</time>
      </trkpt>
      <trkpt lat="43.04014" lon="-0.34004">
        <ele>1649.8</ele>
        <time>2026-02-07T15:00:00.000Z</time>
      </trkpt>
      <trkpt lat="43.04014" lon="-0.34004">
        <ele>1649.9</ele>
        <time>2026-02-07T15:00:03.000Z</time>
      </trkpt>
      <trkpt lat="43.04014" lon="-0.34004">
        <ele>1649.9</ele>
        <time>2026-02-07T15:00:06.000Z</time>
      </trkpt>
      <trkpt lat="43.04014" lon="-0.34004">
        <ele>1650</ele>
        <time>2026-02-07T15:00:09.000Z</time>
      </trkpt>
      <trkpt lat="43.04014" lon="-0.34004">
        <ele>1650</ele>
        <time>2026-02-07T15:00:12.000Z</time>
      </trkpt>
      <trkpt lat="43.04014" lon="-0.34004">
        <ele>1650</ele>
        <time>2026-02-07T15:00:15.000Z</time>
      </trkpt>
      <trkpt lat="43.04014" lon="-0.34004">
        <ele>1650.1</ele>
        <time>2026-02-07T15:00:18.000Z</time>
      </trkpt>
      <trkpt lat="43.04014" lon="-0.34004">
        <ele>1650.1</ele>
        <time>2026-02-07T15:00:19.000Z</time>
      </trkpt>
      <trkpt lat="43.04014" lon="-0.34004">
        <ele>1650.1</ele>
        <time>2026-02-07T15:00:20.000Z</time>
      </trkpt>
      <trkpt lat="43.04014" lon="-0.34004">
        <ele>1650.1</ele>
        <time>2026-02-07T15:00:21.000Z</time>
      </trkpt>
      <trkpt lat="43.04014" lon="-0.34004">
        <ele>1650.1</ele>
        <time>2026-02-07T15:00:24.000Z</time>
      </trkpt>
      <trkpt lat="43.04014" lon="-0.34004">
        <ele>1650.2</ele>
        <time>2026-02-07T15:00:27.000Z</time>
      </trkpt>
      <trkpt lat="43.04014" lon="-0.34004">
        <ele>1650.2</ele>
        <time>2026-02-07T15:00:28.000Z</time>
      </trkpt>
      <trkpt lat="43.04014" lon="-0.34004">
        <ele>1650.2</ele>
        <time>2026-02-07T15:00:29.000Z</time>
      </trkpt>
      <trkpt lat="43.04014" lon="-0.34004">
        <ele>1650.2</ele>
        <time>2026-02-07T15:00:30.000Z</time>
      </trkpt>
      <trkpt lat="43.04014" lon="-0.34004">
        <ele>1650.2</ele>
        <time>2026-02-07T15:00:31.000Z</time>
      </trkpt>
      <trkpt lat="43.04014" lon="-0.34004">
        <ele>1650.2</ele>
        <time>2026-02-07T15:00:34.000Z</time>
      </trkpt>
      <trkpt lat="43.04014" lon="-0.34004">
        <ele>1650.3</ele>
        <time>2026-02-07T15:00:37.000Z</time>
      </trkpt>
      <trkpt lat="43.04014" lon="-0.34003">
        <ele>1650.4</ele>
        <time>2026-02-07T15:00:40.000Z</time>
      </trkpt>
      <trkpt lat="43.04014" lon="-0.34003">
        <ele>1650.5</ele>
        <time>2026-02-07T15:00:43.000Z</time>
      </trkpt>
      <trkpt lat="43.04015" lon="-0.34003">
        <ele>1650.6</ele>
        <time>2026-02-07T15:00:46.000Z</time>
      </trkpt>
      <trkpt lat="43.04016" lon="-0.34002">
        <ele>1650.7</ele>
        <time>2026-02-07T15:00:49.000Z</time>
      </trkpt>
      <trkpt lat="43.04017" lon="-0.34001">
        <ele>1650.9</ele>
        <time>2026-02-07T15:00:52.000Z</time>
      </trkpt>
      <trkpt lat="43.04017" lon="-0.34001">
        <ele>1651.2</ele>
        <time>2026-02-07T15:00:55.000Z</time>
      </trkpt>
      <trkpt lat="43.04018" lon="-0.34001">
        <ele>1651.5</ele>
        <time>2026-02-07T15:00:58.000Z</time>
      </trkpt>
      <trkpt lat="43.0402" lon="-0.34001">
        <ele>1651.9</ele>
        <time>2026-02-07T15:01:01.000Z</time>
      </trkpt>
      <trkpt lat="43.0402" lon="-0.34001">
        <ele>1652.4</ele>
        <time>2026-02-07T15:01:04.000Z</time>
      </trkpt>
      <trkpt lat="43.0402" lon="-0.33999">
        <ele>1652.7</ele>
        <time>2026-02-07T15:01:07.000Z</time>
      </trkpt>
      <trkpt lat="43.0402" lon="-0.33999">
        <ele>1652.9</ele>
        <time>2026-02-07T15:01:10.000Z</time>
      </trkpt>
      <trkpt lat="43.04021" lon="-0.33999">
        <ele>1653.2</ele>
        <time>2026-02-07T15:01:13.000Z</time>
      </trkpt>
      <trkpt lat="43.04022" lon="-0.33998">
        <ele>1653.5</ele>
        <time>2026-02-07T15:01:16.000Z</time>
      </trkpt>
      <trkpt lat="43.04022" lon="-0.33998">
        <ele>1653.7</ele>
        <time>2026-02-07T15:01:19.000Z</time>
      </trkpt>
      <trkpt lat="43.04023" lon="-0.33997">
        <ele>1654.1</ele>
        <time>2026-02-07T15:01:22.000Z</time>
      </trkpt>
      <trkpt lat="43.04023" lon="-0.33997">
        <ele>1654.6</ele>
        <time>2026-02-07T15:01:25.000Z</time>
      </trkpt>
      <trkpt lat="43.04023" lon="-0.33997">
        <ele>1655</ele>
        <time>2026-02-07T15:01:28.000Z</time>
      </trkpt>
      <trkpt lat="43.04023" lon="-0.33997">
        <ele>1655.1</ele>
        <time>2026-02-07T15:01:29.000Z</time>
      </trkpt>
      <trkpt lat="43.04023" lon="-0.33997">
        <ele>1655.2</ele>
        <time>2026-02-07T15:01:30.000Z</time>
      </trkpt>
      <trkpt lat="43.04023" lon="-0.33997">
        <ele>1655.3</ele>
        <time>2026-02-07T15:01:31.000Z</time>
      </trkpt>
      <trkpt lat="43.04023" lon="-0.33997">
        <ele>1655.5</ele>
        <time>2026-02-07T15:01:34.000Z</time>
      </trkpt>
      <trkpt lat="43.04023" lon="-0.33998">
        <ele>1655.8</ele>
        <time>2026-02-07T15:01:37.000Z</time>
      </trkpt>
      <trkpt lat="43.04023" lon="-0.33998">
        <ele>1655.8</ele>
        <time>2026-02-07T15:01:38.000Z</time>
      </trkpt>
      <trkpt lat="43.04023" lon="-0.33998">
        <ele>1655.9</ele>
        <time>2026-02-07T15:01:39.000Z</time>
      </trkpt>
      <trkpt lat="43.04023" lon="-0.33998">
        <ele>1656</ele>
        <time>2026-02-07T15:01:42.000Z</time>
      </trkpt>
      <trkpt lat="43.04024" lon="-0.33997">
        <ele>1656.1</ele>
        <time>2026-02-07T15:01:44.000Z</time>
      </trkpt>
      <trkpt lat="43.04024" lon="-0.33997">
        <ele>1656.1</ele>
        <time>2026-02-07T15:01:45.000Z</time>
      </trkpt>
      <trkpt lat="43.04024" lon="-0.33997">
        <ele>1656.1</ele>
        <time>2026-02-07T15:01:46.000Z</time>
      </trkpt>
      <trkpt lat="43.04025" lon="-0.33998">
        <ele>1656.3</ele>
        <time>2026-02-07T15:01:49.000Z</time>
      </trkpt>
      <trkpt lat="43.04026" lon="-0.34">
        <ele>1656.5</ele>
        <time>2026-02-07T15:01:52.000Z</time>
      </trkpt>
      <trkpt lat="43.04027" lon="-0.34001">
        <ele>1656.7</ele>
        <time>2026-02-07T15:01:55.000Z</time>
      </trkpt>
      <trkpt lat="43.04027" lon="-0.34001">
        <ele>1656.9</ele>
        <time>2026-02-07T15:01:58.000Z</time>
      </trkpt>
      <trkpt lat="43.04028" lon="-0.34001">
        <ele>1657.1</ele>
        <time>2026-02-07T15:02:01.000Z</time>
      </trkpt>
      <trkpt lat="43.04028" lon="-0.34001">
        <ele>1657.3</ele>
        <time>2026-02-07T15:02:04.000Z</time>
      </trkpt>
      <trkpt lat="43.04028" lon="-0.34001">
        <ele>1657.6</ele>
        <time>2026-02-07T15:02:07.000Z</time>
      </trkpt>
      <trkpt lat="43.04028" lon="-0.34001">
        <ele>1657.9</ele>
        <time>2026-02-07T15:02:10.000Z</time>
      </trkpt>
      <trkpt lat="43.04028" lon="-0.34">
        <ele>1658.1</ele>
        <time>2026-02-07T15:02:13.000Z</time>
      </trkpt>
      <trkpt lat="43.04028" lon="-0.34">
        <ele>1658.4</ele>
        <time>2026-02-07T15:02:16.000Z</time>
      </trkpt>
      <trkpt lat="43.04028" lon="-0.34">
        <ele>1658.6</ele>
        <time>2026-02-07T15:02:19.000Z</time>
      </trkpt>
      <trkpt lat="43.04029" lon="-0.33999">
        <ele>1658.8</ele>
        <time>2026-02-07T15:02:22.000Z</time>
      </trkpt>
      <trkpt lat="43.04029" lon="-0.33997">
        <ele>1659</ele>
        <time>2026-02-07T15:02:25.000Z</time>
      </trkpt>
      <trkpt lat="43.0403" lon="-0.33996">
        <ele>1659.2</ele>
        <time>2026-02-07T15:02:28.000Z</time>
      </trkpt>
      <trkpt lat="43.04029" lon="-0.33994">
        <ele>1659.4</ele>
        <time>2026-02-07T15:02:31.000Z</time>
      </trkpt>
      <trkpt lat="43.0403" lon="-0.33994">
        <ele>1659.6</ele>
        <time>2026-02-07T15:02:34.000Z</time>
      </trkpt>
      <trkpt lat="43.04031" lon="-0.33994">
        <ele>1660</ele>
        <time>2026-02-07T15:02:37.000Z</time>
      </trkpt>
      <trkpt lat="43.04032" lon="-0.33995">
        <ele>1660.3</ele>
        <time>2026-02-07T15:02:40.000Z</time>
      </trkpt>
      <trkpt lat="43.04033" lon="-0.33994">
        <ele>1660.7</ele>
        <time>2026-02-07T15:02:43.000Z</time>
      </trkpt>
      <trkpt lat="43.04033" lon="-0.33994">
        <ele>1661</ele>
        <time>2026-02-07T15:02:46.000Z</time>
      </trkpt>
      <trkpt lat="43.04033" lon="-0.33994">
        <ele>1661.4</ele>
        <time>2026-02-07T15:02:49.000Z</time>
      </trkpt>
      <trkpt lat="43.04034" lon="-0.33995">
        <ele>1661.6</ele>
        <time>2026-02-07T15:02:52.000Z</time>
      </trkpt>
      <trkpt lat="43.04034" lon="-0.33997">
        <ele>1661.8</ele>
        <time>2026-02-07T15:02:55.000Z</time>
      </trkpt>
      <trkpt lat="43.04035" lon="-0.33997">
        <ele>1662</ele>
        <time>2026-02-07T15:02:58.000Z</time>
      </trkpt>
      <trkpt lat="43.04036" lon="-0.33998">
        <ele>1662.2</ele>
        <time>2026-02-07T15:03:01.000Z</time>
      </trkpt>
      <trkpt lat="43.04037" lon="-0.33998">
        <ele>1662.3</ele>
        <time>2026-02-07T15:03:04.000Z</time>
      </trkpt>
      <trkpt lat="43.04037" lon="-0.33998">
        <ele>1662.3</ele>
        <time>2026-02-07T15:03:05.000Z</time>
      </trkpt>
      <trkpt lat="43.04037" lon="-0.33998">
        <ele>1662.4</ele>
        <time>2026-02-07T15:03:06.000Z</time>
      </trkpt>
      <trkpt lat="43.04037" lon="-0.33998">
        <ele>1662.4</ele>
        <time>2026-02-07T15:03:07.000Z</time>
      </trkpt>
      <trkpt lat="43.04037" lon="-0.33998">
        <ele>1662.4</ele>
        <time>2026-02-07T15:03:10.000Z</time>
      </trkpt>
      <trkpt lat="43.04037" lon="-0.33998">
        <ele>1662.4</ele>
        <time>2026-02-07T15:03:11.000Z</time>
      </trkpt>
      <trkpt lat="43.04037" lon="-0.33998">
        <ele>1662.4</ele>
        <time>2026-02-07T15:03:12.000Z</time>
      </trkpt>
      <trkpt lat="43.04037" lon="-0.33999">
        <ele>1662.4</ele>
        <time>2026-02-07T15:03:13.000Z</time>
      </trkpt>
      <trkpt lat="43.04037" lon="-0.33999">
        <ele>1662.4</ele>
        <time>2026-02-07T15:03:14.000Z</time>
      </trkpt>
      <trkpt lat="43.04037" lon="-0.33999">
        <ele>1662.4</ele>
        <time>2026-02-07T15:03:15.000Z</time>
      </trkpt>
      <trkpt lat="43.04037" lon="-0.34">
        <ele>1662.4</ele>
        <time>2026-02-07T15:03:16.000Z</time>
      </trkpt>
      <trkpt lat="43.04038" lon="-0.34">
        <ele>1662.5</ele>
        <time>2026-02-07T15:03:19.000Z</time>
      </trkpt>
      <trkpt lat="43.04039" lon="-0.34001">
        <ele>1662.6</ele>
        <time>2026-02-07T15:03:22.000Z</time>
      </trkpt>
      <trkpt lat="43.04039" lon="-0.34001">
        <ele>1662.7</ele>
        <time>2026-02-07T15:03:25.000Z</time>
      </trkpt>
      <trkpt lat="43.04039" lon="-0.34001">
        <ele>1662.8</ele>
        <time>2026-02-07T15:03:27.000Z</time>
      </trkpt>
      <trkpt lat="43.04039" lon="-0.34001">
        <ele>1662.8</ele>
        <time>2026-02-07T15:03:28.000Z</time>
      </trkpt>
      <trkpt lat="43.0404" lon="-0.34">
        <ele>1662.9</ele>
        <time>2026-02-07T15:03:31.000Z</time>
      </trkpt>
      <trkpt lat="43.0404" lon="-0.34">
        <ele>1663</ele>
        <time>2026-02-07T15:03:32.000Z</time>
      </trkpt>
      <trkpt lat="43.0404" lon="-0.34">
        <ele>1663</ele>
        <time>2026-02-07T15:03:33.000Z</time>
      </trkpt>
      <trkpt lat="43.0404" lon="-0.33999">
        <ele>1663.2</ele>
        <time>2026-02-07T15:03:36.000Z</time>
      </trkpt>
      <trkpt lat="43.0404" lon="-0.33999">
        <ele>1663.3</ele>
        <time>2026-02-07T15:03:39.000Z</time>
      </trkpt>
      <trkpt lat="43.0404" lon="-0.33999">
        <ele>1663.5</ele>
        <time>2026-02-07T15:03:42.000Z</time>
      </trkpt>
      <trkpt lat="43.0404" lon="-0.33998">
        <ele>1663.7</ele>
        <time>2026-02-07T15:03:45.000Z</time>
      </trkpt>
      <trkpt lat="43.0404" lon="-0.33997">
        <ele>1663.9</ele>
        <time>2026-02-07T15:03:48.000Z</time>
      </trkpt>
      <trkpt lat="43.0404" lon="-0.33996">
        <ele>1664.1</ele>
        <time>2026-02-07T15:03:51.000Z</time>
      </trkpt>
      <trkpt lat="43.04041" lon="-0.33996">
        <ele>1664.3</ele>
        <time>2026-02-07T15:03:54.000Z</time>
      </trkpt>
      <trkpt lat="43.04042" lon="-0.33995">
        <ele>1664.6</ele>
        <time>2026-02-07T15:03:57.000Z</time>
      </trkpt>
      <trkpt lat="43.04044" lon="-0.33995">
        <ele>1665</ele>
        <time>2026-02-07T15:04:00.000Z</time>
      </trkpt>
      <trkpt lat="43.04045" lon="-0.33995">
        <ele>1665.5</ele>
        <time>2026-02-07T15:04:03.000Z</time>
      </trkpt>
      <trkpt lat="43.04045" lon="-0.33996">
        <ele>1665.9</ele>
        <time>2026-02-07T15:04:06.000Z</time>
      </trkpt>
      <trkpt lat="43.04046" lon="-0.33998">
        <ele>1666.2</ele>
        <time>2026-02-07T15:04:09.000Z</time>
      </trkpt>
      <trkpt lat="43.04047" lon="-0.33998">
        <ele>1666.5</ele>
        <time>2026-02-07T15:04:12.000Z</time>
      </trkpt>
      <trkpt lat="43.04047" lon="-0.33999">
        <ele>1666.9</ele>
        <time>2026-02-07T15:04:15.000Z</time>
      </trkpt>
      <trkpt lat="43.04047" lon="-0.33999">
        <ele>1667.2</ele>
        <time>2026-02-07T15:04:18.000Z</time>
      </trkpt>
      <trkpt lat="43.04046" lon="-0.34">
        <ele>1667.5</ele>
        <time>2026-02-07T15:04:21.000Z</time>
      </trkpt>
      <trkpt lat="43.04047" lon="-0.34001">
        <ele>1667.9</ele>
        <time>2026-02-07T15:04:24.000Z</time>
      </trkpt>
      <trkpt lat="43.04048" lon="-0.34001">
        <ele>1668.2</ele>
        <time>2026-02-07T15:04:27.000Z</time>
      </trkpt>
      <trkpt lat="43.04049" lon="-0.34003">
        <ele>1668.6</ele>
        <time>2026-02-07T15:04:30.000Z</time>
      </trkpt>
      <trkpt lat="43.04049" lon="-0.34002">
        <ele>1669.1</ele>
        <time>2026-02-07T15:04:33.000Z</time>
      </trkpt>
      <trkpt lat="43.0405" lon="-0.34002">
        <ele>1669.5</ele>
        <time>2026-02-07T15:04:36.000Z</time>
      </trkpt>
      <trkpt lat="43.0405" lon="-0.34001">
        <ele>1669.7</ele>
        <time>2026-02-07T15:04:39.000Z</time>
      </trkpt>
      <trkpt lat="43.04051" lon="-0.34002">
        <ele>1670.1</ele>
        <time>2026-02-07T15:04:42.000Z</time>
      </trkpt>
      <trkpt lat="43.04051" lon="-0.34004">
        <ele>1670.4</ele>
        <time>2026-02-07T15:04:45.000Z</time>
      </trkpt>
      <trkpt lat="43.04052" lon="-0.34004">
        <ele>1670.7</ele>
        <time>2026-02-07T15:04:48.000Z</time>
      </trkpt>
      <trkpt lat="43.04052" lon="-0.34005">
        <ele>1671.2</ele>
        <time>2026-02-07T15:04:51.000Z</time>
      </trkpt>
      <trkpt lat="43.04054" lon="-0.34004">
        <ele>1671.7</ele>
        <time>2026-02-07T15:04:54.000Z</time>
      </trkpt>
      <trkpt lat="43.04054" lon="-0.34004">
        <ele>1672.1</ele>
        <time>2026-02-07T15:04:57.000Z</time>
      </trkpt>
      <trkpt lat="43.04055" lon="-0.34004">
        <ele>1672.2</ele>
        <time>2026-02-07T15:05:00.000Z</time>
      </trkpt>
      <trkpt lat="43.04054" lon="-0.34003">
        <ele>1672.4</ele>
        <time>2026-02-07T15:05:03.000Z</time>
      </trkpt>
      <trkpt lat="43.04054" lon="-0.34001">
        <ele>1672.6</ele>
        <time>2026-02-07T15:05:06.000Z</time>
      </trkpt>
      <trkpt lat="43.04054" lon="-0.34">
        <ele>1672.9</ele>
        <time>2026-02-07T15:05:09.000Z</time>
      </trkpt>
      <trkpt lat="43.04054" lon="-0.34">
        <ele>1672.9</ele>
        <time>2026-02-07T15:05:10.000Z</time>
      </trkpt>
      <trkpt lat="43.04054" lon="-0.34">
        <ele>1673</ele>
        <time>2026-02-07T15:05:11.000Z</time>
      </trkpt>
      <trkpt lat="43.04054" lon="-0.34">
        <ele>1673.1</ele>
        <time>2026-02-07T15:05:12.000Z</time>
      </trkpt>
      <trkpt lat="43.04054" lon="-0.34">
        <ele>1673.1</ele>
        <time>2026-02-07T15:05:13.000Z</time>
      </trkpt>
      <trkpt lat="43.04055" lon="-0.34">
        <ele>1673.2</ele>
        <time>2026-02-07T15:05:14.000Z</time>
      </trkpt>
      <trkpt lat="43.04056" lon="-0.34">
        <ele>1673.4</ele>
        <time>2026-02-07T15:05:17.000Z</time>
      </trkpt>
      <trkpt lat="43.04057" lon="-0.34">
        <ele>1673.7</ele>
        <time>2026-02-07T15:05:20.000Z</time>
      </trkpt>
      <trkpt lat="43.04058" lon="-0.34001">
        <ele>1674.2</ele>
        <time>2026-02-07T15:05:23.000Z</time>
      </trkpt>
      <trkpt lat="43.04059" lon="-0.34001">
        <ele>1674.6</ele>
        <time>2026-02-07T15:05:26.000Z</time>
      </trkpt>
      <trkpt lat="43.04061" lon="-0.34001">
        <ele>1674.9</ele>
        <time>2026-02-07T15:05:29.000Z</time>
      </trkpt>
      <trkpt lat="43.04062" lon="-0.34">
        <ele>1675.4</ele>
        <time>2026-02-07T15:05:32.000Z</time>
      </trkpt>
      <trkpt lat="43.04063" lon="-0.33998">
        <ele>1675.9</ele>
        <time>2026-02-07T15:05:35.000Z</time>
      </trkpt>
      <trkpt lat="43.04063" lon="-0.33997">
        <ele>1676.2</ele>
        <time>2026-02-07T15:05:38.000Z</time>
      </trkpt>
      <trkpt lat="43.04063" lon="-0.33997">
        <ele>1676.4</ele>
        <time>2026-02-07T15:05:40.000Z</time>
      </trkpt>
      <trkpt lat="43.04063" lon="-0.33997">
        <ele>1676.4</ele>
        <time>2026-02-07T15:05:41.000Z</time>
      </trkpt>
      <trkpt lat="43.04063" lon="-0.33997">
        <ele>1676.5</ele>
        <time>2026-02-07T15:05:42.000Z</time>
      </trkpt>
      <trkpt lat="43.04063" lon="-0.33997">
        <ele>1676.6</ele>
        <time>2026-02-07T15:05:45.000Z</time>
      </trkpt>
      <trkpt lat="43.04063" lon="-0.33997">
        <ele>1676.6</ele>
        <time>2026-02-07T15:05:48.000Z</time>
      </trkpt>
      <trkpt lat="43.04062" lon="-0.33997">
        <ele>1676.7</ele>
        <time>2026-02-07T15:05:51.000Z</time>
      </trkpt>
      <trkpt lat="43.04062" lon="-0.33998">
        <ele>1676.8</ele>
        <time>2026-02-07T15:05:54.000Z</time>
      </trkpt>
      <trkpt lat="43.04062" lon="-0.33998">
        <ele>1676.8</ele>
        <time>2026-02-07T15:05:57.000Z</time>
      </trkpt>
      <trkpt lat="43.04062" lon="-0.33998">
        <ele>1676.9</ele>
        <time>2026-02-07T15:06:00.000Z</time>
      </trkpt>
      <trkpt lat="43.04062" lon="-0.33998">
        <ele>1676.9</ele>
        <time>2026-02-07T15:06:03.000Z</time>
      </trkpt>
      <trkpt lat="43.04063" lon="-0.33999">
        <ele>1676.9</ele>
        <time>2026-02-07T15:06:06.000Z</time>
      </trkpt>
      <trkpt lat="43.04062" lon="-0.33999">
        <ele>1676.9</ele>
        <time>2026-02-07T15:06:07.000Z</time>
      </trkpt>
      <trkpt lat="43.04063" lon="-0.34">
        <ele>1676.9</ele>
        <time>2026-02-07T15:06:08.000Z</time>
      </trkpt>
      <trkpt lat="43.04063" lon="-0.34001">
        <ele>1676.9</ele>
        <time>2026-02-07T15:06:09.000Z</time>
      </trkpt>
      <trkpt lat="43.04063" lon="-0.34001">
        <ele>1676.8</ele>
        <time>2026-02-07T15:06:12.000Z</time>
      </trkpt>
      <trkpt lat="43.04063" lon="-0.34001">
        <ele>1676.8</ele>
        <time>2026-02-07T15:06:13.000Z</time>
      </trkpt>
      <trkpt lat="43.04063" lon="-0.34001">
        <ele>1676.8</ele>
        <time>2026-02-07T15:06:14.000Z</time>
      </trkpt>
      <trkpt lat="43.04063" lon="-0.34001">
        <ele>1676.8</ele>
        <time>2026-02-07T15:06:17.000Z</time>
      </trkpt>
      <trkpt lat="43.04063" lon="-0.34001">
        <ele>1676.8</ele>
        <time>2026-02-07T15:06:20.000Z</time>
      </trkpt>
      <trkpt lat="43.04063" lon="-0.34001">
        <ele>1676.8</ele>
        <time>2026-02-07T15:06:23.000Z</time>
      </trkpt>
      <trkpt lat="43.04063" lon="-0.34001">
        <ele>1676.8</ele>
        <time>2026-02-07T15:06:26.000Z</time>
      </trkpt>
      <trkpt lat="43.04063" lon="-0.34001">
        <ele>1676.8</ele>
        <time>2026-02-07T15:06:27.000Z</time>
      </trkpt>
      <trkpt lat="43.04063" lon="-0.34001">
        <ele>1676.8</ele>
        <time>2026-02-07T15:06:28.000Z</time>
      </trkpt>
      <trkpt lat="43.04063" lon="-0.34001">
        <ele>1676.8</ele>
        <time>2026-02-07T15:06:29.000Z</time>
      </trkpt>
      <trkpt lat="43.04063" lon="-0.34001">
        <ele>1676.8</ele>
        <time>2026-02-07T15:06:30.000Z</time>
      </trkpt>
      <trkpt lat="43.04063" lon="-0.34001">
        <ele>1676.8</ele>
        <time>2026-02-07T15:06:31.000Z</time>
      </trkpt>
      <trkpt lat="43.04063" lon="-0.34001">
        <ele>1676.8</ele>
        <time>2026-02-07T15:06:34.000Z</time>
      </trkpt>
      <trkpt lat="43.04063" lon="-0.34001">
        <ele>1676.8</ele>
        <time>2026-02-07T15:06:35.000Z</time>
      </trkpt>
      <trkpt lat="43.04063" lon="-0.34001">
        <ele>1676.8</ele>
        <time>2026-02-07T15:06:36.000Z</time>
      </trkpt>
      <trkpt lat="43.04063" lon="-0.34001">
        <ele>1676.8</ele>
        <time>2026-02-07T15:06:37.000Z</time>
      </trkpt>
      <trkpt lat="43.04063" lon="-0.34001">
        <ele>1676.8</ele>
        <time>2026-02-07T15:06:38.000Z</time>
      </trkpt>
      <trkpt lat="43.04063" lon="-0.34001">
        <ele>1676.8</ele>
        <time>2026-02-07T15:06:39.000Z</time>
      </trkpt>
      <trkpt lat="43.04063" lon="-0.34001">
        <ele>1676.8</ele>
        <time>2026-02-07T15:06:42.000Z</time>
      </trkpt>
      <trkpt lat="43.04063" lon="-0.34001">
        <ele>1676.8</ele>
        <time>2026-02-07T15:06:45.000Z</time>
      </trkpt>
      <trkpt lat="43.04063" lon="-0.34001">
        <ele>1676.8</ele>
        <time>2026-02-07T15:06:48.000Z</time>
      </trkpt>
      <trkpt lat="43.04063" lon="-0.34001">
        <ele>1676.7</ele>
        <time>2026-02-07T15:06:51.000Z</time>
      </trkpt>
      <trkpt lat="43.04063" lon="-0.34001">
        <ele>1676.7</ele>
        <time>2026-02-07T15:06:54.000Z</time>
      </trkpt>
      <trkpt lat="43.04063" lon="-0.34001">
        <ele>1676.7</ele>
        <time>2026-02-07T15:06:57.000Z</time>
      </trkpt>
      <trkpt lat="43.04063" lon="-0.34001">
        <ele>1676.7</ele>
        <time>2026-02-07T15:07:00.000Z</time>
      </trkpt>
      <trkpt lat="43.04063" lon="-0.34001">
        <ele>1676.7</ele>
        <time>2026-02-07T15:07:01.000Z</time>
      </trkpt>
      <trkpt lat="43.04063" lon="-0.34001">
        <ele>1676.7</ele>
        <time>2026-02-07T15:07:04.000Z</time>
      </trkpt>
      <trkpt lat="43.04063" lon="-0.34001">
        <ele>1676.7</ele>
        <time>2026-02-07T15:07:07.000Z</time>
      </trkpt>
      <trkpt lat="43.04063" lon="-0.34001">
        <ele>1676.7</ele>
        <time>2026-02-07T15:07:09.000Z</time>
      </trkpt>
      <trkpt lat="43.04063" lon="-0.34001">
        <ele>1676.7</ele>
        <time>2026-02-07T15:07:10.000Z</time>
      </trkpt>
      <trkpt lat="43.04063" lon="-0.34001">
        <ele>1676.7</ele>
        <time>2026-02-07T15:07:11.000Z</time>
      </trkpt>
      <trkpt lat="43.04063" lon="-0.34001">
        <ele>1676.7</ele>
        <time>2026-02-07T15:07:12.000Z</time>
      </trkpt>
      <trkpt lat="43.04063" lon="-0.34001">
        <ele>1676.7</ele>
        <time>2026-02-07T15:07:13.000Z</time>
      </trkpt>
      <trkpt lat="43.04063" lon="-0.34001">
        <ele>1676.7</ele>
        <time>2026-02-07T15:07:14.000Z</time>
      </trkpt>
      <trkpt lat="43.04063" lon="-0.34001">
        <ele>1676.7</ele>
        <time>2026-02-07T15:07:15.000Z</time>
      </trkpt>
      <trkpt lat="43.04063" lon="-0.34001">
        <ele>1676.7</ele>
        <time>2026-02-07T15:07:16.000Z</time>
      </trkpt>
      <trkpt lat="43.04063" lon="-0.34001">
        <ele>1676.7</ele>
        <time>2026-02-07T15:07:19.000Z</time>
      </trkpt>
      <trkpt lat="43.04063" lon="-0.34001">
        <ele>1676.6</ele>
        <time>2026-02-07T15:07:22.000Z</time>
      </trkpt>
      <trkpt lat="43.04063" lon="-0.34001">
        <ele>1676.7</ele>
        <time>2026-02-07T15:07:25.000Z</time>
      </trkpt>
      <trkpt lat="43.04063" lon="-0.34001">
        <ele>1676.7</ele>
        <time>2026-02-07T15:07:28.000Z</time>
      </trkpt>
      <trkpt lat="43.04063" lon="-0.34001">
        <ele>1676.7</ele>
        <time>2026-02-07T15:07:31.000Z</time>
      </trkpt>
      <trkpt lat="43.04063" lon="-0.34001">
        <ele>1676.7</ele>
        <time>2026-02-07T15:07:34.000Z</time>
      </trkpt>
      <trkpt lat="43.04063" lon="-0.34001">
        <ele>1676.8</ele>
        <time>2026-02-07T15:07:37.000Z</time>
      </trkpt>
      <trkpt lat="43.04063" lon="-0.34001">
        <ele>1676.9</ele>
        <time>2026-02-07T15:07:40.000Z</time>
      </trkpt>
      <trkpt lat="43.04063" lon="-0.34001">
        <ele>1677.1</ele>
        <time>2026-02-07T15:07:43.000Z</time>
      </trkpt>
      <trkpt lat="43.04063" lon="-0.34001">
        <ele>1677.2</ele>
        <time>2026-02-07T15:07:46.000Z</time>
      </trkpt>
      <trkpt lat="43.04063" lon="-0.34001">
        <ele>1677.4</ele>
        <time>2026-02-07T15:07:49.000Z</time>
      </trkpt>
      <trkpt lat="43.04063" lon="-0.34001">
        <ele>1677.5</ele>
        <time>2026-02-07T15:07:52.000Z</time>
      </trkpt>
      <trkpt lat="43.04063" lon="-0.34002">
        <ele>1677.7</ele>
        <time>2026-02-07T15:07:55.000Z</time>
      </trkpt>
      <trkpt lat="43.04063" lon="-0.34002">
        <ele>1677.8</ele>
        <time>2026-02-07T15:07:58.000Z</time>
      </trkpt>
      <trkpt lat="43.04063" lon="-0.34002">
        <ele>1677.9</ele>
        <time>2026-02-07T15:08:01.000Z</time>
      </trkpt>
      <trkpt lat="43.04063" lon="-0.34002">
        <ele>1678</ele>
        <time>2026-02-07T15:08:04.000Z</time>
      </trkpt>
      <trkpt lat="43.04063" lon="-0.34002">
        <ele>1678</ele>
        <time>2026-02-07T15:08:07.000Z</time>
      </trkpt>
      <trkpt lat="43.04063" lon="-0.34002">
        <ele>1678.1</ele>
        <time>2026-02-07T15:08:10.000Z</time>
      </trkpt>
      <trkpt lat="43.04063" lon="-0.34002">
        <ele>1678.1</ele>
        <time>2026-02-07T15:08:13.000Z</time>
      </trkpt>
      <trkpt lat="43.04063" lon="-0.34002">
        <ele>1678.1</ele>
        <time>2026-02-07T15:08:16.000Z</time>
      </trkpt>
      <trkpt lat="43.04063" lon="-0.34002">
        <ele>1678.2</ele>
        <time>2026-02-07T15:08:19.000Z</time>
      </trkpt>
      <trkpt lat="43.04063" lon="-0.34002">
        <ele>1678.2</ele>
        <time>2026-02-07T15:08:22.000Z</time>
      </trkpt>
      <trkpt lat="43.04063" lon="-0.34002">
        <ele>1678.2</ele>
        <time>2026-02-07T15:08:25.000Z</time>
      </trkpt>
      <trkpt lat="43.04063" lon="-0.34002">
        <ele>1678.2</ele>
        <time>2026-02-07T15:08:28.000Z</time>
      </trkpt>
      <trkpt lat="43.04063" lon="-0.34002">
        <ele>1678.2</ele>
        <time>2026-02-07T15:08:31.000Z</time>
      </trkpt>
      <trkpt lat="43.04063" lon="-0.34002">
        <ele>1678.2</ele>
        <time>2026-02-07T15:08:34.000Z</time>
      </trkpt>
      <trkpt lat="43.04063" lon="-0.34002">
        <ele>1678.3</ele>
        <time>2026-02-07T15:08:37.000Z</time>
      </trkpt>
      <trkpt lat="43.04063" lon="-0.34002">
        <ele>1678.3</ele>
        <time>2026-02-07T15:08:40.000Z</time>
      </trkpt>
      <trkpt lat="43.04063" lon="-0.34002">
        <ele>1678.3</ele>
        <time>2026-02-07T15:08:43.000Z</time>
      </trkpt>
      <trkpt lat="43.04063" lon="-0.34002">
        <ele>1678.3</ele>
        <time>2026-02-07T15:08:46.000Z</time>
      </trkpt>
      <trkpt lat="43.04063" lon="-0.34002">
        <ele>1678.3</ele>
        <time>2026-02-07T15:08:49.000Z</time>
      </trkpt>
      <trkpt lat="43.04063" lon="-0.34002">
        <ele>1678.3</ele>
        <time>2026-02-07T15:08:52.000Z</time>
      </trkpt>
      <trkpt lat="43.04063" lon="-0.34002">
        <ele>1678.3</ele>
        <time>2026-02-07T15:08:55.000Z</time>
      </trkpt>
      <trkpt lat="43.04063" lon="-0.34002">
        <ele>1678.3</ele>
        <time>2026-02-07T15:08:58.000Z</time>
      </trkpt>
      <trkpt lat="43.04063" lon="-0.34002">
        <ele>1678.3</ele>
        <time>2026-02-07T15:09:01.000Z</time>
      </trkpt>
      <trkpt lat="43.04063" lon="-0.34002">
        <ele>1678.3</ele>
        <time>2026-02-07T15:09:04.000Z</time>
      </trkpt>
      <trkpt lat="43.04063" lon="-0.34002">
        <ele>1678.3</ele>
        <time>2026-02-07T15:09:07.000Z</time>
      </trkpt>
      <trkpt lat="43.04063" lon="-0.34002">
        <ele>1678.3</ele>
        <time>2026-02-07T15:09:10.000Z</time>
      </trkpt>
      <trkpt lat="43.04063" lon="-0.34002">
        <ele>1678.3</ele>
        <time>2026-02-07T15:09:13.000Z</time>
      </trkpt>
      <trkpt lat="43.04063" lon="-0.34002">
        <ele>1678.3</ele>
        <time>2026-02-07T15:09:16.000Z</time>
      </trkpt>
      <trkpt lat="43.04063" lon="-0.34002">
        <ele>1678.3</ele>
        <time>2026-02-07T15:09:19.000Z</time>
      </trkpt>
      <trkpt lat="43.04063" lon="-0.34002">
        <ele>1678.3</ele>
        <time>2026-02-07T15:09:22.000Z</time>
      </trkpt>
      <trkpt lat="43.04063" lon="-0.34002">
        <ele>1678.3</ele>
        <time>2026-02-07T15:09:25.000Z</time>
      </trkpt>
      <trkpt lat="43.04063" lon="-0.34002">
        <ele>1678.3</ele>
        <time>2026-02-07T15:09:28.000Z</time>
      </trkpt>
      <trkpt lat="43.04063" lon="-0.34002">
        <ele>1678.3</ele>
        <time>2026-02-07T15:09:31.000Z</time>
      </trkpt>
      <trkpt lat="43.04063" lon="-0.34002">
        <ele>1678.3</ele>
        <time>2026-02-07T15:09:34.000Z</time>
      </trkpt>
      <trkpt lat="43.04063" lon="-0.34002">
        <ele>1678.2</ele>
        <time>2026-02-07T15:09:37.000Z</time>
      </trkpt>
      <trkpt lat="43.04063" lon="-0.34002">
        <ele>1678.2</ele>
        <time>2026-02-07T15:09:40.000Z</time>
      </trkpt>
      <trkpt lat="43.04063" lon="-0.34002">
        <ele>1678.2</ele>
        <time>2026-02-07T15:09:43.000Z</time>
      </trkpt>
      <trkpt lat="43.04063" lon="-0.34002">
        <ele>1678.2</ele>
        <time>2026-02-07T15:09:46.000Z</time>
      </trkpt>
      <trkpt lat="43.04063" lon="-0.34002">
        <ele>1678.2</ele>
        <time>2026-02-07T15:09:49.000Z</time>
      </trkpt>
      <trkpt lat="43.04063" lon="-0.34002">
        <ele>1678.2</ele>
        <time>2026-02-07T15:09:52.000Z</time>
      </trkpt>
      <trkpt lat="43.04063" lon="-0.34002">
        <ele>1678.1</ele>
        <time>2026-02-07T15:09:55.000Z</time>
      </trkpt>
      <trkpt lat="43.04063" lon="-0.34002">
        <ele>1678.1</ele>
        <time>2026-02-07T15:09:58.000Z</time>
      </trkpt>
      <trkpt lat="43.04063" lon="-0.34002">
        <ele>1678.1</ele>
        <time>2026-02-07T15:10:01.000Z</time>
      </trkpt>
      <trkpt lat="43.04063" lon="-0.34002">
        <ele>1678</ele>
        <time>2026-02-07T15:10:04.000Z</time>
      </trkpt>
      <trkpt lat="43.04063" lon="-0.34002">
        <ele>1678</ele>
        <time>2026-02-07T15:10:07.000Z</time>
      </trkpt>
      <trkpt lat="43.04063" lon="-0.34002">
        <ele>1678</ele>
        <time>2026-02-07T15:10:10.000Z</time>
      </trkpt>
      <trkpt lat="43.04063" lon="-0.34002">
        <ele>1678</ele>
        <time>2026-02-07T15:10:13.000Z</time>
      </trkpt>
      <trkpt lat="43.04063" lon="-0.34002">
        <ele>1678</ele>
        <time>2026-02-07T15:10:16.000Z</time>
      </trkpt>
      <trkpt lat="43.04063" lon="-0.34002">
        <ele>1677.9</ele>
        <time>2026-02-07T15:10:19.000Z</time>
      </trkpt>
      <trkpt lat="43.04063" lon="-0.34002">
        <ele>1677.9</ele>
        <time>2026-02-07T15:10:22.000Z</time>
      </trkpt>
      <trkpt lat="43.04063" lon="-0.34002">
        <ele>1677.9</ele>
        <time>2026-02-07T15:10:25.000Z</time>
      </trkpt>
      <trkpt lat="43.04063" lon="-0.34002">
        <ele>1677.8</ele>
        <time>2026-02-07T15:10:28.000Z</time>
      </trkpt>
      <trkpt lat="43.04063" lon="-0.34002">
        <ele>1677.8</ele>
        <time>2026-02-07T15:10:31.000Z</time>
      </trkpt>
      <trkpt lat="43.04063" lon="-0.34002">
        <ele>1677.8</ele>
        <time>2026-02-07T15:10:34.000Z</time>
      </trkpt>
      <trkpt lat="43.04063" lon="-0.34002">
        <ele>1677.8</ele>
        <time>2026-02-07T15:10:37.000Z</time>
      </trkpt>
      <trkpt lat="43.04063" lon="-0.34002">
        <ele>1677.8</ele>
        <time>2026-02-07T15:10:40.000Z</time>
      </trkpt>
      <trkpt lat="43.04063" lon="-0.34002">
        <ele>1677.8</ele>
        <time>2026-02-07T15:10:43.000Z</time>
      </trkpt>
      <trkpt lat="43.04063" lon="-0.34002">
        <ele>1677.8</ele>
        <time>2026-02-07T15:10:46.000Z</time>
      </trkpt>
      <trkpt lat="43.04063" lon="-0.34002">
        <ele>1677.7</ele>
        <time>2026-02-07T15:10:49.000Z</time>
      </trkpt>
      <trkpt lat="43.04063" lon="-0.34002">
        <ele>1677.7</ele>
        <time>2026-02-07T15:10:52.000Z</time>
      </trkpt>
      <trkpt lat="43.04063" lon="-0.34002">
        <ele>1677.7</ele>
        <time>2026-02-07T15:10:55.000Z</time>
      </trkpt>
      <trkpt lat="43.04063" lon="-0.34002">
        <ele>1677.7</ele>
        <time>2026-02-07T15:10:58.000Z</time>
      </trkpt>
      <trkpt lat="43.04063" lon="-0.34002">
        <ele>1677.7</ele>
        <time>2026-02-07T15:11:01.000Z</time>
      </trkpt>
      <trkpt lat="43.04063" lon="-0.34002">
        <ele>1677.7</ele>
        <time>2026-02-07T15:11:04.000Z</time>
      </trkpt>
      <trkpt lat="43.04063" lon="-0.34002">
        <ele>1677.7</ele>
        <time>2026-02-07T15:11:07.000Z</time>
      </trkpt>
      <trkpt lat="43.04062" lon="-0.34002">
        <ele>1677.7</ele>
        <time>2026-02-07T15:11:10.000Z</time>
      </trkpt>
      <trkpt lat="43.04062" lon="-0.34002">
        <ele>1677.6</ele>
        <time>2026-02-07T15:11:13.000Z</time>
      </trkpt>
      <trkpt lat="43.04062" lon="-0.34002">
        <ele>1677.6</ele>
        <time>2026-02-07T15:11:16.000Z</time>
      </trkpt>
      <trkpt lat="43.04062" lon="-0.34002">
        <ele>1677.6</ele>
        <time>2026-02-07T15:11:19.000Z</time>
      </trkpt>
      <trkpt lat="43.04062" lon="-0.34002">
        <ele>1677.6</ele>
        <time>2026-02-07T15:11:22.000Z</time>
      </trkpt>
      <trkpt lat="43.04062" lon="-0.34002">
        <ele>1677.6</ele>
        <time>2026-02-07T15:11:25.000Z</time>
      </trkpt>
      <trkpt lat="43.04062" lon="-0.34002">
        <ele>1677.6</ele>
        <time>2026-02-07T15:11:28.000Z</time>
      </trkpt>
      <trkpt lat="43.04062" lon="-0.34002">
        <ele>1677.6</ele>
        <time>2026-02-07T15:11:31.000Z</time>
      </trkpt>
      <trkpt lat="43.04062" lon="-0.34002">
        <ele>1677.6</ele>
        <time>2026-02-07T15:11:34.000Z</time>
      </trkpt>
      <trkpt lat="43.04062" lon="-0.34002">
        <ele>1677.6</ele>
        <time>2026-02-07T15:11:37.000Z</time>
      </trkpt>
      <trkpt lat="43.04062" lon="-0.34002">
        <ele>1677.5</ele>
        <time>2026-02-07T15:11:40.000Z</time>
      </trkpt>
      <trkpt lat="43.04062" lon="-0.34002">
        <ele>1677.5</ele>
        <time>2026-02-07T15:11:43.000Z</time>
      </trkpt>
      <trkpt lat="43.04062" lon="-0.34002">
        <ele>1677.5</ele>
        <time>2026-02-07T15:11:46.000Z</time>
      </trkpt>
      <trkpt lat="43.04062" lon="-0.34002">
        <ele>1677.5</ele>
        <time>2026-02-07T15:11:49.000Z</time>
      </trkpt>
      <trkpt lat="43.04062" lon="-0.34002">
        <ele>1677.5</ele>
        <time>2026-02-07T15:11:52.000Z</time>
      </trkpt>
      <trkpt lat="43.04062" lon="-0.34002">
        <ele>1677.5</ele>
        <time>2026-02-07T15:11:55.000Z</time>
      </trkpt>
      <trkpt lat="43.04062" lon="-0.34002">
        <ele>1677.5</ele>
        <time>2026-02-07T15:11:58.000Z</time>
      </trkpt>
      <trkpt lat="43.04062" lon="-0.34002">
        <ele>1677.5</ele>
        <time>2026-02-07T15:11:59.000Z</time>
      </trkpt>
      <trkpt lat="43.04062" lon="-0.34002">
        <ele>1677.5</ele>
        <time>2026-02-07T15:12:00.000Z</time>
      </trkpt>
      <trkpt lat="43.04062" lon="-0.34002">
        <ele>1677.5</ele>
        <time>2026-02-07T15:12:01.000Z</time>
      </trkpt>
      <trkpt lat="43.04062" lon="-0.34002">
        <ele>1677.4</ele>
        <time>2026-02-07T15:12:04.000Z</time>
      </trkpt>
      <trkpt lat="43.04062" lon="-0.34002">
        <ele>1677.4</ele>
        <time>2026-02-07T15:12:07.000Z</time>
      </trkpt>
      <trkpt lat="43.04062" lon="-0.34002">
        <ele>1677.4</ele>
        <time>2026-02-07T15:12:10.000Z</time>
      </trkpt>
      <trkpt lat="43.04062" lon="-0.34002">
        <ele>1677.4</ele>
        <time>2026-02-07T15:12:13.000Z</time>
      </trkpt>
      <trkpt lat="43.04062" lon="-0.34002">
        <ele>1677.4</ele>
        <time>2026-02-07T15:12:16.000Z</time>
      </trkpt>
      <trkpt lat="43.04062" lon="-0.34002">
        <ele>1677.4</ele>
        <time>2026-02-07T15:12:19.000Z</time>
      </trkpt>
      <trkpt lat="43.04062" lon="-0.34002">
        <ele>1677.4</ele>
        <time>2026-02-07T15:12:22.000Z</time>
      </trkpt>
      <trkpt lat="43.04062" lon="-0.34002">
        <ele>1677.4</ele>
        <time>2026-02-07T15:12:25.000Z</time>
      </trkpt>
      <trkpt lat="43.04062" lon="-0.34002">
        <ele>1677.4</ele>
        <time>2026-02-07T15:12:28.000Z</time>
      </trkpt>
      <trkpt lat="43.04062" lon="-0.34002">
        <ele>1677.4</ele>
        <time>2026-02-07T15:12:31.000Z</time>
      </trkpt>
      <trkpt lat="43.04062" lon="-0.34002">
        <ele>1677.5</ele>
        <time>2026-02-07T15:12:34.000Z</time>
      </trkpt>
      <trkpt lat="43.04062" lon="-0.34002">
        <ele>1677.5</ele>
        <time>2026-02-07T15:12:37.000Z</time>
      </trkpt>
      <trkpt lat="43.04062" lon="-0.34002">
        <ele>1677.5</ele>
        <time>2026-02-07T15:12:40.000Z</time>
      </trkpt>
      <trkpt lat="43.04062" lon="-0.34002">
        <ele>1677.5</ele>
        <time>2026-02-07T15:12:43.000Z</time>
      </trkpt>
      <trkpt lat="43.04062" lon="-0.34002">
        <ele>1677.5</ele>
        <time>2026-02-07T15:12:46.000Z</time>
      </trkpt>
      <trkpt lat="43.04062" lon="-0.34002">
        <ele>1677.5</ele>
        <time>2026-02-07T15:12:49.000Z</time>
      </trkpt>
      <trkpt lat="43.04062" lon="-0.34002">
        <ele>1677.5</ele>
        <time>2026-02-07T15:12:52.000Z</time>
      </trkpt>
      <trkpt lat="43.04062" lon="-0.34002">
        <ele>1677.5</ele>
        <time>2026-02-07T15:12:55.000Z</time>
      </trkpt>
      <trkpt lat="43.04062" lon="-0.34002">
        <ele>1677.5</ele>
        <time>2026-02-07T15:12:58.000Z</time>
      </trkpt>
      <trkpt lat="43.04062" lon="-0.34002">
        <ele>1677.5</ele>
        <time>2026-02-07T15:13:01.000Z</time>
      </trkpt>
      <trkpt lat="43.04062" lon="-0.34002">
        <ele>1677.5</ele>
        <time>2026-02-07T15:13:04.000Z</time>
      </trkpt>
      <trkpt lat="43.04062" lon="-0.34002">
        <ele>1677.5</ele>
        <time>2026-02-07T15:13:07.000Z</time>
      </trkpt>
      <trkpt lat="43.04062" lon="-0.34002">
        <ele>1677.5</ele>
        <time>2026-02-07T15:13:10.000Z</time>
      </trkpt>
      <trkpt lat="43.04062" lon="-0.34002">
        <ele>1677.5</ele>
        <time>2026-02-07T15:13:13.000Z</time>
      </trkpt>
      <trkpt lat="43.04062" lon="-0.34002">
        <ele>1677.5</ele>
        <time>2026-02-07T15:13:16.000Z</time>
      </trkpt>
      <trkpt lat="43.04062" lon="-0.34002">
        <ele>1677.5</ele>
        <time>2026-02-07T15:13:19.000Z</time>
      </trkpt>
      <trkpt lat="43.04062" lon="-0.34002">
        <ele>1677.5</ele>
        <time>2026-02-07T15:13:22.000Z</time>
      </trkpt>
      <trkpt lat="43.04062" lon="-0.34002">
        <ele>1677.5</ele>
        <time>2026-02-07T15:13:25.000Z</time>
      </trkpt>
      <trkpt lat="43.04062" lon="-0.34002">
        <ele>1677.5</ele>
        <time>2026-02-07T15:13:28.000Z</time>
      </trkpt>
      <trkpt lat="43.04062" lon="-0.34002">
        <ele>1677.5</ele>
        <time>2026-02-07T15:13:31.000Z</time>
      </trkpt>
      <trkpt lat="43.04062" lon="-0.34002">
        <ele>1677.5</ele>
        <time>2026-02-07T15:13:34.000Z</time>
      </trkpt>
      <trkpt lat="43.04062" lon="-0.34002">
        <ele>1677.6</ele>
        <time>2026-02-07T15:13:37.000Z</time>
      </trkpt>
      <trkpt lat="43.04062" lon="-0.34002">
        <ele>1677.6</ele>
        <time>2026-02-07T15:13:40.000Z</time>
      </trkpt>
      <trkpt lat="43.04062" lon="-0.34002">
        <ele>1677.6</ele>
        <time>2026-02-07T15:13:43.000Z</time>
      </trkpt>
      <trkpt lat="43.04062" lon="-0.34002">
        <ele>1677.6</ele>
        <time>2026-02-07T15:13:45.000Z</time>
      </trkpt>
      <trkpt lat="43.04062" lon="-0.34002">
        <ele>1677.6</ele>
        <time>2026-02-07T15:13:46.000Z</time>
      </trkpt>
      <trkpt lat="43.04062" lon="-0.34002">
        <ele>1677.6</ele>
        <time>2026-02-07T15:13:47.000Z</time>
      </trkpt>
      <trkpt lat="43.04062" lon="-0.34002">
        <ele>1677.6</ele>
        <time>2026-02-07T15:13:48.000Z</time>
      </trkpt>
      <trkpt lat="43.04062" lon="-0.34002">
        <ele>1677.6</ele>
        <time>2026-02-07T15:13:51.000Z</time>
      </trkpt>
      <trkpt lat="43.04062" lon="-0.34002">
        <ele>1677.6</ele>
        <time>2026-02-07T15:13:54.000Z</time>
      </trkpt>
      <trkpt lat="43.04062" lon="-0.34002">
        <ele>1677.6</ele>
        <time>2026-02-07T15:13:57.000Z</time>
      </trkpt>
      <trkpt lat="43.04062" lon="-0.34002">
        <ele>1677.6</ele>
        <time>2026-02-07T15:14:00.000Z</time>
      </trkpt>
      <trkpt lat="43.04062" lon="-0.34002">
        <ele>1677.6</ele>
        <time>2026-02-07T15:14:03.000Z</time>
      </trkpt>
      <trkpt lat="43.04062" lon="-0.34002">
        <ele>1677.7</ele>
        <time>2026-02-07T15:14:06.000Z</time>
      </trkpt>
      <trkpt lat="43.04062" lon="-0.34002">
        <ele>1677.7</ele>
        <time>2026-02-07T15:14:09.000Z</time>
      </trkpt>
      <trkpt lat="43.04062" lon="-0.34002">
        <ele>1677.7</ele>
        <time>2026-02-07T15:14:12.000Z</time>
      </trkpt>
      <trkpt lat="43.04062" lon="-0.34002">
        <ele>1677.7</ele>
        <time>2026-02-07T15:14:15.000Z</time>
      </trkpt>
      <trkpt lat="43.04062" lon="-0.34002">
        <ele>1677.7</ele>
        <time>2026-02-07T15:14:18.000Z</time>
      </trkpt>
      <trkpt lat="43.04062" lon="-0.34002">
        <ele>1677.7</ele>
        <time>2026-02-07T15:14:21.000Z</time>
      </trkpt>
      <trkpt lat="43.04062" lon="-0.34002">
        <ele>1677.7</ele>
        <time>2026-02-07T15:14:24.000Z</time>
      </trkpt>
      <trkpt lat="43.04062" lon="-0.34002">
        <ele>1677.7</ele>
        <time>2026-02-07T15:14:27.000Z</time>
      </trkpt>
      <trkpt lat="43.04062" lon="-0.34002">
        <ele>1677.8</ele>
        <time>2026-02-07T15:14:30.000Z</time>
      </trkpt>
      <trkpt lat="43.04062" lon="-0.34002">
        <ele>1677.8</ele>
        <time>2026-02-07T15:14:33.000Z</time>
      </trkpt>
      <trkpt lat="43.04062" lon="-0.34002">
        <ele>1677.8</ele>
        <time>2026-02-07T15:14:36.000Z</time>
      </trkpt>
      <trkpt lat="43.04062" lon="-0.34002">
        <ele>1677.8</ele>
        <time>2026-02-07T15:14:39.000Z</time>
      </trkpt>
      <trkpt lat="43.04062" lon="-0.34002">
        <ele>1677.8</ele>
        <time>2026-02-07T15:14:42.000Z</time>
      </trkpt>
      <trkpt lat="43.04062" lon="-0.34002">
        <ele>1677.8</ele>
        <time>2026-02-07T15:14:45.000Z</time>
      </trkpt>
      <trkpt lat="43.04062" lon="-0.34002">
        <ele>1677.8</ele>
        <time>2026-02-07T15:14:48.000Z</time>
      </trkpt>
      <trkpt lat="43.04062" lon="-0.34002">
        <ele>1677.8</ele>
        <time>2026-02-07T15:14:51.000Z</time>
      </trkpt>
      <trkpt lat="43.04062" lon="-0.34002">
        <ele>1677.8</ele>
        <time>2026-02-07T15:14:54.000Z</time>
      </trkpt>
      <trkpt lat="43.04062" lon="-0.34002">
        <ele>1677.8</ele>
        <time>2026-02-07T15:14:57.000Z</time>
      </trkpt>
      <trkpt lat="43.04062" lon="-0.34002">
        <ele>1677.8</ele>
        <time>2026-02-07T15:15:00.000Z</time>
      </trkpt>
      <trkpt lat="43.04062" lon="-0.34002">
        <ele>1677.8</ele>
        <time>2026-02-07T15:15:03.000Z</time>
      </trkpt>
      <trkpt lat="43.04062" lon="-0.34002">
        <ele>1677.8</ele>
        <time>2026-02-07T15:15:06.000Z</time>
      </trkpt>
      <trkpt lat="43.04062" lon="-0.34002">
        <ele>1677.9</ele>
        <time>2026-02-07T15:15:09.000Z</time>
      </trkpt>
      <trkpt lat="43.04062" lon="-0.34002">
        <ele>1677.9</ele>
        <time>2026-02-07T15:15:12.000Z</time>
      </trkpt>
      <trkpt lat="43.04062" lon="-0.34002">
        <ele>1677.9</ele>
        <time>2026-02-07T15:15:15.000Z</time>
      </trkpt>
      <trkpt lat="43.04062" lon="-0.34002">
        <ele>1677.9</ele>
        <time>2026-02-07T15:15:18.000Z</time>
      </trkpt>
      <trkpt lat="43.04062" lon="-0.34002">
        <ele>1677.9</ele>
        <time>2026-02-07T15:15:21.000Z</time>
      </trkpt>
      <trkpt lat="43.04062" lon="-0.34002">
        <ele>1678</ele>
        <time>2026-02-07T15:15:24.000Z</time>
      </trkpt>
      <trkpt lat="43.04062" lon="-0.34002">
        <ele>1678</ele>
        <time>2026-02-07T15:15:27.000Z</time>
      </trkpt>
      <trkpt lat="43.04062" lon="-0.34002">
        <ele>1678</ele>
        <time>2026-02-07T15:15:30.000Z</time>
      </trkpt>
      <trkpt lat="43.04062" lon="-0.34002">
        <ele>1678</ele>
        <time>2026-02-07T15:15:33.000Z</time>
      </trkpt>
      <trkpt lat="43.04062" lon="-0.34002">
        <ele>1678</ele>
        <time>2026-02-07T15:15:36.000Z</time>
      </trkpt>
      <trkpt lat="43.04062" lon="-0.34002">
        <ele>1678</ele>
        <time>2026-02-07T15:15:39.000Z</time>
      </trkpt>
      <trkpt lat="43.04062" lon="-0.34002">
        <ele>1678</ele>
        <time>2026-02-07T15:15:42.000Z</time>
      </trkpt>
      <trkpt lat="43.04062" lon="-0.34002">
        <ele>1678</ele>
        <time>2026-02-07T15:15:45.000Z</time>
      </trkpt>
      <trkpt lat="43.04062" lon="-0.34002">
        <ele>1678</ele>
        <time>2026-02-07T15:15:48.000Z</time>
      </trkpt>
      <trkpt lat="43.04062" lon="-0.34002">
        <ele>1678</ele>
        <time>2026-02-07T15:15:51.000Z</time>
      </trkpt>
      <trkpt lat="43.04062" lon="-0.34002">
        <ele>1678</ele>
        <time>2026-02-07T15:15:54.000Z</time>
      </trkpt>
      <trkpt lat="43.04062" lon="-0.34002">
        <ele>1678</ele>
        <time>2026-02-07T15:15:57.000Z</time>
      </trkpt>
      <trkpt lat="43.04062" lon="-0.34002">
        <ele>1678</ele>
        <time>2026-02-07T15:16:00.000Z</time>
      </trkpt>
      <trkpt lat="43.04062" lon="-0.34002">
        <ele>1678</ele>
        <time>2026-02-07T15:16:03.000Z</time>
      </trkpt>
      <trkpt lat="43.04062" lon="-0.34002">
        <ele>1678</ele>
        <time>2026-02-07T15:16:06.000Z</time>
      </trkpt>
      <trkpt lat="43.04062" lon="-0.34002">
        <ele>1678</ele>
        <time>2026-02-07T15:16:09.000Z</time>
      </trkpt>
      <trkpt lat="43.04062" lon="-0.34002">
        <ele>1678</ele>
        <time>2026-02-07T15:16:12.000Z</time>
      </trkpt>
      <trkpt lat="43.04062" lon="-0.34002">
        <ele>1678</ele>
        <time>2026-02-07T15:16:15.000Z</time>
      </trkpt>
      <trkpt lat="43.04062" lon="-0.34002">
        <ele>1678</ele>
        <time>2026-02-07T15:16:18.000Z</time>
      </trkpt>
      <trkpt lat="43.04062" lon="-0.34002">
        <ele>1678</ele>
        <time>2026-02-07T15:16:21.000Z</time>
      </trkpt>
      <trkpt lat="43.04062" lon="-0.34002">
        <ele>1678</ele>
        <time>2026-02-07T15:16:24.000Z</time>
      </trkpt>
      <trkpt lat="43.04062" lon="-0.34002">
        <ele>1678</ele>
        <time>2026-02-07T15:16:27.000Z</time>
      </trkpt>
      <trkpt lat="43.04062" lon="-0.34002">
        <ele>1678</ele>
        <time>2026-02-07T15:16:30.000Z</time>
      </trkpt>
      <trkpt lat="43.04062" lon="-0.34002">
        <ele>1678</ele>
        <time>2026-02-07T15:16:33.000Z</time>
      </trkpt>
      <trkpt lat="43.04062" lon="-0.34002">
        <ele>1678</ele>
        <time>2026-02-07T15:16:36.000Z</time>
      </trkpt>
      <trkpt lat="43.04062" lon="-0.34002">
        <ele>1678</ele>
        <time>2026-02-07T15:16:39.000Z</time>
      </trkpt>
      <trkpt lat="43.04062" lon="-0.34002">
        <ele>1678</ele>
        <time>2026-02-07T15:16:42.000Z</time>
      </trkpt>
      <trkpt lat="43.04062" lon="-0.34002">
        <ele>1678</ele>
        <time>2026-02-07T15:16:45.000Z</time>
      </trkpt>
      <trkpt lat="43.04062" lon="-0.34002">
        <ele>1678</ele>
        <time>2026-02-07T15:16:48.000Z</time>
      </trkpt>
      <trkpt lat="43.04062" lon="-0.34002">
        <ele>1678.1</ele>
        <time>2026-02-07T15:16:51.000Z</time>
      </trkpt>
      <trkpt lat="43.04062" lon="-0.34002">
        <ele>1678.1</ele>
        <time>2026-02-07T15:16:54.000Z</time>
      </trkpt>
      <trkpt lat="43.04062" lon="-0.34002">
        <ele>1678.1</ele>
        <time>2026-02-07T15:16:57.000Z</time>
      </trkpt>
      <trkpt lat="43.04062" lon="-0.34002">
        <ele>1678.1</ele>
        <time>2026-02-07T15:17:00.000Z</time>
      </trkpt>
      <trkpt lat="43.04062" lon="-0.34002">
        <ele>1678</ele>
        <time>2026-02-07T15:17:03.000Z</time>
      </trkpt>
      <trkpt lat="43.04062" lon="-0.34002">
        <ele>1678</ele>
        <time>2026-02-07T15:17:06.000Z</time>
      </trkpt>
      <trkpt lat="43.04062" lon="-0.34002">
        <ele>1678.1</ele>
        <time>2026-02-07T15:17:09.000Z</time>
      </trkpt>
      <trkpt lat="43.04062" lon="-0.34002">
        <ele>1678.1</ele>
        <time>2026-02-07T15:17:12.000Z</time>
      </trkpt>
      <trkpt lat="43.04062" lon="-0.34002">
        <ele>1678.1</ele>
        <time>2026-02-07T15:17:15.000Z</time>
      </trkpt>
      <trkpt lat="43.04062" lon="-0.34002">
        <ele>1678.1</ele>
        <time>2026-02-07T15:17:18.000Z</time>
      </trkpt>
      <trkpt lat="43.04062" lon="-0.34002">
        <ele>1678</ele>
        <time>2026-02-07T15:17:21.000Z</time>
      </trkpt>
      <trkpt lat="43.04062" lon="-0.34002">
        <ele>1678</ele>
        <time>2026-02-07T15:17:24.000Z</time>
      </trkpt>
      <trkpt lat="43.04062" lon="-0.34002">
        <ele>1678</ele>
        <time>2026-02-07T15:17:27.000Z</time>
      </trkpt>
      <trkpt lat="43.04062" lon="-0.34002">
        <ele>1678</ele>
        <time>2026-02-07T15:17:30.000Z</time>
      </trkpt>
      <trkpt lat="43.04062" lon="-0.34002">
        <ele>1678</ele>
        <time>2026-02-07T15:17:33.000Z</time>
      </trkpt>
      <trkpt lat="43.04062" lon="-0.34002">
        <ele>1678</ele>
        <time>2026-02-07T15:17:36.000Z</time>
      </trkpt>
      <trkpt lat="43.04062" lon="-0.34002">
        <ele>1678</ele>
        <time>2026-02-07T15:17:39.000Z</time>
      </trkpt>
      <trkpt lat="43.04062" lon="-0.34002">
        <ele>1678</ele>
        <time>2026-02-07T15:17:42.000Z</time>
      </trkpt>
      <trkpt lat="43.04062" lon="-0.34002">
        <ele>1678</ele>
        <time>2026-02-07T15:17:45.000Z</time>
      </trkpt>
      <trkpt lat="43.04062" lon="-0.34002">
        <ele>1678</ele>
        <time>2026-02-07T15:17:48.000Z</time>
      </trkpt>
      <trkpt lat="43.04062" lon="-0.34002">
        <ele>1678</ele>
        <time>2026-02-07T15:17:51.000Z</time>
      </trkpt>
      <trkpt lat="43.04062" lon="-0.34002">
        <ele>1678</ele>
        <time>2026-02-07T15:17:54.000Z</time>
      </trkpt>
      <trkpt lat="43.04062" lon="-0.34002">
        <ele>1678</ele>
        <time>2026-02-07T15:17:57.000Z</time>
      </trkpt>
      <trkpt lat="43.04062" lon="-0.34002">
        <ele>1678</ele>
        <time>2026-02-07T15:18:00.000Z</time>
      </trkpt>
      <trkpt lat="43.04062" lon="-0.34002">
        <ele>1678</ele>
        <time>2026-02-07T15:18:03.000Z</time>
      </trkpt>
      <trkpt lat="43.04062" lon="-0.34002">
        <ele>1678</ele>
        <time>2026-02-07T15:18:06.000Z</time>
      </trkpt>
      <trkpt lat="43.04062" lon="-0.34002">
        <ele>1677.9</ele>
        <time>2026-02-07T15:18:09.000Z</time>
      </trkpt>
      <trkpt lat="43.04062" lon="-0.34002">
        <ele>1677.9</ele>
        <time>2026-02-07T15:18:12.000Z</time>
      </trkpt>
      <trkpt lat="43.04062" lon="-0.34002">
        <ele>1678</ele>
        <time>2026-02-07T15:18:15.000Z</time>
      </trkpt>
      <trkpt lat="43.04062" lon="-0.34002">
        <ele>1678</ele>
        <time>2026-02-07T15:18:16.000Z</time>
      </trkpt>
      <trkpt lat="43.04062" lon="-0.34002">
        <ele>1678</ele>
        <time>2026-02-07T15:18:17.000Z</time>
      </trkpt>
      <trkpt lat="43.04061" lon="-0.34001">
        <ele>1678</ele>
        <time>2026-02-07T15:18:20.000Z</time>
      </trkpt>
      <trkpt lat="43.04061" lon="-0.34001">
        <ele>1678</ele>
        <time>2026-02-07T15:18:23.000Z</time>
      </trkpt>
      <trkpt lat="43.04061" lon="-0.34001">
        <ele>1678</ele>
        <time>2026-02-07T15:18:24.000Z</time>
      </trkpt>
      <trkpt lat="43.04061" lon="-0.34001">
        <ele>1678</ele>
        <time>2026-02-07T15:18:25.000Z</time>
      </trkpt>
      <trkpt lat="43.04061" lon="-0.34001">
        <ele>1678</ele>
        <time>2026-02-07T15:18:26.000Z</time>
      </trkpt>
      <trkpt lat="43.04061" lon="-0.34001">
        <ele>1678</ele>
        <time>2026-02-07T15:18:27.000Z</time>
      </trkpt>
      <trkpt lat="43.04061" lon="-0.34001">
        <ele>1678</ele>
        <time>2026-02-07T15:18:28.000Z</time>
      </trkpt>
      <trkpt lat="43.04061" lon="-0.34001">
        <ele>1678</ele>
        <time>2026-02-07T15:18:29.000Z</time>
      </trkpt>
      <trkpt lat="43.04061" lon="-0.34001">
        <ele>1678</ele>
        <time>2026-02-07T15:18:30.000Z</time>
      </trkpt>
      <trkpt lat="43.04061" lon="-0.34001">
        <ele>1678</ele>
        <time>2026-02-07T15:18:31.000Z</time>
      </trkpt>
      <trkpt lat="43.04061" lon="-0.34001">
        <ele>1678</ele>
        <time>2026-02-07T15:18:32.000Z</time>
      </trkpt>
      <trkpt lat="43.04061" lon="-0.34001">
        <ele>1678</ele>
        <time>2026-02-07T15:18:33.000Z</time>
      </trkpt>
      <trkpt lat="43.04061" lon="-0.34001">
        <ele>1678</ele>
        <time>2026-02-07T15:18:34.000Z</time>
      </trkpt>
      <trkpt lat="43.04061" lon="-0.34001">
        <ele>1678</ele>
        <time>2026-02-07T15:18:35.000Z</time>
      </trkpt>
      <trkpt lat="43.04061" lon="-0.34001">
        <ele>1678.1</ele>
        <time>2026-02-07T15:18:36.000Z</time>
      </trkpt>
      <trkpt lat="43.04061" lon="-0.34001">
        <ele>1678.1</ele>
        <time>2026-02-07T15:18:39.000Z</time>
      </trkpt>
      <trkpt lat="43.04061" lon="-0.34001">
        <ele>1678.1</ele>
        <time>2026-02-07T15:18:40.000Z</time>
      </trkpt>
      <trkpt lat="43.04061" lon="-0.34001">
        <ele>1678.1</ele>
        <time>2026-02-07T15:18:41.000Z</time>
      </trkpt>
      <trkpt lat="43.04061" lon="-0.34001">
        <ele>1678.1</ele>
        <time>2026-02-07T15:18:42.000Z</time>
      </trkpt>
      <trkpt lat="43.04061" lon="-0.34001">
        <ele>1678.1</ele>
        <time>2026-02-07T15:18:43.000Z</time>
      </trkpt>
      <trkpt lat="43.04061" lon="-0.34001">
        <ele>1678.1</ele>
        <time>2026-02-07T15:18:46.000Z</time>
      </trkpt>
      <trkpt lat="43.04061" lon="-0.34001">
        <ele>1678.1</ele>
        <time>2026-02-07T15:18:49.000Z</time>
      </trkpt>
      <trkpt lat="43.04061" lon="-0.34001">
        <ele>1678.1</ele>
        <time>2026-02-07T15:18:52.000Z</time>
      </trkpt>
      <trkpt lat="43.04061" lon="-0.34001">
        <ele>1678.1</ele>
        <time>2026-02-07T15:18:55.000Z</time>
      </trkpt>
      <trkpt lat="43.04061" lon="-0.34001">
        <ele>1678.2</ele>
        <time>2026-02-07T15:18:58.000Z</time>
      </trkpt>
      <trkpt lat="43.04061" lon="-0.34001">
        <ele>1678.2</ele>
        <time>2026-02-07T15:19:01.000Z</time>
      </trkpt>
      <trkpt lat="43.04061" lon="-0.34001">
        <ele>1678.2</ele>
        <time>2026-02-07T15:19:04.000Z</time>
      </trkpt>
      <trkpt lat="43.04061" lon="-0.34">
        <ele>1678.2</ele>
        <time>2026-02-07T15:19:05.000Z</time>
      </trkpt>
      <trkpt lat="43.04061" lon="-0.34">
        <ele>1678.2</ele>
        <time>2026-02-07T15:19:06.000Z</time>
      </trkpt>
      <trkpt lat="43.04061" lon="-0.34">
        <ele>1678.2</ele>
        <time>2026-02-07T15:19:07.000Z</time>
      </trkpt>
      <trkpt lat="43.04061" lon="-0.34">
        <ele>1678.2</ele>
        <time>2026-02-07T15:19:08.000Z</time>
      </trkpt>
      <trkpt lat="43.0406" lon="-0.34">
        <ele>1678.2</ele>
        <time>2026-02-07T15:19:09.000Z</time>
      </trkpt>
      <trkpt lat="43.0406" lon="-0.34">
        <ele>1678.1</ele>
        <time>2026-02-07T15:19:12.000Z</time>
      </trkpt>
      <trkpt lat="43.0406" lon="-0.34">
        <ele>1678.1</ele>
        <time>2026-02-07T15:19:15.000Z</time>
      </trkpt>
      <trkpt lat="43.0406" lon="-0.34">
        <ele>1678.1</ele>
        <time>2026-02-07T15:19:18.000Z</time>
      </trkpt>
      <trkpt lat="43.0406" lon="-0.34">
        <ele>1678.1</ele>
        <time>2026-02-07T15:19:21.000Z</time>
      </trkpt>
      <trkpt lat="43.0406" lon="-0.34">
        <ele>1678.1</ele>
        <time>2026-02-07T15:19:24.000Z</time>
      </trkpt>
      <trkpt lat="43.0406" lon="-0.34">
        <ele>1678.1</ele>
        <time>2026-02-07T15:19:27.000Z</time>
      </trkpt>
      <trkpt lat="43.0406" lon="-0.34">
        <ele>1678.2</ele>
        <time>2026-02-07T15:19:30.000Z</time>
      </trkpt>
      <trkpt lat="43.0406" lon="-0.33999">
        <ele>1678.2</ele>
        <time>2026-02-07T15:19:33.000Z</time>
      </trkpt>
      <trkpt lat="43.0406" lon="-0.33999">
        <ele>1678.2</ele>
        <time>2026-02-07T15:19:34.000Z</time>
      </trkpt>
      <trkpt lat="43.0406" lon="-0.33999">
        <ele>1678.2</ele>
        <time>2026-02-07T15:19:37.000Z</time>
      </trkpt>
      <trkpt lat="43.0406" lon="-0.33999">
        <ele>1678.2</ele>
        <time>2026-02-07T15:19:38.000Z</time>
      </trkpt>
      <trkpt lat="43.0406" lon="-0.33998">
        <ele>1678.2</ele>
        <time>2026-02-07T15:19:39.000Z</time>
      </trkpt>
      <trkpt lat="43.04059" lon="-0.33998">
        <ele>1678.2</ele>
        <time>2026-02-07T15:19:40.000Z</time>
      </trkpt>
      <trkpt lat="43.04059" lon="-0.33997">
        <ele>1678.2</ele>
        <time>2026-02-07T15:19:41.000Z</time>
      </trkpt>
      <trkpt lat="43.04059" lon="-0.33996">
        <ele>1678.1</ele>
        <time>2026-02-07T15:19:44.000Z</time>
      </trkpt>
      <trkpt lat="43.04059" lon="-0.33995">
        <ele>1678.1</ele>
        <time>2026-02-07T15:19:47.000Z</time>
      </trkpt>
      <trkpt lat="43.04059" lon="-0.33993">
        <ele>1678.1</ele>
        <time>2026-02-07T15:19:50.000Z</time>
      </trkpt>
      <trkpt lat="43.0406" lon="-0.33992">
        <ele>1678.1</ele>
        <time>2026-02-07T15:19:53.000Z</time>
      </trkpt>
      <trkpt lat="43.04059" lon="-0.3399">
        <ele>1678</ele>
        <time>2026-02-07T15:19:56.000Z</time>
      </trkpt>
      <trkpt lat="43.04059" lon="-0.33989">
        <ele>1677.9</ele>
        <time>2026-02-07T15:19:59.000Z</time>
      </trkpt>
      <trkpt lat="43.04059" lon="-0.33987">
        <ele>1677.7</ele>
        <time>2026-02-07T15:20:02.000Z</time>
      </trkpt>
      <trkpt lat="43.04058" lon="-0.33986">
        <ele>1677.4</ele>
        <time>2026-02-07T15:20:05.000Z</time>
      </trkpt>
      <trkpt lat="43.04058" lon="-0.33985">
        <ele>1676.9</ele>
        <time>2026-02-07T15:20:08.000Z</time>
      </trkpt>
      <trkpt lat="43.04058" lon="-0.33984">
        <ele>1676.4</ele>
        <time>2026-02-07T15:20:11.000Z</time>
      </trkpt>
      <trkpt lat="43.04059" lon="-0.33982">
        <ele>1676.1</ele>
        <time>2026-02-07T15:20:14.000Z</time>
      </trkpt>
      <trkpt lat="43.04059" lon="-0.3398">
        <ele>1675.9</ele>
        <time>2026-02-07T15:20:17.000Z</time>
      </trkpt>
      <trkpt lat="43.04059" lon="-0.33977">
        <ele>1675.8</ele>
        <time>2026-02-07T15:20:20.000Z</time>
      </trkpt>
      <trkpt lat="43.04059" lon="-0.33975">
        <ele>1675.7</ele>
        <time>2026-02-07T15:20:23.000Z</time>
      </trkpt>
      <trkpt lat="43.04059" lon="-0.33975">
        <ele>1675.7</ele>
        <time>2026-02-07T15:20:26.000Z</time>
      </trkpt>
      <trkpt lat="43.04059" lon="-0.33975">
        <ele>1675.7</ele>
        <time>2026-02-07T15:20:27.000Z</time>
      </trkpt>
      <trkpt lat="43.04059" lon="-0.33975">
        <ele>1675.7</ele>
        <time>2026-02-07T15:20:28.000Z</time>
      </trkpt>
      <trkpt lat="43.04059" lon="-0.33975">
        <ele>1675.7</ele>
        <time>2026-02-07T15:20:31.000Z</time>
      </trkpt>
      <trkpt lat="43.04059" lon="-0.33975">
        <ele>1675.7</ele>
        <time>2026-02-07T15:20:34.000Z</time>
      </trkpt>
      <trkpt lat="43.04059" lon="-0.33975">
        <ele>1675.7</ele>
        <time>2026-02-07T15:20:37.000Z</time>
      </trkpt>
      <trkpt lat="43.04059" lon="-0.33975">
        <ele>1675.7</ele>
        <time>2026-02-07T15:20:40.000Z</time>
      </trkpt>
      <trkpt lat="43.04059" lon="-0.33975">
        <ele>1675.7</ele>
        <time>2026-02-07T15:20:43.000Z</time>
      </trkpt>
      <trkpt lat="43.04059" lon="-0.33975">
        <ele>1675.6</ele>
        <time>2026-02-07T15:20:46.000Z</time>
      </trkpt>
      <trkpt lat="43.04059" lon="-0.33975">
        <ele>1675.6</ele>
        <time>2026-02-07T15:20:49.000Z</time>
      </trkpt>
      <trkpt lat="43.04059" lon="-0.33975">
        <ele>1675.7</ele>
        <time>2026-02-07T15:20:52.000Z</time>
      </trkpt>
      <trkpt lat="43.0406" lon="-0.33976">
        <ele>1675.7</ele>
        <time>2026-02-07T15:20:55.000Z</time>
      </trkpt>
      <trkpt lat="43.0406" lon="-0.33976">
        <ele>1675.7</ele>
        <time>2026-02-07T15:20:56.000Z</time>
      </trkpt>
      <trkpt lat="43.0406" lon="-0.33976">
        <ele>1675.7</ele>
        <time>2026-02-07T15:20:57.000Z</time>
      </trkpt>
      <trkpt lat="43.0406" lon="-0.33976">
        <ele>1675.7</ele>
        <time>2026-02-07T15:20:58.000Z</time>
      </trkpt>
      <trkpt lat="43.0406" lon="-0.33976">
        <ele>1675.7</ele>
        <time>2026-02-07T15:20:59.000Z</time>
      </trkpt>
      <trkpt lat="43.0406" lon="-0.33976">
        <ele>1675.7</ele>
        <time>2026-02-07T15:21:02.000Z</time>
      </trkpt>
      <trkpt lat="43.0406" lon="-0.33976">
        <ele>1675.7</ele>
        <time>2026-02-07T15:21:05.000Z</time>
      </trkpt>
      <trkpt lat="43.0406" lon="-0.33978">
        <ele>1675.7</ele>
        <time>2026-02-07T15:21:08.000Z</time>
      </trkpt>
      <trkpt lat="43.0406" lon="-0.3398">
        <ele>1675.7</ele>
        <time>2026-02-07T15:21:10.000Z</time>
      </trkpt>
      <trkpt lat="43.0406" lon="-0.33979">
        <ele>1675.7</ele>
        <time>2026-02-07T15:21:11.000Z</time>
      </trkpt>
      <trkpt lat="43.0406" lon="-0.3398">
        <ele>1675.6</ele>
        <time>2026-02-07T15:21:14.000Z</time>
      </trkpt>
      <trkpt lat="43.0406" lon="-0.3398">
        <ele>1675.6</ele>
        <time>2026-02-07T15:21:17.000Z</time>
      </trkpt>
      <trkpt lat="43.04059" lon="-0.33979">
        <ele>1675.5</ele>
        <time>2026-02-07T15:21:20.000Z</time>
      </trkpt>
      <trkpt lat="43.04059" lon="-0.33979">
        <ele>1675.5</ele>
        <time>2026-02-07T15:21:23.000Z</time>
      </trkpt>
      <trkpt lat="43.04059" lon="-0.33979">
        <ele>1675.4</ele>
        <time>2026-02-07T15:21:26.000Z</time>
      </trkpt>
      <trkpt lat="43.04059" lon="-0.3398">
        <ele>1675.2</ele>
        <time>2026-02-07T15:21:29.000Z</time>
      </trkpt>
      <trkpt lat="43.04058" lon="-0.33981">
        <ele>1675</ele>
        <time>2026-02-07T15:21:32.000Z</time>
      </trkpt>
      <trkpt lat="43.04058" lon="-0.33982">
        <ele>1674.8</ele>
        <time>2026-02-07T15:21:35.000Z</time>
      </trkpt>
      <trkpt lat="43.04058" lon="-0.33982">
        <ele>1674.5</ele>
        <time>2026-02-07T15:21:38.000Z</time>
      </trkpt>
      <trkpt lat="43.04058" lon="-0.33982">
        <ele>1674.3</ele>
        <time>2026-02-07T15:21:41.000Z</time>
      </trkpt>
      <trkpt lat="43.04057" lon="-0.33983">
        <ele>1674</ele>
        <time>2026-02-07T15:21:44.000Z</time>
      </trkpt>
      <trkpt lat="43.04055" lon="-0.33984">
        <ele>1673.7</ele>
        <time>2026-02-07T15:21:47.000Z</time>
      </trkpt>
      <trkpt lat="43.04054" lon="-0.33984">
        <ele>1673.3</ele>
        <time>2026-02-07T15:21:50.000Z</time>
      </trkpt>
      <trkpt lat="43.04052" lon="-0.33983">
        <ele>1672.8</ele>
        <time>2026-02-07T15:21:53.000Z</time>
      </trkpt>
      <trkpt lat="43.04051" lon="-0.33983">
        <ele>1672.1</ele>
        <time>2026-02-07T15:21:56.000Z</time>
      </trkpt>
      <trkpt lat="43.0405" lon="-0.33983">
        <ele>1671.2</ele>
        <time>2026-02-07T15:21:59.000Z</time>
      </trkpt>
      <trkpt lat="43.04049" lon="-0.33984">
        <ele>1670.5</ele>
        <time>2026-02-07T15:22:02.000Z</time>
      </trkpt>
      <trkpt lat="43.04048" lon="-0.33984">
        <ele>1669.8</ele>
        <time>2026-02-07T15:22:05.000Z</time>
      </trkpt>
      <trkpt lat="43.04047" lon="-0.33984">
        <ele>1669.1</ele>
        <time>2026-02-07T15:22:08.000Z</time>
      </trkpt>
      <trkpt lat="43.04046" lon="-0.33984">
        <ele>1668.6</ele>
        <time>2026-02-07T15:22:11.000Z</time>
      </trkpt>
      <trkpt lat="43.04045" lon="-0.33983">
        <ele>1668</ele>
        <time>2026-02-07T15:22:14.000Z</time>
      </trkpt>
      <trkpt lat="43.04044" lon="-0.33982">
        <ele>1667.5</ele>
        <time>2026-02-07T15:22:17.000Z</time>
      </trkpt>
      <trkpt lat="43.04044" lon="-0.33982">
        <ele>1667.1</ele>
        <time>2026-02-07T15:22:20.000Z</time>
      </trkpt>
      <trkpt lat="43.04044" lon="-0.33982">
        <ele>1667.1</ele>
        <time>2026-02-07T15:22:21.000Z</time>
      </trkpt>
      <trkpt lat="43.04044" lon="-0.33982">
        <ele>1667</ele>
        <time>2026-02-07T15:22:22.000Z</time>
      </trkpt>
      <trkpt lat="43.04044" lon="-0.33981">
        <ele>1666.9</ele>
        <time>2026-02-07T15:22:23.000Z</time>
      </trkpt>
      <trkpt lat="43.04044" lon="-0.33981">
        <ele>1666.9</ele>
        <time>2026-02-07T15:22:24.000Z</time>
      </trkpt>
      <trkpt lat="43.04044" lon="-0.3398">
        <ele>1666.6</ele>
        <time>2026-02-07T15:22:27.000Z</time>
      </trkpt>
      <trkpt lat="43.04044" lon="-0.3398">
        <ele>1666.5</ele>
        <time>2026-02-07T15:22:30.000Z</time>
      </trkpt>
      <trkpt lat="43.04044" lon="-0.3398">
        <ele>1666.4</ele>
        <time>2026-02-07T15:22:32.000Z</time>
      </trkpt>
      <trkpt lat="43.04044" lon="-0.3398">
        <ele>1666.4</ele>
        <time>2026-02-07T15:22:33.000Z</time>
      </trkpt>
      <trkpt lat="43.04044" lon="-0.3398">
        <ele>1666.3</ele>
        <time>2026-02-07T15:22:34.000Z</time>
      </trkpt>
      <trkpt lat="43.04044" lon="-0.3398">
        <ele>1666.2</ele>
        <time>2026-02-07T15:22:37.000Z</time>
      </trkpt>
      <trkpt lat="43.04043" lon="-0.33979">
        <ele>1666.2</ele>
        <time>2026-02-07T15:22:40.000Z</time>
      </trkpt>
      <trkpt lat="43.04043" lon="-0.33979">
        <ele>1666.2</ele>
        <time>2026-02-07T15:22:41.000Z</time>
      </trkpt>
      <trkpt lat="43.04043" lon="-0.33978">
        <ele>1666.1</ele>
        <time>2026-02-07T15:22:44.000Z</time>
      </trkpt>
      <trkpt lat="43.04044" lon="-0.33976">
        <ele>1666</ele>
        <time>2026-02-07T15:22:47.000Z</time>
      </trkpt>
      <trkpt lat="43.04043" lon="-0.33975">
        <ele>1665.9</ele>
        <time>2026-02-07T15:22:50.000Z</time>
      </trkpt>
      <trkpt lat="43.04042" lon="-0.33974">
        <ele>1665.6</ele>
        <time>2026-02-07T15:22:53.000Z</time>
      </trkpt>
      <trkpt lat="43.04042" lon="-0.33973">
        <ele>1665.3</ele>
        <time>2026-02-07T15:22:56.000Z</time>
      </trkpt>
      <trkpt lat="43.04041" lon="-0.33973">
        <ele>1665</ele>
        <time>2026-02-07T15:22:59.000Z</time>
      </trkpt>
      <trkpt lat="43.04041" lon="-0.33972">
        <ele>1664.7</ele>
        <time>2026-02-07T15:23:02.000Z</time>
      </trkpt>
      <trkpt lat="43.0404" lon="-0.33971">
        <ele>1664.4</ele>
        <time>2026-02-07T15:23:05.000Z</time>
      </trkpt>
      <trkpt lat="43.04039" lon="-0.33968">
        <ele>1664.1</ele>
        <time>2026-02-07T15:23:08.000Z</time>
      </trkpt>
      <trkpt lat="43.0404" lon="-0.33965">
        <ele>1663.9</ele>
        <time>2026-02-07T15:23:11.000Z</time>
      </trkpt>
      <trkpt lat="43.04041" lon="-0.33962">
        <ele>1663.7</ele>
        <time>2026-02-07T15:23:14.000Z</time>
      </trkpt>
      <trkpt lat="43.04041" lon="-0.33959">
        <ele>1663.4</ele>
        <time>2026-02-07T15:23:17.000Z</time>
      </trkpt>
      <trkpt lat="43.04041" lon="-0.33957">
        <ele>1663.2</ele>
        <time>2026-02-07T15:23:20.000Z</time>
      </trkpt>
      <trkpt lat="43.04041" lon="-0.33956">
        <ele>1663</ele>
        <time>2026-02-07T15:23:23.000Z</time>
      </trkpt>
      <trkpt lat="43.04041" lon="-0.33954">
        <ele>1662.9</ele>
        <time>2026-02-07T15:23:26.000Z</time>
      </trkpt>
      <trkpt lat="43.04041" lon="-0.33953">
        <ele>1662.7</ele>
        <time>2026-02-07T15:23:29.000Z</time>
      </trkpt>
      <trkpt lat="43.04041" lon="-0.33951">
        <ele>1662.6</ele>
        <time>2026-02-07T15:23:32.000Z</time>
      </trkpt>
      <trkpt lat="43.04042" lon="-0.3395">
        <ele>1662.4</ele>
        <time>2026-02-07T15:23:35.000Z</time>
      </trkpt>
      <trkpt lat="43.04042" lon="-0.3395">
        <ele>1662.1</ele>
        <time>2026-02-07T15:23:38.000Z</time>
      </trkpt>
      <trkpt lat="43.04042" lon="-0.33949">
        <ele>1661.8</ele>
        <time>2026-02-07T15:23:41.000Z</time>
      </trkpt>
      <trkpt lat="43.04042" lon="-0.33948">
        <ele>1661.5</ele>
        <time>2026-02-07T15:23:44.000Z</time>
      </trkpt>
      <trkpt lat="43.04042" lon="-0.33948">
        <ele>1661.2</ele>
        <time>2026-02-07T15:23:47.000Z</time>
      </trkpt>
      <trkpt lat="43.04041" lon="-0.33947">
        <ele>1660.8</ele>
        <time>2026-02-07T15:23:50.000Z</time>
      </trkpt>
      <trkpt lat="43.0404" lon="-0.33946">
        <ele>1660.3</ele>
        <time>2026-02-07T15:23:53.000Z</time>
      </trkpt>
      <trkpt lat="43.0404" lon="-0.33944">
        <ele>1659.8</ele>
        <time>2026-02-07T15:23:56.000Z</time>
      </trkpt>
      <trkpt lat="43.0404" lon="-0.33942">
        <ele>1659.4</ele>
        <time>2026-02-07T15:23:59.000Z</time>
      </trkpt>
      <trkpt lat="43.04039" lon="-0.33941">
        <ele>1659</ele>
        <time>2026-02-07T15:24:02.000Z</time>
      </trkpt>
      <trkpt lat="43.0404" lon="-0.33941">
        <ele>1658.6</ele>
        <time>2026-02-07T15:24:05.000Z</time>
      </trkpt>
      <trkpt lat="43.0404" lon="-0.33941">
        <ele>1658.3</ele>
        <time>2026-02-07T15:24:08.000Z</time>
      </trkpt>
      <trkpt lat="43.04041" lon="-0.3394">
        <ele>1658.2</ele>
        <time>2026-02-07T15:24:11.000Z</time>
      </trkpt>
      <trkpt lat="43.04041" lon="-0.33938">
        <ele>1658.1</ele>
        <time>2026-02-07T15:24:14.000Z</time>
      </trkpt>
      <trkpt lat="43.04041" lon="-0.33938">
        <ele>1657.9</ele>
        <time>2026-02-07T15:24:17.000Z</time>
      </trkpt>
      <trkpt lat="43.04042" lon="-0.33938">
        <ele>1657.8</ele>
        <time>2026-02-07T15:24:20.000Z</time>
      </trkpt>
      <trkpt lat="43.04042" lon="-0.33938">
        <ele>1657.7</ele>
        <time>2026-02-07T15:24:23.000Z</time>
      </trkpt>
      <trkpt lat="43.04042" lon="-0.33937">
        <ele>1657.7</ele>
        <time>2026-02-07T15:24:25.000Z</time>
      </trkpt>
      <trkpt lat="43.04042" lon="-0.33937">
        <ele>1657.7</ele>
        <time>2026-02-07T15:24:26.000Z</time>
      </trkpt>
      <trkpt lat="43.04042" lon="-0.33937">
        <ele>1657.7</ele>
        <time>2026-02-07T15:24:27.000Z</time>
      </trkpt>
      <trkpt lat="43.04042" lon="-0.33937">
        <ele>1657.7</ele>
        <time>2026-02-07T15:24:30.000Z</time>
      </trkpt>
      <trkpt lat="43.04042" lon="-0.33937">
        <ele>1657.7</ele>
        <time>2026-02-07T15:24:31.000Z</time>
      </trkpt>
      <trkpt lat="43.04043" lon="-0.33938">
        <ele>1657.7</ele>
        <time>2026-02-07T15:24:32.000Z</time>
      </trkpt>
      <trkpt lat="43.04045" lon="-0.33938">
        <ele>1657.8</ele>
        <time>2026-02-07T15:24:35.000Z</time>
      </trkpt>
      <trkpt lat="43.04046" lon="-0.33938">
        <ele>1657.9</ele>
        <time>2026-02-07T15:24:38.000Z</time>
      </trkpt>
      <trkpt lat="43.04047" lon="-0.33938">
        <ele>1658.1</ele>
        <time>2026-02-07T15:24:41.000Z</time>
      </trkpt>
      <trkpt lat="43.04048" lon="-0.33938">
        <ele>1658.2</ele>
        <time>2026-02-07T15:24:44.000Z</time>
      </trkpt>
      <trkpt lat="43.04047" lon="-0.33938">
        <ele>1658.3</ele>
        <time>2026-02-07T15:24:47.000Z</time>
      </trkpt>
      <trkpt lat="43.04047" lon="-0.33937">
        <ele>1658.4</ele>
        <time>2026-02-07T15:24:50.000Z</time>
      </trkpt>
      <trkpt lat="43.04047" lon="-0.33936">
        <ele>1658.5</ele>
        <time>2026-02-07T15:24:52.000Z</time>
      </trkpt>
      <trkpt lat="43.04047" lon="-0.33936">
        <ele>1658.5</ele>
        <time>2026-02-07T15:24:53.000Z</time>
      </trkpt>
      <trkpt lat="43.04048" lon="-0.33936">
        <ele>1658.6</ele>
        <time>2026-02-07T15:24:54.000Z</time>
      </trkpt>
      <trkpt lat="43.04048" lon="-0.33936">
        <ele>1658.6</ele>
        <time>2026-02-07T15:24:55.000Z</time>
      </trkpt>
      <trkpt lat="43.04048" lon="-0.33936">
        <ele>1658.6</ele>
        <time>2026-02-07T15:24:56.000Z</time>
      </trkpt>
      <trkpt lat="43.04048" lon="-0.33936">
        <ele>1658.6</ele>
        <time>2026-02-07T15:24:57.000Z</time>
      </trkpt>
      <trkpt lat="43.04048" lon="-0.33935">
        <ele>1658.7</ele>
        <time>2026-02-07T15:25:00.000Z</time>
      </trkpt>
      <trkpt lat="43.04048" lon="-0.33935">
        <ele>1658.7</ele>
        <time>2026-02-07T15:25:03.000Z</time>
      </trkpt>
      <trkpt lat="43.04048" lon="-0.33935">
        <ele>1658.6</ele>
        <time>2026-02-07T15:25:06.000Z</time>
      </trkpt>
      <trkpt lat="43.04047" lon="-0.33934">
        <ele>1658.6</ele>
        <time>2026-02-07T15:25:09.000Z</time>
      </trkpt>
      <trkpt lat="43.04046" lon="-0.33933">
        <ele>1658.6</ele>
        <time>2026-02-07T15:25:12.000Z</time>
      </trkpt>
      <trkpt lat="43.04045" lon="-0.33932">
        <ele>1658.5</ele>
        <time>2026-02-07T15:25:15.000Z</time>
      </trkpt>
      <trkpt lat="43.04044" lon="-0.33931">
        <ele>1658.3</ele>
        <time>2026-02-07T15:25:18.000Z</time>
      </trkpt>
      <trkpt lat="43.04044" lon="-0.33931">
        <ele>1658.1</ele>
        <time>2026-02-07T15:25:21.000Z</time>
      </trkpt>
      <trkpt lat="43.04044" lon="-0.33931">
        <ele>1658</ele>
        <time>2026-02-07T15:25:22.000Z</time>
      </trkpt>
      <trkpt lat="43.04044" lon="-0.33931">
        <ele>1658</ele>
        <time>2026-02-07T15:25:23.000Z</time>
      </trkpt>
      <trkpt lat="43.04044" lon="-0.33931">
        <ele>1658</ele>
        <time>2026-02-07T15:25:24.000Z</time>
      </trkpt>
      <trkpt lat="43.04044" lon="-0.33929">
        <ele>1657.9</ele>
        <time>2026-02-07T15:25:27.000Z</time>
      </trkpt>
      <trkpt lat="43.04044" lon="-0.33929">
        <ele>1657.8</ele>
        <time>2026-02-07T15:25:28.000Z</time>
      </trkpt>
      <trkpt lat="43.04044" lon="-0.33929">
        <ele>1657.7</ele>
        <time>2026-02-07T15:25:29.000Z</time>
      </trkpt>
      <trkpt lat="43.04044" lon="-0.33929">
        <ele>1657.5</ele>
        <time>2026-02-07T15:25:32.000Z</time>
      </trkpt>
      <trkpt lat="43.04044" lon="-0.33929">
        <ele>1657.5</ele>
        <time>2026-02-07T15:25:33.000Z</time>
      </trkpt>
      <trkpt lat="43.04044" lon="-0.33928">
        <ele>1657.4</ele>
        <time>2026-02-07T15:25:34.000Z</time>
      </trkpt>
      <trkpt lat="43.04044" lon="-0.33928">
        <ele>1657.3</ele>
        <time>2026-02-07T15:25:35.000Z</time>
      </trkpt>
      <trkpt lat="43.04044" lon="-0.33927">
        <ele>1657.2</ele>
        <time>2026-02-07T15:25:36.000Z</time>
      </trkpt>
      <trkpt lat="43.04044" lon="-0.33925">
        <ele>1656.9</ele>
        <time>2026-02-07T15:25:39.000Z</time>
      </trkpt>
      <trkpt lat="43.04044" lon="-0.33924">
        <ele>1656.5</ele>
        <time>2026-02-07T15:25:42.000Z</time>
      </trkpt>
      <trkpt lat="43.04044" lon="-0.33922">
        <ele>1656</ele>
        <time>2026-02-07T15:25:45.000Z</time>
      </trkpt>
      <trkpt lat="43.04043" lon="-0.33921">
        <ele>1655.5</ele>
        <time>2026-02-07T15:25:48.000Z</time>
      </trkpt>
      <trkpt lat="43.04043" lon="-0.3392">
        <ele>1655</ele>
        <time>2026-02-07T15:25:51.000Z</time>
      </trkpt>
      <trkpt lat="43.04042" lon="-0.33919">
        <ele>1654.4</ele>
        <time>2026-02-07T15:25:54.000Z</time>
      </trkpt>
      <trkpt lat="43.04042" lon="-0.33918">
        <ele>1653.7</ele>
        <time>2026-02-07T15:25:57.000Z</time>
      </trkpt>
      <trkpt lat="43.04041" lon="-0.33917">
        <ele>1653</ele>
        <time>2026-02-07T15:26:00.000Z</time>
      </trkpt>
      <trkpt lat="43.04041" lon="-0.33916">
        <ele>1652.4</ele>
        <time>2026-02-07T15:26:03.000Z</time>
      </trkpt>
      <trkpt lat="43.04041" lon="-0.33914">
        <ele>1651.9</ele>
        <time>2026-02-07T15:26:06.000Z</time>
      </trkpt>
      <trkpt lat="43.04041" lon="-0.33913">
        <ele>1651.5</ele>
        <time>2026-02-07T15:26:09.000Z</time>
      </trkpt>
      <trkpt lat="43.04042" lon="-0.33913">
        <ele>1651.2</ele>
        <time>2026-02-07T15:26:12.000Z</time>
      </trkpt>
      <trkpt lat="43.04042" lon="-0.33912">
        <ele>1651.1</ele>
        <time>2026-02-07T15:26:15.000Z</time>
      </trkpt>
      <trkpt lat="43.04042" lon="-0.33911">
        <ele>1650.9</ele>
        <time>2026-02-07T15:26:18.000Z</time>
      </trkpt>
      <trkpt lat="43.04042" lon="-0.33909">
        <ele>1650.7</ele>
        <time>2026-02-07T15:26:21.000Z</time>
      </trkpt>
      <trkpt lat="43.04042" lon="-0.33909">
        <ele>1650.5</ele>
        <time>2026-02-07T15:26:24.000Z</time>
      </trkpt>
      <trkpt lat="43.04042" lon="-0.33909">
        <ele>1650.4</ele>
        <time>2026-02-07T15:26:27.000Z</time>
      </trkpt>
      <trkpt lat="43.04041" lon="-0.33909">
        <ele>1650.2</ele>
        <time>2026-02-07T15:26:30.000Z</time>
      </trkpt>
      <trkpt lat="43.04041" lon="-0.33909">
        <ele>1650</ele>
        <time>2026-02-07T15:26:33.000Z</time>
      </trkpt>
      <trkpt lat="43.04041" lon="-0.33909">
        <ele>1649.9</ele>
        <time>2026-02-07T15:26:36.000Z</time>
      </trkpt>
      <trkpt lat="43.0404" lon="-0.33908">
        <ele>1649.8</ele>
        <time>2026-02-07T15:26:39.000Z</time>
      </trkpt>
      <trkpt lat="43.0404" lon="-0.33908">
        <ele>1649.7</ele>
        <time>2026-02-07T15:26:42.000Z</time>
      </trkpt>
      <trkpt lat="43.04041" lon="-0.33907">
        <ele>1649.6</ele>
        <time>2026-02-07T15:26:45.000Z</time>
      </trkpt>
      <trkpt lat="43.04041" lon="-0.33907">
        <ele>1649.6</ele>
        <time>2026-02-07T15:26:48.000Z</time>
      </trkpt>
      <trkpt lat="43.04041" lon="-0.33907">
        <ele>1649.6</ele>
        <time>2026-02-07T15:26:51.000Z</time>
      </trkpt>
      <trkpt lat="43.04041" lon="-0.33907">
        <ele>1649.6</ele>
        <time>2026-02-07T15:26:52.000Z</time>
      </trkpt>
      <trkpt lat="43.04041" lon="-0.33907">
        <ele>1649.5</ele>
        <time>2026-02-07T15:26:53.000Z</time>
      </trkpt>
      <trkpt lat="43.04041" lon="-0.33907">
        <ele>1649.5</ele>
        <time>2026-02-07T15:26:54.000Z</time>
      </trkpt>
      <trkpt lat="43.04041" lon="-0.33907">
        <ele>1649.5</ele>
        <time>2026-02-07T15:26:57.000Z</time>
      </trkpt>
      <trkpt lat="43.04041" lon="-0.33907">
        <ele>1649.5</ele>
        <time>2026-02-07T15:27:00.000Z</time>
      </trkpt>
      <trkpt lat="43.04041" lon="-0.33907">
        <ele>1649.5</ele>
        <time>2026-02-07T15:27:03.000Z</time>
      </trkpt>
      <trkpt lat="43.04041" lon="-0.33907">
        <ele>1649.5</ele>
        <time>2026-02-07T15:27:06.000Z</time>
      </trkpt>
      <trkpt lat="43.04041" lon="-0.33907">
        <ele>1649.5</ele>
        <time>2026-02-07T15:27:09.000Z</time>
      </trkpt>
      <trkpt lat="43.04041" lon="-0.33906">
        <ele>1649.5</ele>
        <time>2026-02-07T15:27:12.000Z</time>
      </trkpt>
      <trkpt lat="43.04042" lon="-0.33906">
        <ele>1649.4</ele>
        <time>2026-02-07T15:27:13.000Z</time>
      </trkpt>
      <trkpt lat="43.04043" lon="-0.33905">
        <ele>1649.4</ele>
        <time>2026-02-07T15:27:16.000Z</time>
      </trkpt>
      <trkpt lat="43.04044" lon="-0.33903">
        <ele>1649.4</ele>
        <time>2026-02-07T15:27:19.000Z</time>
      </trkpt>
      <trkpt lat="43.04044" lon="-0.33903">
        <ele>1649.4</ele>
        <time>2026-02-07T15:27:22.000Z</time>
      </trkpt>
      <trkpt lat="43.04044" lon="-0.33903">
        <ele>1649.3</ele>
        <time>2026-02-07T15:27:25.000Z</time>
      </trkpt>
      <trkpt lat="43.04043" lon="-0.33902">
        <ele>1649.3</ele>
        <time>2026-02-07T15:27:28.000Z</time>
      </trkpt>
      <trkpt lat="43.04043" lon="-0.33901">
        <ele>1649.2</ele>
        <time>2026-02-07T15:27:31.000Z</time>
      </trkpt>
      <trkpt lat="43.04043" lon="-0.33901">
        <ele>1649.2</ele>
        <time>2026-02-07T15:27:34.000Z</time>
      </trkpt>
      <trkpt lat="43.04043" lon="-0.33899">
        <ele>1649.1</ele>
        <time>2026-02-07T15:27:37.000Z</time>
      </trkpt>
      <trkpt lat="43.04043" lon="-0.33899">
        <ele>1649</ele>
        <time>2026-02-07T15:27:40.000Z</time>
      </trkpt>
      <trkpt lat="43.04043" lon="-0.33899">
        <ele>1649</ele>
        <time>2026-02-07T15:27:42.000Z</time>
      </trkpt>
      <trkpt lat="43.04043" lon="-0.33899">
        <ele>1649</ele>
        <time>2026-02-07T15:27:43.000Z</time>
      </trkpt>
      <trkpt lat="43.04043" lon="-0.33899">
        <ele>1648.9</ele>
        <time>2026-02-07T15:27:46.000Z</time>
      </trkpt>
      <trkpt lat="43.04043" lon="-0.33899">
        <ele>1648.8</ele>
        <time>2026-02-07T15:27:49.000Z</time>
      </trkpt>
      <trkpt lat="43.04043" lon="-0.33899">
        <ele>1648.8</ele>
        <time>2026-02-07T15:27:52.000Z</time>
      </trkpt>
      <trkpt lat="43.04043" lon="-0.33899">
        <ele>1648.7</ele>
        <time>2026-02-07T15:27:55.000Z</time>
      </trkpt>
      <trkpt lat="43.04043" lon="-0.33899">
        <ele>1648.6</ele>
        <time>2026-02-07T15:27:58.000Z</time>
      </trkpt>
      <trkpt lat="43.04043" lon="-0.33899">
        <ele>1648.6</ele>
        <time>2026-02-07T15:27:59.000Z</time>
      </trkpt>
      <trkpt lat="43.04043" lon="-0.33899">
        <ele>1648.5</ele>
        <time>2026-02-07T15:28:00.000Z</time>
      </trkpt>
      <trkpt lat="43.04043" lon="-0.33899">
        <ele>1648.5</ele>
        <time>2026-02-07T15:28:01.000Z</time>
      </trkpt>
      <trkpt lat="43.04043" lon="-0.33899">
        <ele>1648.5</ele>
        <time>2026-02-07T15:28:02.000Z</time>
      </trkpt>
      <trkpt lat="43.04043" lon="-0.33899">
        <ele>1648.5</ele>
        <time>2026-02-07T15:28:03.000Z</time>
      </trkpt>
      <trkpt lat="43.04043" lon="-0.33899">
        <ele>1648.5</ele>
        <time>2026-02-07T15:28:04.000Z</time>
      </trkpt>
      <trkpt lat="43.04043" lon="-0.33899">
        <ele>1648.5</ele>
        <time>2026-02-07T15:28:07.000Z</time>
      </trkpt>
      <trkpt lat="43.04043" lon="-0.33899">
        <ele>1648.4</ele>
        <time>2026-02-07T15:28:10.000Z</time>
      </trkpt>
      <trkpt lat="43.04043" lon="-0.33899">
        <ele>1648.4</ele>
        <time>2026-02-07T15:28:13.000Z</time>
      </trkpt>
      <trkpt lat="43.04043" lon="-0.33899">
        <ele>1648.4</ele>
        <time>2026-02-07T15:28:16.000Z</time>
      </trkpt>
      <trkpt lat="43.04043" lon="-0.33899">
        <ele>1648.4</ele>
        <time>2026-02-07T15:28:19.000Z</time>
      </trkpt>
      <trkpt lat="43.04043" lon="-0.33899">
        <ele>1648.4</ele>
        <time>2026-02-07T15:28:22.000Z</time>
      </trkpt>
      <trkpt lat="43.04043" lon="-0.33899">
        <ele>1648.4</ele>
        <time>2026-02-07T15:28:25.000Z</time>
      </trkpt>
      <trkpt lat="43.04043" lon="-0.33899">
        <ele>1648.4</ele>
        <time>2026-02-07T15:28:28.000Z</time>
      </trkpt>
      <trkpt lat="43.04043" lon="-0.33899">
        <ele>1648.3</ele>
        <time>2026-02-07T15:28:31.000Z</time>
      </trkpt>
      <trkpt lat="43.04043" lon="-0.33899">
        <ele>1648.3</ele>
        <time>2026-02-07T15:28:34.000Z</time>
      </trkpt>
      <trkpt lat="43.04043" lon="-0.33899">
        <ele>1648.3</ele>
        <time>2026-02-07T15:28:37.000Z</time>
      </trkpt>
      <trkpt lat="43.04043" lon="-0.33899">
        <ele>1648.3</ele>
        <time>2026-02-07T15:28:40.000Z</time>
      </trkpt>
      <trkpt lat="43.04043" lon="-0.33899">
        <ele>1648.3</ele>
        <time>2026-02-07T15:28:43.000Z</time>
      </trkpt>
      <trkpt lat="43.04043" lon="-0.33899">
        <ele>1648.3</ele>
        <time>2026-02-07T15:28:46.000Z</time>
      </trkpt>
      <trkpt lat="43.04043" lon="-0.33899">
        <ele>1648.3</ele>
        <time>2026-02-07T15:28:49.000Z</time>
      </trkpt>
      <trkpt lat="43.04043" lon="-0.33899">
        <ele>1648.2</ele>
        <time>2026-02-07T15:28:52.000Z</time>
      </trkpt>
      <trkpt lat="43.04043" lon="-0.33899">
        <ele>1648.2</ele>
        <time>2026-02-07T15:28:55.000Z</time>
      </trkpt>
      <trkpt lat="43.04043" lon="-0.33899">
        <ele>1648.2</ele>
        <time>2026-02-07T15:28:58.000Z</time>
      </trkpt>
      <trkpt lat="43.04043" lon="-0.33899">
        <ele>1648.2</ele>
        <time>2026-02-07T15:29:01.000Z</time>
      </trkpt>
      <trkpt lat="43.04043" lon="-0.33899">
        <ele>1648.2</ele>
        <time>2026-02-07T15:29:04.000Z</time>
      </trkpt>
      <trkpt lat="43.04043" lon="-0.33899">
        <ele>1648.3</ele>
        <time>2026-02-07T15:29:07.000Z</time>
      </trkpt>
      <trkpt lat="43.04043" lon="-0.33899">
        <ele>1648.2</ele>
        <time>2026-02-07T15:29:10.000Z</time>
      </trkpt>
      <trkpt lat="43.04043" lon="-0.33899">
        <ele>1648.2</ele>
        <time>2026-02-07T15:29:13.000Z</time>
      </trkpt>
      <trkpt lat="43.04043" lon="-0.33899">
        <ele>1648.2</ele>
        <time>2026-02-07T15:29:16.000Z</time>
      </trkpt>
      <trkpt lat="43.04043" lon="-0.33899">
        <ele>1648.2</ele>
        <time>2026-02-07T15:29:19.000Z</time>
      </trkpt>
      <trkpt lat="43.04043" lon="-0.33899">
        <ele>1648.3</ele>
        <time>2026-02-07T15:29:22.000Z</time>
      </trkpt>
      <trkpt lat="43.04043" lon="-0.33899">
        <ele>1648.3</ele>
        <time>2026-02-07T15:29:23.000Z</time>
      </trkpt>
      <trkpt lat="43.04045" lon="-0.33902">
        <ele>1648.3</ele>
        <time>2026-02-07T15:29:26.000Z</time>
      </trkpt>
      <trkpt lat="43.04046" lon="-0.33904">
        <ele>1648.3</ele>
        <time>2026-02-07T15:29:29.000Z</time>
      </trkpt>
      <trkpt lat="43.04046" lon="-0.33905">
        <ele>1648.3</ele>
        <time>2026-02-07T15:29:32.000Z</time>
      </trkpt>
      <trkpt lat="43.04045" lon="-0.33906">
        <ele>1648.4</ele>
        <time>2026-02-07T15:29:35.000Z</time>
      </trkpt>
      <trkpt lat="43.04045" lon="-0.33907">
        <ele>1648.4</ele>
        <time>2026-02-07T15:29:38.000Z</time>
      </trkpt>
      <trkpt lat="43.04045" lon="-0.33908">
        <ele>1648.5</ele>
        <time>2026-02-07T15:29:41.000Z</time>
      </trkpt>
      <trkpt lat="43.04044" lon="-0.33911">
        <ele>1648.6</ele>
        <time>2026-02-07T15:29:44.000Z</time>
      </trkpt>
      <trkpt lat="43.04044" lon="-0.33912">
        <ele>1648.7</ele>
        <time>2026-02-07T15:29:47.000Z</time>
      </trkpt>
      <trkpt lat="43.04043" lon="-0.33914">
        <ele>1648.7</ele>
        <time>2026-02-07T15:29:50.000Z</time>
      </trkpt>
      <trkpt lat="43.04043" lon="-0.33915">
        <ele>1648.8</ele>
        <time>2026-02-07T15:29:53.000Z</time>
      </trkpt>
      <trkpt lat="43.04042" lon="-0.33917">
        <ele>1648.8</ele>
        <time>2026-02-07T15:29:56.000Z</time>
      </trkpt>
      <trkpt lat="43.04041" lon="-0.33918">
        <ele>1648.8</ele>
        <time>2026-02-07T15:29:59.000Z</time>
      </trkpt>
      <trkpt lat="43.04041" lon="-0.33918">
        <ele>1648.8</ele>
        <time>2026-02-07T15:30:02.000Z</time>
      </trkpt>
      <trkpt lat="43.04041" lon="-0.33919">
        <ele>1648.8</ele>
        <time>2026-02-07T15:30:05.000Z</time>
      </trkpt>
      <trkpt lat="43.0404" lon="-0.33919">
        <ele>1648.7</ele>
        <time>2026-02-07T15:30:08.000Z</time>
      </trkpt>
      <trkpt lat="43.04039" lon="-0.33919">
        <ele>1648.6</ele>
        <time>2026-02-07T15:30:11.000Z</time>
      </trkpt>
      <trkpt lat="43.04037" lon="-0.33918">
        <ele>1648.5</ele>
        <time>2026-02-07T15:30:14.000Z</time>
      </trkpt>
      <trkpt lat="43.04036" lon="-0.33918">
        <ele>1648.2</ele>
        <time>2026-02-07T15:30:17.000Z</time>
      </trkpt>
      <trkpt lat="43.04034" lon="-0.33916">
        <ele>1647.6</ele>
        <time>2026-02-07T15:30:20.000Z</time>
      </trkpt>
      <trkpt lat="43.04032" lon="-0.33913">
        <ele>1646.6</ele>
        <time>2026-02-07T15:30:23.000Z</time>
      </trkpt>
      <trkpt lat="43.0403" lon="-0.3391">
        <ele>1645.4</ele>
        <time>2026-02-07T15:30:26.000Z</time>
      </trkpt>
      <trkpt lat="43.04028" lon="-0.33908">
        <ele>1644.4</ele>
        <time>2026-02-07T15:30:29.000Z</time>
      </trkpt>
      <trkpt lat="43.04027" lon="-0.33905">
        <ele>1643.6</ele>
        <time>2026-02-07T15:30:32.000Z</time>
      </trkpt>
      <trkpt lat="43.04026" lon="-0.33905">
        <ele>1643.1</ele>
        <time>2026-02-07T15:30:35.000Z</time>
      </trkpt>
      <trkpt lat="43.04025" lon="-0.33905">
        <ele>1642.8</ele>
        <time>2026-02-07T15:30:38.000Z</time>
      </trkpt>
      <trkpt lat="43.04024" lon="-0.33906">
        <ele>1642.7</ele>
        <time>2026-02-07T15:30:41.000Z</time>
      </trkpt>
      <trkpt lat="43.04024" lon="-0.33907">
        <ele>1642.7</ele>
        <time>2026-02-07T15:30:44.000Z</time>
      </trkpt>
      <trkpt lat="43.04024" lon="-0.33907">
        <ele>1642.6</ele>
        <time>2026-02-07T15:30:47.000Z</time>
      </trkpt>
      <trkpt lat="43.04024" lon="-0.33907">
        <ele>1642.6</ele>
        <time>2026-02-07T15:30:48.000Z</time>
      </trkpt>
      <trkpt lat="43.04024" lon="-0.33907">
        <ele>1642.5</ele>
        <time>2026-02-07T15:30:49.000Z</time>
      </trkpt>
      <trkpt lat="43.04024" lon="-0.33907">
        <ele>1642.5</ele>
        <time>2026-02-07T15:30:52.000Z</time>
      </trkpt>
      <trkpt lat="43.04024" lon="-0.33906">
        <ele>1642.4</ele>
        <time>2026-02-07T15:30:54.000Z</time>
      </trkpt>
      <trkpt lat="43.04023" lon="-0.33907">
        <ele>1642.4</ele>
        <time>2026-02-07T15:30:55.000Z</time>
      </trkpt>
      <trkpt lat="43.04023" lon="-0.33906">
        <ele>1642.4</ele>
        <time>2026-02-07T15:30:56.000Z</time>
      </trkpt>
      <trkpt lat="43.04023" lon="-0.33906">
        <ele>1642.3</ele>
        <time>2026-02-07T15:30:59.000Z</time>
      </trkpt>
      <trkpt lat="43.04023" lon="-0.33906">
        <ele>1642.3</ele>
        <time>2026-02-07T15:31:00.000Z</time>
      </trkpt>
      <trkpt lat="43.04023" lon="-0.33906">
        <ele>1642.2</ele>
        <time>2026-02-07T15:31:01.000Z</time>
      </trkpt>
      <trkpt lat="43.04023" lon="-0.33906">
        <ele>1642.1</ele>
        <time>2026-02-07T15:31:04.000Z</time>
      </trkpt>
      <trkpt lat="43.04023" lon="-0.33906">
        <ele>1642</ele>
        <time>2026-02-07T15:31:07.000Z</time>
      </trkpt>
      <trkpt lat="43.04023" lon="-0.33906">
        <ele>1642</ele>
        <time>2026-02-07T15:31:08.000Z</time>
      </trkpt>
      <trkpt lat="43.04023" lon="-0.33906">
        <ele>1641.9</ele>
        <time>2026-02-07T15:31:09.000Z</time>
      </trkpt>
      <trkpt lat="43.04022" lon="-0.33907">
        <ele>1641.8</ele>
        <time>2026-02-07T15:31:12.000Z</time>
      </trkpt>
      <trkpt lat="43.04022" lon="-0.33906">
        <ele>1641.7</ele>
        <time>2026-02-07T15:31:15.000Z</time>
      </trkpt>
      <trkpt lat="43.04022" lon="-0.33906">
        <ele>1641.5</ele>
        <time>2026-02-07T15:31:18.000Z</time>
      </trkpt>
      <trkpt lat="43.04022" lon="-0.33906">
        <ele>1641.4</ele>
        <time>2026-02-07T15:31:20.000Z</time>
      </trkpt>
      <trkpt lat="43.04022" lon="-0.33906">
        <ele>1641.4</ele>
        <time>2026-02-07T15:31:21.000Z</time>
      </trkpt>
      <trkpt lat="43.04022" lon="-0.33906">
        <ele>1641.4</ele>
        <time>2026-02-07T15:31:22.000Z</time>
      </trkpt>
      <trkpt lat="43.04022" lon="-0.33906">
        <ele>1641.3</ele>
        <time>2026-02-07T15:31:25.000Z</time>
      </trkpt>
      <trkpt lat="43.04022" lon="-0.33906">
        <ele>1641.3</ele>
        <time>2026-02-07T15:31:27.000Z</time>
      </trkpt>
      <trkpt lat="43.04021" lon="-0.33906">
        <ele>1641.2</ele>
        <time>2026-02-07T15:31:28.000Z</time>
      </trkpt>
      <trkpt lat="43.04021" lon="-0.33907">
        <ele>1641.1</ele>
        <time>2026-02-07T15:31:31.000Z</time>
      </trkpt>
      <trkpt lat="43.0402" lon="-0.33907">
        <ele>1641</ele>
        <time>2026-02-07T15:31:34.000Z</time>
      </trkpt>
      <trkpt lat="43.04019" lon="-0.33909">
        <ele>1640.8</ele>
        <time>2026-02-07T15:31:37.000Z</time>
      </trkpt>
      <trkpt lat="43.04017" lon="-0.33909">
        <ele>1640.6</ele>
        <time>2026-02-07T15:31:40.000Z</time>
      </trkpt>
      <trkpt lat="43.04017" lon="-0.3391">
        <ele>1640.4</ele>
        <time>2026-02-07T15:31:43.000Z</time>
      </trkpt>
      <trkpt lat="43.04016" lon="-0.33911">
        <ele>1640.2</ele>
        <time>2026-02-07T15:31:46.000Z</time>
      </trkpt>
      <trkpt lat="43.04016" lon="-0.33911">
        <ele>1639.8</ele>
        <time>2026-02-07T15:31:49.000Z</time>
      </trkpt>
      <trkpt lat="43.04015" lon="-0.33911">
        <ele>1639.4</ele>
        <time>2026-02-07T15:31:52.000Z</time>
      </trkpt>
      <trkpt lat="43.04015" lon="-0.33911">
        <ele>1639.2</ele>
        <time>2026-02-07T15:31:54.000Z</time>
      </trkpt>
      <trkpt lat="43.04015" lon="-0.33911">
        <ele>1639.1</ele>
        <time>2026-02-07T15:31:55.000Z</time>
      </trkpt>
      <trkpt lat="43.04015" lon="-0.33911">
        <ele>1639</ele>
        <time>2026-02-07T15:31:56.000Z</time>
      </trkpt>
      <trkpt lat="43.04015" lon="-0.33912">
        <ele>1638.9</ele>
        <time>2026-02-07T15:31:57.000Z</time>
      </trkpt>
      <trkpt lat="43.04015" lon="-0.33912">
        <ele>1638.9</ele>
        <time>2026-02-07T15:31:58.000Z</time>
      </trkpt>
      <trkpt lat="43.04014" lon="-0.33912">
        <ele>1638.7</ele>
        <time>2026-02-07T15:32:01.000Z</time>
      </trkpt>
      <trkpt lat="43.04013" lon="-0.33911">
        <ele>1638.4</ele>
        <time>2026-02-07T15:32:04.000Z</time>
      </trkpt>
      <trkpt lat="43.04012" lon="-0.33911">
        <ele>1638.1</ele>
        <time>2026-02-07T15:32:07.000Z</time>
      </trkpt>
      <trkpt lat="43.04011" lon="-0.3391">
        <ele>1637.7</ele>
        <time>2026-02-07T15:32:10.000Z</time>
      </trkpt>
      <trkpt lat="43.0401" lon="-0.3391">
        <ele>1637.3</ele>
        <time>2026-02-07T15:32:13.000Z</time>
      </trkpt>
      <trkpt lat="43.0401" lon="-0.33911">
        <ele>1636.8</ele>
        <time>2026-02-07T15:32:16.000Z</time>
      </trkpt>
      <trkpt lat="43.04009" lon="-0.33912">
        <ele>1636.5</ele>
        <time>2026-02-07T15:32:19.000Z</time>
      </trkpt>
      <trkpt lat="43.04008" lon="-0.33914">
        <ele>1636.2</ele>
        <time>2026-02-07T15:32:22.000Z</time>
      </trkpt>
      <trkpt lat="43.04007" lon="-0.33915">
        <ele>1636</ele>
        <time>2026-02-07T15:32:25.000Z</time>
      </trkpt>
      <trkpt lat="43.04006" lon="-0.33915">
        <ele>1635.7</ele>
        <time>2026-02-07T15:32:28.000Z</time>
      </trkpt>
      <trkpt lat="43.04005" lon="-0.33916">
        <ele>1635.4</ele>
        <time>2026-02-07T15:32:31.000Z</time>
      </trkpt>
      <trkpt lat="43.04005" lon="-0.33914">
        <ele>1635.1</ele>
        <time>2026-02-07T15:32:34.000Z</time>
      </trkpt>
      <trkpt lat="43.04005" lon="-0.33914">
        <ele>1634.8</ele>
        <time>2026-02-07T15:32:37.000Z</time>
      </trkpt>
      <trkpt lat="43.04004" lon="-0.33913">
        <ele>1634.4</ele>
        <time>2026-02-07T15:32:40.000Z</time>
      </trkpt>
      <trkpt lat="43.04004" lon="-0.33912">
        <ele>1634.1</ele>
        <time>2026-02-07T15:32:43.000Z</time>
      </trkpt>
      <trkpt lat="43.04004" lon="-0.33913">
        <ele>1633.8</ele>
        <time>2026-02-07T15:32:46.000Z</time>
      </trkpt>
      <trkpt lat="43.04004" lon="-0.33913">
        <ele>1633.4</ele>
        <time>2026-02-07T15:32:49.000Z</time>
      </trkpt>
      <trkpt lat="43.04004" lon="-0.33912">
        <ele>1633.1</ele>
        <time>2026-02-07T15:32:52.000Z</time>
      </trkpt>
      <trkpt lat="43.04003" lon="-0.33911">
        <ele>1632.6</ele>
        <time>2026-02-07T15:32:55.000Z</time>
      </trkpt>
      <trkpt lat="43.04002" lon="-0.33912">
        <ele>1632.3</ele>
        <time>2026-02-07T15:32:58.000Z</time>
      </trkpt>
      <trkpt lat="43.04002" lon="-0.33912">
        <ele>1632</ele>
        <time>2026-02-07T15:33:01.000Z</time>
      </trkpt>
      <trkpt lat="43.04001" lon="-0.33912">
        <ele>1631.7</ele>
        <time>2026-02-07T15:33:04.000Z</time>
      </trkpt>
      <trkpt lat="43.04" lon="-0.33911">
        <ele>1631.4</ele>
        <time>2026-02-07T15:33:07.000Z</time>
      </trkpt>
      <trkpt lat="43.03999" lon="-0.33911">
        <ele>1631</ele>
        <time>2026-02-07T15:33:10.000Z</time>
      </trkpt>
      <trkpt lat="43.03998" lon="-0.33912">
        <ele>1630.4</ele>
        <time>2026-02-07T15:33:13.000Z</time>
      </trkpt>
      <trkpt lat="43.03996" lon="-0.33914">
        <ele>1630</ele>
        <time>2026-02-07T15:33:16.000Z</time>
      </trkpt>
      <trkpt lat="43.03995" lon="-0.33914">
        <ele>1629.5</ele>
        <time>2026-02-07T15:33:19.000Z</time>
      </trkpt>
      <trkpt lat="43.03993" lon="-0.33914">
        <ele>1629.2</ele>
        <time>2026-02-07T15:33:22.000Z</time>
      </trkpt>
      <trkpt lat="43.03993" lon="-0.33915">
        <ele>1628.9</ele>
        <time>2026-02-07T15:33:25.000Z</time>
      </trkpt>
      <trkpt lat="43.03991" lon="-0.33915">
        <ele>1628.5</ele>
        <time>2026-02-07T15:33:28.000Z</time>
      </trkpt>
      <trkpt lat="43.0399" lon="-0.33916">
        <ele>1628.2</ele>
        <time>2026-02-07T15:33:31.000Z</time>
      </trkpt>
      <trkpt lat="43.03989" lon="-0.33916">
        <ele>1627.8</ele>
        <time>2026-02-07T15:33:34.000Z</time>
      </trkpt>
      <trkpt lat="43.03989" lon="-0.33915">
        <ele>1627.5</ele>
        <time>2026-02-07T15:33:37.000Z</time>
      </trkpt>
      <trkpt lat="43.03989" lon="-0.33915">
        <ele>1627.3</ele>
        <time>2026-02-07T15:33:40.000Z</time>
      </trkpt>
      <trkpt lat="43.03988" lon="-0.33914">
        <ele>1627.1</ele>
        <time>2026-02-07T15:33:43.000Z</time>
      </trkpt>
      <trkpt lat="43.03986" lon="-0.33913">
        <ele>1626.9</ele>
        <time>2026-02-07T15:33:46.000Z</time>
      </trkpt>
      <trkpt lat="43.03985" lon="-0.33913">
        <ele>1626.6</ele>
        <time>2026-02-07T15:33:49.000Z</time>
      </trkpt>
      <trkpt lat="43.03985" lon="-0.33913">
        <ele>1626.4</ele>
        <time>2026-02-07T15:33:52.000Z</time>
      </trkpt>
      <trkpt lat="43.03984" lon="-0.33913">
        <ele>1626.2</ele>
        <time>2026-02-07T15:33:55.000Z</time>
      </trkpt>
      <trkpt lat="43.03984" lon="-0.33912">
        <ele>1626</ele>
        <time>2026-02-07T15:33:58.000Z</time>
      </trkpt>
      <trkpt lat="43.03983" lon="-0.33911">
        <ele>1625.9</ele>
        <time>2026-02-07T15:34:01.000Z</time>
      </trkpt>
      <trkpt lat="43.03983" lon="-0.33909">
        <ele>1625.6</ele>
        <time>2026-02-07T15:34:04.000Z</time>
      </trkpt>
      <trkpt lat="43.03983" lon="-0.33909">
        <ele>1625.4</ele>
        <time>2026-02-07T15:34:07.000Z</time>
      </trkpt>
      <trkpt lat="43.03984" lon="-0.33908">
        <ele>1625.1</ele>
        <time>2026-02-07T15:34:10.000Z</time>
      </trkpt>
      <trkpt lat="43.03984" lon="-0.33908">
        <ele>1624.8</ele>
        <time>2026-02-07T15:34:13.000Z</time>
      </trkpt>
      <trkpt lat="43.03984" lon="-0.33907">
        <ele>1624.5</ele>
        <time>2026-02-07T15:34:16.000Z</time>
      </trkpt>
      <trkpt lat="43.03983" lon="-0.33906">
        <ele>1624.3</ele>
        <time>2026-02-07T15:34:19.000Z</time>
      </trkpt>
      <trkpt lat="43.03982" lon="-0.33905">
        <ele>1624</ele>
        <time>2026-02-07T15:34:22.000Z</time>
      </trkpt>
      <trkpt lat="43.03981" lon="-0.33904">
        <ele>1623.6</ele>
        <time>2026-02-07T15:34:25.000Z</time>
      </trkpt>
      <trkpt lat="43.0398" lon="-0.33904">
        <ele>1623.2</ele>
        <time>2026-02-07T15:34:28.000Z</time>
      </trkpt>
      <trkpt lat="43.03979" lon="-0.33904">
        <ele>1622.8</ele>
        <time>2026-02-07T15:34:31.000Z</time>
      </trkpt>
      <trkpt lat="43.03979" lon="-0.33904">
        <ele>1622.2</ele>
        <time>2026-02-07T15:34:34.000Z</time>
      </trkpt>
      <trkpt lat="43.03978" lon="-0.33904">
        <ele>1621.8</ele>
        <time>2026-02-07T15:34:37.000Z</time>
      </trkpt>
      <trkpt lat="43.03977" lon="-0.33904">
        <ele>1621.3</ele>
        <time>2026-02-07T15:34:40.000Z</time>
      </trkpt>
      <trkpt lat="43.03977" lon="-0.33904">
        <ele>1620.8</ele>
        <time>2026-02-07T15:34:43.000Z</time>
      </trkpt>
      <trkpt lat="43.03977" lon="-0.33904">
        <ele>1620.6</ele>
        <time>2026-02-07T15:34:46.000Z</time>
      </trkpt>
      <trkpt lat="43.03976" lon="-0.33904">
        <ele>1620.4</ele>
        <time>2026-02-07T15:34:49.000Z</time>
      </trkpt>
      <trkpt lat="43.03977" lon="-0.33904">
        <ele>1620.4</ele>
        <time>2026-02-07T15:34:52.000Z</time>
      </trkpt>
      <trkpt lat="43.03976" lon="-0.33904">
        <ele>1620.3</ele>
        <time>2026-02-07T15:34:55.000Z</time>
      </trkpt>
      <trkpt lat="43.03975" lon="-0.33903">
        <ele>1620.2</ele>
        <time>2026-02-07T15:34:58.000Z</time>
      </trkpt>
      <trkpt lat="43.03974" lon="-0.33903">
        <ele>1620.1</ele>
        <time>2026-02-07T15:35:01.000Z</time>
      </trkpt>
      <trkpt lat="43.03974" lon="-0.33902">
        <ele>1619.9</ele>
        <time>2026-02-07T15:35:04.000Z</time>
      </trkpt>
      <trkpt lat="43.03974" lon="-0.33902">
        <ele>1619.7</ele>
        <time>2026-02-07T15:35:07.000Z</time>
      </trkpt>
      <trkpt lat="43.03974" lon="-0.33902">
        <ele>1619.5</ele>
        <time>2026-02-07T15:35:10.000Z</time>
      </trkpt>
      <trkpt lat="43.03974" lon="-0.33901">
        <ele>1619.3</ele>
        <time>2026-02-07T15:35:13.000Z</time>
      </trkpt>
      <trkpt lat="43.03973" lon="-0.33901">
        <ele>1619.2</ele>
        <time>2026-02-07T15:35:16.000Z</time>
      </trkpt>
      <trkpt lat="43.03973" lon="-0.339">
        <ele>1619.2</ele>
        <time>2026-02-07T15:35:17.000Z</time>
      </trkpt>
      <trkpt lat="43.03973" lon="-0.339">
        <ele>1619.2</ele>
        <time>2026-02-07T15:35:18.000Z</time>
      </trkpt>
      <trkpt lat="43.03973" lon="-0.339">
        <ele>1619.2</ele>
        <time>2026-02-07T15:35:19.000Z</time>
      </trkpt>
      <trkpt lat="43.03973" lon="-0.339">
        <ele>1619.2</ele>
        <time>2026-02-07T15:35:20.000Z</time>
      </trkpt>
      <trkpt lat="43.03973" lon="-0.339">
        <ele>1619.2</ele>
        <time>2026-02-07T15:35:21.000Z</time>
      </trkpt>
      <trkpt lat="43.03971" lon="-0.33901">
        <ele>1619.1</ele>
        <time>2026-02-07T15:35:24.000Z</time>
      </trkpt>
      <trkpt lat="43.0397" lon="-0.33901">
        <ele>1618.9</ele>
        <time>2026-02-07T15:35:27.000Z</time>
      </trkpt>
      <trkpt lat="43.03969" lon="-0.33901">
        <ele>1618.8</ele>
        <time>2026-02-07T15:35:30.000Z</time>
      </trkpt>
      <trkpt lat="43.03968" lon="-0.33901">
        <ele>1618.5</ele>
        <time>2026-02-07T15:35:33.000Z</time>
      </trkpt>
      <trkpt lat="43.03967" lon="-0.33901">
        <ele>1618.3</ele>
        <time>2026-02-07T15:35:36.000Z</time>
      </trkpt>
      <trkpt lat="43.03967" lon="-0.339">
        <ele>1618.1</ele>
        <time>2026-02-07T15:35:39.000Z</time>
      </trkpt>
      <trkpt lat="43.03967" lon="-0.33899">
        <ele>1618</ele>
        <time>2026-02-07T15:35:40.000Z</time>
      </trkpt>
      <trkpt lat="43.03967" lon="-0.33899">
        <ele>1617.9</ele>
        <time>2026-02-07T15:35:41.000Z</time>
      </trkpt>
      <trkpt lat="43.03967" lon="-0.33899">
        <ele>1617.9</ele>
        <time>2026-02-07T15:35:42.000Z</time>
      </trkpt>
      <trkpt lat="43.03967" lon="-0.33899">
        <ele>1617.8</ele>
        <time>2026-02-07T15:35:45.000Z</time>
      </trkpt>
      <trkpt lat="43.03966" lon="-0.33899">
        <ele>1617.7</ele>
        <time>2026-02-07T15:35:46.000Z</time>
      </trkpt>
      <trkpt lat="43.03965" lon="-0.33899">
        <ele>1617.5</ele>
        <time>2026-02-07T15:35:49.000Z</time>
      </trkpt>
      <trkpt lat="43.03964" lon="-0.33898">
        <ele>1617.3</ele>
        <time>2026-02-07T15:35:52.000Z</time>
      </trkpt>
      <trkpt lat="43.03964" lon="-0.33897">
        <ele>1617</ele>
        <time>2026-02-07T15:35:55.000Z</time>
      </trkpt>
      <trkpt lat="43.03964" lon="-0.33897">
        <ele>1617</ele>
        <time>2026-02-07T15:35:56.000Z</time>
      </trkpt>
      <trkpt lat="43.03963" lon="-0.33897">
        <ele>1616.6</ele>
        <time>2026-02-07T15:35:59.000Z</time>
      </trkpt>
      <trkpt lat="43.03962" lon="-0.33897">
        <ele>1616.5</ele>
        <time>2026-02-07T15:36:00.000Z</time>
      </trkpt>
      <trkpt lat="43.03961" lon="-0.33897">
        <ele>1616.4</ele>
        <time>2026-02-07T15:36:01.000Z</time>
      </trkpt>
      <trkpt lat="43.0396" lon="-0.33897">
        <ele>1616.3</ele>
        <time>2026-02-07T15:36:02.000Z</time>
      </trkpt>
      <trkpt lat="43.03959" lon="-0.33897">
        <ele>1616</ele>
        <time>2026-02-07T15:36:05.000Z</time>
      </trkpt>
      <trkpt lat="43.03957" lon="-0.33897">
        <ele>1615.5</ele>
        <time>2026-02-07T15:36:08.000Z</time>
      </trkpt>
      <trkpt lat="43.03955" lon="-0.33896">
        <ele>1615</ele>
        <time>2026-02-07T15:36:11.000Z</time>
      </trkpt>
      <trkpt lat="43.03954" lon="-0.33896">
        <ele>1614.3</ele>
        <time>2026-02-07T15:36:14.000Z</time>
      </trkpt>
      <trkpt lat="43.03954" lon="-0.33894">
        <ele>1613.7</ele>
        <time>2026-02-07T15:36:17.000Z</time>
      </trkpt>
      <trkpt lat="43.03954" lon="-0.33893">
        <ele>1613.1</ele>
        <time>2026-02-07T15:36:20.000Z</time>
      </trkpt>
      <trkpt lat="43.03953" lon="-0.33893">
        <ele>1612.5</ele>
        <time>2026-02-07T15:36:23.000Z</time>
      </trkpt>
      <trkpt lat="43.03952" lon="-0.33894">
        <ele>1611.9</ele>
        <time>2026-02-07T15:36:26.000Z</time>
      </trkpt>
      <trkpt lat="43.03952" lon="-0.33894">
        <ele>1611.5</ele>
        <time>2026-02-07T15:36:29.000Z</time>
      </trkpt>
      <trkpt lat="43.03952" lon="-0.33894">
        <ele>1611.4</ele>
        <time>2026-02-07T15:36:30.000Z</time>
      </trkpt>
      <trkpt lat="43.03952" lon="-0.33894">
        <ele>1611.4</ele>
        <time>2026-02-07T15:36:31.000Z</time>
      </trkpt>
      <trkpt lat="43.03952" lon="-0.33894">
        <ele>1611</ele>
        <time>2026-02-07T15:36:34.000Z</time>
      </trkpt>
      <trkpt lat="43.03952" lon="-0.33894">
        <ele>1611</ele>
        <time>2026-02-07T15:36:35.000Z</time>
      </trkpt>
      <trkpt lat="43.03952" lon="-0.33894">
        <ele>1610.9</ele>
        <time>2026-02-07T15:36:36.000Z</time>
      </trkpt>
      <trkpt lat="43.03951" lon="-0.33894">
        <ele>1610.6</ele>
        <time>2026-02-07T15:36:39.000Z</time>
      </trkpt>
      <trkpt lat="43.03951" lon="-0.33894">
        <ele>1610.4</ele>
        <time>2026-02-07T15:36:42.000Z</time>
      </trkpt>
      <trkpt lat="43.0395" lon="-0.33895">
        <ele>1610.2</ele>
        <time>2026-02-07T15:36:45.000Z</time>
      </trkpt>
      <trkpt lat="43.03949" lon="-0.33895">
        <ele>1609.9</ele>
        <time>2026-02-07T15:36:48.000Z</time>
      </trkpt>
      <trkpt lat="43.03947" lon="-0.33895">
        <ele>1609.7</ele>
        <time>2026-02-07T15:36:51.000Z</time>
      </trkpt>
      <trkpt lat="43.03946" lon="-0.33895">
        <ele>1609.4</ele>
        <time>2026-02-07T15:36:54.000Z</time>
      </trkpt>
      <trkpt lat="43.03945" lon="-0.33895">
        <ele>1609.1</ele>
        <time>2026-02-07T15:36:57.000Z</time>
      </trkpt>
      <trkpt lat="43.03944" lon="-0.33895">
        <ele>1608.7</ele>
        <time>2026-02-07T15:37:00.000Z</time>
      </trkpt>
      <trkpt lat="43.03943" lon="-0.33894">
        <ele>1608.3</ele>
        <time>2026-02-07T15:37:03.000Z</time>
      </trkpt>
      <trkpt lat="43.03942" lon="-0.33895">
        <ele>1607.9</ele>
        <time>2026-02-07T15:37:06.000Z</time>
      </trkpt>
      <trkpt lat="43.03942" lon="-0.33895">
        <ele>1607.6</ele>
        <time>2026-02-07T15:37:09.000Z</time>
      </trkpt>
      <trkpt lat="43.03941" lon="-0.33895">
        <ele>1607.3</ele>
        <time>2026-02-07T15:37:12.000Z</time>
      </trkpt>
      <trkpt lat="43.03941" lon="-0.33895">
        <ele>1607</ele>
        <time>2026-02-07T15:37:15.000Z</time>
      </trkpt>
      <trkpt lat="43.03941" lon="-0.33896">
        <ele>1606.8</ele>
        <time>2026-02-07T15:37:18.000Z</time>
      </trkpt>
      <trkpt lat="43.0394" lon="-0.33897">
        <ele>1606.6</ele>
        <time>2026-02-07T15:37:21.000Z</time>
      </trkpt>
      <trkpt lat="43.0394" lon="-0.33897">
        <ele>1606.3</ele>
        <time>2026-02-07T15:37:24.000Z</time>
      </trkpt>
      <trkpt lat="43.03939" lon="-0.33898">
        <ele>1606.1</ele>
        <time>2026-02-07T15:37:27.000Z</time>
      </trkpt>
      <trkpt lat="43.03938" lon="-0.33899">
        <ele>1605.8</ele>
        <time>2026-02-07T15:37:30.000Z</time>
      </trkpt>
      <trkpt lat="43.03937" lon="-0.33899">
        <ele>1605.5</ele>
        <time>2026-02-07T15:37:33.000Z</time>
      </trkpt>
      <trkpt lat="43.03937" lon="-0.339">
        <ele>1605.3</ele>
        <time>2026-02-07T15:37:36.000Z</time>
      </trkpt>
      <trkpt lat="43.03935" lon="-0.33899">
        <ele>1605</ele>
        <time>2026-02-07T15:37:39.000Z</time>
      </trkpt>
      <trkpt lat="43.03934" lon="-0.33898">
        <ele>1604.6</ele>
        <time>2026-02-07T15:37:42.000Z</time>
      </trkpt>
      <trkpt lat="43.03933" lon="-0.33896">
        <ele>1604.3</ele>
        <time>2026-02-07T15:37:45.000Z</time>
      </trkpt>
      <trkpt lat="43.03932" lon="-0.33896">
        <ele>1603.9</ele>
        <time>2026-02-07T15:37:48.000Z</time>
      </trkpt>
      <trkpt lat="43.03931" lon="-0.33895">
        <ele>1603.6</ele>
        <time>2026-02-07T15:37:51.000Z</time>
      </trkpt>
      <trkpt lat="43.03931" lon="-0.33895">
        <ele>1603.3</ele>
        <time>2026-02-07T15:37:54.000Z</time>
      </trkpt>
      <trkpt lat="43.0393" lon="-0.33895">
        <ele>1603</ele>
        <time>2026-02-07T15:37:57.000Z</time>
      </trkpt>
      <trkpt lat="43.03928" lon="-0.33894">
        <ele>1602.7</ele>
        <time>2026-02-07T15:38:00.000Z</time>
      </trkpt>
      <trkpt lat="43.03927" lon="-0.33894">
        <ele>1602.4</ele>
        <time>2026-02-07T15:38:03.000Z</time>
      </trkpt>
      <trkpt lat="43.03927" lon="-0.33893">
        <ele>1602.2</ele>
        <time>2026-02-07T15:38:06.000Z</time>
      </trkpt>
      <trkpt lat="43.03926" lon="-0.33893">
        <ele>1601.9</ele>
        <time>2026-02-07T15:38:09.000Z</time>
      </trkpt>
      <trkpt lat="43.03926" lon="-0.33893">
        <ele>1601.8</ele>
        <time>2026-02-07T15:38:12.000Z</time>
      </trkpt>
      <trkpt lat="43.03926" lon="-0.33892">
        <ele>1601.6</ele>
        <time>2026-02-07T15:38:15.000Z</time>
      </trkpt>
      <trkpt lat="43.03927" lon="-0.3389">
        <ele>1601.5</ele>
        <time>2026-02-07T15:38:18.000Z</time>
      </trkpt>
      <trkpt lat="43.03927" lon="-0.33886">
        <ele>1601.4</ele>
        <time>2026-02-07T15:38:21.000Z</time>
      </trkpt>
      <trkpt lat="43.03929" lon="-0.33884">
        <ele>1601.3</ele>
        <time>2026-02-07T15:38:24.000Z</time>
      </trkpt>
      <trkpt lat="43.03929" lon="-0.33883">
        <ele>1601.2</ele>
        <time>2026-02-07T15:38:27.000Z</time>
      </trkpt>
      <trkpt lat="43.03929" lon="-0.33881">
        <ele>1601</ele>
        <time>2026-02-07T15:38:30.000Z</time>
      </trkpt>
      <trkpt lat="43.03929" lon="-0.33881">
        <ele>1600.9</ele>
        <time>2026-02-07T15:38:33.000Z</time>
      </trkpt>
      <trkpt lat="43.03929" lon="-0.33881">
        <ele>1600.9</ele>
        <time>2026-02-07T15:38:35.000Z</time>
      </trkpt>
      <trkpt lat="43.03929" lon="-0.33881">
        <ele>1600.9</ele>
        <time>2026-02-07T15:38:36.000Z</time>
      </trkpt>
      <trkpt lat="43.03929" lon="-0.33881">
        <ele>1600.9</ele>
        <time>2026-02-07T15:38:37.000Z</time>
      </trkpt>
      <trkpt lat="43.03929" lon="-0.33881">
        <ele>1600.8</ele>
        <time>2026-02-07T15:38:40.000Z</time>
      </trkpt>
      <trkpt lat="43.03928" lon="-0.3388">
        <ele>1600.7</ele>
        <time>2026-02-07T15:38:42.000Z</time>
      </trkpt>
      <trkpt lat="43.03928" lon="-0.33879">
        <ele>1600.6</ele>
        <time>2026-02-07T15:38:43.000Z</time>
      </trkpt>
      <trkpt lat="43.03928" lon="-0.33879">
        <ele>1600.5</ele>
        <time>2026-02-07T15:38:44.000Z</time>
      </trkpt>
      <trkpt lat="43.03928" lon="-0.33879">
        <ele>1600.3</ele>
        <time>2026-02-07T15:38:47.000Z</time>
      </trkpt>
      <trkpt lat="43.03928" lon="-0.33879">
        <ele>1600.3</ele>
        <time>2026-02-07T15:38:48.000Z</time>
      </trkpt>
      <trkpt lat="43.03928" lon="-0.33879">
        <ele>1600.3</ele>
        <time>2026-02-07T15:38:49.000Z</time>
      </trkpt>
      <trkpt lat="43.03928" lon="-0.33879">
        <ele>1600.2</ele>
        <time>2026-02-07T15:38:50.000Z</time>
      </trkpt>
      <trkpt lat="43.03928" lon="-0.33879">
        <ele>1600.2</ele>
        <time>2026-02-07T15:38:51.000Z</time>
      </trkpt>
      <trkpt lat="43.03928" lon="-0.33879">
        <ele>1600.1</ele>
        <time>2026-02-07T15:38:52.000Z</time>
      </trkpt>
      <trkpt lat="43.03928" lon="-0.33879">
        <ele>1600.1</ele>
        <time>2026-02-07T15:38:53.000Z</time>
      </trkpt>
      <trkpt lat="43.03928" lon="-0.33879">
        <ele>1600</ele>
        <time>2026-02-07T15:38:56.000Z</time>
      </trkpt>
      <trkpt lat="43.03928" lon="-0.33878">
        <ele>1599.9</ele>
        <time>2026-02-07T15:38:59.000Z</time>
      </trkpt>
      <trkpt lat="43.03929" lon="-0.33877">
        <ele>1599.8</ele>
        <time>2026-02-07T15:39:00.000Z</time>
      </trkpt>
      <trkpt lat="43.03929" lon="-0.33877">
        <ele>1599.8</ele>
        <time>2026-02-07T15:39:01.000Z</time>
      </trkpt>
      <trkpt lat="43.03929" lon="-0.33875">
        <ele>1599.6</ele>
        <time>2026-02-07T15:39:04.000Z</time>
      </trkpt>
      <trkpt lat="43.03929" lon="-0.33873">
        <ele>1599.3</ele>
        <time>2026-02-07T15:39:07.000Z</time>
      </trkpt>
      <trkpt lat="43.0393" lon="-0.33872">
        <ele>1599</ele>
        <time>2026-02-07T15:39:10.000Z</time>
      </trkpt>
      <trkpt lat="43.0393" lon="-0.33873">
        <ele>1598.7</ele>
        <time>2026-02-07T15:39:13.000Z</time>
      </trkpt>
      <trkpt lat="43.0393" lon="-0.33873">
        <ele>1598.5</ele>
        <time>2026-02-07T15:39:16.000Z</time>
      </trkpt>
      <trkpt lat="43.0393" lon="-0.33872">
        <ele>1598.1</ele>
        <time>2026-02-07T15:39:19.000Z</time>
      </trkpt>
      <trkpt lat="43.0393" lon="-0.3387">
        <ele>1597.8</ele>
        <time>2026-02-07T15:39:22.000Z</time>
      </trkpt>
      <trkpt lat="43.0393" lon="-0.33868">
        <ele>1597.3</ele>
        <time>2026-02-07T15:39:25.000Z</time>
      </trkpt>
      <trkpt lat="43.0393" lon="-0.33865">
        <ele>1596.8</ele>
        <time>2026-02-07T15:39:28.000Z</time>
      </trkpt>
      <trkpt lat="43.03929" lon="-0.33863">
        <ele>1596.3</ele>
        <time>2026-02-07T15:39:31.000Z</time>
      </trkpt>
      <trkpt lat="43.03929" lon="-0.33861">
        <ele>1595.6</ele>
        <time>2026-02-07T15:39:34.000Z</time>
      </trkpt>
      <trkpt lat="43.03929" lon="-0.33859">
        <ele>1594.8</ele>
        <time>2026-02-07T15:39:37.000Z</time>
      </trkpt>
      <trkpt lat="43.03928" lon="-0.33857">
        <ele>1594</ele>
        <time>2026-02-07T15:39:40.000Z</time>
      </trkpt>
      <trkpt lat="43.03928" lon="-0.33856">
        <ele>1593.1</ele>
        <time>2026-02-07T15:39:43.000Z</time>
      </trkpt>
      <trkpt lat="43.03927" lon="-0.33855">
        <ele>1592.2</ele>
        <time>2026-02-07T15:39:46.000Z</time>
      </trkpt>
      <trkpt lat="43.03927" lon="-0.33854">
        <ele>1591.4</ele>
        <time>2026-02-07T15:39:49.000Z</time>
      </trkpt>
      <trkpt lat="43.03927" lon="-0.33855">
        <ele>1590.9</ele>
        <time>2026-02-07T15:39:52.000Z</time>
      </trkpt>
      <trkpt lat="43.03927" lon="-0.33855">
        <ele>1590.8</ele>
        <time>2026-02-07T15:39:53.000Z</time>
      </trkpt>
      <trkpt lat="43.03927" lon="-0.33855">
        <ele>1590.8</ele>
        <time>2026-02-07T15:39:54.000Z</time>
      </trkpt>
      <trkpt lat="43.03927" lon="-0.33855">
        <ele>1590.5</ele>
        <time>2026-02-07T15:39:57.000Z</time>
      </trkpt>
      <trkpt lat="43.03927" lon="-0.33856">
        <ele>1590.5</ele>
        <time>2026-02-07T15:40:00.000Z</time>
      </trkpt>
      <trkpt lat="43.03928" lon="-0.33857">
        <ele>1590.5</ele>
        <time>2026-02-07T15:40:03.000Z</time>
      </trkpt>
      <trkpt lat="43.03928" lon="-0.33857">
        <ele>1590.4</ele>
        <time>2026-02-07T15:40:06.000Z</time>
      </trkpt>
      <trkpt lat="43.03928" lon="-0.33857">
        <ele>1590.4</ele>
        <time>2026-02-07T15:40:09.000Z</time>
      </trkpt>
      <trkpt lat="43.03928" lon="-0.33857">
        <ele>1590.3</ele>
        <time>2026-02-07T15:40:12.000Z</time>
      </trkpt>
      <trkpt lat="43.03928" lon="-0.33858">
        <ele>1590.4</ele>
        <time>2026-02-07T15:40:15.000Z</time>
      </trkpt>
      <trkpt lat="43.03928" lon="-0.33858">
        <ele>1590.4</ele>
        <time>2026-02-07T15:40:18.000Z</time>
      </trkpt>
      <trkpt lat="43.03928" lon="-0.33858">
        <ele>1590.3</ele>
        <time>2026-02-07T15:40:21.000Z</time>
      </trkpt>
      <trkpt lat="43.03928" lon="-0.33858">
        <ele>1590.3</ele>
        <time>2026-02-07T15:40:24.000Z</time>
      </trkpt>
      <trkpt lat="43.03928" lon="-0.33859">
        <ele>1590.3</ele>
        <time>2026-02-07T15:40:27.000Z</time>
      </trkpt>
      <trkpt lat="43.03928" lon="-0.33859">
        <ele>1590.3</ele>
        <time>2026-02-07T15:40:30.000Z</time>
      </trkpt>
      <trkpt lat="43.03927" lon="-0.33859">
        <ele>1590.3</ele>
        <time>2026-02-07T15:40:33.000Z</time>
      </trkpt>
      <trkpt lat="43.03927" lon="-0.33859">
        <ele>1590.3</ele>
        <time>2026-02-07T15:40:34.000Z</time>
      </trkpt>
      <trkpt lat="43.03927" lon="-0.33859">
        <ele>1590.3</ele>
        <time>2026-02-07T15:40:35.000Z</time>
      </trkpt>
      <trkpt lat="43.03927" lon="-0.33859">
        <ele>1590.2</ele>
        <time>2026-02-07T15:40:36.000Z</time>
      </trkpt>
      <trkpt lat="43.03926" lon="-0.3386">
        <ele>1590.2</ele>
        <time>2026-02-07T15:40:39.000Z</time>
      </trkpt>
      <trkpt lat="43.03925" lon="-0.33859">
        <ele>1590</ele>
        <time>2026-02-07T15:40:42.000Z</time>
      </trkpt>
      <trkpt lat="43.03925" lon="-0.33857">
        <ele>1589.9</ele>
        <time>2026-02-07T15:40:45.000Z</time>
      </trkpt>
      <trkpt lat="43.03924" lon="-0.33856">
        <ele>1589.7</ele>
        <time>2026-02-07T15:40:48.000Z</time>
      </trkpt>
      <trkpt lat="43.03923" lon="-0.33856">
        <ele>1589.4</ele>
        <time>2026-02-07T15:40:51.000Z</time>
      </trkpt>
      <trkpt lat="43.03923" lon="-0.33855">
        <ele>1589</ele>
        <time>2026-02-07T15:40:54.000Z</time>
      </trkpt>
      <trkpt lat="43.03922" lon="-0.33854">
        <ele>1588.5</ele>
        <time>2026-02-07T15:40:57.000Z</time>
      </trkpt>
      <trkpt lat="43.03922" lon="-0.33852">
        <ele>1588.1</ele>
        <time>2026-02-07T15:41:00.000Z</time>
      </trkpt>
      <trkpt lat="43.03921" lon="-0.3385">
        <ele>1587.5</ele>
        <time>2026-02-07T15:41:03.000Z</time>
      </trkpt>
      <trkpt lat="43.03922" lon="-0.33849">
        <ele>1587</ele>
        <time>2026-02-07T15:41:06.000Z</time>
      </trkpt>
      <trkpt lat="43.03922" lon="-0.33847">
        <ele>1586.4</ele>
        <time>2026-02-07T15:41:09.000Z</time>
      </trkpt>
      <trkpt lat="43.03923" lon="-0.33846">
        <ele>1585.8</ele>
        <time>2026-02-07T15:41:12.000Z</time>
      </trkpt>
      <trkpt lat="43.03924" lon="-0.33844">
        <ele>1584.9</ele>
        <time>2026-02-07T15:41:15.000Z</time>
      </trkpt>
      <trkpt lat="43.03924" lon="-0.33843">
        <ele>1584.1</ele>
        <time>2026-02-07T15:41:18.000Z</time>
      </trkpt>
      <trkpt lat="43.03924" lon="-0.33841">
        <ele>1583.4</ele>
        <time>2026-02-07T15:41:21.000Z</time>
      </trkpt>
      <trkpt lat="43.03924" lon="-0.33839">
        <ele>1582.7</ele>
        <time>2026-02-07T15:41:24.000Z</time>
      </trkpt>
      <trkpt lat="43.03925" lon="-0.3384">
        <ele>1582.1</ele>
        <time>2026-02-07T15:41:27.000Z</time>
      </trkpt>
      <trkpt lat="43.03925" lon="-0.33841">
        <ele>1581.8</ele>
        <time>2026-02-07T15:41:30.000Z</time>
      </trkpt>
      <trkpt lat="43.03925" lon="-0.33841">
        <ele>1581.7</ele>
        <time>2026-02-07T15:41:31.000Z</time>
      </trkpt>
      <trkpt lat="43.03924" lon="-0.33841">
        <ele>1581.5</ele>
        <time>2026-02-07T15:41:34.000Z</time>
      </trkpt>
      <trkpt lat="43.03924" lon="-0.3384">
        <ele>1581.5</ele>
        <time>2026-02-07T15:41:35.000Z</time>
      </trkpt>
      <trkpt lat="43.03924" lon="-0.33839">
        <ele>1581.4</ele>
        <time>2026-02-07T15:41:36.000Z</time>
      </trkpt>
      <trkpt lat="43.03923" lon="-0.33836">
        <ele>1581</ele>
        <time>2026-02-07T15:41:39.000Z</time>
      </trkpt>
      <trkpt lat="43.03922" lon="-0.33833">
        <ele>1580.6</ele>
        <time>2026-02-07T15:41:42.000Z</time>
      </trkpt>
      <trkpt lat="43.03922" lon="-0.3383">
        <ele>1579.9</ele>
        <time>2026-02-07T15:41:45.000Z</time>
      </trkpt>
      <trkpt lat="43.03921" lon="-0.33827">
        <ele>1579.1</ele>
        <time>2026-02-07T15:41:48.000Z</time>
      </trkpt>
      <trkpt lat="43.0392" lon="-0.33825">
        <ele>1578.1</ele>
        <time>2026-02-07T15:41:51.000Z</time>
      </trkpt>
      <trkpt lat="43.03919" lon="-0.33822">
        <ele>1577.1</ele>
        <time>2026-02-07T15:41:54.000Z</time>
      </trkpt>
      <trkpt lat="43.03918" lon="-0.33819">
        <ele>1576.3</ele>
        <time>2026-02-07T15:41:57.000Z</time>
      </trkpt>
      <trkpt lat="43.03917" lon="-0.33818">
        <ele>1575.4</ele>
        <time>2026-02-07T15:42:00.000Z</time>
      </trkpt>
      <trkpt lat="43.03916" lon="-0.33818">
        <ele>1574.7</ele>
        <time>2026-02-07T15:42:03.000Z</time>
      </trkpt>
      <trkpt lat="43.03916" lon="-0.33818">
        <ele>1574.5</ele>
        <time>2026-02-07T15:42:04.000Z</time>
      </trkpt>
      <trkpt lat="43.03916" lon="-0.33819">
        <ele>1574.4</ele>
        <time>2026-02-07T15:42:05.000Z</time>
      </trkpt>
      <trkpt lat="43.03916" lon="-0.33819">
        <ele>1574.3</ele>
        <time>2026-02-07T15:42:06.000Z</time>
      </trkpt>
      <trkpt lat="43.03915" lon="-0.33818">
        <ele>1574.1</ele>
        <time>2026-02-07T15:42:09.000Z</time>
      </trkpt>
      <trkpt lat="43.03915" lon="-0.33817">
        <ele>1574</ele>
        <time>2026-02-07T15:42:10.000Z</time>
      </trkpt>
      <trkpt lat="43.03915" lon="-0.33817">
        <ele>1573.9</ele>
        <time>2026-02-07T15:42:11.000Z</time>
      </trkpt>
      <trkpt lat="43.03915" lon="-0.33817">
        <ele>1573.7</ele>
        <time>2026-02-07T15:42:14.000Z</time>
      </trkpt>
      <trkpt lat="43.03915" lon="-0.33817">
        <ele>1573.6</ele>
        <time>2026-02-07T15:42:15.000Z</time>
      </trkpt>
      <trkpt lat="43.03915" lon="-0.33817">
        <ele>1573.6</ele>
        <time>2026-02-07T15:42:16.000Z</time>
      </trkpt>
      <trkpt lat="43.03915" lon="-0.33817">
        <ele>1573.5</ele>
        <time>2026-02-07T15:42:19.000Z</time>
      </trkpt>
      <trkpt lat="43.03915" lon="-0.33817">
        <ele>1573.4</ele>
        <time>2026-02-07T15:42:22.000Z</time>
      </trkpt>
      <trkpt lat="43.03915" lon="-0.33817">
        <ele>1573.3</ele>
        <time>2026-02-07T15:42:25.000Z</time>
      </trkpt>
      <trkpt lat="43.03915" lon="-0.33817">
        <ele>1573.2</ele>
        <time>2026-02-07T15:42:28.000Z</time>
      </trkpt>
      <trkpt lat="43.03914" lon="-0.33817">
        <ele>1573.2</ele>
        <time>2026-02-07T15:42:31.000Z</time>
      </trkpt>
      <trkpt lat="43.03914" lon="-0.33817">
        <ele>1573.1</ele>
        <time>2026-02-07T15:42:32.000Z</time>
      </trkpt>
      <trkpt lat="43.03914" lon="-0.33816">
        <ele>1573.1</ele>
        <time>2026-02-07T15:42:33.000Z</time>
      </trkpt>
      <trkpt lat="43.03913" lon="-0.33816">
        <ele>1572.9</ele>
        <time>2026-02-07T15:42:36.000Z</time>
      </trkpt>
      <trkpt lat="43.03913" lon="-0.33816">
        <ele>1572.7</ele>
        <time>2026-02-07T15:42:39.000Z</time>
      </trkpt>
      <trkpt lat="43.03912" lon="-0.33813">
        <ele>1572.4</ele>
        <time>2026-02-07T15:42:42.000Z</time>
      </trkpt>
      <trkpt lat="43.03911" lon="-0.33811">
        <ele>1572.1</ele>
        <time>2026-02-07T15:42:45.000Z</time>
      </trkpt>
      <trkpt lat="43.0391" lon="-0.33808">
        <ele>1571.6</ele>
        <time>2026-02-07T15:42:48.000Z</time>
      </trkpt>
      <trkpt lat="43.03909" lon="-0.33805">
        <ele>1571</ele>
        <time>2026-02-07T15:42:51.000Z</time>
      </trkpt>
      <trkpt lat="43.03908" lon="-0.33802">
        <ele>1570.4</ele>
        <time>2026-02-07T15:42:54.000Z</time>
      </trkpt>
      <trkpt lat="43.03908" lon="-0.33801">
        <ele>1570</ele>
        <time>2026-02-07T15:42:57.000Z</time>
      </trkpt>
      <trkpt lat="43.03907" lon="-0.338">
        <ele>1569.6</ele>
        <time>2026-02-07T15:43:00.000Z</time>
      </trkpt>
      <trkpt lat="43.03906" lon="-0.33798">
        <ele>1569.3</ele>
        <time>2026-02-07T15:43:03.000Z</time>
      </trkpt>
      <trkpt lat="43.03905" lon="-0.33797">
        <ele>1569</ele>
        <time>2026-02-07T15:43:06.000Z</time>
      </trkpt>
      <trkpt lat="43.03904" lon="-0.33795">
        <ele>1568.7</ele>
        <time>2026-02-07T15:43:09.000Z</time>
      </trkpt>
      <trkpt lat="43.03903" lon="-0.33793">
        <ele>1568.4</ele>
        <time>2026-02-07T15:43:12.000Z</time>
      </trkpt>
      <trkpt lat="43.03902" lon="-0.33791">
        <ele>1568.2</ele>
        <time>2026-02-07T15:43:15.000Z</time>
      </trkpt>
      <trkpt lat="43.039" lon="-0.33789">
        <ele>1568</ele>
        <time>2026-02-07T15:43:18.000Z</time>
      </trkpt>
      <trkpt lat="43.03898" lon="-0.33786">
        <ele>1567.9</ele>
        <time>2026-02-07T15:43:21.000Z</time>
      </trkpt>
      <trkpt lat="43.03898" lon="-0.33784">
        <ele>1567.9</ele>
        <time>2026-02-07T15:43:24.000Z</time>
      </trkpt>
      <trkpt lat="43.03897" lon="-0.33783">
        <ele>1567.8</ele>
        <time>2026-02-07T15:43:27.000Z</time>
      </trkpt>
      <trkpt lat="43.03897" lon="-0.33783">
        <ele>1567.8</ele>
        <time>2026-02-07T15:43:29.000Z</time>
      </trkpt>
      <trkpt lat="43.03897" lon="-0.33783">
        <ele>1567.8</ele>
        <time>2026-02-07T15:43:30.000Z</time>
      </trkpt>
      <trkpt lat="43.03897" lon="-0.33783">
        <ele>1567.7</ele>
        <time>2026-02-07T15:43:31.000Z</time>
      </trkpt>
      <trkpt lat="43.03896" lon="-0.33783">
        <ele>1567.7</ele>
        <time>2026-02-07T15:43:32.000Z</time>
      </trkpt>
      <trkpt lat="43.03896" lon="-0.33783">
        <ele>1567.7</ele>
        <time>2026-02-07T15:43:33.000Z</time>
      </trkpt>
      <trkpt lat="43.03895" lon="-0.33782">
        <ele>1567.6</ele>
        <time>2026-02-07T15:43:34.000Z</time>
      </trkpt>
      <trkpt lat="43.03893" lon="-0.33781">
        <ele>1567.6</ele>
        <time>2026-02-07T15:43:37.000Z</time>
      </trkpt>
      <trkpt lat="43.03892" lon="-0.3378">
        <ele>1567.4</ele>
        <time>2026-02-07T15:43:40.000Z</time>
      </trkpt>
      <trkpt lat="43.03889" lon="-0.33779">
        <ele>1567.3</ele>
        <time>2026-02-07T15:43:43.000Z</time>
      </trkpt>
      <trkpt lat="43.03888" lon="-0.33777">
        <ele>1567.2</ele>
        <time>2026-02-07T15:43:46.000Z</time>
      </trkpt>
      <trkpt lat="43.03886" lon="-0.33775">
        <ele>1567.1</ele>
        <time>2026-02-07T15:43:49.000Z</time>
      </trkpt>
      <trkpt lat="43.03885" lon="-0.33773">
        <ele>1567</ele>
        <time>2026-02-07T15:43:52.000Z</time>
      </trkpt>
      <trkpt lat="43.03883" lon="-0.33771">
        <ele>1566.9</ele>
        <time>2026-02-07T15:43:55.000Z</time>
      </trkpt>
      <trkpt lat="43.03883" lon="-0.33767">
        <ele>1566.7</ele>
        <time>2026-02-07T15:43:58.000Z</time>
      </trkpt>
      <trkpt lat="43.03881" lon="-0.33763">
        <ele>1566.6</ele>
        <time>2026-02-07T15:44:01.000Z</time>
      </trkpt>
      <trkpt lat="43.0388" lon="-0.33758">
        <ele>1566.6</ele>
        <time>2026-02-07T15:44:04.000Z</time>
      </trkpt>
      <trkpt lat="43.03877" lon="-0.33756">
        <ele>1566.5</ele>
        <time>2026-02-07T15:44:07.000Z</time>
      </trkpt>
      <trkpt lat="43.03876" lon="-0.33756">
        <ele>1566.5</ele>
        <time>2026-02-07T15:44:10.000Z</time>
      </trkpt>
      <trkpt lat="43.03876" lon="-0.33757">
        <ele>1566.5</ele>
        <time>2026-02-07T15:44:13.000Z</time>
      </trkpt>
      <trkpt lat="43.03876" lon="-0.33757">
        <ele>1566.5</ele>
        <time>2026-02-07T15:44:15.000Z</time>
      </trkpt>
      <trkpt lat="43.03876" lon="-0.33757">
        <ele>1566.5</ele>
        <time>2026-02-07T15:44:16.000Z</time>
      </trkpt>
      <trkpt lat="43.03876" lon="-0.33756">
        <ele>1566.5</ele>
        <time>2026-02-07T15:44:19.000Z</time>
      </trkpt>
      <trkpt lat="43.03876" lon="-0.33755">
        <ele>1566.5</ele>
        <time>2026-02-07T15:44:20.000Z</time>
      </trkpt>
      <trkpt lat="43.03876" lon="-0.33755">
        <ele>1566.5</ele>
        <time>2026-02-07T15:44:21.000Z</time>
      </trkpt>
      <trkpt lat="43.03878" lon="-0.33753">
        <ele>1566.4</ele>
        <time>2026-02-07T15:44:24.000Z</time>
      </trkpt>
      <trkpt lat="43.03881" lon="-0.33752">
        <ele>1566.4</ele>
        <time>2026-02-07T15:44:27.000Z</time>
      </trkpt>
      <trkpt lat="43.03884" lon="-0.33748">
        <ele>1566.3</ele>
        <time>2026-02-07T15:44:30.000Z</time>
      </trkpt>
      <trkpt lat="43.03885" lon="-0.33745">
        <ele>1566.2</ele>
        <time>2026-02-07T15:44:33.000Z</time>
      </trkpt>
      <trkpt lat="43.03886" lon="-0.33744">
        <ele>1566.1</ele>
        <time>2026-02-07T15:44:36.000Z</time>
      </trkpt>
      <trkpt lat="43.03886" lon="-0.3374">
        <ele>1565.9</ele>
        <time>2026-02-07T15:44:39.000Z</time>
      </trkpt>
      <trkpt lat="43.03887" lon="-0.33735">
        <ele>1565.8</ele>
        <time>2026-02-07T15:44:42.000Z</time>
      </trkpt>
      <trkpt lat="43.03887" lon="-0.33731">
        <ele>1565.5</ele>
        <time>2026-02-07T15:44:45.000Z</time>
      </trkpt>
      <trkpt lat="43.03887" lon="-0.33728">
        <ele>1565.3</ele>
        <time>2026-02-07T15:44:48.000Z</time>
      </trkpt>
      <trkpt lat="43.03887" lon="-0.33726">
        <ele>1565.1</ele>
        <time>2026-02-07T15:44:51.000Z</time>
      </trkpt>
      <trkpt lat="43.03888" lon="-0.33725">
        <ele>1565</ele>
        <time>2026-02-07T15:44:54.000Z</time>
      </trkpt>
      <trkpt lat="43.03888" lon="-0.33725">
        <ele>1564.9</ele>
        <time>2026-02-07T15:44:57.000Z</time>
      </trkpt>
      <trkpt lat="43.03888" lon="-0.33725">
        <ele>1564.8</ele>
        <time>2026-02-07T15:44:58.000Z</time>
      </trkpt>
      <trkpt lat="43.03888" lon="-0.33725">
        <ele>1564.8</ele>
        <time>2026-02-07T15:44:59.000Z</time>
      </trkpt>
      <trkpt lat="43.03888" lon="-0.33724">
        <ele>1564.8</ele>
        <time>2026-02-07T15:45:00.000Z</time>
      </trkpt>
      <trkpt lat="43.03888" lon="-0.33724">
        <ele>1564.8</ele>
        <time>2026-02-07T15:45:01.000Z</time>
      </trkpt>
      <trkpt lat="43.03888" lon="-0.33722">
        <ele>1564.7</ele>
        <time>2026-02-07T15:45:04.000Z</time>
      </trkpt>
      <trkpt lat="43.03888" lon="-0.33723">
        <ele>1564.7</ele>
        <time>2026-02-07T15:45:07.000Z</time>
      </trkpt>
      <trkpt lat="43.03889" lon="-0.33723">
        <ele>1564.7</ele>
        <time>2026-02-07T15:45:10.000Z</time>
      </trkpt>
      <trkpt lat="43.03889" lon="-0.33723">
        <ele>1564.7</ele>
        <time>2026-02-07T15:45:11.000Z</time>
      </trkpt>
      <trkpt lat="43.03889" lon="-0.33723">
        <ele>1564.7</ele>
        <time>2026-02-07T15:45:14.000Z</time>
      </trkpt>
      <trkpt lat="43.03889" lon="-0.33723">
        <ele>1564.7</ele>
        <time>2026-02-07T15:45:15.000Z</time>
      </trkpt>
      <trkpt lat="43.03889" lon="-0.33723">
        <ele>1564.7</ele>
        <time>2026-02-07T15:45:16.000Z</time>
      </trkpt>
      <trkpt lat="43.03889" lon="-0.33723">
        <ele>1564.7</ele>
        <time>2026-02-07T15:45:17.000Z</time>
      </trkpt>
      <trkpt lat="43.03889" lon="-0.33723">
        <ele>1564.7</ele>
        <time>2026-02-07T15:45:18.000Z</time>
      </trkpt>
      <trkpt lat="43.03889" lon="-0.33723">
        <ele>1564.6</ele>
        <time>2026-02-07T15:45:19.000Z</time>
      </trkpt>
      <trkpt lat="43.03889" lon="-0.33723">
        <ele>1564.6</ele>
        <time>2026-02-07T15:45:20.000Z</time>
      </trkpt>
      <trkpt lat="43.03889" lon="-0.33723">
        <ele>1564.5</ele>
        <time>2026-02-07T15:45:21.000Z</time>
      </trkpt>
      <trkpt lat="43.03889" lon="-0.33723">
        <ele>1564.5</ele>
        <time>2026-02-07T15:45:22.000Z</time>
      </trkpt>
      <trkpt lat="43.03889" lon="-0.33723">
        <ele>1564.5</ele>
        <time>2026-02-07T15:45:23.000Z</time>
      </trkpt>
      <trkpt lat="43.03889" lon="-0.33723">
        <ele>1564.4</ele>
        <time>2026-02-07T15:45:24.000Z</time>
      </trkpt>
      <trkpt lat="43.03889" lon="-0.33723">
        <ele>1564.4</ele>
        <time>2026-02-07T15:45:25.000Z</time>
      </trkpt>
      <trkpt lat="43.03889" lon="-0.33723">
        <ele>1564.4</ele>
        <time>2026-02-07T15:45:26.000Z</time>
      </trkpt>
      <trkpt lat="43.03889" lon="-0.33723">
        <ele>1564.3</ele>
        <time>2026-02-07T15:45:27.000Z</time>
      </trkpt>
      <trkpt lat="43.03889" lon="-0.33723">
        <ele>1564.3</ele>
        <time>2026-02-07T15:45:28.000Z</time>
      </trkpt>
      <trkpt lat="43.03889" lon="-0.33723">
        <ele>1564.2</ele>
        <time>2026-02-07T15:45:31.000Z</time>
      </trkpt>
      <trkpt lat="43.03889" lon="-0.33723">
        <ele>1564.1</ele>
        <time>2026-02-07T15:45:34.000Z</time>
      </trkpt>
      <trkpt lat="43.03889" lon="-0.33723">
        <ele>1564</ele>
        <time>2026-02-07T15:45:37.000Z</time>
      </trkpt>
      <trkpt lat="43.03889" lon="-0.33723">
        <ele>1563.9</ele>
        <time>2026-02-07T15:45:40.000Z</time>
      </trkpt>
      <trkpt lat="43.03889" lon="-0.33723">
        <ele>1563.8</ele>
        <time>2026-02-07T15:45:43.000Z</time>
      </trkpt>
      <trkpt lat="43.03889" lon="-0.33723">
        <ele>1563.8</ele>
        <time>2026-02-07T15:45:46.000Z</time>
      </trkpt>
      <trkpt lat="43.03889" lon="-0.33723">
        <ele>1563.7</ele>
        <time>2026-02-07T15:45:49.000Z</time>
      </trkpt>
      <trkpt lat="43.03889" lon="-0.33723">
        <ele>1563.7</ele>
        <time>2026-02-07T15:45:52.000Z</time>
      </trkpt>
      <trkpt lat="43.03889" lon="-0.33723">
        <ele>1563.6</ele>
        <time>2026-02-07T15:45:55.000Z</time>
      </trkpt>
      <trkpt lat="43.03889" lon="-0.33723">
        <ele>1563.6</ele>
        <time>2026-02-07T15:45:58.000Z</time>
      </trkpt>
      <trkpt lat="43.03889" lon="-0.33723">
        <ele>1563.6</ele>
        <time>2026-02-07T15:45:59.000Z</time>
      </trkpt>
      <trkpt lat="43.03889" lon="-0.33723">
        <ele>1563.6</ele>
        <time>2026-02-07T15:46:02.000Z</time>
      </trkpt>
      <trkpt lat="43.03889" lon="-0.33723">
        <ele>1563.7</ele>
        <time>2026-02-07T15:46:05.000Z</time>
      </trkpt>
      <trkpt lat="43.03889" lon="-0.33724">
        <ele>1563.7</ele>
        <time>2026-02-07T15:46:08.000Z</time>
      </trkpt>
      <trkpt lat="43.03889" lon="-0.33724">
        <ele>1563.7</ele>
        <time>2026-02-07T15:46:11.000Z</time>
      </trkpt>
      <trkpt lat="43.03889" lon="-0.33724">
        <ele>1563.8</ele>
        <time>2026-02-07T15:46:14.000Z</time>
      </trkpt>
      <trkpt lat="43.03889" lon="-0.33724">
        <ele>1563.8</ele>
        <time>2026-02-07T15:46:15.000Z</time>
      </trkpt>
      <trkpt lat="43.03889" lon="-0.33724">
        <ele>1563.8</ele>
        <time>2026-02-07T15:46:16.000Z</time>
      </trkpt>
      <trkpt lat="43.03889" lon="-0.33724">
        <ele>1563.8</ele>
        <time>2026-02-07T15:46:17.000Z</time>
      </trkpt>
      <trkpt lat="43.03889" lon="-0.33724">
        <ele>1563.8</ele>
        <time>2026-02-07T15:46:18.000Z</time>
      </trkpt>
      <trkpt lat="43.03889" lon="-0.33724">
        <ele>1563.9</ele>
        <time>2026-02-07T15:46:19.000Z</time>
      </trkpt>
      <trkpt lat="43.03889" lon="-0.33724">
        <ele>1563.9</ele>
        <time>2026-02-07T15:46:22.000Z</time>
      </trkpt>
      <trkpt lat="43.03889" lon="-0.33724">
        <ele>1563.9</ele>
        <time>2026-02-07T15:46:24.000Z</time>
      </trkpt>
      <trkpt lat="43.03889" lon="-0.33724">
        <ele>1563.9</ele>
        <time>2026-02-07T15:46:25.000Z</time>
      </trkpt>
      <trkpt lat="43.03889" lon="-0.33724">
        <ele>1563.9</ele>
        <time>2026-02-07T15:46:26.000Z</time>
      </trkpt>
      <trkpt lat="43.03889" lon="-0.33724">
        <ele>1563.9</ele>
        <time>2026-02-07T15:46:27.000Z</time>
      </trkpt>
      <trkpt lat="43.03889" lon="-0.33724">
        <ele>1563.9</ele>
        <time>2026-02-07T15:46:28.000Z</time>
      </trkpt>
      <trkpt lat="43.03889" lon="-0.33724">
        <ele>1564</ele>
        <time>2026-02-07T15:46:29.000Z</time>
      </trkpt>
      <trkpt lat="43.03889" lon="-0.33724">
        <ele>1564</ele>
        <time>2026-02-07T15:46:30.000Z</time>
      </trkpt>
      <trkpt lat="43.03889" lon="-0.33724">
        <ele>1564</ele>
        <time>2026-02-07T15:46:31.000Z</time>
      </trkpt>
      <trkpt lat="43.03889" lon="-0.33724">
        <ele>1564</ele>
        <time>2026-02-07T15:46:32.000Z</time>
      </trkpt>
      <trkpt lat="43.03889" lon="-0.33724">
        <ele>1564</ele>
        <time>2026-02-07T15:46:33.000Z</time>
      </trkpt>
      <trkpt lat="43.03889" lon="-0.33724">
        <ele>1564</ele>
        <time>2026-02-07T15:46:34.000Z</time>
      </trkpt>
      <trkpt lat="43.03889" lon="-0.33724">
        <ele>1564</ele>
        <time>2026-02-07T15:46:35.000Z</time>
      </trkpt>
      <trkpt lat="43.03889" lon="-0.33724">
        <ele>1564</ele>
        <time>2026-02-07T15:46:36.000Z</time>
      </trkpt>
      <trkpt lat="43.03889" lon="-0.33724">
        <ele>1564</ele>
        <time>2026-02-07T15:46:39.000Z</time>
      </trkpt>
      <trkpt lat="43.03889" lon="-0.33723">
        <ele>1564</ele>
        <time>2026-02-07T15:46:42.000Z</time>
      </trkpt>
      <trkpt lat="43.03889" lon="-0.33722">
        <ele>1564</ele>
        <time>2026-02-07T15:46:43.000Z</time>
      </trkpt>
      <trkpt lat="43.03888" lon="-0.33721">
        <ele>1564</ele>
        <time>2026-02-07T15:46:44.000Z</time>
      </trkpt>
      <trkpt lat="43.03888" lon="-0.33717">
        <ele>1563.9</ele>
        <time>2026-02-07T15:46:47.000Z</time>
      </trkpt>
      <trkpt lat="43.03887" lon="-0.33713">
        <ele>1563.7</ele>
        <time>2026-02-07T15:46:50.000Z</time>
      </trkpt>
      <trkpt lat="43.03886" lon="-0.3371">
        <ele>1563.5</ele>
        <time>2026-02-07T15:46:53.000Z</time>
      </trkpt>
      <trkpt lat="43.03885" lon="-0.33706">
        <ele>1563.2</ele>
        <time>2026-02-07T15:46:56.000Z</time>
      </trkpt>
      <trkpt lat="43.03883" lon="-0.33704">
        <ele>1562.8</ele>
        <time>2026-02-07T15:46:59.000Z</time>
      </trkpt>
      <trkpt lat="43.0388" lon="-0.33702">
        <ele>1562.4</ele>
        <time>2026-02-07T15:47:02.000Z</time>
      </trkpt>
      <trkpt lat="43.03879" lon="-0.33703">
        <ele>1562</ele>
        <time>2026-02-07T15:47:05.000Z</time>
      </trkpt>
      <trkpt lat="43.0388" lon="-0.33703">
        <ele>1561.8</ele>
        <time>2026-02-07T15:47:08.000Z</time>
      </trkpt>
      <trkpt lat="43.0388" lon="-0.33704">
        <ele>1561.7</ele>
        <time>2026-02-07T15:47:11.000Z</time>
      </trkpt>
      <trkpt lat="43.0388" lon="-0.33705">
        <ele>1561.6</ele>
        <time>2026-02-07T15:47:14.000Z</time>
      </trkpt>
      <trkpt lat="43.03881" lon="-0.33707">
        <ele>1561.6</ele>
        <time>2026-02-07T15:47:17.000Z</time>
      </trkpt>
      <trkpt lat="43.03881" lon="-0.33707">
        <ele>1561.6</ele>
        <time>2026-02-07T15:47:20.000Z</time>
      </trkpt>
      <trkpt lat="43.03881" lon="-0.33707">
        <ele>1561.5</ele>
        <time>2026-02-07T15:47:23.000Z</time>
      </trkpt>
      <trkpt lat="43.03881" lon="-0.33706">
        <ele>1561.4</ele>
        <time>2026-02-07T15:47:26.000Z</time>
      </trkpt>
      <trkpt lat="43.03881" lon="-0.33705">
        <ele>1561.4</ele>
        <time>2026-02-07T15:47:29.000Z</time>
      </trkpt>
      <trkpt lat="43.03881" lon="-0.33706">
        <ele>1561.4</ele>
        <time>2026-02-07T15:47:32.000Z</time>
      </trkpt>
      <trkpt lat="43.03881" lon="-0.33707">
        <ele>1561.3</ele>
        <time>2026-02-07T15:47:35.000Z</time>
      </trkpt>
      <trkpt lat="43.03882" lon="-0.33707">
        <ele>1561.3</ele>
        <time>2026-02-07T15:47:38.000Z</time>
      </trkpt>
      <trkpt lat="43.03882" lon="-0.33708">
        <ele>1561.3</ele>
        <time>2026-02-07T15:47:41.000Z</time>
      </trkpt>
      <trkpt lat="43.03883" lon="-0.33707">
        <ele>1561.3</ele>
        <time>2026-02-07T15:47:44.000Z</time>
      </trkpt>
      <trkpt lat="43.03884" lon="-0.33704">
        <ele>1561.2</ele>
        <time>2026-02-07T15:47:47.000Z</time>
      </trkpt>
      <trkpt lat="43.03883" lon="-0.33699">
        <ele>1561.1</ele>
        <time>2026-02-07T15:47:50.000Z</time>
      </trkpt>
      <trkpt lat="43.03883" lon="-0.33693">
        <ele>1561</ele>
        <time>2026-02-07T15:47:53.000Z</time>
      </trkpt>
      <trkpt lat="43.03884" lon="-0.33689">
        <ele>1560.7</ele>
        <time>2026-02-07T15:47:56.000Z</time>
      </trkpt>
      <trkpt lat="43.03885" lon="-0.33684">
        <ele>1560.3</ele>
        <time>2026-02-07T15:47:59.000Z</time>
      </trkpt>
      <trkpt lat="43.03885" lon="-0.33679">
        <ele>1559.8</ele>
        <time>2026-02-07T15:48:02.000Z</time>
      </trkpt>
      <trkpt lat="43.03885" lon="-0.33674">
        <ele>1559.1</ele>
        <time>2026-02-07T15:48:05.000Z</time>
      </trkpt>
      <trkpt lat="43.03886" lon="-0.3367">
        <ele>1558.6</ele>
        <time>2026-02-07T15:48:08.000Z</time>
      </trkpt>
      <trkpt lat="43.03888" lon="-0.33665">
        <ele>1558.3</ele>
        <time>2026-02-07T15:48:11.000Z</time>
      </trkpt>
      <trkpt lat="43.03889" lon="-0.33661">
        <ele>1558.1</ele>
        <time>2026-02-07T15:48:14.000Z</time>
      </trkpt>
      <trkpt lat="43.03889" lon="-0.33657">
        <ele>1557.9</ele>
        <time>2026-02-07T15:48:17.000Z</time>
      </trkpt>
      <trkpt lat="43.0389" lon="-0.33658">
        <ele>1557.7</ele>
        <time>2026-02-07T15:48:20.000Z</time>
      </trkpt>
      <trkpt lat="43.0389" lon="-0.33658">
        <ele>1557.6</ele>
        <time>2026-02-07T15:48:23.000Z</time>
      </trkpt>
      <trkpt lat="43.0389" lon="-0.33655">
        <ele>1557.4</ele>
        <time>2026-02-07T15:48:26.000Z</time>
      </trkpt>
      <trkpt lat="43.03889" lon="-0.33653">
        <ele>1557.2</ele>
        <time>2026-02-07T15:48:29.000Z</time>
      </trkpt>
      <trkpt lat="43.03889" lon="-0.33652">
        <ele>1557.1</ele>
        <time>2026-02-07T15:48:32.000Z</time>
      </trkpt>
      <trkpt lat="43.03889" lon="-0.33652">
        <ele>1557.1</ele>
        <time>2026-02-07T15:48:35.000Z</time>
      </trkpt>
      <trkpt lat="43.03891" lon="-0.33655">
        <ele>1557</ele>
        <time>2026-02-07T15:48:38.000Z</time>
      </trkpt>
      <trkpt lat="43.03891" lon="-0.33659">
        <ele>1557</ele>
        <time>2026-02-07T15:48:41.000Z</time>
      </trkpt>
      <trkpt lat="43.03891" lon="-0.33663">
        <ele>1557.1</ele>
        <time>2026-02-07T15:48:44.000Z</time>
      </trkpt>
      <trkpt lat="43.03892" lon="-0.33665">
        <ele>1557.2</ele>
        <time>2026-02-07T15:48:47.000Z</time>
      </trkpt>
      <trkpt lat="43.03891" lon="-0.33665">
        <ele>1557.2</ele>
        <time>2026-02-07T15:48:50.000Z</time>
      </trkpt>
      <trkpt lat="43.03891" lon="-0.33665">
        <ele>1557.3</ele>
        <time>2026-02-07T15:48:53.000Z</time>
      </trkpt>
      <trkpt lat="43.0389" lon="-0.33665">
        <ele>1557.4</ele>
        <time>2026-02-07T15:48:56.000Z</time>
      </trkpt>
      <trkpt lat="43.0389" lon="-0.33662">
        <ele>1557.4</ele>
        <time>2026-02-07T15:48:59.000Z</time>
      </trkpt>
      <trkpt lat="43.03891" lon="-0.33662">
        <ele>1557.4</ele>
        <time>2026-02-07T15:49:02.000Z</time>
      </trkpt>
      <trkpt lat="43.03892" lon="-0.33662">
        <ele>1557.4</ele>
        <time>2026-02-07T15:49:05.000Z</time>
      </trkpt>
      <trkpt lat="43.03891" lon="-0.33662">
        <ele>1557.4</ele>
        <time>2026-02-07T15:49:06.000Z</time>
      </trkpt>
      <trkpt lat="43.03892" lon="-0.33661">
        <ele>1557.4</ele>
        <time>2026-02-07T15:49:07.000Z</time>
      </trkpt>
      <trkpt lat="43.03891" lon="-0.33661">
        <ele>1557.4</ele>
        <time>2026-02-07T15:49:08.000Z</time>
      </trkpt>
      <trkpt lat="43.03891" lon="-0.33661">
        <ele>1557.4</ele>
        <time>2026-02-07T15:49:09.000Z</time>
      </trkpt>
      <trkpt lat="43.03891" lon="-0.3366">
        <ele>1557.4</ele>
        <time>2026-02-07T15:49:12.000Z</time>
      </trkpt>
      <trkpt lat="43.03892" lon="-0.33664">
        <ele>1557.4</ele>
        <time>2026-02-07T15:49:15.000Z</time>
      </trkpt>
      <trkpt lat="43.03894" lon="-0.33669">
        <ele>1557.5</ele>
        <time>2026-02-07T15:49:18.000Z</time>
      </trkpt>
      <trkpt lat="43.03895" lon="-0.33671">
        <ele>1557.6</ele>
        <time>2026-02-07T15:49:21.000Z</time>
      </trkpt>
      <trkpt lat="43.03897" lon="-0.33673">
        <ele>1557.7</ele>
        <time>2026-02-07T15:49:24.000Z</time>
      </trkpt>
      <trkpt lat="43.03898" lon="-0.33674">
        <ele>1558</ele>
        <time>2026-02-07T15:49:27.000Z</time>
      </trkpt>
      <trkpt lat="43.03899" lon="-0.33672">
        <ele>1558.3</ele>
        <time>2026-02-07T15:49:30.000Z</time>
      </trkpt>
      <trkpt lat="43.03901" lon="-0.33672">
        <ele>1558.6</ele>
        <time>2026-02-07T15:49:33.000Z</time>
      </trkpt>
      <trkpt lat="43.03902" lon="-0.3367">
        <ele>1559</ele>
        <time>2026-02-07T15:49:36.000Z</time>
      </trkpt>
      <trkpt lat="43.03903" lon="-0.3367">
        <ele>1559.3</ele>
        <time>2026-02-07T15:49:39.000Z</time>
      </trkpt>
      <trkpt lat="43.03903" lon="-0.33671">
        <ele>1559.3</ele>
        <time>2026-02-07T15:49:40.000Z</time>
      </trkpt>
      <trkpt lat="43.03902" lon="-0.33671">
        <ele>1559.4</ele>
        <time>2026-02-07T15:49:41.000Z</time>
      </trkpt>
      <trkpt lat="43.03902" lon="-0.3367">
        <ele>1559.5</ele>
        <time>2026-02-07T15:49:42.000Z</time>
      </trkpt>
      <trkpt lat="43.03902" lon="-0.3367">
        <ele>1559.5</ele>
        <time>2026-02-07T15:49:43.000Z</time>
      </trkpt>
      <trkpt lat="43.03902" lon="-0.3367">
        <ele>1559.6</ele>
        <time>2026-02-07T15:49:44.000Z</time>
      </trkpt>
      <trkpt lat="43.03903" lon="-0.3367">
        <ele>1559.7</ele>
        <time>2026-02-07T15:49:47.000Z</time>
      </trkpt>
      <trkpt lat="43.03903" lon="-0.33669">
        <ele>1559.8</ele>
        <time>2026-02-07T15:49:50.000Z</time>
      </trkpt>
      <trkpt lat="43.03903" lon="-0.33669">
        <ele>1559.9</ele>
        <time>2026-02-07T15:49:53.000Z</time>
      </trkpt>
      <trkpt lat="43.03904" lon="-0.3367">
        <ele>1559.9</ele>
        <time>2026-02-07T15:49:56.000Z</time>
      </trkpt>
      <trkpt lat="43.03904" lon="-0.33671">
        <ele>1559.9</ele>
        <time>2026-02-07T15:49:59.000Z</time>
      </trkpt>
      <trkpt lat="43.03903" lon="-0.33672">
        <ele>1559.9</ele>
        <time>2026-02-07T15:50:02.000Z</time>
      </trkpt>
      <trkpt lat="43.03902" lon="-0.33673">
        <ele>1559.9</ele>
        <time>2026-02-07T15:50:05.000Z</time>
      </trkpt>
      <trkpt lat="43.03902" lon="-0.33673">
        <ele>1559.9</ele>
        <time>2026-02-07T15:50:08.000Z</time>
      </trkpt>
      <trkpt lat="43.03902" lon="-0.33672">
        <ele>1559.9</ele>
        <time>2026-02-07T15:50:11.000Z</time>
      </trkpt>
      <trkpt lat="43.03902" lon="-0.3367">
        <ele>1559.9</ele>
        <time>2026-02-07T15:50:14.000Z</time>
      </trkpt>
      <trkpt lat="43.03902" lon="-0.33669">
        <ele>1559.9</ele>
        <time>2026-02-07T15:50:15.000Z</time>
      </trkpt>
      <trkpt lat="43.03902" lon="-0.33669">
        <ele>1559.9</ele>
        <time>2026-02-07T15:50:16.000Z</time>
      </trkpt>
      <trkpt lat="43.03902" lon="-0.33669">
        <ele>1559.9</ele>
        <time>2026-02-07T15:50:19.000Z</time>
      </trkpt>
      <trkpt lat="43.03902" lon="-0.33669">
        <ele>1559.9</ele>
        <time>2026-02-07T15:50:22.000Z</time>
      </trkpt>
      <trkpt lat="43.03903" lon="-0.33668">
        <ele>1559.9</ele>
        <time>2026-02-07T15:50:24.000Z</time>
      </trkpt>
      <trkpt lat="43.03903" lon="-0.33667">
        <ele>1559.9</ele>
        <time>2026-02-07T15:50:25.000Z</time>
      </trkpt>
      <trkpt lat="43.03903" lon="-0.33665">
        <ele>1559.9</ele>
        <time>2026-02-07T15:50:26.000Z</time>
      </trkpt>
      <trkpt lat="43.03903" lon="-0.33661">
        <ele>1559.9</ele>
        <time>2026-02-07T15:50:29.000Z</time>
      </trkpt>
      <trkpt lat="43.03905" lon="-0.33658">
        <ele>1559.9</ele>
        <time>2026-02-07T15:50:32.000Z</time>
      </trkpt>
      <trkpt lat="43.03908" lon="-0.33657">
        <ele>1559.9</ele>
        <time>2026-02-07T15:50:35.000Z</time>
      </trkpt>
      <trkpt lat="43.0391" lon="-0.33656">
        <ele>1559.9</ele>
        <time>2026-02-07T15:50:38.000Z</time>
      </trkpt>
      <trkpt lat="43.03912" lon="-0.33657">
        <ele>1560</ele>
        <time>2026-02-07T15:50:41.000Z</time>
      </trkpt>
      <trkpt lat="43.03912" lon="-0.33657">
        <ele>1560</ele>
        <time>2026-02-07T15:50:44.000Z</time>
      </trkpt>
      <trkpt lat="43.03913" lon="-0.33658">
        <ele>1560.2</ele>
        <time>2026-02-07T15:50:47.000Z</time>
      </trkpt>
      <trkpt lat="43.03913" lon="-0.33659">
        <ele>1560.3</ele>
        <time>2026-02-07T15:50:50.000Z</time>
      </trkpt>
      <trkpt lat="43.03913" lon="-0.3366">
        <ele>1560.5</ele>
        <time>2026-02-07T15:50:53.000Z</time>
      </trkpt>
      <trkpt lat="43.03913" lon="-0.33662">
        <ele>1560.8</ele>
        <time>2026-02-07T15:50:56.000Z</time>
      </trkpt>
      <trkpt lat="43.03914" lon="-0.33664">
        <ele>1561.1</ele>
        <time>2026-02-07T15:50:59.000Z</time>
      </trkpt>
      <trkpt lat="43.03914" lon="-0.33664">
        <ele>1561.5</ele>
        <time>2026-02-07T15:51:02.000Z</time>
      </trkpt>
      <trkpt lat="43.03914" lon="-0.33664">
        <ele>1561.7</ele>
        <time>2026-02-07T15:51:04.000Z</time>
      </trkpt>
      <trkpt lat="43.03914" lon="-0.33664">
        <ele>1561.8</ele>
        <time>2026-02-07T15:51:05.000Z</time>
      </trkpt>
      <trkpt lat="43.03914" lon="-0.33664">
        <ele>1561.9</ele>
        <time>2026-02-07T15:51:06.000Z</time>
      </trkpt>
      <trkpt lat="43.03914" lon="-0.33664">
        <ele>1562.1</ele>
        <time>2026-02-07T15:51:09.000Z</time>
      </trkpt>
      <trkpt lat="43.03914" lon="-0.33664">
        <ele>1562.1</ele>
        <time>2026-02-07T15:51:10.000Z</time>
      </trkpt>
      <trkpt lat="43.03915" lon="-0.33664">
        <ele>1562.2</ele>
        <time>2026-02-07T15:51:11.000Z</time>
      </trkpt>
      <trkpt lat="43.03915" lon="-0.33664">
        <ele>1562.4</ele>
        <time>2026-02-07T15:51:14.000Z</time>
      </trkpt>
      <trkpt lat="43.03916" lon="-0.33666">
        <ele>1562.6</ele>
        <time>2026-02-07T15:51:17.000Z</time>
      </trkpt>
      <trkpt lat="43.03918" lon="-0.33667">
        <ele>1563</ele>
        <time>2026-02-07T15:51:20.000Z</time>
      </trkpt>
      <trkpt lat="43.0392" lon="-0.33667">
        <ele>1563.7</ele>
        <time>2026-02-07T15:51:23.000Z</time>
      </trkpt>
      <trkpt lat="43.03922" lon="-0.33671">
        <ele>1564.7</ele>
        <time>2026-02-07T15:51:26.000Z</time>
      </trkpt>
      <trkpt lat="43.03922" lon="-0.33673">
        <ele>1565.6</ele>
        <time>2026-02-07T15:51:29.000Z</time>
      </trkpt>
      <trkpt lat="43.03923" lon="-0.33674">
        <ele>1566.2</ele>
        <time>2026-02-07T15:51:32.000Z</time>
      </trkpt>
      <trkpt lat="43.03924" lon="-0.33677">
        <ele>1566.6</ele>
        <time>2026-02-07T15:51:35.000Z</time>
      </trkpt>
      <trkpt lat="43.03924" lon="-0.33679">
        <ele>1566.9</ele>
        <time>2026-02-07T15:51:38.000Z</time>
      </trkpt>
      <trkpt lat="43.03925" lon="-0.33679">
        <ele>1567.4</ele>
        <time>2026-02-07T15:51:41.000Z</time>
      </trkpt>
      <trkpt lat="43.03925" lon="-0.33679">
        <ele>1567.9</ele>
        <time>2026-02-07T15:51:44.000Z</time>
      </trkpt>
      <trkpt lat="43.03926" lon="-0.33682">
        <ele>1568.5</ele>
        <time>2026-02-07T15:51:47.000Z</time>
      </trkpt>
      <trkpt lat="43.03927" lon="-0.33683">
        <ele>1569</ele>
        <time>2026-02-07T15:51:50.000Z</time>
      </trkpt>
      <trkpt lat="43.03928" lon="-0.33684">
        <ele>1569.5</ele>
        <time>2026-02-07T15:51:53.000Z</time>
      </trkpt>
      <trkpt lat="43.03929" lon="-0.33685">
        <ele>1569.8</ele>
        <time>2026-02-07T15:51:56.000Z</time>
      </trkpt>
      <trkpt lat="43.03929" lon="-0.33686">
        <ele>1570.2</ele>
        <time>2026-02-07T15:51:59.000Z</time>
      </trkpt>
      <trkpt lat="43.0393" lon="-0.33687">
        <ele>1570.7</ele>
        <time>2026-02-07T15:52:02.000Z</time>
      </trkpt>
      <trkpt lat="43.03931" lon="-0.33689">
        <ele>1571.2</ele>
        <time>2026-02-07T15:52:05.000Z</time>
      </trkpt>
      <trkpt lat="43.0393" lon="-0.33691">
        <ele>1571.6</ele>
        <time>2026-02-07T15:52:08.000Z</time>
      </trkpt>
      <trkpt lat="43.0393" lon="-0.33693">
        <ele>1572</ele>
        <time>2026-02-07T15:52:11.000Z</time>
      </trkpt>
      <trkpt lat="43.03929" lon="-0.33695">
        <ele>1572.3</ele>
        <time>2026-02-07T15:52:14.000Z</time>
      </trkpt>
      <trkpt lat="43.0393" lon="-0.33697">
        <ele>1572.6</ele>
        <time>2026-02-07T15:52:17.000Z</time>
      </trkpt>
      <trkpt lat="43.0393" lon="-0.33699">
        <ele>1572.9</ele>
        <time>2026-02-07T15:52:20.000Z</time>
      </trkpt>
      <trkpt lat="43.03931" lon="-0.33701">
        <ele>1573.2</ele>
        <time>2026-02-07T15:52:23.000Z</time>
      </trkpt>
      <trkpt lat="43.03933" lon="-0.33702">
        <ele>1573.5</ele>
        <time>2026-02-07T15:52:26.000Z</time>
      </trkpt>
      <trkpt lat="43.03934" lon="-0.33703">
        <ele>1573.9</ele>
        <time>2026-02-07T15:52:29.000Z</time>
      </trkpt>
      <trkpt lat="43.03935" lon="-0.33703">
        <ele>1574.2</ele>
        <time>2026-02-07T15:52:32.000Z</time>
      </trkpt>
      <trkpt lat="43.03937" lon="-0.33703">
        <ele>1574.5</ele>
        <time>2026-02-07T15:52:35.000Z</time>
      </trkpt>
      <trkpt lat="43.03938" lon="-0.33702">
        <ele>1574.8</ele>
        <time>2026-02-07T15:52:38.000Z</time>
      </trkpt>
      <trkpt lat="43.03938" lon="-0.33703">
        <ele>1575</ele>
        <time>2026-02-07T15:52:41.000Z</time>
      </trkpt>
      <trkpt lat="43.03939" lon="-0.33703">
        <ele>1575.3</ele>
        <time>2026-02-07T15:52:44.000Z</time>
      </trkpt>
      <trkpt lat="43.0394" lon="-0.33703">
        <ele>1575.5</ele>
        <time>2026-02-07T15:52:47.000Z</time>
      </trkpt>
      <trkpt lat="43.03941" lon="-0.33703">
        <ele>1575.8</ele>
        <time>2026-02-07T15:52:50.000Z</time>
      </trkpt>
      <trkpt lat="43.03941" lon="-0.33704">
        <ele>1576.2</ele>
        <time>2026-02-07T15:52:53.000Z</time>
      </trkpt>
      <trkpt lat="43.03941" lon="-0.33706">
        <ele>1576.4</ele>
        <time>2026-02-07T15:52:56.000Z</time>
      </trkpt>
      <trkpt lat="43.03941" lon="-0.33707">
        <ele>1576.7</ele>
        <time>2026-02-07T15:52:59.000Z</time>
      </trkpt>
      <trkpt lat="43.0394" lon="-0.33708">
        <ele>1577</ele>
        <time>2026-02-07T15:53:02.000Z</time>
      </trkpt>
      <trkpt lat="43.03941" lon="-0.33709">
        <ele>1577.3</ele>
        <time>2026-02-07T15:53:05.000Z</time>
      </trkpt>
      <trkpt lat="43.03941" lon="-0.3371">
        <ele>1577.6</ele>
        <time>2026-02-07T15:53:08.000Z</time>
      </trkpt>
      <trkpt lat="43.03942" lon="-0.33709">
        <ele>1577.8</ele>
        <time>2026-02-07T15:53:11.000Z</time>
      </trkpt>
      <trkpt lat="43.03944" lon="-0.3371">
        <ele>1578.3</ele>
        <time>2026-02-07T15:53:14.000Z</time>
      </trkpt>
      <trkpt lat="43.03944" lon="-0.33712">
        <ele>1578.8</ele>
        <time>2026-02-07T15:53:17.000Z</time>
      </trkpt>
      <trkpt lat="43.03945" lon="-0.33713">
        <ele>1579.2</ele>
        <time>2026-02-07T15:53:20.000Z</time>
      </trkpt>
      <trkpt lat="43.03945" lon="-0.33712">
        <ele>1579.6</ele>
        <time>2026-02-07T15:53:23.000Z</time>
      </trkpt>
      <trkpt lat="43.03945" lon="-0.33713">
        <ele>1580</ele>
        <time>2026-02-07T15:53:26.000Z</time>
      </trkpt>
      <trkpt lat="43.03946" lon="-0.33715">
        <ele>1580.5</ele>
        <time>2026-02-07T15:53:29.000Z</time>
      </trkpt>
      <trkpt lat="43.03946" lon="-0.33716">
        <ele>1581</ele>
        <time>2026-02-07T15:53:32.000Z</time>
      </trkpt>
      <trkpt lat="43.03946" lon="-0.33718">
        <ele>1581.4</ele>
        <time>2026-02-07T15:53:35.000Z</time>
      </trkpt>
      <trkpt lat="43.03947" lon="-0.33718">
        <ele>1581.6</ele>
        <time>2026-02-07T15:53:38.000Z</time>
      </trkpt>
      <trkpt lat="43.03947" lon="-0.33718">
        <ele>1581.7</ele>
        <time>2026-02-07T15:53:40.000Z</time>
      </trkpt>
      <trkpt lat="43.03947" lon="-0.33718">
        <ele>1581.8</ele>
        <time>2026-02-07T15:53:41.000Z</time>
      </trkpt>
      <trkpt lat="43.03947" lon="-0.33718">
        <ele>1581.9</ele>
        <time>2026-02-07T15:53:44.000Z</time>
      </trkpt>
      <trkpt lat="43.03946" lon="-0.33718">
        <ele>1581.9</ele>
        <time>2026-02-07T15:53:47.000Z</time>
      </trkpt>
      <trkpt lat="43.03946" lon="-0.33718">
        <ele>1581.9</ele>
        <time>2026-02-07T15:53:48.000Z</time>
      </trkpt>
      <trkpt lat="43.03945" lon="-0.33717">
        <ele>1581.8</ele>
        <time>2026-02-07T15:53:51.000Z</time>
      </trkpt>
      <trkpt lat="43.03946" lon="-0.33715">
        <ele>1581.8</ele>
        <time>2026-02-07T15:53:54.000Z</time>
      </trkpt>
      <trkpt lat="43.03946" lon="-0.33715">
        <ele>1581.8</ele>
        <time>2026-02-07T15:53:57.000Z</time>
      </trkpt>
      <trkpt lat="43.03947" lon="-0.33716">
        <ele>1581.8</ele>
        <time>2026-02-07T15:54:00.000Z</time>
      </trkpt>
      <trkpt lat="43.03947" lon="-0.33715">
        <ele>1581.8</ele>
        <time>2026-02-07T15:54:03.000Z</time>
      </trkpt>
      <trkpt lat="43.03946" lon="-0.33716">
        <ele>1581.8</ele>
        <time>2026-02-07T15:54:06.000Z</time>
      </trkpt>
      <trkpt lat="43.03946" lon="-0.33717">
        <ele>1581.8</ele>
        <time>2026-02-07T15:54:09.000Z</time>
      </trkpt>
      <trkpt lat="43.03946" lon="-0.33718">
        <ele>1581.8</ele>
        <time>2026-02-07T15:54:12.000Z</time>
      </trkpt>
      <trkpt lat="43.03946" lon="-0.33718">
        <ele>1581.8</ele>
        <time>2026-02-07T15:54:13.000Z</time>
      </trkpt>
      <trkpt lat="43.03946" lon="-0.33718">
        <ele>1581.8</ele>
        <time>2026-02-07T15:54:14.000Z</time>
      </trkpt>
      <trkpt lat="43.03946" lon="-0.33718">
        <ele>1581.8</ele>
        <time>2026-02-07T15:54:17.000Z</time>
      </trkpt>
      <trkpt lat="43.03946" lon="-0.33718">
        <ele>1581.8</ele>
        <time>2026-02-07T15:54:18.000Z</time>
      </trkpt>
      <trkpt lat="43.03946" lon="-0.33717">
        <ele>1581.8</ele>
        <time>2026-02-07T15:54:19.000Z</time>
      </trkpt>
      <trkpt lat="43.03947" lon="-0.33713">
        <ele>1581.7</ele>
        <time>2026-02-07T15:54:22.000Z</time>
      </trkpt>
      <trkpt lat="43.03948" lon="-0.33711">
        <ele>1581.7</ele>
        <time>2026-02-07T15:54:25.000Z</time>
      </trkpt>
      <trkpt lat="43.03947" lon="-0.33709">
        <ele>1581.7</ele>
        <time>2026-02-07T15:54:28.000Z</time>
      </trkpt>
      <trkpt lat="43.03947" lon="-0.33711">
        <ele>1581.6</ele>
        <time>2026-02-07T15:54:31.000Z</time>
      </trkpt>
      <trkpt lat="43.03946" lon="-0.33714">
        <ele>1581.6</ele>
        <time>2026-02-07T15:54:34.000Z</time>
      </trkpt>
      <trkpt lat="43.03946" lon="-0.33716">
        <ele>1581.6</ele>
        <time>2026-02-07T15:54:37.000Z</time>
      </trkpt>
      <trkpt lat="43.03947" lon="-0.33717">
        <ele>1581.6</ele>
        <time>2026-02-07T15:54:40.000Z</time>
      </trkpt>
      <trkpt lat="43.03946" lon="-0.33719">
        <ele>1581.6</ele>
        <time>2026-02-07T15:54:43.000Z</time>
      </trkpt>
      <trkpt lat="43.03946" lon="-0.3372">
        <ele>1581.6</ele>
        <time>2026-02-07T15:54:46.000Z</time>
      </trkpt>
      <trkpt lat="43.03945" lon="-0.33718">
        <ele>1581.6</ele>
        <time>2026-02-07T15:54:49.000Z</time>
      </trkpt>
      <trkpt lat="43.03944" lon="-0.33718">
        <ele>1581.6</ele>
        <time>2026-02-07T15:54:52.000Z</time>
      </trkpt>
      <trkpt lat="43.03944" lon="-0.33717">
        <ele>1581.6</ele>
        <time>2026-02-07T15:54:53.000Z</time>
      </trkpt>
      <trkpt lat="43.03944" lon="-0.33717">
        <ele>1581.6</ele>
        <time>2026-02-07T15:54:54.000Z</time>
      </trkpt>
      <trkpt lat="43.03944" lon="-0.33717">
        <ele>1581.6</ele>
        <time>2026-02-07T15:54:55.000Z</time>
      </trkpt>
      <trkpt lat="43.03945" lon="-0.33716">
        <ele>1581.6</ele>
        <time>2026-02-07T15:54:56.000Z</time>
      </trkpt>
      <trkpt lat="43.03945" lon="-0.33716">
        <ele>1581.6</ele>
        <time>2026-02-07T15:54:57.000Z</time>
      </trkpt>
      <trkpt lat="43.03946" lon="-0.33717">
        <ele>1581.7</ele>
        <time>2026-02-07T15:55:00.000Z</time>
      </trkpt>
      <trkpt lat="43.03947" lon="-0.33717">
        <ele>1581.7</ele>
        <time>2026-02-07T15:55:03.000Z</time>
      </trkpt>
      <trkpt lat="43.03948" lon="-0.33718">
        <ele>1581.7</ele>
        <time>2026-02-07T15:55:06.000Z</time>
      </trkpt>
      <trkpt lat="43.03948" lon="-0.33718">
        <ele>1581.7</ele>
        <time>2026-02-07T15:55:09.000Z</time>
      </trkpt>
      <trkpt lat="43.03948" lon="-0.33718">
        <ele>1581.7</ele>
        <time>2026-02-07T15:55:12.000Z</time>
      </trkpt>
      <trkpt lat="43.03948" lon="-0.33718">
        <ele>1581.7</ele>
        <time>2026-02-07T15:55:13.000Z</time>
      </trkpt>
      <trkpt lat="43.03948" lon="-0.33717">
        <ele>1581.7</ele>
        <time>2026-02-07T15:55:16.000Z</time>
      </trkpt>
      <trkpt lat="43.03948" lon="-0.33717">
        <ele>1581.7</ele>
        <time>2026-02-07T15:55:17.000Z</time>
      </trkpt>
      <trkpt lat="43.03948" lon="-0.33717">
        <ele>1581.7</ele>
        <time>2026-02-07T15:55:18.000Z</time>
      </trkpt>
      <trkpt lat="43.03948" lon="-0.33717">
        <ele>1581.7</ele>
        <time>2026-02-07T15:55:19.000Z</time>
      </trkpt>
      <trkpt lat="43.03947" lon="-0.33717">
        <ele>1581.7</ele>
        <time>2026-02-07T15:55:20.000Z</time>
      </trkpt>
      <trkpt lat="43.03947" lon="-0.33717">
        <ele>1581.7</ele>
        <time>2026-02-07T15:55:21.000Z</time>
      </trkpt>
      <trkpt lat="43.03947" lon="-0.33718">
        <ele>1581.7</ele>
        <time>2026-02-07T15:55:22.000Z</time>
      </trkpt>
      <trkpt lat="43.03946" lon="-0.33718">
        <ele>1581.7</ele>
        <time>2026-02-07T15:55:23.000Z</time>
      </trkpt>
      <trkpt lat="43.03946" lon="-0.33719">
        <ele>1581.7</ele>
        <time>2026-02-07T15:55:24.000Z</time>
      </trkpt>
      <trkpt lat="43.03946" lon="-0.33719">
        <ele>1581.7</ele>
        <time>2026-02-07T15:55:25.000Z</time>
      </trkpt>
      <trkpt lat="43.03946" lon="-0.33719">
        <ele>1581.7</ele>
        <time>2026-02-07T15:55:26.000Z</time>
      </trkpt>
      <trkpt lat="43.03946" lon="-0.33719">
        <ele>1581.7</ele>
        <time>2026-02-07T15:55:27.000Z</time>
      </trkpt>
      <trkpt lat="43.03946" lon="-0.33719">
        <ele>1581.7</ele>
        <time>2026-02-07T15:55:28.000Z</time>
      </trkpt>
      <trkpt lat="43.03946" lon="-0.33719">
        <ele>1581.7</ele>
        <time>2026-02-07T15:55:29.000Z</time>
      </trkpt>
      <trkpt lat="43.03946" lon="-0.33718">
        <ele>1581.8</ele>
        <time>2026-02-07T15:55:32.000Z</time>
      </trkpt>
      <trkpt lat="43.03946" lon="-0.33717">
        <ele>1581.8</ele>
        <time>2026-02-07T15:55:35.000Z</time>
      </trkpt>
      <trkpt lat="43.03946" lon="-0.33718">
        <ele>1581.8</ele>
        <time>2026-02-07T15:55:38.000Z</time>
      </trkpt>
      <trkpt lat="43.03946" lon="-0.33717">
        <ele>1581.8</ele>
        <time>2026-02-07T15:55:41.000Z</time>
      </trkpt>
      <trkpt lat="43.03945" lon="-0.33717">
        <ele>1581.8</ele>
        <time>2026-02-07T15:55:44.000Z</time>
      </trkpt>
      <trkpt lat="43.03944" lon="-0.33715">
        <ele>1581.7</ele>
        <time>2026-02-07T15:55:47.000Z</time>
      </trkpt>
      <trkpt lat="43.03943" lon="-0.33715">
        <ele>1581.7</ele>
        <time>2026-02-07T15:55:50.000Z</time>
      </trkpt>
      <trkpt lat="43.03943" lon="-0.33715">
        <ele>1581.8</ele>
        <time>2026-02-07T15:55:53.000Z</time>
      </trkpt>
      <trkpt lat="43.03943" lon="-0.33715">
        <ele>1581.8</ele>
        <time>2026-02-07T15:55:55.000Z</time>
      </trkpt>
      <trkpt lat="43.03943" lon="-0.33715">
        <ele>1581.8</ele>
        <time>2026-02-07T15:55:56.000Z</time>
      </trkpt>
      <trkpt lat="43.03943" lon="-0.33715">
        <ele>1581.8</ele>
        <time>2026-02-07T15:55:57.000Z</time>
      </trkpt>
      <trkpt lat="43.03943" lon="-0.33715">
        <ele>1581.8</ele>
        <time>2026-02-07T15:56:00.000Z</time>
      </trkpt>
      <trkpt lat="43.03944" lon="-0.33714">
        <ele>1581.8</ele>
        <time>2026-02-07T15:56:02.000Z</time>
      </trkpt>
      <trkpt lat="43.03944" lon="-0.33715">
        <ele>1581.8</ele>
        <time>2026-02-07T15:56:03.000Z</time>
      </trkpt>
      <trkpt lat="43.03944" lon="-0.33715">
        <ele>1581.8</ele>
        <time>2026-02-07T15:56:04.000Z</time>
      </trkpt>
      <trkpt lat="43.03943" lon="-0.33716">
        <ele>1581.8</ele>
        <time>2026-02-07T15:56:07.000Z</time>
      </trkpt>
      <trkpt lat="43.03943" lon="-0.33716">
        <ele>1581.8</ele>
        <time>2026-02-07T15:56:08.000Z</time>
      </trkpt>
      <trkpt lat="43.03943" lon="-0.33716">
        <ele>1581.8</ele>
        <time>2026-02-07T15:56:09.000Z</time>
      </trkpt>
      <trkpt lat="43.03943" lon="-0.33716">
        <ele>1581.8</ele>
        <time>2026-02-07T15:56:12.000Z</time>
      </trkpt>
      <trkpt lat="43.03943" lon="-0.33717">
        <ele>1581.8</ele>
        <time>2026-02-07T15:56:14.000Z</time>
      </trkpt>
      <trkpt lat="43.03943" lon="-0.33717">
        <ele>1581.8</ele>
        <time>2026-02-07T15:56:15.000Z</time>
      </trkpt>
      <trkpt lat="43.03943" lon="-0.33718">
        <ele>1581.8</ele>
        <time>2026-02-07T15:56:16.000Z</time>
      </trkpt>
      <trkpt lat="43.03943" lon="-0.33719">
        <ele>1581.8</ele>
        <time>2026-02-07T15:56:19.000Z</time>
      </trkpt>
      <trkpt lat="43.03943" lon="-0.33719">
        <ele>1581.8</ele>
        <time>2026-02-07T15:56:20.000Z</time>
      </trkpt>
      <trkpt lat="43.03943" lon="-0.3372">
        <ele>1581.8</ele>
        <time>2026-02-07T15:56:21.000Z</time>
      </trkpt>
      <trkpt lat="43.03944" lon="-0.3372">
        <ele>1581.8</ele>
        <time>2026-02-07T15:56:22.000Z</time>
      </trkpt>
      <trkpt lat="43.03944" lon="-0.33721">
        <ele>1581.8</ele>
        <time>2026-02-07T15:56:23.000Z</time>
      </trkpt>
      <trkpt lat="43.03943" lon="-0.33721">
        <ele>1581.8</ele>
        <time>2026-02-07T15:56:26.000Z</time>
      </trkpt>
      <trkpt lat="43.03943" lon="-0.33721">
        <ele>1581.8</ele>
        <time>2026-02-07T15:56:27.000Z</time>
      </trkpt>
      <trkpt lat="43.03943" lon="-0.33721">
        <ele>1581.8</ele>
        <time>2026-02-07T15:56:28.000Z</time>
      </trkpt>
      <trkpt lat="43.03943" lon="-0.33721">
        <ele>1581.7</ele>
        <time>2026-02-07T15:56:31.000Z</time>
      </trkpt>
      <trkpt lat="43.03943" lon="-0.33721">
        <ele>1581.7</ele>
        <time>2026-02-07T15:56:34.000Z</time>
      </trkpt>
      <trkpt lat="43.03943" lon="-0.3372">
        <ele>1581.7</ele>
        <time>2026-02-07T15:56:37.000Z</time>
      </trkpt>
      <trkpt lat="43.03943" lon="-0.3372">
        <ele>1581.7</ele>
        <time>2026-02-07T15:56:38.000Z</time>
      </trkpt>
      <trkpt lat="43.03943" lon="-0.3372">
        <ele>1581.7</ele>
        <time>2026-02-07T15:56:39.000Z</time>
      </trkpt>
      <trkpt lat="43.03943" lon="-0.3372">
        <ele>1581.7</ele>
        <time>2026-02-07T15:56:40.000Z</time>
      </trkpt>
      <trkpt lat="43.03944" lon="-0.3372">
        <ele>1581.7</ele>
        <time>2026-02-07T15:56:41.000Z</time>
      </trkpt>
      <trkpt lat="43.03944" lon="-0.3372">
        <ele>1581.7</ele>
        <time>2026-02-07T15:56:42.000Z</time>
      </trkpt>
      <trkpt lat="43.03943" lon="-0.3372">
        <ele>1581.7</ele>
        <time>2026-02-07T15:56:43.000Z</time>
      </trkpt>
      <trkpt lat="43.03944" lon="-0.33719">
        <ele>1581.7</ele>
        <time>2026-02-07T15:56:46.000Z</time>
      </trkpt>
      <trkpt lat="43.03943" lon="-0.33719">
        <ele>1581.7</ele>
        <time>2026-02-07T15:56:49.000Z</time>
      </trkpt>
      <trkpt lat="43.03943" lon="-0.33719">
        <ele>1581.7</ele>
        <time>2026-02-07T15:56:52.000Z</time>
      </trkpt>
      <trkpt lat="43.03943" lon="-0.33719">
        <ele>1581.7</ele>
        <time>2026-02-07T15:56:53.000Z</time>
      </trkpt>
      <trkpt lat="43.03943" lon="-0.33719">
        <ele>1581.7</ele>
        <time>2026-02-07T15:56:54.000Z</time>
      </trkpt>
      <trkpt lat="43.03943" lon="-0.33718">
        <ele>1581.7</ele>
        <time>2026-02-07T15:56:57.000Z</time>
      </trkpt>
      <trkpt lat="43.03943" lon="-0.33718">
        <ele>1581.7</ele>
        <time>2026-02-07T15:57:00.000Z</time>
      </trkpt>
      <trkpt lat="43.03943" lon="-0.33718">
        <ele>1581.7</ele>
        <time>2026-02-07T15:57:03.000Z</time>
      </trkpt>
      <trkpt lat="43.03942" lon="-0.33717">
        <ele>1581.7</ele>
        <time>2026-02-07T15:57:06.000Z</time>
      </trkpt>
      <trkpt lat="43.03943" lon="-0.33715">
        <ele>1581.7</ele>
        <time>2026-02-07T15:57:08.000Z</time>
      </trkpt>
      <trkpt lat="43.03943" lon="-0.33715">
        <ele>1581.7</ele>
        <time>2026-02-07T15:57:09.000Z</time>
      </trkpt>
      <trkpt lat="43.03944" lon="-0.33713">
        <ele>1581.7</ele>
        <time>2026-02-07T15:57:12.000Z</time>
      </trkpt>
      <trkpt lat="43.03943" lon="-0.3371">
        <ele>1581.7</ele>
        <time>2026-02-07T15:57:15.000Z</time>
      </trkpt>
      <trkpt lat="43.03944" lon="-0.33708">
        <ele>1581.6</ele>
        <time>2026-02-07T15:57:18.000Z</time>
      </trkpt>
      <trkpt lat="43.03943" lon="-0.33708">
        <ele>1581.6</ele>
        <time>2026-02-07T15:57:21.000Z</time>
      </trkpt>
      <trkpt lat="43.03941" lon="-0.33707">
        <ele>1581.5</ele>
        <time>2026-02-07T15:57:24.000Z</time>
      </trkpt>
      <trkpt lat="43.0394" lon="-0.33707">
        <ele>1581.3</ele>
        <time>2026-02-07T15:57:27.000Z</time>
      </trkpt>
      <trkpt lat="43.0394" lon="-0.33707">
        <ele>1581.2</ele>
        <time>2026-02-07T15:57:30.000Z</time>
      </trkpt>
      <trkpt lat="43.0394" lon="-0.33707">
        <ele>1580.9</ele>
        <time>2026-02-07T15:57:33.000Z</time>
      </trkpt>
      <trkpt lat="43.0394" lon="-0.33707">
        <ele>1580.7</ele>
        <time>2026-02-07T15:57:36.000Z</time>
      </trkpt>
      <trkpt lat="43.03939" lon="-0.33708">
        <ele>1580.4</ele>
        <time>2026-02-07T15:57:39.000Z</time>
      </trkpt>
      <trkpt lat="43.03938" lon="-0.33708">
        <ele>1580</ele>
        <time>2026-02-07T15:57:42.000Z</time>
      </trkpt>
      <trkpt lat="43.03936" lon="-0.33707">
        <ele>1579.6</ele>
        <time>2026-02-07T15:57:45.000Z</time>
      </trkpt>
      <trkpt lat="43.03936" lon="-0.33707">
        <ele>1579.4</ele>
        <time>2026-02-07T15:57:47.000Z</time>
      </trkpt>
      <trkpt lat="43.03936" lon="-0.33707">
        <ele>1579.3</ele>
        <time>2026-02-07T15:57:48.000Z</time>
      </trkpt>
      <trkpt lat="43.03937" lon="-0.33707">
        <ele>1579.1</ele>
        <time>2026-02-07T15:57:49.000Z</time>
      </trkpt>
      <trkpt lat="43.03937" lon="-0.33706">
        <ele>1578.8</ele>
        <time>2026-02-07T15:57:52.000Z</time>
      </trkpt>
      <trkpt lat="43.03937" lon="-0.33706">
        <ele>1578.6</ele>
        <time>2026-02-07T15:57:55.000Z</time>
      </trkpt>
      <trkpt lat="43.03937" lon="-0.33705">
        <ele>1578.4</ele>
        <time>2026-02-07T15:57:58.000Z</time>
      </trkpt>
      <trkpt lat="43.03937" lon="-0.33705">
        <ele>1578.3</ele>
        <time>2026-02-07T15:57:59.000Z</time>
      </trkpt>
      <trkpt lat="43.03937" lon="-0.33706">
        <ele>1578.3</ele>
        <time>2026-02-07T15:58:00.000Z</time>
      </trkpt>
      <trkpt lat="43.03937" lon="-0.33706">
        <ele>1578.3</ele>
        <time>2026-02-07T15:58:01.000Z</time>
      </trkpt>
      <trkpt lat="43.03937" lon="-0.33705">
        <ele>1578.3</ele>
        <time>2026-02-07T15:58:04.000Z</time>
      </trkpt>
      <trkpt lat="43.03939" lon="-0.33703">
        <ele>1578.2</ele>
        <time>2026-02-07T15:58:07.000Z</time>
      </trkpt>
      <trkpt lat="43.03938" lon="-0.33701">
        <ele>1578</ele>
        <time>2026-02-07T15:58:10.000Z</time>
      </trkpt>
      <trkpt lat="43.03937" lon="-0.33701">
        <ele>1577.7</ele>
        <time>2026-02-07T15:58:13.000Z</time>
      </trkpt>
      <trkpt lat="43.03935" lon="-0.337">
        <ele>1577.4</ele>
        <time>2026-02-07T15:58:16.000Z</time>
      </trkpt>
      <trkpt lat="43.03934" lon="-0.337">
        <ele>1577</ele>
        <time>2026-02-07T15:58:19.000Z</time>
      </trkpt>
      <trkpt lat="43.03933" lon="-0.337">
        <ele>1576.7</ele>
        <time>2026-02-07T15:58:22.000Z</time>
      </trkpt>
      <trkpt lat="43.03933" lon="-0.33699">
        <ele>1576.5</ele>
        <time>2026-02-07T15:58:25.000Z</time>
      </trkpt>
      <trkpt lat="43.03933" lon="-0.33699">
        <ele>1576.4</ele>
        <time>2026-02-07T15:58:26.000Z</time>
      </trkpt>
      <trkpt lat="43.03933" lon="-0.33699">
        <ele>1576.3</ele>
        <time>2026-02-07T15:58:27.000Z</time>
      </trkpt>
      <trkpt lat="43.03933" lon="-0.337">
        <ele>1576.1</ele>
        <time>2026-02-07T15:58:30.000Z</time>
      </trkpt>
      <trkpt lat="43.03932" lon="-0.337">
        <ele>1575.9</ele>
        <time>2026-02-07T15:58:33.000Z</time>
      </trkpt>
      <trkpt lat="43.03932" lon="-0.33699">
        <ele>1575.9</ele>
        <time>2026-02-07T15:58:34.000Z</time>
      </trkpt>
      <trkpt lat="43.03932" lon="-0.337">
        <ele>1575.8</ele>
        <time>2026-02-07T15:58:35.000Z</time>
      </trkpt>
      <trkpt lat="43.03932" lon="-0.337">
        <ele>1575.8</ele>
        <time>2026-02-07T15:58:36.000Z</time>
      </trkpt>
      <trkpt lat="43.03931" lon="-0.337">
        <ele>1575.6</ele>
        <time>2026-02-07T15:58:39.000Z</time>
      </trkpt>
      <trkpt lat="43.0393" lon="-0.337">
        <ele>1575.4</ele>
        <time>2026-02-07T15:58:42.000Z</time>
      </trkpt>
      <trkpt lat="43.03929" lon="-0.337">
        <ele>1575.2</ele>
        <time>2026-02-07T15:58:45.000Z</time>
      </trkpt>
      <trkpt lat="43.03928" lon="-0.33699">
        <ele>1575.1</ele>
        <time>2026-02-07T15:58:48.000Z</time>
      </trkpt>
      <trkpt lat="43.03929" lon="-0.33699">
        <ele>1575</ele>
        <time>2026-02-07T15:58:50.000Z</time>
      </trkpt>
      <trkpt lat="43.03929" lon="-0.33699">
        <ele>1574.9</ele>
        <time>2026-02-07T15:58:51.000Z</time>
      </trkpt>
      <trkpt lat="43.03928" lon="-0.33699">
        <ele>1574.8</ele>
        <time>2026-02-07T15:58:54.000Z</time>
      </trkpt>
      <trkpt lat="43.03928" lon="-0.33699">
        <ele>1574.8</ele>
        <time>2026-02-07T15:58:57.000Z</time>
      </trkpt>
      <trkpt lat="43.03928" lon="-0.33699">
        <ele>1574.7</ele>
        <time>2026-02-07T15:59:00.000Z</time>
      </trkpt>
      <trkpt lat="43.03928" lon="-0.33699">
        <ele>1574.7</ele>
        <time>2026-02-07T15:59:03.000Z</time>
      </trkpt>
      <trkpt lat="43.03928" lon="-0.33698">
        <ele>1574.7</ele>
        <time>2026-02-07T15:59:05.000Z</time>
      </trkpt>
      <trkpt lat="43.03928" lon="-0.33698">
        <ele>1574.7</ele>
        <time>2026-02-07T15:59:06.000Z</time>
      </trkpt>
      <trkpt lat="43.03928" lon="-0.33698">
        <ele>1574.6</ele>
        <time>2026-02-07T15:59:07.000Z</time>
      </trkpt>
      <trkpt lat="43.03928" lon="-0.33697">
        <ele>1574.6</ele>
        <time>2026-02-07T15:59:10.000Z</time>
      </trkpt>
      <trkpt lat="43.03929" lon="-0.33695">
        <ele>1574.5</ele>
        <time>2026-02-07T15:59:13.000Z</time>
      </trkpt>
      <trkpt lat="43.03929" lon="-0.33693">
        <ele>1574.5</ele>
        <time>2026-02-07T15:59:16.000Z</time>
      </trkpt>
      <trkpt lat="43.03928" lon="-0.33691">
        <ele>1574.3</ele>
        <time>2026-02-07T15:59:19.000Z</time>
      </trkpt>
      <trkpt lat="43.03927" lon="-0.33687">
        <ele>1574.2</ele>
        <time>2026-02-07T15:59:22.000Z</time>
      </trkpt>
      <trkpt lat="43.03927" lon="-0.33684">
        <ele>1573.9</ele>
        <time>2026-02-07T15:59:25.000Z</time>
      </trkpt>
      <trkpt lat="43.03927" lon="-0.3368">
        <ele>1573.6</ele>
        <time>2026-02-07T15:59:28.000Z</time>
      </trkpt>
      <trkpt lat="43.03927" lon="-0.33678">
        <ele>1573.2</ele>
        <time>2026-02-07T15:59:31.000Z</time>
      </trkpt>
      <trkpt lat="43.03926" lon="-0.33675">
        <ele>1572.7</ele>
        <time>2026-02-07T15:59:34.000Z</time>
      </trkpt>
      <trkpt lat="43.03925" lon="-0.33673">
        <ele>1572.1</ele>
        <time>2026-02-07T15:59:37.000Z</time>
      </trkpt>
      <trkpt lat="43.03925" lon="-0.33672">
        <ele>1571.6</ele>
        <time>2026-02-07T15:59:40.000Z</time>
      </trkpt>
      <trkpt lat="43.03924" lon="-0.33672">
        <ele>1571.2</ele>
        <time>2026-02-07T15:59:43.000Z</time>
      </trkpt>
      <trkpt lat="43.03923" lon="-0.33671">
        <ele>1570.7</ele>
        <time>2026-02-07T15:59:46.000Z</time>
      </trkpt>
      <trkpt lat="43.03923" lon="-0.3367">
        <ele>1570.3</ele>
        <time>2026-02-07T15:59:49.000Z</time>
      </trkpt>
      <trkpt lat="43.03923" lon="-0.33671">
        <ele>1569.8</ele>
        <time>2026-02-07T15:59:52.000Z</time>
      </trkpt>
      <trkpt lat="43.03923" lon="-0.3367">
        <ele>1569.5</ele>
        <time>2026-02-07T15:59:55.000Z</time>
      </trkpt>
      <trkpt lat="43.03922" lon="-0.33669">
        <ele>1569.5</ele>
        <time>2026-02-07T15:59:58.000Z</time>
      </trkpt>
      <trkpt lat="43.03922" lon="-0.33667">
        <ele>1569.5</ele>
        <time>2026-02-07T16:00:01.000Z</time>
      </trkpt>
      <trkpt lat="43.03921" lon="-0.33667">
        <ele>1569.4</ele>
        <time>2026-02-07T16:00:04.000Z</time>
      </trkpt>
      <trkpt lat="43.03919" lon="-0.33666">
        <ele>1569.2</ele>
        <time>2026-02-07T16:00:07.000Z</time>
      </trkpt>
      <trkpt lat="43.03918" lon="-0.33665">
        <ele>1569</ele>
        <time>2026-02-07T16:00:10.000Z</time>
      </trkpt>
      <trkpt lat="43.03918" lon="-0.33663">
        <ele>1568.7</ele>
        <time>2026-02-07T16:00:13.000Z</time>
      </trkpt>
      <trkpt lat="43.03919" lon="-0.33661">
        <ele>1568.4</ele>
        <time>2026-02-07T16:00:16.000Z</time>
      </trkpt>
      <trkpt lat="43.03921" lon="-0.33658">
        <ele>1568.3</ele>
        <time>2026-02-07T16:00:19.000Z</time>
      </trkpt>
      <trkpt lat="43.03922" lon="-0.33655">
        <ele>1568.2</ele>
        <time>2026-02-07T16:00:22.000Z</time>
      </trkpt>
      <trkpt lat="43.03922" lon="-0.33654">
        <ele>1568</ele>
        <time>2026-02-07T16:00:25.000Z</time>
      </trkpt>
      <trkpt lat="43.03921" lon="-0.33652">
        <ele>1567.7</ele>
        <time>2026-02-07T16:00:28.000Z</time>
      </trkpt>
      <trkpt lat="43.0392" lon="-0.33652">
        <ele>1567.3</ele>
        <time>2026-02-07T16:00:31.000Z</time>
      </trkpt>
      <trkpt lat="43.0392" lon="-0.33652">
        <ele>1566.9</ele>
        <time>2026-02-07T16:00:34.000Z</time>
      </trkpt>
      <trkpt lat="43.03921" lon="-0.33649">
        <ele>1566.7</ele>
        <time>2026-02-07T16:00:37.000Z</time>
      </trkpt>
      <trkpt lat="43.03922" lon="-0.33647">
        <ele>1566.5</ele>
        <time>2026-02-07T16:00:40.000Z</time>
      </trkpt>
      <trkpt lat="43.03922" lon="-0.33647">
        <ele>1566.2</ele>
        <time>2026-02-07T16:00:43.000Z</time>
      </trkpt>
      <trkpt lat="43.03922" lon="-0.33646">
        <ele>1566</ele>
        <time>2026-02-07T16:00:46.000Z</time>
      </trkpt>
      <trkpt lat="43.03922" lon="-0.33646">
        <ele>1565.9</ele>
        <time>2026-02-07T16:00:49.000Z</time>
      </trkpt>
      <trkpt lat="43.03921" lon="-0.33645">
        <ele>1565.8</ele>
        <time>2026-02-07T16:00:52.000Z</time>
      </trkpt>
      <trkpt lat="43.0392" lon="-0.33643">
        <ele>1565.6</ele>
        <time>2026-02-07T16:00:55.000Z</time>
      </trkpt>
      <trkpt lat="43.03918" lon="-0.33642">
        <ele>1565.4</ele>
        <time>2026-02-07T16:00:58.000Z</time>
      </trkpt>
      <trkpt lat="43.03918" lon="-0.33641">
        <ele>1565.1</ele>
        <time>2026-02-07T16:01:01.000Z</time>
      </trkpt>
      <trkpt lat="43.03918" lon="-0.33638">
        <ele>1564.9</ele>
        <time>2026-02-07T16:01:04.000Z</time>
      </trkpt>
      <trkpt lat="43.03919" lon="-0.33635">
        <ele>1564.7</ele>
        <time>2026-02-07T16:01:07.000Z</time>
      </trkpt>
      <trkpt lat="43.03919" lon="-0.33632">
        <ele>1564.4</ele>
        <time>2026-02-07T16:01:10.000Z</time>
      </trkpt>
      <trkpt lat="43.03918" lon="-0.3363">
        <ele>1564</ele>
        <time>2026-02-07T16:01:13.000Z</time>
      </trkpt>
      <trkpt lat="43.03918" lon="-0.33629">
        <ele>1563.7</ele>
        <time>2026-02-07T16:01:16.000Z</time>
      </trkpt>
      <trkpt lat="43.03918" lon="-0.3363">
        <ele>1563.4</ele>
        <time>2026-02-07T16:01:19.000Z</time>
      </trkpt>
      <trkpt lat="43.03919" lon="-0.3363">
        <ele>1563.3</ele>
        <time>2026-02-07T16:01:20.000Z</time>
      </trkpt>
      <trkpt lat="43.03918" lon="-0.33629">
        <ele>1563.2</ele>
        <time>2026-02-07T16:01:21.000Z</time>
      </trkpt>
      <trkpt lat="43.03919" lon="-0.33629">
        <ele>1563.1</ele>
        <time>2026-02-07T16:01:22.000Z</time>
      </trkpt>
      <trkpt lat="43.03919" lon="-0.33628">
        <ele>1563</ele>
        <time>2026-02-07T16:01:23.000Z</time>
      </trkpt>
      <trkpt lat="43.03919" lon="-0.33627">
        <ele>1563</ele>
        <time>2026-02-07T16:01:24.000Z</time>
      </trkpt>
      <trkpt lat="43.03919" lon="-0.33628">
        <ele>1562.9</ele>
        <time>2026-02-07T16:01:27.000Z</time>
      </trkpt>
      <trkpt lat="43.03919" lon="-0.33629">
        <ele>1562.8</ele>
        <time>2026-02-07T16:01:30.000Z</time>
      </trkpt>
      <trkpt lat="43.03919" lon="-0.3363">
        <ele>1562.8</ele>
        <time>2026-02-07T16:01:33.000Z</time>
      </trkpt>
      <trkpt lat="43.03919" lon="-0.33631">
        <ele>1562.8</ele>
        <time>2026-02-07T16:01:36.000Z</time>
      </trkpt>
      <trkpt lat="43.03918" lon="-0.33632">
        <ele>1562.8</ele>
        <time>2026-02-07T16:01:39.000Z</time>
      </trkpt>
      <trkpt lat="43.03919" lon="-0.33632">
        <ele>1562.8</ele>
        <time>2026-02-07T16:01:42.000Z</time>
      </trkpt>
      <trkpt lat="43.0392" lon="-0.33633">
        <ele>1562.8</ele>
        <time>2026-02-07T16:01:45.000Z</time>
      </trkpt>
      <trkpt lat="43.03921" lon="-0.33634">
        <ele>1562.8</ele>
        <time>2026-02-07T16:01:48.000Z</time>
      </trkpt>
      <trkpt lat="43.03921" lon="-0.33633">
        <ele>1562.8</ele>
        <time>2026-02-07T16:01:51.000Z</time>
      </trkpt>
      <trkpt lat="43.03921" lon="-0.33633">
        <ele>1562.9</ele>
        <time>2026-02-07T16:01:54.000Z</time>
      </trkpt>
      <trkpt lat="43.03921" lon="-0.33633">
        <ele>1562.9</ele>
        <time>2026-02-07T16:01:57.000Z</time>
      </trkpt>
      <trkpt lat="43.03921" lon="-0.33633">
        <ele>1562.9</ele>
        <time>2026-02-07T16:01:58.000Z</time>
      </trkpt>
      <trkpt lat="43.03921" lon="-0.33633">
        <ele>1562.9</ele>
        <time>2026-02-07T16:01:59.000Z</time>
      </trkpt>
      <trkpt lat="43.03921" lon="-0.33633">
        <ele>1562.9</ele>
        <time>2026-02-07T16:02:02.000Z</time>
      </trkpt>
      <trkpt lat="43.03921" lon="-0.33633">
        <ele>1562.9</ele>
        <time>2026-02-07T16:02:05.000Z</time>
      </trkpt>
      <trkpt lat="43.03921" lon="-0.33633">
        <ele>1562.9</ele>
        <time>2026-02-07T16:02:08.000Z</time>
      </trkpt>
      <trkpt lat="43.03921" lon="-0.33633">
        <ele>1562.9</ele>
        <time>2026-02-07T16:02:11.000Z</time>
      </trkpt>
      <trkpt lat="43.03921" lon="-0.33633">
        <ele>1562.9</ele>
        <time>2026-02-07T16:02:14.000Z</time>
      </trkpt>
      <trkpt lat="43.03921" lon="-0.33633">
        <ele>1563</ele>
        <time>2026-02-07T16:02:15.000Z</time>
      </trkpt>
      <trkpt lat="43.03921" lon="-0.33633">
        <ele>1563</ele>
        <time>2026-02-07T16:02:16.000Z</time>
      </trkpt>
      <trkpt lat="43.03921" lon="-0.33632">
        <ele>1563</ele>
        <time>2026-02-07T16:02:19.000Z</time>
      </trkpt>
      <trkpt lat="43.03921" lon="-0.33632">
        <ele>1563</ele>
        <time>2026-02-07T16:02:22.000Z</time>
      </trkpt>
      <trkpt lat="43.03921" lon="-0.33632">
        <ele>1563</ele>
        <time>2026-02-07T16:02:23.000Z</time>
      </trkpt>
      <trkpt lat="43.03921" lon="-0.33632">
        <ele>1563</ele>
        <time>2026-02-07T16:02:24.000Z</time>
      </trkpt>
      <trkpt lat="43.03921" lon="-0.33632">
        <ele>1563.1</ele>
        <time>2026-02-07T16:02:27.000Z</time>
      </trkpt>
      <trkpt lat="43.03921" lon="-0.33631">
        <ele>1563.1</ele>
        <time>2026-02-07T16:02:28.000Z</time>
      </trkpt>
      <trkpt lat="43.03921" lon="-0.33631">
        <ele>1563.1</ele>
        <time>2026-02-07T16:02:29.000Z</time>
      </trkpt>
      <trkpt lat="43.03921" lon="-0.33631">
        <ele>1563.1</ele>
        <time>2026-02-07T16:02:32.000Z</time>
      </trkpt>
      <trkpt lat="43.03921" lon="-0.33631">
        <ele>1563.1</ele>
        <time>2026-02-07T16:02:33.000Z</time>
      </trkpt>
      <trkpt lat="43.03921" lon="-0.33631">
        <ele>1563.1</ele>
        <time>2026-02-07T16:02:34.000Z</time>
      </trkpt>
      <trkpt lat="43.03921" lon="-0.33631">
        <ele>1563.1</ele>
        <time>2026-02-07T16:02:37.000Z</time>
      </trkpt>
      <trkpt lat="43.03921" lon="-0.33631">
        <ele>1563.1</ele>
        <time>2026-02-07T16:02:40.000Z</time>
      </trkpt>
      <trkpt lat="43.03921" lon="-0.33631">
        <ele>1563.1</ele>
        <time>2026-02-07T16:02:43.000Z</time>
      </trkpt>
      <trkpt lat="43.03921" lon="-0.33631">
        <ele>1563.1</ele>
        <time>2026-02-07T16:02:45.000Z</time>
      </trkpt>
      <trkpt lat="43.03921" lon="-0.33631">
        <ele>1563.1</ele>
        <time>2026-02-07T16:02:46.000Z</time>
      </trkpt>
      <trkpt lat="43.03921" lon="-0.33631">
        <ele>1563.1</ele>
        <time>2026-02-07T16:02:49.000Z</time>
      </trkpt>
      <trkpt lat="43.03921" lon="-0.33631">
        <ele>1563.1</ele>
        <time>2026-02-07T16:02:52.000Z</time>
      </trkpt>
      <trkpt lat="43.03922" lon="-0.3363">
        <ele>1563.1</ele>
        <time>2026-02-07T16:02:55.000Z</time>
      </trkpt>
      <trkpt lat="43.03922" lon="-0.3363">
        <ele>1563.2</ele>
        <time>2026-02-07T16:02:58.000Z</time>
      </trkpt>
      <trkpt lat="43.03922" lon="-0.3363">
        <ele>1563.2</ele>
        <time>2026-02-07T16:03:01.000Z</time>
      </trkpt>
      <trkpt lat="43.03922" lon="-0.3363">
        <ele>1563.2</ele>
        <time>2026-02-07T16:03:04.000Z</time>
      </trkpt>
      <trkpt lat="43.03921" lon="-0.33629">
        <ele>1563.3</ele>
        <time>2026-02-07T16:03:07.000Z</time>
      </trkpt>
      <trkpt lat="43.03921" lon="-0.33629">
        <ele>1563.3</ele>
        <time>2026-02-07T16:03:10.000Z</time>
      </trkpt>
      <trkpt lat="43.03921" lon="-0.33628">
        <ele>1563.3</ele>
        <time>2026-02-07T16:03:13.000Z</time>
      </trkpt>
      <trkpt lat="43.03922" lon="-0.33628">
        <ele>1563.3</ele>
        <time>2026-02-07T16:03:16.000Z</time>
      </trkpt>
      <trkpt lat="43.03922" lon="-0.33628">
        <ele>1563.4</ele>
        <time>2026-02-07T16:03:19.000Z</time>
      </trkpt>
      <trkpt lat="43.03922" lon="-0.33628">
        <ele>1563.4</ele>
        <time>2026-02-07T16:03:22.000Z</time>
      </trkpt>
      <trkpt lat="43.03922" lon="-0.33628">
        <ele>1563.4</ele>
        <time>2026-02-07T16:03:25.000Z</time>
      </trkpt>
      <trkpt lat="43.03922" lon="-0.33628">
        <ele>1563.4</ele>
        <time>2026-02-07T16:03:28.000Z</time>
      </trkpt>
      <trkpt lat="43.03922" lon="-0.33628">
        <ele>1563.4</ele>
        <time>2026-02-07T16:03:31.000Z</time>
      </trkpt>
      <trkpt lat="43.03922" lon="-0.33628">
        <ele>1563.4</ele>
        <time>2026-02-07T16:03:34.000Z</time>
      </trkpt>
      <trkpt lat="43.03922" lon="-0.33628">
        <ele>1563.4</ele>
        <time>2026-02-07T16:03:37.000Z</time>
      </trkpt>
      <trkpt lat="43.03922" lon="-0.33627">
        <ele>1563.5</ele>
        <time>2026-02-07T16:03:40.000Z</time>
      </trkpt>
      <trkpt lat="43.03922" lon="-0.33627">
        <ele>1563.5</ele>
        <time>2026-02-07T16:03:41.000Z</time>
      </trkpt>
      <trkpt lat="43.03922" lon="-0.33627">
        <ele>1563.5</ele>
        <time>2026-02-07T16:03:42.000Z</time>
      </trkpt>
      <trkpt lat="43.03922" lon="-0.33627">
        <ele>1563.5</ele>
        <time>2026-02-07T16:03:43.000Z</time>
      </trkpt>
      <trkpt lat="43.03923" lon="-0.33627">
        <ele>1563.5</ele>
        <time>2026-02-07T16:03:46.000Z</time>
      </trkpt>
      <trkpt lat="43.03923" lon="-0.33627">
        <ele>1563.5</ele>
        <time>2026-02-07T16:03:49.000Z</time>
      </trkpt>
      <trkpt lat="43.03923" lon="-0.33626">
        <ele>1563.5</ele>
        <time>2026-02-07T16:03:52.000Z</time>
      </trkpt>
      <trkpt lat="43.03923" lon="-0.33626">
        <ele>1563.6</ele>
        <time>2026-02-07T16:03:55.000Z</time>
      </trkpt>
      <trkpt lat="43.03923" lon="-0.33626">
        <ele>1563.6</ele>
        <time>2026-02-07T16:03:58.000Z</time>
      </trkpt>
      <trkpt lat="43.03923" lon="-0.33626">
        <ele>1563.6</ele>
        <time>2026-02-07T16:03:59.000Z</time>
      </trkpt>
      <trkpt lat="43.03923" lon="-0.33625">
        <ele>1563.6</ele>
        <time>2026-02-07T16:04:00.000Z</time>
      </trkpt>
      <trkpt lat="43.03924" lon="-0.33625">
        <ele>1563.6</ele>
        <time>2026-02-07T16:04:01.000Z</time>
      </trkpt>
      <trkpt lat="43.03923" lon="-0.33625">
        <ele>1563.6</ele>
        <time>2026-02-07T16:04:02.000Z</time>
      </trkpt>
      <trkpt lat="43.03923" lon="-0.33628">
        <ele>1563.6</ele>
        <time>2026-02-07T16:04:05.000Z</time>
      </trkpt>
      <trkpt lat="43.0392" lon="-0.33627">
        <ele>1563.6</ele>
        <time>2026-02-07T16:04:08.000Z</time>
      </trkpt>
      <trkpt lat="43.0392" lon="-0.33627">
        <ele>1563.6</ele>
        <time>2026-02-07T16:04:11.000Z</time>
      </trkpt>
      <trkpt lat="43.03921" lon="-0.33627">
        <ele>1563.6</ele>
        <time>2026-02-07T16:04:14.000Z</time>
      </trkpt>
      <trkpt lat="43.03921" lon="-0.33628">
        <ele>1563.6</ele>
        <time>2026-02-07T16:04:17.000Z</time>
      </trkpt>
      <trkpt lat="43.03921" lon="-0.33628">
        <ele>1563.6</ele>
        <time>2026-02-07T16:04:20.000Z</time>
      </trkpt>
      <trkpt lat="43.03921" lon="-0.33629">
        <ele>1563.6</ele>
        <time>2026-02-07T16:04:23.000Z</time>
      </trkpt>
      <trkpt lat="43.03921" lon="-0.33629">
        <ele>1563.6</ele>
        <time>2026-02-07T16:04:25.000Z</time>
      </trkpt>
      <trkpt lat="43.03921" lon="-0.33629">
        <ele>1563.6</ele>
        <time>2026-02-07T16:04:26.000Z</time>
      </trkpt>
      <trkpt lat="43.03921" lon="-0.33629">
        <ele>1563.6</ele>
        <time>2026-02-07T16:04:27.000Z</time>
      </trkpt>
      <trkpt lat="43.03921" lon="-0.33629">
        <ele>1563.6</ele>
        <time>2026-02-07T16:04:28.000Z</time>
      </trkpt>
      <trkpt lat="43.03921" lon="-0.33629">
        <ele>1563.6</ele>
        <time>2026-02-07T16:04:29.000Z</time>
      </trkpt>
      <trkpt lat="43.0392" lon="-0.3363">
        <ele>1563.7</ele>
        <time>2026-02-07T16:04:32.000Z</time>
      </trkpt>
      <trkpt lat="43.03921" lon="-0.33631">
        <ele>1563.7</ele>
        <time>2026-02-07T16:04:35.000Z</time>
      </trkpt>
      <trkpt lat="43.03922" lon="-0.33633">
        <ele>1563.7</ele>
        <time>2026-02-07T16:04:38.000Z</time>
      </trkpt>
      <trkpt lat="43.03922" lon="-0.33635">
        <ele>1563.8</ele>
        <time>2026-02-07T16:04:41.000Z</time>
      </trkpt>
      <trkpt lat="43.03921" lon="-0.33639">
        <ele>1564</ele>
        <time>2026-02-07T16:04:44.000Z</time>
      </trkpt>
      <trkpt lat="43.0392" lon="-0.33641">
        <ele>1564</ele>
        <time>2026-02-07T16:04:47.000Z</time>
      </trkpt>
      <trkpt lat="43.03918" lon="-0.33642">
        <ele>1564</ele>
        <time>2026-02-07T16:04:50.000Z</time>
      </trkpt>
      <trkpt lat="43.03917" lon="-0.33643">
        <ele>1564</ele>
        <time>2026-02-07T16:04:53.000Z</time>
      </trkpt>
      <trkpt lat="43.03916" lon="-0.33643">
        <ele>1563.9</ele>
        <time>2026-02-07T16:04:56.000Z</time>
      </trkpt>
      <trkpt lat="43.03914" lon="-0.33642">
        <ele>1563.7</ele>
        <time>2026-02-07T16:04:59.000Z</time>
      </trkpt>
      <trkpt lat="43.03915" lon="-0.3364">
        <ele>1563.3</ele>
        <time>2026-02-07T16:05:02.000Z</time>
      </trkpt>
      <trkpt lat="43.03914" lon="-0.3364">
        <ele>1562.8</ele>
        <time>2026-02-07T16:05:05.000Z</time>
      </trkpt>
      <trkpt lat="43.03914" lon="-0.3364">
        <ele>1562.4</ele>
        <time>2026-02-07T16:05:08.000Z</time>
      </trkpt>
      <trkpt lat="43.03913" lon="-0.3364">
        <ele>1562</ele>
        <time>2026-02-07T16:05:11.000Z</time>
      </trkpt>
      <trkpt lat="43.03912" lon="-0.3364">
        <ele>1561.7</ele>
        <time>2026-02-07T16:05:14.000Z</time>
      </trkpt>
      <trkpt lat="43.03911" lon="-0.3364">
        <ele>1561.3</ele>
        <time>2026-02-07T16:05:17.000Z</time>
      </trkpt>
      <trkpt lat="43.03909" lon="-0.33639">
        <ele>1561</ele>
        <time>2026-02-07T16:05:20.000Z</time>
      </trkpt>
      <trkpt lat="43.03909" lon="-0.3364">
        <ele>1560.5</ele>
        <time>2026-02-07T16:05:23.000Z</time>
      </trkpt>
      <trkpt lat="43.03909" lon="-0.33639">
        <ele>1560.1</ele>
        <time>2026-02-07T16:05:26.000Z</time>
      </trkpt>
      <trkpt lat="43.03908" lon="-0.33637">
        <ele>1559.8</ele>
        <time>2026-02-07T16:05:29.000Z</time>
      </trkpt>
      <trkpt lat="43.03906" lon="-0.33636">
        <ele>1559.6</ele>
        <time>2026-02-07T16:05:32.000Z</time>
      </trkpt>
      <trkpt lat="43.03906" lon="-0.33635">
        <ele>1559.4</ele>
        <time>2026-02-07T16:05:35.000Z</time>
      </trkpt>
      <trkpt lat="43.03906" lon="-0.33632">
        <ele>1559.1</ele>
        <time>2026-02-07T16:05:38.000Z</time>
      </trkpt>
      <trkpt lat="43.03906" lon="-0.33629">
        <ele>1558.8</ele>
        <time>2026-02-07T16:05:41.000Z</time>
      </trkpt>
      <trkpt lat="43.03905" lon="-0.33626">
        <ele>1558.5</ele>
        <time>2026-02-07T16:05:44.000Z</time>
      </trkpt>
      <trkpt lat="43.03905" lon="-0.33624">
        <ele>1558.1</ele>
        <time>2026-02-07T16:05:47.000Z</time>
      </trkpt>
      <trkpt lat="43.03903" lon="-0.33621">
        <ele>1557.7</ele>
        <time>2026-02-07T16:05:50.000Z</time>
      </trkpt>
      <trkpt lat="43.03903" lon="-0.33618">
        <ele>1557.2</ele>
        <time>2026-02-07T16:05:53.000Z</time>
      </trkpt>
      <trkpt lat="43.03902" lon="-0.33614">
        <ele>1556.6</ele>
        <time>2026-02-07T16:05:56.000Z</time>
      </trkpt>
      <trkpt lat="43.03903" lon="-0.3361">
        <ele>1556.1</ele>
        <time>2026-02-07T16:05:59.000Z</time>
      </trkpt>
      <trkpt lat="43.03902" lon="-0.33606">
        <ele>1555.6</ele>
        <time>2026-02-07T16:06:02.000Z</time>
      </trkpt>
      <trkpt lat="43.03902" lon="-0.33603">
        <ele>1555.1</ele>
        <time>2026-02-07T16:06:05.000Z</time>
      </trkpt>
      <trkpt lat="43.03901" lon="-0.336">
        <ele>1554.6</ele>
        <time>2026-02-07T16:06:08.000Z</time>
      </trkpt>
      <trkpt lat="43.03901" lon="-0.33598">
        <ele>1554.2</ele>
        <time>2026-02-07T16:06:11.000Z</time>
      </trkpt>
      <trkpt lat="43.03901" lon="-0.33594">
        <ele>1553.8</ele>
        <time>2026-02-07T16:06:14.000Z</time>
      </trkpt>
      <trkpt lat="43.03901" lon="-0.33591">
        <ele>1553.4</ele>
        <time>2026-02-07T16:06:17.000Z</time>
      </trkpt>
      <trkpt lat="43.039" lon="-0.33589">
        <ele>1553.1</ele>
        <time>2026-02-07T16:06:20.000Z</time>
      </trkpt>
      <trkpt lat="43.039" lon="-0.33586">
        <ele>1552.6</ele>
        <time>2026-02-07T16:06:23.000Z</time>
      </trkpt>
      <trkpt lat="43.03899" lon="-0.33584">
        <ele>1552</ele>
        <time>2026-02-07T16:06:26.000Z</time>
      </trkpt>
      <trkpt lat="43.03898" lon="-0.33582">
        <ele>1551.6</ele>
        <time>2026-02-07T16:06:29.000Z</time>
      </trkpt>
      <trkpt lat="43.03897" lon="-0.3358">
        <ele>1551.2</ele>
        <time>2026-02-07T16:06:32.000Z</time>
      </trkpt>
      <trkpt lat="43.03896" lon="-0.33579">
        <ele>1550.8</ele>
        <time>2026-02-07T16:06:35.000Z</time>
      </trkpt>
      <trkpt lat="43.03895" lon="-0.33578">
        <ele>1550.3</ele>
        <time>2026-02-07T16:06:38.000Z</time>
      </trkpt>
      <trkpt lat="43.03894" lon="-0.33577">
        <ele>1549.9</ele>
        <time>2026-02-07T16:06:41.000Z</time>
      </trkpt>
      <trkpt lat="43.03894" lon="-0.33576">
        <ele>1549.4</ele>
        <time>2026-02-07T16:06:44.000Z</time>
      </trkpt>
      <trkpt lat="43.03892" lon="-0.33575">
        <ele>1548.9</ele>
        <time>2026-02-07T16:06:47.000Z</time>
      </trkpt>
      <trkpt lat="43.03891" lon="-0.33574">
        <ele>1548.2</ele>
        <time>2026-02-07T16:06:50.000Z</time>
      </trkpt>
      <trkpt lat="43.03889" lon="-0.33572">
        <ele>1547.5</ele>
        <time>2026-02-07T16:06:53.000Z</time>
      </trkpt>
      <trkpt lat="43.03888" lon="-0.3357">
        <ele>1546.6</ele>
        <time>2026-02-07T16:06:56.000Z</time>
      </trkpt>
      <trkpt lat="43.03887" lon="-0.33568">
        <ele>1545.6</ele>
        <time>2026-02-07T16:06:59.000Z</time>
      </trkpt>
      <trkpt lat="43.03886" lon="-0.33565">
        <ele>1544.4</ele>
        <time>2026-02-07T16:07:02.000Z</time>
      </trkpt>
      <trkpt lat="43.03885" lon="-0.33562">
        <ele>1543.1</ele>
        <time>2026-02-07T16:07:05.000Z</time>
      </trkpt>
      <trkpt lat="43.03885" lon="-0.33561">
        <ele>1542.5</ele>
        <time>2026-02-07T16:07:08.000Z</time>
      </trkpt>
      <trkpt lat="43.03884" lon="-0.33559">
        <ele>1542</ele>
        <time>2026-02-07T16:07:11.000Z</time>
      </trkpt>
      <trkpt lat="43.03884" lon="-0.33558">
        <ele>1541.4</ele>
        <time>2026-02-07T16:07:14.000Z</time>
      </trkpt>
      <trkpt lat="43.03883" lon="-0.33556">
        <ele>1541</ele>
        <time>2026-02-07T16:07:17.000Z</time>
      </trkpt>
      <trkpt lat="43.03882" lon="-0.33553">
        <ele>1540.4</ele>
        <time>2026-02-07T16:07:20.000Z</time>
      </trkpt>
      <trkpt lat="43.03883" lon="-0.33551">
        <ele>1539.4</ele>
        <time>2026-02-07T16:07:23.000Z</time>
      </trkpt>
      <trkpt lat="43.03883" lon="-0.33551">
        <ele>1538.7</ele>
        <time>2026-02-07T16:07:26.000Z</time>
      </trkpt>
      <trkpt lat="43.03883" lon="-0.3355">
        <ele>1538.2</ele>
        <time>2026-02-07T16:07:29.000Z</time>
      </trkpt>
      <trkpt lat="43.03882" lon="-0.33549">
        <ele>1538</ele>
        <time>2026-02-07T16:07:32.000Z</time>
      </trkpt>
      <trkpt lat="43.03882" lon="-0.33548">
        <ele>1537.9</ele>
        <time>2026-02-07T16:07:35.000Z</time>
      </trkpt>
      <trkpt lat="43.03882" lon="-0.33548">
        <ele>1537.8</ele>
        <time>2026-02-07T16:07:37.000Z</time>
      </trkpt>
      <trkpt lat="43.03882" lon="-0.33548">
        <ele>1537.8</ele>
        <time>2026-02-07T16:07:38.000Z</time>
      </trkpt>
      <trkpt lat="43.03882" lon="-0.33548">
        <ele>1537.8</ele>
        <time>2026-02-07T16:07:39.000Z</time>
      </trkpt>
      <trkpt lat="43.03884" lon="-0.33548">
        <ele>1537.7</ele>
        <time>2026-02-07T16:07:42.000Z</time>
      </trkpt>
      <trkpt lat="43.03884" lon="-0.33548">
        <ele>1537.7</ele>
        <time>2026-02-07T16:07:43.000Z</time>
      </trkpt>
      <trkpt lat="43.03884" lon="-0.33548">
        <ele>1537.7</ele>
        <time>2026-02-07T16:07:44.000Z</time>
      </trkpt>
      <trkpt lat="43.03884" lon="-0.33549">
        <ele>1537.7</ele>
        <time>2026-02-07T16:07:47.000Z</time>
      </trkpt>
      <trkpt lat="43.03884" lon="-0.33549">
        <ele>1537.7</ele>
        <time>2026-02-07T16:07:50.000Z</time>
      </trkpt>
      <trkpt lat="43.03883" lon="-0.33548">
        <ele>1537.5</ele>
        <time>2026-02-07T16:07:53.000Z</time>
      </trkpt>
      <trkpt lat="43.03882" lon="-0.33545">
        <ele>1537.3</ele>
        <time>2026-02-07T16:07:56.000Z</time>
      </trkpt>
      <trkpt lat="43.03881" lon="-0.33543">
        <ele>1536.9</ele>
        <time>2026-02-07T16:07:59.000Z</time>
      </trkpt>
      <trkpt lat="43.0388" lon="-0.33541">
        <ele>1536.3</ele>
        <time>2026-02-07T16:08:02.000Z</time>
      </trkpt>
      <trkpt lat="43.03879" lon="-0.33539">
        <ele>1535.4</ele>
        <time>2026-02-07T16:08:05.000Z</time>
      </trkpt>
      <trkpt lat="43.03877" lon="-0.33537">
        <ele>1534.3</ele>
        <time>2026-02-07T16:08:08.000Z</time>
      </trkpt>
      <trkpt lat="43.03877" lon="-0.33535">
        <ele>1533.2</ele>
        <time>2026-02-07T16:08:11.000Z</time>
      </trkpt>
      <trkpt lat="43.03876" lon="-0.33533">
        <ele>1532.3</ele>
        <time>2026-02-07T16:08:14.000Z</time>
      </trkpt>
      <trkpt lat="43.03874" lon="-0.33531">
        <ele>1531.5</ele>
        <time>2026-02-07T16:08:17.000Z</time>
      </trkpt>
      <trkpt lat="43.03874" lon="-0.33528">
        <ele>1530.9</ele>
        <time>2026-02-07T16:08:20.000Z</time>
      </trkpt>
      <trkpt lat="43.03874" lon="-0.33526">
        <ele>1530.2</ele>
        <time>2026-02-07T16:08:23.000Z</time>
      </trkpt>
      <trkpt lat="43.03873" lon="-0.33523">
        <ele>1529.5</ele>
        <time>2026-02-07T16:08:26.000Z</time>
      </trkpt>
      <trkpt lat="43.03873" lon="-0.3352">
        <ele>1528.7</ele>
        <time>2026-02-07T16:08:29.000Z</time>
      </trkpt>
      <trkpt lat="43.03873" lon="-0.33517">
        <ele>1527.9</ele>
        <time>2026-02-07T16:08:32.000Z</time>
      </trkpt>
      <trkpt lat="43.03872" lon="-0.33514">
        <ele>1527.1</ele>
        <time>2026-02-07T16:08:35.000Z</time>
      </trkpt>
      <trkpt lat="43.0387" lon="-0.33511">
        <ele>1526.5</ele>
        <time>2026-02-07T16:08:38.000Z</time>
      </trkpt>
      <trkpt lat="43.0387" lon="-0.33509">
        <ele>1526</ele>
        <time>2026-02-07T16:08:41.000Z</time>
      </trkpt>
      <trkpt lat="43.0387" lon="-0.33507">
        <ele>1525.4</ele>
        <time>2026-02-07T16:08:44.000Z</time>
      </trkpt>
      <trkpt lat="43.0387" lon="-0.33505">
        <ele>1525</ele>
        <time>2026-02-07T16:08:47.000Z</time>
      </trkpt>
      <trkpt lat="43.03868" lon="-0.33503">
        <ele>1524.6</ele>
        <time>2026-02-07T16:08:50.000Z</time>
      </trkpt>
      <trkpt lat="43.03867" lon="-0.33502">
        <ele>1524.1</ele>
        <time>2026-02-07T16:08:53.000Z</time>
      </trkpt>
      <trkpt lat="43.03865" lon="-0.33501">
        <ele>1523.6</ele>
        <time>2026-02-07T16:08:56.000Z</time>
      </trkpt>
      <trkpt lat="43.03863" lon="-0.335">
        <ele>1523</ele>
        <time>2026-02-07T16:08:59.000Z</time>
      </trkpt>
      <trkpt lat="43.03861" lon="-0.33501">
        <ele>1522.4</ele>
        <time>2026-02-07T16:09:02.000Z</time>
      </trkpt>
      <trkpt lat="43.03859" lon="-0.33502">
        <ele>1521.7</ele>
        <time>2026-02-07T16:09:05.000Z</time>
      </trkpt>
      <trkpt lat="43.03859" lon="-0.33501">
        <ele>1520.9</ele>
        <time>2026-02-07T16:09:08.000Z</time>
      </trkpt>
      <trkpt lat="43.03857" lon="-0.33502">
        <ele>1520.3</ele>
        <time>2026-02-07T16:09:11.000Z</time>
      </trkpt>
      <trkpt lat="43.03856" lon="-0.33504">
        <ele>1519.6</ele>
        <time>2026-02-07T16:09:14.000Z</time>
      </trkpt>
      <trkpt lat="43.03854" lon="-0.33506">
        <ele>1519.1</ele>
        <time>2026-02-07T16:09:17.000Z</time>
      </trkpt>
      <trkpt lat="43.03852" lon="-0.33507">
        <ele>1518.3</ele>
        <time>2026-02-07T16:09:20.000Z</time>
      </trkpt>
      <trkpt lat="43.03851" lon="-0.33508">
        <ele>1517.8</ele>
        <time>2026-02-07T16:09:23.000Z</time>
      </trkpt>
      <trkpt lat="43.03849" lon="-0.33508">
        <ele>1517.4</ele>
        <time>2026-02-07T16:09:26.000Z</time>
      </trkpt>
      <trkpt lat="43.03847" lon="-0.33508">
        <ele>1516.8</ele>
        <time>2026-02-07T16:09:29.000Z</time>
      </trkpt>
      <trkpt lat="43.03845" lon="-0.33507">
        <ele>1516.3</ele>
        <time>2026-02-07T16:09:32.000Z</time>
      </trkpt>
      <trkpt lat="43.03844" lon="-0.33509">
        <ele>1515.7</ele>
        <time>2026-02-07T16:09:35.000Z</time>
      </trkpt>
      <trkpt lat="43.03843" lon="-0.33509">
        <ele>1515.2</ele>
        <time>2026-02-07T16:09:38.000Z</time>
      </trkpt>
      <trkpt lat="43.0384" lon="-0.33507">
        <ele>1514.7</ele>
        <time>2026-02-07T16:09:41.000Z</time>
      </trkpt>
      <trkpt lat="43.03839" lon="-0.33507">
        <ele>1514.2</ele>
        <time>2026-02-07T16:09:44.000Z</time>
      </trkpt>
      <trkpt lat="43.03837" lon="-0.33506">
        <ele>1513.7</ele>
        <time>2026-02-07T16:09:47.000Z</time>
      </trkpt>
      <trkpt lat="43.03836" lon="-0.33507">
        <ele>1513.2</ele>
        <time>2026-02-07T16:09:50.000Z</time>
      </trkpt>
      <trkpt lat="43.03835" lon="-0.33507">
        <ele>1512.8</ele>
        <time>2026-02-07T16:09:53.000Z</time>
      </trkpt>
      <trkpt lat="43.03833" lon="-0.33507">
        <ele>1512.4</ele>
        <time>2026-02-07T16:09:56.000Z</time>
      </trkpt>
      <trkpt lat="43.03831" lon="-0.33507">
        <ele>1512.1</ele>
        <time>2026-02-07T16:09:59.000Z</time>
      </trkpt>
      <trkpt lat="43.03828" lon="-0.33507">
        <ele>1511.7</ele>
        <time>2026-02-07T16:10:02.000Z</time>
      </trkpt>
      <trkpt lat="43.03826" lon="-0.33507">
        <ele>1511.3</ele>
        <time>2026-02-07T16:10:05.000Z</time>
      </trkpt>
      <trkpt lat="43.03823" lon="-0.33508">
        <ele>1510.9</ele>
        <time>2026-02-07T16:10:08.000Z</time>
      </trkpt>
      <trkpt lat="43.03821" lon="-0.33509">
        <ele>1510.6</ele>
        <time>2026-02-07T16:10:11.000Z</time>
      </trkpt>
      <trkpt lat="43.03819" lon="-0.33509">
        <ele>1510.3</ele>
        <time>2026-02-07T16:10:14.000Z</time>
      </trkpt>
      <trkpt lat="43.03817" lon="-0.33508">
        <ele>1509.9</ele>
        <time>2026-02-07T16:10:17.000Z</time>
      </trkpt>
      <trkpt lat="43.03818" lon="-0.33505">
        <ele>1509.8</ele>
        <time>2026-02-07T16:10:20.000Z</time>
      </trkpt>
      <trkpt lat="43.03818" lon="-0.33505">
        <ele>1509.7</ele>
        <time>2026-02-07T16:10:23.000Z</time>
      </trkpt>
      <trkpt lat="43.03818" lon="-0.33505">
        <ele>1509.7</ele>
        <time>2026-02-07T16:10:24.000Z</time>
      </trkpt>
      <trkpt lat="43.03818" lon="-0.33505">
        <ele>1509.6</ele>
        <time>2026-02-07T16:10:25.000Z</time>
      </trkpt>
      <trkpt lat="43.03818" lon="-0.33505">
        <ele>1509.6</ele>
        <time>2026-02-07T16:10:26.000Z</time>
      </trkpt>
      <trkpt lat="43.03818" lon="-0.33503">
        <ele>1509.4</ele>
        <time>2026-02-07T16:10:29.000Z</time>
      </trkpt>
      <trkpt lat="43.03818" lon="-0.33503">
        <ele>1509.2</ele>
        <time>2026-02-07T16:10:32.000Z</time>
      </trkpt>
      <trkpt lat="43.03818" lon="-0.33503">
        <ele>1509.1</ele>
        <time>2026-02-07T16:10:33.000Z</time>
      </trkpt>
      <trkpt lat="43.03818" lon="-0.33503">
        <ele>1509</ele>
        <time>2026-02-07T16:10:34.000Z</time>
      </trkpt>
      <trkpt lat="43.03818" lon="-0.33503">
        <ele>1508.9</ele>
        <time>2026-02-07T16:10:37.000Z</time>
      </trkpt>
      <trkpt lat="43.03818" lon="-0.33503">
        <ele>1508.8</ele>
        <time>2026-02-07T16:10:40.000Z</time>
      </trkpt>
      <trkpt lat="43.03818" lon="-0.33503">
        <ele>1508.7</ele>
        <time>2026-02-07T16:10:43.000Z</time>
      </trkpt>
      <trkpt lat="43.03818" lon="-0.33503">
        <ele>1508.6</ele>
        <time>2026-02-07T16:10:46.000Z</time>
      </trkpt>
      <trkpt lat="43.03818" lon="-0.33503">
        <ele>1508.5</ele>
        <time>2026-02-07T16:10:49.000Z</time>
      </trkpt>
      <trkpt lat="43.03818" lon="-0.33503">
        <ele>1508.5</ele>
        <time>2026-02-07T16:10:52.000Z</time>
      </trkpt>
      <trkpt lat="43.03818" lon="-0.33503">
        <ele>1508.5</ele>
        <time>2026-02-07T16:10:55.000Z</time>
      </trkpt>
      <trkpt lat="43.03818" lon="-0.33503">
        <ele>1508.4</ele>
        <time>2026-02-07T16:10:58.000Z</time>
      </trkpt>
      <trkpt lat="43.03818" lon="-0.33503">
        <ele>1508.4</ele>
        <time>2026-02-07T16:11:01.000Z</time>
      </trkpt>
      <trkpt lat="43.03818" lon="-0.33503">
        <ele>1508.4</ele>
        <time>2026-02-07T16:11:04.000Z</time>
      </trkpt>
      <trkpt lat="43.03818" lon="-0.33502">
        <ele>1508.4</ele>
        <time>2026-02-07T16:11:07.000Z</time>
      </trkpt>
      <trkpt lat="43.03818" lon="-0.33502">
        <ele>1508.4</ele>
        <time>2026-02-07T16:11:10.000Z</time>
      </trkpt>
      <trkpt lat="43.03818" lon="-0.33502">
        <ele>1508.4</ele>
        <time>2026-02-07T16:11:13.000Z</time>
      </trkpt>
      <trkpt lat="43.03818" lon="-0.33502">
        <ele>1508.4</ele>
        <time>2026-02-07T16:11:16.000Z</time>
      </trkpt>
      <trkpt lat="43.03818" lon="-0.33502">
        <ele>1508.4</ele>
        <time>2026-02-07T16:11:19.000Z</time>
      </trkpt>
      <trkpt lat="43.03818" lon="-0.33502">
        <ele>1508.4</ele>
        <time>2026-02-07T16:11:20.000Z</time>
      </trkpt>
      <trkpt lat="43.03818" lon="-0.33502">
        <ele>1508.4</ele>
        <time>2026-02-07T16:11:21.000Z</time>
      </trkpt>
      <trkpt lat="43.03818" lon="-0.33502">
        <ele>1508.4</ele>
        <time>2026-02-07T16:11:22.000Z</time>
      </trkpt>
      <trkpt lat="43.03818" lon="-0.33502">
        <ele>1508.4</ele>
        <time>2026-02-07T16:11:23.000Z</time>
      </trkpt>
      <trkpt lat="43.03818" lon="-0.33502">
        <ele>1508.4</ele>
        <time>2026-02-07T16:11:24.000Z</time>
      </trkpt>
      <trkpt lat="43.03818" lon="-0.33502">
        <ele>1508.4</ele>
        <time>2026-02-07T16:11:25.000Z</time>
      </trkpt>
      <trkpt lat="43.03818" lon="-0.33502">
        <ele>1508.4</ele>
        <time>2026-02-07T16:11:26.000Z</time>
      </trkpt>
      <trkpt lat="43.03818" lon="-0.33502">
        <ele>1508.4</ele>
        <time>2026-02-07T16:11:27.000Z</time>
      </trkpt>
      <trkpt lat="43.03818" lon="-0.33502">
        <ele>1508.4</ele>
        <time>2026-02-07T16:11:28.000Z</time>
      </trkpt>
      <trkpt lat="43.03818" lon="-0.33502">
        <ele>1508.4</ele>
        <time>2026-02-07T16:11:29.000Z</time>
      </trkpt>
      <trkpt lat="43.03818" lon="-0.33502">
        <ele>1508.4</ele>
        <time>2026-02-07T16:11:32.000Z</time>
      </trkpt>
      <trkpt lat="43.03818" lon="-0.33502">
        <ele>1508.4</ele>
        <time>2026-02-07T16:11:35.000Z</time>
      </trkpt>
      <trkpt lat="43.03818" lon="-0.33502">
        <ele>1508.4</ele>
        <time>2026-02-07T16:11:38.000Z</time>
      </trkpt>
      <trkpt lat="43.03818" lon="-0.33502">
        <ele>1508.4</ele>
        <time>2026-02-07T16:11:41.000Z</time>
      </trkpt>
      <trkpt lat="43.03818" lon="-0.33502">
        <ele>1508.4</ele>
        <time>2026-02-07T16:11:44.000Z</time>
      </trkpt>
      <trkpt lat="43.03818" lon="-0.33502">
        <ele>1508.4</ele>
        <time>2026-02-07T16:11:47.000Z</time>
      </trkpt>
      <trkpt lat="43.03818" lon="-0.33502">
        <ele>1508.4</ele>
        <time>2026-02-07T16:11:50.000Z</time>
      </trkpt>
      <trkpt lat="43.03818" lon="-0.33502">
        <ele>1508.4</ele>
        <time>2026-02-07T16:11:53.000Z</time>
      </trkpt>
      <trkpt lat="43.03818" lon="-0.33502">
        <ele>1508.4</ele>
        <time>2026-02-07T16:11:56.000Z</time>
      </trkpt>
      <trkpt lat="43.03818" lon="-0.33502">
        <ele>1508.4</ele>
        <time>2026-02-07T16:11:59.000Z</time>
      </trkpt>
      <trkpt lat="43.03818" lon="-0.33502">
        <ele>1508.4</ele>
        <time>2026-02-07T16:12:02.000Z</time>
      </trkpt>
      <trkpt lat="43.03818" lon="-0.33502">
        <ele>1508.4</ele>
        <time>2026-02-07T16:12:05.000Z</time>
      </trkpt>
      <trkpt lat="43.03818" lon="-0.33502">
        <ele>1508.4</ele>
        <time>2026-02-07T16:12:08.000Z</time>
      </trkpt>
      <trkpt lat="43.03818" lon="-0.33502">
        <ele>1508.4</ele>
        <time>2026-02-07T16:12:11.000Z</time>
      </trkpt>
      <trkpt lat="43.03818" lon="-0.33502">
        <ele>1508.4</ele>
        <time>2026-02-07T16:12:14.000Z</time>
      </trkpt>
      <trkpt lat="43.03818" lon="-0.33502">
        <ele>1508.4</ele>
        <time>2026-02-07T16:12:17.000Z</time>
      </trkpt>
      <trkpt lat="43.03818" lon="-0.33502">
        <ele>1508.4</ele>
        <time>2026-02-07T16:12:20.000Z</time>
      </trkpt>
      <trkpt lat="43.03818" lon="-0.33502">
        <ele>1508.4</ele>
        <time>2026-02-07T16:12:23.000Z</time>
      </trkpt>
      <trkpt lat="43.03818" lon="-0.33502">
        <ele>1508.3</ele>
        <time>2026-02-07T16:12:26.000Z</time>
      </trkpt>
      <trkpt lat="43.03818" lon="-0.33501">
        <ele>1508.4</ele>
        <time>2026-02-07T16:12:29.000Z</time>
      </trkpt>
      <trkpt lat="43.03817" lon="-0.33499">
        <ele>1508.4</ele>
        <time>2026-02-07T16:12:32.000Z</time>
      </trkpt>
      <trkpt lat="43.03817" lon="-0.33499">
        <ele>1508.4</ele>
        <time>2026-02-07T16:12:33.000Z</time>
      </trkpt>
      <trkpt lat="43.03817" lon="-0.33498">
        <ele>1508.4</ele>
        <time>2026-02-07T16:12:36.000Z</time>
      </trkpt>
      <trkpt lat="43.03817" lon="-0.33498">
        <ele>1508.4</ele>
        <time>2026-02-07T16:12:37.000Z</time>
      </trkpt>
      <trkpt lat="43.03817" lon="-0.33498">
        <ele>1508.4</ele>
        <time>2026-02-07T16:12:38.000Z</time>
      </trkpt>
      <trkpt lat="43.03817" lon="-0.33498">
        <ele>1508.4</ele>
        <time>2026-02-07T16:12:39.000Z</time>
      </trkpt>
      <trkpt lat="43.03817" lon="-0.33498">
        <ele>1508.5</ele>
        <time>2026-02-07T16:12:40.000Z</time>
      </trkpt>
      <trkpt lat="43.03817" lon="-0.33498">
        <ele>1508.5</ele>
        <time>2026-02-07T16:12:41.000Z</time>
      </trkpt>
      <trkpt lat="43.03819" lon="-0.33498">
        <ele>1508.5</ele>
        <time>2026-02-07T16:12:44.000Z</time>
      </trkpt>
      <trkpt lat="43.03819" lon="-0.33498">
        <ele>1508.6</ele>
        <time>2026-02-07T16:12:47.000Z</time>
      </trkpt>
      <trkpt lat="43.0382" lon="-0.33499">
        <ele>1508.6</ele>
        <time>2026-02-07T16:12:48.000Z</time>
      </trkpt>
      <trkpt lat="43.0382" lon="-0.33499">
        <ele>1508.6</ele>
        <time>2026-02-07T16:12:49.000Z</time>
      </trkpt>
      <trkpt lat="43.0382" lon="-0.33499">
        <ele>1508.6</ele>
        <time>2026-02-07T16:12:52.000Z</time>
      </trkpt>
      <trkpt lat="43.0382" lon="-0.33499">
        <ele>1508.6</ele>
        <time>2026-02-07T16:12:55.000Z</time>
      </trkpt>
      <trkpt lat="43.0382" lon="-0.335">
        <ele>1508.7</ele>
        <time>2026-02-07T16:12:58.000Z</time>
      </trkpt>
      <trkpt lat="43.0382" lon="-0.335">
        <ele>1508.7</ele>
        <time>2026-02-07T16:13:01.000Z</time>
      </trkpt>
      <trkpt lat="43.0382" lon="-0.335">
        <ele>1508.7</ele>
        <time>2026-02-07T16:13:04.000Z</time>
      </trkpt>
      <trkpt lat="43.0382" lon="-0.335">
        <ele>1508.7</ele>
        <time>2026-02-07T16:13:05.000Z</time>
      </trkpt>
      <trkpt lat="43.0382" lon="-0.335">
        <ele>1508.7</ele>
        <time>2026-02-07T16:13:06.000Z</time>
      </trkpt>
      <trkpt lat="43.0382" lon="-0.335">
        <ele>1508.7</ele>
        <time>2026-02-07T16:13:09.000Z</time>
      </trkpt>
      <trkpt lat="43.03821" lon="-0.33499">
        <ele>1508.7</ele>
        <time>2026-02-07T16:13:12.000Z</time>
      </trkpt>
      <trkpt lat="43.0382" lon="-0.33499">
        <ele>1508.7</ele>
        <time>2026-02-07T16:13:15.000Z</time>
      </trkpt>
      <trkpt lat="43.03818" lon="-0.33499">
        <ele>1508.7</ele>
        <time>2026-02-07T16:13:18.000Z</time>
      </trkpt>
      <trkpt lat="43.03816" lon="-0.33499">
        <ele>1508.7</ele>
        <time>2026-02-07T16:13:21.000Z</time>
      </trkpt>
      <trkpt lat="43.03814" lon="-0.33499">
        <ele>1508.6</ele>
        <time>2026-02-07T16:13:24.000Z</time>
      </trkpt>
      <trkpt lat="43.03812" lon="-0.335">
        <ele>1508.4</ele>
        <time>2026-02-07T16:13:27.000Z</time>
      </trkpt>
      <trkpt lat="43.03812" lon="-0.33501">
        <ele>1508.2</ele>
        <time>2026-02-07T16:13:30.000Z</time>
      </trkpt>
      <trkpt lat="43.03811" lon="-0.33501">
        <ele>1507.9</ele>
        <time>2026-02-07T16:13:33.000Z</time>
      </trkpt>
      <trkpt lat="43.0381" lon="-0.33502">
        <ele>1507.6</ele>
        <time>2026-02-07T16:13:36.000Z</time>
      </trkpt>
      <trkpt lat="43.03808" lon="-0.33503">
        <ele>1507</ele>
        <time>2026-02-07T16:13:39.000Z</time>
      </trkpt>
      <trkpt lat="43.03807" lon="-0.33503">
        <ele>1506.4</ele>
        <time>2026-02-07T16:13:42.000Z</time>
      </trkpt>
      <trkpt lat="43.03805" lon="-0.33502">
        <ele>1505.9</ele>
        <time>2026-02-07T16:13:45.000Z</time>
      </trkpt>
      <trkpt lat="43.03802" lon="-0.33501">
        <ele>1505.3</ele>
        <time>2026-02-07T16:13:48.000Z</time>
      </trkpt>
      <trkpt lat="43.03801" lon="-0.33499">
        <ele>1504.7</ele>
        <time>2026-02-07T16:13:51.000Z</time>
      </trkpt>
      <trkpt lat="43.03799" lon="-0.33499">
        <ele>1504.1</ele>
        <time>2026-02-07T16:13:54.000Z</time>
      </trkpt>
      <trkpt lat="43.03796" lon="-0.335">
        <ele>1503.6</ele>
        <time>2026-02-07T16:13:57.000Z</time>
      </trkpt>
      <trkpt lat="43.03794" lon="-0.335">
        <ele>1503.1</ele>
        <time>2026-02-07T16:14:00.000Z</time>
      </trkpt>
      <trkpt lat="43.03793" lon="-0.335">
        <ele>1502.5</ele>
        <time>2026-02-07T16:14:03.000Z</time>
      </trkpt>
      <trkpt lat="43.03791" lon="-0.335">
        <ele>1501.9</ele>
        <time>2026-02-07T16:14:06.000Z</time>
      </trkpt>
      <trkpt lat="43.03789" lon="-0.33501">
        <ele>1501.2</ele>
        <time>2026-02-07T16:14:09.000Z</time>
      </trkpt>
      <trkpt lat="43.03787" lon="-0.33502">
        <ele>1500.5</ele>
        <time>2026-02-07T16:14:12.000Z</time>
      </trkpt>
      <trkpt lat="43.03785" lon="-0.33502">
        <ele>1499.8</ele>
        <time>2026-02-07T16:14:15.000Z</time>
      </trkpt>
      <trkpt lat="43.03783" lon="-0.33501">
        <ele>1499.1</ele>
        <time>2026-02-07T16:14:18.000Z</time>
      </trkpt>
      <trkpt lat="43.03781" lon="-0.335">
        <ele>1498.4</ele>
        <time>2026-02-07T16:14:21.000Z</time>
      </trkpt>
      <trkpt lat="43.0378" lon="-0.33497">
        <ele>1497.8</ele>
        <time>2026-02-07T16:14:24.000Z</time>
      </trkpt>
      <trkpt lat="43.03778" lon="-0.33496">
        <ele>1497.3</ele>
        <time>2026-02-07T16:14:27.000Z</time>
      </trkpt>
      <trkpt lat="43.03775" lon="-0.33496">
        <ele>1496.7</ele>
        <time>2026-02-07T16:14:30.000Z</time>
      </trkpt>
      <trkpt lat="43.03772" lon="-0.33494">
        <ele>1496</ele>
        <time>2026-02-07T16:14:33.000Z</time>
      </trkpt>
      <trkpt lat="43.03769" lon="-0.33492">
        <ele>1495.4</ele>
        <time>2026-02-07T16:14:36.000Z</time>
      </trkpt>
      <trkpt lat="43.03768" lon="-0.33489">
        <ele>1494.8</ele>
        <time>2026-02-07T16:14:39.000Z</time>
      </trkpt>
      <trkpt lat="43.03767" lon="-0.33486">
        <ele>1494.2</ele>
        <time>2026-02-07T16:14:42.000Z</time>
      </trkpt>
      <trkpt lat="43.03764" lon="-0.33484">
        <ele>1493.6</ele>
        <time>2026-02-07T16:14:45.000Z</time>
      </trkpt>
      <trkpt lat="43.03762" lon="-0.33481">
        <ele>1493</ele>
        <time>2026-02-07T16:14:48.000Z</time>
      </trkpt>
      <trkpt lat="43.03761" lon="-0.33476">
        <ele>1492.4</ele>
        <time>2026-02-07T16:14:51.000Z</time>
      </trkpt>
      <trkpt lat="43.0376" lon="-0.33473">
        <ele>1491.9</ele>
        <time>2026-02-07T16:14:54.000Z</time>
      </trkpt>
      <trkpt lat="43.03759" lon="-0.33469">
        <ele>1491.3</ele>
        <time>2026-02-07T16:14:57.000Z</time>
      </trkpt>
      <trkpt lat="43.03758" lon="-0.33465">
        <ele>1490.8</ele>
        <time>2026-02-07T16:15:00.000Z</time>
      </trkpt>
      <trkpt lat="43.03757" lon="-0.33462">
        <ele>1490.3</ele>
        <time>2026-02-07T16:15:03.000Z</time>
      </trkpt>
      <trkpt lat="43.03757" lon="-0.33458">
        <ele>1489.8</ele>
        <time>2026-02-07T16:15:06.000Z</time>
      </trkpt>
      <trkpt lat="43.03757" lon="-0.33454">
        <ele>1489.3</ele>
        <time>2026-02-07T16:15:09.000Z</time>
      </trkpt>
      <trkpt lat="43.03758" lon="-0.3345">
        <ele>1488.8</ele>
        <time>2026-02-07T16:15:12.000Z</time>
      </trkpt>
      <trkpt lat="43.03758" lon="-0.33446">
        <ele>1488.4</ele>
        <time>2026-02-07T16:15:15.000Z</time>
      </trkpt>
      <trkpt lat="43.03757" lon="-0.33444">
        <ele>1488</ele>
        <time>2026-02-07T16:15:18.000Z</time>
      </trkpt>
      <trkpt lat="43.03756" lon="-0.33442">
        <ele>1487.6</ele>
        <time>2026-02-07T16:15:21.000Z</time>
      </trkpt>
      <trkpt lat="43.03755" lon="-0.33438">
        <ele>1487</ele>
        <time>2026-02-07T16:15:24.000Z</time>
      </trkpt>
      <trkpt lat="43.03755" lon="-0.33435">
        <ele>1486.4</ele>
        <time>2026-02-07T16:15:27.000Z</time>
      </trkpt>
      <trkpt lat="43.03756" lon="-0.33432">
        <ele>1485.9</ele>
        <time>2026-02-07T16:15:30.000Z</time>
      </trkpt>
      <trkpt lat="43.03757" lon="-0.33428">
        <ele>1485.5</ele>
        <time>2026-02-07T16:15:33.000Z</time>
      </trkpt>
      <trkpt lat="43.03759" lon="-0.33424">
        <ele>1485.2</ele>
        <time>2026-02-07T16:15:36.000Z</time>
      </trkpt>
      <trkpt lat="43.0376" lon="-0.33421">
        <ele>1484.9</ele>
        <time>2026-02-07T16:15:39.000Z</time>
      </trkpt>
      <trkpt lat="43.0376" lon="-0.33418">
        <ele>1484.7</ele>
        <time>2026-02-07T16:15:42.000Z</time>
      </trkpt>
      <trkpt lat="43.0376" lon="-0.33414">
        <ele>1484.3</ele>
        <time>2026-02-07T16:15:45.000Z</time>
      </trkpt>
      <trkpt lat="43.0376" lon="-0.33411">
        <ele>1483.9</ele>
        <time>2026-02-07T16:15:48.000Z</time>
      </trkpt>
      <trkpt lat="43.03761" lon="-0.33407">
        <ele>1483.6</ele>
        <time>2026-02-07T16:15:51.000Z</time>
      </trkpt>
      <trkpt lat="43.03761" lon="-0.33405">
        <ele>1483.2</ele>
        <time>2026-02-07T16:15:54.000Z</time>
      </trkpt>
      <trkpt lat="43.03761" lon="-0.33402">
        <ele>1482.9</ele>
        <time>2026-02-07T16:15:57.000Z</time>
      </trkpt>
      <trkpt lat="43.0376" lon="-0.33399">
        <ele>1482.4</ele>
        <time>2026-02-07T16:16:00.000Z</time>
      </trkpt>
      <trkpt lat="43.0376" lon="-0.33396">
        <ele>1481.9</ele>
        <time>2026-02-07T16:16:03.000Z</time>
      </trkpt>
      <trkpt lat="43.03758" lon="-0.33394">
        <ele>1481.5</ele>
        <time>2026-02-07T16:16:06.000Z</time>
      </trkpt>
      <trkpt lat="43.03759" lon="-0.33391">
        <ele>1480.9</ele>
        <time>2026-02-07T16:16:09.000Z</time>
      </trkpt>
      <trkpt lat="43.03757" lon="-0.33389">
        <ele>1480.4</ele>
        <time>2026-02-07T16:16:12.000Z</time>
      </trkpt>
      <trkpt lat="43.03756" lon="-0.33387">
        <ele>1479.8</ele>
        <time>2026-02-07T16:16:15.000Z</time>
      </trkpt>
      <trkpt lat="43.03757" lon="-0.33384">
        <ele>1479.4</ele>
        <time>2026-02-07T16:16:18.000Z</time>
      </trkpt>
      <trkpt lat="43.03757" lon="-0.33381">
        <ele>1479.1</ele>
        <time>2026-02-07T16:16:21.000Z</time>
      </trkpt>
      <trkpt lat="43.03758" lon="-0.33379">
        <ele>1478.7</ele>
        <time>2026-02-07T16:16:24.000Z</time>
      </trkpt>
      <trkpt lat="43.03759" lon="-0.33376">
        <ele>1478.2</ele>
        <time>2026-02-07T16:16:27.000Z</time>
      </trkpt>
      <trkpt lat="43.0376" lon="-0.33374">
        <ele>1477.6</ele>
        <time>2026-02-07T16:16:30.000Z</time>
      </trkpt>
      <trkpt lat="43.03759" lon="-0.33371">
        <ele>1477</ele>
        <time>2026-02-07T16:16:33.000Z</time>
      </trkpt>
      <trkpt lat="43.03757" lon="-0.33368">
        <ele>1476.1</ele>
        <time>2026-02-07T16:16:36.000Z</time>
      </trkpt>
      <trkpt lat="43.03757" lon="-0.33365">
        <ele>1475.2</ele>
        <time>2026-02-07T16:16:39.000Z</time>
      </trkpt>
      <trkpt lat="43.03757" lon="-0.33361">
        <ele>1474.3</ele>
        <time>2026-02-07T16:16:42.000Z</time>
      </trkpt>
      <trkpt lat="43.03759" lon="-0.33358">
        <ele>1473.5</ele>
        <time>2026-02-07T16:16:45.000Z</time>
      </trkpt>
      <trkpt lat="43.03759" lon="-0.33353">
        <ele>1472.5</ele>
        <time>2026-02-07T16:16:48.000Z</time>
      </trkpt>
      <trkpt lat="43.0376" lon="-0.3335">
        <ele>1471.7</ele>
        <time>2026-02-07T16:16:51.000Z</time>
      </trkpt>
      <trkpt lat="43.0376" lon="-0.3335">
        <ele>1471.4</ele>
        <time>2026-02-07T16:16:54.000Z</time>
      </trkpt>
      <trkpt lat="43.0376" lon="-0.3335">
        <ele>1471.3</ele>
        <time>2026-02-07T16:16:55.000Z</time>
      </trkpt>
      <trkpt lat="43.0376" lon="-0.3335">
        <ele>1471.3</ele>
        <time>2026-02-07T16:16:56.000Z</time>
      </trkpt>
      <trkpt lat="43.0376" lon="-0.3335">
        <ele>1471.2</ele>
        <time>2026-02-07T16:16:57.000Z</time>
      </trkpt>
      <trkpt lat="43.0376" lon="-0.3335">
        <ele>1471.1</ele>
        <time>2026-02-07T16:17:00.000Z</time>
      </trkpt>
      <trkpt lat="43.0376" lon="-0.3335">
        <ele>1471</ele>
        <time>2026-02-07T16:17:03.000Z</time>
      </trkpt>
      <trkpt lat="43.0376" lon="-0.3335">
        <ele>1470.9</ele>
        <time>2026-02-07T16:17:05.000Z</time>
      </trkpt>
      <trkpt lat="43.03761" lon="-0.3335">
        <ele>1470.9</ele>
        <time>2026-02-07T16:17:06.000Z</time>
      </trkpt>
      <trkpt lat="43.03761" lon="-0.3335">
        <ele>1470.9</ele>
        <time>2026-02-07T16:17:07.000Z</time>
      </trkpt>
      <trkpt lat="43.03761" lon="-0.3335">
        <ele>1470.8</ele>
        <time>2026-02-07T16:17:10.000Z</time>
      </trkpt>
      <trkpt lat="43.03762" lon="-0.33349">
        <ele>1470.8</ele>
        <time>2026-02-07T16:17:13.000Z</time>
      </trkpt>
      <trkpt lat="43.03762" lon="-0.33349">
        <ele>1470.8</ele>
        <time>2026-02-07T16:17:15.000Z</time>
      </trkpt>
      <trkpt lat="43.03763" lon="-0.33349">
        <ele>1470.7</ele>
        <time>2026-02-07T16:17:16.000Z</time>
      </trkpt>
      <trkpt lat="43.03765" lon="-0.3335">
        <ele>1470.7</ele>
        <time>2026-02-07T16:17:19.000Z</time>
      </trkpt>
      <trkpt lat="43.03766" lon="-0.33349">
        <ele>1470.3</ele>
        <time>2026-02-07T16:19:06.000Z</time>
      </trkpt>
      <trkpt lat="43.03764" lon="-0.33345">
        <ele>1470.3</ele>
        <time>2026-02-07T16:19:09.000Z</time>
      </trkpt>
      <trkpt lat="43.03762" lon="-0.33343">
        <ele>1470.2</ele>
        <time>2026-02-07T16:19:12.000Z</time>
      </trkpt>
      <trkpt lat="43.03761" lon="-0.33341">
        <ele>1470.2</ele>
        <time>2026-02-07T16:19:15.000Z</time>
      </trkpt>
      <trkpt lat="43.03758" lon="-0.33341">
        <ele>1470</ele>
        <time>2026-02-07T16:19:18.000Z</time>
      </trkpt>
      <trkpt lat="43.03755" lon="-0.33339">
        <ele>1469.4</ele>
        <time>2026-02-07T16:19:21.000Z</time>
      </trkpt>
      <trkpt lat="43.03752" lon="-0.33337">
        <ele>1468.4</ele>
        <time>2026-02-07T16:19:24.000Z</time>
      </trkpt>
      <trkpt lat="43.03751" lon="-0.33333">
        <ele>1466.9</ele>
        <time>2026-02-07T16:19:27.000Z</time>
      </trkpt>
      <trkpt lat="43.03751" lon="-0.33328">
        <ele>1465.4</ele>
        <time>2026-02-07T16:19:30.000Z</time>
      </trkpt>
      <trkpt lat="43.03752" lon="-0.33323">
        <ele>1464.6</ele>
        <time>2026-02-07T16:19:33.000Z</time>
      </trkpt>
      <trkpt lat="43.03753" lon="-0.33316">
        <ele>1464</ele>
        <time>2026-02-07T16:19:36.000Z</time>
      </trkpt>
      <trkpt lat="43.03756" lon="-0.3331">
        <ele>1463.6</ele>
        <time>2026-02-07T16:19:39.000Z</time>
      </trkpt>
      <trkpt lat="43.03756" lon="-0.33304">
        <ele>1463.3</ele>
        <time>2026-02-07T16:19:42.000Z</time>
      </trkpt>
      <trkpt lat="43.03754" lon="-0.33299">
        <ele>1462.8</ele>
        <time>2026-02-07T16:19:45.000Z</time>
      </trkpt>
      <trkpt lat="43.03752" lon="-0.33294">
        <ele>1462.2</ele>
        <time>2026-02-07T16:19:48.000Z</time>
      </trkpt>
      <trkpt lat="43.03751" lon="-0.33289">
        <ele>1461.5</ele>
        <time>2026-02-07T16:19:51.000Z</time>
      </trkpt>
      <trkpt lat="43.0375" lon="-0.33285">
        <ele>1460.8</ele>
        <time>2026-02-07T16:19:54.000Z</time>
      </trkpt>
      <trkpt lat="43.03748" lon="-0.33279">
        <ele>1460</ele>
        <time>2026-02-07T16:19:57.000Z</time>
      </trkpt>
      <trkpt lat="43.03746" lon="-0.33274">
        <ele>1459</ele>
        <time>2026-02-07T16:20:00.000Z</time>
      </trkpt>
      <trkpt lat="43.03744" lon="-0.33269">
        <ele>1458.1</ele>
        <time>2026-02-07T16:20:03.000Z</time>
      </trkpt>
      <trkpt lat="43.03743" lon="-0.33263">
        <ele>1457.2</ele>
        <time>2026-02-07T16:20:06.000Z</time>
      </trkpt>
      <trkpt lat="43.03741" lon="-0.33257">
        <ele>1456.2</ele>
        <time>2026-02-07T16:20:09.000Z</time>
      </trkpt>
      <trkpt lat="43.03739" lon="-0.33253">
        <ele>1455.1</ele>
        <time>2026-02-07T16:20:12.000Z</time>
      </trkpt>
      <trkpt lat="43.03737" lon="-0.33248">
        <ele>1454.1</ele>
        <time>2026-02-07T16:20:15.000Z</time>
      </trkpt>
      <trkpt lat="43.03734" lon="-0.33244">
        <ele>1453.2</ele>
        <time>2026-02-07T16:20:18.000Z</time>
      </trkpt>
      <trkpt lat="43.03732" lon="-0.33239">
        <ele>1452.4</ele>
        <time>2026-02-07T16:20:21.000Z</time>
      </trkpt>
      <trkpt lat="43.0373" lon="-0.33235">
        <ele>1451.7</ele>
        <time>2026-02-07T16:20:24.000Z</time>
      </trkpt>
      <trkpt lat="43.03728" lon="-0.33232">
        <ele>1450.9</ele>
        <time>2026-02-07T16:20:27.000Z</time>
      </trkpt>
      <trkpt lat="43.03726" lon="-0.33228">
        <ele>1450.2</ele>
        <time>2026-02-07T16:20:30.000Z</time>
      </trkpt>
      <trkpt lat="43.03723" lon="-0.33224">
        <ele>1449.4</ele>
        <time>2026-02-07T16:20:33.000Z</time>
      </trkpt>
      <trkpt lat="43.0372" lon="-0.33221">
        <ele>1448.6</ele>
        <time>2026-02-07T16:20:36.000Z</time>
      </trkpt>
      <trkpt lat="43.03719" lon="-0.33218">
        <ele>1447.9</ele>
        <time>2026-02-07T16:20:39.000Z</time>
      </trkpt>
      <trkpt lat="43.03716" lon="-0.33214">
        <ele>1447.2</ele>
        <time>2026-02-07T16:20:42.000Z</time>
      </trkpt>
      <trkpt lat="43.03715" lon="-0.33209">
        <ele>1446.4</ele>
        <time>2026-02-07T16:20:45.000Z</time>
      </trkpt>
      <trkpt lat="43.03714" lon="-0.33203">
        <ele>1445.5</ele>
        <time>2026-02-07T16:20:48.000Z</time>
      </trkpt>
      <trkpt lat="43.03713" lon="-0.33199">
        <ele>1444.8</ele>
        <time>2026-02-07T16:20:51.000Z</time>
      </trkpt>
      <trkpt lat="43.03712" lon="-0.33194">
        <ele>1444</ele>
        <time>2026-02-07T16:20:54.000Z</time>
      </trkpt>
      <trkpt lat="43.03711" lon="-0.3319">
        <ele>1443.3</ele>
        <time>2026-02-07T16:20:57.000Z</time>
      </trkpt>
      <trkpt lat="43.0371" lon="-0.33186">
        <ele>1442.6</ele>
        <time>2026-02-07T16:21:00.000Z</time>
      </trkpt>
      <trkpt lat="43.0371" lon="-0.33184">
        <ele>1441.9</ele>
        <time>2026-02-07T16:21:09.000Z</time>
      </trkpt>
      <trkpt lat="43.03711" lon="-0.33183">
        <ele>1441.8</ele>
        <time>2026-02-07T16:21:12.000Z</time>
      </trkpt>
      <trkpt lat="43.03711" lon="-0.3318">
        <ele>1441.8</ele>
        <time>2026-02-07T16:21:15.000Z</time>
      </trkpt>
      <trkpt lat="43.03713" lon="-0.33178">
        <ele>1441.7</ele>
        <time>2026-02-07T16:21:18.000Z</time>
      </trkpt>
      <trkpt lat="43.03714" lon="-0.3318">
        <ele>1442.4</ele>
        <time>2026-02-07T16:23:39.000Z</time>
      </trkpt>
      <trkpt lat="43.03714" lon="-0.3318">
        <ele>1442.4</ele>
        <time>2026-02-07T16:23:41.099Z</time>
      </trkpt>
      <trkpt lat="43.03714" lon="-0.3318">
        <ele>1442.4</ele>
        <time>2026-02-07T16:23:42.000Z</time>
      </trkpt>
      <trkpt lat="43.03714" lon="-0.3318">
        <ele>1442.4</ele>
        <time>2026-02-07T16:23:42.000Z</time>
      </trkpt>
    </trkseg>
  </trk>
</gpx>